<?xml version="1.0" encoding="UTF-8" standalone="no" ?>
<gpx xmlns="http://www.topografix.com/GPX/1/1" xmlns:xsi="http://www.w3.org/2001/XMLSchema-instance" xsi:schemaLocation="http://www.topografix.com/GPX/1/1 http://www.topografix.com/GPX/1/1/gpx.xsd" version="1.1" creator="VisuGPX - https://www.visugpx.com">
  <metadata>
    <name>Voiron Saint Jean de Chevelu</name>
    <desc><![CDATA[Première sortie vélo-sacoches de la saison.]]></desc>
  </metadata>
  <trk>
    <name><![CDATA[Voiron Saint Paul de Yenne]]></name>
    <trkseg>
      <trkpt lat="45.36379" lon="5.59433">
        <ele>287.9</ele>
        <time>2022-04-15T07:13:33Z</time>
      </trkpt>
      <trkpt lat="45.36381" lon="5.5946">
        <ele>288</ele>
        <time>2022-04-15T07:14:03Z</time>
      </trkpt>
      <trkpt lat="45.36381" lon="5.5946">
        <ele>288</ele>
        <time>2022-04-15T07:14:04Z</time>
      </trkpt>
      <trkpt lat="45.36381" lon="5.5946">
        <ele>288</ele>
        <time>2022-04-15T07:14:05Z</time>
      </trkpt>
      <trkpt lat="45.36381" lon="5.5946">
        <ele>288</ele>
        <time>2022-04-15T07:14:06Z</time>
      </trkpt>
      <trkpt lat="45.36382" lon="5.5946">
        <ele>288</ele>
        <time>2022-04-15T07:14:07Z</time>
      </trkpt>
      <trkpt lat="45.36382" lon="5.59461">
        <ele>288</ele>
        <time>2022-04-15T07:14:08Z</time>
      </trkpt>
      <trkpt lat="45.36382" lon="5.59462">
        <ele>288</ele>
        <time>2022-04-15T07:14:09Z</time>
      </trkpt>
      <trkpt lat="45.36382" lon="5.59462">
        <ele>288</ele>
        <time>2022-04-15T07:14:10Z</time>
      </trkpt>
      <trkpt lat="45.36382" lon="5.59462">
        <ele>288</ele>
        <time>2022-04-15T07:14:11Z</time>
      </trkpt>
      <trkpt lat="45.36382" lon="5.59462">
        <ele>288</ele>
        <time>2022-04-15T07:14:12Z</time>
      </trkpt>
      <trkpt lat="45.36383" lon="5.59462">
        <ele>288</ele>
        <time>2022-04-15T07:14:13Z</time>
      </trkpt>
      <trkpt lat="45.36383" lon="5.59462">
        <ele>288</ele>
        <time>2022-04-15T07:14:14Z</time>
      </trkpt>
      <trkpt lat="45.36383" lon="5.59462">
        <ele>288</ele>
        <time>2022-04-15T07:14:15Z</time>
      </trkpt>
      <trkpt lat="45.36382" lon="5.59462">
        <ele>288</ele>
        <time>2022-04-15T07:14:16Z</time>
      </trkpt>
      <trkpt lat="45.36382" lon="5.59462">
        <ele>288</ele>
        <time>2022-04-15T07:14:17Z</time>
      </trkpt>
      <trkpt lat="45.36382" lon="5.59462">
        <ele>288</ele>
        <time>2022-04-15T07:14:18Z</time>
      </trkpt>
      <trkpt lat="45.36382" lon="5.59462">
        <ele>288</ele>
        <time>2022-04-15T07:14:19Z</time>
      </trkpt>
      <trkpt lat="45.36382" lon="5.59462">
        <ele>288</ele>
        <time>2022-04-15T07:14:20Z</time>
      </trkpt>
      <trkpt lat="45.36382" lon="5.59462">
        <ele>288</ele>
        <time>2022-04-15T07:14:21Z</time>
      </trkpt>
      <trkpt lat="45.36382" lon="5.59462">
        <ele>288</ele>
        <time>2022-04-15T07:14:22Z</time>
      </trkpt>
      <trkpt lat="45.36382" lon="5.59462">
        <ele>288</ele>
        <time>2022-04-15T07:14:23Z</time>
      </trkpt>
      <trkpt lat="45.36382" lon="5.59462">
        <ele>288</ele>
        <time>2022-04-15T07:14:24Z</time>
      </trkpt>
      <trkpt lat="45.36382" lon="5.59462">
        <ele>288</ele>
        <time>2022-04-15T07:14:25Z</time>
      </trkpt>
      <trkpt lat="45.36382" lon="5.59462">
        <ele>288</ele>
        <time>2022-04-15T07:14:26Z</time>
      </trkpt>
      <trkpt lat="45.36382" lon="5.59462">
        <ele>288</ele>
        <time>2022-04-15T07:14:27Z</time>
      </trkpt>
      <trkpt lat="45.36382" lon="5.59462">
        <ele>288</ele>
        <time>2022-04-15T07:14:28Z</time>
      </trkpt>
      <trkpt lat="45.36382" lon="5.59462">
        <ele>288</ele>
        <time>2022-04-15T07:14:29Z</time>
      </trkpt>
      <trkpt lat="45.36382" lon="5.59462">
        <ele>288</ele>
        <time>2022-04-15T07:14:30Z</time>
      </trkpt>
      <trkpt lat="45.36382" lon="5.59462">
        <ele>288</ele>
        <time>2022-04-15T07:14:31Z</time>
      </trkpt>
      <trkpt lat="45.36382" lon="5.59462">
        <ele>288</ele>
        <time>2022-04-15T07:14:32Z</time>
      </trkpt>
      <trkpt lat="45.36383" lon="5.59462">
        <ele>288</ele>
        <time>2022-04-15T07:14:33Z</time>
      </trkpt>
      <trkpt lat="45.36383" lon="5.59462">
        <ele>288</ele>
        <time>2022-04-15T07:14:34Z</time>
      </trkpt>
      <trkpt lat="45.36383" lon="5.59462">
        <ele>288</ele>
        <time>2022-04-15T07:14:35Z</time>
      </trkpt>
      <trkpt lat="45.36383" lon="5.59462">
        <ele>288</ele>
        <time>2022-04-15T07:14:36Z</time>
      </trkpt>
      <trkpt lat="45.36383" lon="5.59462">
        <ele>288</ele>
        <time>2022-04-15T07:14:37Z</time>
      </trkpt>
      <trkpt lat="45.3638" lon="5.59464">
        <ele>288</ele>
        <time>2022-04-15T07:14:38Z</time>
      </trkpt>
      <trkpt lat="45.3638" lon="5.59464">
        <ele>288</ele>
        <time>2022-04-15T07:14:39Z</time>
      </trkpt>
      <trkpt lat="45.3638" lon="5.59463">
        <ele>288</ele>
        <time>2022-04-15T07:14:40Z</time>
      </trkpt>
      <trkpt lat="45.3638" lon="5.59463">
        <ele>288</ele>
        <time>2022-04-15T07:14:41Z</time>
      </trkpt>
      <trkpt lat="45.3638" lon="5.59463">
        <ele>288</ele>
        <time>2022-04-15T07:14:42Z</time>
      </trkpt>
      <trkpt lat="45.3638" lon="5.59463">
        <ele>288</ele>
        <time>2022-04-15T07:14:43Z</time>
      </trkpt>
      <trkpt lat="45.36382" lon="5.59461">
        <ele>288</ele>
        <time>2022-04-15T07:15:20Z</time>
      </trkpt>
      <trkpt lat="45.36383" lon="5.59457">
        <ele>288</ele>
        <time>2022-04-15T07:15:21Z</time>
      </trkpt>
      <trkpt lat="45.36384" lon="5.59453">
        <ele>288</ele>
        <time>2022-04-15T07:15:22Z</time>
      </trkpt>
      <trkpt lat="45.36381" lon="5.59441">
        <ele>288</ele>
        <time>2022-04-15T07:15:24Z</time>
      </trkpt>
      <trkpt lat="45.36376" lon="5.59427">
        <ele>287</ele>
        <time>2022-04-15T07:15:25Z</time>
      </trkpt>
      <trkpt lat="45.36369" lon="5.59428">
        <ele>286.6</ele>
        <time>2022-04-15T07:15:27Z</time>
      </trkpt>
      <trkpt lat="45.36364" lon="5.59432">
        <ele>286.6</ele>
        <time>2022-04-15T07:15:28Z</time>
      </trkpt>
      <trkpt lat="45.3636" lon="5.59437">
        <ele>286.6</ele>
        <time>2022-04-15T07:15:30Z</time>
      </trkpt>
      <trkpt lat="45.36358" lon="5.5944">
        <ele>286.7</ele>
        <time>2022-04-15T07:15:31Z</time>
      </trkpt>
      <trkpt lat="45.36355" lon="5.59441">
        <ele>286.8</ele>
        <time>2022-04-15T07:15:32Z</time>
      </trkpt>
      <trkpt lat="45.3635" lon="5.59442">
        <ele>286.9</ele>
        <time>2022-04-15T07:15:33Z</time>
      </trkpt>
      <trkpt lat="45.36346" lon="5.59442">
        <ele>287</ele>
        <time>2022-04-15T07:15:34Z</time>
      </trkpt>
      <trkpt lat="45.36342" lon="5.59443">
        <ele>286.9</ele>
        <time>2022-04-15T07:15:36Z</time>
      </trkpt>
      <trkpt lat="45.36337" lon="5.59442">
        <ele>286.8</ele>
        <time>2022-04-15T07:15:37Z</time>
      </trkpt>
      <trkpt lat="45.36333" lon="5.59442">
        <ele>286.7</ele>
        <time>2022-04-15T07:15:38Z</time>
      </trkpt>
      <trkpt lat="45.36328" lon="5.59437">
        <ele>286.7</ele>
        <time>2022-04-15T07:15:40Z</time>
      </trkpt>
      <trkpt lat="45.36327" lon="5.59431">
        <ele>286.6</ele>
        <time>2022-04-15T07:15:41Z</time>
      </trkpt>
      <trkpt lat="45.36328" lon="5.5942">
        <ele>286.5</ele>
        <time>2022-04-15T07:15:43Z</time>
      </trkpt>
      <trkpt lat="45.36331" lon="5.5941">
        <ele>286.4</ele>
        <time>2022-04-15T07:15:45Z</time>
      </trkpt>
      <trkpt lat="45.36331" lon="5.59404">
        <ele>286.4</ele>
        <time>2022-04-15T07:15:46Z</time>
      </trkpt>
      <trkpt lat="45.36334" lon="5.59396">
        <ele>286.3</ele>
        <time>2022-04-15T07:15:48Z</time>
      </trkpt>
      <trkpt lat="45.36335" lon="5.59391">
        <ele>286.3</ele>
        <time>2022-04-15T07:15:49Z</time>
      </trkpt>
      <trkpt lat="45.36335" lon="5.59386">
        <ele>286.2</ele>
        <time>2022-04-15T07:15:50Z</time>
      </trkpt>
      <trkpt lat="45.36336" lon="5.5938">
        <ele>286.2</ele>
        <time>2022-04-15T07:15:51Z</time>
      </trkpt>
      <trkpt lat="45.36336" lon="5.59376">
        <ele>286.1</ele>
        <time>2022-04-15T07:15:52Z</time>
      </trkpt>
      <trkpt lat="45.36336" lon="5.5937">
        <ele>286.1</ele>
        <time>2022-04-15T07:15:54Z</time>
      </trkpt>
      <trkpt lat="45.36336" lon="5.59366">
        <ele>286</ele>
        <time>2022-04-15T07:15:55Z</time>
      </trkpt>
      <trkpt lat="45.36337" lon="5.5936">
        <ele>286</ele>
        <time>2022-04-15T07:15:56Z</time>
      </trkpt>
      <trkpt lat="45.36338" lon="5.59354">
        <ele>285.9</ele>
        <time>2022-04-15T07:15:57Z</time>
      </trkpt>
      <trkpt lat="45.36336" lon="5.59349">
        <ele>285.9</ele>
        <time>2022-04-15T07:15:58Z</time>
      </trkpt>
      <trkpt lat="45.36334" lon="5.59346">
        <ele>285.8</ele>
        <time>2022-04-15T07:16:00Z</time>
      </trkpt>
      <trkpt lat="45.36334" lon="5.59345">
        <ele>285.8</ele>
        <time>2022-04-15T07:16:01Z</time>
      </trkpt>
      <trkpt lat="45.36332" lon="5.59344">
        <ele>285.8</ele>
        <time>2022-04-15T07:16:02Z</time>
      </trkpt>
      <trkpt lat="45.36331" lon="5.59344">
        <ele>285.8</ele>
        <time>2022-04-15T07:16:03Z</time>
      </trkpt>
      <trkpt lat="45.3633" lon="5.59344">
        <ele>285.8</ele>
        <time>2022-04-15T07:16:04Z</time>
      </trkpt>
      <trkpt lat="45.3633" lon="5.59348">
        <ele>285.9</ele>
        <time>2022-04-15T07:16:05Z</time>
      </trkpt>
      <trkpt lat="45.36331" lon="5.59349">
        <ele>285.9</ele>
        <time>2022-04-15T07:16:06Z</time>
      </trkpt>
      <trkpt lat="45.36333" lon="5.59351">
        <ele>285.9</ele>
        <time>2022-04-15T07:16:07Z</time>
      </trkpt>
      <trkpt lat="45.36334" lon="5.59352">
        <ele>285.9</ele>
        <time>2022-04-15T07:16:08Z</time>
      </trkpt>
      <trkpt lat="45.36337" lon="5.59355">
        <ele>285.9</ele>
        <time>2022-04-15T07:16:09Z</time>
      </trkpt>
      <trkpt lat="45.36337" lon="5.59356">
        <ele>286</ele>
        <time>2022-04-15T07:16:10Z</time>
      </trkpt>
      <trkpt lat="45.36338" lon="5.59359">
        <ele>286</ele>
        <time>2022-04-15T07:16:11Z</time>
      </trkpt>
      <trkpt lat="45.36337" lon="5.59367">
        <ele>286.1</ele>
        <time>2022-04-15T07:16:13Z</time>
      </trkpt>
      <trkpt lat="45.36337" lon="5.59374">
        <ele>286.1</ele>
        <time>2022-04-15T07:16:15Z</time>
      </trkpt>
      <trkpt lat="45.36337" lon="5.59383">
        <ele>286.1</ele>
        <time>2022-04-15T07:16:17Z</time>
      </trkpt>
      <trkpt lat="45.36338" lon="5.5939">
        <ele>286.2</ele>
        <time>2022-04-15T07:16:19Z</time>
      </trkpt>
      <trkpt lat="45.36337" lon="5.59395">
        <ele>286.2</ele>
        <time>2022-04-15T07:16:20Z</time>
      </trkpt>
      <trkpt lat="45.36337" lon="5.59399">
        <ele>286.2</ele>
        <time>2022-04-15T07:16:21Z</time>
      </trkpt>
      <trkpt lat="45.36337" lon="5.59405">
        <ele>286.3</ele>
        <time>2022-04-15T07:16:22Z</time>
      </trkpt>
      <trkpt lat="45.36337" lon="5.59407">
        <ele>286.3</ele>
        <time>2022-04-15T07:16:23Z</time>
      </trkpt>
      <trkpt lat="45.36336" lon="5.59412">
        <ele>286.3</ele>
        <time>2022-04-15T07:16:24Z</time>
      </trkpt>
      <trkpt lat="45.36336" lon="5.59417">
        <ele>286.4</ele>
        <time>2022-04-15T07:16:25Z</time>
      </trkpt>
      <trkpt lat="45.36336" lon="5.59422">
        <ele>286.4</ele>
        <time>2022-04-15T07:16:26Z</time>
      </trkpt>
      <trkpt lat="45.36337" lon="5.59424">
        <ele>286.4</ele>
        <time>2022-04-15T07:16:27Z</time>
      </trkpt>
      <trkpt lat="45.36337" lon="5.59429">
        <ele>286.5</ele>
        <time>2022-04-15T07:16:28Z</time>
      </trkpt>
      <trkpt lat="45.36336" lon="5.59434">
        <ele>286.5</ele>
        <time>2022-04-15T07:16:29Z</time>
      </trkpt>
      <trkpt lat="45.36335" lon="5.59435">
        <ele>286.6</ele>
        <time>2022-04-15T07:16:30Z</time>
      </trkpt>
      <trkpt lat="45.36334" lon="5.59439">
        <ele>286.6</ele>
        <time>2022-04-15T07:16:31Z</time>
      </trkpt>
      <trkpt lat="45.36329" lon="5.5944">
        <ele>286.7</ele>
        <time>2022-04-15T07:16:32Z</time>
      </trkpt>
      <trkpt lat="45.36325" lon="5.59439">
        <ele>286.8</ele>
        <time>2022-04-15T07:16:34Z</time>
      </trkpt>
      <trkpt lat="45.36319" lon="5.59441">
        <ele>286.7</ele>
        <time>2022-04-15T07:16:36Z</time>
      </trkpt>
      <trkpt lat="45.36313" lon="5.59442">
        <ele>286.7</ele>
        <time>2022-04-15T07:16:38Z</time>
      </trkpt>
      <trkpt lat="45.36311" lon="5.59443">
        <ele>286.6</ele>
        <time>2022-04-15T07:16:40Z</time>
      </trkpt>
      <trkpt lat="45.36312" lon="5.59444">
        <ele>286.6</ele>
        <time>2022-04-15T07:16:41Z</time>
      </trkpt>
      <trkpt lat="45.36312" lon="5.59444">
        <ele>286.6</ele>
        <time>2022-04-15T07:16:42Z</time>
      </trkpt>
      <trkpt lat="45.36312" lon="5.59444">
        <ele>286.6</ele>
        <time>2022-04-15T07:16:43Z</time>
      </trkpt>
      <trkpt lat="45.36312" lon="5.59443">
        <ele>286.6</ele>
        <time>2022-04-15T07:16:44Z</time>
      </trkpt>
      <trkpt lat="45.36312" lon="5.59443">
        <ele>286.6</ele>
        <time>2022-04-15T07:16:45Z</time>
      </trkpt>
      <trkpt lat="45.36312" lon="5.59443">
        <ele>286.6</ele>
        <time>2022-04-15T07:16:46Z</time>
      </trkpt>
      <trkpt lat="45.36312" lon="5.59443">
        <ele>286.6</ele>
        <time>2022-04-15T07:16:47Z</time>
      </trkpt>
      <trkpt lat="45.36312" lon="5.59443">
        <ele>286.6</ele>
        <time>2022-04-15T07:16:48Z</time>
      </trkpt>
      <trkpt lat="45.36312" lon="5.59443">
        <ele>286.6</ele>
        <time>2022-04-15T07:16:49Z</time>
      </trkpt>
      <trkpt lat="45.36311" lon="5.59443">
        <ele>286.6</ele>
        <time>2022-04-15T07:16:50Z</time>
      </trkpt>
      <trkpt lat="45.36311" lon="5.59443">
        <ele>286.6</ele>
        <time>2022-04-15T07:16:51Z</time>
      </trkpt>
      <trkpt lat="45.36311" lon="5.59443">
        <ele>286.6</ele>
        <time>2022-04-15T07:16:52Z</time>
      </trkpt>
      <trkpt lat="45.36311" lon="5.59443">
        <ele>286.6</ele>
        <time>2022-04-15T07:16:53Z</time>
      </trkpt>
      <trkpt lat="45.36311" lon="5.59443">
        <ele>286.6</ele>
        <time>2022-04-15T07:16:54Z</time>
      </trkpt>
      <trkpt lat="45.36311" lon="5.59443">
        <ele>286.6</ele>
        <time>2022-04-15T07:16:55Z</time>
      </trkpt>
      <trkpt lat="45.36311" lon="5.59443">
        <ele>286.6</ele>
        <time>2022-04-15T07:16:56Z</time>
      </trkpt>
      <trkpt lat="45.36311" lon="5.59443">
        <ele>286.6</ele>
        <time>2022-04-15T07:16:57Z</time>
      </trkpt>
      <trkpt lat="45.36311" lon="5.59443">
        <ele>286.6</ele>
        <time>2022-04-15T07:16:58Z</time>
      </trkpt>
      <trkpt lat="45.36311" lon="5.59443">
        <ele>286.6</ele>
        <time>2022-04-15T07:16:59Z</time>
      </trkpt>
      <trkpt lat="45.3631" lon="5.59443">
        <ele>286.6</ele>
        <time>2022-04-15T07:17:00Z</time>
      </trkpt>
      <trkpt lat="45.36309" lon="5.59444">
        <ele>286.6</ele>
        <time>2022-04-15T07:17:01Z</time>
      </trkpt>
      <trkpt lat="45.36309" lon="5.59446">
        <ele>286.6</ele>
        <time>2022-04-15T07:17:02Z</time>
      </trkpt>
      <trkpt lat="45.36311" lon="5.59449">
        <ele>286.6</ele>
        <time>2022-04-15T07:17:03Z</time>
      </trkpt>
      <trkpt lat="45.36312" lon="5.5945">
        <ele>286.6</ele>
        <time>2022-04-15T07:17:04Z</time>
      </trkpt>
      <trkpt lat="45.36315" lon="5.59451">
        <ele>286.6</ele>
        <time>2022-04-15T07:17:05Z</time>
      </trkpt>
      <trkpt lat="45.36316" lon="5.59451">
        <ele>286.6</ele>
        <time>2022-04-15T07:17:06Z</time>
      </trkpt>
      <trkpt lat="45.36319" lon="5.59452">
        <ele>286.6</ele>
        <time>2022-04-15T07:17:07Z</time>
      </trkpt>
      <trkpt lat="45.3632" lon="5.59452">
        <ele>286.6</ele>
        <time>2022-04-15T07:17:08Z</time>
      </trkpt>
      <trkpt lat="45.36323" lon="5.59452">
        <ele>286.6</ele>
        <time>2022-04-15T07:17:09Z</time>
      </trkpt>
      <trkpt lat="45.36327" lon="5.59453">
        <ele>286.6</ele>
        <time>2022-04-15T07:17:11Z</time>
      </trkpt>
      <trkpt lat="45.3633" lon="5.59453">
        <ele>286.9</ele>
        <time>2022-04-15T07:17:12Z</time>
      </trkpt>
      <trkpt lat="45.36331" lon="5.59453">
        <ele>286.9</ele>
        <time>2022-04-15T07:17:13Z</time>
      </trkpt>
      <trkpt lat="45.36335" lon="5.59452">
        <ele>286.9</ele>
        <time>2022-04-15T07:17:15Z</time>
      </trkpt>
      <trkpt lat="45.36335" lon="5.59452">
        <ele>286.9</ele>
        <time>2022-04-15T07:17:16Z</time>
      </trkpt>
      <trkpt lat="45.36336" lon="5.59452">
        <ele>286.9</ele>
        <time>2022-04-15T07:17:17Z</time>
      </trkpt>
      <trkpt lat="45.36337" lon="5.59452">
        <ele>286.9</ele>
        <time>2022-04-15T07:17:18Z</time>
      </trkpt>
      <trkpt lat="45.36337" lon="5.59451">
        <ele>286.9</ele>
        <time>2022-04-15T07:17:19Z</time>
      </trkpt>
      <trkpt lat="45.36337" lon="5.59451">
        <ele>286.9</ele>
        <time>2022-04-15T07:17:20Z</time>
      </trkpt>
      <trkpt lat="45.36337" lon="5.59451">
        <ele>286.9</ele>
        <time>2022-04-15T07:17:21Z</time>
      </trkpt>
      <trkpt lat="45.36337" lon="5.59451">
        <ele>286.9</ele>
        <time>2022-04-15T07:17:22Z</time>
      </trkpt>
      <trkpt lat="45.36337" lon="5.59451">
        <ele>286.9</ele>
        <time>2022-04-15T07:17:23Z</time>
      </trkpt>
      <trkpt lat="45.36338" lon="5.5945">
        <ele>286.9</ele>
        <time>2022-04-15T07:17:24Z</time>
      </trkpt>
      <trkpt lat="45.36342" lon="5.59449">
        <ele>287.1</ele>
        <time>2022-04-15T07:17:25Z</time>
      </trkpt>
      <trkpt lat="45.36344" lon="5.59447">
        <ele>287.2</ele>
        <time>2022-04-15T07:17:27Z</time>
      </trkpt>
      <trkpt lat="45.3635" lon="5.59447">
        <ele>287.2</ele>
        <time>2022-04-15T07:17:29Z</time>
      </trkpt>
      <trkpt lat="45.36354" lon="5.59446">
        <ele>287.4</ele>
        <time>2022-04-15T07:17:30Z</time>
      </trkpt>
      <trkpt lat="45.3636" lon="5.59446">
        <ele>287.5</ele>
        <time>2022-04-15T07:17:31Z</time>
      </trkpt>
      <trkpt lat="45.36364" lon="5.59445">
        <ele>287.7</ele>
        <time>2022-04-15T07:17:33Z</time>
      </trkpt>
      <trkpt lat="45.36367" lon="5.59443">
        <ele>287.8</ele>
        <time>2022-04-15T07:17:34Z</time>
      </trkpt>
      <trkpt lat="45.36368" lon="5.59441">
        <ele>287.9</ele>
        <time>2022-04-15T07:17:35Z</time>
      </trkpt>
      <trkpt lat="45.36371" lon="5.59438">
        <ele>288.1</ele>
        <time>2022-04-15T07:17:36Z</time>
      </trkpt>
      <trkpt lat="45.36376" lon="5.59433">
        <ele>288.3</ele>
        <time>2022-04-15T07:17:38Z</time>
      </trkpt>
      <trkpt lat="45.36384" lon="5.59431">
        <ele>288.9</ele>
        <time>2022-04-15T07:17:40Z</time>
      </trkpt>
      <trkpt lat="45.36388" lon="5.59432">
        <ele>289</ele>
        <time>2022-04-15T07:17:41Z</time>
      </trkpt>
      <trkpt lat="45.36392" lon="5.59431">
        <ele>289.1</ele>
        <time>2022-04-15T07:17:42Z</time>
      </trkpt>
      <trkpt lat="45.36395" lon="5.59432">
        <ele>289.1</ele>
        <time>2022-04-15T07:17:43Z</time>
      </trkpt>
      <trkpt lat="45.36398" lon="5.59431">
        <ele>289.2</ele>
        <time>2022-04-15T07:17:44Z</time>
      </trkpt>
      <trkpt lat="45.36402" lon="5.59431">
        <ele>289.2</ele>
        <time>2022-04-15T07:17:45Z</time>
      </trkpt>
      <trkpt lat="45.36403" lon="5.59431">
        <ele>289.2</ele>
        <time>2022-04-15T07:17:46Z</time>
      </trkpt>
      <trkpt lat="45.36406" lon="5.5943">
        <ele>289.3</ele>
        <time>2022-04-15T07:17:48Z</time>
      </trkpt>
      <trkpt lat="45.36409" lon="5.5943">
        <ele>289.4</ele>
        <time>2022-04-15T07:17:49Z</time>
      </trkpt>
      <trkpt lat="45.36413" lon="5.59429">
        <ele>289.4</ele>
        <time>2022-04-15T07:17:50Z</time>
      </trkpt>
      <trkpt lat="45.36416" lon="5.59427">
        <ele>289.5</ele>
        <time>2022-04-15T07:17:51Z</time>
      </trkpt>
      <trkpt lat="45.3642" lon="5.59426">
        <ele>289.6</ele>
        <time>2022-04-15T07:17:52Z</time>
      </trkpt>
      <trkpt lat="45.36424" lon="5.59425">
        <ele>289.8</ele>
        <time>2022-04-15T07:17:54Z</time>
      </trkpt>
      <trkpt lat="45.36429" lon="5.59424">
        <ele>289.9</ele>
        <time>2022-04-15T07:17:56Z</time>
      </trkpt>
      <trkpt lat="45.36432" lon="5.59424">
        <ele>290</ele>
        <time>2022-04-15T07:17:57Z</time>
      </trkpt>
      <trkpt lat="45.36435" lon="5.59429">
        <ele>290.1</ele>
        <time>2022-04-15T07:17:58Z</time>
      </trkpt>
      <trkpt lat="45.36436" lon="5.59434">
        <ele>290.2</ele>
        <time>2022-04-15T07:17:59Z</time>
      </trkpt>
      <trkpt lat="45.36439" lon="5.59437">
        <ele>290.4</ele>
        <time>2022-04-15T07:18:00Z</time>
      </trkpt>
      <trkpt lat="45.36441" lon="5.5944">
        <ele>290.7</ele>
        <time>2022-04-15T07:18:01Z</time>
      </trkpt>
      <trkpt lat="45.36444" lon="5.59443">
        <ele>291.1</ele>
        <time>2022-04-15T07:18:02Z</time>
      </trkpt>
      <trkpt lat="45.36445" lon="5.59444">
        <ele>291.2</ele>
        <time>2022-04-15T07:18:03Z</time>
      </trkpt>
      <trkpt lat="45.36447" lon="5.59444">
        <ele>291.4</ele>
        <time>2022-04-15T07:18:04Z</time>
      </trkpt>
      <trkpt lat="45.36452" lon="5.59443">
        <ele>291.9</ele>
        <time>2022-04-15T07:18:06Z</time>
      </trkpt>
      <trkpt lat="45.36455" lon="5.59444">
        <ele>292.3</ele>
        <time>2022-04-15T07:18:08Z</time>
      </trkpt>
      <trkpt lat="45.36458" lon="5.59448">
        <ele>292.7</ele>
        <time>2022-04-15T07:18:09Z</time>
      </trkpt>
      <trkpt lat="45.36459" lon="5.5945">
        <ele>292.9</ele>
        <time>2022-04-15T07:18:10Z</time>
      </trkpt>
      <trkpt lat="45.36461" lon="5.59455">
        <ele>292.9</ele>
        <time>2022-04-15T07:18:12Z</time>
      </trkpt>
      <trkpt lat="45.36461" lon="5.59457">
        <ele>292.9</ele>
        <time>2022-04-15T07:18:13Z</time>
      </trkpt>
      <trkpt lat="45.36461" lon="5.59459">
        <ele>292.9</ele>
        <time>2022-04-15T07:18:14Z</time>
      </trkpt>
      <trkpt lat="45.36459" lon="5.59463">
        <ele>292.8</ele>
        <time>2022-04-15T07:18:15Z</time>
      </trkpt>
      <trkpt lat="45.36457" lon="5.59472">
        <ele>292.8</ele>
        <time>2022-04-15T07:18:17Z</time>
      </trkpt>
      <trkpt lat="45.36455" lon="5.59476">
        <ele>292.7</ele>
        <time>2022-04-15T07:18:18Z</time>
      </trkpt>
      <trkpt lat="45.36454" lon="5.5948">
        <ele>292.7</ele>
        <time>2022-04-15T07:18:19Z</time>
      </trkpt>
      <trkpt lat="45.36453" lon="5.59484">
        <ele>292.6</ele>
        <time>2022-04-15T07:18:20Z</time>
      </trkpt>
      <trkpt lat="45.36451" lon="5.59488">
        <ele>292.6</ele>
        <time>2022-04-15T07:18:21Z</time>
      </trkpt>
      <trkpt lat="45.3645" lon="5.59493">
        <ele>292.6</ele>
        <time>2022-04-15T07:18:22Z</time>
      </trkpt>
      <trkpt lat="45.36448" lon="5.59497">
        <ele>292.6</ele>
        <time>2022-04-15T07:18:23Z</time>
      </trkpt>
      <trkpt lat="45.36446" lon="5.59501">
        <ele>292.6</ele>
        <time>2022-04-15T07:18:24Z</time>
      </trkpt>
      <trkpt lat="45.36444" lon="5.59504">
        <ele>292.6</ele>
        <time>2022-04-15T07:18:25Z</time>
      </trkpt>
      <trkpt lat="45.36442" lon="5.59507">
        <ele>292.5</ele>
        <time>2022-04-15T07:18:26Z</time>
      </trkpt>
      <trkpt lat="45.3644" lon="5.59512">
        <ele>292.5</ele>
        <time>2022-04-15T07:18:27Z</time>
      </trkpt>
      <trkpt lat="45.36439" lon="5.59514">
        <ele>292.5</ele>
        <time>2022-04-15T07:18:28Z</time>
      </trkpt>
      <trkpt lat="45.36436" lon="5.59519">
        <ele>292.5</ele>
        <time>2022-04-15T07:18:30Z</time>
      </trkpt>
      <trkpt lat="45.36433" lon="5.59524">
        <ele>292.4</ele>
        <time>2022-04-15T07:18:32Z</time>
      </trkpt>
      <trkpt lat="45.36431" lon="5.59528">
        <ele>292.4</ele>
        <time>2022-04-15T07:18:33Z</time>
      </trkpt>
      <trkpt lat="45.36431" lon="5.59529">
        <ele>292.3</ele>
        <time>2022-04-15T07:18:34Z</time>
      </trkpt>
      <trkpt lat="45.36429" lon="5.59534">
        <ele>292.3</ele>
        <time>2022-04-15T07:18:35Z</time>
      </trkpt>
      <trkpt lat="45.36428" lon="5.59536">
        <ele>292.3</ele>
        <time>2022-04-15T07:18:36Z</time>
      </trkpt>
      <trkpt lat="45.36431" lon="5.59536">
        <ele>292.4</ele>
        <time>2022-04-15T07:18:38Z</time>
      </trkpt>
      <trkpt lat="45.36435" lon="5.59532">
        <ele>292.4</ele>
        <time>2022-04-15T07:18:39Z</time>
      </trkpt>
      <trkpt lat="45.36437" lon="5.59529">
        <ele>292.4</ele>
        <time>2022-04-15T07:18:41Z</time>
      </trkpt>
      <trkpt lat="45.3644" lon="5.59524">
        <ele>292.5</ele>
        <time>2022-04-15T07:18:43Z</time>
      </trkpt>
      <trkpt lat="45.36443" lon="5.59521">
        <ele>292.5</ele>
        <time>2022-04-15T07:18:44Z</time>
      </trkpt>
      <trkpt lat="45.36445" lon="5.59517">
        <ele>292.5</ele>
        <time>2022-04-15T07:18:45Z</time>
      </trkpt>
      <trkpt lat="45.36448" lon="5.59511">
        <ele>292.5</ele>
        <time>2022-04-15T07:18:47Z</time>
      </trkpt>
      <trkpt lat="45.36452" lon="5.59502">
        <ele>292.6</ele>
        <time>2022-04-15T07:18:49Z</time>
      </trkpt>
      <trkpt lat="45.36455" lon="5.59494">
        <ele>292.6</ele>
        <time>2022-04-15T07:18:51Z</time>
      </trkpt>
      <trkpt lat="45.36459" lon="5.59484">
        <ele>292.7</ele>
        <time>2022-04-15T07:18:53Z</time>
      </trkpt>
      <trkpt lat="45.36461" lon="5.59479">
        <ele>292.7</ele>
        <time>2022-04-15T07:18:54Z</time>
      </trkpt>
      <trkpt lat="45.36462" lon="5.59475">
        <ele>292.8</ele>
        <time>2022-04-15T07:18:55Z</time>
      </trkpt>
      <trkpt lat="45.36465" lon="5.59468">
        <ele>292.8</ele>
        <time>2022-04-15T07:18:56Z</time>
      </trkpt>
      <trkpt lat="45.36468" lon="5.5946">
        <ele>292.9</ele>
        <time>2022-04-15T07:18:58Z</time>
      </trkpt>
      <trkpt lat="45.36471" lon="5.5945">
        <ele>292.9</ele>
        <time>2022-04-15T07:19:00Z</time>
      </trkpt>
      <trkpt lat="45.36473" lon="5.59446">
        <ele>292.8</ele>
        <time>2022-04-15T07:19:01Z</time>
      </trkpt>
      <trkpt lat="45.36475" lon="5.59438">
        <ele>292.8</ele>
        <time>2022-04-15T07:19:03Z</time>
      </trkpt>
      <trkpt lat="45.36476" lon="5.59433">
        <ele>292.8</ele>
        <time>2022-04-15T07:19:04Z</time>
      </trkpt>
      <trkpt lat="45.36478" lon="5.59429">
        <ele>292.8</ele>
        <time>2022-04-15T07:19:05Z</time>
      </trkpt>
      <trkpt lat="45.3648" lon="5.59423">
        <ele>292.8</ele>
        <time>2022-04-15T07:19:06Z</time>
      </trkpt>
      <trkpt lat="45.36485" lon="5.59413">
        <ele>292.8</ele>
        <time>2022-04-15T07:19:08Z</time>
      </trkpt>
      <trkpt lat="45.36489" lon="5.59403">
        <ele>292.8</ele>
        <time>2022-04-15T07:19:10Z</time>
      </trkpt>
      <trkpt lat="45.36491" lon="5.59397">
        <ele>292.7</ele>
        <time>2022-04-15T07:19:11Z</time>
      </trkpt>
      <trkpt lat="45.36493" lon="5.59391">
        <ele>292.7</ele>
        <time>2022-04-15T07:19:12Z</time>
      </trkpt>
      <trkpt lat="45.36495" lon="5.59383">
        <ele>292.7</ele>
        <time>2022-04-15T07:19:14Z</time>
      </trkpt>
      <trkpt lat="45.36497" lon="5.59378">
        <ele>292.7</ele>
        <time>2022-04-15T07:19:15Z</time>
      </trkpt>
      <trkpt lat="45.36499" lon="5.5937">
        <ele>292.7</ele>
        <time>2022-04-15T07:19:16Z</time>
      </trkpt>
      <trkpt lat="45.36501" lon="5.59362">
        <ele>292.7</ele>
        <time>2022-04-15T07:19:17Z</time>
      </trkpt>
      <trkpt lat="45.36502" lon="5.59356">
        <ele>292.7</ele>
        <time>2022-04-15T07:19:19Z</time>
      </trkpt>
      <trkpt lat="45.36506" lon="5.59344">
        <ele>292.6</ele>
        <time>2022-04-15T07:19:21Z</time>
      </trkpt>
      <trkpt lat="45.36509" lon="5.59335">
        <ele>292.6</ele>
        <time>2022-04-15T07:19:23Z</time>
      </trkpt>
      <trkpt lat="45.3651" lon="5.5933">
        <ele>292.6</ele>
        <time>2022-04-15T07:19:24Z</time>
      </trkpt>
      <trkpt lat="45.36512" lon="5.59325">
        <ele>292.6</ele>
        <time>2022-04-15T07:19:25Z</time>
      </trkpt>
      <trkpt lat="45.36514" lon="5.59318">
        <ele>292.6</ele>
        <time>2022-04-15T07:19:26Z</time>
      </trkpt>
      <trkpt lat="45.36516" lon="5.59314">
        <ele>292.6</ele>
        <time>2022-04-15T07:19:27Z</time>
      </trkpt>
      <trkpt lat="45.36519" lon="5.59305">
        <ele>292.6</ele>
        <time>2022-04-15T07:19:28Z</time>
      </trkpt>
      <trkpt lat="45.3652" lon="5.593">
        <ele>292.5</ele>
        <time>2022-04-15T07:19:30Z</time>
      </trkpt>
      <trkpt lat="45.36524" lon="5.59292">
        <ele>292.5</ele>
        <time>2022-04-15T07:19:32Z</time>
      </trkpt>
      <trkpt lat="45.36526" lon="5.59287">
        <ele>292.4</ele>
        <time>2022-04-15T07:19:33Z</time>
      </trkpt>
      <trkpt lat="45.36528" lon="5.59278">
        <ele>292.3</ele>
        <time>2022-04-15T07:19:35Z</time>
      </trkpt>
      <trkpt lat="45.36528" lon="5.59273">
        <ele>292.2</ele>
        <time>2022-04-15T07:19:36Z</time>
      </trkpt>
      <trkpt lat="45.36526" lon="5.59266">
        <ele>292.1</ele>
        <time>2022-04-15T07:19:37Z</time>
      </trkpt>
      <trkpt lat="45.36524" lon="5.5925">
        <ele>291.8</ele>
        <time>2022-04-15T07:19:39Z</time>
      </trkpt>
      <trkpt lat="45.36524" lon="5.59243">
        <ele>291.6</ele>
        <time>2022-04-15T07:19:40Z</time>
      </trkpt>
      <trkpt lat="45.36523" lon="5.59236">
        <ele>291.4</ele>
        <time>2022-04-15T07:19:41Z</time>
      </trkpt>
      <trkpt lat="45.36523" lon="5.59229">
        <ele>291.3</ele>
        <time>2022-04-15T07:19:42Z</time>
      </trkpt>
      <trkpt lat="45.36521" lon="5.59222">
        <ele>291.2</ele>
        <time>2022-04-15T07:19:43Z</time>
      </trkpt>
      <trkpt lat="45.36521" lon="5.59215">
        <ele>291.1</ele>
        <time>2022-04-15T07:19:44Z</time>
      </trkpt>
      <trkpt lat="45.3652" lon="5.59208">
        <ele>291</ele>
        <time>2022-04-15T07:19:45Z</time>
      </trkpt>
      <trkpt lat="45.3652" lon="5.59201">
        <ele>290.9</ele>
        <time>2022-04-15T07:19:46Z</time>
      </trkpt>
      <trkpt lat="45.36519" lon="5.59195">
        <ele>290.8</ele>
        <time>2022-04-15T07:19:47Z</time>
      </trkpt>
      <trkpt lat="45.36519" lon="5.59188">
        <ele>290.7</ele>
        <time>2022-04-15T07:19:48Z</time>
      </trkpt>
      <trkpt lat="45.36518" lon="5.59181">
        <ele>290.6</ele>
        <time>2022-04-15T07:19:49Z</time>
      </trkpt>
      <trkpt lat="45.36519" lon="5.59174">
        <ele>290.5</ele>
        <time>2022-04-15T07:19:50Z</time>
      </trkpt>
      <trkpt lat="45.36519" lon="5.59168">
        <ele>290.4</ele>
        <time>2022-04-15T07:19:51Z</time>
      </trkpt>
      <trkpt lat="45.36519" lon="5.59164">
        <ele>290.4</ele>
        <time>2022-04-15T07:19:52Z</time>
      </trkpt>
      <trkpt lat="45.3652" lon="5.59158">
        <ele>290.4</ele>
        <time>2022-04-15T07:19:53Z</time>
      </trkpt>
      <trkpt lat="45.36521" lon="5.59152">
        <ele>290.5</ele>
        <time>2022-04-15T07:19:54Z</time>
      </trkpt>
      <trkpt lat="45.36522" lon="5.59146">
        <ele>290.5</ele>
        <time>2022-04-15T07:19:55Z</time>
      </trkpt>
      <trkpt lat="45.36523" lon="5.5914">
        <ele>290.6</ele>
        <time>2022-04-15T07:19:56Z</time>
      </trkpt>
      <trkpt lat="45.36524" lon="5.59134">
        <ele>290.7</ele>
        <time>2022-04-15T07:19:57Z</time>
      </trkpt>
      <trkpt lat="45.36525" lon="5.59129">
        <ele>290.7</ele>
        <time>2022-04-15T07:19:58Z</time>
      </trkpt>
      <trkpt lat="45.36526" lon="5.59125">
        <ele>290.8</ele>
        <time>2022-04-15T07:19:59Z</time>
      </trkpt>
      <trkpt lat="45.36527" lon="5.59121">
        <ele>290.8</ele>
        <time>2022-04-15T07:20:01Z</time>
      </trkpt>
      <trkpt lat="45.36527" lon="5.59121">
        <ele>290.9</ele>
        <time>2022-04-15T07:20:02Z</time>
      </trkpt>
      <trkpt lat="45.36527" lon="5.59124">
        <ele>290.9</ele>
        <time>2022-04-15T07:20:03Z</time>
      </trkpt>
      <trkpt lat="45.36527" lon="5.59125">
        <ele>290.9</ele>
        <time>2022-04-15T07:20:04Z</time>
      </trkpt>
      <trkpt lat="45.36527" lon="5.59126">
        <ele>290.9</ele>
        <time>2022-04-15T07:20:05Z</time>
      </trkpt>
      <trkpt lat="45.36527" lon="5.59125">
        <ele>290.9</ele>
        <time>2022-04-15T07:20:06Z</time>
      </trkpt>
      <trkpt lat="45.36527" lon="5.59125">
        <ele>290.9</ele>
        <time>2022-04-15T07:20:07Z</time>
      </trkpt>
      <trkpt lat="45.36527" lon="5.59125">
        <ele>290.9</ele>
        <time>2022-04-15T07:20:08Z</time>
      </trkpt>
      <trkpt lat="45.36527" lon="5.59125">
        <ele>290.9</ele>
        <time>2022-04-15T07:20:09Z</time>
      </trkpt>
      <trkpt lat="45.36527" lon="5.59125">
        <ele>290.9</ele>
        <time>2022-04-15T07:20:10Z</time>
      </trkpt>
      <trkpt lat="45.36527" lon="5.59125">
        <ele>290.9</ele>
        <time>2022-04-15T07:20:11Z</time>
      </trkpt>
      <trkpt lat="45.36527" lon="5.59125">
        <ele>290.9</ele>
        <time>2022-04-15T07:20:12Z</time>
      </trkpt>
      <trkpt lat="45.36527" lon="5.59124">
        <ele>290.9</ele>
        <time>2022-04-15T07:20:13Z</time>
      </trkpt>
      <trkpt lat="45.36527" lon="5.59124">
        <ele>290.9</ele>
        <time>2022-04-15T07:20:14Z</time>
      </trkpt>
      <trkpt lat="45.36527" lon="5.59124">
        <ele>290.9</ele>
        <time>2022-04-15T07:20:15Z</time>
      </trkpt>
      <trkpt lat="45.36527" lon="5.59124">
        <ele>290.9</ele>
        <time>2022-04-15T07:20:16Z</time>
      </trkpt>
      <trkpt lat="45.36527" lon="5.59124">
        <ele>290.9</ele>
        <time>2022-04-15T07:20:17Z</time>
      </trkpt>
      <trkpt lat="45.36528" lon="5.59124">
        <ele>290.9</ele>
        <time>2022-04-15T07:20:18Z</time>
      </trkpt>
      <trkpt lat="45.36528" lon="5.59123">
        <ele>290.9</ele>
        <time>2022-04-15T07:20:19Z</time>
      </trkpt>
      <trkpt lat="45.36528" lon="5.59123">
        <ele>290.9</ele>
        <time>2022-04-15T07:20:20Z</time>
      </trkpt>
      <trkpt lat="45.36528" lon="5.59123">
        <ele>290.9</ele>
        <time>2022-04-15T07:20:21Z</time>
      </trkpt>
      <trkpt lat="45.36528" lon="5.59123">
        <ele>290.9</ele>
        <time>2022-04-15T07:20:22Z</time>
      </trkpt>
      <trkpt lat="45.36528" lon="5.59123">
        <ele>290.9</ele>
        <time>2022-04-15T07:20:23Z</time>
      </trkpt>
      <trkpt lat="45.36528" lon="5.59123">
        <ele>290.9</ele>
        <time>2022-04-15T07:20:24Z</time>
      </trkpt>
      <trkpt lat="45.36528" lon="5.59123">
        <ele>290.9</ele>
        <time>2022-04-15T07:20:25Z</time>
      </trkpt>
      <trkpt lat="45.36528" lon="5.59122">
        <ele>290.9</ele>
        <time>2022-04-15T07:20:26Z</time>
      </trkpt>
      <trkpt lat="45.36528" lon="5.59122">
        <ele>290.9</ele>
        <time>2022-04-15T07:20:27Z</time>
      </trkpt>
      <trkpt lat="45.36528" lon="5.59122">
        <ele>290.9</ele>
        <time>2022-04-15T07:20:28Z</time>
      </trkpt>
      <trkpt lat="45.36528" lon="5.59122">
        <ele>290.9</ele>
        <time>2022-04-15T07:20:29Z</time>
      </trkpt>
      <trkpt lat="45.36528" lon="5.59122">
        <ele>290.9</ele>
        <time>2022-04-15T07:20:30Z</time>
      </trkpt>
      <trkpt lat="45.36528" lon="5.59122">
        <ele>290.9</ele>
        <time>2022-04-15T07:20:31Z</time>
      </trkpt>
      <trkpt lat="45.36528" lon="5.59121">
        <ele>290.9</ele>
        <time>2022-04-15T07:20:32Z</time>
      </trkpt>
      <trkpt lat="45.36528" lon="5.59121">
        <ele>290.9</ele>
        <time>2022-04-15T07:20:33Z</time>
      </trkpt>
      <trkpt lat="45.36528" lon="5.59121">
        <ele>290.9</ele>
        <time>2022-04-15T07:20:34Z</time>
      </trkpt>
      <trkpt lat="45.36528" lon="5.59121">
        <ele>290.9</ele>
        <time>2022-04-15T07:20:35Z</time>
      </trkpt>
      <trkpt lat="45.36528" lon="5.59121">
        <ele>290.9</ele>
        <time>2022-04-15T07:20:36Z</time>
      </trkpt>
      <trkpt lat="45.36528" lon="5.59121">
        <ele>290.9</ele>
        <time>2022-04-15T07:20:37Z</time>
      </trkpt>
      <trkpt lat="45.36528" lon="5.59121">
        <ele>290.9</ele>
        <time>2022-04-15T07:20:38Z</time>
      </trkpt>
      <trkpt lat="45.36529" lon="5.5912">
        <ele>290.9</ele>
        <time>2022-04-15T07:20:39Z</time>
      </trkpt>
      <trkpt lat="45.36529" lon="5.5912">
        <ele>290.9</ele>
        <time>2022-04-15T07:20:40Z</time>
      </trkpt>
      <trkpt lat="45.36529" lon="5.5912">
        <ele>290.9</ele>
        <time>2022-04-15T07:20:41Z</time>
      </trkpt>
      <trkpt lat="45.36529" lon="5.5912">
        <ele>290.9</ele>
        <time>2022-04-15T07:20:42Z</time>
      </trkpt>
      <trkpt lat="45.36529" lon="5.5912">
        <ele>290.9</ele>
        <time>2022-04-15T07:20:43Z</time>
      </trkpt>
      <trkpt lat="45.36529" lon="5.5912">
        <ele>290.9</ele>
        <time>2022-04-15T07:20:44Z</time>
      </trkpt>
      <trkpt lat="45.36531" lon="5.59116">
        <ele>291.1</ele>
        <time>2022-04-15T07:20:45Z</time>
      </trkpt>
      <trkpt lat="45.36533" lon="5.59115">
        <ele>291.1</ele>
        <time>2022-04-15T07:20:46Z</time>
      </trkpt>
      <trkpt lat="45.36536" lon="5.59112">
        <ele>291.2</ele>
        <time>2022-04-15T07:20:47Z</time>
      </trkpt>
      <trkpt lat="45.3654" lon="5.59111">
        <ele>291.2</ele>
        <time>2022-04-15T07:20:48Z</time>
      </trkpt>
      <trkpt lat="45.36541" lon="5.5911">
        <ele>291.3</ele>
        <time>2022-04-15T07:20:49Z</time>
      </trkpt>
      <trkpt lat="45.36544" lon="5.59109">
        <ele>291.3</ele>
        <time>2022-04-15T07:20:50Z</time>
      </trkpt>
      <trkpt lat="45.36547" lon="5.59109">
        <ele>291.4</ele>
        <time>2022-04-15T07:20:51Z</time>
      </trkpt>
      <trkpt lat="45.3655" lon="5.59108">
        <ele>291.5</ele>
        <time>2022-04-15T07:20:52Z</time>
      </trkpt>
      <trkpt lat="45.36558" lon="5.5911">
        <ele>291.7</ele>
        <time>2022-04-15T07:20:54Z</time>
      </trkpt>
      <trkpt lat="45.36561" lon="5.5911">
        <ele>291.7</ele>
        <time>2022-04-15T07:20:56Z</time>
      </trkpt>
      <trkpt lat="45.36565" lon="5.5911">
        <ele>291.8</ele>
        <time>2022-04-15T07:20:57Z</time>
      </trkpt>
      <trkpt lat="45.36568" lon="5.5911">
        <ele>291.9</ele>
        <time>2022-04-15T07:20:58Z</time>
      </trkpt>
      <trkpt lat="45.36572" lon="5.59111">
        <ele>292</ele>
        <time>2022-04-15T07:20:59Z</time>
      </trkpt>
      <trkpt lat="45.36576" lon="5.59111">
        <ele>292.1</ele>
        <time>2022-04-15T07:21:01Z</time>
      </trkpt>
      <trkpt lat="45.36579" lon="5.59112">
        <ele>292.1</ele>
        <time>2022-04-15T07:21:02Z</time>
      </trkpt>
      <trkpt lat="45.3658" lon="5.59112">
        <ele>292.2</ele>
        <time>2022-04-15T07:21:03Z</time>
      </trkpt>
      <trkpt lat="45.36583" lon="5.59112">
        <ele>292.2</ele>
        <time>2022-04-15T07:21:05Z</time>
      </trkpt>
      <trkpt lat="45.36585" lon="5.59112">
        <ele>292.3</ele>
        <time>2022-04-15T07:21:07Z</time>
      </trkpt>
      <trkpt lat="45.36585" lon="5.59112">
        <ele>292.3</ele>
        <time>2022-04-15T07:21:08Z</time>
      </trkpt>
      <trkpt lat="45.36587" lon="5.59112">
        <ele>292.3</ele>
        <time>2022-04-15T07:21:10Z</time>
      </trkpt>
      <trkpt lat="45.36587" lon="5.59112">
        <ele>292.3</ele>
        <time>2022-04-15T07:21:11Z</time>
      </trkpt>
      <trkpt lat="45.36586" lon="5.59113">
        <ele>292.3</ele>
        <time>2022-04-15T07:21:12Z</time>
      </trkpt>
      <trkpt lat="45.36586" lon="5.59113">
        <ele>292.4</ele>
        <time>2022-04-15T07:21:13Z</time>
      </trkpt>
      <trkpt lat="45.36586" lon="5.59114">
        <ele>292.4</ele>
        <time>2022-04-15T07:21:14Z</time>
      </trkpt>
      <trkpt lat="45.36586" lon="5.59114">
        <ele>292.4</ele>
        <time>2022-04-15T07:21:15Z</time>
      </trkpt>
      <trkpt lat="45.36586" lon="5.59114">
        <ele>292.4</ele>
        <time>2022-04-15T07:21:16Z</time>
      </trkpt>
      <trkpt lat="45.36586" lon="5.59114">
        <ele>292.4</ele>
        <time>2022-04-15T07:21:17Z</time>
      </trkpt>
      <trkpt lat="45.36587" lon="5.59114">
        <ele>292.4</ele>
        <time>2022-04-15T07:21:18Z</time>
      </trkpt>
      <trkpt lat="45.36588" lon="5.59114">
        <ele>292.4</ele>
        <time>2022-04-15T07:21:19Z</time>
      </trkpt>
      <trkpt lat="45.36589" lon="5.59115">
        <ele>292.4</ele>
        <time>2022-04-15T07:21:20Z</time>
      </trkpt>
      <trkpt lat="45.36593" lon="5.59115">
        <ele>292.6</ele>
        <time>2022-04-15T07:21:21Z</time>
      </trkpt>
      <trkpt lat="45.36598" lon="5.59114">
        <ele>292.7</ele>
        <time>2022-04-15T07:21:22Z</time>
      </trkpt>
      <trkpt lat="45.36602" lon="5.59114">
        <ele>292.8</ele>
        <time>2022-04-15T07:21:24Z</time>
      </trkpt>
      <trkpt lat="45.36605" lon="5.59114">
        <ele>292.9</ele>
        <time>2022-04-15T07:21:25Z</time>
      </trkpt>
      <trkpt lat="45.36612" lon="5.59114">
        <ele>293</ele>
        <time>2022-04-15T07:21:27Z</time>
      </trkpt>
      <trkpt lat="45.36616" lon="5.59114">
        <ele>293.1</ele>
        <time>2022-04-15T07:21:28Z</time>
      </trkpt>
      <trkpt lat="45.3662" lon="5.59114">
        <ele>293.1</ele>
        <time>2022-04-15T07:21:29Z</time>
      </trkpt>
      <trkpt lat="45.36626" lon="5.59115">
        <ele>293.2</ele>
        <time>2022-04-15T07:21:31Z</time>
      </trkpt>
      <trkpt lat="45.36629" lon="5.59115">
        <ele>293.3</ele>
        <time>2022-04-15T07:21:32Z</time>
      </trkpt>
      <trkpt lat="45.36636" lon="5.59115">
        <ele>293.4</ele>
        <time>2022-04-15T07:21:34Z</time>
      </trkpt>
      <trkpt lat="45.36641" lon="5.59116">
        <ele>293.5</ele>
        <time>2022-04-15T07:21:35Z</time>
      </trkpt>
      <trkpt lat="45.36645" lon="5.59115">
        <ele>293.6</ele>
        <time>2022-04-15T07:21:37Z</time>
      </trkpt>
      <trkpt lat="45.3665" lon="5.59116">
        <ele>293.7</ele>
        <time>2022-04-15T07:21:39Z</time>
      </trkpt>
      <trkpt lat="45.36654" lon="5.59116">
        <ele>293.8</ele>
        <time>2022-04-15T07:21:40Z</time>
      </trkpt>
      <trkpt lat="45.36661" lon="5.59115">
        <ele>294</ele>
        <time>2022-04-15T07:21:41Z</time>
      </trkpt>
      <trkpt lat="45.36665" lon="5.59114">
        <ele>294.1</ele>
        <time>2022-04-15T07:21:43Z</time>
      </trkpt>
      <trkpt lat="45.36672" lon="5.59114">
        <ele>294.3</ele>
        <time>2022-04-15T07:21:45Z</time>
      </trkpt>
      <trkpt lat="45.3668" lon="5.59112">
        <ele>294.6</ele>
        <time>2022-04-15T07:21:47Z</time>
      </trkpt>
      <trkpt lat="45.36687" lon="5.59114">
        <ele>294.8</ele>
        <time>2022-04-15T07:21:49Z</time>
      </trkpt>
      <trkpt lat="45.36694" lon="5.59115">
        <ele>295.1</ele>
        <time>2022-04-15T07:21:51Z</time>
      </trkpt>
      <trkpt lat="45.367" lon="5.59115">
        <ele>295.3</ele>
        <time>2022-04-15T07:21:53Z</time>
      </trkpt>
      <trkpt lat="45.36706" lon="5.59116">
        <ele>295.4</ele>
        <time>2022-04-15T07:21:55Z</time>
      </trkpt>
      <trkpt lat="45.36711" lon="5.59117">
        <ele>295.6</ele>
        <time>2022-04-15T07:21:57Z</time>
      </trkpt>
      <trkpt lat="45.36714" lon="5.59117">
        <ele>295.6</ele>
        <time>2022-04-15T07:21:58Z</time>
      </trkpt>
      <trkpt lat="45.36717" lon="5.59118">
        <ele>295.7</ele>
        <time>2022-04-15T07:21:59Z</time>
      </trkpt>
      <trkpt lat="45.3672" lon="5.59118">
        <ele>295.8</ele>
        <time>2022-04-15T07:22:00Z</time>
      </trkpt>
      <trkpt lat="45.36725" lon="5.59117">
        <ele>296.1</ele>
        <time>2022-04-15T07:22:02Z</time>
      </trkpt>
      <trkpt lat="45.36729" lon="5.59116">
        <ele>296.4</ele>
        <time>2022-04-15T07:22:04Z</time>
      </trkpt>
      <trkpt lat="45.36732" lon="5.59115">
        <ele>296.6</ele>
        <time>2022-04-15T07:22:05Z</time>
      </trkpt>
      <trkpt lat="45.36735" lon="5.59114">
        <ele>296.8</ele>
        <time>2022-04-15T07:22:06Z</time>
      </trkpt>
      <trkpt lat="45.36738" lon="5.5911">
        <ele>296.9</ele>
        <time>2022-04-15T07:22:08Z</time>
      </trkpt>
      <trkpt lat="45.36739" lon="5.59106">
        <ele>297</ele>
        <time>2022-04-15T07:22:09Z</time>
      </trkpt>
      <trkpt lat="45.36741" lon="5.59101">
        <ele>297</ele>
        <time>2022-04-15T07:22:10Z</time>
      </trkpt>
      <trkpt lat="45.36742" lon="5.59096">
        <ele>297.4</ele>
        <time>2022-04-15T07:22:11Z</time>
      </trkpt>
      <trkpt lat="45.36743" lon="5.59092">
        <ele>297.4</ele>
        <time>2022-04-15T07:22:13Z</time>
      </trkpt>
      <trkpt lat="45.36744" lon="5.59087">
        <ele>297.5</ele>
        <time>2022-04-15T07:22:14Z</time>
      </trkpt>
      <trkpt lat="45.36746" lon="5.59082">
        <ele>297.5</ele>
        <time>2022-04-15T07:22:15Z</time>
      </trkpt>
      <trkpt lat="45.36748" lon="5.59076">
        <ele>297.5</ele>
        <time>2022-04-15T07:22:16Z</time>
      </trkpt>
      <trkpt lat="45.36749" lon="5.59072">
        <ele>297.6</ele>
        <time>2022-04-15T07:22:17Z</time>
      </trkpt>
      <trkpt lat="45.3675" lon="5.59068">
        <ele>297.6</ele>
        <time>2022-04-15T07:22:19Z</time>
      </trkpt>
      <trkpt lat="45.36752" lon="5.59063">
        <ele>297.7</ele>
        <time>2022-04-15T07:22:20Z</time>
      </trkpt>
      <trkpt lat="45.36755" lon="5.59058">
        <ele>297.8</ele>
        <time>2022-04-15T07:22:22Z</time>
      </trkpt>
      <trkpt lat="45.36757" lon="5.59053">
        <ele>297.8</ele>
        <time>2022-04-15T07:22:23Z</time>
      </trkpt>
      <trkpt lat="45.36758" lon="5.59048">
        <ele>297.9</ele>
        <time>2022-04-15T07:22:25Z</time>
      </trkpt>
      <trkpt lat="45.36761" lon="5.59044">
        <ele>298</ele>
        <time>2022-04-15T07:22:27Z</time>
      </trkpt>
      <trkpt lat="45.36763" lon="5.5904">
        <ele>298.2</ele>
        <time>2022-04-15T07:22:28Z</time>
      </trkpt>
      <trkpt lat="45.36763" lon="5.59038">
        <ele>298.2</ele>
        <time>2022-04-15T07:22:29Z</time>
      </trkpt>
      <trkpt lat="45.36765" lon="5.59034">
        <ele>298.3</ele>
        <time>2022-04-15T07:22:30Z</time>
      </trkpt>
      <trkpt lat="45.36767" lon="5.59031">
        <ele>298.5</ele>
        <time>2022-04-15T07:22:31Z</time>
      </trkpt>
      <trkpt lat="45.36769" lon="5.59027">
        <ele>298.7</ele>
        <time>2022-04-15T07:22:32Z</time>
      </trkpt>
      <trkpt lat="45.3677" lon="5.59022">
        <ele>298.9</ele>
        <time>2022-04-15T07:22:34Z</time>
      </trkpt>
      <trkpt lat="45.36771" lon="5.59017">
        <ele>299.2</ele>
        <time>2022-04-15T07:22:35Z</time>
      </trkpt>
      <trkpt lat="45.36772" lon="5.59013">
        <ele>299.4</ele>
        <time>2022-04-15T07:22:36Z</time>
      </trkpt>
      <trkpt lat="45.36774" lon="5.5901">
        <ele>299.6</ele>
        <time>2022-04-15T07:22:37Z</time>
      </trkpt>
      <trkpt lat="45.36774" lon="5.59009">
        <ele>299.7</ele>
        <time>2022-04-15T07:22:38Z</time>
      </trkpt>
      <trkpt lat="45.36776" lon="5.59004">
        <ele>300</ele>
        <time>2022-04-15T07:22:40Z</time>
      </trkpt>
      <trkpt lat="45.36777" lon="5.59">
        <ele>300.3</ele>
        <time>2022-04-15T07:22:41Z</time>
      </trkpt>
      <trkpt lat="45.36778" lon="5.58997">
        <ele>300.4</ele>
        <time>2022-04-15T07:22:42Z</time>
      </trkpt>
      <trkpt lat="45.36779" lon="5.58992">
        <ele>300.8</ele>
        <time>2022-04-15T07:22:44Z</time>
      </trkpt>
      <trkpt lat="45.36781" lon="5.58988">
        <ele>301</ele>
        <time>2022-04-15T07:22:45Z</time>
      </trkpt>
      <trkpt lat="45.36782" lon="5.58987">
        <ele>301.2</ele>
        <time>2022-04-15T07:22:46Z</time>
      </trkpt>
      <trkpt lat="45.36783" lon="5.58983">
        <ele>301.4</ele>
        <time>2022-04-15T07:22:47Z</time>
      </trkpt>
      <trkpt lat="45.36784" lon="5.5898">
        <ele>301.6</ele>
        <time>2022-04-15T07:22:48Z</time>
      </trkpt>
      <trkpt lat="45.36785" lon="5.58976">
        <ele>301.9</ele>
        <time>2022-04-15T07:22:50Z</time>
      </trkpt>
      <trkpt lat="45.36786" lon="5.58971">
        <ele>302.2</ele>
        <time>2022-04-15T07:22:51Z</time>
      </trkpt>
      <trkpt lat="45.36786" lon="5.5897">
        <ele>302.2</ele>
        <time>2022-04-15T07:22:52Z</time>
      </trkpt>
      <trkpt lat="45.36787" lon="5.58965">
        <ele>302.3</ele>
        <time>2022-04-15T07:22:53Z</time>
      </trkpt>
      <trkpt lat="45.36787" lon="5.58963">
        <ele>302.3</ele>
        <time>2022-04-15T07:22:54Z</time>
      </trkpt>
      <trkpt lat="45.36788" lon="5.5896">
        <ele>302.4</ele>
        <time>2022-04-15T07:22:56Z</time>
      </trkpt>
      <trkpt lat="45.36788" lon="5.58955">
        <ele>302.5</ele>
        <time>2022-04-15T07:22:57Z</time>
      </trkpt>
      <trkpt lat="45.36789" lon="5.5895">
        <ele>302.7</ele>
        <time>2022-04-15T07:22:59Z</time>
      </trkpt>
      <trkpt lat="45.36789" lon="5.58949">
        <ele>302.7</ele>
        <time>2022-04-15T07:23:00Z</time>
      </trkpt>
      <trkpt lat="45.36789" lon="5.58944">
        <ele>302.8</ele>
        <time>2022-04-15T07:23:01Z</time>
      </trkpt>
      <trkpt lat="45.36789" lon="5.58943">
        <ele>302.9</ele>
        <time>2022-04-15T07:23:02Z</time>
      </trkpt>
      <trkpt lat="45.36791" lon="5.58938">
        <ele>303</ele>
        <time>2022-04-15T07:23:03Z</time>
      </trkpt>
      <trkpt lat="45.36792" lon="5.58937">
        <ele>303.1</ele>
        <time>2022-04-15T07:23:04Z</time>
      </trkpt>
      <trkpt lat="45.36793" lon="5.58933">
        <ele>303.3</ele>
        <time>2022-04-15T07:23:05Z</time>
      </trkpt>
      <trkpt lat="45.36793" lon="5.58931">
        <ele>303.3</ele>
        <time>2022-04-15T07:23:06Z</time>
      </trkpt>
      <trkpt lat="45.36794" lon="5.58926">
        <ele>303.5</ele>
        <time>2022-04-15T07:23:07Z</time>
      </trkpt>
      <trkpt lat="45.36795" lon="5.58925">
        <ele>303.6</ele>
        <time>2022-04-15T07:23:08Z</time>
      </trkpt>
      <trkpt lat="45.36797" lon="5.5892">
        <ele>303.8</ele>
        <time>2022-04-15T07:23:09Z</time>
      </trkpt>
      <trkpt lat="45.36797" lon="5.58919">
        <ele>303.8</ele>
        <time>2022-04-15T07:23:10Z</time>
      </trkpt>
      <trkpt lat="45.36799" lon="5.58914">
        <ele>304</ele>
        <time>2022-04-15T07:23:11Z</time>
      </trkpt>
      <trkpt lat="45.368" lon="5.58912">
        <ele>304.1</ele>
        <time>2022-04-15T07:23:12Z</time>
      </trkpt>
      <trkpt lat="45.36801" lon="5.5891">
        <ele>304.2</ele>
        <time>2022-04-15T07:23:13Z</time>
      </trkpt>
      <trkpt lat="45.36803" lon="5.58904">
        <ele>304.4</ele>
        <time>2022-04-15T07:23:15Z</time>
      </trkpt>
      <trkpt lat="45.36807" lon="5.58903">
        <ele>304.7</ele>
        <time>2022-04-15T07:23:16Z</time>
      </trkpt>
      <trkpt lat="45.3681" lon="5.58905">
        <ele>304.9</ele>
        <time>2022-04-15T07:23:18Z</time>
      </trkpt>
      <trkpt lat="45.36811" lon="5.58906">
        <ele>305</ele>
        <time>2022-04-15T07:23:19Z</time>
      </trkpt>
      <trkpt lat="45.36812" lon="5.58906">
        <ele>305.1</ele>
        <time>2022-04-15T07:23:20Z</time>
      </trkpt>
      <trkpt lat="45.36815" lon="5.58908">
        <ele>305.3</ele>
        <time>2022-04-15T07:23:22Z</time>
      </trkpt>
      <trkpt lat="45.36816" lon="5.58911">
        <ele>305.4</ele>
        <time>2022-04-15T07:23:23Z</time>
      </trkpt>
      <trkpt lat="45.36817" lon="5.58911">
        <ele>305.5</ele>
        <time>2022-04-15T07:23:24Z</time>
      </trkpt>
      <trkpt lat="45.36821" lon="5.58913">
        <ele>305.8</ele>
        <time>2022-04-15T07:23:25Z</time>
      </trkpt>
      <trkpt lat="45.36822" lon="5.58914">
        <ele>305.9</ele>
        <time>2022-04-15T07:23:26Z</time>
      </trkpt>
      <trkpt lat="45.36825" lon="5.58914">
        <ele>306.1</ele>
        <time>2022-04-15T07:23:27Z</time>
      </trkpt>
      <trkpt lat="45.36827" lon="5.58915">
        <ele>306.2</ele>
        <time>2022-04-15T07:23:29Z</time>
      </trkpt>
      <trkpt lat="45.36829" lon="5.58917">
        <ele>306.4</ele>
        <time>2022-04-15T07:23:30Z</time>
      </trkpt>
      <trkpt lat="45.3683" lon="5.58918">
        <ele>306.5</ele>
        <time>2022-04-15T07:23:31Z</time>
      </trkpt>
      <trkpt lat="45.36833" lon="5.5892">
        <ele>306.7</ele>
        <time>2022-04-15T07:23:33Z</time>
      </trkpt>
      <trkpt lat="45.36834" lon="5.58922">
        <ele>306.8</ele>
        <time>2022-04-15T07:23:34Z</time>
      </trkpt>
      <trkpt lat="45.36837" lon="5.58924">
        <ele>307</ele>
        <time>2022-04-15T07:23:35Z</time>
      </trkpt>
      <trkpt lat="45.36839" lon="5.58925">
        <ele>307.1</ele>
        <time>2022-04-15T07:23:36Z</time>
      </trkpt>
      <trkpt lat="45.36841" lon="5.58926">
        <ele>307.1</ele>
        <time>2022-04-15T07:23:38Z</time>
      </trkpt>
      <trkpt lat="45.36845" lon="5.58928">
        <ele>307.1</ele>
        <time>2022-04-15T07:23:39Z</time>
      </trkpt>
      <trkpt lat="45.36846" lon="5.58928">
        <ele>307.1</ele>
        <time>2022-04-15T07:23:40Z</time>
      </trkpt>
      <trkpt lat="45.36849" lon="5.5893">
        <ele>307.1</ele>
        <time>2022-04-15T07:23:41Z</time>
      </trkpt>
      <trkpt lat="45.3685" lon="5.58931">
        <ele>307.1</ele>
        <time>2022-04-15T07:23:42Z</time>
      </trkpt>
      <trkpt lat="45.36853" lon="5.58933">
        <ele>307.1</ele>
        <time>2022-04-15T07:23:43Z</time>
      </trkpt>
      <trkpt lat="45.36856" lon="5.58936">
        <ele>307.1</ele>
        <time>2022-04-15T07:23:44Z</time>
      </trkpt>
      <trkpt lat="45.3686" lon="5.58938">
        <ele>307.1</ele>
        <time>2022-04-15T07:23:45Z</time>
      </trkpt>
      <trkpt lat="45.36866" lon="5.58941">
        <ele>307</ele>
        <time>2022-04-15T07:23:47Z</time>
      </trkpt>
      <trkpt lat="45.36871" lon="5.58944">
        <ele>307.1</ele>
        <time>2022-04-15T07:23:49Z</time>
      </trkpt>
      <trkpt lat="45.36874" lon="5.58945">
        <ele>307.1</ele>
        <time>2022-04-15T07:23:50Z</time>
      </trkpt>
      <trkpt lat="45.36878" lon="5.58942">
        <ele>307.2</ele>
        <time>2022-04-15T07:23:52Z</time>
      </trkpt>
      <trkpt lat="45.3688" lon="5.58939">
        <ele>307.3</ele>
        <time>2022-04-15T07:23:53Z</time>
      </trkpt>
      <trkpt lat="45.3688" lon="5.58937">
        <ele>307.3</ele>
        <time>2022-04-15T07:23:54Z</time>
      </trkpt>
      <trkpt lat="45.36882" lon="5.58933">
        <ele>307.4</ele>
        <time>2022-04-15T07:23:56Z</time>
      </trkpt>
      <trkpt lat="45.36883" lon="5.58931">
        <ele>307.5</ele>
        <time>2022-04-15T07:23:57Z</time>
      </trkpt>
      <trkpt lat="45.36883" lon="5.58929">
        <ele>307.5</ele>
        <time>2022-04-15T07:23:58Z</time>
      </trkpt>
      <trkpt lat="45.36884" lon="5.58926">
        <ele>307.6</ele>
        <time>2022-04-15T07:23:59Z</time>
      </trkpt>
      <trkpt lat="45.36887" lon="5.58919">
        <ele>307.7</ele>
        <time>2022-04-15T07:24:01Z</time>
      </trkpt>
      <trkpt lat="45.36889" lon="5.58916">
        <ele>307.8</ele>
        <time>2022-04-15T07:24:02Z</time>
      </trkpt>
      <trkpt lat="45.36891" lon="5.58911">
        <ele>307.9</ele>
        <time>2022-04-15T07:24:04Z</time>
      </trkpt>
      <trkpt lat="45.36893" lon="5.58909">
        <ele>307.9</ele>
        <time>2022-04-15T07:24:05Z</time>
      </trkpt>
      <trkpt lat="45.36895" lon="5.58909">
        <ele>308</ele>
        <time>2022-04-15T07:24:06Z</time>
      </trkpt>
      <trkpt lat="45.36895" lon="5.58907">
        <ele>308</ele>
        <time>2022-04-15T07:24:07Z</time>
      </trkpt>
      <trkpt lat="45.36895" lon="5.58905">
        <ele>308</ele>
        <time>2022-04-15T07:24:09Z</time>
      </trkpt>
      <trkpt lat="45.36896" lon="5.58903">
        <ele>308.1</ele>
        <time>2022-04-15T07:24:10Z</time>
      </trkpt>
      <trkpt lat="45.36898" lon="5.58899">
        <ele>308.2</ele>
        <time>2022-04-15T07:24:12Z</time>
      </trkpt>
      <trkpt lat="45.36899" lon="5.58897">
        <ele>308.2</ele>
        <time>2022-04-15T07:24:13Z</time>
      </trkpt>
      <trkpt lat="45.369" lon="5.58896">
        <ele>308.2</ele>
        <time>2022-04-15T07:24:14Z</time>
      </trkpt>
      <trkpt lat="45.36899" lon="5.58897">
        <ele>308.2</ele>
        <time>2022-04-15T07:24:15Z</time>
      </trkpt>
      <trkpt lat="45.36899" lon="5.58897">
        <ele>308.3</ele>
        <time>2022-04-15T07:24:16Z</time>
      </trkpt>
      <trkpt lat="45.36899" lon="5.58897">
        <ele>308.3</ele>
        <time>2022-04-15T07:24:17Z</time>
      </trkpt>
      <trkpt lat="45.36899" lon="5.58897">
        <ele>308.3</ele>
        <time>2022-04-15T07:24:18Z</time>
      </trkpt>
      <trkpt lat="45.36898" lon="5.58897">
        <ele>308.3</ele>
        <time>2022-04-15T07:24:19Z</time>
      </trkpt>
      <trkpt lat="45.36898" lon="5.58897">
        <ele>308.3</ele>
        <time>2022-04-15T07:24:20Z</time>
      </trkpt>
      <trkpt lat="45.36898" lon="5.58897">
        <ele>308.3</ele>
        <time>2022-04-15T07:24:21Z</time>
      </trkpt>
      <trkpt lat="45.36898" lon="5.58897">
        <ele>308.3</ele>
        <time>2022-04-15T07:24:22Z</time>
      </trkpt>
      <trkpt lat="45.36898" lon="5.58897">
        <ele>308.3</ele>
        <time>2022-04-15T07:24:23Z</time>
      </trkpt>
      <trkpt lat="45.36898" lon="5.58897">
        <ele>308.3</ele>
        <time>2022-04-15T07:24:24Z</time>
      </trkpt>
      <trkpt lat="45.36898" lon="5.58897">
        <ele>308.3</ele>
        <time>2022-04-15T07:24:25Z</time>
      </trkpt>
      <trkpt lat="45.36898" lon="5.58897">
        <ele>308.3</ele>
        <time>2022-04-15T07:24:26Z</time>
      </trkpt>
      <trkpt lat="45.36898" lon="5.58897">
        <ele>308.3</ele>
        <time>2022-04-15T07:24:27Z</time>
      </trkpt>
      <trkpt lat="45.36898" lon="5.58896">
        <ele>308.3</ele>
        <time>2022-04-15T07:24:28Z</time>
      </trkpt>
      <trkpt lat="45.36898" lon="5.58896">
        <ele>308.3</ele>
        <time>2022-04-15T07:24:29Z</time>
      </trkpt>
      <trkpt lat="45.36898" lon="5.58896">
        <ele>308.3</ele>
        <time>2022-04-15T07:24:31Z</time>
      </trkpt>
      <trkpt lat="45.36897" lon="5.58896">
        <ele>308.3</ele>
        <time>2022-04-15T07:24:32Z</time>
      </trkpt>
      <trkpt lat="45.36897" lon="5.58896">
        <ele>308.3</ele>
        <time>2022-04-15T07:24:34Z</time>
      </trkpt>
      <trkpt lat="45.36897" lon="5.58896">
        <ele>308.3</ele>
        <time>2022-04-15T07:24:35Z</time>
      </trkpt>
      <trkpt lat="45.36897" lon="5.58896">
        <ele>308.3</ele>
        <time>2022-04-15T07:24:36Z</time>
      </trkpt>
      <trkpt lat="45.36897" lon="5.58896">
        <ele>308.3</ele>
        <time>2022-04-15T07:24:37Z</time>
      </trkpt>
      <trkpt lat="45.36897" lon="5.58896">
        <ele>308.3</ele>
        <time>2022-04-15T07:24:38Z</time>
      </trkpt>
      <trkpt lat="45.36897" lon="5.58896">
        <ele>308.3</ele>
        <time>2022-04-15T07:24:39Z</time>
      </trkpt>
      <trkpt lat="45.36897" lon="5.58896">
        <ele>308.3</ele>
        <time>2022-04-15T07:24:40Z</time>
      </trkpt>
      <trkpt lat="45.36897" lon="5.58896">
        <ele>308.3</ele>
        <time>2022-04-15T07:24:41Z</time>
      </trkpt>
      <trkpt lat="45.36898" lon="5.58896">
        <ele>308.3</ele>
        <time>2022-04-15T07:24:42Z</time>
      </trkpt>
      <trkpt lat="45.36898" lon="5.58896">
        <ele>308.3</ele>
        <time>2022-04-15T07:24:43Z</time>
      </trkpt>
      <trkpt lat="45.36898" lon="5.58896">
        <ele>308.3</ele>
        <time>2022-04-15T07:24:44Z</time>
      </trkpt>
      <trkpt lat="45.36898" lon="5.58896">
        <ele>308.3</ele>
        <time>2022-04-15T07:24:45Z</time>
      </trkpt>
      <trkpt lat="45.36898" lon="5.58896">
        <ele>308.3</ele>
        <time>2022-04-15T07:24:46Z</time>
      </trkpt>
      <trkpt lat="45.36898" lon="5.58896">
        <ele>308.3</ele>
        <time>2022-04-15T07:24:47Z</time>
      </trkpt>
      <trkpt lat="45.36898" lon="5.58896">
        <ele>308.3</ele>
        <time>2022-04-15T07:24:48Z</time>
      </trkpt>
      <trkpt lat="45.36898" lon="5.58896">
        <ele>308.3</ele>
        <time>2022-04-15T07:24:49Z</time>
      </trkpt>
      <trkpt lat="45.36898" lon="5.58895">
        <ele>308.3</ele>
        <time>2022-04-15T07:24:50Z</time>
      </trkpt>
      <trkpt lat="45.36898" lon="5.58895">
        <ele>308.3</ele>
        <time>2022-04-15T07:24:51Z</time>
      </trkpt>
      <trkpt lat="45.36898" lon="5.58895">
        <ele>308.3</ele>
        <time>2022-04-15T07:24:52Z</time>
      </trkpt>
      <trkpt lat="45.36897" lon="5.58895">
        <ele>308.3</ele>
        <time>2022-04-15T07:24:53Z</time>
      </trkpt>
      <trkpt lat="45.36897" lon="5.58895">
        <ele>308.3</ele>
        <time>2022-04-15T07:24:54Z</time>
      </trkpt>
      <trkpt lat="45.36898" lon="5.58895">
        <ele>308.4</ele>
        <time>2022-04-15T07:24:55Z</time>
      </trkpt>
      <trkpt lat="45.36898" lon="5.58894">
        <ele>308.4</ele>
        <time>2022-04-15T07:24:56Z</time>
      </trkpt>
      <trkpt lat="45.36899" lon="5.58894">
        <ele>308.4</ele>
        <time>2022-04-15T07:24:58Z</time>
      </trkpt>
      <trkpt lat="45.369" lon="5.58894">
        <ele>308.4</ele>
        <time>2022-04-15T07:24:59Z</time>
      </trkpt>
      <trkpt lat="45.369" lon="5.58892">
        <ele>308.4</ele>
        <time>2022-04-15T07:25:00Z</time>
      </trkpt>
      <trkpt lat="45.36901" lon="5.5889">
        <ele>308.5</ele>
        <time>2022-04-15T07:25:02Z</time>
      </trkpt>
      <trkpt lat="45.36902" lon="5.58888">
        <ele>308.5</ele>
        <time>2022-04-15T07:25:03Z</time>
      </trkpt>
      <trkpt lat="45.36901" lon="5.58881">
        <ele>308.6</ele>
        <time>2022-04-15T07:25:05Z</time>
      </trkpt>
      <trkpt lat="45.36902" lon="5.58874">
        <ele>308.7</ele>
        <time>2022-04-15T07:25:07Z</time>
      </trkpt>
      <trkpt lat="45.36902" lon="5.58869">
        <ele>308.8</ele>
        <time>2022-04-15T07:25:09Z</time>
      </trkpt>
      <trkpt lat="45.36902" lon="5.58868">
        <ele>308.8</ele>
        <time>2022-04-15T07:25:10Z</time>
      </trkpt>
      <trkpt lat="45.36901" lon="5.58867">
        <ele>308.8</ele>
        <time>2022-04-15T07:25:11Z</time>
      </trkpt>
      <trkpt lat="45.36901" lon="5.58866">
        <ele>308.8</ele>
        <time>2022-04-15T07:25:12Z</time>
      </trkpt>
      <trkpt lat="45.36901" lon="5.58863">
        <ele>308.8</ele>
        <time>2022-04-15T07:25:13Z</time>
      </trkpt>
      <trkpt lat="45.369" lon="5.58861">
        <ele>308.9</ele>
        <time>2022-04-15T07:25:15Z</time>
      </trkpt>
      <trkpt lat="45.36899" lon="5.58862">
        <ele>308.9</ele>
        <time>2022-04-15T07:25:16Z</time>
      </trkpt>
      <trkpt lat="45.36897" lon="5.58864">
        <ele>308.9</ele>
        <time>2022-04-15T07:25:17Z</time>
      </trkpt>
      <trkpt lat="45.36894" lon="5.58865">
        <ele>309</ele>
        <time>2022-04-15T07:25:18Z</time>
      </trkpt>
      <trkpt lat="45.36892" lon="5.58866">
        <ele>309</ele>
        <time>2022-04-15T07:25:19Z</time>
      </trkpt>
      <trkpt lat="45.36891" lon="5.58865">
        <ele>309</ele>
        <time>2022-04-15T07:25:21Z</time>
      </trkpt>
      <trkpt lat="45.3689" lon="5.58864">
        <ele>309</ele>
        <time>2022-04-15T07:25:22Z</time>
      </trkpt>
      <trkpt lat="45.36889" lon="5.58863">
        <ele>309</ele>
        <time>2022-04-15T07:25:24Z</time>
      </trkpt>
      <trkpt lat="45.36889" lon="5.58862">
        <ele>309</ele>
        <time>2022-04-15T07:25:25Z</time>
      </trkpt>
      <trkpt lat="45.36882" lon="5.58861">
        <ele>309.1</ele>
        <time>2022-04-15T07:25:27Z</time>
      </trkpt>
      <trkpt lat="45.36878" lon="5.5886">
        <ele>309.2</ele>
        <time>2022-04-15T07:25:28Z</time>
      </trkpt>
      <trkpt lat="45.36873" lon="5.58858">
        <ele>309.2</ele>
        <time>2022-04-15T07:25:30Z</time>
      </trkpt>
      <trkpt lat="45.3687" lon="5.58857">
        <ele>309.3</ele>
        <time>2022-04-15T07:25:31Z</time>
      </trkpt>
      <trkpt lat="45.36869" lon="5.58856">
        <ele>309.3</ele>
        <time>2022-04-15T07:25:32Z</time>
      </trkpt>
      <trkpt lat="45.36869" lon="5.58857">
        <ele>309.3</ele>
        <time>2022-04-15T07:25:33Z</time>
      </trkpt>
      <trkpt lat="45.36869" lon="5.58859">
        <ele>309.3</ele>
        <time>2022-04-15T07:25:34Z</time>
      </trkpt>
      <trkpt lat="45.3687" lon="5.5886">
        <ele>309.3</ele>
        <time>2022-04-15T07:25:35Z</time>
      </trkpt>
      <trkpt lat="45.3687" lon="5.58862">
        <ele>309.3</ele>
        <time>2022-04-15T07:25:36Z</time>
      </trkpt>
      <trkpt lat="45.36871" lon="5.58862">
        <ele>309.4</ele>
        <time>2022-04-15T07:25:37Z</time>
      </trkpt>
      <trkpt lat="45.36868" lon="5.58859">
        <ele>309.4</ele>
        <time>2022-04-15T07:25:39Z</time>
      </trkpt>
      <trkpt lat="45.36867" lon="5.58859">
        <ele>309.4</ele>
        <time>2022-04-15T07:25:40Z</time>
      </trkpt>
      <trkpt lat="45.36867" lon="5.58859">
        <ele>309.4</ele>
        <time>2022-04-15T07:25:41Z</time>
      </trkpt>
      <trkpt lat="45.36868" lon="5.58859">
        <ele>309.4</ele>
        <time>2022-04-15T07:25:42Z</time>
      </trkpt>
      <trkpt lat="45.36869" lon="5.5886">
        <ele>309.5</ele>
        <time>2022-04-15T07:25:43Z</time>
      </trkpt>
      <trkpt lat="45.36871" lon="5.58862">
        <ele>309.5</ele>
        <time>2022-04-15T07:25:45Z</time>
      </trkpt>
      <trkpt lat="45.36876" lon="5.58863">
        <ele>309.5</ele>
        <time>2022-04-15T07:25:47Z</time>
      </trkpt>
      <trkpt lat="45.3688" lon="5.58865">
        <ele>309.6</ele>
        <time>2022-04-15T07:25:48Z</time>
      </trkpt>
      <trkpt lat="45.36882" lon="5.58865">
        <ele>309.5</ele>
        <time>2022-04-15T07:25:50Z</time>
      </trkpt>
      <trkpt lat="45.36883" lon="5.58865">
        <ele>309.5</ele>
        <time>2022-04-15T07:25:51Z</time>
      </trkpt>
      <trkpt lat="45.36884" lon="5.58866">
        <ele>309.4</ele>
        <time>2022-04-15T07:25:53Z</time>
      </trkpt>
      <trkpt lat="45.36885" lon="5.5887">
        <ele>309.4</ele>
        <time>2022-04-15T07:25:55Z</time>
      </trkpt>
      <trkpt lat="45.36886" lon="5.5887">
        <ele>309.3</ele>
        <time>2022-04-15T07:25:56Z</time>
      </trkpt>
      <trkpt lat="45.36887" lon="5.58869">
        <ele>309.3</ele>
        <time>2022-04-15T07:25:57Z</time>
      </trkpt>
      <trkpt lat="45.36887" lon="5.58868">
        <ele>309.3</ele>
        <time>2022-04-15T07:25:58Z</time>
      </trkpt>
      <trkpt lat="45.36888" lon="5.58867">
        <ele>309.2</ele>
        <time>2022-04-15T07:25:59Z</time>
      </trkpt>
      <trkpt lat="45.36893" lon="5.5886">
        <ele>309.2</ele>
        <time>2022-04-15T07:26:01Z</time>
      </trkpt>
      <trkpt lat="45.36897" lon="5.58855">
        <ele>309.4</ele>
        <time>2022-04-15T07:26:02Z</time>
      </trkpt>
      <trkpt lat="45.36902" lon="5.58849">
        <ele>309.6</ele>
        <time>2022-04-15T07:26:03Z</time>
      </trkpt>
      <trkpt lat="45.36904" lon="5.58846">
        <ele>309.7</ele>
        <time>2022-04-15T07:26:05Z</time>
      </trkpt>
      <trkpt lat="45.36906" lon="5.58841">
        <ele>309.8</ele>
        <time>2022-04-15T07:26:06Z</time>
      </trkpt>
      <trkpt lat="45.36908" lon="5.58834">
        <ele>309.9</ele>
        <time>2022-04-15T07:26:08Z</time>
      </trkpt>
      <trkpt lat="45.3691" lon="5.5883">
        <ele>310</ele>
        <time>2022-04-15T07:26:09Z</time>
      </trkpt>
      <trkpt lat="45.36912" lon="5.58825">
        <ele>310.1</ele>
        <time>2022-04-15T07:26:10Z</time>
      </trkpt>
      <trkpt lat="45.36914" lon="5.58821">
        <ele>310.3</ele>
        <time>2022-04-15T07:26:11Z</time>
      </trkpt>
      <trkpt lat="45.36916" lon="5.58817">
        <ele>310.4</ele>
        <time>2022-04-15T07:26:12Z</time>
      </trkpt>
      <trkpt lat="45.36918" lon="5.58812">
        <ele>310.5</ele>
        <time>2022-04-15T07:26:13Z</time>
      </trkpt>
      <trkpt lat="45.3692" lon="5.58809">
        <ele>310.6</ele>
        <time>2022-04-15T07:26:14Z</time>
      </trkpt>
      <trkpt lat="45.36922" lon="5.58806">
        <ele>310.7</ele>
        <time>2022-04-15T07:26:15Z</time>
      </trkpt>
      <trkpt lat="45.36923" lon="5.58802">
        <ele>310.8</ele>
        <time>2022-04-15T07:26:16Z</time>
      </trkpt>
      <trkpt lat="45.36924" lon="5.58798">
        <ele>310.9</ele>
        <time>2022-04-15T07:26:18Z</time>
      </trkpt>
      <trkpt lat="45.36925" lon="5.58794">
        <ele>311</ele>
        <time>2022-04-15T07:26:19Z</time>
      </trkpt>
      <trkpt lat="45.36928" lon="5.58793">
        <ele>311.1</ele>
        <time>2022-04-15T07:26:20Z</time>
      </trkpt>
      <trkpt lat="45.3693" lon="5.58787">
        <ele>311.3</ele>
        <time>2022-04-15T07:26:22Z</time>
      </trkpt>
      <trkpt lat="45.36931" lon="5.58784">
        <ele>311.3</ele>
        <time>2022-04-15T07:26:23Z</time>
      </trkpt>
      <trkpt lat="45.36931" lon="5.58782">
        <ele>311.4</ele>
        <time>2022-04-15T07:26:24Z</time>
      </trkpt>
      <trkpt lat="45.36933" lon="5.58773">
        <ele>311.6</ele>
        <time>2022-04-15T07:26:26Z</time>
      </trkpt>
      <trkpt lat="45.36936" lon="5.58767">
        <ele>311.8</ele>
        <time>2022-04-15T07:26:27Z</time>
      </trkpt>
      <trkpt lat="45.36937" lon="5.58764">
        <ele>311.9</ele>
        <time>2022-04-15T07:26:29Z</time>
      </trkpt>
      <trkpt lat="45.36939" lon="5.5876">
        <ele>312</ele>
        <time>2022-04-15T07:26:30Z</time>
      </trkpt>
      <trkpt lat="45.36942" lon="5.58753">
        <ele>312.2</ele>
        <time>2022-04-15T07:26:32Z</time>
      </trkpt>
      <trkpt lat="45.36943" lon="5.58749">
        <ele>312.3</ele>
        <time>2022-04-15T07:26:33Z</time>
      </trkpt>
      <trkpt lat="45.36946" lon="5.58741">
        <ele>312.6</ele>
        <time>2022-04-15T07:26:35Z</time>
      </trkpt>
      <trkpt lat="45.36948" lon="5.58737">
        <ele>312.7</ele>
        <time>2022-04-15T07:26:36Z</time>
      </trkpt>
      <trkpt lat="45.36948" lon="5.58733">
        <ele>312.8</ele>
        <time>2022-04-15T07:26:37Z</time>
      </trkpt>
      <trkpt lat="45.36949" lon="5.58728">
        <ele>312.9</ele>
        <time>2022-04-15T07:26:39Z</time>
      </trkpt>
      <trkpt lat="45.36953" lon="5.58731">
        <ele>313.1</ele>
        <time>2022-04-15T07:26:41Z</time>
      </trkpt>
      <trkpt lat="45.36954" lon="5.58735">
        <ele>313.2</ele>
        <time>2022-04-15T07:26:43Z</time>
      </trkpt>
      <trkpt lat="45.36959" lon="5.58737">
        <ele>313.4</ele>
        <time>2022-04-15T07:26:44Z</time>
      </trkpt>
      <trkpt lat="45.36963" lon="5.58739">
        <ele>313.5</ele>
        <time>2022-04-15T07:26:46Z</time>
      </trkpt>
      <trkpt lat="45.36964" lon="5.58741">
        <ele>313.6</ele>
        <time>2022-04-15T07:26:47Z</time>
      </trkpt>
      <trkpt lat="45.36966" lon="5.58742">
        <ele>313.7</ele>
        <time>2022-04-15T07:26:48Z</time>
      </trkpt>
      <trkpt lat="45.3697" lon="5.58745">
        <ele>313.8</ele>
        <time>2022-04-15T07:26:50Z</time>
      </trkpt>
      <trkpt lat="45.36974" lon="5.58747">
        <ele>314</ele>
        <time>2022-04-15T07:26:51Z</time>
      </trkpt>
      <trkpt lat="45.36975" lon="5.58746">
        <ele>314</ele>
        <time>2022-04-15T07:26:52Z</time>
      </trkpt>
      <trkpt lat="45.36977" lon="5.58744">
        <ele>314.1</ele>
        <time>2022-04-15T07:26:53Z</time>
      </trkpt>
      <trkpt lat="45.3698" lon="5.58743">
        <ele>314.2</ele>
        <time>2022-04-15T07:26:55Z</time>
      </trkpt>
      <trkpt lat="45.36983" lon="5.58742">
        <ele>314.4</ele>
        <time>2022-04-15T07:26:56Z</time>
      </trkpt>
      <trkpt lat="45.36985" lon="5.58744">
        <ele>314.4</ele>
        <time>2022-04-15T07:26:58Z</time>
      </trkpt>
      <trkpt lat="45.36987" lon="5.58747">
        <ele>314.5</ele>
        <time>2022-04-15T07:26:59Z</time>
      </trkpt>
      <trkpt lat="45.3699" lon="5.58746">
        <ele>314.7</ele>
        <time>2022-04-15T07:27:01Z</time>
      </trkpt>
      <trkpt lat="45.36993" lon="5.58746">
        <ele>314.6</ele>
        <time>2022-04-15T07:27:02Z</time>
      </trkpt>
      <trkpt lat="45.36994" lon="5.58746">
        <ele>314.6</ele>
        <time>2022-04-15T07:27:04Z</time>
      </trkpt>
      <trkpt lat="45.36995" lon="5.58744">
        <ele>314.5</ele>
        <time>2022-04-15T07:27:05Z</time>
      </trkpt>
      <trkpt lat="45.36996" lon="5.5874">
        <ele>314.5</ele>
        <time>2022-04-15T07:27:06Z</time>
      </trkpt>
      <trkpt lat="45.36996" lon="5.58738">
        <ele>314.5</ele>
        <time>2022-04-15T07:27:07Z</time>
      </trkpt>
      <trkpt lat="45.36993" lon="5.58735">
        <ele>314.4</ele>
        <time>2022-04-15T07:27:08Z</time>
      </trkpt>
      <trkpt lat="45.36988" lon="5.58732">
        <ele>314.3</ele>
        <time>2022-04-15T07:27:09Z</time>
      </trkpt>
      <trkpt lat="45.36984" lon="5.5873">
        <ele>314.2</ele>
        <time>2022-04-15T07:27:10Z</time>
      </trkpt>
      <trkpt lat="45.36979" lon="5.58729">
        <ele>314.1</ele>
        <time>2022-04-15T07:27:11Z</time>
      </trkpt>
      <trkpt lat="45.36974" lon="5.58726">
        <ele>313.9</ele>
        <time>2022-04-15T07:27:13Z</time>
      </trkpt>
      <trkpt lat="45.36966" lon="5.58721">
        <ele>313.7</ele>
        <time>2022-04-15T07:27:15Z</time>
      </trkpt>
      <trkpt lat="45.36961" lon="5.58718">
        <ele>313.6</ele>
        <time>2022-04-15T07:27:16Z</time>
      </trkpt>
      <trkpt lat="45.36956" lon="5.58714">
        <ele>313.5</ele>
        <time>2022-04-15T07:27:17Z</time>
      </trkpt>
      <trkpt lat="45.36954" lon="5.58707">
        <ele>313.4</ele>
        <time>2022-04-15T07:27:18Z</time>
      </trkpt>
      <trkpt lat="45.36955" lon="5.58703">
        <ele>313.5</ele>
        <time>2022-04-15T07:27:19Z</time>
      </trkpt>
      <trkpt lat="45.36959" lon="5.58697">
        <ele>313.6</ele>
        <time>2022-04-15T07:27:21Z</time>
      </trkpt>
      <trkpt lat="45.36961" lon="5.58691">
        <ele>313.7</ele>
        <time>2022-04-15T07:27:22Z</time>
      </trkpt>
      <trkpt lat="45.36964" lon="5.58683">
        <ele>313.9</ele>
        <time>2022-04-15T07:27:24Z</time>
      </trkpt>
      <trkpt lat="45.36966" lon="5.58679">
        <ele>313.9</ele>
        <time>2022-04-15T07:27:25Z</time>
      </trkpt>
      <trkpt lat="45.36967" lon="5.58676">
        <ele>314</ele>
        <time>2022-04-15T07:27:26Z</time>
      </trkpt>
      <trkpt lat="45.3697" lon="5.58669">
        <ele>314.1</ele>
        <time>2022-04-15T07:27:27Z</time>
      </trkpt>
      <trkpt lat="45.36971" lon="5.58666">
        <ele>314.2</ele>
        <time>2022-04-15T07:27:28Z</time>
      </trkpt>
      <trkpt lat="45.36973" lon="5.58661">
        <ele>314.3</ele>
        <time>2022-04-15T07:27:30Z</time>
      </trkpt>
      <trkpt lat="45.36975" lon="5.58656">
        <ele>314.4</ele>
        <time>2022-04-15T07:27:31Z</time>
      </trkpt>
      <trkpt lat="45.36975" lon="5.58655">
        <ele>314.4</ele>
        <time>2022-04-15T07:27:32Z</time>
      </trkpt>
      <trkpt lat="45.36977" lon="5.58652">
        <ele>314.5</ele>
        <time>2022-04-15T07:27:33Z</time>
      </trkpt>
      <trkpt lat="45.36978" lon="5.58647">
        <ele>314.6</ele>
        <time>2022-04-15T07:27:34Z</time>
      </trkpt>
      <trkpt lat="45.36978" lon="5.58645">
        <ele>314.6</ele>
        <time>2022-04-15T07:27:35Z</time>
      </trkpt>
      <trkpt lat="45.3698" lon="5.5864">
        <ele>314.7</ele>
        <time>2022-04-15T07:27:36Z</time>
      </trkpt>
      <trkpt lat="45.36982" lon="5.58635">
        <ele>314.8</ele>
        <time>2022-04-15T07:27:37Z</time>
      </trkpt>
      <trkpt lat="45.36984" lon="5.58631">
        <ele>314.9</ele>
        <time>2022-04-15T07:27:38Z</time>
      </trkpt>
      <trkpt lat="45.36985" lon="5.58627">
        <ele>315</ele>
        <time>2022-04-15T07:27:39Z</time>
      </trkpt>
      <trkpt lat="45.36986" lon="5.58623">
        <ele>315.1</ele>
        <time>2022-04-15T07:27:41Z</time>
      </trkpt>
      <trkpt lat="45.36987" lon="5.58619">
        <ele>315.2</ele>
        <time>2022-04-15T07:27:42Z</time>
      </trkpt>
      <trkpt lat="45.36988" lon="5.58613">
        <ele>315.3</ele>
        <time>2022-04-15T07:27:43Z</time>
      </trkpt>
      <trkpt lat="45.36989" lon="5.58612">
        <ele>315.4</ele>
        <time>2022-04-15T07:27:44Z</time>
      </trkpt>
      <trkpt lat="45.36989" lon="5.58609">
        <ele>315.4</ele>
        <time>2022-04-15T07:27:45Z</time>
      </trkpt>
      <trkpt lat="45.3699" lon="5.58606">
        <ele>315.5</ele>
        <time>2022-04-15T07:27:47Z</time>
      </trkpt>
      <trkpt lat="45.36991" lon="5.58601">
        <ele>315.6</ele>
        <time>2022-04-15T07:27:48Z</time>
      </trkpt>
      <trkpt lat="45.36993" lon="5.58594">
        <ele>315.8</ele>
        <time>2022-04-15T07:27:50Z</time>
      </trkpt>
      <trkpt lat="45.36994" lon="5.5859">
        <ele>315.9</ele>
        <time>2022-04-15T07:27:51Z</time>
      </trkpt>
      <trkpt lat="45.36998" lon="5.58586">
        <ele>316.1</ele>
        <time>2022-04-15T07:27:52Z</time>
      </trkpt>
      <trkpt lat="45.37" lon="5.58585">
        <ele>316</ele>
        <time>2022-04-15T07:27:53Z</time>
      </trkpt>
      <trkpt lat="45.37005" lon="5.58586">
        <ele>316</ele>
        <time>2022-04-15T07:27:55Z</time>
      </trkpt>
      <trkpt lat="45.37008" lon="5.58588">
        <ele>315.9</ele>
        <time>2022-04-15T07:27:56Z</time>
      </trkpt>
      <trkpt lat="45.37012" lon="5.58592">
        <ele>315.9</ele>
        <time>2022-04-15T07:27:58Z</time>
      </trkpt>
      <trkpt lat="45.37016" lon="5.58595">
        <ele>315.8</ele>
        <time>2022-04-15T07:27:59Z</time>
      </trkpt>
      <trkpt lat="45.3702" lon="5.58597">
        <ele>315.8</ele>
        <time>2022-04-15T07:28:00Z</time>
      </trkpt>
      <trkpt lat="45.37027" lon="5.58598">
        <ele>315.7</ele>
        <time>2022-04-15T07:28:02Z</time>
      </trkpt>
      <trkpt lat="45.37032" lon="5.586">
        <ele>315.6</ele>
        <time>2022-04-15T07:28:03Z</time>
      </trkpt>
      <trkpt lat="45.37038" lon="5.58603">
        <ele>315.6</ele>
        <time>2022-04-15T07:28:04Z</time>
      </trkpt>
      <trkpt lat="45.37041" lon="5.5861">
        <ele>315.5</ele>
        <time>2022-04-15T07:28:06Z</time>
      </trkpt>
      <trkpt lat="45.37039" lon="5.58619">
        <ele>315.3</ele>
        <time>2022-04-15T07:28:08Z</time>
      </trkpt>
      <trkpt lat="45.37036" lon="5.58627">
        <ele>315.2</ele>
        <time>2022-04-15T07:28:09Z</time>
      </trkpt>
      <trkpt lat="45.37033" lon="5.58633">
        <ele>315.2</ele>
        <time>2022-04-15T07:28:10Z</time>
      </trkpt>
      <trkpt lat="45.37031" lon="5.58637">
        <ele>315.1</ele>
        <time>2022-04-15T07:28:11Z</time>
      </trkpt>
      <trkpt lat="45.37029" lon="5.58642">
        <ele>315.1</ele>
        <time>2022-04-15T07:28:13Z</time>
      </trkpt>
      <trkpt lat="45.37028" lon="5.58646">
        <ele>315</ele>
        <time>2022-04-15T07:28:14Z</time>
      </trkpt>
      <trkpt lat="45.37025" lon="5.58652">
        <ele>314.9</ele>
        <time>2022-04-15T07:28:15Z</time>
      </trkpt>
      <trkpt lat="45.37023" lon="5.58658">
        <ele>314.9</ele>
        <time>2022-04-15T07:28:16Z</time>
      </trkpt>
      <trkpt lat="45.37022" lon="5.58664">
        <ele>314.8</ele>
        <time>2022-04-15T07:28:17Z</time>
      </trkpt>
      <trkpt lat="45.37019" lon="5.58673">
        <ele>314.8</ele>
        <time>2022-04-15T07:28:19Z</time>
      </trkpt>
      <trkpt lat="45.37017" lon="5.58677">
        <ele>314.8</ele>
        <time>2022-04-15T07:28:20Z</time>
      </trkpt>
      <trkpt lat="45.37015" lon="5.58682">
        <ele>314.7</ele>
        <time>2022-04-15T07:28:21Z</time>
      </trkpt>
      <trkpt lat="45.37013" lon="5.58686">
        <ele>314.7</ele>
        <time>2022-04-15T07:28:22Z</time>
      </trkpt>
      <trkpt lat="45.37012" lon="5.58691">
        <ele>314.7</ele>
        <time>2022-04-15T07:28:23Z</time>
      </trkpt>
      <trkpt lat="45.37011" lon="5.58698">
        <ele>314.6</ele>
        <time>2022-04-15T07:28:24Z</time>
      </trkpt>
      <trkpt lat="45.37008" lon="5.58707">
        <ele>314.6</ele>
        <time>2022-04-15T07:28:25Z</time>
      </trkpt>
      <trkpt lat="45.37005" lon="5.58717">
        <ele>314.6</ele>
        <time>2022-04-15T07:28:27Z</time>
      </trkpt>
      <trkpt lat="45.37003" lon="5.58727">
        <ele>314.6</ele>
        <time>2022-04-15T07:28:29Z</time>
      </trkpt>
      <trkpt lat="45.37" lon="5.58739">
        <ele>314.6</ele>
        <time>2022-04-15T07:28:31Z</time>
      </trkpt>
      <trkpt lat="45.36998" lon="5.58749">
        <ele>314.6</ele>
        <time>2022-04-15T07:28:33Z</time>
      </trkpt>
      <trkpt lat="45.36997" lon="5.58753">
        <ele>314.7</ele>
        <time>2022-04-15T07:28:34Z</time>
      </trkpt>
      <trkpt lat="45.36995" lon="5.5876">
        <ele>314.7</ele>
        <time>2022-04-15T07:28:35Z</time>
      </trkpt>
      <trkpt lat="45.36993" lon="5.58768">
        <ele>314.7</ele>
        <time>2022-04-15T07:28:37Z</time>
      </trkpt>
      <trkpt lat="45.36993" lon="5.58772">
        <ele>314.8</ele>
        <time>2022-04-15T07:28:38Z</time>
      </trkpt>
      <trkpt lat="45.36993" lon="5.58777">
        <ele>314.8</ele>
        <time>2022-04-15T07:28:39Z</time>
      </trkpt>
      <trkpt lat="45.36993" lon="5.58782">
        <ele>314.9</ele>
        <time>2022-04-15T07:28:40Z</time>
      </trkpt>
      <trkpt lat="45.36992" lon="5.58787">
        <ele>315</ele>
        <time>2022-04-15T07:28:41Z</time>
      </trkpt>
      <trkpt lat="45.36991" lon="5.58789">
        <ele>315</ele>
        <time>2022-04-15T07:28:42Z</time>
      </trkpt>
      <trkpt lat="45.36991" lon="5.58794">
        <ele>315.1</ele>
        <time>2022-04-15T07:28:43Z</time>
      </trkpt>
      <trkpt lat="45.3699" lon="5.58796">
        <ele>315.2</ele>
        <time>2022-04-15T07:28:44Z</time>
      </trkpt>
      <trkpt lat="45.3699" lon="5.58799">
        <ele>315.3</ele>
        <time>2022-04-15T07:28:45Z</time>
      </trkpt>
      <trkpt lat="45.36989" lon="5.58805">
        <ele>315.4</ele>
        <time>2022-04-15T07:28:47Z</time>
      </trkpt>
      <trkpt lat="45.36989" lon="5.58809">
        <ele>315.5</ele>
        <time>2022-04-15T07:28:48Z</time>
      </trkpt>
      <trkpt lat="45.36988" lon="5.58812">
        <ele>315.6</ele>
        <time>2022-04-15T07:28:49Z</time>
      </trkpt>
      <trkpt lat="45.36987" lon="5.58816">
        <ele>315.8</ele>
        <time>2022-04-15T07:28:51Z</time>
      </trkpt>
      <trkpt lat="45.36987" lon="5.58821">
        <ele>315.9</ele>
        <time>2022-04-15T07:28:52Z</time>
      </trkpt>
      <trkpt lat="45.36986" lon="5.58823">
        <ele>316</ele>
        <time>2022-04-15T07:28:53Z</time>
      </trkpt>
      <trkpt lat="45.36986" lon="5.58829">
        <ele>316.1</ele>
        <time>2022-04-15T07:28:54Z</time>
      </trkpt>
      <trkpt lat="45.36986" lon="5.58831">
        <ele>316.2</ele>
        <time>2022-04-15T07:28:55Z</time>
      </trkpt>
      <trkpt lat="45.36986" lon="5.58835">
        <ele>316.3</ele>
        <time>2022-04-15T07:28:56Z</time>
      </trkpt>
      <trkpt lat="45.36986" lon="5.5884">
        <ele>316.5</ele>
        <time>2022-04-15T07:28:57Z</time>
      </trkpt>
      <trkpt lat="45.36988" lon="5.58846">
        <ele>316.7</ele>
        <time>2022-04-15T07:28:59Z</time>
      </trkpt>
      <trkpt lat="45.36989" lon="5.58851">
        <ele>316.8</ele>
        <time>2022-04-15T07:29:00Z</time>
      </trkpt>
      <trkpt lat="45.36989" lon="5.58853">
        <ele>316.9</ele>
        <time>2022-04-15T07:29:01Z</time>
      </trkpt>
      <trkpt lat="45.36988" lon="5.58858">
        <ele>317</ele>
        <time>2022-04-15T07:29:02Z</time>
      </trkpt>
      <trkpt lat="45.36987" lon="5.58862">
        <ele>317.1</ele>
        <time>2022-04-15T07:29:03Z</time>
      </trkpt>
      <trkpt lat="45.36986" lon="5.58872">
        <ele>317.4</ele>
        <time>2022-04-15T07:29:05Z</time>
      </trkpt>
      <trkpt lat="45.36986" lon="5.58879">
        <ele>317.6</ele>
        <time>2022-04-15T07:29:07Z</time>
      </trkpt>
      <trkpt lat="45.36985" lon="5.58884">
        <ele>317.7</ele>
        <time>2022-04-15T07:29:08Z</time>
      </trkpt>
      <trkpt lat="45.36985" lon="5.58892">
        <ele>317.9</ele>
        <time>2022-04-15T07:29:10Z</time>
      </trkpt>
      <trkpt lat="45.36984" lon="5.58896">
        <ele>317.9</ele>
        <time>2022-04-15T07:29:11Z</time>
      </trkpt>
      <trkpt lat="45.36983" lon="5.58904">
        <ele>318.1</ele>
        <time>2022-04-15T07:29:13Z</time>
      </trkpt>
      <trkpt lat="45.36981" lon="5.58907">
        <ele>318.2</ele>
        <time>2022-04-15T07:29:14Z</time>
      </trkpt>
      <trkpt lat="45.3698" lon="5.58913">
        <ele>318.3</ele>
        <time>2022-04-15T07:29:15Z</time>
      </trkpt>
      <trkpt lat="45.36978" lon="5.58921">
        <ele>318.4</ele>
        <time>2022-04-15T07:29:17Z</time>
      </trkpt>
      <trkpt lat="45.36977" lon="5.58926">
        <ele>318.5</ele>
        <time>2022-04-15T07:29:18Z</time>
      </trkpt>
      <trkpt lat="45.36976" lon="5.58932">
        <ele>318.6</ele>
        <time>2022-04-15T07:29:19Z</time>
      </trkpt>
      <trkpt lat="45.36976" lon="5.58937">
        <ele>318.6</ele>
        <time>2022-04-15T07:29:20Z</time>
      </trkpt>
      <trkpt lat="45.36975" lon="5.58943">
        <ele>318.7</ele>
        <time>2022-04-15T07:29:21Z</time>
      </trkpt>
      <trkpt lat="45.36973" lon="5.58948">
        <ele>318.8</ele>
        <time>2022-04-15T07:29:23Z</time>
      </trkpt>
      <trkpt lat="45.36972" lon="5.58953">
        <ele>318.8</ele>
        <time>2022-04-15T07:29:24Z</time>
      </trkpt>
      <trkpt lat="45.36971" lon="5.58961">
        <ele>318.9</ele>
        <time>2022-04-15T07:29:26Z</time>
      </trkpt>
      <trkpt lat="45.36969" lon="5.58967">
        <ele>318.9</ele>
        <time>2022-04-15T07:29:27Z</time>
      </trkpt>
      <trkpt lat="45.36969" lon="5.58971">
        <ele>319</ele>
        <time>2022-04-15T07:29:28Z</time>
      </trkpt>
      <trkpt lat="45.36968" lon="5.58977">
        <ele>319</ele>
        <time>2022-04-15T07:29:29Z</time>
      </trkpt>
      <trkpt lat="45.36968" lon="5.58984">
        <ele>319.1</ele>
        <time>2022-04-15T07:29:31Z</time>
      </trkpt>
      <trkpt lat="45.36967" lon="5.5899">
        <ele>319.1</ele>
        <time>2022-04-15T07:29:32Z</time>
      </trkpt>
      <trkpt lat="45.36967" lon="5.58999">
        <ele>319.1</ele>
        <time>2022-04-15T07:29:34Z</time>
      </trkpt>
      <trkpt lat="45.36967" lon="5.59003">
        <ele>319.1</ele>
        <time>2022-04-15T07:29:35Z</time>
      </trkpt>
      <trkpt lat="45.36967" lon="5.59013">
        <ele>319.1</ele>
        <time>2022-04-15T07:29:37Z</time>
      </trkpt>
      <trkpt lat="45.36967" lon="5.59024">
        <ele>319.1</ele>
        <time>2022-04-15T07:29:39Z</time>
      </trkpt>
      <trkpt lat="45.36967" lon="5.5903">
        <ele>319</ele>
        <time>2022-04-15T07:29:40Z</time>
      </trkpt>
      <trkpt lat="45.36968" lon="5.5904">
        <ele>318.9</ele>
        <time>2022-04-15T07:29:42Z</time>
      </trkpt>
      <trkpt lat="45.36969" lon="5.59052">
        <ele>318.7</ele>
        <time>2022-04-15T07:29:44Z</time>
      </trkpt>
      <trkpt lat="45.3697" lon="5.59059">
        <ele>318.6</ele>
        <time>2022-04-15T07:29:45Z</time>
      </trkpt>
      <trkpt lat="45.36972" lon="5.59073">
        <ele>318.2</ele>
        <time>2022-04-15T07:29:47Z</time>
      </trkpt>
      <trkpt lat="45.36973" lon="5.5908">
        <ele>318</ele>
        <time>2022-04-15T07:29:48Z</time>
      </trkpt>
      <trkpt lat="45.36972" lon="5.59087">
        <ele>317.8</ele>
        <time>2022-04-15T07:29:49Z</time>
      </trkpt>
      <trkpt lat="45.3697" lon="5.59094">
        <ele>317.5</ele>
        <time>2022-04-15T07:29:50Z</time>
      </trkpt>
      <trkpt lat="45.36971" lon="5.591">
        <ele>317.3</ele>
        <time>2022-04-15T07:29:52Z</time>
      </trkpt>
      <trkpt lat="45.36973" lon="5.59104">
        <ele>317.2</ele>
        <time>2022-04-15T07:29:53Z</time>
      </trkpt>
      <trkpt lat="45.36973" lon="5.59105">
        <ele>317.1</ele>
        <time>2022-04-15T07:29:54Z</time>
      </trkpt>
      <trkpt lat="45.36973" lon="5.59107">
        <ele>317.1</ele>
        <time>2022-04-15T07:29:55Z</time>
      </trkpt>
      <trkpt lat="45.36973" lon="5.59109">
        <ele>317</ele>
        <time>2022-04-15T07:29:56Z</time>
      </trkpt>
      <trkpt lat="45.36973" lon="5.5911">
        <ele>317</ele>
        <time>2022-04-15T07:29:57Z</time>
      </trkpt>
      <trkpt lat="45.36973" lon="5.59111">
        <ele>316.9</ele>
        <time>2022-04-15T07:29:58Z</time>
      </trkpt>
      <trkpt lat="45.36974" lon="5.5911">
        <ele>316.9</ele>
        <time>2022-04-15T07:29:59Z</time>
      </trkpt>
      <trkpt lat="45.36974" lon="5.59109">
        <ele>316.9</ele>
        <time>2022-04-15T07:30:00Z</time>
      </trkpt>
      <trkpt lat="45.36974" lon="5.59108">
        <ele>316.8</ele>
        <time>2022-04-15T07:30:01Z</time>
      </trkpt>
      <trkpt lat="45.36974" lon="5.59108">
        <ele>316.8</ele>
        <time>2022-04-15T07:30:02Z</time>
      </trkpt>
      <trkpt lat="45.36974" lon="5.59108">
        <ele>316.8</ele>
        <time>2022-04-15T07:30:03Z</time>
      </trkpt>
      <trkpt lat="45.36974" lon="5.59108">
        <ele>316.8</ele>
        <time>2022-04-15T07:30:04Z</time>
      </trkpt>
      <trkpt lat="45.36974" lon="5.59107">
        <ele>316.8</ele>
        <time>2022-04-15T07:30:05Z</time>
      </trkpt>
      <trkpt lat="45.36974" lon="5.59107">
        <ele>316.8</ele>
        <time>2022-04-15T07:30:06Z</time>
      </trkpt>
      <trkpt lat="45.36974" lon="5.59107">
        <ele>316.8</ele>
        <time>2022-04-15T07:30:07Z</time>
      </trkpt>
      <trkpt lat="45.36974" lon="5.59107">
        <ele>316.8</ele>
        <time>2022-04-15T07:30:08Z</time>
      </trkpt>
      <trkpt lat="45.36974" lon="5.59107">
        <ele>316.8</ele>
        <time>2022-04-15T07:30:09Z</time>
      </trkpt>
      <trkpt lat="45.36974" lon="5.59107">
        <ele>316.8</ele>
        <time>2022-04-15T07:30:11Z</time>
      </trkpt>
      <trkpt lat="45.36973" lon="5.59107">
        <ele>316.8</ele>
        <time>2022-04-15T07:30:13Z</time>
      </trkpt>
      <trkpt lat="45.36974" lon="5.59107">
        <ele>316.8</ele>
        <time>2022-04-15T07:30:14Z</time>
      </trkpt>
      <trkpt lat="45.36974" lon="5.59107">
        <ele>316.8</ele>
        <time>2022-04-15T07:30:15Z</time>
      </trkpt>
      <trkpt lat="45.36974" lon="5.59107">
        <ele>316.8</ele>
        <time>2022-04-15T07:30:16Z</time>
      </trkpt>
      <trkpt lat="45.36974" lon="5.59107">
        <ele>316.8</ele>
        <time>2022-04-15T07:30:17Z</time>
      </trkpt>
      <trkpt lat="45.36974" lon="5.59107">
        <ele>316.8</ele>
        <time>2022-04-15T07:30:18Z</time>
      </trkpt>
      <trkpt lat="45.36974" lon="5.59107">
        <ele>316.7</ele>
        <time>2022-04-15T07:30:19Z</time>
      </trkpt>
      <trkpt lat="45.36974" lon="5.59107">
        <ele>316.7</ele>
        <time>2022-04-15T07:30:20Z</time>
      </trkpt>
      <trkpt lat="45.36974" lon="5.59107">
        <ele>316.7</ele>
        <time>2022-04-15T07:30:21Z</time>
      </trkpt>
      <trkpt lat="45.36975" lon="5.59107">
        <ele>316.7</ele>
        <time>2022-04-15T07:30:22Z</time>
      </trkpt>
      <trkpt lat="45.36975" lon="5.59107">
        <ele>316.7</ele>
        <time>2022-04-15T07:30:23Z</time>
      </trkpt>
      <trkpt lat="45.36975" lon="5.59108">
        <ele>316.7</ele>
        <time>2022-04-15T07:30:24Z</time>
      </trkpt>
      <trkpt lat="45.36975" lon="5.59108">
        <ele>316.7</ele>
        <time>2022-04-15T07:30:25Z</time>
      </trkpt>
      <trkpt lat="45.36975" lon="5.59108">
        <ele>316.7</ele>
        <time>2022-04-15T07:30:26Z</time>
      </trkpt>
      <trkpt lat="45.36975" lon="5.59108">
        <ele>316.7</ele>
        <time>2022-04-15T07:30:27Z</time>
      </trkpt>
      <trkpt lat="45.36975" lon="5.59108">
        <ele>316.7</ele>
        <time>2022-04-15T07:30:28Z</time>
      </trkpt>
      <trkpt lat="45.36976" lon="5.59108">
        <ele>316.7</ele>
        <time>2022-04-15T07:30:29Z</time>
      </trkpt>
      <trkpt lat="45.36976" lon="5.59108">
        <ele>316.7</ele>
        <time>2022-04-15T07:30:30Z</time>
      </trkpt>
      <trkpt lat="45.36976" lon="5.59109">
        <ele>316.6</ele>
        <time>2022-04-15T07:30:31Z</time>
      </trkpt>
      <trkpt lat="45.36976" lon="5.59109">
        <ele>316.6</ele>
        <time>2022-04-15T07:30:32Z</time>
      </trkpt>
      <trkpt lat="45.36976" lon="5.59109">
        <ele>316.6</ele>
        <time>2022-04-15T07:30:33Z</time>
      </trkpt>
      <trkpt lat="45.36976" lon="5.59109">
        <ele>316.6</ele>
        <time>2022-04-15T07:30:34Z</time>
      </trkpt>
      <trkpt lat="45.36976" lon="5.59109">
        <ele>316.6</ele>
        <time>2022-04-15T07:30:35Z</time>
      </trkpt>
      <trkpt lat="45.36977" lon="5.59109">
        <ele>316.6</ele>
        <time>2022-04-15T07:30:36Z</time>
      </trkpt>
      <trkpt lat="45.36977" lon="5.59109">
        <ele>316.6</ele>
        <time>2022-04-15T07:30:37Z</time>
      </trkpt>
      <trkpt lat="45.36977" lon="5.5911">
        <ele>316.6</ele>
        <time>2022-04-15T07:30:38Z</time>
      </trkpt>
      <trkpt lat="45.36977" lon="5.5911">
        <ele>316.6</ele>
        <time>2022-04-15T07:30:39Z</time>
      </trkpt>
      <trkpt lat="45.36979" lon="5.59115">
        <ele>316.4</ele>
        <time>2022-04-15T07:30:40Z</time>
      </trkpt>
      <trkpt lat="45.36979" lon="5.59117">
        <ele>316.4</ele>
        <time>2022-04-15T07:30:41Z</time>
      </trkpt>
      <trkpt lat="45.36981" lon="5.59121">
        <ele>316.4</ele>
        <time>2022-04-15T07:30:42Z</time>
      </trkpt>
      <trkpt lat="45.36983" lon="5.59126">
        <ele>316.3</ele>
        <time>2022-04-15T07:30:43Z</time>
      </trkpt>
      <trkpt lat="45.36987" lon="5.59136">
        <ele>316.1</ele>
        <time>2022-04-15T07:30:45Z</time>
      </trkpt>
      <trkpt lat="45.36991" lon="5.59145">
        <ele>315.9</ele>
        <time>2022-04-15T07:30:47Z</time>
      </trkpt>
      <trkpt lat="45.36994" lon="5.59149">
        <ele>315.8</ele>
        <time>2022-04-15T07:30:48Z</time>
      </trkpt>
      <trkpt lat="45.36996" lon="5.59153">
        <ele>315.8</ele>
        <time>2022-04-15T07:30:49Z</time>
      </trkpt>
      <trkpt lat="45.36998" lon="5.59158">
        <ele>315.8</ele>
        <time>2022-04-15T07:30:50Z</time>
      </trkpt>
      <trkpt lat="45.36999" lon="5.59163">
        <ele>315.8</ele>
        <time>2022-04-15T07:30:51Z</time>
      </trkpt>
      <trkpt lat="45.37001" lon="5.59167">
        <ele>315.8</ele>
        <time>2022-04-15T07:30:52Z</time>
      </trkpt>
      <trkpt lat="45.37001" lon="5.59173">
        <ele>315.8</ele>
        <time>2022-04-15T07:30:53Z</time>
      </trkpt>
      <trkpt lat="45.37003" lon="5.59178">
        <ele>315.8</ele>
        <time>2022-04-15T07:30:54Z</time>
      </trkpt>
      <trkpt lat="45.37008" lon="5.59187">
        <ele>315.8</ele>
        <time>2022-04-15T07:30:56Z</time>
      </trkpt>
      <trkpt lat="45.37009" lon="5.59192">
        <ele>315.8</ele>
        <time>2022-04-15T07:30:57Z</time>
      </trkpt>
      <trkpt lat="45.3701" lon="5.59197">
        <ele>315.8</ele>
        <time>2022-04-15T07:30:58Z</time>
      </trkpt>
      <trkpt lat="45.37013" lon="5.592">
        <ele>315.8</ele>
        <time>2022-04-15T07:30:59Z</time>
      </trkpt>
      <trkpt lat="45.37014" lon="5.59201">
        <ele>315.8</ele>
        <time>2022-04-15T07:31:00Z</time>
      </trkpt>
      <trkpt lat="45.37017" lon="5.59204">
        <ele>315.8</ele>
        <time>2022-04-15T07:31:01Z</time>
      </trkpt>
      <trkpt lat="45.37019" lon="5.59208">
        <ele>315.9</ele>
        <time>2022-04-15T07:31:02Z</time>
      </trkpt>
      <trkpt lat="45.3702" lon="5.59209">
        <ele>315.9</ele>
        <time>2022-04-15T07:31:03Z</time>
      </trkpt>
      <trkpt lat="45.37021" lon="5.59212">
        <ele>315.9</ele>
        <time>2022-04-15T07:31:04Z</time>
      </trkpt>
      <trkpt lat="45.37021" lon="5.59213">
        <ele>315.9</ele>
        <time>2022-04-15T07:31:05Z</time>
      </trkpt>
      <trkpt lat="45.3702" lon="5.59213">
        <ele>315.9</ele>
        <time>2022-04-15T07:31:06Z</time>
      </trkpt>
      <trkpt lat="45.3702" lon="5.59211">
        <ele>315.9</ele>
        <time>2022-04-15T07:31:07Z</time>
      </trkpt>
      <trkpt lat="45.3702" lon="5.59211">
        <ele>315.9</ele>
        <time>2022-04-15T07:31:08Z</time>
      </trkpt>
      <trkpt lat="45.3702" lon="5.5921">
        <ele>315.9</ele>
        <time>2022-04-15T07:31:09Z</time>
      </trkpt>
      <trkpt lat="45.37019" lon="5.5921">
        <ele>315.9</ele>
        <time>2022-04-15T07:31:10Z</time>
      </trkpt>
      <trkpt lat="45.3702" lon="5.5921">
        <ele>315.9</ele>
        <time>2022-04-15T07:31:11Z</time>
      </trkpt>
      <trkpt lat="45.3702" lon="5.5921">
        <ele>315.9</ele>
        <time>2022-04-15T07:31:12Z</time>
      </trkpt>
      <trkpt lat="45.3702" lon="5.59211">
        <ele>315.9</ele>
        <time>2022-04-15T07:31:13Z</time>
      </trkpt>
      <trkpt lat="45.3702" lon="5.59211">
        <ele>315.9</ele>
        <time>2022-04-15T07:31:14Z</time>
      </trkpt>
      <trkpt lat="45.3702" lon="5.59211">
        <ele>315.9</ele>
        <time>2022-04-15T07:31:15Z</time>
      </trkpt>
      <trkpt lat="45.37021" lon="5.59212">
        <ele>316</ele>
        <time>2022-04-15T07:31:16Z</time>
      </trkpt>
      <trkpt lat="45.37021" lon="5.59212">
        <ele>316</ele>
        <time>2022-04-15T07:31:17Z</time>
      </trkpt>
      <trkpt lat="45.37021" lon="5.59213">
        <ele>316</ele>
        <time>2022-04-15T07:31:19Z</time>
      </trkpt>
      <trkpt lat="45.37021" lon="5.59213">
        <ele>316</ele>
        <time>2022-04-15T07:31:20Z</time>
      </trkpt>
      <trkpt lat="45.37022" lon="5.59213">
        <ele>316</ele>
        <time>2022-04-15T07:31:21Z</time>
      </trkpt>
      <trkpt lat="45.37022" lon="5.59214">
        <ele>316</ele>
        <time>2022-04-15T07:31:22Z</time>
      </trkpt>
      <trkpt lat="45.37022" lon="5.59214">
        <ele>316</ele>
        <time>2022-04-15T07:31:23Z</time>
      </trkpt>
      <trkpt lat="45.37022" lon="5.59215">
        <ele>316</ele>
        <time>2022-04-15T07:31:24Z</time>
      </trkpt>
      <trkpt lat="45.37023" lon="5.59215">
        <ele>316</ele>
        <time>2022-04-15T07:31:25Z</time>
      </trkpt>
      <trkpt lat="45.37023" lon="5.59215">
        <ele>316</ele>
        <time>2022-04-15T07:31:26Z</time>
      </trkpt>
      <trkpt lat="45.37023" lon="5.59216">
        <ele>316</ele>
        <time>2022-04-15T07:31:27Z</time>
      </trkpt>
      <trkpt lat="45.37023" lon="5.59216">
        <ele>316</ele>
        <time>2022-04-15T07:31:28Z</time>
      </trkpt>
      <trkpt lat="45.37025" lon="5.5922">
        <ele>316</ele>
        <time>2022-04-15T07:31:29Z</time>
      </trkpt>
      <trkpt lat="45.37027" lon="5.59223">
        <ele>316.1</ele>
        <time>2022-04-15T07:31:30Z</time>
      </trkpt>
      <trkpt lat="45.37028" lon="5.59227">
        <ele>316.1</ele>
        <time>2022-04-15T07:31:31Z</time>
      </trkpt>
      <trkpt lat="45.3703" lon="5.5923">
        <ele>316.2</ele>
        <time>2022-04-15T07:31:32Z</time>
      </trkpt>
      <trkpt lat="45.37031" lon="5.59234">
        <ele>316.2</ele>
        <time>2022-04-15T07:31:33Z</time>
      </trkpt>
      <trkpt lat="45.37032" lon="5.59239">
        <ele>316.3</ele>
        <time>2022-04-15T07:31:34Z</time>
      </trkpt>
      <trkpt lat="45.37033" lon="5.59243">
        <ele>316.3</ele>
        <time>2022-04-15T07:31:35Z</time>
      </trkpt>
      <trkpt lat="45.37035" lon="5.59246">
        <ele>316.4</ele>
        <time>2022-04-15T07:31:36Z</time>
      </trkpt>
      <trkpt lat="45.37036" lon="5.59251">
        <ele>316.4</ele>
        <time>2022-04-15T07:31:37Z</time>
      </trkpt>
      <trkpt lat="45.37037" lon="5.59255">
        <ele>316.5</ele>
        <time>2022-04-15T07:31:38Z</time>
      </trkpt>
      <trkpt lat="45.37038" lon="5.5926">
        <ele>316.5</ele>
        <time>2022-04-15T07:31:39Z</time>
      </trkpt>
      <trkpt lat="45.37038" lon="5.59265">
        <ele>316.6</ele>
        <time>2022-04-15T07:31:40Z</time>
      </trkpt>
      <trkpt lat="45.37039" lon="5.59271">
        <ele>316.7</ele>
        <time>2022-04-15T07:31:41Z</time>
      </trkpt>
      <trkpt lat="45.3704" lon="5.59273">
        <ele>316.7</ele>
        <time>2022-04-15T07:31:42Z</time>
      </trkpt>
      <trkpt lat="45.3704" lon="5.59277">
        <ele>316.7</ele>
        <time>2022-04-15T07:31:43Z</time>
      </trkpt>
      <trkpt lat="45.37041" lon="5.59284">
        <ele>316.8</ele>
        <time>2022-04-15T07:31:44Z</time>
      </trkpt>
      <trkpt lat="45.37043" lon="5.5929">
        <ele>316.9</ele>
        <time>2022-04-15T07:31:45Z</time>
      </trkpt>
      <trkpt lat="45.37044" lon="5.59294">
        <ele>317</ele>
        <time>2022-04-15T07:31:46Z</time>
      </trkpt>
      <trkpt lat="45.37045" lon="5.59301">
        <ele>317.1</ele>
        <time>2022-04-15T07:31:47Z</time>
      </trkpt>
      <trkpt lat="45.37046" lon="5.59305">
        <ele>317.2</ele>
        <time>2022-04-15T07:31:48Z</time>
      </trkpt>
      <trkpt lat="45.37046" lon="5.5931">
        <ele>317.3</ele>
        <time>2022-04-15T07:31:49Z</time>
      </trkpt>
      <trkpt lat="45.37046" lon="5.59315">
        <ele>317.3</ele>
        <time>2022-04-15T07:31:50Z</time>
      </trkpt>
      <trkpt lat="45.37045" lon="5.5932">
        <ele>317.4</ele>
        <time>2022-04-15T07:31:52Z</time>
      </trkpt>
      <trkpt lat="45.37045" lon="5.59326">
        <ele>317.6</ele>
        <time>2022-04-15T07:31:53Z</time>
      </trkpt>
      <trkpt lat="45.37045" lon="5.59332">
        <ele>317.7</ele>
        <time>2022-04-15T07:31:54Z</time>
      </trkpt>
      <trkpt lat="45.37046" lon="5.5934">
        <ele>317.9</ele>
        <time>2022-04-15T07:31:55Z</time>
      </trkpt>
      <trkpt lat="45.37045" lon="5.59347">
        <ele>318.1</ele>
        <time>2022-04-15T07:31:57Z</time>
      </trkpt>
      <trkpt lat="45.37045" lon="5.59354">
        <ele>318.3</ele>
        <time>2022-04-15T07:31:58Z</time>
      </trkpt>
      <trkpt lat="45.37044" lon="5.59358">
        <ele>318.4</ele>
        <time>2022-04-15T07:31:59Z</time>
      </trkpt>
      <trkpt lat="45.37043" lon="5.59365">
        <ele>318.7</ele>
        <time>2022-04-15T07:32:01Z</time>
      </trkpt>
      <trkpt lat="45.37043" lon="5.59367">
        <ele>318.8</ele>
        <time>2022-04-15T07:32:02Z</time>
      </trkpt>
      <trkpt lat="45.37043" lon="5.59369">
        <ele>318.9</ele>
        <time>2022-04-15T07:32:03Z</time>
      </trkpt>
      <trkpt lat="45.37042" lon="5.59373">
        <ele>319.1</ele>
        <time>2022-04-15T07:32:04Z</time>
      </trkpt>
      <trkpt lat="45.37042" lon="5.59377">
        <ele>319.3</ele>
        <time>2022-04-15T07:32:05Z</time>
      </trkpt>
      <trkpt lat="45.37042" lon="5.59383">
        <ele>319.6</ele>
        <time>2022-04-15T07:32:06Z</time>
      </trkpt>
      <trkpt lat="45.37042" lon="5.59388">
        <ele>319.8</ele>
        <time>2022-04-15T07:32:08Z</time>
      </trkpt>
      <trkpt lat="45.37042" lon="5.59389">
        <ele>319.9</ele>
        <time>2022-04-15T07:32:09Z</time>
      </trkpt>
      <trkpt lat="45.37042" lon="5.59394">
        <ele>320.2</ele>
        <time>2022-04-15T07:32:10Z</time>
      </trkpt>
      <trkpt lat="45.37041" lon="5.59397">
        <ele>320.3</ele>
        <time>2022-04-15T07:32:11Z</time>
      </trkpt>
      <trkpt lat="45.37042" lon="5.59401">
        <ele>320.6</ele>
        <time>2022-04-15T07:32:13Z</time>
      </trkpt>
      <trkpt lat="45.37042" lon="5.59403">
        <ele>320.8</ele>
        <time>2022-04-15T07:32:14Z</time>
      </trkpt>
      <trkpt lat="45.37042" lon="5.59405">
        <ele>320.9</ele>
        <time>2022-04-15T07:32:15Z</time>
      </trkpt>
      <trkpt lat="45.37042" lon="5.59408">
        <ele>321.1</ele>
        <time>2022-04-15T07:32:16Z</time>
      </trkpt>
      <trkpt lat="45.37043" lon="5.59412">
        <ele>321.4</ele>
        <time>2022-04-15T07:32:18Z</time>
      </trkpt>
      <trkpt lat="45.37045" lon="5.59416">
        <ele>321.7</ele>
        <time>2022-04-15T07:32:19Z</time>
      </trkpt>
      <trkpt lat="45.37045" lon="5.59418">
        <ele>321.8</ele>
        <time>2022-04-15T07:32:20Z</time>
      </trkpt>
      <trkpt lat="45.37046" lon="5.59421">
        <ele>322</ele>
        <time>2022-04-15T07:32:22Z</time>
      </trkpt>
      <trkpt lat="45.37048" lon="5.59427">
        <ele>322.4</ele>
        <time>2022-04-15T07:32:23Z</time>
      </trkpt>
      <trkpt lat="45.37049" lon="5.5943">
        <ele>322.6</ele>
        <time>2022-04-15T07:32:24Z</time>
      </trkpt>
      <trkpt lat="45.3705" lon="5.59434">
        <ele>322.9</ele>
        <time>2022-04-15T07:32:26Z</time>
      </trkpt>
      <trkpt lat="45.3705" lon="5.59436">
        <ele>323</ele>
        <time>2022-04-15T07:32:27Z</time>
      </trkpt>
      <trkpt lat="45.37051" lon="5.5944">
        <ele>323.3</ele>
        <time>2022-04-15T07:32:29Z</time>
      </trkpt>
      <trkpt lat="45.37052" lon="5.59442">
        <ele>323.4</ele>
        <time>2022-04-15T07:32:30Z</time>
      </trkpt>
      <trkpt lat="45.37052" lon="5.59445">
        <ele>323.5</ele>
        <time>2022-04-15T07:32:31Z</time>
      </trkpt>
      <trkpt lat="45.37054" lon="5.59447">
        <ele>323.7</ele>
        <time>2022-04-15T07:32:32Z</time>
      </trkpt>
      <trkpt lat="45.37054" lon="5.59448">
        <ele>323.8</ele>
        <time>2022-04-15T07:32:33Z</time>
      </trkpt>
      <trkpt lat="45.37055" lon="5.5945">
        <ele>323.9</ele>
        <time>2022-04-15T07:32:34Z</time>
      </trkpt>
      <trkpt lat="45.37056" lon="5.59452">
        <ele>324.1</ele>
        <time>2022-04-15T07:32:35Z</time>
      </trkpt>
      <trkpt lat="45.37057" lon="5.59458">
        <ele>324.5</ele>
        <time>2022-04-15T07:32:37Z</time>
      </trkpt>
      <trkpt lat="45.37058" lon="5.59464">
        <ele>324.8</ele>
        <time>2022-04-15T07:32:39Z</time>
      </trkpt>
      <trkpt lat="45.37059" lon="5.59468">
        <ele>325.1</ele>
        <time>2022-04-15T07:32:40Z</time>
      </trkpt>
      <trkpt lat="45.37059" lon="5.5947">
        <ele>325.2</ele>
        <time>2022-04-15T07:32:41Z</time>
      </trkpt>
      <trkpt lat="45.3706" lon="5.59473">
        <ele>325.3</ele>
        <time>2022-04-15T07:32:42Z</time>
      </trkpt>
      <trkpt lat="45.37061" lon="5.59477">
        <ele>325.6</ele>
        <time>2022-04-15T07:32:44Z</time>
      </trkpt>
      <trkpt lat="45.37061" lon="5.59479">
        <ele>325.7</ele>
        <time>2022-04-15T07:32:45Z</time>
      </trkpt>
      <trkpt lat="45.37062" lon="5.59481">
        <ele>325.9</ele>
        <time>2022-04-15T07:32:46Z</time>
      </trkpt>
      <trkpt lat="45.37062" lon="5.59482">
        <ele>326</ele>
        <time>2022-04-15T07:32:47Z</time>
      </trkpt>
      <trkpt lat="45.37063" lon="5.59484">
        <ele>326.1</ele>
        <time>2022-04-15T07:32:48Z</time>
      </trkpt>
      <trkpt lat="45.37063" lon="5.59487">
        <ele>326.3</ele>
        <time>2022-04-15T07:32:49Z</time>
      </trkpt>
      <trkpt lat="45.37063" lon="5.59489">
        <ele>326.4</ele>
        <time>2022-04-15T07:32:50Z</time>
      </trkpt>
      <trkpt lat="45.37063" lon="5.5949">
        <ele>326.5</ele>
        <time>2022-04-15T07:32:51Z</time>
      </trkpt>
      <trkpt lat="45.37064" lon="5.59492">
        <ele>326.6</ele>
        <time>2022-04-15T07:32:52Z</time>
      </trkpt>
      <trkpt lat="45.37065" lon="5.59496">
        <ele>326.9</ele>
        <time>2022-04-15T07:32:53Z</time>
      </trkpt>
      <trkpt lat="45.37066" lon="5.59498">
        <ele>327</ele>
        <time>2022-04-15T07:32:55Z</time>
      </trkpt>
      <trkpt lat="45.37067" lon="5.59501">
        <ele>327.2</ele>
        <time>2022-04-15T07:32:57Z</time>
      </trkpt>
      <trkpt lat="45.37068" lon="5.59505">
        <ele>327.4</ele>
        <time>2022-04-15T07:32:58Z</time>
      </trkpt>
      <trkpt lat="45.37068" lon="5.59507">
        <ele>327.5</ele>
        <time>2022-04-15T07:33:00Z</time>
      </trkpt>
      <trkpt lat="45.37069" lon="5.59509">
        <ele>327.7</ele>
        <time>2022-04-15T07:33:01Z</time>
      </trkpt>
      <trkpt lat="45.3707" lon="5.59511">
        <ele>327.8</ele>
        <time>2022-04-15T07:33:02Z</time>
      </trkpt>
      <trkpt lat="45.37071" lon="5.59515">
        <ele>328</ele>
        <time>2022-04-15T07:33:03Z</time>
      </trkpt>
      <trkpt lat="45.37072" lon="5.59523">
        <ele>328.4</ele>
        <time>2022-04-15T07:33:05Z</time>
      </trkpt>
      <trkpt lat="45.37073" lon="5.59526">
        <ele>328.5</ele>
        <time>2022-04-15T07:33:07Z</time>
      </trkpt>
      <trkpt lat="45.37074" lon="5.59531">
        <ele>328.7</ele>
        <time>2022-04-15T07:33:08Z</time>
      </trkpt>
      <trkpt lat="45.37074" lon="5.59532">
        <ele>328.8</ele>
        <time>2022-04-15T07:33:09Z</time>
      </trkpt>
      <trkpt lat="45.37075" lon="5.59537">
        <ele>329</ele>
        <time>2022-04-15T07:33:10Z</time>
      </trkpt>
      <trkpt lat="45.37076" lon="5.59538">
        <ele>329.1</ele>
        <time>2022-04-15T07:33:11Z</time>
      </trkpt>
      <trkpt lat="45.37077" lon="5.59543">
        <ele>329.3</ele>
        <time>2022-04-15T07:33:13Z</time>
      </trkpt>
      <trkpt lat="45.37077" lon="5.59547">
        <ele>329.5</ele>
        <time>2022-04-15T07:33:14Z</time>
      </trkpt>
      <trkpt lat="45.37078" lon="5.59552">
        <ele>329.7</ele>
        <time>2022-04-15T07:33:16Z</time>
      </trkpt>
      <trkpt lat="45.37079" lon="5.59556">
        <ele>329.9</ele>
        <time>2022-04-15T07:33:17Z</time>
      </trkpt>
      <trkpt lat="45.37079" lon="5.59557">
        <ele>330</ele>
        <time>2022-04-15T07:33:18Z</time>
      </trkpt>
      <trkpt lat="45.37081" lon="5.59563">
        <ele>330.2</ele>
        <time>2022-04-15T07:33:20Z</time>
      </trkpt>
      <trkpt lat="45.37081" lon="5.59565">
        <ele>330.3</ele>
        <time>2022-04-15T07:33:21Z</time>
      </trkpt>
      <trkpt lat="45.37082" lon="5.5957">
        <ele>330.6</ele>
        <time>2022-04-15T07:33:23Z</time>
      </trkpt>
      <trkpt lat="45.37083" lon="5.59576">
        <ele>330.8</ele>
        <time>2022-04-15T07:33:25Z</time>
      </trkpt>
      <trkpt lat="45.37084" lon="5.5958">
        <ele>331</ele>
        <time>2022-04-15T07:33:26Z</time>
      </trkpt>
      <trkpt lat="45.37084" lon="5.59582">
        <ele>331.1</ele>
        <time>2022-04-15T07:33:27Z</time>
      </trkpt>
      <trkpt lat="45.37086" lon="5.59586">
        <ele>331.3</ele>
        <time>2022-04-15T07:33:28Z</time>
      </trkpt>
      <trkpt lat="45.37086" lon="5.59587">
        <ele>331.4</ele>
        <time>2022-04-15T07:33:29Z</time>
      </trkpt>
      <trkpt lat="45.37087" lon="5.59591">
        <ele>331.6</ele>
        <time>2022-04-15T07:33:30Z</time>
      </trkpt>
      <trkpt lat="45.37089" lon="5.59596">
        <ele>331.8</ele>
        <time>2022-04-15T07:33:32Z</time>
      </trkpt>
      <trkpt lat="45.37089" lon="5.59597">
        <ele>331.9</ele>
        <time>2022-04-15T07:33:33Z</time>
      </trkpt>
      <trkpt lat="45.3709" lon="5.596">
        <ele>332</ele>
        <time>2022-04-15T07:33:34Z</time>
      </trkpt>
      <trkpt lat="45.3709" lon="5.59601">
        <ele>332.1</ele>
        <time>2022-04-15T07:33:35Z</time>
      </trkpt>
      <trkpt lat="45.37091" lon="5.59605">
        <ele>332.3</ele>
        <time>2022-04-15T07:33:36Z</time>
      </trkpt>
      <trkpt lat="45.37092" lon="5.59607">
        <ele>332.3</ele>
        <time>2022-04-15T07:33:37Z</time>
      </trkpt>
      <trkpt lat="45.37092" lon="5.59611">
        <ele>332.6</ele>
        <time>2022-04-15T07:33:38Z</time>
      </trkpt>
      <trkpt lat="45.37093" lon="5.59613">
        <ele>332.6</ele>
        <time>2022-04-15T07:33:39Z</time>
      </trkpt>
      <trkpt lat="45.37094" lon="5.59617">
        <ele>332.8</ele>
        <time>2022-04-15T07:33:40Z</time>
      </trkpt>
      <trkpt lat="45.37094" lon="5.59622">
        <ele>333</ele>
        <time>2022-04-15T07:33:42Z</time>
      </trkpt>
      <trkpt lat="45.37094" lon="5.59623">
        <ele>333.1</ele>
        <time>2022-04-15T07:33:43Z</time>
      </trkpt>
      <trkpt lat="45.37094" lon="5.59627">
        <ele>333.3</ele>
        <time>2022-04-15T07:33:44Z</time>
      </trkpt>
      <trkpt lat="45.37095" lon="5.59629">
        <ele>333.3</ele>
        <time>2022-04-15T07:33:45Z</time>
      </trkpt>
      <trkpt lat="45.37095" lon="5.59632">
        <ele>333.5</ele>
        <time>2022-04-15T07:33:46Z</time>
      </trkpt>
      <trkpt lat="45.37096" lon="5.59636">
        <ele>333.6</ele>
        <time>2022-04-15T07:33:48Z</time>
      </trkpt>
      <trkpt lat="45.37096" lon="5.59639">
        <ele>333.8</ele>
        <time>2022-04-15T07:33:49Z</time>
      </trkpt>
      <trkpt lat="45.37096" lon="5.59644">
        <ele>334</ele>
        <time>2022-04-15T07:33:51Z</time>
      </trkpt>
      <trkpt lat="45.37097" lon="5.59647">
        <ele>334.1</ele>
        <time>2022-04-15T07:33:52Z</time>
      </trkpt>
      <trkpt lat="45.37097" lon="5.59652">
        <ele>334.4</ele>
        <time>2022-04-15T07:33:54Z</time>
      </trkpt>
      <trkpt lat="45.37097" lon="5.59656">
        <ele>334.6</ele>
        <time>2022-04-15T07:33:55Z</time>
      </trkpt>
      <trkpt lat="45.37096" lon="5.59659">
        <ele>334.8</ele>
        <time>2022-04-15T07:33:57Z</time>
      </trkpt>
      <trkpt lat="45.37096" lon="5.59661">
        <ele>334.9</ele>
        <time>2022-04-15T07:33:58Z</time>
      </trkpt>
      <trkpt lat="45.37096" lon="5.59665">
        <ele>335.1</ele>
        <time>2022-04-15T07:33:59Z</time>
      </trkpt>
      <trkpt lat="45.37096" lon="5.59666">
        <ele>335.1</ele>
        <time>2022-04-15T07:34:00Z</time>
      </trkpt>
      <trkpt lat="45.37096" lon="5.59671">
        <ele>335.3</ele>
        <time>2022-04-15T07:34:01Z</time>
      </trkpt>
      <trkpt lat="45.37096" lon="5.59672">
        <ele>335.4</ele>
        <time>2022-04-15T07:34:02Z</time>
      </trkpt>
      <trkpt lat="45.37096" lon="5.59676">
        <ele>335.6</ele>
        <time>2022-04-15T07:34:03Z</time>
      </trkpt>
      <trkpt lat="45.37095" lon="5.59677">
        <ele>335.7</ele>
        <time>2022-04-15T07:34:04Z</time>
      </trkpt>
      <trkpt lat="45.37095" lon="5.59681">
        <ele>335.9</ele>
        <time>2022-04-15T07:34:05Z</time>
      </trkpt>
      <trkpt lat="45.37095" lon="5.59683">
        <ele>336</ele>
        <time>2022-04-15T07:34:06Z</time>
      </trkpt>
      <trkpt lat="45.37095" lon="5.59686">
        <ele>336.2</ele>
        <time>2022-04-15T07:34:07Z</time>
      </trkpt>
      <trkpt lat="45.37095" lon="5.59688">
        <ele>336.3</ele>
        <time>2022-04-15T07:34:08Z</time>
      </trkpt>
      <trkpt lat="45.37095" lon="5.59693">
        <ele>336.6</ele>
        <time>2022-04-15T07:34:10Z</time>
      </trkpt>
      <trkpt lat="45.37096" lon="5.59698">
        <ele>336.8</ele>
        <time>2022-04-15T07:34:12Z</time>
      </trkpt>
      <trkpt lat="45.37096" lon="5.597">
        <ele>336.9</ele>
        <time>2022-04-15T07:34:13Z</time>
      </trkpt>
      <trkpt lat="45.37096" lon="5.59702">
        <ele>337</ele>
        <time>2022-04-15T07:34:14Z</time>
      </trkpt>
      <trkpt lat="45.37096" lon="5.59706">
        <ele>337.2</ele>
        <time>2022-04-15T07:34:15Z</time>
      </trkpt>
      <trkpt lat="45.37097" lon="5.59711">
        <ele>337.5</ele>
        <time>2022-04-15T07:34:17Z</time>
      </trkpt>
      <trkpt lat="45.37097" lon="5.59713">
        <ele>337.6</ele>
        <time>2022-04-15T07:34:18Z</time>
      </trkpt>
      <trkpt lat="45.37098" lon="5.59716">
        <ele>337.7</ele>
        <time>2022-04-15T07:34:19Z</time>
      </trkpt>
      <trkpt lat="45.37098" lon="5.59722">
        <ele>338</ele>
        <time>2022-04-15T07:34:21Z</time>
      </trkpt>
      <trkpt lat="45.37099" lon="5.59726">
        <ele>338.2</ele>
        <time>2022-04-15T07:34:23Z</time>
      </trkpt>
      <trkpt lat="45.37099" lon="5.59728">
        <ele>338.3</ele>
        <time>2022-04-15T07:34:24Z</time>
      </trkpt>
      <trkpt lat="45.37099" lon="5.59731">
        <ele>338.5</ele>
        <time>2022-04-15T07:34:25Z</time>
      </trkpt>
      <trkpt lat="45.37099" lon="5.59733">
        <ele>338.5</ele>
        <time>2022-04-15T07:34:26Z</time>
      </trkpt>
      <trkpt lat="45.37098" lon="5.59738">
        <ele>338.8</ele>
        <time>2022-04-15T07:34:27Z</time>
      </trkpt>
      <trkpt lat="45.37098" lon="5.59741">
        <ele>338.9</ele>
        <time>2022-04-15T07:34:28Z</time>
      </trkpt>
      <trkpt lat="45.37097" lon="5.59743">
        <ele>339</ele>
        <time>2022-04-15T07:34:30Z</time>
      </trkpt>
      <trkpt lat="45.37097" lon="5.59746">
        <ele>339.1</ele>
        <time>2022-04-15T07:34:31Z</time>
      </trkpt>
      <trkpt lat="45.37095" lon="5.5975">
        <ele>339.3</ele>
        <time>2022-04-15T07:34:33Z</time>
      </trkpt>
      <trkpt lat="45.37095" lon="5.59752">
        <ele>339.4</ele>
        <time>2022-04-15T07:34:34Z</time>
      </trkpt>
      <trkpt lat="45.37093" lon="5.59756">
        <ele>339.6</ele>
        <time>2022-04-15T07:34:36Z</time>
      </trkpt>
      <trkpt lat="45.37092" lon="5.5976">
        <ele>339.8</ele>
        <time>2022-04-15T07:34:37Z</time>
      </trkpt>
      <trkpt lat="45.37091" lon="5.59762">
        <ele>339.8</ele>
        <time>2022-04-15T07:34:38Z</time>
      </trkpt>
      <trkpt lat="45.37091" lon="5.59765">
        <ele>339.9</ele>
        <time>2022-04-15T07:34:40Z</time>
      </trkpt>
      <trkpt lat="45.3709" lon="5.59766">
        <ele>340</ele>
        <time>2022-04-15T07:34:41Z</time>
      </trkpt>
      <trkpt lat="45.3709" lon="5.59768">
        <ele>340.1</ele>
        <time>2022-04-15T07:34:42Z</time>
      </trkpt>
      <trkpt lat="45.37089" lon="5.5977">
        <ele>340.2</ele>
        <time>2022-04-15T07:34:43Z</time>
      </trkpt>
      <trkpt lat="45.37088" lon="5.59772">
        <ele>340.3</ele>
        <time>2022-04-15T07:34:44Z</time>
      </trkpt>
      <trkpt lat="45.37087" lon="5.59774">
        <ele>340.4</ele>
        <time>2022-04-15T07:34:45Z</time>
      </trkpt>
      <trkpt lat="45.37085" lon="5.59779">
        <ele>340.7</ele>
        <time>2022-04-15T07:34:46Z</time>
      </trkpt>
      <trkpt lat="45.37084" lon="5.59783">
        <ele>340.9</ele>
        <time>2022-04-15T07:34:48Z</time>
      </trkpt>
      <trkpt lat="45.37083" lon="5.59784">
        <ele>340.9</ele>
        <time>2022-04-15T07:34:49Z</time>
      </trkpt>
      <trkpt lat="45.37082" lon="5.59788">
        <ele>341.1</ele>
        <time>2022-04-15T07:34:50Z</time>
      </trkpt>
      <trkpt lat="45.37081" lon="5.59789">
        <ele>341.2</ele>
        <time>2022-04-15T07:34:51Z</time>
      </trkpt>
      <trkpt lat="45.37079" lon="5.59793">
        <ele>341.4</ele>
        <time>2022-04-15T07:34:52Z</time>
      </trkpt>
      <trkpt lat="45.37079" lon="5.59795">
        <ele>341.5</ele>
        <time>2022-04-15T07:34:53Z</time>
      </trkpt>
      <trkpt lat="45.37077" lon="5.598">
        <ele>341.8</ele>
        <time>2022-04-15T07:34:55Z</time>
      </trkpt>
      <trkpt lat="45.37076" lon="5.59804">
        <ele>342</ele>
        <time>2022-04-15T07:34:56Z</time>
      </trkpt>
      <trkpt lat="45.37075" lon="5.59806">
        <ele>342.1</ele>
        <time>2022-04-15T07:34:57Z</time>
      </trkpt>
      <trkpt lat="45.37074" lon="5.59813">
        <ele>342.4</ele>
        <time>2022-04-15T07:34:59Z</time>
      </trkpt>
      <trkpt lat="45.37073" lon="5.59816">
        <ele>342.5</ele>
        <time>2022-04-15T07:35:01Z</time>
      </trkpt>
      <trkpt lat="45.37073" lon="5.59817">
        <ele>342.6</ele>
        <time>2022-04-15T07:35:02Z</time>
      </trkpt>
      <trkpt lat="45.37071" lon="5.59821">
        <ele>342.8</ele>
        <time>2022-04-15T07:35:03Z</time>
      </trkpt>
      <trkpt lat="45.37071" lon="5.59822">
        <ele>342.8</ele>
        <time>2022-04-15T07:35:04Z</time>
      </trkpt>
      <trkpt lat="45.3707" lon="5.59826">
        <ele>343</ele>
        <time>2022-04-15T07:35:05Z</time>
      </trkpt>
      <trkpt lat="45.3707" lon="5.59827">
        <ele>343</ele>
        <time>2022-04-15T07:35:06Z</time>
      </trkpt>
      <trkpt lat="45.37069" lon="5.59831">
        <ele>343.2</ele>
        <time>2022-04-15T07:35:07Z</time>
      </trkpt>
      <trkpt lat="45.37068" lon="5.59833">
        <ele>343.2</ele>
        <time>2022-04-15T07:35:08Z</time>
      </trkpt>
      <trkpt lat="45.37068" lon="5.59835">
        <ele>343.4</ele>
        <time>2022-04-15T07:35:09Z</time>
      </trkpt>
      <trkpt lat="45.37067" lon="5.59837">
        <ele>343.4</ele>
        <time>2022-04-15T07:35:10Z</time>
      </trkpt>
      <trkpt lat="45.37066" lon="5.59839">
        <ele>343.5</ele>
        <time>2022-04-15T07:35:11Z</time>
      </trkpt>
      <trkpt lat="45.37065" lon="5.59844">
        <ele>343.7</ele>
        <time>2022-04-15T07:35:13Z</time>
      </trkpt>
      <trkpt lat="45.37065" lon="5.59847">
        <ele>343.8</ele>
        <time>2022-04-15T07:35:14Z</time>
      </trkpt>
      <trkpt lat="45.37064" lon="5.59849">
        <ele>343.9</ele>
        <time>2022-04-15T07:35:15Z</time>
      </trkpt>
      <trkpt lat="45.37064" lon="5.59852">
        <ele>344</ele>
        <time>2022-04-15T07:35:16Z</time>
      </trkpt>
      <trkpt lat="45.37064" lon="5.59856">
        <ele>344.2</ele>
        <time>2022-04-15T07:35:18Z</time>
      </trkpt>
      <trkpt lat="45.37063" lon="5.59859">
        <ele>344.3</ele>
        <time>2022-04-15T07:35:19Z</time>
      </trkpt>
      <trkpt lat="45.37063" lon="5.5986">
        <ele>344.3</ele>
        <time>2022-04-15T07:35:20Z</time>
      </trkpt>
      <trkpt lat="45.37063" lon="5.59861">
        <ele>344.4</ele>
        <time>2022-04-15T07:35:21Z</time>
      </trkpt>
      <trkpt lat="45.37061" lon="5.59867">
        <ele>344.6</ele>
        <time>2022-04-15T07:35:22Z</time>
      </trkpt>
      <trkpt lat="45.3706" lon="5.5987">
        <ele>344.7</ele>
        <time>2022-04-15T07:35:23Z</time>
      </trkpt>
      <trkpt lat="45.37058" lon="5.59875">
        <ele>344.9</ele>
        <time>2022-04-15T07:35:25Z</time>
      </trkpt>
      <trkpt lat="45.37056" lon="5.59879">
        <ele>345</ele>
        <time>2022-04-15T07:35:26Z</time>
      </trkpt>
      <trkpt lat="45.37055" lon="5.59883">
        <ele>345.1</ele>
        <time>2022-04-15T07:35:27Z</time>
      </trkpt>
      <trkpt lat="45.37054" lon="5.59889">
        <ele>345.2</ele>
        <time>2022-04-15T07:35:28Z</time>
      </trkpt>
      <trkpt lat="45.37053" lon="5.59892">
        <ele>345.3</ele>
        <time>2022-04-15T07:35:29Z</time>
      </trkpt>
      <trkpt lat="45.37052" lon="5.59897">
        <ele>345.4</ele>
        <time>2022-04-15T07:35:30Z</time>
      </trkpt>
      <trkpt lat="45.3705" lon="5.59902">
        <ele>345.5</ele>
        <time>2022-04-15T07:35:31Z</time>
      </trkpt>
      <trkpt lat="45.37048" lon="5.5991">
        <ele>345.6</ele>
        <time>2022-04-15T07:35:33Z</time>
      </trkpt>
      <trkpt lat="45.37046" lon="5.59914">
        <ele>345.7</ele>
        <time>2022-04-15T07:35:35Z</time>
      </trkpt>
      <trkpt lat="45.37044" lon="5.59919">
        <ele>345.7</ele>
        <time>2022-04-15T07:35:36Z</time>
      </trkpt>
      <trkpt lat="45.37042" lon="5.59924">
        <ele>345.8</ele>
        <time>2022-04-15T07:35:37Z</time>
      </trkpt>
      <trkpt lat="45.3704" lon="5.59929">
        <ele>345.9</ele>
        <time>2022-04-15T07:35:38Z</time>
      </trkpt>
      <trkpt lat="45.37037" lon="5.59933">
        <ele>345.9</ele>
        <time>2022-04-15T07:35:39Z</time>
      </trkpt>
      <trkpt lat="45.37033" lon="5.5994">
        <ele>346</ele>
        <time>2022-04-15T07:35:41Z</time>
      </trkpt>
      <trkpt lat="45.37031" lon="5.59945">
        <ele>346.1</ele>
        <time>2022-04-15T07:35:43Z</time>
      </trkpt>
      <trkpt lat="45.37026" lon="5.59953">
        <ele>346.2</ele>
        <time>2022-04-15T07:35:45Z</time>
      </trkpt>
      <trkpt lat="45.37023" lon="5.5996">
        <ele>346.3</ele>
        <time>2022-04-15T07:35:46Z</time>
      </trkpt>
      <trkpt lat="45.37022" lon="5.59964">
        <ele>346.3</ele>
        <time>2022-04-15T07:35:47Z</time>
      </trkpt>
      <trkpt lat="45.37019" lon="5.59972">
        <ele>346.4</ele>
        <time>2022-04-15T07:35:49Z</time>
      </trkpt>
      <trkpt lat="45.37018" lon="5.59974">
        <ele>346.4</ele>
        <time>2022-04-15T07:35:50Z</time>
      </trkpt>
      <trkpt lat="45.37017" lon="5.59977">
        <ele>346.4</ele>
        <time>2022-04-15T07:35:51Z</time>
      </trkpt>
      <trkpt lat="45.37014" lon="5.59983">
        <ele>346.4</ele>
        <time>2022-04-15T07:35:52Z</time>
      </trkpt>
      <trkpt lat="45.37012" lon="5.59989">
        <ele>346.5</ele>
        <time>2022-04-15T07:35:53Z</time>
      </trkpt>
      <trkpt lat="45.3701" lon="5.59994">
        <ele>346.5</ele>
        <time>2022-04-15T07:35:55Z</time>
      </trkpt>
      <trkpt lat="45.37008" lon="5.59998">
        <ele>346.5</ele>
        <time>2022-04-15T07:35:56Z</time>
      </trkpt>
      <trkpt lat="45.37005" lon="5.60004">
        <ele>346.4</ele>
        <time>2022-04-15T07:35:57Z</time>
      </trkpt>
      <trkpt lat="45.37002" lon="5.60011">
        <ele>346.4</ele>
        <time>2022-04-15T07:35:59Z</time>
      </trkpt>
      <trkpt lat="45.36997" lon="5.6002">
        <ele>346.4</ele>
        <time>2022-04-15T07:36:01Z</time>
      </trkpt>
      <trkpt lat="45.36993" lon="5.60033">
        <ele>346.2</ele>
        <time>2022-04-15T07:36:03Z</time>
      </trkpt>
      <trkpt lat="45.36991" lon="5.6004">
        <ele>346.2</ele>
        <time>2022-04-15T07:36:04Z</time>
      </trkpt>
      <trkpt lat="45.3699" lon="5.60049">
        <ele>346</ele>
        <time>2022-04-15T07:36:05Z</time>
      </trkpt>
      <trkpt lat="45.36989" lon="5.60062">
        <ele>345.9</ele>
        <time>2022-04-15T07:36:07Z</time>
      </trkpt>
      <trkpt lat="45.36988" lon="5.60068">
        <ele>345.8</ele>
        <time>2022-04-15T07:36:08Z</time>
      </trkpt>
      <trkpt lat="45.36988" lon="5.60075">
        <ele>345.8</ele>
        <time>2022-04-15T07:36:09Z</time>
      </trkpt>
      <trkpt lat="45.36989" lon="5.60083">
        <ele>345.7</ele>
        <time>2022-04-15T07:36:10Z</time>
      </trkpt>
      <trkpt lat="45.36988" lon="5.6009">
        <ele>345.7</ele>
        <time>2022-04-15T07:36:11Z</time>
      </trkpt>
      <trkpt lat="45.36986" lon="5.60101">
        <ele>345.6</ele>
        <time>2022-04-15T07:36:13Z</time>
      </trkpt>
      <trkpt lat="45.36986" lon="5.60108">
        <ele>345.6</ele>
        <time>2022-04-15T07:36:14Z</time>
      </trkpt>
      <trkpt lat="45.36985" lon="5.60115">
        <ele>345.6</ele>
        <time>2022-04-15T07:36:15Z</time>
      </trkpt>
      <trkpt lat="45.36985" lon="5.60122">
        <ele>345.6</ele>
        <time>2022-04-15T07:36:16Z</time>
      </trkpt>
      <trkpt lat="45.36983" lon="5.60129">
        <ele>345.6</ele>
        <time>2022-04-15T07:36:17Z</time>
      </trkpt>
      <trkpt lat="45.36982" lon="5.60135">
        <ele>345.6</ele>
        <time>2022-04-15T07:36:18Z</time>
      </trkpt>
      <trkpt lat="45.3698" lon="5.60141">
        <ele>345.6</ele>
        <time>2022-04-15T07:36:19Z</time>
      </trkpt>
      <trkpt lat="45.36979" lon="5.60147">
        <ele>345.6</ele>
        <time>2022-04-15T07:36:20Z</time>
      </trkpt>
      <trkpt lat="45.36977" lon="5.60153">
        <ele>345.6</ele>
        <time>2022-04-15T07:36:21Z</time>
      </trkpt>
      <trkpt lat="45.36975" lon="5.6016">
        <ele>345.6</ele>
        <time>2022-04-15T07:36:22Z</time>
      </trkpt>
      <trkpt lat="45.36974" lon="5.60166">
        <ele>345.7</ele>
        <time>2022-04-15T07:36:23Z</time>
      </trkpt>
      <trkpt lat="45.36972" lon="5.6017">
        <ele>345.7</ele>
        <time>2022-04-15T07:36:24Z</time>
      </trkpt>
      <trkpt lat="45.36971" lon="5.60172">
        <ele>345.7</ele>
        <time>2022-04-15T07:36:25Z</time>
      </trkpt>
      <trkpt lat="45.3697" lon="5.6018">
        <ele>345.8</ele>
        <time>2022-04-15T07:36:26Z</time>
      </trkpt>
      <trkpt lat="45.36968" lon="5.60187">
        <ele>345.8</ele>
        <time>2022-04-15T07:36:27Z</time>
      </trkpt>
      <trkpt lat="45.36964" lon="5.60198">
        <ele>345.9</ele>
        <time>2022-04-15T07:36:28Z</time>
      </trkpt>
      <trkpt lat="45.36959" lon="5.60208">
        <ele>345.9</ele>
        <time>2022-04-15T07:36:30Z</time>
      </trkpt>
      <trkpt lat="45.36956" lon="5.60216">
        <ele>346</ele>
        <time>2022-04-15T07:36:32Z</time>
      </trkpt>
      <trkpt lat="45.36951" lon="5.60225">
        <ele>346.1</ele>
        <time>2022-04-15T07:36:34Z</time>
      </trkpt>
      <trkpt lat="45.36946" lon="5.60231">
        <ele>346.1</ele>
        <time>2022-04-15T07:36:36Z</time>
      </trkpt>
      <trkpt lat="45.36942" lon="5.60234">
        <ele>346.1</ele>
        <time>2022-04-15T07:36:37Z</time>
      </trkpt>
      <trkpt lat="45.36938" lon="5.60239">
        <ele>346.2</ele>
        <time>2022-04-15T07:36:38Z</time>
      </trkpt>
      <trkpt lat="45.36931" lon="5.60245">
        <ele>346.2</ele>
        <time>2022-04-15T07:36:40Z</time>
      </trkpt>
      <trkpt lat="45.36924" lon="5.6025">
        <ele>346.3</ele>
        <time>2022-04-15T07:36:41Z</time>
      </trkpt>
      <trkpt lat="45.3692" lon="5.60253">
        <ele>346.3</ele>
        <time>2022-04-15T07:36:43Z</time>
      </trkpt>
      <trkpt lat="45.36916" lon="5.60257">
        <ele>346.4</ele>
        <time>2022-04-15T07:36:44Z</time>
      </trkpt>
      <trkpt lat="45.36912" lon="5.6026">
        <ele>346.5</ele>
        <time>2022-04-15T07:36:45Z</time>
      </trkpt>
      <trkpt lat="45.36904" lon="5.60265">
        <ele>346.6</ele>
        <time>2022-04-15T07:36:47Z</time>
      </trkpt>
      <trkpt lat="45.36901" lon="5.60267">
        <ele>346.6</ele>
        <time>2022-04-15T07:36:48Z</time>
      </trkpt>
      <trkpt lat="45.36897" lon="5.60271">
        <ele>346.7</ele>
        <time>2022-04-15T07:36:49Z</time>
      </trkpt>
      <trkpt lat="45.36893" lon="5.60273">
        <ele>346.7</ele>
        <time>2022-04-15T07:36:50Z</time>
      </trkpt>
      <trkpt lat="45.3689" lon="5.60275">
        <ele>346.8</ele>
        <time>2022-04-15T07:36:51Z</time>
      </trkpt>
      <trkpt lat="45.36886" lon="5.60278">
        <ele>346.8</ele>
        <time>2022-04-15T07:36:52Z</time>
      </trkpt>
      <trkpt lat="45.36881" lon="5.60282">
        <ele>346.9</ele>
        <time>2022-04-15T07:36:53Z</time>
      </trkpt>
      <trkpt lat="45.36877" lon="5.60288">
        <ele>347</ele>
        <time>2022-04-15T07:36:54Z</time>
      </trkpt>
      <trkpt lat="45.36874" lon="5.60293">
        <ele>347</ele>
        <time>2022-04-15T07:36:56Z</time>
      </trkpt>
      <trkpt lat="45.36871" lon="5.60297">
        <ele>347.1</ele>
        <time>2022-04-15T07:36:57Z</time>
      </trkpt>
      <trkpt lat="45.36867" lon="5.60306">
        <ele>347.1</ele>
        <time>2022-04-15T07:36:59Z</time>
      </trkpt>
      <trkpt lat="45.36865" lon="5.6031">
        <ele>347.2</ele>
        <time>2022-04-15T07:37:00Z</time>
      </trkpt>
      <trkpt lat="45.36862" lon="5.60317">
        <ele>347.2</ele>
        <time>2022-04-15T07:37:01Z</time>
      </trkpt>
      <trkpt lat="45.36859" lon="5.60324">
        <ele>347.3</ele>
        <time>2022-04-15T07:37:03Z</time>
      </trkpt>
      <trkpt lat="45.36857" lon="5.60328">
        <ele>347.3</ele>
        <time>2022-04-15T07:37:04Z</time>
      </trkpt>
      <trkpt lat="45.36855" lon="5.60332">
        <ele>347.3</ele>
        <time>2022-04-15T07:37:05Z</time>
      </trkpt>
      <trkpt lat="45.36853" lon="5.60337">
        <ele>347.4</ele>
        <time>2022-04-15T07:37:06Z</time>
      </trkpt>
      <trkpt lat="45.36849" lon="5.60344">
        <ele>347.4</ele>
        <time>2022-04-15T07:37:07Z</time>
      </trkpt>
      <trkpt lat="45.36846" lon="5.60347">
        <ele>347.4</ele>
        <time>2022-04-15T07:37:08Z</time>
      </trkpt>
      <trkpt lat="45.36844" lon="5.6035">
        <ele>347.4</ele>
        <time>2022-04-15T07:37:10Z</time>
      </trkpt>
      <trkpt lat="45.36839" lon="5.60354">
        <ele>347.4</ele>
        <time>2022-04-15T07:37:11Z</time>
      </trkpt>
      <trkpt lat="45.36829" lon="5.60363">
        <ele>347.3</ele>
        <time>2022-04-15T07:37:13Z</time>
      </trkpt>
      <trkpt lat="45.36825" lon="5.60368">
        <ele>347.3</ele>
        <time>2022-04-15T07:37:14Z</time>
      </trkpt>
      <trkpt lat="45.36822" lon="5.60373">
        <ele>347.2</ele>
        <time>2022-04-15T07:37:15Z</time>
      </trkpt>
      <trkpt lat="45.36821" lon="5.60377">
        <ele>347.2</ele>
        <time>2022-04-15T07:37:16Z</time>
      </trkpt>
      <trkpt lat="45.36818" lon="5.60382">
        <ele>347.2</ele>
        <time>2022-04-15T07:37:17Z</time>
      </trkpt>
      <trkpt lat="45.36815" lon="5.60387">
        <ele>347.2</ele>
        <time>2022-04-15T07:37:18Z</time>
      </trkpt>
      <trkpt lat="45.36815" lon="5.60392">
        <ele>347.2</ele>
        <time>2022-04-15T07:37:19Z</time>
      </trkpt>
      <trkpt lat="45.36812" lon="5.60402">
        <ele>347.2</ele>
        <time>2022-04-15T07:37:21Z</time>
      </trkpt>
      <trkpt lat="45.36811" lon="5.60409">
        <ele>347.2</ele>
        <time>2022-04-15T07:37:22Z</time>
      </trkpt>
      <trkpt lat="45.36809" lon="5.60415">
        <ele>347.2</ele>
        <time>2022-04-15T07:37:23Z</time>
      </trkpt>
      <trkpt lat="45.36808" lon="5.60422">
        <ele>347.2</ele>
        <time>2022-04-15T07:37:24Z</time>
      </trkpt>
      <trkpt lat="45.36807" lon="5.60429">
        <ele>347.2</ele>
        <time>2022-04-15T07:37:25Z</time>
      </trkpt>
      <trkpt lat="45.36806" lon="5.60435">
        <ele>347.3</ele>
        <time>2022-04-15T07:37:26Z</time>
      </trkpt>
      <trkpt lat="45.36805" lon="5.6044">
        <ele>347.3</ele>
        <time>2022-04-15T07:37:27Z</time>
      </trkpt>
      <trkpt lat="45.36803" lon="5.60445">
        <ele>347.4</ele>
        <time>2022-04-15T07:37:28Z</time>
      </trkpt>
      <trkpt lat="45.36803" lon="5.60449">
        <ele>347.4</ele>
        <time>2022-04-15T07:37:29Z</time>
      </trkpt>
      <trkpt lat="45.36807" lon="5.60458">
        <ele>347.6</ele>
        <time>2022-04-15T07:37:30Z</time>
      </trkpt>
      <trkpt lat="45.36809" lon="5.60464">
        <ele>347.7</ele>
        <time>2022-04-15T07:37:31Z</time>
      </trkpt>
      <trkpt lat="45.36813" lon="5.60471">
        <ele>347.8</ele>
        <time>2022-04-15T07:37:33Z</time>
      </trkpt>
      <trkpt lat="45.36819" lon="5.60478">
        <ele>348.1</ele>
        <time>2022-04-15T07:37:35Z</time>
      </trkpt>
      <trkpt lat="45.36823" lon="5.60482">
        <ele>348.3</ele>
        <time>2022-04-15T07:37:36Z</time>
      </trkpt>
      <trkpt lat="45.36826" lon="5.60486">
        <ele>348.5</ele>
        <time>2022-04-15T07:37:37Z</time>
      </trkpt>
      <trkpt lat="45.36828" lon="5.60489">
        <ele>348.6</ele>
        <time>2022-04-15T07:37:38Z</time>
      </trkpt>
      <trkpt lat="45.36829" lon="5.60491">
        <ele>348.8</ele>
        <time>2022-04-15T07:37:40Z</time>
      </trkpt>
      <trkpt lat="45.3683" lon="5.60493">
        <ele>348.9</ele>
        <time>2022-04-15T07:37:41Z</time>
      </trkpt>
      <trkpt lat="45.36831" lon="5.60495">
        <ele>349</ele>
        <time>2022-04-15T07:37:42Z</time>
      </trkpt>
      <trkpt lat="45.36832" lon="5.60498">
        <ele>349.1</ele>
        <time>2022-04-15T07:37:43Z</time>
      </trkpt>
      <trkpt lat="45.36834" lon="5.60502">
        <ele>349.4</ele>
        <time>2022-04-15T07:37:45Z</time>
      </trkpt>
      <trkpt lat="45.36835" lon="5.60504">
        <ele>349.5</ele>
        <time>2022-04-15T07:37:46Z</time>
      </trkpt>
      <trkpt lat="45.36836" lon="5.60506">
        <ele>349.7</ele>
        <time>2022-04-15T07:37:47Z</time>
      </trkpt>
      <trkpt lat="45.36836" lon="5.60508">
        <ele>349.8</ele>
        <time>2022-04-15T07:37:48Z</time>
      </trkpt>
      <trkpt lat="45.36837" lon="5.6051">
        <ele>350</ele>
        <time>2022-04-15T07:37:49Z</time>
      </trkpt>
      <trkpt lat="45.3684" lon="5.60514">
        <ele>350.3</ele>
        <time>2022-04-15T07:37:51Z</time>
      </trkpt>
      <trkpt lat="45.36841" lon="5.60516">
        <ele>350.5</ele>
        <time>2022-04-15T07:37:52Z</time>
      </trkpt>
      <trkpt lat="45.36842" lon="5.60517">
        <ele>350.6</ele>
        <time>2022-04-15T07:37:53Z</time>
      </trkpt>
      <trkpt lat="45.36843" lon="5.60522">
        <ele>350.9</ele>
        <time>2022-04-15T07:37:55Z</time>
      </trkpt>
      <trkpt lat="45.36843" lon="5.60523">
        <ele>351</ele>
        <time>2022-04-15T07:37:56Z</time>
      </trkpt>
      <trkpt lat="45.36843" lon="5.60526">
        <ele>351.2</ele>
        <time>2022-04-15T07:37:57Z</time>
      </trkpt>
      <trkpt lat="45.36844" lon="5.60529">
        <ele>351.4</ele>
        <time>2022-04-15T07:37:59Z</time>
      </trkpt>
      <trkpt lat="45.36845" lon="5.60532">
        <ele>351.6</ele>
        <time>2022-04-15T07:38:00Z</time>
      </trkpt>
      <trkpt lat="45.36845" lon="5.60534">
        <ele>351.8</ele>
        <time>2022-04-15T07:38:02Z</time>
      </trkpt>
      <trkpt lat="45.36845" lon="5.60537">
        <ele>352</ele>
        <time>2022-04-15T07:38:03Z</time>
      </trkpt>
      <trkpt lat="45.36846" lon="5.60539">
        <ele>352.2</ele>
        <time>2022-04-15T07:38:04Z</time>
      </trkpt>
      <trkpt lat="45.36847" lon="5.60541">
        <ele>352.3</ele>
        <time>2022-04-15T07:38:05Z</time>
      </trkpt>
      <trkpt lat="45.36848" lon="5.60543">
        <ele>352.5</ele>
        <time>2022-04-15T07:38:06Z</time>
      </trkpt>
      <trkpt lat="45.36849" lon="5.60546">
        <ele>352.8</ele>
        <time>2022-04-15T07:38:07Z</time>
      </trkpt>
      <trkpt lat="45.36849" lon="5.60548">
        <ele>352.9</ele>
        <time>2022-04-15T07:38:08Z</time>
      </trkpt>
      <trkpt lat="45.3685" lon="5.6055">
        <ele>353</ele>
        <time>2022-04-15T07:38:09Z</time>
      </trkpt>
      <trkpt lat="45.3685" lon="5.60552">
        <ele>353.2</ele>
        <time>2022-04-15T07:38:10Z</time>
      </trkpt>
      <trkpt lat="45.36852" lon="5.60556">
        <ele>353.4</ele>
        <time>2022-04-15T07:38:11Z</time>
      </trkpt>
      <trkpt lat="45.36852" lon="5.60557">
        <ele>353.5</ele>
        <time>2022-04-15T07:38:12Z</time>
      </trkpt>
      <trkpt lat="45.36853" lon="5.60559">
        <ele>353.7</ele>
        <time>2022-04-15T07:38:13Z</time>
      </trkpt>
      <trkpt lat="45.36854" lon="5.60561">
        <ele>353.9</ele>
        <time>2022-04-15T07:38:14Z</time>
      </trkpt>
      <trkpt lat="45.36855" lon="5.60564">
        <ele>354.1</ele>
        <time>2022-04-15T07:38:15Z</time>
      </trkpt>
      <trkpt lat="45.36856" lon="5.60567">
        <ele>354.3</ele>
        <time>2022-04-15T07:38:16Z</time>
      </trkpt>
      <trkpt lat="45.36858" lon="5.6057">
        <ele>354.5</ele>
        <time>2022-04-15T07:38:18Z</time>
      </trkpt>
      <trkpt lat="45.3686" lon="5.60574">
        <ele>354.8</ele>
        <time>2022-04-15T07:38:19Z</time>
      </trkpt>
      <trkpt lat="45.36862" lon="5.60578">
        <ele>355.1</ele>
        <time>2022-04-15T07:38:21Z</time>
      </trkpt>
      <trkpt lat="45.36862" lon="5.60579">
        <ele>355.2</ele>
        <time>2022-04-15T07:38:22Z</time>
      </trkpt>
      <trkpt lat="45.36864" lon="5.60581">
        <ele>355.3</ele>
        <time>2022-04-15T07:38:23Z</time>
      </trkpt>
      <trkpt lat="45.36866" lon="5.60585">
        <ele>355.6</ele>
        <time>2022-04-15T07:38:25Z</time>
      </trkpt>
      <trkpt lat="45.36868" lon="5.60588">
        <ele>355.8</ele>
        <time>2022-04-15T07:38:26Z</time>
      </trkpt>
      <trkpt lat="45.36869" lon="5.60589">
        <ele>355.9</ele>
        <time>2022-04-15T07:38:27Z</time>
      </trkpt>
      <trkpt lat="45.3687" lon="5.60591">
        <ele>356</ele>
        <time>2022-04-15T07:38:28Z</time>
      </trkpt>
      <trkpt lat="45.36872" lon="5.60593">
        <ele>356.2</ele>
        <time>2022-04-15T07:38:29Z</time>
      </trkpt>
      <trkpt lat="45.36873" lon="5.60596">
        <ele>356.4</ele>
        <time>2022-04-15T07:38:30Z</time>
      </trkpt>
      <trkpt lat="45.36874" lon="5.60597">
        <ele>356.4</ele>
        <time>2022-04-15T07:38:31Z</time>
      </trkpt>
      <trkpt lat="45.36875" lon="5.60599">
        <ele>356.5</ele>
        <time>2022-04-15T07:38:32Z</time>
      </trkpt>
      <trkpt lat="45.36876" lon="5.60601">
        <ele>356.7</ele>
        <time>2022-04-15T07:38:33Z</time>
      </trkpt>
      <trkpt lat="45.36878" lon="5.60604">
        <ele>356.8</ele>
        <time>2022-04-15T07:38:34Z</time>
      </trkpt>
      <trkpt lat="45.36878" lon="5.60605">
        <ele>356.9</ele>
        <time>2022-04-15T07:38:35Z</time>
      </trkpt>
      <trkpt lat="45.36879" lon="5.60607">
        <ele>357</ele>
        <time>2022-04-15T07:38:36Z</time>
      </trkpt>
      <trkpt lat="45.3688" lon="5.60609">
        <ele>357.1</ele>
        <time>2022-04-15T07:38:37Z</time>
      </trkpt>
      <trkpt lat="45.36881" lon="5.60611">
        <ele>357.2</ele>
        <time>2022-04-15T07:38:38Z</time>
      </trkpt>
      <trkpt lat="45.36881" lon="5.60613">
        <ele>357.3</ele>
        <time>2022-04-15T07:38:39Z</time>
      </trkpt>
      <trkpt lat="45.36883" lon="5.60616">
        <ele>357.5</ele>
        <time>2022-04-15T07:38:40Z</time>
      </trkpt>
      <trkpt lat="45.36884" lon="5.60617">
        <ele>357.5</ele>
        <time>2022-04-15T07:38:41Z</time>
      </trkpt>
      <trkpt lat="45.36886" lon="5.6062">
        <ele>357.7</ele>
        <time>2022-04-15T07:38:42Z</time>
      </trkpt>
      <trkpt lat="45.36887" lon="5.60621">
        <ele>357.8</ele>
        <time>2022-04-15T07:38:43Z</time>
      </trkpt>
      <trkpt lat="45.36889" lon="5.60625">
        <ele>357.9</ele>
        <time>2022-04-15T07:38:44Z</time>
      </trkpt>
      <trkpt lat="45.36889" lon="5.60626">
        <ele>358</ele>
        <time>2022-04-15T07:38:45Z</time>
      </trkpt>
      <trkpt lat="45.36891" lon="5.60629">
        <ele>358.1</ele>
        <time>2022-04-15T07:38:46Z</time>
      </trkpt>
      <trkpt lat="45.36892" lon="5.6063">
        <ele>358.2</ele>
        <time>2022-04-15T07:38:47Z</time>
      </trkpt>
      <trkpt lat="45.36894" lon="5.60633">
        <ele>358.4</ele>
        <time>2022-04-15T07:38:48Z</time>
      </trkpt>
      <trkpt lat="45.36894" lon="5.60634">
        <ele>358.4</ele>
        <time>2022-04-15T07:38:49Z</time>
      </trkpt>
      <trkpt lat="45.36896" lon="5.60638">
        <ele>358.6</ele>
        <time>2022-04-15T07:38:50Z</time>
      </trkpt>
      <trkpt lat="45.36896" lon="5.60639">
        <ele>358.6</ele>
        <time>2022-04-15T07:38:51Z</time>
      </trkpt>
      <trkpt lat="45.36897" lon="5.60641">
        <ele>358.7</ele>
        <time>2022-04-15T07:38:52Z</time>
      </trkpt>
      <trkpt lat="45.36898" lon="5.60643">
        <ele>358.8</ele>
        <time>2022-04-15T07:38:53Z</time>
      </trkpt>
      <trkpt lat="45.369" lon="5.60647">
        <ele>359</ele>
        <time>2022-04-15T07:38:55Z</time>
      </trkpt>
      <trkpt lat="45.36902" lon="5.60651">
        <ele>359.1</ele>
        <time>2022-04-15T07:38:56Z</time>
      </trkpt>
      <trkpt lat="45.36902" lon="5.60652">
        <ele>359.2</ele>
        <time>2022-04-15T07:38:57Z</time>
      </trkpt>
      <trkpt lat="45.36904" lon="5.60656">
        <ele>359.4</ele>
        <time>2022-04-15T07:38:58Z</time>
      </trkpt>
      <trkpt lat="45.36904" lon="5.60657">
        <ele>359.4</ele>
        <time>2022-04-15T07:38:59Z</time>
      </trkpt>
      <trkpt lat="45.36906" lon="5.60662">
        <ele>359.6</ele>
        <time>2022-04-15T07:39:00Z</time>
      </trkpt>
      <trkpt lat="45.36907" lon="5.60663">
        <ele>359.6</ele>
        <time>2022-04-15T07:39:01Z</time>
      </trkpt>
      <trkpt lat="45.36909" lon="5.60667">
        <ele>359.8</ele>
        <time>2022-04-15T07:39:02Z</time>
      </trkpt>
      <trkpt lat="45.3691" lon="5.60671">
        <ele>360</ele>
        <time>2022-04-15T07:39:04Z</time>
      </trkpt>
      <trkpt lat="45.36911" lon="5.60673">
        <ele>360</ele>
        <time>2022-04-15T07:39:05Z</time>
      </trkpt>
      <trkpt lat="45.36914" lon="5.60677">
        <ele>360.2</ele>
        <time>2022-04-15T07:39:07Z</time>
      </trkpt>
      <trkpt lat="45.36916" lon="5.60682">
        <ele>360.4</ele>
        <time>2022-04-15T07:39:08Z</time>
      </trkpt>
      <trkpt lat="45.36916" lon="5.60684">
        <ele>360.5</ele>
        <time>2022-04-15T07:39:09Z</time>
      </trkpt>
      <trkpt lat="45.36919" lon="5.6069">
        <ele>360.8</ele>
        <time>2022-04-15T07:39:11Z</time>
      </trkpt>
      <trkpt lat="45.3692" lon="5.60694">
        <ele>360.9</ele>
        <time>2022-04-15T07:39:13Z</time>
      </trkpt>
      <trkpt lat="45.36921" lon="5.60699">
        <ele>361.1</ele>
        <time>2022-04-15T07:39:14Z</time>
      </trkpt>
      <trkpt lat="45.36922" lon="5.607">
        <ele>361.2</ele>
        <time>2022-04-15T07:39:15Z</time>
      </trkpt>
      <trkpt lat="45.36923" lon="5.60704">
        <ele>361.3</ele>
        <time>2022-04-15T07:39:16Z</time>
      </trkpt>
      <trkpt lat="45.36923" lon="5.60706">
        <ele>361.4</ele>
        <time>2022-04-15T07:39:17Z</time>
      </trkpt>
      <trkpt lat="45.36924" lon="5.60709">
        <ele>361.5</ele>
        <time>2022-04-15T07:39:19Z</time>
      </trkpt>
      <trkpt lat="45.36924" lon="5.60711">
        <ele>361.5</ele>
        <time>2022-04-15T07:39:20Z</time>
      </trkpt>
      <trkpt lat="45.36925" lon="5.60712">
        <ele>361.6</ele>
        <time>2022-04-15T07:39:21Z</time>
      </trkpt>
      <trkpt lat="45.36926" lon="5.60714">
        <ele>361.7</ele>
        <time>2022-04-15T07:39:22Z</time>
      </trkpt>
      <trkpt lat="45.36926" lon="5.60716">
        <ele>361.7</ele>
        <time>2022-04-15T07:39:23Z</time>
      </trkpt>
      <trkpt lat="45.36927" lon="5.6072">
        <ele>361.9</ele>
        <time>2022-04-15T07:39:24Z</time>
      </trkpt>
      <trkpt lat="45.36928" lon="5.60721">
        <ele>361.9</ele>
        <time>2022-04-15T07:39:25Z</time>
      </trkpt>
      <trkpt lat="45.36929" lon="5.60725">
        <ele>362.1</ele>
        <time>2022-04-15T07:39:26Z</time>
      </trkpt>
      <trkpt lat="45.36929" lon="5.60727">
        <ele>362.1</ele>
        <time>2022-04-15T07:39:27Z</time>
      </trkpt>
      <trkpt lat="45.36929" lon="5.60733">
        <ele>362.4</ele>
        <time>2022-04-15T07:39:29Z</time>
      </trkpt>
      <trkpt lat="45.3693" lon="5.60739">
        <ele>362.6</ele>
        <time>2022-04-15T07:39:31Z</time>
      </trkpt>
      <trkpt lat="45.3693" lon="5.60741">
        <ele>362.7</ele>
        <time>2022-04-15T07:39:32Z</time>
      </trkpt>
      <trkpt lat="45.3693" lon="5.60744">
        <ele>362.8</ele>
        <time>2022-04-15T07:39:33Z</time>
      </trkpt>
      <trkpt lat="45.3693" lon="5.60748">
        <ele>363</ele>
        <time>2022-04-15T07:39:34Z</time>
      </trkpt>
      <trkpt lat="45.3693" lon="5.6075">
        <ele>363.1</ele>
        <time>2022-04-15T07:39:35Z</time>
      </trkpt>
      <trkpt lat="45.3693" lon="5.60756">
        <ele>363.4</ele>
        <time>2022-04-15T07:39:37Z</time>
      </trkpt>
      <trkpt lat="45.36928" lon="5.6076">
        <ele>363.6</ele>
        <time>2022-04-15T07:39:39Z</time>
      </trkpt>
      <trkpt lat="45.36928" lon="5.60763">
        <ele>363.7</ele>
        <time>2022-04-15T07:39:40Z</time>
      </trkpt>
      <trkpt lat="45.36928" lon="5.60765">
        <ele>363.8</ele>
        <time>2022-04-15T07:39:41Z</time>
      </trkpt>
      <trkpt lat="45.36927" lon="5.6077">
        <ele>364</ele>
        <time>2022-04-15T07:39:42Z</time>
      </trkpt>
      <trkpt lat="45.36927" lon="5.60771">
        <ele>364.1</ele>
        <time>2022-04-15T07:39:43Z</time>
      </trkpt>
      <trkpt lat="45.36926" lon="5.60775">
        <ele>364.3</ele>
        <time>2022-04-15T07:39:44Z</time>
      </trkpt>
      <trkpt lat="45.36926" lon="5.60777">
        <ele>364.3</ele>
        <time>2022-04-15T07:39:45Z</time>
      </trkpt>
      <trkpt lat="45.36927" lon="5.6078">
        <ele>364.5</ele>
        <time>2022-04-15T07:39:46Z</time>
      </trkpt>
      <trkpt lat="45.36927" lon="5.60785">
        <ele>364.7</ele>
        <time>2022-04-15T07:39:48Z</time>
      </trkpt>
      <trkpt lat="45.36928" lon="5.60788">
        <ele>364.8</ele>
        <time>2022-04-15T07:39:49Z</time>
      </trkpt>
      <trkpt lat="45.36928" lon="5.60792">
        <ele>365</ele>
        <time>2022-04-15T07:39:51Z</time>
      </trkpt>
      <trkpt lat="45.36928" lon="5.60796">
        <ele>365.1</ele>
        <time>2022-04-15T07:39:52Z</time>
      </trkpt>
      <trkpt lat="45.36929" lon="5.60797">
        <ele>365.2</ele>
        <time>2022-04-15T07:39:54Z</time>
      </trkpt>
      <trkpt lat="45.36929" lon="5.60799">
        <ele>365.3</ele>
        <time>2022-04-15T07:39:55Z</time>
      </trkpt>
      <trkpt lat="45.36929" lon="5.60801">
        <ele>365.4</ele>
        <time>2022-04-15T07:39:56Z</time>
      </trkpt>
      <trkpt lat="45.36929" lon="5.60803">
        <ele>365.4</ele>
        <time>2022-04-15T07:39:57Z</time>
      </trkpt>
      <trkpt lat="45.36929" lon="5.60804">
        <ele>365.5</ele>
        <time>2022-04-15T07:39:58Z</time>
      </trkpt>
      <trkpt lat="45.36929" lon="5.60807">
        <ele>365.6</ele>
        <time>2022-04-15T07:39:59Z</time>
      </trkpt>
      <trkpt lat="45.36929" lon="5.60812">
        <ele>365.9</ele>
        <time>2022-04-15T07:40:01Z</time>
      </trkpt>
      <trkpt lat="45.36929" lon="5.60814">
        <ele>365.9</ele>
        <time>2022-04-15T07:40:02Z</time>
      </trkpt>
      <trkpt lat="45.36929" lon="5.60815">
        <ele>366</ele>
        <time>2022-04-15T07:40:03Z</time>
      </trkpt>
      <trkpt lat="45.36929" lon="5.60816">
        <ele>366.1</ele>
        <time>2022-04-15T07:40:04Z</time>
      </trkpt>
      <trkpt lat="45.3693" lon="5.60819">
        <ele>366.2</ele>
        <time>2022-04-15T07:40:05Z</time>
      </trkpt>
      <trkpt lat="45.3693" lon="5.60821">
        <ele>366.3</ele>
        <time>2022-04-15T07:40:06Z</time>
      </trkpt>
      <trkpt lat="45.3693" lon="5.60823">
        <ele>366.4</ele>
        <time>2022-04-15T07:40:07Z</time>
      </trkpt>
      <trkpt lat="45.3693" lon="5.60826">
        <ele>366.6</ele>
        <time>2022-04-15T07:40:08Z</time>
      </trkpt>
      <trkpt lat="45.3693" lon="5.60828">
        <ele>366.7</ele>
        <time>2022-04-15T07:40:09Z</time>
      </trkpt>
      <trkpt lat="45.3693" lon="5.60829">
        <ele>366.7</ele>
        <time>2022-04-15T07:40:10Z</time>
      </trkpt>
      <trkpt lat="45.3693" lon="5.60829">
        <ele>366.7</ele>
        <time>2022-04-15T07:40:11Z</time>
      </trkpt>
      <trkpt lat="45.3693" lon="5.60829">
        <ele>366.7</ele>
        <time>2022-04-15T07:40:12Z</time>
      </trkpt>
      <trkpt lat="45.3693" lon="5.60828">
        <ele>366.7</ele>
        <time>2022-04-15T07:40:13Z</time>
      </trkpt>
      <trkpt lat="45.3693" lon="5.60828">
        <ele>366.7</ele>
        <time>2022-04-15T07:40:14Z</time>
      </trkpt>
      <trkpt lat="45.3693" lon="5.60828">
        <ele>366.7</ele>
        <time>2022-04-15T07:40:15Z</time>
      </trkpt>
      <trkpt lat="45.3693" lon="5.60828">
        <ele>366.7</ele>
        <time>2022-04-15T07:40:16Z</time>
      </trkpt>
      <trkpt lat="45.3693" lon="5.60828">
        <ele>366.8</ele>
        <time>2022-04-15T07:40:17Z</time>
      </trkpt>
      <trkpt lat="45.3693" lon="5.60829">
        <ele>366.8</ele>
        <time>2022-04-15T07:40:19Z</time>
      </trkpt>
      <trkpt lat="45.3693" lon="5.60829">
        <ele>366.8</ele>
        <time>2022-04-15T07:40:20Z</time>
      </trkpt>
      <trkpt lat="45.3693" lon="5.60829">
        <ele>366.8</ele>
        <time>2022-04-15T07:40:21Z</time>
      </trkpt>
      <trkpt lat="45.3693" lon="5.60829">
        <ele>366.8</ele>
        <time>2022-04-15T07:40:22Z</time>
      </trkpt>
      <trkpt lat="45.3693" lon="5.6083">
        <ele>366.8</ele>
        <time>2022-04-15T07:40:23Z</time>
      </trkpt>
      <trkpt lat="45.3693" lon="5.6083">
        <ele>366.9</ele>
        <time>2022-04-15T07:40:24Z</time>
      </trkpt>
      <trkpt lat="45.3693" lon="5.60831">
        <ele>366.9</ele>
        <time>2022-04-15T07:40:25Z</time>
      </trkpt>
      <trkpt lat="45.3693" lon="5.60832">
        <ele>367</ele>
        <time>2022-04-15T07:40:26Z</time>
      </trkpt>
      <trkpt lat="45.3693" lon="5.60832">
        <ele>367</ele>
        <time>2022-04-15T07:40:27Z</time>
      </trkpt>
      <trkpt lat="45.3693" lon="5.60832">
        <ele>367</ele>
        <time>2022-04-15T07:40:28Z</time>
      </trkpt>
      <trkpt lat="45.3693" lon="5.60832">
        <ele>367</ele>
        <time>2022-04-15T07:40:29Z</time>
      </trkpt>
      <trkpt lat="45.3693" lon="5.60832">
        <ele>367</ele>
        <time>2022-04-15T07:40:30Z</time>
      </trkpt>
      <trkpt lat="45.3693" lon="5.60832">
        <ele>367</ele>
        <time>2022-04-15T07:40:31Z</time>
      </trkpt>
      <trkpt lat="45.3693" lon="5.60832">
        <ele>367</ele>
        <time>2022-04-15T07:40:32Z</time>
      </trkpt>
      <trkpt lat="45.3693" lon="5.60832">
        <ele>367</ele>
        <time>2022-04-15T07:40:33Z</time>
      </trkpt>
      <trkpt lat="45.3693" lon="5.60832">
        <ele>367</ele>
        <time>2022-04-15T07:40:34Z</time>
      </trkpt>
      <trkpt lat="45.3693" lon="5.60832">
        <ele>367</ele>
        <time>2022-04-15T07:40:35Z</time>
      </trkpt>
      <trkpt lat="45.3693" lon="5.60832">
        <ele>367</ele>
        <time>2022-04-15T07:40:36Z</time>
      </trkpt>
      <trkpt lat="45.3693" lon="5.60832">
        <ele>367</ele>
        <time>2022-04-15T07:40:37Z</time>
      </trkpt>
      <trkpt lat="45.3693" lon="5.60832">
        <ele>367</ele>
        <time>2022-04-15T07:40:38Z</time>
      </trkpt>
      <trkpt lat="45.3693" lon="5.60832">
        <ele>367</ele>
        <time>2022-04-15T07:40:39Z</time>
      </trkpt>
      <trkpt lat="45.3693" lon="5.60832">
        <ele>367</ele>
        <time>2022-04-15T07:40:40Z</time>
      </trkpt>
      <trkpt lat="45.3693" lon="5.60832">
        <ele>367</ele>
        <time>2022-04-15T07:40:41Z</time>
      </trkpt>
      <trkpt lat="45.3693" lon="5.60832">
        <ele>367</ele>
        <time>2022-04-15T07:40:42Z</time>
      </trkpt>
      <trkpt lat="45.3693" lon="5.60832">
        <ele>367</ele>
        <time>2022-04-15T07:40:43Z</time>
      </trkpt>
      <trkpt lat="45.3693" lon="5.60832">
        <ele>367</ele>
        <time>2022-04-15T07:40:44Z</time>
      </trkpt>
      <trkpt lat="45.3693" lon="5.60832">
        <ele>367</ele>
        <time>2022-04-15T07:40:45Z</time>
      </trkpt>
      <trkpt lat="45.3693" lon="5.60832">
        <ele>367</ele>
        <time>2022-04-15T07:40:46Z</time>
      </trkpt>
      <trkpt lat="45.3693" lon="5.60832">
        <ele>367</ele>
        <time>2022-04-15T07:40:47Z</time>
      </trkpt>
      <trkpt lat="45.3693" lon="5.60832">
        <ele>367</ele>
        <time>2022-04-15T07:40:48Z</time>
      </trkpt>
      <trkpt lat="45.3693" lon="5.60832">
        <ele>367</ele>
        <time>2022-04-15T07:40:49Z</time>
      </trkpt>
      <trkpt lat="45.3693" lon="5.60832">
        <ele>367</ele>
        <time>2022-04-15T07:40:50Z</time>
      </trkpt>
      <trkpt lat="45.3693" lon="5.60832">
        <ele>367</ele>
        <time>2022-04-15T07:40:51Z</time>
      </trkpt>
      <trkpt lat="45.3693" lon="5.60832">
        <ele>367</ele>
        <time>2022-04-15T07:40:52Z</time>
      </trkpt>
      <trkpt lat="45.3693" lon="5.60832">
        <ele>367</ele>
        <time>2022-04-15T07:40:53Z</time>
      </trkpt>
      <trkpt lat="45.3693" lon="5.60832">
        <ele>367</ele>
        <time>2022-04-15T07:40:54Z</time>
      </trkpt>
      <trkpt lat="45.3693" lon="5.60832">
        <ele>367</ele>
        <time>2022-04-15T07:40:55Z</time>
      </trkpt>
      <trkpt lat="45.3693" lon="5.60832">
        <ele>367</ele>
        <time>2022-04-15T07:40:56Z</time>
      </trkpt>
      <trkpt lat="45.3693" lon="5.60832">
        <ele>367</ele>
        <time>2022-04-15T07:40:57Z</time>
      </trkpt>
      <trkpt lat="45.3693" lon="5.60832">
        <ele>367</ele>
        <time>2022-04-15T07:40:58Z</time>
      </trkpt>
      <trkpt lat="45.3693" lon="5.60832">
        <ele>367</ele>
        <time>2022-04-15T07:40:59Z</time>
      </trkpt>
      <trkpt lat="45.3693" lon="5.60832">
        <ele>367</ele>
        <time>2022-04-15T07:41:00Z</time>
      </trkpt>
      <trkpt lat="45.3693" lon="5.60832">
        <ele>367</ele>
        <time>2022-04-15T07:41:01Z</time>
      </trkpt>
      <trkpt lat="45.3693" lon="5.60832">
        <ele>367</ele>
        <time>2022-04-15T07:41:02Z</time>
      </trkpt>
      <trkpt lat="45.3693" lon="5.60832">
        <ele>367</ele>
        <time>2022-04-15T07:41:03Z</time>
      </trkpt>
      <trkpt lat="45.3693" lon="5.60832">
        <ele>367</ele>
        <time>2022-04-15T07:41:04Z</time>
      </trkpt>
      <trkpt lat="45.3693" lon="5.60832">
        <ele>367</ele>
        <time>2022-04-15T07:41:05Z</time>
      </trkpt>
      <trkpt lat="45.3693" lon="5.60832">
        <ele>367</ele>
        <time>2022-04-15T07:41:06Z</time>
      </trkpt>
      <trkpt lat="45.3693" lon="5.60832">
        <ele>367</ele>
        <time>2022-04-15T07:41:07Z</time>
      </trkpt>
      <trkpt lat="45.3693" lon="5.60832">
        <ele>367</ele>
        <time>2022-04-15T07:41:08Z</time>
      </trkpt>
      <trkpt lat="45.3693" lon="5.60832">
        <ele>367</ele>
        <time>2022-04-15T07:41:09Z</time>
      </trkpt>
      <trkpt lat="45.3693" lon="5.60832">
        <ele>367</ele>
        <time>2022-04-15T07:41:10Z</time>
      </trkpt>
      <trkpt lat="45.3693" lon="5.60832">
        <ele>367</ele>
        <time>2022-04-15T07:41:11Z</time>
      </trkpt>
      <trkpt lat="45.3693" lon="5.60832">
        <ele>367</ele>
        <time>2022-04-15T07:41:12Z</time>
      </trkpt>
      <trkpt lat="45.3693" lon="5.60832">
        <ele>367</ele>
        <time>2022-04-15T07:41:13Z</time>
      </trkpt>
      <trkpt lat="45.3693" lon="5.60832">
        <ele>367</ele>
        <time>2022-04-15T07:41:14Z</time>
      </trkpt>
      <trkpt lat="45.3693" lon="5.60832">
        <ele>367</ele>
        <time>2022-04-15T07:41:15Z</time>
      </trkpt>
      <trkpt lat="45.3693" lon="5.60832">
        <ele>367</ele>
        <time>2022-04-15T07:41:16Z</time>
      </trkpt>
      <trkpt lat="45.3693" lon="5.60832">
        <ele>367</ele>
        <time>2022-04-15T07:41:17Z</time>
      </trkpt>
      <trkpt lat="45.3693" lon="5.60832">
        <ele>367</ele>
        <time>2022-04-15T07:41:18Z</time>
      </trkpt>
      <trkpt lat="45.3693" lon="5.60832">
        <ele>367</ele>
        <time>2022-04-15T07:41:19Z</time>
      </trkpt>
      <trkpt lat="45.3693" lon="5.60832">
        <ele>367</ele>
        <time>2022-04-15T07:41:20Z</time>
      </trkpt>
      <trkpt lat="45.3693" lon="5.60832">
        <ele>367</ele>
        <time>2022-04-15T07:41:21Z</time>
      </trkpt>
      <trkpt lat="45.3693" lon="5.60832">
        <ele>367</ele>
        <time>2022-04-15T07:41:22Z</time>
      </trkpt>
      <trkpt lat="45.3693" lon="5.60832">
        <ele>367</ele>
        <time>2022-04-15T07:41:23Z</time>
      </trkpt>
      <trkpt lat="45.3693" lon="5.60832">
        <ele>367</ele>
        <time>2022-04-15T07:41:24Z</time>
      </trkpt>
      <trkpt lat="45.3693" lon="5.60832">
        <ele>367</ele>
        <time>2022-04-15T07:41:25Z</time>
      </trkpt>
      <trkpt lat="45.3693" lon="5.60832">
        <ele>367</ele>
        <time>2022-04-15T07:41:26Z</time>
      </trkpt>
      <trkpt lat="45.3693" lon="5.60832">
        <ele>367</ele>
        <time>2022-04-15T07:41:27Z</time>
      </trkpt>
      <trkpt lat="45.3693" lon="5.60832">
        <ele>367</ele>
        <time>2022-04-15T07:41:28Z</time>
      </trkpt>
      <trkpt lat="45.3693" lon="5.60832">
        <ele>367</ele>
        <time>2022-04-15T07:41:29Z</time>
      </trkpt>
      <trkpt lat="45.3693" lon="5.60832">
        <ele>367</ele>
        <time>2022-04-15T07:41:30Z</time>
      </trkpt>
      <trkpt lat="45.3693" lon="5.60832">
        <ele>367</ele>
        <time>2022-04-15T07:41:31Z</time>
      </trkpt>
      <trkpt lat="45.3693" lon="5.60832">
        <ele>367</ele>
        <time>2022-04-15T07:41:32Z</time>
      </trkpt>
      <trkpt lat="45.3693" lon="5.60832">
        <ele>367</ele>
        <time>2022-04-15T07:41:33Z</time>
      </trkpt>
      <trkpt lat="45.3693" lon="5.60832">
        <ele>367</ele>
        <time>2022-04-15T07:41:34Z</time>
      </trkpt>
      <trkpt lat="45.3693" lon="5.60832">
        <ele>367</ele>
        <time>2022-04-15T07:41:35Z</time>
      </trkpt>
      <trkpt lat="45.3693" lon="5.60832">
        <ele>367</ele>
        <time>2022-04-15T07:41:36Z</time>
      </trkpt>
      <trkpt lat="45.3693" lon="5.60832">
        <ele>367</ele>
        <time>2022-04-15T07:41:37Z</time>
      </trkpt>
      <trkpt lat="45.3693" lon="5.60832">
        <ele>367</ele>
        <time>2022-04-15T07:41:38Z</time>
      </trkpt>
      <trkpt lat="45.3693" lon="5.60832">
        <ele>367</ele>
        <time>2022-04-15T07:41:39Z</time>
      </trkpt>
      <trkpt lat="45.3693" lon="5.60832">
        <ele>367</ele>
        <time>2022-04-15T07:41:40Z</time>
      </trkpt>
      <trkpt lat="45.3693" lon="5.60831">
        <ele>367</ele>
        <time>2022-04-15T07:41:41Z</time>
      </trkpt>
      <trkpt lat="45.36931" lon="5.60831">
        <ele>367.1</ele>
        <time>2022-04-15T07:41:42Z</time>
      </trkpt>
      <trkpt lat="45.36931" lon="5.60831">
        <ele>367.1</ele>
        <time>2022-04-15T07:41:43Z</time>
      </trkpt>
      <trkpt lat="45.36931" lon="5.60831">
        <ele>367.1</ele>
        <time>2022-04-15T07:41:44Z</time>
      </trkpt>
      <trkpt lat="45.3693" lon="5.60831">
        <ele>367.1</ele>
        <time>2022-04-15T07:41:45Z</time>
      </trkpt>
      <trkpt lat="45.3693" lon="5.6083">
        <ele>367.1</ele>
        <time>2022-04-15T07:41:46Z</time>
      </trkpt>
      <trkpt lat="45.3693" lon="5.6083">
        <ele>367.1</ele>
        <time>2022-04-15T07:41:47Z</time>
      </trkpt>
      <trkpt lat="45.3693" lon="5.6083">
        <ele>367.1</ele>
        <time>2022-04-15T07:41:48Z</time>
      </trkpt>
      <trkpt lat="45.3693" lon="5.6083">
        <ele>367.2</ele>
        <time>2022-04-15T07:41:49Z</time>
      </trkpt>
      <trkpt lat="45.3693" lon="5.6083">
        <ele>367.2</ele>
        <time>2022-04-15T07:41:50Z</time>
      </trkpt>
      <trkpt lat="45.3693" lon="5.60829">
        <ele>367.2</ele>
        <time>2022-04-15T07:41:51Z</time>
      </trkpt>
      <trkpt lat="45.3693" lon="5.60829">
        <ele>367.2</ele>
        <time>2022-04-15T07:41:52Z</time>
      </trkpt>
      <trkpt lat="45.36931" lon="5.60829">
        <ele>367.2</ele>
        <time>2022-04-15T07:41:53Z</time>
      </trkpt>
      <trkpt lat="45.36931" lon="5.60829">
        <ele>367.2</ele>
        <time>2022-04-15T07:41:54Z</time>
      </trkpt>
      <trkpt lat="45.36931" lon="5.60829">
        <ele>367.2</ele>
        <time>2022-04-15T07:41:55Z</time>
      </trkpt>
      <trkpt lat="45.36931" lon="5.60829">
        <ele>367.3</ele>
        <time>2022-04-15T07:41:56Z</time>
      </trkpt>
      <trkpt lat="45.36931" lon="5.60829">
        <ele>367.3</ele>
        <time>2022-04-15T07:41:57Z</time>
      </trkpt>
      <trkpt lat="45.36931" lon="5.60829">
        <ele>367.3</ele>
        <time>2022-04-15T07:41:58Z</time>
      </trkpt>
      <trkpt lat="45.36931" lon="5.60829">
        <ele>367.3</ele>
        <time>2022-04-15T07:41:59Z</time>
      </trkpt>
      <trkpt lat="45.36931" lon="5.60829">
        <ele>367.3</ele>
        <time>2022-04-15T07:42:00Z</time>
      </trkpt>
      <trkpt lat="45.36931" lon="5.60829">
        <ele>367.3</ele>
        <time>2022-04-15T07:42:01Z</time>
      </trkpt>
      <trkpt lat="45.36931" lon="5.60829">
        <ele>367.3</ele>
        <time>2022-04-15T07:42:02Z</time>
      </trkpt>
      <trkpt lat="45.36931" lon="5.60829">
        <ele>367.3</ele>
        <time>2022-04-15T07:42:03Z</time>
      </trkpt>
      <trkpt lat="45.36931" lon="5.60829">
        <ele>367.3</ele>
        <time>2022-04-15T07:42:04Z</time>
      </trkpt>
      <trkpt lat="45.36931" lon="5.60829">
        <ele>367.3</ele>
        <time>2022-04-15T07:42:05Z</time>
      </trkpt>
      <trkpt lat="45.36931" lon="5.60829">
        <ele>367.3</ele>
        <time>2022-04-15T07:42:06Z</time>
      </trkpt>
      <trkpt lat="45.36931" lon="5.60829">
        <ele>367.3</ele>
        <time>2022-04-15T07:42:07Z</time>
      </trkpt>
      <trkpt lat="45.36931" lon="5.6083">
        <ele>367.3</ele>
        <time>2022-04-15T07:42:08Z</time>
      </trkpt>
      <trkpt lat="45.36931" lon="5.6083">
        <ele>367.3</ele>
        <time>2022-04-15T07:42:09Z</time>
      </trkpt>
      <trkpt lat="45.36931" lon="5.6083">
        <ele>367.3</ele>
        <time>2022-04-15T07:42:10Z</time>
      </trkpt>
      <trkpt lat="45.36931" lon="5.6083">
        <ele>367.4</ele>
        <time>2022-04-15T07:42:11Z</time>
      </trkpt>
      <trkpt lat="45.3693" lon="5.6083">
        <ele>367.4</ele>
        <time>2022-04-15T07:42:12Z</time>
      </trkpt>
      <trkpt lat="45.3693" lon="5.60831">
        <ele>367.4</ele>
        <time>2022-04-15T07:42:13Z</time>
      </trkpt>
      <trkpt lat="45.3693" lon="5.60831">
        <ele>367.4</ele>
        <time>2022-04-15T07:42:14Z</time>
      </trkpt>
      <trkpt lat="45.3693" lon="5.60831">
        <ele>367.4</ele>
        <time>2022-04-15T07:42:15Z</time>
      </trkpt>
      <trkpt lat="45.3693" lon="5.60831">
        <ele>367.4</ele>
        <time>2022-04-15T07:42:16Z</time>
      </trkpt>
      <trkpt lat="45.3693" lon="5.60831">
        <ele>367.4</ele>
        <time>2022-04-15T07:42:17Z</time>
      </trkpt>
      <trkpt lat="45.3693" lon="5.60831">
        <ele>367.4</ele>
        <time>2022-04-15T07:42:18Z</time>
      </trkpt>
      <trkpt lat="45.3693" lon="5.60831">
        <ele>367.4</ele>
        <time>2022-04-15T07:42:19Z</time>
      </trkpt>
      <trkpt lat="45.3693" lon="5.60831">
        <ele>367.4</ele>
        <time>2022-04-15T07:42:20Z</time>
      </trkpt>
      <trkpt lat="45.3693" lon="5.60831">
        <ele>367.4</ele>
        <time>2022-04-15T07:42:21Z</time>
      </trkpt>
      <trkpt lat="45.3693" lon="5.60831">
        <ele>367.4</ele>
        <time>2022-04-15T07:42:22Z</time>
      </trkpt>
      <trkpt lat="45.3693" lon="5.60831">
        <ele>367.4</ele>
        <time>2022-04-15T07:42:23Z</time>
      </trkpt>
      <trkpt lat="45.3693" lon="5.60831">
        <ele>367.4</ele>
        <time>2022-04-15T07:42:24Z</time>
      </trkpt>
      <trkpt lat="45.3693" lon="5.60831">
        <ele>367.4</ele>
        <time>2022-04-15T07:42:25Z</time>
      </trkpt>
      <trkpt lat="45.3693" lon="5.60831">
        <ele>367.4</ele>
        <time>2022-04-15T07:42:27Z</time>
      </trkpt>
      <trkpt lat="45.3693" lon="5.60831">
        <ele>367.5</ele>
        <time>2022-04-15T07:42:28Z</time>
      </trkpt>
      <trkpt lat="45.3693" lon="5.60831">
        <ele>367.5</ele>
        <time>2022-04-15T07:42:30Z</time>
      </trkpt>
      <trkpt lat="45.3693" lon="5.6083">
        <ele>367.5</ele>
        <time>2022-04-15T07:42:31Z</time>
      </trkpt>
      <trkpt lat="45.36931" lon="5.6083">
        <ele>367.5</ele>
        <time>2022-04-15T07:42:32Z</time>
      </trkpt>
      <trkpt lat="45.36931" lon="5.6083">
        <ele>367.6</ele>
        <time>2022-04-15T07:42:33Z</time>
      </trkpt>
      <trkpt lat="45.36931" lon="5.6083">
        <ele>367.6</ele>
        <time>2022-04-15T07:42:34Z</time>
      </trkpt>
      <trkpt lat="45.36932" lon="5.60829">
        <ele>367.6</ele>
        <time>2022-04-15T07:42:35Z</time>
      </trkpt>
      <trkpt lat="45.36933" lon="5.60829">
        <ele>367.7</ele>
        <time>2022-04-15T07:42:36Z</time>
      </trkpt>
      <trkpt lat="45.36933" lon="5.60828">
        <ele>367.7</ele>
        <time>2022-04-15T07:42:37Z</time>
      </trkpt>
      <trkpt lat="45.36933" lon="5.60828">
        <ele>367.7</ele>
        <time>2022-04-15T07:42:39Z</time>
      </trkpt>
      <trkpt lat="45.36934" lon="5.60828">
        <ele>367.8</ele>
        <time>2022-04-15T07:42:40Z</time>
      </trkpt>
      <trkpt lat="45.36934" lon="5.60828">
        <ele>367.8</ele>
        <time>2022-04-15T07:42:42Z</time>
      </trkpt>
      <trkpt lat="45.36935" lon="5.60828">
        <ele>367.8</ele>
        <time>2022-04-15T07:42:43Z</time>
      </trkpt>
      <trkpt lat="45.36935" lon="5.60828">
        <ele>367.9</ele>
        <time>2022-04-15T07:42:44Z</time>
      </trkpt>
      <trkpt lat="45.36935" lon="5.60828">
        <ele>367.9</ele>
        <time>2022-04-15T07:42:45Z</time>
      </trkpt>
      <trkpt lat="45.36935" lon="5.60828">
        <ele>367.9</ele>
        <time>2022-04-15T07:42:46Z</time>
      </trkpt>
      <trkpt lat="45.36935" lon="5.60827">
        <ele>367.9</ele>
        <time>2022-04-15T07:42:47Z</time>
      </trkpt>
      <trkpt lat="45.36935" lon="5.60827">
        <ele>367.9</ele>
        <time>2022-04-15T07:42:48Z</time>
      </trkpt>
      <trkpt lat="45.36935" lon="5.60827">
        <ele>367.9</ele>
        <time>2022-04-15T07:42:49Z</time>
      </trkpt>
      <trkpt lat="45.36935" lon="5.60827">
        <ele>367.9</ele>
        <time>2022-04-15T07:42:50Z</time>
      </trkpt>
      <trkpt lat="45.36935" lon="5.60827">
        <ele>367.9</ele>
        <time>2022-04-15T07:42:51Z</time>
      </trkpt>
      <trkpt lat="45.36935" lon="5.60827">
        <ele>367.9</ele>
        <time>2022-04-15T07:42:52Z</time>
      </trkpt>
      <trkpt lat="45.36935" lon="5.60828">
        <ele>368</ele>
        <time>2022-04-15T07:42:53Z</time>
      </trkpt>
      <trkpt lat="45.36936" lon="5.60827">
        <ele>368</ele>
        <time>2022-04-15T07:42:54Z</time>
      </trkpt>
      <trkpt lat="45.36936" lon="5.60827">
        <ele>368</ele>
        <time>2022-04-15T07:42:55Z</time>
      </trkpt>
      <trkpt lat="45.36936" lon="5.60827">
        <ele>368</ele>
        <time>2022-04-15T07:42:56Z</time>
      </trkpt>
      <trkpt lat="45.36937" lon="5.60828">
        <ele>368.1</ele>
        <time>2022-04-15T07:42:57Z</time>
      </trkpt>
      <trkpt lat="45.36937" lon="5.60829">
        <ele>368.1</ele>
        <time>2022-04-15T07:42:58Z</time>
      </trkpt>
      <trkpt lat="45.36936" lon="5.60831">
        <ele>368.2</ele>
        <time>2022-04-15T07:42:59Z</time>
      </trkpt>
      <trkpt lat="45.36937" lon="5.60832">
        <ele>368.2</ele>
        <time>2022-04-15T07:43:00Z</time>
      </trkpt>
      <trkpt lat="45.36936" lon="5.60833">
        <ele>368.3</ele>
        <time>2022-04-15T07:43:01Z</time>
      </trkpt>
      <trkpt lat="45.36936" lon="5.60835">
        <ele>368.4</ele>
        <time>2022-04-15T07:43:02Z</time>
      </trkpt>
      <trkpt lat="45.36936" lon="5.60836">
        <ele>368.4</ele>
        <time>2022-04-15T07:43:03Z</time>
      </trkpt>
      <trkpt lat="45.36936" lon="5.60837">
        <ele>368.4</ele>
        <time>2022-04-15T07:43:04Z</time>
      </trkpt>
      <trkpt lat="45.36936" lon="5.60838">
        <ele>368.5</ele>
        <time>2022-04-15T07:43:05Z</time>
      </trkpt>
      <trkpt lat="45.36936" lon="5.60838">
        <ele>368.5</ele>
        <time>2022-04-15T07:43:06Z</time>
      </trkpt>
      <trkpt lat="45.36937" lon="5.60838">
        <ele>368.5</ele>
        <time>2022-04-15T07:43:07Z</time>
      </trkpt>
      <trkpt lat="45.36936" lon="5.60839">
        <ele>368.5</ele>
        <time>2022-04-15T07:43:08Z</time>
      </trkpt>
      <trkpt lat="45.36936" lon="5.60839">
        <ele>368.5</ele>
        <time>2022-04-15T07:43:09Z</time>
      </trkpt>
      <trkpt lat="45.36937" lon="5.60839">
        <ele>368.5</ele>
        <time>2022-04-15T07:43:10Z</time>
      </trkpt>
      <trkpt lat="45.36937" lon="5.6084">
        <ele>368.6</ele>
        <time>2022-04-15T07:43:11Z</time>
      </trkpt>
      <trkpt lat="45.36937" lon="5.60841">
        <ele>368.6</ele>
        <time>2022-04-15T07:43:12Z</time>
      </trkpt>
      <trkpt lat="45.36937" lon="5.60842">
        <ele>368.6</ele>
        <time>2022-04-15T07:43:13Z</time>
      </trkpt>
      <trkpt lat="45.36938" lon="5.60844">
        <ele>368.8</ele>
        <time>2022-04-15T07:43:14Z</time>
      </trkpt>
      <trkpt lat="45.36938" lon="5.60848">
        <ele>369</ele>
        <time>2022-04-15T07:43:15Z</time>
      </trkpt>
      <trkpt lat="45.36939" lon="5.60849">
        <ele>369.1</ele>
        <time>2022-04-15T07:43:16Z</time>
      </trkpt>
      <trkpt lat="45.36939" lon="5.60854">
        <ele>369.3</ele>
        <time>2022-04-15T07:43:17Z</time>
      </trkpt>
      <trkpt lat="45.36939" lon="5.60856">
        <ele>369.3</ele>
        <time>2022-04-15T07:43:18Z</time>
      </trkpt>
      <trkpt lat="45.3694" lon="5.60861">
        <ele>369.6</ele>
        <time>2022-04-15T07:43:19Z</time>
      </trkpt>
      <trkpt lat="45.3694" lon="5.60863">
        <ele>369.6</ele>
        <time>2022-04-15T07:43:20Z</time>
      </trkpt>
      <trkpt lat="45.3694" lon="5.60869">
        <ele>369.9</ele>
        <time>2022-04-15T07:43:22Z</time>
      </trkpt>
      <trkpt lat="45.3694" lon="5.60872">
        <ele>370.1</ele>
        <time>2022-04-15T07:43:23Z</time>
      </trkpt>
      <trkpt lat="45.36939" lon="5.60877">
        <ele>370.3</ele>
        <time>2022-04-15T07:43:25Z</time>
      </trkpt>
      <trkpt lat="45.36939" lon="5.60878">
        <ele>370.4</ele>
        <time>2022-04-15T07:43:26Z</time>
      </trkpt>
      <trkpt lat="45.36939" lon="5.60881">
        <ele>370.5</ele>
        <time>2022-04-15T07:43:27Z</time>
      </trkpt>
      <trkpt lat="45.3694" lon="5.60884">
        <ele>370.7</ele>
        <time>2022-04-15T07:43:28Z</time>
      </trkpt>
      <trkpt lat="45.36941" lon="5.60885">
        <ele>370.7</ele>
        <time>2022-04-15T07:43:29Z</time>
      </trkpt>
      <trkpt lat="45.36942" lon="5.60889">
        <ele>371</ele>
        <time>2022-04-15T07:43:30Z</time>
      </trkpt>
      <trkpt lat="45.36943" lon="5.6089">
        <ele>371</ele>
        <time>2022-04-15T07:43:31Z</time>
      </trkpt>
      <trkpt lat="45.36944" lon="5.60893">
        <ele>371.2</ele>
        <time>2022-04-15T07:43:32Z</time>
      </trkpt>
      <trkpt lat="45.36946" lon="5.60897">
        <ele>371.5</ele>
        <time>2022-04-15T07:43:34Z</time>
      </trkpt>
      <trkpt lat="45.36948" lon="5.60899">
        <ele>371.7</ele>
        <time>2022-04-15T07:43:35Z</time>
      </trkpt>
      <trkpt lat="45.36948" lon="5.60901">
        <ele>371.8</ele>
        <time>2022-04-15T07:43:36Z</time>
      </trkpt>
      <trkpt lat="45.36948" lon="5.60904">
        <ele>372</ele>
        <time>2022-04-15T07:43:37Z</time>
      </trkpt>
      <trkpt lat="45.36949" lon="5.6091">
        <ele>372.3</ele>
        <time>2022-04-15T07:43:39Z</time>
      </trkpt>
      <trkpt lat="45.3695" lon="5.60911">
        <ele>372.4</ele>
        <time>2022-04-15T07:43:40Z</time>
      </trkpt>
      <trkpt lat="45.3695" lon="5.60913">
        <ele>372.5</ele>
        <time>2022-04-15T07:43:41Z</time>
      </trkpt>
      <trkpt lat="45.36951" lon="5.60917">
        <ele>372.8</ele>
        <time>2022-04-15T07:43:43Z</time>
      </trkpt>
      <trkpt lat="45.36951" lon="5.60918">
        <ele>372.8</ele>
        <time>2022-04-15T07:43:44Z</time>
      </trkpt>
      <trkpt lat="45.36952" lon="5.60922">
        <ele>373.1</ele>
        <time>2022-04-15T07:43:45Z</time>
      </trkpt>
      <trkpt lat="45.36952" lon="5.60924">
        <ele>373.2</ele>
        <time>2022-04-15T07:43:46Z</time>
      </trkpt>
      <trkpt lat="45.36954" lon="5.60927">
        <ele>373.4</ele>
        <time>2022-04-15T07:43:48Z</time>
      </trkpt>
      <trkpt lat="45.36954" lon="5.60929">
        <ele>373.5</ele>
        <time>2022-04-15T07:43:49Z</time>
      </trkpt>
      <trkpt lat="45.36955" lon="5.60932">
        <ele>373.8</ele>
        <time>2022-04-15T07:43:51Z</time>
      </trkpt>
      <trkpt lat="45.36956" lon="5.60934">
        <ele>373.9</ele>
        <time>2022-04-15T07:43:52Z</time>
      </trkpt>
      <trkpt lat="45.36958" lon="5.60935">
        <ele>374</ele>
        <time>2022-04-15T07:43:53Z</time>
      </trkpt>
      <trkpt lat="45.36959" lon="5.60937">
        <ele>374.1</ele>
        <time>2022-04-15T07:43:54Z</time>
      </trkpt>
      <trkpt lat="45.36961" lon="5.6094">
        <ele>374.4</ele>
        <time>2022-04-15T07:43:56Z</time>
      </trkpt>
      <trkpt lat="45.36962" lon="5.60941">
        <ele>374.5</ele>
        <time>2022-04-15T07:43:57Z</time>
      </trkpt>
      <trkpt lat="45.36964" lon="5.60942">
        <ele>374.6</ele>
        <time>2022-04-15T07:43:58Z</time>
      </trkpt>
      <trkpt lat="45.36966" lon="5.60943">
        <ele>374.8</ele>
        <time>2022-04-15T07:43:59Z</time>
      </trkpt>
      <trkpt lat="45.36969" lon="5.60946">
        <ele>375.1</ele>
        <time>2022-04-15T07:44:01Z</time>
      </trkpt>
      <trkpt lat="45.36971" lon="5.60947">
        <ele>375.3</ele>
        <time>2022-04-15T07:44:03Z</time>
      </trkpt>
      <trkpt lat="45.36973" lon="5.60948">
        <ele>375.4</ele>
        <time>2022-04-15T07:44:04Z</time>
      </trkpt>
      <trkpt lat="45.36974" lon="5.6095">
        <ele>375.5</ele>
        <time>2022-04-15T07:44:05Z</time>
      </trkpt>
      <trkpt lat="45.36975" lon="5.60951">
        <ele>375.6</ele>
        <time>2022-04-15T07:44:06Z</time>
      </trkpt>
      <trkpt lat="45.36977" lon="5.60952">
        <ele>375.8</ele>
        <time>2022-04-15T07:44:07Z</time>
      </trkpt>
      <trkpt lat="45.36979" lon="5.60954">
        <ele>375.9</ele>
        <time>2022-04-15T07:44:08Z</time>
      </trkpt>
      <trkpt lat="45.3698" lon="5.60955">
        <ele>376</ele>
        <time>2022-04-15T07:44:09Z</time>
      </trkpt>
      <trkpt lat="45.3698" lon="5.60955">
        <ele>376.1</ele>
        <time>2022-04-15T07:44:10Z</time>
      </trkpt>
      <trkpt lat="45.36982" lon="5.60956">
        <ele>376.2</ele>
        <time>2022-04-15T07:44:11Z</time>
      </trkpt>
      <trkpt lat="45.36984" lon="5.60958">
        <ele>376.4</ele>
        <time>2022-04-15T07:44:12Z</time>
      </trkpt>
      <trkpt lat="45.36986" lon="5.6096">
        <ele>376.6</ele>
        <time>2022-04-15T07:44:14Z</time>
      </trkpt>
      <trkpt lat="45.36989" lon="5.60963">
        <ele>376.8</ele>
        <time>2022-04-15T07:44:16Z</time>
      </trkpt>
      <trkpt lat="45.36991" lon="5.60965">
        <ele>377.1</ele>
        <time>2022-04-15T07:44:18Z</time>
      </trkpt>
      <trkpt lat="45.36993" lon="5.60966">
        <ele>377.2</ele>
        <time>2022-04-15T07:44:19Z</time>
      </trkpt>
      <trkpt lat="45.36995" lon="5.60967">
        <ele>377.3</ele>
        <time>2022-04-15T07:44:20Z</time>
      </trkpt>
      <trkpt lat="45.36996" lon="5.60968">
        <ele>377.5</ele>
        <time>2022-04-15T07:44:21Z</time>
      </trkpt>
      <trkpt lat="45.36999" lon="5.6097">
        <ele>377.8</ele>
        <time>2022-04-15T07:44:23Z</time>
      </trkpt>
      <trkpt lat="45.37001" lon="5.60971">
        <ele>378</ele>
        <time>2022-04-15T07:44:24Z</time>
      </trkpt>
      <trkpt lat="45.37002" lon="5.60972">
        <ele>378.1</ele>
        <time>2022-04-15T07:44:25Z</time>
      </trkpt>
      <trkpt lat="45.37004" lon="5.60974">
        <ele>378.3</ele>
        <time>2022-04-15T07:44:26Z</time>
      </trkpt>
      <trkpt lat="45.37005" lon="5.60974">
        <ele>378.4</ele>
        <time>2022-04-15T07:44:27Z</time>
      </trkpt>
      <trkpt lat="45.37008" lon="5.60976">
        <ele>378.6</ele>
        <time>2022-04-15T07:44:28Z</time>
      </trkpt>
      <trkpt lat="45.37009" lon="5.60976">
        <ele>378.8</ele>
        <time>2022-04-15T07:44:30Z</time>
      </trkpt>
      <trkpt lat="45.3701" lon="5.60977">
        <ele>378.9</ele>
        <time>2022-04-15T07:44:31Z</time>
      </trkpt>
      <trkpt lat="45.37011" lon="5.60979">
        <ele>379.1</ele>
        <time>2022-04-15T07:44:32Z</time>
      </trkpt>
      <trkpt lat="45.37013" lon="5.60979">
        <ele>379.2</ele>
        <time>2022-04-15T07:44:33Z</time>
      </trkpt>
      <trkpt lat="45.37014" lon="5.6098">
        <ele>379.4</ele>
        <time>2022-04-15T07:44:34Z</time>
      </trkpt>
      <trkpt lat="45.37015" lon="5.60981">
        <ele>379.5</ele>
        <time>2022-04-15T07:44:35Z</time>
      </trkpt>
      <trkpt lat="45.37017" lon="5.60982">
        <ele>379.7</ele>
        <time>2022-04-15T07:44:36Z</time>
      </trkpt>
      <trkpt lat="45.37018" lon="5.60983">
        <ele>379.8</ele>
        <time>2022-04-15T07:44:37Z</time>
      </trkpt>
      <trkpt lat="45.37019" lon="5.60984">
        <ele>380</ele>
        <time>2022-04-15T07:44:38Z</time>
      </trkpt>
      <trkpt lat="45.3702" lon="5.60986">
        <ele>380.2</ele>
        <time>2022-04-15T07:44:39Z</time>
      </trkpt>
      <trkpt lat="45.37022" lon="5.60988">
        <ele>380.4</ele>
        <time>2022-04-15T07:44:41Z</time>
      </trkpt>
      <trkpt lat="45.37023" lon="5.60988">
        <ele>380.6</ele>
        <time>2022-04-15T07:44:42Z</time>
      </trkpt>
      <trkpt lat="45.37025" lon="5.60989">
        <ele>380.7</ele>
        <time>2022-04-15T07:44:43Z</time>
      </trkpt>
      <trkpt lat="45.37026" lon="5.60993">
        <ele>381</ele>
        <time>2022-04-15T07:44:44Z</time>
      </trkpt>
      <trkpt lat="45.37027" lon="5.60994">
        <ele>381.1</ele>
        <time>2022-04-15T07:44:45Z</time>
      </trkpt>
      <trkpt lat="45.37027" lon="5.60995">
        <ele>381.2</ele>
        <time>2022-04-15T07:44:46Z</time>
      </trkpt>
      <trkpt lat="45.37027" lon="5.60996">
        <ele>381.3</ele>
        <time>2022-04-15T07:44:47Z</time>
      </trkpt>
      <trkpt lat="45.37027" lon="5.60998">
        <ele>381.5</ele>
        <time>2022-04-15T07:44:48Z</time>
      </trkpt>
      <trkpt lat="45.37028" lon="5.60999">
        <ele>381.6</ele>
        <time>2022-04-15T07:44:50Z</time>
      </trkpt>
      <trkpt lat="45.37028" lon="5.61">
        <ele>381.7</ele>
        <time>2022-04-15T07:44:51Z</time>
      </trkpt>
      <trkpt lat="45.37028" lon="5.61001">
        <ele>381.7</ele>
        <time>2022-04-15T07:44:52Z</time>
      </trkpt>
      <trkpt lat="45.37029" lon="5.61002">
        <ele>381.8</ele>
        <time>2022-04-15T07:44:53Z</time>
      </trkpt>
      <trkpt lat="45.37029" lon="5.61002">
        <ele>381.9</ele>
        <time>2022-04-15T07:44:54Z</time>
      </trkpt>
      <trkpt lat="45.3703" lon="5.61003">
        <ele>382</ele>
        <time>2022-04-15T07:44:55Z</time>
      </trkpt>
      <trkpt lat="45.37031" lon="5.61004">
        <ele>382.1</ele>
        <time>2022-04-15T07:44:56Z</time>
      </trkpt>
      <trkpt lat="45.37034" lon="5.61007">
        <ele>382.5</ele>
        <time>2022-04-15T07:44:58Z</time>
      </trkpt>
      <trkpt lat="45.37034" lon="5.61009">
        <ele>382.7</ele>
        <time>2022-04-15T07:44:59Z</time>
      </trkpt>
      <trkpt lat="45.37035" lon="5.61011">
        <ele>382.9</ele>
        <time>2022-04-15T07:45:00Z</time>
      </trkpt>
      <trkpt lat="45.37035" lon="5.61014">
        <ele>383.1</ele>
        <time>2022-04-15T07:45:01Z</time>
      </trkpt>
      <trkpt lat="45.37036" lon="5.61015">
        <ele>383.2</ele>
        <time>2022-04-15T07:45:02Z</time>
      </trkpt>
      <trkpt lat="45.37038" lon="5.61016">
        <ele>383.5</ele>
        <time>2022-04-15T07:45:03Z</time>
      </trkpt>
      <trkpt lat="45.37039" lon="5.61017">
        <ele>383.6</ele>
        <time>2022-04-15T07:45:04Z</time>
      </trkpt>
      <trkpt lat="45.37039" lon="5.61018">
        <ele>383.7</ele>
        <time>2022-04-15T07:45:05Z</time>
      </trkpt>
      <trkpt lat="45.3704" lon="5.61019">
        <ele>383.8</ele>
        <time>2022-04-15T07:45:06Z</time>
      </trkpt>
      <trkpt lat="45.3704" lon="5.6102">
        <ele>383.9</ele>
        <time>2022-04-15T07:45:07Z</time>
      </trkpt>
      <trkpt lat="45.3704" lon="5.61022">
        <ele>384</ele>
        <time>2022-04-15T07:45:08Z</time>
      </trkpt>
      <trkpt lat="45.3704" lon="5.61023">
        <ele>384.1</ele>
        <time>2022-04-15T07:45:09Z</time>
      </trkpt>
      <trkpt lat="45.3704" lon="5.61024">
        <ele>384.2</ele>
        <time>2022-04-15T07:45:10Z</time>
      </trkpt>
      <trkpt lat="45.37041" lon="5.61025">
        <ele>384.3</ele>
        <time>2022-04-15T07:45:11Z</time>
      </trkpt>
      <trkpt lat="45.37041" lon="5.61028">
        <ele>384.5</ele>
        <time>2022-04-15T07:45:12Z</time>
      </trkpt>
      <trkpt lat="45.37041" lon="5.6103">
        <ele>384.7</ele>
        <time>2022-04-15T07:45:14Z</time>
      </trkpt>
      <trkpt lat="45.3704" lon="5.61032">
        <ele>384.9</ele>
        <time>2022-04-15T07:45:15Z</time>
      </trkpt>
      <trkpt lat="45.3704" lon="5.61034">
        <ele>385</ele>
        <time>2022-04-15T07:45:16Z</time>
      </trkpt>
      <trkpt lat="45.37042" lon="5.61038">
        <ele>385.3</ele>
        <time>2022-04-15T07:45:17Z</time>
      </trkpt>
      <trkpt lat="45.37042" lon="5.61039">
        <ele>385.4</ele>
        <time>2022-04-15T07:45:18Z</time>
      </trkpt>
      <trkpt lat="45.37043" lon="5.6104">
        <ele>385.5</ele>
        <time>2022-04-15T07:45:19Z</time>
      </trkpt>
      <trkpt lat="45.37043" lon="5.61041">
        <ele>385.6</ele>
        <time>2022-04-15T07:45:20Z</time>
      </trkpt>
      <trkpt lat="45.37043" lon="5.61042">
        <ele>385.6</ele>
        <time>2022-04-15T07:45:22Z</time>
      </trkpt>
      <trkpt lat="45.37043" lon="5.61042">
        <ele>385.7</ele>
        <time>2022-04-15T07:45:23Z</time>
      </trkpt>
      <trkpt lat="45.37043" lon="5.61043">
        <ele>385.7</ele>
        <time>2022-04-15T07:45:24Z</time>
      </trkpt>
      <trkpt lat="45.37043" lon="5.61045">
        <ele>385.8</ele>
        <time>2022-04-15T07:45:25Z</time>
      </trkpt>
      <trkpt lat="45.37042" lon="5.61048">
        <ele>386.1</ele>
        <time>2022-04-15T07:45:27Z</time>
      </trkpt>
      <trkpt lat="45.37042" lon="5.61051">
        <ele>386.3</ele>
        <time>2022-04-15T07:45:28Z</time>
      </trkpt>
      <trkpt lat="45.37041" lon="5.61055">
        <ele>386.5</ele>
        <time>2022-04-15T07:45:30Z</time>
      </trkpt>
      <trkpt lat="45.37042" lon="5.6106">
        <ele>386.9</ele>
        <time>2022-04-15T07:45:31Z</time>
      </trkpt>
      <trkpt lat="45.37043" lon="5.61064">
        <ele>387.1</ele>
        <time>2022-04-15T07:45:33Z</time>
      </trkpt>
      <trkpt lat="45.37043" lon="5.61065">
        <ele>387.2</ele>
        <time>2022-04-15T07:45:34Z</time>
      </trkpt>
      <trkpt lat="45.37043" lon="5.61067">
        <ele>387.3</ele>
        <time>2022-04-15T07:45:35Z</time>
      </trkpt>
      <trkpt lat="45.37044" lon="5.61069">
        <ele>387.4</ele>
        <time>2022-04-15T07:45:37Z</time>
      </trkpt>
      <trkpt lat="45.37044" lon="5.61072">
        <ele>387.6</ele>
        <time>2022-04-15T07:45:38Z</time>
      </trkpt>
      <trkpt lat="45.37044" lon="5.61075">
        <ele>387.7</ele>
        <time>2022-04-15T07:45:40Z</time>
      </trkpt>
      <trkpt lat="45.37045" lon="5.61079">
        <ele>388</ele>
        <time>2022-04-15T07:45:42Z</time>
      </trkpt>
      <trkpt lat="45.37046" lon="5.61083">
        <ele>388.2</ele>
        <time>2022-04-15T07:45:43Z</time>
      </trkpt>
      <trkpt lat="45.37046" lon="5.61086">
        <ele>388.3</ele>
        <time>2022-04-15T07:45:45Z</time>
      </trkpt>
      <trkpt lat="45.37049" lon="5.61088">
        <ele>388.5</ele>
        <time>2022-04-15T07:45:46Z</time>
      </trkpt>
      <trkpt lat="45.37052" lon="5.61091">
        <ele>388.8</ele>
        <time>2022-04-15T07:45:47Z</time>
      </trkpt>
      <trkpt lat="45.37051" lon="5.61094">
        <ele>389</ele>
        <time>2022-04-15T07:45:49Z</time>
      </trkpt>
      <trkpt lat="45.37051" lon="5.61098">
        <ele>389.2</ele>
        <time>2022-04-15T07:45:51Z</time>
      </trkpt>
      <trkpt lat="45.37051" lon="5.61102">
        <ele>389.4</ele>
        <time>2022-04-15T07:45:52Z</time>
      </trkpt>
      <trkpt lat="45.37051" lon="5.61104">
        <ele>389.5</ele>
        <time>2022-04-15T07:45:53Z</time>
      </trkpt>
      <trkpt lat="45.37052" lon="5.61106">
        <ele>389.6</ele>
        <time>2022-04-15T07:45:54Z</time>
      </trkpt>
      <trkpt lat="45.37052" lon="5.61107">
        <ele>389.7</ele>
        <time>2022-04-15T07:45:55Z</time>
      </trkpt>
      <trkpt lat="45.37052" lon="5.61111">
        <ele>389.9</ele>
        <time>2022-04-15T07:45:57Z</time>
      </trkpt>
      <trkpt lat="45.37053" lon="5.61115">
        <ele>390.1</ele>
        <time>2022-04-15T07:45:58Z</time>
      </trkpt>
      <trkpt lat="45.37052" lon="5.61118">
        <ele>390.3</ele>
        <time>2022-04-15T07:46:00Z</time>
      </trkpt>
      <trkpt lat="45.37052" lon="5.61122">
        <ele>390.5</ele>
        <time>2022-04-15T07:46:02Z</time>
      </trkpt>
      <trkpt lat="45.37052" lon="5.61124">
        <ele>390.6</ele>
        <time>2022-04-15T07:46:03Z</time>
      </trkpt>
      <trkpt lat="45.37052" lon="5.61127">
        <ele>390.8</ele>
        <time>2022-04-15T07:46:04Z</time>
      </trkpt>
      <trkpt lat="45.37052" lon="5.61134">
        <ele>391.2</ele>
        <time>2022-04-15T07:46:06Z</time>
      </trkpt>
      <trkpt lat="45.37052" lon="5.61136">
        <ele>391.3</ele>
        <time>2022-04-15T07:46:07Z</time>
      </trkpt>
      <trkpt lat="45.37053" lon="5.61138">
        <ele>391.4</ele>
        <time>2022-04-15T07:46:08Z</time>
      </trkpt>
      <trkpt lat="45.37053" lon="5.61144">
        <ele>391.7</ele>
        <time>2022-04-15T07:46:10Z</time>
      </trkpt>
      <trkpt lat="45.37055" lon="5.61146">
        <ele>391.9</ele>
        <time>2022-04-15T07:46:11Z</time>
      </trkpt>
      <trkpt lat="45.37056" lon="5.61151">
        <ele>392.2</ele>
        <time>2022-04-15T07:46:13Z</time>
      </trkpt>
      <trkpt lat="45.37058" lon="5.61153">
        <ele>392.4</ele>
        <time>2022-04-15T07:46:14Z</time>
      </trkpt>
      <trkpt lat="45.37058" lon="5.61155">
        <ele>392.5</ele>
        <time>2022-04-15T07:46:15Z</time>
      </trkpt>
      <trkpt lat="45.37058" lon="5.61161">
        <ele>392.8</ele>
        <time>2022-04-15T07:46:17Z</time>
      </trkpt>
      <trkpt lat="45.37058" lon="5.61165">
        <ele>393</ele>
        <time>2022-04-15T07:46:18Z</time>
      </trkpt>
      <trkpt lat="45.37059" lon="5.61168">
        <ele>393.3</ele>
        <time>2022-04-15T07:46:19Z</time>
      </trkpt>
      <trkpt lat="45.3706" lon="5.61172">
        <ele>393.5</ele>
        <time>2022-04-15T07:46:21Z</time>
      </trkpt>
      <trkpt lat="45.37061" lon="5.61175">
        <ele>393.7</ele>
        <time>2022-04-15T07:46:22Z</time>
      </trkpt>
      <trkpt lat="45.37062" lon="5.6118">
        <ele>394</ele>
        <time>2022-04-15T07:46:24Z</time>
      </trkpt>
      <trkpt lat="45.37062" lon="5.61181">
        <ele>394.1</ele>
        <time>2022-04-15T07:46:25Z</time>
      </trkpt>
      <trkpt lat="45.37064" lon="5.61183">
        <ele>394.3</ele>
        <time>2022-04-15T07:46:26Z</time>
      </trkpt>
      <trkpt lat="45.37067" lon="5.61188">
        <ele>394.7</ele>
        <time>2022-04-15T07:46:28Z</time>
      </trkpt>
      <trkpt lat="45.37068" lon="5.6119">
        <ele>394.8</ele>
        <time>2022-04-15T07:46:29Z</time>
      </trkpt>
      <trkpt lat="45.37069" lon="5.61192">
        <ele>394.9</ele>
        <time>2022-04-15T07:46:30Z</time>
      </trkpt>
      <trkpt lat="45.37072" lon="5.61196">
        <ele>395.3</ele>
        <time>2022-04-15T07:46:32Z</time>
      </trkpt>
      <trkpt lat="45.37074" lon="5.61197">
        <ele>395.4</ele>
        <time>2022-04-15T07:46:33Z</time>
      </trkpt>
      <trkpt lat="45.37077" lon="5.61199">
        <ele>395.7</ele>
        <time>2022-04-15T07:46:35Z</time>
      </trkpt>
      <trkpt lat="45.3708" lon="5.61202">
        <ele>396</ele>
        <time>2022-04-15T07:46:36Z</time>
      </trkpt>
      <trkpt lat="45.37083" lon="5.61205">
        <ele>396.3</ele>
        <time>2022-04-15T07:46:38Z</time>
      </trkpt>
      <trkpt lat="45.37083" lon="5.61206">
        <ele>396.4</ele>
        <time>2022-04-15T07:46:39Z</time>
      </trkpt>
      <trkpt lat="45.37084" lon="5.61207">
        <ele>396.5</ele>
        <time>2022-04-15T07:46:40Z</time>
      </trkpt>
      <trkpt lat="45.37085" lon="5.61208">
        <ele>396.6</ele>
        <time>2022-04-15T07:46:41Z</time>
      </trkpt>
      <trkpt lat="45.37087" lon="5.61212">
        <ele>396.9</ele>
        <time>2022-04-15T07:46:43Z</time>
      </trkpt>
      <trkpt lat="45.37089" lon="5.61215">
        <ele>397.2</ele>
        <time>2022-04-15T07:46:44Z</time>
      </trkpt>
      <trkpt lat="45.3709" lon="5.61217">
        <ele>397.3</ele>
        <time>2022-04-15T07:46:45Z</time>
      </trkpt>
      <trkpt lat="45.37091" lon="5.61219">
        <ele>397.4</ele>
        <time>2022-04-15T07:46:47Z</time>
      </trkpt>
      <trkpt lat="45.37093" lon="5.6122">
        <ele>397.6</ele>
        <time>2022-04-15T07:46:48Z</time>
      </trkpt>
      <trkpt lat="45.37094" lon="5.61221">
        <ele>397.7</ele>
        <time>2022-04-15T07:46:49Z</time>
      </trkpt>
      <trkpt lat="45.37096" lon="5.61223">
        <ele>398</ele>
        <time>2022-04-15T07:46:51Z</time>
      </trkpt>
      <trkpt lat="45.37099" lon="5.61225">
        <ele>398.2</ele>
        <time>2022-04-15T07:46:53Z</time>
      </trkpt>
      <trkpt lat="45.371" lon="5.61226">
        <ele>398.3</ele>
        <time>2022-04-15T07:46:54Z</time>
      </trkpt>
      <trkpt lat="45.37103" lon="5.61226">
        <ele>398.5</ele>
        <time>2022-04-15T07:46:55Z</time>
      </trkpt>
      <trkpt lat="45.37104" lon="5.61226">
        <ele>398.7</ele>
        <time>2022-04-15T07:46:56Z</time>
      </trkpt>
      <trkpt lat="45.37107" lon="5.61226">
        <ele>398.9</ele>
        <time>2022-04-15T07:46:58Z</time>
      </trkpt>
      <trkpt lat="45.3711" lon="5.61226">
        <ele>399.2</ele>
        <time>2022-04-15T07:47:00Z</time>
      </trkpt>
      <trkpt lat="45.37114" lon="5.61226">
        <ele>399.5</ele>
        <time>2022-04-15T07:47:01Z</time>
      </trkpt>
      <trkpt lat="45.37115" lon="5.61225">
        <ele>399.7</ele>
        <time>2022-04-15T07:47:02Z</time>
      </trkpt>
      <trkpt lat="45.37119" lon="5.61226">
        <ele>400</ele>
        <time>2022-04-15T07:47:04Z</time>
      </trkpt>
      <trkpt lat="45.3712" lon="5.61225">
        <ele>400.1</ele>
        <time>2022-04-15T07:47:06Z</time>
      </trkpt>
      <trkpt lat="45.37122" lon="5.61225">
        <ele>400.3</ele>
        <time>2022-04-15T07:47:07Z</time>
      </trkpt>
      <trkpt lat="45.37125" lon="5.61227">
        <ele>400.5</ele>
        <time>2022-04-15T07:47:08Z</time>
      </trkpt>
      <trkpt lat="45.37126" lon="5.61227">
        <ele>400.6</ele>
        <time>2022-04-15T07:47:09Z</time>
      </trkpt>
      <trkpt lat="45.37129" lon="5.61228">
        <ele>400.9</ele>
        <time>2022-04-15T07:47:11Z</time>
      </trkpt>
      <trkpt lat="45.37131" lon="5.61229">
        <ele>401.2</ele>
        <time>2022-04-15T07:47:13Z</time>
      </trkpt>
      <trkpt lat="45.37133" lon="5.61232">
        <ele>401.4</ele>
        <time>2022-04-15T07:47:15Z</time>
      </trkpt>
      <trkpt lat="45.37135" lon="5.61232">
        <ele>401.6</ele>
        <time>2022-04-15T07:47:16Z</time>
      </trkpt>
      <trkpt lat="45.37138" lon="5.61233">
        <ele>401.9</ele>
        <time>2022-04-15T07:47:18Z</time>
      </trkpt>
      <trkpt lat="45.37141" lon="5.61236">
        <ele>402.3</ele>
        <time>2022-04-15T07:47:20Z</time>
      </trkpt>
      <trkpt lat="45.37142" lon="5.61237">
        <ele>402.4</ele>
        <time>2022-04-15T07:47:22Z</time>
      </trkpt>
      <trkpt lat="45.37143" lon="5.61237">
        <ele>402.5</ele>
        <time>2022-04-15T07:47:23Z</time>
      </trkpt>
      <trkpt lat="45.37144" lon="5.61238">
        <ele>402.6</ele>
        <time>2022-04-15T07:47:24Z</time>
      </trkpt>
      <trkpt lat="45.37147" lon="5.6124">
        <ele>403</ele>
        <time>2022-04-15T07:47:26Z</time>
      </trkpt>
      <trkpt lat="45.37149" lon="5.61241">
        <ele>403.1</ele>
        <time>2022-04-15T07:47:27Z</time>
      </trkpt>
      <trkpt lat="45.3715" lon="5.61242">
        <ele>403.3</ele>
        <time>2022-04-15T07:47:29Z</time>
      </trkpt>
      <trkpt lat="45.37153" lon="5.61243">
        <ele>403.6</ele>
        <time>2022-04-15T07:47:31Z</time>
      </trkpt>
      <trkpt lat="45.37155" lon="5.61244">
        <ele>403.8</ele>
        <time>2022-04-15T07:47:32Z</time>
      </trkpt>
      <trkpt lat="45.37156" lon="5.61245">
        <ele>404</ele>
        <time>2022-04-15T07:47:33Z</time>
      </trkpt>
      <trkpt lat="45.37159" lon="5.61246">
        <ele>404.2</ele>
        <time>2022-04-15T07:47:34Z</time>
      </trkpt>
      <trkpt lat="45.37162" lon="5.61248">
        <ele>404.5</ele>
        <time>2022-04-15T07:47:36Z</time>
      </trkpt>
      <trkpt lat="45.37163" lon="5.61248">
        <ele>404.7</ele>
        <time>2022-04-15T07:47:37Z</time>
      </trkpt>
      <trkpt lat="45.37165" lon="5.6125">
        <ele>405</ele>
        <time>2022-04-15T07:47:39Z</time>
      </trkpt>
      <trkpt lat="45.37167" lon="5.61251">
        <ele>405.1</ele>
        <time>2022-04-15T07:47:40Z</time>
      </trkpt>
      <trkpt lat="45.37169" lon="5.61253">
        <ele>405.4</ele>
        <time>2022-04-15T07:47:42Z</time>
      </trkpt>
      <trkpt lat="45.37171" lon="5.61255">
        <ele>405.6</ele>
        <time>2022-04-15T07:47:43Z</time>
      </trkpt>
      <trkpt lat="45.37171" lon="5.61255">
        <ele>405.6</ele>
        <time>2022-04-15T07:47:44Z</time>
      </trkpt>
      <trkpt lat="45.37172" lon="5.61256">
        <ele>405.7</ele>
        <time>2022-04-15T07:47:45Z</time>
      </trkpt>
      <trkpt lat="45.37173" lon="5.61257">
        <ele>405.8</ele>
        <time>2022-04-15T07:47:46Z</time>
      </trkpt>
      <trkpt lat="45.37174" lon="5.61257">
        <ele>405.9</ele>
        <time>2022-04-15T07:47:47Z</time>
      </trkpt>
      <trkpt lat="45.37175" lon="5.61258">
        <ele>406.1</ele>
        <time>2022-04-15T07:47:48Z</time>
      </trkpt>
      <trkpt lat="45.37177" lon="5.6126">
        <ele>406.3</ele>
        <time>2022-04-15T07:47:49Z</time>
      </trkpt>
      <trkpt lat="45.37178" lon="5.61261">
        <ele>406.4</ele>
        <time>2022-04-15T07:47:50Z</time>
      </trkpt>
      <trkpt lat="45.37179" lon="5.61261">
        <ele>406.6</ele>
        <time>2022-04-15T07:47:51Z</time>
      </trkpt>
      <trkpt lat="45.37181" lon="5.61262">
        <ele>406.7</ele>
        <time>2022-04-15T07:47:52Z</time>
      </trkpt>
      <trkpt lat="45.37182" lon="5.61264">
        <ele>406.9</ele>
        <time>2022-04-15T07:47:53Z</time>
      </trkpt>
      <trkpt lat="45.37183" lon="5.61266">
        <ele>407.1</ele>
        <time>2022-04-15T07:47:55Z</time>
      </trkpt>
      <trkpt lat="45.37185" lon="5.61267">
        <ele>407.3</ele>
        <time>2022-04-15T07:47:56Z</time>
      </trkpt>
      <trkpt lat="45.37186" lon="5.61268">
        <ele>407.3</ele>
        <time>2022-04-15T07:47:57Z</time>
      </trkpt>
      <trkpt lat="45.37187" lon="5.61268">
        <ele>407.4</ele>
        <time>2022-04-15T07:47:58Z</time>
      </trkpt>
      <trkpt lat="45.3719" lon="5.6127">
        <ele>407.7</ele>
        <time>2022-04-15T07:48:00Z</time>
      </trkpt>
      <trkpt lat="45.3719" lon="5.61272">
        <ele>407.9</ele>
        <time>2022-04-15T07:48:01Z</time>
      </trkpt>
      <trkpt lat="45.37192" lon="5.61275">
        <ele>408.1</ele>
        <time>2022-04-15T07:48:03Z</time>
      </trkpt>
      <trkpt lat="45.37194" lon="5.61277">
        <ele>408.3</ele>
        <time>2022-04-15T07:48:05Z</time>
      </trkpt>
      <trkpt lat="45.37194" lon="5.61278">
        <ele>408.5</ele>
        <time>2022-04-15T07:48:06Z</time>
      </trkpt>
      <trkpt lat="45.37195" lon="5.6128">
        <ele>408.6</ele>
        <time>2022-04-15T07:48:07Z</time>
      </trkpt>
      <trkpt lat="45.37196" lon="5.61282">
        <ele>408.7</ele>
        <time>2022-04-15T07:48:08Z</time>
      </trkpt>
      <trkpt lat="45.37198" lon="5.61284">
        <ele>409</ele>
        <time>2022-04-15T07:48:09Z</time>
      </trkpt>
      <trkpt lat="45.37198" lon="5.61286">
        <ele>409.1</ele>
        <time>2022-04-15T07:48:11Z</time>
      </trkpt>
      <trkpt lat="45.37199" lon="5.61288">
        <ele>409.3</ele>
        <time>2022-04-15T07:48:12Z</time>
      </trkpt>
      <trkpt lat="45.37199" lon="5.61289">
        <ele>409.4</ele>
        <time>2022-04-15T07:48:13Z</time>
      </trkpt>
      <trkpt lat="45.372" lon="5.61291">
        <ele>409.5</ele>
        <time>2022-04-15T07:48:15Z</time>
      </trkpt>
      <trkpt lat="45.37201" lon="5.61292">
        <ele>409.6</ele>
        <time>2022-04-15T07:48:16Z</time>
      </trkpt>
      <trkpt lat="45.37201" lon="5.61293">
        <ele>409.7</ele>
        <time>2022-04-15T07:48:17Z</time>
      </trkpt>
      <trkpt lat="45.37202" lon="5.61295">
        <ele>409.8</ele>
        <time>2022-04-15T07:48:18Z</time>
      </trkpt>
      <trkpt lat="45.37203" lon="5.61296">
        <ele>410</ele>
        <time>2022-04-15T07:48:20Z</time>
      </trkpt>
      <trkpt lat="45.37204" lon="5.61298">
        <ele>410.2</ele>
        <time>2022-04-15T07:48:21Z</time>
      </trkpt>
      <trkpt lat="45.37205" lon="5.613">
        <ele>410.3</ele>
        <time>2022-04-15T07:48:22Z</time>
      </trkpt>
      <trkpt lat="45.37206" lon="5.61301">
        <ele>410.5</ele>
        <time>2022-04-15T07:48:23Z</time>
      </trkpt>
      <trkpt lat="45.37207" lon="5.61303">
        <ele>410.6</ele>
        <time>2022-04-15T07:48:24Z</time>
      </trkpt>
      <trkpt lat="45.37208" lon="5.61305">
        <ele>410.8</ele>
        <time>2022-04-15T07:48:25Z</time>
      </trkpt>
      <trkpt lat="45.3721" lon="5.61309">
        <ele>411.1</ele>
        <time>2022-04-15T07:48:27Z</time>
      </trkpt>
      <trkpt lat="45.3721" lon="5.6131">
        <ele>411.2</ele>
        <time>2022-04-15T07:48:28Z</time>
      </trkpt>
      <trkpt lat="45.37211" lon="5.61316">
        <ele>411.6</ele>
        <time>2022-04-15T07:48:30Z</time>
      </trkpt>
      <trkpt lat="45.37213" lon="5.61321">
        <ele>412</ele>
        <time>2022-04-15T07:48:32Z</time>
      </trkpt>
      <trkpt lat="45.37213" lon="5.61324">
        <ele>412.1</ele>
        <time>2022-04-15T07:48:33Z</time>
      </trkpt>
      <trkpt lat="45.37213" lon="5.61325">
        <ele>412.3</ele>
        <time>2022-04-15T07:48:34Z</time>
      </trkpt>
      <trkpt lat="45.37214" lon="5.61327">
        <ele>412.4</ele>
        <time>2022-04-15T07:48:35Z</time>
      </trkpt>
      <trkpt lat="45.37215" lon="5.6133">
        <ele>412.6</ele>
        <time>2022-04-15T07:48:36Z</time>
      </trkpt>
      <trkpt lat="45.37216" lon="5.61332">
        <ele>412.7</ele>
        <time>2022-04-15T07:48:38Z</time>
      </trkpt>
      <trkpt lat="45.37217" lon="5.61333">
        <ele>412.9</ele>
        <time>2022-04-15T07:48:39Z</time>
      </trkpt>
      <trkpt lat="45.37218" lon="5.61334">
        <ele>413</ele>
        <time>2022-04-15T07:48:40Z</time>
      </trkpt>
      <trkpt lat="45.37221" lon="5.61338">
        <ele>413.4</ele>
        <time>2022-04-15T07:48:42Z</time>
      </trkpt>
      <trkpt lat="45.37222" lon="5.6134">
        <ele>413.6</ele>
        <time>2022-04-15T07:48:43Z</time>
      </trkpt>
      <trkpt lat="45.37224" lon="5.61343">
        <ele>413.9</ele>
        <time>2022-04-15T07:48:45Z</time>
      </trkpt>
      <trkpt lat="45.37225" lon="5.61345">
        <ele>414</ele>
        <time>2022-04-15T07:48:46Z</time>
      </trkpt>
      <trkpt lat="45.37227" lon="5.61348">
        <ele>414.2</ele>
        <time>2022-04-15T07:48:48Z</time>
      </trkpt>
      <trkpt lat="45.37228" lon="5.61352">
        <ele>414.5</ele>
        <time>2022-04-15T07:48:49Z</time>
      </trkpt>
      <trkpt lat="45.37229" lon="5.61353">
        <ele>414.6</ele>
        <time>2022-04-15T07:48:50Z</time>
      </trkpt>
      <trkpt lat="45.37231" lon="5.61357">
        <ele>414.9</ele>
        <time>2022-04-15T07:48:52Z</time>
      </trkpt>
      <trkpt lat="45.37231" lon="5.61358">
        <ele>415</ele>
        <time>2022-04-15T07:48:53Z</time>
      </trkpt>
      <trkpt lat="45.37233" lon="5.61363">
        <ele>415.3</ele>
        <time>2022-04-15T07:48:55Z</time>
      </trkpt>
      <trkpt lat="45.37233" lon="5.61365">
        <ele>415.4</ele>
        <time>2022-04-15T07:48:56Z</time>
      </trkpt>
      <trkpt lat="45.37235" lon="5.61367">
        <ele>415.6</ele>
        <time>2022-04-15T07:48:57Z</time>
      </trkpt>
      <trkpt lat="45.37236" lon="5.61369">
        <ele>415.8</ele>
        <time>2022-04-15T07:48:59Z</time>
      </trkpt>
      <trkpt lat="45.37238" lon="5.61373">
        <ele>416.1</ele>
        <time>2022-04-15T07:49:00Z</time>
      </trkpt>
      <trkpt lat="45.37239" lon="5.61374">
        <ele>416.2</ele>
        <time>2022-04-15T07:49:01Z</time>
      </trkpt>
      <trkpt lat="45.3724" lon="5.61377">
        <ele>416.4</ele>
        <time>2022-04-15T07:49:02Z</time>
      </trkpt>
      <trkpt lat="45.37241" lon="5.61378">
        <ele>416.5</ele>
        <time>2022-04-15T07:49:03Z</time>
      </trkpt>
      <trkpt lat="45.37242" lon="5.6138">
        <ele>416.6</ele>
        <time>2022-04-15T07:49:05Z</time>
      </trkpt>
      <trkpt lat="45.37243" lon="5.61382">
        <ele>416.8</ele>
        <time>2022-04-15T07:49:07Z</time>
      </trkpt>
      <trkpt lat="45.37243" lon="5.61384">
        <ele>416.9</ele>
        <time>2022-04-15T07:49:08Z</time>
      </trkpt>
      <trkpt lat="45.37244" lon="5.61387">
        <ele>417.1</ele>
        <time>2022-04-15T07:49:10Z</time>
      </trkpt>
      <trkpt lat="45.37244" lon="5.61389">
        <ele>417.2</ele>
        <time>2022-04-15T07:49:11Z</time>
      </trkpt>
      <trkpt lat="45.37245" lon="5.61392">
        <ele>417.4</ele>
        <time>2022-04-15T07:49:12Z</time>
      </trkpt>
      <trkpt lat="45.37245" lon="5.61394">
        <ele>417.5</ele>
        <time>2022-04-15T07:49:14Z</time>
      </trkpt>
      <trkpt lat="45.37245" lon="5.61396">
        <ele>417.7</ele>
        <time>2022-04-15T07:49:15Z</time>
      </trkpt>
      <trkpt lat="45.37245" lon="5.614">
        <ele>417.9</ele>
        <time>2022-04-15T07:49:17Z</time>
      </trkpt>
      <trkpt lat="45.37245" lon="5.61406">
        <ele>418.2</ele>
        <time>2022-04-15T07:49:19Z</time>
      </trkpt>
      <trkpt lat="45.37244" lon="5.61411">
        <ele>418.6</ele>
        <time>2022-04-15T07:49:21Z</time>
      </trkpt>
      <trkpt lat="45.37244" lon="5.61413">
        <ele>418.7</ele>
        <time>2022-04-15T07:49:22Z</time>
      </trkpt>
      <trkpt lat="45.37244" lon="5.61415">
        <ele>418.8</ele>
        <time>2022-04-15T07:49:23Z</time>
      </trkpt>
      <trkpt lat="45.37245" lon="5.61419">
        <ele>419.1</ele>
        <time>2022-04-15T07:49:24Z</time>
      </trkpt>
      <trkpt lat="45.37245" lon="5.61421">
        <ele>419.2</ele>
        <time>2022-04-15T07:49:26Z</time>
      </trkpt>
      <trkpt lat="45.37245" lon="5.61424">
        <ele>419.3</ele>
        <time>2022-04-15T07:49:27Z</time>
      </trkpt>
      <trkpt lat="45.37245" lon="5.61426">
        <ele>419.5</ele>
        <time>2022-04-15T07:49:28Z</time>
      </trkpt>
      <trkpt lat="45.37245" lon="5.61429">
        <ele>419.7</ele>
        <time>2022-04-15T07:49:29Z</time>
      </trkpt>
      <trkpt lat="45.37245" lon="5.61431">
        <ele>419.8</ele>
        <time>2022-04-15T07:49:30Z</time>
      </trkpt>
      <trkpt lat="45.37245" lon="5.61434">
        <ele>420</ele>
        <time>2022-04-15T07:49:31Z</time>
      </trkpt>
      <trkpt lat="45.37246" lon="5.61439">
        <ele>420.3</ele>
        <time>2022-04-15T07:49:33Z</time>
      </trkpt>
      <trkpt lat="45.37247" lon="5.61441">
        <ele>420.4</ele>
        <time>2022-04-15T07:49:34Z</time>
      </trkpt>
      <trkpt lat="45.37247" lon="5.61444">
        <ele>420.5</ele>
        <time>2022-04-15T07:49:35Z</time>
      </trkpt>
      <trkpt lat="45.37247" lon="5.61449">
        <ele>420.8</ele>
        <time>2022-04-15T07:49:37Z</time>
      </trkpt>
      <trkpt lat="45.37248" lon="5.61451">
        <ele>421</ele>
        <time>2022-04-15T07:49:38Z</time>
      </trkpt>
      <trkpt lat="45.37248" lon="5.61453">
        <ele>421.1</ele>
        <time>2022-04-15T07:49:39Z</time>
      </trkpt>
      <trkpt lat="45.37249" lon="5.61456">
        <ele>421.3</ele>
        <time>2022-04-15T07:49:41Z</time>
      </trkpt>
      <trkpt lat="45.37248" lon="5.6146">
        <ele>421.6</ele>
        <time>2022-04-15T07:49:43Z</time>
      </trkpt>
      <trkpt lat="45.3725" lon="5.61462">
        <ele>421.8</ele>
        <time>2022-04-15T07:49:44Z</time>
      </trkpt>
      <trkpt lat="45.37252" lon="5.61465">
        <ele>422.1</ele>
        <time>2022-04-15T07:49:46Z</time>
      </trkpt>
      <trkpt lat="45.37253" lon="5.61467">
        <ele>422.2</ele>
        <time>2022-04-15T07:49:47Z</time>
      </trkpt>
      <trkpt lat="45.37254" lon="5.6147">
        <ele>422.5</ele>
        <time>2022-04-15T07:49:49Z</time>
      </trkpt>
      <trkpt lat="45.37255" lon="5.61472">
        <ele>422.6</ele>
        <time>2022-04-15T07:49:50Z</time>
      </trkpt>
      <trkpt lat="45.37255" lon="5.61475">
        <ele>422.8</ele>
        <time>2022-04-15T07:49:51Z</time>
      </trkpt>
      <trkpt lat="45.37255" lon="5.61476">
        <ele>422.9</ele>
        <time>2022-04-15T07:49:53Z</time>
      </trkpt>
      <trkpt lat="45.37255" lon="5.61478">
        <ele>423</ele>
        <time>2022-04-15T07:49:54Z</time>
      </trkpt>
      <trkpt lat="45.37256" lon="5.61479">
        <ele>423.1</ele>
        <time>2022-04-15T07:49:55Z</time>
      </trkpt>
      <trkpt lat="45.37256" lon="5.6148">
        <ele>423.2</ele>
        <time>2022-04-15T07:49:57Z</time>
      </trkpt>
      <trkpt lat="45.37256" lon="5.61482">
        <ele>423.3</ele>
        <time>2022-04-15T07:49:58Z</time>
      </trkpt>
      <trkpt lat="45.37257" lon="5.61483">
        <ele>423.4</ele>
        <time>2022-04-15T07:49:59Z</time>
      </trkpt>
      <trkpt lat="45.37258" lon="5.61489">
        <ele>423.6</ele>
        <time>2022-04-15T07:50:01Z</time>
      </trkpt>
      <trkpt lat="45.37258" lon="5.61491">
        <ele>423.7</ele>
        <time>2022-04-15T07:50:02Z</time>
      </trkpt>
      <trkpt lat="45.37258" lon="5.61493">
        <ele>423.8</ele>
        <time>2022-04-15T07:50:03Z</time>
      </trkpt>
      <trkpt lat="45.37258" lon="5.61498">
        <ele>424.1</ele>
        <time>2022-04-15T07:50:04Z</time>
      </trkpt>
      <trkpt lat="45.37258" lon="5.61499">
        <ele>424.2</ele>
        <time>2022-04-15T07:50:05Z</time>
      </trkpt>
      <trkpt lat="45.37259" lon="5.61505">
        <ele>424.5</ele>
        <time>2022-04-15T07:50:06Z</time>
      </trkpt>
      <trkpt lat="45.37259" lon="5.61508">
        <ele>424.7</ele>
        <time>2022-04-15T07:50:07Z</time>
      </trkpt>
      <trkpt lat="45.37258" lon="5.61511">
        <ele>424.9</ele>
        <time>2022-04-15T07:50:09Z</time>
      </trkpt>
      <trkpt lat="45.37258" lon="5.61513">
        <ele>425</ele>
        <time>2022-04-15T07:50:10Z</time>
      </trkpt>
      <trkpt lat="45.37258" lon="5.61516">
        <ele>425.2</ele>
        <time>2022-04-15T07:50:11Z</time>
      </trkpt>
      <trkpt lat="45.37257" lon="5.6152">
        <ele>425.5</ele>
        <time>2022-04-15T07:50:12Z</time>
      </trkpt>
      <trkpt lat="45.37256" lon="5.61522">
        <ele>425.6</ele>
        <time>2022-04-15T07:50:13Z</time>
      </trkpt>
      <trkpt lat="45.37255" lon="5.61526">
        <ele>425.8</ele>
        <time>2022-04-15T07:50:14Z</time>
      </trkpt>
      <trkpt lat="45.37255" lon="5.61527">
        <ele>425.9</ele>
        <time>2022-04-15T07:50:15Z</time>
      </trkpt>
      <trkpt lat="45.37254" lon="5.61529">
        <ele>426.1</ele>
        <time>2022-04-15T07:50:16Z</time>
      </trkpt>
      <trkpt lat="45.37253" lon="5.61531">
        <ele>426.2</ele>
        <time>2022-04-15T07:50:17Z</time>
      </trkpt>
      <trkpt lat="45.37252" lon="5.61533">
        <ele>426.4</ele>
        <time>2022-04-15T07:50:18Z</time>
      </trkpt>
      <trkpt lat="45.37251" lon="5.61535">
        <ele>426.5</ele>
        <time>2022-04-15T07:50:19Z</time>
      </trkpt>
      <trkpt lat="45.3725" lon="5.61536">
        <ele>426.7</ele>
        <time>2022-04-15T07:50:20Z</time>
      </trkpt>
      <trkpt lat="45.37249" lon="5.61538">
        <ele>426.8</ele>
        <time>2022-04-15T07:50:21Z</time>
      </trkpt>
      <trkpt lat="45.37248" lon="5.61539">
        <ele>426.9</ele>
        <time>2022-04-15T07:50:22Z</time>
      </trkpt>
      <trkpt lat="45.37247" lon="5.61541">
        <ele>427</ele>
        <time>2022-04-15T07:50:23Z</time>
      </trkpt>
      <trkpt lat="45.37247" lon="5.61542">
        <ele>427.1</ele>
        <time>2022-04-15T07:50:24Z</time>
      </trkpt>
      <trkpt lat="45.37246" lon="5.61545">
        <ele>427.3</ele>
        <time>2022-04-15T07:50:25Z</time>
      </trkpt>
      <trkpt lat="45.37246" lon="5.61546">
        <ele>427.4</ele>
        <time>2022-04-15T07:50:26Z</time>
      </trkpt>
      <trkpt lat="45.37245" lon="5.61547">
        <ele>427.5</ele>
        <time>2022-04-15T07:50:27Z</time>
      </trkpt>
      <trkpt lat="45.37244" lon="5.6155">
        <ele>427.7</ele>
        <time>2022-04-15T07:50:28Z</time>
      </trkpt>
      <trkpt lat="45.37243" lon="5.61552">
        <ele>427.9</ele>
        <time>2022-04-15T07:50:29Z</time>
      </trkpt>
      <trkpt lat="45.37243" lon="5.61554">
        <ele>428</ele>
        <time>2022-04-15T07:50:30Z</time>
      </trkpt>
      <trkpt lat="45.37242" lon="5.61556">
        <ele>428.2</ele>
        <time>2022-04-15T07:50:31Z</time>
      </trkpt>
      <trkpt lat="45.37242" lon="5.61558">
        <ele>428.3</ele>
        <time>2022-04-15T07:50:32Z</time>
      </trkpt>
      <trkpt lat="45.37241" lon="5.61561">
        <ele>428.5</ele>
        <time>2022-04-15T07:50:33Z</time>
      </trkpt>
      <trkpt lat="45.3724" lon="5.61563">
        <ele>428.7</ele>
        <time>2022-04-15T07:50:34Z</time>
      </trkpt>
      <trkpt lat="45.3724" lon="5.61565">
        <ele>428.8</ele>
        <time>2022-04-15T07:50:35Z</time>
      </trkpt>
      <trkpt lat="45.37239" lon="5.61566">
        <ele>428.9</ele>
        <time>2022-04-15T07:50:36Z</time>
      </trkpt>
      <trkpt lat="45.37239" lon="5.61568">
        <ele>429</ele>
        <time>2022-04-15T07:50:37Z</time>
      </trkpt>
      <trkpt lat="45.37238" lon="5.61569">
        <ele>429.1</ele>
        <time>2022-04-15T07:50:38Z</time>
      </trkpt>
      <trkpt lat="45.37236" lon="5.61572">
        <ele>429.3</ele>
        <time>2022-04-15T07:50:39Z</time>
      </trkpt>
      <trkpt lat="45.37236" lon="5.61573">
        <ele>429.4</ele>
        <time>2022-04-15T07:50:40Z</time>
      </trkpt>
      <trkpt lat="45.37236" lon="5.61574">
        <ele>429.5</ele>
        <time>2022-04-15T07:50:41Z</time>
      </trkpt>
      <trkpt lat="45.37236" lon="5.61577">
        <ele>429.7</ele>
        <time>2022-04-15T07:50:42Z</time>
      </trkpt>
      <trkpt lat="45.37236" lon="5.61578">
        <ele>429.8</ele>
        <time>2022-04-15T07:50:43Z</time>
      </trkpt>
      <trkpt lat="45.37235" lon="5.61579">
        <ele>429.8</ele>
        <time>2022-04-15T07:50:44Z</time>
      </trkpt>
      <trkpt lat="45.37235" lon="5.61582">
        <ele>430</ele>
        <time>2022-04-15T07:50:45Z</time>
      </trkpt>
      <trkpt lat="45.37235" lon="5.61584">
        <ele>430.1</ele>
        <time>2022-04-15T07:50:46Z</time>
      </trkpt>
      <trkpt lat="45.37235" lon="5.61585">
        <ele>430.2</ele>
        <time>2022-04-15T07:50:47Z</time>
      </trkpt>
      <trkpt lat="45.37235" lon="5.61587">
        <ele>430.3</ele>
        <time>2022-04-15T07:50:48Z</time>
      </trkpt>
      <trkpt lat="45.37235" lon="5.61589">
        <ele>430.5</ele>
        <time>2022-04-15T07:50:49Z</time>
      </trkpt>
      <trkpt lat="45.37235" lon="5.61592">
        <ele>430.6</ele>
        <time>2022-04-15T07:50:50Z</time>
      </trkpt>
      <trkpt lat="45.37235" lon="5.61594">
        <ele>430.8</ele>
        <time>2022-04-15T07:50:51Z</time>
      </trkpt>
      <trkpt lat="45.37236" lon="5.61597">
        <ele>430.9</ele>
        <time>2022-04-15T07:50:52Z</time>
      </trkpt>
      <trkpt lat="45.37235" lon="5.61599">
        <ele>431.1</ele>
        <time>2022-04-15T07:50:53Z</time>
      </trkpt>
      <trkpt lat="45.37235" lon="5.61601">
        <ele>431.2</ele>
        <time>2022-04-15T07:50:54Z</time>
      </trkpt>
      <trkpt lat="45.37235" lon="5.61603">
        <ele>431.3</ele>
        <time>2022-04-15T07:50:55Z</time>
      </trkpt>
      <trkpt lat="45.37234" lon="5.61605">
        <ele>431.5</ele>
        <time>2022-04-15T07:50:56Z</time>
      </trkpt>
      <trkpt lat="45.37234" lon="5.61607">
        <ele>431.6</ele>
        <time>2022-04-15T07:50:57Z</time>
      </trkpt>
      <trkpt lat="45.37234" lon="5.61611">
        <ele>431.8</ele>
        <time>2022-04-15T07:50:58Z</time>
      </trkpt>
      <trkpt lat="45.37233" lon="5.61612">
        <ele>431.9</ele>
        <time>2022-04-15T07:50:59Z</time>
      </trkpt>
      <trkpt lat="45.37233" lon="5.61616">
        <ele>432.1</ele>
        <time>2022-04-15T07:51:00Z</time>
      </trkpt>
      <trkpt lat="45.37233" lon="5.61617">
        <ele>432.2</ele>
        <time>2022-04-15T07:51:01Z</time>
      </trkpt>
      <trkpt lat="45.37233" lon="5.6162">
        <ele>432.3</ele>
        <time>2022-04-15T07:51:02Z</time>
      </trkpt>
      <trkpt lat="45.37233" lon="5.61622">
        <ele>432.5</ele>
        <time>2022-04-15T07:51:03Z</time>
      </trkpt>
      <trkpt lat="45.37233" lon="5.61624">
        <ele>432.6</ele>
        <time>2022-04-15T07:51:04Z</time>
      </trkpt>
      <trkpt lat="45.37233" lon="5.61626">
        <ele>432.7</ele>
        <time>2022-04-15T07:51:05Z</time>
      </trkpt>
      <trkpt lat="45.37234" lon="5.61628">
        <ele>432.8</ele>
        <time>2022-04-15T07:51:06Z</time>
      </trkpt>
      <trkpt lat="45.37234" lon="5.61631">
        <ele>433</ele>
        <time>2022-04-15T07:51:07Z</time>
      </trkpt>
      <trkpt lat="45.37235" lon="5.61633">
        <ele>433.1</ele>
        <time>2022-04-15T07:51:08Z</time>
      </trkpt>
      <trkpt lat="45.37235" lon="5.61635">
        <ele>433.2</ele>
        <time>2022-04-15T07:51:09Z</time>
      </trkpt>
      <trkpt lat="45.37236" lon="5.61637">
        <ele>433.3</ele>
        <time>2022-04-15T07:51:10Z</time>
      </trkpt>
      <trkpt lat="45.37236" lon="5.6164">
        <ele>433.5</ele>
        <time>2022-04-15T07:51:11Z</time>
      </trkpt>
      <trkpt lat="45.37237" lon="5.61644">
        <ele>433.7</ele>
        <time>2022-04-15T07:51:12Z</time>
      </trkpt>
      <trkpt lat="45.37237" lon="5.61645">
        <ele>433.8</ele>
        <time>2022-04-15T07:51:13Z</time>
      </trkpt>
      <trkpt lat="45.37237" lon="5.61649">
        <ele>434</ele>
        <time>2022-04-15T07:51:14Z</time>
      </trkpt>
      <trkpt lat="45.37237" lon="5.61651">
        <ele>434.1</ele>
        <time>2022-04-15T07:51:15Z</time>
      </trkpt>
      <trkpt lat="45.37238" lon="5.61655">
        <ele>434.3</ele>
        <time>2022-04-15T07:51:16Z</time>
      </trkpt>
      <trkpt lat="45.37238" lon="5.61656">
        <ele>434.4</ele>
        <time>2022-04-15T07:51:17Z</time>
      </trkpt>
      <trkpt lat="45.37238" lon="5.61661">
        <ele>434.6</ele>
        <time>2022-04-15T07:51:18Z</time>
      </trkpt>
      <trkpt lat="45.37238" lon="5.61662">
        <ele>434.7</ele>
        <time>2022-04-15T07:51:19Z</time>
      </trkpt>
      <trkpt lat="45.37239" lon="5.61666">
        <ele>434.9</ele>
        <time>2022-04-15T07:51:20Z</time>
      </trkpt>
      <trkpt lat="45.37239" lon="5.61667">
        <ele>435</ele>
        <time>2022-04-15T07:51:21Z</time>
      </trkpt>
      <trkpt lat="45.3724" lon="5.61672">
        <ele>435.2</ele>
        <time>2022-04-15T07:51:22Z</time>
      </trkpt>
      <trkpt lat="45.3724" lon="5.61673">
        <ele>435.3</ele>
        <time>2022-04-15T07:51:23Z</time>
      </trkpt>
      <trkpt lat="45.37241" lon="5.61677">
        <ele>435.5</ele>
        <time>2022-04-15T07:51:24Z</time>
      </trkpt>
      <trkpt lat="45.37242" lon="5.61678">
        <ele>435.6</ele>
        <time>2022-04-15T07:51:25Z</time>
      </trkpt>
      <trkpt lat="45.37242" lon="5.61682">
        <ele>435.8</ele>
        <time>2022-04-15T07:51:26Z</time>
      </trkpt>
      <trkpt lat="45.37242" lon="5.61683">
        <ele>435.9</ele>
        <time>2022-04-15T07:51:27Z</time>
      </trkpt>
      <trkpt lat="45.37243" lon="5.61687">
        <ele>436.1</ele>
        <time>2022-04-15T07:51:28Z</time>
      </trkpt>
      <trkpt lat="45.37243" lon="5.61688">
        <ele>436.2</ele>
        <time>2022-04-15T07:51:29Z</time>
      </trkpt>
      <trkpt lat="45.37243" lon="5.61692">
        <ele>436.4</ele>
        <time>2022-04-15T07:51:30Z</time>
      </trkpt>
      <trkpt lat="45.37243" lon="5.61694">
        <ele>436.5</ele>
        <time>2022-04-15T07:51:31Z</time>
      </trkpt>
      <trkpt lat="45.37243" lon="5.61698">
        <ele>436.7</ele>
        <time>2022-04-15T07:51:32Z</time>
      </trkpt>
      <trkpt lat="45.37244" lon="5.61699">
        <ele>436.8</ele>
        <time>2022-04-15T07:51:33Z</time>
      </trkpt>
      <trkpt lat="45.37245" lon="5.61702">
        <ele>437</ele>
        <time>2022-04-15T07:51:34Z</time>
      </trkpt>
      <trkpt lat="45.37245" lon="5.61704">
        <ele>437.1</ele>
        <time>2022-04-15T07:51:35Z</time>
      </trkpt>
      <trkpt lat="45.37245" lon="5.61706">
        <ele>437.3</ele>
        <time>2022-04-15T07:51:36Z</time>
      </trkpt>
      <trkpt lat="45.37246" lon="5.61709">
        <ele>437.4</ele>
        <time>2022-04-15T07:51:37Z</time>
      </trkpt>
      <trkpt lat="45.37246" lon="5.61711">
        <ele>437.6</ele>
        <time>2022-04-15T07:51:38Z</time>
      </trkpt>
      <trkpt lat="45.37246" lon="5.61713">
        <ele>437.7</ele>
        <time>2022-04-15T07:51:39Z</time>
      </trkpt>
      <trkpt lat="45.37246" lon="5.61715">
        <ele>437.9</ele>
        <time>2022-04-15T07:51:40Z</time>
      </trkpt>
      <trkpt lat="45.37246" lon="5.61717">
        <ele>438</ele>
        <time>2022-04-15T07:51:41Z</time>
      </trkpt>
      <trkpt lat="45.37246" lon="5.61719">
        <ele>438.1</ele>
        <time>2022-04-15T07:51:42Z</time>
      </trkpt>
      <trkpt lat="45.37246" lon="5.6172">
        <ele>438.2</ele>
        <time>2022-04-15T07:51:43Z</time>
      </trkpt>
      <trkpt lat="45.37246" lon="5.61722">
        <ele>438.3</ele>
        <time>2022-04-15T07:51:44Z</time>
      </trkpt>
      <trkpt lat="45.37246" lon="5.61724">
        <ele>438.4</ele>
        <time>2022-04-15T07:51:45Z</time>
      </trkpt>
      <trkpt lat="45.37246" lon="5.61726">
        <ele>438.5</ele>
        <time>2022-04-15T07:51:46Z</time>
      </trkpt>
      <trkpt lat="45.37246" lon="5.61727">
        <ele>438.6</ele>
        <time>2022-04-15T07:51:47Z</time>
      </trkpt>
      <trkpt lat="45.37246" lon="5.61729">
        <ele>438.7</ele>
        <time>2022-04-15T07:51:48Z</time>
      </trkpt>
      <trkpt lat="45.37246" lon="5.61731">
        <ele>438.9</ele>
        <time>2022-04-15T07:51:49Z</time>
      </trkpt>
      <trkpt lat="45.37247" lon="5.61734">
        <ele>439.1</ele>
        <time>2022-04-15T07:51:50Z</time>
      </trkpt>
      <trkpt lat="45.37247" lon="5.61735">
        <ele>439.1</ele>
        <time>2022-04-15T07:51:51Z</time>
      </trkpt>
      <trkpt lat="45.37247" lon="5.61736">
        <ele>439.2</ele>
        <time>2022-04-15T07:51:52Z</time>
      </trkpt>
      <trkpt lat="45.37247" lon="5.61738">
        <ele>439.3</ele>
        <time>2022-04-15T07:51:53Z</time>
      </trkpt>
      <trkpt lat="45.37247" lon="5.6174">
        <ele>439.5</ele>
        <time>2022-04-15T07:51:54Z</time>
      </trkpt>
      <trkpt lat="45.37247" lon="5.61743">
        <ele>439.6</ele>
        <time>2022-04-15T07:51:55Z</time>
      </trkpt>
      <trkpt lat="45.37247" lon="5.61745">
        <ele>439.8</ele>
        <time>2022-04-15T07:51:56Z</time>
      </trkpt>
      <trkpt lat="45.37247" lon="5.61747">
        <ele>439.9</ele>
        <time>2022-04-15T07:51:57Z</time>
      </trkpt>
      <trkpt lat="45.37247" lon="5.61749">
        <ele>440</ele>
        <time>2022-04-15T07:51:58Z</time>
      </trkpt>
      <trkpt lat="45.37248" lon="5.61751">
        <ele>440.2</ele>
        <time>2022-04-15T07:51:59Z</time>
      </trkpt>
      <trkpt lat="45.37248" lon="5.61752">
        <ele>440.2</ele>
        <time>2022-04-15T07:52:00Z</time>
      </trkpt>
      <trkpt lat="45.37248" lon="5.61754">
        <ele>440.3</ele>
        <time>2022-04-15T07:52:01Z</time>
      </trkpt>
      <trkpt lat="45.37247" lon="5.61756">
        <ele>440.5</ele>
        <time>2022-04-15T07:52:02Z</time>
      </trkpt>
      <trkpt lat="45.37247" lon="5.61758">
        <ele>440.6</ele>
        <time>2022-04-15T07:52:03Z</time>
      </trkpt>
      <trkpt lat="45.37247" lon="5.61762">
        <ele>440.9</ele>
        <time>2022-04-15T07:52:04Z</time>
      </trkpt>
      <trkpt lat="45.37247" lon="5.61764">
        <ele>441</ele>
        <time>2022-04-15T07:52:05Z</time>
      </trkpt>
      <trkpt lat="45.37248" lon="5.61768">
        <ele>441.2</ele>
        <time>2022-04-15T07:52:06Z</time>
      </trkpt>
      <trkpt lat="45.37248" lon="5.61769">
        <ele>441.3</ele>
        <time>2022-04-15T07:52:07Z</time>
      </trkpt>
      <trkpt lat="45.37248" lon="5.61771">
        <ele>441.5</ele>
        <time>2022-04-15T07:52:08Z</time>
      </trkpt>
      <trkpt lat="45.37248" lon="5.61773">
        <ele>441.6</ele>
        <time>2022-04-15T07:52:09Z</time>
      </trkpt>
      <trkpt lat="45.37248" lon="5.61775">
        <ele>441.7</ele>
        <time>2022-04-15T07:52:10Z</time>
      </trkpt>
      <trkpt lat="45.37248" lon="5.61778">
        <ele>441.9</ele>
        <time>2022-04-15T07:52:11Z</time>
      </trkpt>
      <trkpt lat="45.37249" lon="5.6178">
        <ele>442</ele>
        <time>2022-04-15T07:52:12Z</time>
      </trkpt>
      <trkpt lat="45.37249" lon="5.61782">
        <ele>442.2</ele>
        <time>2022-04-15T07:52:13Z</time>
      </trkpt>
      <trkpt lat="45.3725" lon="5.61784">
        <ele>442.3</ele>
        <time>2022-04-15T07:52:14Z</time>
      </trkpt>
      <trkpt lat="45.3725" lon="5.61786">
        <ele>442.5</ele>
        <time>2022-04-15T07:52:15Z</time>
      </trkpt>
      <trkpt lat="45.37251" lon="5.61788">
        <ele>442.6</ele>
        <time>2022-04-15T07:52:16Z</time>
      </trkpt>
      <trkpt lat="45.37251" lon="5.6179">
        <ele>442.7</ele>
        <time>2022-04-15T07:52:17Z</time>
      </trkpt>
      <trkpt lat="45.37252" lon="5.61792">
        <ele>442.9</ele>
        <time>2022-04-15T07:52:18Z</time>
      </trkpt>
      <trkpt lat="45.37252" lon="5.61794">
        <ele>443</ele>
        <time>2022-04-15T07:52:19Z</time>
      </trkpt>
      <trkpt lat="45.37253" lon="5.61796">
        <ele>443.1</ele>
        <time>2022-04-15T07:52:20Z</time>
      </trkpt>
      <trkpt lat="45.37254" lon="5.61798">
        <ele>443.3</ele>
        <time>2022-04-15T07:52:21Z</time>
      </trkpt>
      <trkpt lat="45.37254" lon="5.61799">
        <ele>443.4</ele>
        <time>2022-04-15T07:52:22Z</time>
      </trkpt>
      <trkpt lat="45.37255" lon="5.61801">
        <ele>443.5</ele>
        <time>2022-04-15T07:52:23Z</time>
      </trkpt>
      <trkpt lat="45.37255" lon="5.61803">
        <ele>443.7</ele>
        <time>2022-04-15T07:52:24Z</time>
      </trkpt>
      <trkpt lat="45.37256" lon="5.61805">
        <ele>443.8</ele>
        <time>2022-04-15T07:52:25Z</time>
      </trkpt>
      <trkpt lat="45.37257" lon="5.61808">
        <ele>444</ele>
        <time>2022-04-15T07:52:26Z</time>
      </trkpt>
      <trkpt lat="45.37257" lon="5.6181">
        <ele>444.1</ele>
        <time>2022-04-15T07:52:27Z</time>
      </trkpt>
      <trkpt lat="45.37258" lon="5.61812">
        <ele>444.3</ele>
        <time>2022-04-15T07:52:28Z</time>
      </trkpt>
      <trkpt lat="45.37258" lon="5.61814">
        <ele>444.4</ele>
        <time>2022-04-15T07:52:29Z</time>
      </trkpt>
      <trkpt lat="45.37258" lon="5.61816">
        <ele>444.5</ele>
        <time>2022-04-15T07:52:30Z</time>
      </trkpt>
      <trkpt lat="45.37259" lon="5.61818">
        <ele>444.7</ele>
        <time>2022-04-15T07:52:31Z</time>
      </trkpt>
      <trkpt lat="45.37259" lon="5.6182">
        <ele>444.8</ele>
        <time>2022-04-15T07:52:32Z</time>
      </trkpt>
      <trkpt lat="45.37259" lon="5.61822">
        <ele>444.9</ele>
        <time>2022-04-15T07:52:33Z</time>
      </trkpt>
      <trkpt lat="45.37259" lon="5.61825">
        <ele>445.1</ele>
        <time>2022-04-15T07:52:34Z</time>
      </trkpt>
      <trkpt lat="45.37259" lon="5.61827">
        <ele>445.2</ele>
        <time>2022-04-15T07:52:35Z</time>
      </trkpt>
      <trkpt lat="45.37258" lon="5.61829">
        <ele>445.3</ele>
        <time>2022-04-15T07:52:36Z</time>
      </trkpt>
      <trkpt lat="45.37257" lon="5.61831">
        <ele>445.5</ele>
        <time>2022-04-15T07:52:37Z</time>
      </trkpt>
      <trkpt lat="45.37256" lon="5.61834">
        <ele>445.7</ele>
        <time>2022-04-15T07:52:38Z</time>
      </trkpt>
      <trkpt lat="45.37255" lon="5.61836">
        <ele>445.8</ele>
        <time>2022-04-15T07:52:39Z</time>
      </trkpt>
      <trkpt lat="45.37254" lon="5.61839">
        <ele>446</ele>
        <time>2022-04-15T07:52:40Z</time>
      </trkpt>
      <trkpt lat="45.37253" lon="5.6184">
        <ele>446.1</ele>
        <time>2022-04-15T07:52:41Z</time>
      </trkpt>
      <trkpt lat="45.37252" lon="5.61842">
        <ele>446.2</ele>
        <time>2022-04-15T07:52:42Z</time>
      </trkpt>
      <trkpt lat="45.37252" lon="5.61843">
        <ele>446.3</ele>
        <time>2022-04-15T07:52:43Z</time>
      </trkpt>
      <trkpt lat="45.3725" lon="5.61846">
        <ele>446.5</ele>
        <time>2022-04-15T07:52:44Z</time>
      </trkpt>
      <trkpt lat="45.3725" lon="5.61847">
        <ele>446.6</ele>
        <time>2022-04-15T07:52:45Z</time>
      </trkpt>
      <trkpt lat="45.37249" lon="5.61848">
        <ele>446.6</ele>
        <time>2022-04-15T07:52:46Z</time>
      </trkpt>
      <trkpt lat="45.37249" lon="5.61849">
        <ele>446.8</ele>
        <time>2022-04-15T07:52:47Z</time>
      </trkpt>
      <trkpt lat="45.37248" lon="5.61851">
        <ele>446.9</ele>
        <time>2022-04-15T07:52:48Z</time>
      </trkpt>
      <trkpt lat="45.37246" lon="5.61853">
        <ele>447</ele>
        <time>2022-04-15T07:52:49Z</time>
      </trkpt>
      <trkpt lat="45.37246" lon="5.61854">
        <ele>447.1</ele>
        <time>2022-04-15T07:52:50Z</time>
      </trkpt>
      <trkpt lat="45.37245" lon="5.61855">
        <ele>447.2</ele>
        <time>2022-04-15T07:52:51Z</time>
      </trkpt>
      <trkpt lat="45.37243" lon="5.61858">
        <ele>447.4</ele>
        <time>2022-04-15T07:52:52Z</time>
      </trkpt>
      <trkpt lat="45.37242" lon="5.61859">
        <ele>447.5</ele>
        <time>2022-04-15T07:52:53Z</time>
      </trkpt>
      <trkpt lat="45.37241" lon="5.61861">
        <ele>447.7</ele>
        <time>2022-04-15T07:52:54Z</time>
      </trkpt>
      <trkpt lat="45.3724" lon="5.61862">
        <ele>447.8</ele>
        <time>2022-04-15T07:52:55Z</time>
      </trkpt>
      <trkpt lat="45.37239" lon="5.61863">
        <ele>447.8</ele>
        <time>2022-04-15T07:52:56Z</time>
      </trkpt>
      <trkpt lat="45.37238" lon="5.61865">
        <ele>448</ele>
        <time>2022-04-15T07:52:57Z</time>
      </trkpt>
      <trkpt lat="45.37237" lon="5.61867">
        <ele>448.1</ele>
        <time>2022-04-15T07:52:58Z</time>
      </trkpt>
      <trkpt lat="45.37237" lon="5.61869">
        <ele>448.2</ele>
        <time>2022-04-15T07:52:59Z</time>
      </trkpt>
      <trkpt lat="45.37236" lon="5.6187">
        <ele>448.3</ele>
        <time>2022-04-15T07:53:00Z</time>
      </trkpt>
      <trkpt lat="45.37235" lon="5.61873">
        <ele>448.5</ele>
        <time>2022-04-15T07:53:01Z</time>
      </trkpt>
      <trkpt lat="45.37235" lon="5.61874">
        <ele>448.6</ele>
        <time>2022-04-15T07:53:02Z</time>
      </trkpt>
      <trkpt lat="45.37235" lon="5.61875">
        <ele>448.6</ele>
        <time>2022-04-15T07:53:03Z</time>
      </trkpt>
      <trkpt lat="45.37234" lon="5.61877">
        <ele>448.7</ele>
        <time>2022-04-15T07:53:04Z</time>
      </trkpt>
      <trkpt lat="45.37234" lon="5.61879">
        <ele>448.9</ele>
        <time>2022-04-15T07:53:05Z</time>
      </trkpt>
      <trkpt lat="45.37234" lon="5.61881">
        <ele>449</ele>
        <time>2022-04-15T07:53:06Z</time>
      </trkpt>
      <trkpt lat="45.37233" lon="5.61883">
        <ele>449.1</ele>
        <time>2022-04-15T07:53:07Z</time>
      </trkpt>
      <trkpt lat="45.37233" lon="5.61886">
        <ele>449.2</ele>
        <time>2022-04-15T07:53:08Z</time>
      </trkpt>
      <trkpt lat="45.37233" lon="5.61888">
        <ele>449.4</ele>
        <time>2022-04-15T07:53:09Z</time>
      </trkpt>
      <trkpt lat="45.37232" lon="5.6189">
        <ele>449.5</ele>
        <time>2022-04-15T07:53:10Z</time>
      </trkpt>
      <trkpt lat="45.37232" lon="5.61892">
        <ele>449.6</ele>
        <time>2022-04-15T07:53:11Z</time>
      </trkpt>
      <trkpt lat="45.37232" lon="5.61896">
        <ele>449.9</ele>
        <time>2022-04-15T07:53:12Z</time>
      </trkpt>
      <trkpt lat="45.37231" lon="5.61897">
        <ele>449.9</ele>
        <time>2022-04-15T07:53:13Z</time>
      </trkpt>
      <trkpt lat="45.37231" lon="5.61899">
        <ele>450.1</ele>
        <time>2022-04-15T07:53:14Z</time>
      </trkpt>
      <trkpt lat="45.37231" lon="5.61902">
        <ele>450.2</ele>
        <time>2022-04-15T07:53:15Z</time>
      </trkpt>
      <trkpt lat="45.3723" lon="5.61904">
        <ele>450.3</ele>
        <time>2022-04-15T07:53:16Z</time>
      </trkpt>
      <trkpt lat="45.3723" lon="5.61907">
        <ele>450.5</ele>
        <time>2022-04-15T07:53:17Z</time>
      </trkpt>
      <trkpt lat="45.3723" lon="5.61911">
        <ele>450.7</ele>
        <time>2022-04-15T07:53:18Z</time>
      </trkpt>
      <trkpt lat="45.37229" lon="5.61912">
        <ele>450.8</ele>
        <time>2022-04-15T07:53:19Z</time>
      </trkpt>
      <trkpt lat="45.37229" lon="5.61914">
        <ele>450.9</ele>
        <time>2022-04-15T07:53:20Z</time>
      </trkpt>
      <trkpt lat="45.37229" lon="5.61917">
        <ele>451.2</ele>
        <time>2022-04-15T07:53:21Z</time>
      </trkpt>
      <trkpt lat="45.37228" lon="5.6192">
        <ele>451.4</ele>
        <time>2022-04-15T07:53:22Z</time>
      </trkpt>
      <trkpt lat="45.37227" lon="5.61921">
        <ele>451.4</ele>
        <time>2022-04-15T07:53:23Z</time>
      </trkpt>
      <trkpt lat="45.37227" lon="5.61922">
        <ele>451.5</ele>
        <time>2022-04-15T07:53:24Z</time>
      </trkpt>
      <trkpt lat="45.37226" lon="5.61922">
        <ele>451.5</ele>
        <time>2022-04-15T07:53:25Z</time>
      </trkpt>
      <trkpt lat="45.37226" lon="5.61923">
        <ele>451.5</ele>
        <time>2022-04-15T07:53:26Z</time>
      </trkpt>
      <trkpt lat="45.37226" lon="5.61922">
        <ele>451.5</ele>
        <time>2022-04-15T07:53:27Z</time>
      </trkpt>
      <trkpt lat="45.37227" lon="5.61922">
        <ele>451.6</ele>
        <time>2022-04-15T07:53:28Z</time>
      </trkpt>
      <trkpt lat="45.37227" lon="5.61923">
        <ele>451.6</ele>
        <time>2022-04-15T07:53:29Z</time>
      </trkpt>
      <trkpt lat="45.37227" lon="5.61923">
        <ele>451.6</ele>
        <time>2022-04-15T07:53:30Z</time>
      </trkpt>
      <trkpt lat="45.37227" lon="5.61923">
        <ele>451.6</ele>
        <time>2022-04-15T07:53:31Z</time>
      </trkpt>
      <trkpt lat="45.37227" lon="5.61924">
        <ele>451.6</ele>
        <time>2022-04-15T07:53:32Z</time>
      </trkpt>
      <trkpt lat="45.37227" lon="5.61924">
        <ele>451.6</ele>
        <time>2022-04-15T07:53:33Z</time>
      </trkpt>
      <trkpt lat="45.37227" lon="5.61924">
        <ele>451.7</ele>
        <time>2022-04-15T07:53:34Z</time>
      </trkpt>
      <trkpt lat="45.37227" lon="5.61925">
        <ele>451.7</ele>
        <time>2022-04-15T07:53:35Z</time>
      </trkpt>
      <trkpt lat="45.37227" lon="5.61926">
        <ele>451.8</ele>
        <time>2022-04-15T07:53:36Z</time>
      </trkpt>
      <trkpt lat="45.37228" lon="5.61929">
        <ele>451.9</ele>
        <time>2022-04-15T07:53:37Z</time>
      </trkpt>
      <trkpt lat="45.37228" lon="5.61928">
        <ele>451.9</ele>
        <time>2022-04-15T07:53:38Z</time>
      </trkpt>
      <trkpt lat="45.37229" lon="5.6193">
        <ele>452</ele>
        <time>2022-04-15T07:53:39Z</time>
      </trkpt>
      <trkpt lat="45.3723" lon="5.61934">
        <ele>452.3</ele>
        <time>2022-04-15T07:53:40Z</time>
      </trkpt>
      <trkpt lat="45.37231" lon="5.61935">
        <ele>452.4</ele>
        <time>2022-04-15T07:53:41Z</time>
      </trkpt>
      <trkpt lat="45.37232" lon="5.6194">
        <ele>452.6</ele>
        <time>2022-04-15T07:53:42Z</time>
      </trkpt>
      <trkpt lat="45.37232" lon="5.61942">
        <ele>452.7</ele>
        <time>2022-04-15T07:53:43Z</time>
      </trkpt>
      <trkpt lat="45.37232" lon="5.61946">
        <ele>453</ele>
        <time>2022-04-15T07:53:44Z</time>
      </trkpt>
      <trkpt lat="45.37232" lon="5.61947">
        <ele>453.1</ele>
        <time>2022-04-15T07:53:45Z</time>
      </trkpt>
      <trkpt lat="45.37233" lon="5.61952">
        <ele>453.4</ele>
        <time>2022-04-15T07:53:47Z</time>
      </trkpt>
      <trkpt lat="45.37233" lon="5.61954">
        <ele>453.6</ele>
        <time>2022-04-15T07:53:48Z</time>
      </trkpt>
      <trkpt lat="45.37232" lon="5.61956">
        <ele>453.7</ele>
        <time>2022-04-15T07:53:49Z</time>
      </trkpt>
      <trkpt lat="45.37233" lon="5.61961">
        <ele>454</ele>
        <time>2022-04-15T07:53:51Z</time>
      </trkpt>
      <trkpt lat="45.37232" lon="5.61963">
        <ele>454.2</ele>
        <time>2022-04-15T07:53:52Z</time>
      </trkpt>
      <trkpt lat="45.37232" lon="5.61965">
        <ele>454.3</ele>
        <time>2022-04-15T07:53:53Z</time>
      </trkpt>
      <trkpt lat="45.37232" lon="5.61967">
        <ele>454.5</ele>
        <time>2022-04-15T07:53:54Z</time>
      </trkpt>
      <trkpt lat="45.3723" lon="5.6197">
        <ele>454.8</ele>
        <time>2022-04-15T07:53:56Z</time>
      </trkpt>
      <trkpt lat="45.37231" lon="5.61972">
        <ele>454.9</ele>
        <time>2022-04-15T07:53:57Z</time>
      </trkpt>
      <trkpt lat="45.37231" lon="5.61974">
        <ele>455</ele>
        <time>2022-04-15T07:53:58Z</time>
      </trkpt>
      <trkpt lat="45.3723" lon="5.61979">
        <ele>455.4</ele>
        <time>2022-04-15T07:54:00Z</time>
      </trkpt>
      <trkpt lat="45.3723" lon="5.6198">
        <ele>455.5</ele>
        <time>2022-04-15T07:54:01Z</time>
      </trkpt>
      <trkpt lat="45.3723" lon="5.61982">
        <ele>455.7</ele>
        <time>2022-04-15T07:54:02Z</time>
      </trkpt>
      <trkpt lat="45.3723" lon="5.61987">
        <ele>456</ele>
        <time>2022-04-15T07:54:04Z</time>
      </trkpt>
      <trkpt lat="45.3723" lon="5.61989">
        <ele>456.1</ele>
        <time>2022-04-15T07:54:05Z</time>
      </trkpt>
      <trkpt lat="45.37229" lon="5.61991">
        <ele>456.3</ele>
        <time>2022-04-15T07:54:06Z</time>
      </trkpt>
      <trkpt lat="45.37229" lon="5.61993">
        <ele>456.5</ele>
        <time>2022-04-15T07:54:07Z</time>
      </trkpt>
      <trkpt lat="45.37228" lon="5.61995">
        <ele>456.6</ele>
        <time>2022-04-15T07:54:08Z</time>
      </trkpt>
      <trkpt lat="45.37228" lon="5.61997">
        <ele>456.8</ele>
        <time>2022-04-15T07:54:09Z</time>
      </trkpt>
      <trkpt lat="45.37228" lon="5.61999">
        <ele>456.9</ele>
        <time>2022-04-15T07:54:10Z</time>
      </trkpt>
      <trkpt lat="45.37227" lon="5.62002">
        <ele>457.2</ele>
        <time>2022-04-15T07:54:12Z</time>
      </trkpt>
      <trkpt lat="45.37225" lon="5.62005">
        <ele>457.5</ele>
        <time>2022-04-15T07:54:14Z</time>
      </trkpt>
      <trkpt lat="45.37225" lon="5.62007">
        <ele>457.6</ele>
        <time>2022-04-15T07:54:15Z</time>
      </trkpt>
      <trkpt lat="45.37224" lon="5.62012">
        <ele>457.9</ele>
        <time>2022-04-15T07:54:17Z</time>
      </trkpt>
      <trkpt lat="45.37223" lon="5.62016">
        <ele>458.3</ele>
        <time>2022-04-15T07:54:19Z</time>
      </trkpt>
      <trkpt lat="45.37223" lon="5.62017">
        <ele>458.4</ele>
        <time>2022-04-15T07:54:20Z</time>
      </trkpt>
      <trkpt lat="45.37222" lon="5.6202">
        <ele>458.6</ele>
        <time>2022-04-15T07:54:21Z</time>
      </trkpt>
      <trkpt lat="45.37222" lon="5.62021">
        <ele>458.7</ele>
        <time>2022-04-15T07:54:22Z</time>
      </trkpt>
      <trkpt lat="45.37222" lon="5.62022">
        <ele>458.7</ele>
        <time>2022-04-15T07:54:23Z</time>
      </trkpt>
      <trkpt lat="45.37222" lon="5.62025">
        <ele>458.9</ele>
        <time>2022-04-15T07:54:24Z</time>
      </trkpt>
      <trkpt lat="45.37222" lon="5.62027">
        <ele>459</ele>
        <time>2022-04-15T07:54:25Z</time>
      </trkpt>
      <trkpt lat="45.37222" lon="5.6203">
        <ele>459.2</ele>
        <time>2022-04-15T07:54:26Z</time>
      </trkpt>
      <trkpt lat="45.37222" lon="5.62031">
        <ele>459.3</ele>
        <time>2022-04-15T07:54:27Z</time>
      </trkpt>
      <trkpt lat="45.37222" lon="5.62032">
        <ele>459.4</ele>
        <time>2022-04-15T07:54:28Z</time>
      </trkpt>
      <trkpt lat="45.37222" lon="5.62034">
        <ele>459.5</ele>
        <time>2022-04-15T07:54:29Z</time>
      </trkpt>
      <trkpt lat="45.37222" lon="5.62036">
        <ele>459.7</ele>
        <time>2022-04-15T07:54:30Z</time>
      </trkpt>
      <trkpt lat="45.37221" lon="5.62037">
        <ele>459.7</ele>
        <time>2022-04-15T07:54:31Z</time>
      </trkpt>
      <trkpt lat="45.37221" lon="5.62039">
        <ele>459.9</ele>
        <time>2022-04-15T07:54:32Z</time>
      </trkpt>
      <trkpt lat="45.37221" lon="5.62041">
        <ele>460</ele>
        <time>2022-04-15T07:54:33Z</time>
      </trkpt>
      <trkpt lat="45.37221" lon="5.62044">
        <ele>460.2</ele>
        <time>2022-04-15T07:54:34Z</time>
      </trkpt>
      <trkpt lat="45.37221" lon="5.62045">
        <ele>460.3</ele>
        <time>2022-04-15T07:54:35Z</time>
      </trkpt>
      <trkpt lat="45.37221" lon="5.62047">
        <ele>460.4</ele>
        <time>2022-04-15T07:54:36Z</time>
      </trkpt>
      <trkpt lat="45.3722" lon="5.62049">
        <ele>460.6</ele>
        <time>2022-04-15T07:54:37Z</time>
      </trkpt>
      <trkpt lat="45.3722" lon="5.62051">
        <ele>460.7</ele>
        <time>2022-04-15T07:54:38Z</time>
      </trkpt>
      <trkpt lat="45.3722" lon="5.62053">
        <ele>460.9</ele>
        <time>2022-04-15T07:54:39Z</time>
      </trkpt>
      <trkpt lat="45.37219" lon="5.62055">
        <ele>461</ele>
        <time>2022-04-15T07:54:40Z</time>
      </trkpt>
      <trkpt lat="45.37219" lon="5.62057">
        <ele>461.2</ele>
        <time>2022-04-15T07:54:41Z</time>
      </trkpt>
      <trkpt lat="45.37219" lon="5.62059">
        <ele>461.3</ele>
        <time>2022-04-15T07:54:42Z</time>
      </trkpt>
      <trkpt lat="45.3722" lon="5.62061">
        <ele>461.4</ele>
        <time>2022-04-15T07:54:43Z</time>
      </trkpt>
      <trkpt lat="45.3722" lon="5.62063">
        <ele>461.6</ele>
        <time>2022-04-15T07:54:44Z</time>
      </trkpt>
      <trkpt lat="45.3722" lon="5.62066">
        <ele>461.8</ele>
        <time>2022-04-15T07:54:45Z</time>
      </trkpt>
      <trkpt lat="45.37221" lon="5.62067">
        <ele>461.9</ele>
        <time>2022-04-15T07:54:46Z</time>
      </trkpt>
      <trkpt lat="45.37221" lon="5.62069">
        <ele>462</ele>
        <time>2022-04-15T07:54:47Z</time>
      </trkpt>
      <trkpt lat="45.37222" lon="5.62071">
        <ele>462.2</ele>
        <time>2022-04-15T07:54:48Z</time>
      </trkpt>
      <trkpt lat="45.37222" lon="5.62073">
        <ele>462.3</ele>
        <time>2022-04-15T07:54:49Z</time>
      </trkpt>
      <trkpt lat="45.37223" lon="5.62074">
        <ele>462.4</ele>
        <time>2022-04-15T07:54:50Z</time>
      </trkpt>
      <trkpt lat="45.37224" lon="5.62078">
        <ele>462.7</ele>
        <time>2022-04-15T07:54:52Z</time>
      </trkpt>
      <trkpt lat="45.37224" lon="5.62079">
        <ele>462.8</ele>
        <time>2022-04-15T07:54:53Z</time>
      </trkpt>
      <trkpt lat="45.37224" lon="5.62084">
        <ele>463.1</ele>
        <time>2022-04-15T07:54:55Z</time>
      </trkpt>
      <trkpt lat="45.37225" lon="5.62085">
        <ele>463.2</ele>
        <time>2022-04-15T07:54:56Z</time>
      </trkpt>
      <trkpt lat="45.37226" lon="5.62089">
        <ele>463.5</ele>
        <time>2022-04-15T07:54:58Z</time>
      </trkpt>
      <trkpt lat="45.37226" lon="5.6209">
        <ele>463.6</ele>
        <time>2022-04-15T07:54:59Z</time>
      </trkpt>
      <trkpt lat="45.37227" lon="5.62093">
        <ele>463.8</ele>
        <time>2022-04-15T07:55:00Z</time>
      </trkpt>
      <trkpt lat="45.37227" lon="5.62096">
        <ele>464</ele>
        <time>2022-04-15T07:55:02Z</time>
      </trkpt>
      <trkpt lat="45.37228" lon="5.62099">
        <ele>464.2</ele>
        <time>2022-04-15T07:55:03Z</time>
      </trkpt>
      <trkpt lat="45.37228" lon="5.621">
        <ele>464.3</ele>
        <time>2022-04-15T07:55:04Z</time>
      </trkpt>
      <trkpt lat="45.37228" lon="5.62101">
        <ele>464.4</ele>
        <time>2022-04-15T07:55:05Z</time>
      </trkpt>
      <trkpt lat="45.37228" lon="5.62103">
        <ele>464.5</ele>
        <time>2022-04-15T07:55:06Z</time>
      </trkpt>
      <trkpt lat="45.37228" lon="5.62107">
        <ele>464.8</ele>
        <time>2022-04-15T07:55:08Z</time>
      </trkpt>
      <trkpt lat="45.37228" lon="5.62111">
        <ele>465.1</ele>
        <time>2022-04-15T07:55:09Z</time>
      </trkpt>
      <trkpt lat="45.37228" lon="5.62113">
        <ele>465.2</ele>
        <time>2022-04-15T07:55:10Z</time>
      </trkpt>
      <trkpt lat="45.37227" lon="5.62117">
        <ele>465.5</ele>
        <time>2022-04-15T07:55:12Z</time>
      </trkpt>
      <trkpt lat="45.37227" lon="5.62119">
        <ele>465.6</ele>
        <time>2022-04-15T07:55:13Z</time>
      </trkpt>
      <trkpt lat="45.37227" lon="5.62121">
        <ele>465.8</ele>
        <time>2022-04-15T07:55:14Z</time>
      </trkpt>
      <trkpt lat="45.37226" lon="5.62123">
        <ele>466</ele>
        <time>2022-04-15T07:55:15Z</time>
      </trkpt>
      <trkpt lat="45.37225" lon="5.62125">
        <ele>466.1</ele>
        <time>2022-04-15T07:55:16Z</time>
      </trkpt>
      <trkpt lat="45.37224" lon="5.62127">
        <ele>466.3</ele>
        <time>2022-04-15T07:55:17Z</time>
      </trkpt>
      <trkpt lat="45.37224" lon="5.62129">
        <ele>466.4</ele>
        <time>2022-04-15T07:55:18Z</time>
      </trkpt>
      <trkpt lat="45.37224" lon="5.62131">
        <ele>466.6</ele>
        <time>2022-04-15T07:55:19Z</time>
      </trkpt>
      <trkpt lat="45.37224" lon="5.62133">
        <ele>466.7</ele>
        <time>2022-04-15T07:55:20Z</time>
      </trkpt>
      <trkpt lat="45.37223" lon="5.62136">
        <ele>466.9</ele>
        <time>2022-04-15T07:55:21Z</time>
      </trkpt>
      <trkpt lat="45.37224" lon="5.62137">
        <ele>467</ele>
        <time>2022-04-15T07:55:22Z</time>
      </trkpt>
      <trkpt lat="45.37224" lon="5.62141">
        <ele>467.3</ele>
        <time>2022-04-15T07:55:23Z</time>
      </trkpt>
      <trkpt lat="45.37224" lon="5.62143">
        <ele>467.4</ele>
        <time>2022-04-15T07:55:24Z</time>
      </trkpt>
      <trkpt lat="45.37224" lon="5.62144">
        <ele>467.5</ele>
        <time>2022-04-15T07:55:25Z</time>
      </trkpt>
      <trkpt lat="45.37224" lon="5.62147">
        <ele>467.7</ele>
        <time>2022-04-15T07:55:26Z</time>
      </trkpt>
      <trkpt lat="45.37223" lon="5.62149">
        <ele>467.8</ele>
        <time>2022-04-15T07:55:27Z</time>
      </trkpt>
      <trkpt lat="45.37223" lon="5.62151">
        <ele>468</ele>
        <time>2022-04-15T07:55:28Z</time>
      </trkpt>
      <trkpt lat="45.37223" lon="5.62153">
        <ele>468.2</ele>
        <time>2022-04-15T07:55:29Z</time>
      </trkpt>
      <trkpt lat="45.37223" lon="5.62157">
        <ele>468.4</ele>
        <time>2022-04-15T07:55:30Z</time>
      </trkpt>
      <trkpt lat="45.37222" lon="5.62158">
        <ele>468.5</ele>
        <time>2022-04-15T07:55:31Z</time>
      </trkpt>
      <trkpt lat="45.37222" lon="5.62159">
        <ele>468.6</ele>
        <time>2022-04-15T07:55:32Z</time>
      </trkpt>
      <trkpt lat="45.37222" lon="5.62162">
        <ele>468.8</ele>
        <time>2022-04-15T07:55:33Z</time>
      </trkpt>
      <trkpt lat="45.37221" lon="5.62165">
        <ele>469</ele>
        <time>2022-04-15T07:55:35Z</time>
      </trkpt>
      <trkpt lat="45.37221" lon="5.62167">
        <ele>469.2</ele>
        <time>2022-04-15T07:55:36Z</time>
      </trkpt>
      <trkpt lat="45.37221" lon="5.62169">
        <ele>469.3</ele>
        <time>2022-04-15T07:55:37Z</time>
      </trkpt>
      <trkpt lat="45.37219" lon="5.62172">
        <ele>469.6</ele>
        <time>2022-04-15T07:55:39Z</time>
      </trkpt>
      <trkpt lat="45.37219" lon="5.62175">
        <ele>469.8</ele>
        <time>2022-04-15T07:55:40Z</time>
      </trkpt>
      <trkpt lat="45.37218" lon="5.62176">
        <ele>469.9</ele>
        <time>2022-04-15T07:55:41Z</time>
      </trkpt>
      <trkpt lat="45.37218" lon="5.62177">
        <ele>469.9</ele>
        <time>2022-04-15T07:55:42Z</time>
      </trkpt>
      <trkpt lat="45.37217" lon="5.62179">
        <ele>470.1</ele>
        <time>2022-04-15T07:55:43Z</time>
      </trkpt>
      <trkpt lat="45.37217" lon="5.6218">
        <ele>470.2</ele>
        <time>2022-04-15T07:55:44Z</time>
      </trkpt>
      <trkpt lat="45.37216" lon="5.62181">
        <ele>470.3</ele>
        <time>2022-04-15T07:55:45Z</time>
      </trkpt>
      <trkpt lat="45.37216" lon="5.62182">
        <ele>470.4</ele>
        <time>2022-04-15T07:55:46Z</time>
      </trkpt>
      <trkpt lat="45.37214" lon="5.62185">
        <ele>470.6</ele>
        <time>2022-04-15T07:55:48Z</time>
      </trkpt>
      <trkpt lat="45.37213" lon="5.62187">
        <ele>470.8</ele>
        <time>2022-04-15T07:55:49Z</time>
      </trkpt>
      <trkpt lat="45.37213" lon="5.62188">
        <ele>470.9</ele>
        <time>2022-04-15T07:55:50Z</time>
      </trkpt>
      <trkpt lat="45.37211" lon="5.62191">
        <ele>471.2</ele>
        <time>2022-04-15T07:55:51Z</time>
      </trkpt>
      <trkpt lat="45.37211" lon="5.62193">
        <ele>471.3</ele>
        <time>2022-04-15T07:55:53Z</time>
      </trkpt>
      <trkpt lat="45.3721" lon="5.62193">
        <ele>471.4</ele>
        <time>2022-04-15T07:55:54Z</time>
      </trkpt>
      <trkpt lat="45.37208" lon="5.62196">
        <ele>471.7</ele>
        <time>2022-04-15T07:55:56Z</time>
      </trkpt>
      <trkpt lat="45.37207" lon="5.62199">
        <ele>471.9</ele>
        <time>2022-04-15T07:55:57Z</time>
      </trkpt>
      <trkpt lat="45.37206" lon="5.622">
        <ele>472</ele>
        <time>2022-04-15T07:55:58Z</time>
      </trkpt>
      <trkpt lat="45.37206" lon="5.62201">
        <ele>472.1</ele>
        <time>2022-04-15T07:55:59Z</time>
      </trkpt>
      <trkpt lat="45.37205" lon="5.62203">
        <ele>472.2</ele>
        <time>2022-04-15T07:56:00Z</time>
      </trkpt>
      <trkpt lat="45.37204" lon="5.62205">
        <ele>472.4</ele>
        <time>2022-04-15T07:56:01Z</time>
      </trkpt>
      <trkpt lat="45.37204" lon="5.62207">
        <ele>472.5</ele>
        <time>2022-04-15T07:56:02Z</time>
      </trkpt>
      <trkpt lat="45.37203" lon="5.62209">
        <ele>472.7</ele>
        <time>2022-04-15T07:56:03Z</time>
      </trkpt>
      <trkpt lat="45.37203" lon="5.62212">
        <ele>472.9</ele>
        <time>2022-04-15T07:56:04Z</time>
      </trkpt>
      <trkpt lat="45.37203" lon="5.62213">
        <ele>473</ele>
        <time>2022-04-15T07:56:05Z</time>
      </trkpt>
      <trkpt lat="45.37203" lon="5.62214">
        <ele>473.1</ele>
        <time>2022-04-15T07:56:06Z</time>
      </trkpt>
      <trkpt lat="45.37202" lon="5.62218">
        <ele>473.4</ele>
        <time>2022-04-15T07:56:07Z</time>
      </trkpt>
      <trkpt lat="45.37202" lon="5.62219">
        <ele>473.5</ele>
        <time>2022-04-15T07:56:08Z</time>
      </trkpt>
      <trkpt lat="45.37201" lon="5.62221">
        <ele>473.7</ele>
        <time>2022-04-15T07:56:09Z</time>
      </trkpt>
      <trkpt lat="45.372" lon="5.62223">
        <ele>473.8</ele>
        <time>2022-04-15T07:56:10Z</time>
      </trkpt>
      <trkpt lat="45.372" lon="5.62227">
        <ele>474.1</ele>
        <time>2022-04-15T07:56:12Z</time>
      </trkpt>
      <trkpt lat="45.372" lon="5.62231">
        <ele>474.4</ele>
        <time>2022-04-15T07:56:14Z</time>
      </trkpt>
      <trkpt lat="45.372" lon="5.62235">
        <ele>474.7</ele>
        <time>2022-04-15T07:56:15Z</time>
      </trkpt>
      <trkpt lat="45.372" lon="5.62238">
        <ele>474.9</ele>
        <time>2022-04-15T07:56:17Z</time>
      </trkpt>
      <trkpt lat="45.37201" lon="5.6224">
        <ele>475</ele>
        <time>2022-04-15T07:56:18Z</time>
      </trkpt>
      <trkpt lat="45.37202" lon="5.62241">
        <ele>475.1</ele>
        <time>2022-04-15T07:56:19Z</time>
      </trkpt>
      <trkpt lat="45.37205" lon="5.62244">
        <ele>475.3</ele>
        <time>2022-04-15T07:56:21Z</time>
      </trkpt>
      <trkpt lat="45.37208" lon="5.62246">
        <ele>475.4</ele>
        <time>2022-04-15T07:56:23Z</time>
      </trkpt>
      <trkpt lat="45.37209" lon="5.62248">
        <ele>475.5</ele>
        <time>2022-04-15T07:56:24Z</time>
      </trkpt>
      <trkpt lat="45.3721" lon="5.62249">
        <ele>475.6</ele>
        <time>2022-04-15T07:56:25Z</time>
      </trkpt>
      <trkpt lat="45.37212" lon="5.62251">
        <ele>475.7</ele>
        <time>2022-04-15T07:56:26Z</time>
      </trkpt>
      <trkpt lat="45.37213" lon="5.62252">
        <ele>475.7</ele>
        <time>2022-04-15T07:56:27Z</time>
      </trkpt>
      <trkpt lat="45.37214" lon="5.62253">
        <ele>475.8</ele>
        <time>2022-04-15T07:56:28Z</time>
      </trkpt>
      <trkpt lat="45.37216" lon="5.62255">
        <ele>475.9</ele>
        <time>2022-04-15T07:56:29Z</time>
      </trkpt>
      <trkpt lat="45.37217" lon="5.62256">
        <ele>475.9</ele>
        <time>2022-04-15T07:56:30Z</time>
      </trkpt>
      <trkpt lat="45.37218" lon="5.62258">
        <ele>476</ele>
        <time>2022-04-15T07:56:31Z</time>
      </trkpt>
      <trkpt lat="45.37219" lon="5.62259">
        <ele>476.1</ele>
        <time>2022-04-15T07:56:32Z</time>
      </trkpt>
      <trkpt lat="45.3722" lon="5.6226">
        <ele>476.1</ele>
        <time>2022-04-15T07:56:33Z</time>
      </trkpt>
      <trkpt lat="45.37223" lon="5.62262">
        <ele>476.2</ele>
        <time>2022-04-15T07:56:34Z</time>
      </trkpt>
      <trkpt lat="45.37224" lon="5.62263">
        <ele>476.3</ele>
        <time>2022-04-15T07:56:35Z</time>
      </trkpt>
      <trkpt lat="45.37228" lon="5.62265">
        <ele>476.4</ele>
        <time>2022-04-15T07:56:37Z</time>
      </trkpt>
      <trkpt lat="45.37229" lon="5.62265">
        <ele>476.5</ele>
        <time>2022-04-15T07:56:38Z</time>
      </trkpt>
      <trkpt lat="45.37231" lon="5.62268">
        <ele>476.6</ele>
        <time>2022-04-15T07:56:39Z</time>
      </trkpt>
      <trkpt lat="45.37232" lon="5.62269">
        <ele>476.6</ele>
        <time>2022-04-15T07:56:40Z</time>
      </trkpt>
      <trkpt lat="45.37236" lon="5.62272">
        <ele>476.7</ele>
        <time>2022-04-15T07:56:42Z</time>
      </trkpt>
      <trkpt lat="45.37237" lon="5.62273">
        <ele>476.7</ele>
        <time>2022-04-15T07:56:43Z</time>
      </trkpt>
      <trkpt lat="45.37241" lon="5.62274">
        <ele>476.8</ele>
        <time>2022-04-15T07:56:44Z</time>
      </trkpt>
      <trkpt lat="45.37242" lon="5.62274">
        <ele>476.8</ele>
        <time>2022-04-15T07:56:45Z</time>
      </trkpt>
      <trkpt lat="45.37244" lon="5.62276">
        <ele>476.9</ele>
        <time>2022-04-15T07:56:46Z</time>
      </trkpt>
      <trkpt lat="45.37247" lon="5.62278">
        <ele>476.9</ele>
        <time>2022-04-15T07:56:48Z</time>
      </trkpt>
      <trkpt lat="45.37251" lon="5.62281">
        <ele>477</ele>
        <time>2022-04-15T07:56:49Z</time>
      </trkpt>
      <trkpt lat="45.37254" lon="5.62285">
        <ele>477</ele>
        <time>2022-04-15T07:56:50Z</time>
      </trkpt>
      <trkpt lat="45.37256" lon="5.62287">
        <ele>477</ele>
        <time>2022-04-15T07:56:52Z</time>
      </trkpt>
      <trkpt lat="45.37259" lon="5.6229">
        <ele>477</ele>
        <time>2022-04-15T07:56:53Z</time>
      </trkpt>
      <trkpt lat="45.37261" lon="5.62293">
        <ele>477</ele>
        <time>2022-04-15T07:56:54Z</time>
      </trkpt>
      <trkpt lat="45.37264" lon="5.62297">
        <ele>477</ele>
        <time>2022-04-15T07:56:55Z</time>
      </trkpt>
      <trkpt lat="45.37267" lon="5.623">
        <ele>477</ele>
        <time>2022-04-15T07:56:56Z</time>
      </trkpt>
      <trkpt lat="45.37271" lon="5.62306">
        <ele>477</ele>
        <time>2022-04-15T07:56:58Z</time>
      </trkpt>
      <trkpt lat="45.37274" lon="5.62309">
        <ele>477</ele>
        <time>2022-04-15T07:56:59Z</time>
      </trkpt>
      <trkpt lat="45.3728" lon="5.62316">
        <ele>477</ele>
        <time>2022-04-15T07:57:01Z</time>
      </trkpt>
      <trkpt lat="45.37285" lon="5.62322">
        <ele>477</ele>
        <time>2022-04-15T07:57:03Z</time>
      </trkpt>
      <trkpt lat="45.37288" lon="5.62327">
        <ele>477</ele>
        <time>2022-04-15T07:57:05Z</time>
      </trkpt>
      <trkpt lat="45.37288" lon="5.62329">
        <ele>477</ele>
        <time>2022-04-15T07:57:06Z</time>
      </trkpt>
      <trkpt lat="45.37288" lon="5.62328">
        <ele>477</ele>
        <time>2022-04-15T07:57:07Z</time>
      </trkpt>
      <trkpt lat="45.37287" lon="5.62325">
        <ele>477</ele>
        <time>2022-04-15T07:57:08Z</time>
      </trkpt>
      <trkpt lat="45.37286" lon="5.62323">
        <ele>477</ele>
        <time>2022-04-15T07:57:09Z</time>
      </trkpt>
      <trkpt lat="45.37286" lon="5.62323">
        <ele>477</ele>
        <time>2022-04-15T07:57:10Z</time>
      </trkpt>
      <trkpt lat="45.37286" lon="5.62323">
        <ele>477</ele>
        <time>2022-04-15T07:57:11Z</time>
      </trkpt>
      <trkpt lat="45.37286" lon="5.62323">
        <ele>477</ele>
        <time>2022-04-15T07:57:12Z</time>
      </trkpt>
      <trkpt lat="45.37286" lon="5.62322">
        <ele>477</ele>
        <time>2022-04-15T07:57:13Z</time>
      </trkpt>
      <trkpt lat="45.37286" lon="5.62322">
        <ele>477</ele>
        <time>2022-04-15T07:57:14Z</time>
      </trkpt>
      <trkpt lat="45.37285" lon="5.62322">
        <ele>477</ele>
        <time>2022-04-15T07:57:15Z</time>
      </trkpt>
      <trkpt lat="45.37285" lon="5.62322">
        <ele>477</ele>
        <time>2022-04-15T07:57:16Z</time>
      </trkpt>
      <trkpt lat="45.37285" lon="5.62322">
        <ele>477</ele>
        <time>2022-04-15T07:57:17Z</time>
      </trkpt>
      <trkpt lat="45.37285" lon="5.62322">
        <ele>477</ele>
        <time>2022-04-15T07:57:18Z</time>
      </trkpt>
      <trkpt lat="45.37285" lon="5.62321">
        <ele>477</ele>
        <time>2022-04-15T07:57:19Z</time>
      </trkpt>
      <trkpt lat="45.37285" lon="5.62321">
        <ele>477</ele>
        <time>2022-04-15T07:57:20Z</time>
      </trkpt>
      <trkpt lat="45.37284" lon="5.62321">
        <ele>477</ele>
        <time>2022-04-15T07:57:22Z</time>
      </trkpt>
      <trkpt lat="45.37284" lon="5.62321">
        <ele>477</ele>
        <time>2022-04-15T07:57:23Z</time>
      </trkpt>
      <trkpt lat="45.37284" lon="5.62321">
        <ele>477</ele>
        <time>2022-04-15T07:57:25Z</time>
      </trkpt>
      <trkpt lat="45.37284" lon="5.62321">
        <ele>477</ele>
        <time>2022-04-15T07:57:26Z</time>
      </trkpt>
      <trkpt lat="45.37284" lon="5.62321">
        <ele>477</ele>
        <time>2022-04-15T07:57:27Z</time>
      </trkpt>
      <trkpt lat="45.37284" lon="5.6232">
        <ele>477</ele>
        <time>2022-04-15T07:57:28Z</time>
      </trkpt>
      <trkpt lat="45.37284" lon="5.6232">
        <ele>477</ele>
        <time>2022-04-15T07:57:29Z</time>
      </trkpt>
      <trkpt lat="45.37283" lon="5.6232">
        <ele>477</ele>
        <time>2022-04-15T07:57:30Z</time>
      </trkpt>
      <trkpt lat="45.37282" lon="5.62318">
        <ele>477</ele>
        <time>2022-04-15T07:57:31Z</time>
      </trkpt>
      <trkpt lat="45.37281" lon="5.62317">
        <ele>477</ele>
        <time>2022-04-15T07:57:32Z</time>
      </trkpt>
      <trkpt lat="45.37278" lon="5.62314">
        <ele>477.1</ele>
        <time>2022-04-15T07:57:33Z</time>
      </trkpt>
      <trkpt lat="45.37278" lon="5.62313">
        <ele>477.1</ele>
        <time>2022-04-15T07:57:34Z</time>
      </trkpt>
      <trkpt lat="45.37275" lon="5.62312">
        <ele>477.1</ele>
        <time>2022-04-15T07:57:36Z</time>
      </trkpt>
      <trkpt lat="45.37275" lon="5.62312">
        <ele>477.1</ele>
        <time>2022-04-15T07:57:37Z</time>
      </trkpt>
      <trkpt lat="45.37275" lon="5.62313">
        <ele>477.1</ele>
        <time>2022-04-15T07:57:38Z</time>
      </trkpt>
      <trkpt lat="45.37275" lon="5.62313">
        <ele>477.1</ele>
        <time>2022-04-15T07:57:39Z</time>
      </trkpt>
      <trkpt lat="45.37275" lon="5.62313">
        <ele>477.1</ele>
        <time>2022-04-15T07:57:40Z</time>
      </trkpt>
      <trkpt lat="45.37275" lon="5.62313">
        <ele>477.1</ele>
        <time>2022-04-15T07:57:41Z</time>
      </trkpt>
      <trkpt lat="45.37276" lon="5.62314">
        <ele>477.1</ele>
        <time>2022-04-15T07:57:42Z</time>
      </trkpt>
      <trkpt lat="45.37276" lon="5.62314">
        <ele>477.1</ele>
        <time>2022-04-15T07:57:43Z</time>
      </trkpt>
      <trkpt lat="45.37276" lon="5.62314">
        <ele>477.1</ele>
        <time>2022-04-15T07:57:44Z</time>
      </trkpt>
      <trkpt lat="45.37276" lon="5.62315">
        <ele>477.1</ele>
        <time>2022-04-15T07:57:45Z</time>
      </trkpt>
      <trkpt lat="45.37277" lon="5.62315">
        <ele>477.1</ele>
        <time>2022-04-15T07:57:46Z</time>
      </trkpt>
      <trkpt lat="45.37277" lon="5.62315">
        <ele>477.1</ele>
        <time>2022-04-15T07:57:47Z</time>
      </trkpt>
      <trkpt lat="45.37277" lon="5.62315">
        <ele>477.1</ele>
        <time>2022-04-15T07:57:48Z</time>
      </trkpt>
      <trkpt lat="45.37277" lon="5.62316">
        <ele>477.1</ele>
        <time>2022-04-15T07:57:50Z</time>
      </trkpt>
      <trkpt lat="45.37277" lon="5.62316">
        <ele>477.1</ele>
        <time>2022-04-15T07:57:51Z</time>
      </trkpt>
      <trkpt lat="45.37278" lon="5.62316">
        <ele>477.1</ele>
        <time>2022-04-15T07:57:52Z</time>
      </trkpt>
      <trkpt lat="45.37279" lon="5.62317">
        <ele>477.2</ele>
        <time>2022-04-15T07:57:54Z</time>
      </trkpt>
      <trkpt lat="45.3728" lon="5.62318">
        <ele>477.2</ele>
        <time>2022-04-15T07:57:55Z</time>
      </trkpt>
      <trkpt lat="45.37282" lon="5.62319">
        <ele>477.2</ele>
        <time>2022-04-15T07:57:56Z</time>
      </trkpt>
      <trkpt lat="45.37283" lon="5.62319">
        <ele>477.2</ele>
        <time>2022-04-15T07:57:57Z</time>
      </trkpt>
      <trkpt lat="45.37284" lon="5.6232">
        <ele>477.2</ele>
        <time>2022-04-15T07:57:58Z</time>
      </trkpt>
      <trkpt lat="45.37284" lon="5.62321">
        <ele>477.2</ele>
        <time>2022-04-15T07:57:59Z</time>
      </trkpt>
      <trkpt lat="45.37285" lon="5.62322">
        <ele>477.2</ele>
        <time>2022-04-15T07:58:00Z</time>
      </trkpt>
      <trkpt lat="45.37285" lon="5.62322">
        <ele>477.2</ele>
        <time>2022-04-15T07:58:01Z</time>
      </trkpt>
      <trkpt lat="45.37286" lon="5.62323">
        <ele>477.3</ele>
        <time>2022-04-15T07:58:02Z</time>
      </trkpt>
      <trkpt lat="45.37286" lon="5.62323">
        <ele>477.3</ele>
        <time>2022-04-15T07:58:03Z</time>
      </trkpt>
      <trkpt lat="45.37286" lon="5.62323">
        <ele>477.3</ele>
        <time>2022-04-15T07:58:04Z</time>
      </trkpt>
      <trkpt lat="45.37286" lon="5.62322">
        <ele>477.3</ele>
        <time>2022-04-15T07:58:05Z</time>
      </trkpt>
      <trkpt lat="45.37286" lon="5.62322">
        <ele>477.3</ele>
        <time>2022-04-15T07:58:06Z</time>
      </trkpt>
      <trkpt lat="45.37286" lon="5.62322">
        <ele>477.3</ele>
        <time>2022-04-15T07:58:07Z</time>
      </trkpt>
      <trkpt lat="45.37286" lon="5.62322">
        <ele>477.3</ele>
        <time>2022-04-15T07:58:08Z</time>
      </trkpt>
      <trkpt lat="45.37286" lon="5.62322">
        <ele>477.3</ele>
        <time>2022-04-15T07:58:09Z</time>
      </trkpt>
      <trkpt lat="45.37286" lon="5.62322">
        <ele>477.3</ele>
        <time>2022-04-15T07:58:10Z</time>
      </trkpt>
      <trkpt lat="45.37285" lon="5.62323">
        <ele>477.3</ele>
        <time>2022-04-15T07:58:12Z</time>
      </trkpt>
      <trkpt lat="45.37285" lon="5.62323">
        <ele>477.3</ele>
        <time>2022-04-15T07:58:13Z</time>
      </trkpt>
      <trkpt lat="45.37285" lon="5.62322">
        <ele>477.3</ele>
        <time>2022-04-15T07:58:14Z</time>
      </trkpt>
      <trkpt lat="45.37285" lon="5.62322">
        <ele>477.3</ele>
        <time>2022-04-15T07:58:15Z</time>
      </trkpt>
      <trkpt lat="45.37285" lon="5.62322">
        <ele>477.3</ele>
        <time>2022-04-15T07:58:17Z</time>
      </trkpt>
      <trkpt lat="45.37285" lon="5.62322">
        <ele>477.3</ele>
        <time>2022-04-15T07:58:18Z</time>
      </trkpt>
      <trkpt lat="45.37285" lon="5.62322">
        <ele>477.3</ele>
        <time>2022-04-15T07:58:19Z</time>
      </trkpt>
      <trkpt lat="45.37285" lon="5.62323">
        <ele>477.3</ele>
        <time>2022-04-15T07:58:20Z</time>
      </trkpt>
      <trkpt lat="45.37285" lon="5.62323">
        <ele>477.3</ele>
        <time>2022-04-15T07:58:21Z</time>
      </trkpt>
      <trkpt lat="45.37285" lon="5.62323">
        <ele>477.3</ele>
        <time>2022-04-15T07:58:22Z</time>
      </trkpt>
      <trkpt lat="45.37285" lon="5.62323">
        <ele>477.3</ele>
        <time>2022-04-15T07:58:23Z</time>
      </trkpt>
      <trkpt lat="45.37285" lon="5.62323">
        <ele>477.3</ele>
        <time>2022-04-15T07:58:24Z</time>
      </trkpt>
      <trkpt lat="45.37285" lon="5.62323">
        <ele>477.3</ele>
        <time>2022-04-15T07:58:25Z</time>
      </trkpt>
      <trkpt lat="45.37285" lon="5.62323">
        <ele>477.3</ele>
        <time>2022-04-15T07:58:26Z</time>
      </trkpt>
      <trkpt lat="45.37285" lon="5.62323">
        <ele>477.3</ele>
        <time>2022-04-15T07:58:27Z</time>
      </trkpt>
      <trkpt lat="45.37285" lon="5.62323">
        <ele>477.3</ele>
        <time>2022-04-15T07:58:28Z</time>
      </trkpt>
      <trkpt lat="45.37285" lon="5.62323">
        <ele>477.3</ele>
        <time>2022-04-15T07:58:29Z</time>
      </trkpt>
      <trkpt lat="45.37285" lon="5.62323">
        <ele>477.3</ele>
        <time>2022-04-15T07:58:30Z</time>
      </trkpt>
      <trkpt lat="45.37285" lon="5.62324">
        <ele>477.3</ele>
        <time>2022-04-15T07:58:31Z</time>
      </trkpt>
      <trkpt lat="45.37285" lon="5.62324">
        <ele>477.3</ele>
        <time>2022-04-15T07:58:32Z</time>
      </trkpt>
      <trkpt lat="45.37285" lon="5.62324">
        <ele>477.3</ele>
        <time>2022-04-15T07:58:33Z</time>
      </trkpt>
      <trkpt lat="45.37287" lon="5.62325">
        <ele>477.4</ele>
        <time>2022-04-15T07:58:34Z</time>
      </trkpt>
      <trkpt lat="45.37288" lon="5.62325">
        <ele>477.4</ele>
        <time>2022-04-15T07:58:35Z</time>
      </trkpt>
      <trkpt lat="45.37288" lon="5.62325">
        <ele>477.4</ele>
        <time>2022-04-15T07:58:36Z</time>
      </trkpt>
      <trkpt lat="45.37289" lon="5.62325">
        <ele>477.4</ele>
        <time>2022-04-15T07:58:37Z</time>
      </trkpt>
      <trkpt lat="45.3729" lon="5.62327">
        <ele>477.4</ele>
        <time>2022-04-15T07:58:38Z</time>
      </trkpt>
      <trkpt lat="45.37291" lon="5.62328">
        <ele>477.4</ele>
        <time>2022-04-15T07:58:39Z</time>
      </trkpt>
      <trkpt lat="45.37292" lon="5.62329">
        <ele>477.5</ele>
        <time>2022-04-15T07:58:40Z</time>
      </trkpt>
      <trkpt lat="45.37294" lon="5.62331">
        <ele>477.5</ele>
        <time>2022-04-15T07:58:41Z</time>
      </trkpt>
      <trkpt lat="45.37295" lon="5.62332">
        <ele>477.5</ele>
        <time>2022-04-15T07:58:42Z</time>
      </trkpt>
      <trkpt lat="45.37297" lon="5.62335">
        <ele>477.6</ele>
        <time>2022-04-15T07:58:43Z</time>
      </trkpt>
      <trkpt lat="45.373" lon="5.62339">
        <ele>477.7</ele>
        <time>2022-04-15T07:58:44Z</time>
      </trkpt>
      <trkpt lat="45.37304" lon="5.62344">
        <ele>477.8</ele>
        <time>2022-04-15T07:58:46Z</time>
      </trkpt>
      <trkpt lat="45.37306" lon="5.62349">
        <ele>477.9</ele>
        <time>2022-04-15T07:58:47Z</time>
      </trkpt>
      <trkpt lat="45.37307" lon="5.62353">
        <ele>478</ele>
        <time>2022-04-15T07:58:49Z</time>
      </trkpt>
      <trkpt lat="45.37309" lon="5.62357">
        <ele>478</ele>
        <time>2022-04-15T07:58:50Z</time>
      </trkpt>
      <trkpt lat="45.37311" lon="5.62361">
        <ele>478</ele>
        <time>2022-04-15T07:58:51Z</time>
      </trkpt>
      <trkpt lat="45.37312" lon="5.62366">
        <ele>478.1</ele>
        <time>2022-04-15T07:58:52Z</time>
      </trkpt>
      <trkpt lat="45.37313" lon="5.62369">
        <ele>478.1</ele>
        <time>2022-04-15T07:58:53Z</time>
      </trkpt>
      <trkpt lat="45.37315" lon="5.62374">
        <ele>478.1</ele>
        <time>2022-04-15T07:58:54Z</time>
      </trkpt>
      <trkpt lat="45.37316" lon="5.62377">
        <ele>478.1</ele>
        <time>2022-04-15T07:58:55Z</time>
      </trkpt>
      <trkpt lat="45.37317" lon="5.62381">
        <ele>478.2</ele>
        <time>2022-04-15T07:58:56Z</time>
      </trkpt>
      <trkpt lat="45.37319" lon="5.62386">
        <ele>478.2</ele>
        <time>2022-04-15T07:58:57Z</time>
      </trkpt>
      <trkpt lat="45.37322" lon="5.62392">
        <ele>478.2</ele>
        <time>2022-04-15T07:58:59Z</time>
      </trkpt>
      <trkpt lat="45.37323" lon="5.62397">
        <ele>478.3</ele>
        <time>2022-04-15T07:59:00Z</time>
      </trkpt>
      <trkpt lat="45.37326" lon="5.62405">
        <ele>478.3</ele>
        <time>2022-04-15T07:59:02Z</time>
      </trkpt>
      <trkpt lat="45.37327" lon="5.62409">
        <ele>478.3</ele>
        <time>2022-04-15T07:59:03Z</time>
      </trkpt>
      <trkpt lat="45.37329" lon="5.62413">
        <ele>478.3</ele>
        <time>2022-04-15T07:59:04Z</time>
      </trkpt>
      <trkpt lat="45.37331" lon="5.62416">
        <ele>478.2</ele>
        <time>2022-04-15T07:59:05Z</time>
      </trkpt>
      <trkpt lat="45.37332" lon="5.62421">
        <ele>478.2</ele>
        <time>2022-04-15T07:59:06Z</time>
      </trkpt>
      <trkpt lat="45.37334" lon="5.62425">
        <ele>478.1</ele>
        <time>2022-04-15T07:59:07Z</time>
      </trkpt>
      <trkpt lat="45.37335" lon="5.62432">
        <ele>478</ele>
        <time>2022-04-15T07:59:09Z</time>
      </trkpt>
      <trkpt lat="45.37338" lon="5.62441">
        <ele>477.8</ele>
        <time>2022-04-15T07:59:11Z</time>
      </trkpt>
      <trkpt lat="45.37339" lon="5.62446">
        <ele>477.6</ele>
        <time>2022-04-15T07:59:12Z</time>
      </trkpt>
      <trkpt lat="45.37342" lon="5.62462">
        <ele>477.1</ele>
        <time>2022-04-15T07:59:14Z</time>
      </trkpt>
      <trkpt lat="45.37344" lon="5.62471">
        <ele>476.8</ele>
        <time>2022-04-15T07:59:15Z</time>
      </trkpt>
      <trkpt lat="45.37346" lon="5.62479">
        <ele>476.4</ele>
        <time>2022-04-15T07:59:16Z</time>
      </trkpt>
      <trkpt lat="45.3735" lon="5.62488">
        <ele>476.1</ele>
        <time>2022-04-15T07:59:17Z</time>
      </trkpt>
      <trkpt lat="45.37355" lon="5.62495">
        <ele>475.9</ele>
        <time>2022-04-15T07:59:18Z</time>
      </trkpt>
      <trkpt lat="45.3736" lon="5.625">
        <ele>475.7</ele>
        <time>2022-04-15T07:59:19Z</time>
      </trkpt>
      <trkpt lat="45.37366" lon="5.62506">
        <ele>475.5</ele>
        <time>2022-04-15T07:59:20Z</time>
      </trkpt>
      <trkpt lat="45.37371" lon="5.62512">
        <ele>475.4</ele>
        <time>2022-04-15T07:59:21Z</time>
      </trkpt>
      <trkpt lat="45.37376" lon="5.62517">
        <ele>475.3</ele>
        <time>2022-04-15T07:59:22Z</time>
      </trkpt>
      <trkpt lat="45.37381" lon="5.62522">
        <ele>475.2</ele>
        <time>2022-04-15T07:59:23Z</time>
      </trkpt>
      <trkpt lat="45.37386" lon="5.62527">
        <ele>475.2</ele>
        <time>2022-04-15T07:59:24Z</time>
      </trkpt>
      <trkpt lat="45.3739" lon="5.62532">
        <ele>475.1</ele>
        <time>2022-04-15T07:59:25Z</time>
      </trkpt>
      <trkpt lat="45.37395" lon="5.62537">
        <ele>475.1</ele>
        <time>2022-04-15T07:59:26Z</time>
      </trkpt>
      <trkpt lat="45.37399" lon="5.62542">
        <ele>475</ele>
        <time>2022-04-15T07:59:27Z</time>
      </trkpt>
      <trkpt lat="45.37404" lon="5.62547">
        <ele>475</ele>
        <time>2022-04-15T07:59:28Z</time>
      </trkpt>
      <trkpt lat="45.37408" lon="5.62551">
        <ele>474.9</ele>
        <time>2022-04-15T07:59:29Z</time>
      </trkpt>
      <trkpt lat="45.37412" lon="5.62556">
        <ele>474.9</ele>
        <time>2022-04-15T07:59:30Z</time>
      </trkpt>
      <trkpt lat="45.37416" lon="5.6256">
        <ele>474.8</ele>
        <time>2022-04-15T07:59:31Z</time>
      </trkpt>
      <trkpt lat="45.37421" lon="5.62564">
        <ele>474.7</ele>
        <time>2022-04-15T07:59:32Z</time>
      </trkpt>
      <trkpt lat="45.37425" lon="5.62569">
        <ele>474.6</ele>
        <time>2022-04-15T07:59:33Z</time>
      </trkpt>
      <trkpt lat="45.37429" lon="5.62574">
        <ele>474.5</ele>
        <time>2022-04-15T07:59:34Z</time>
      </trkpt>
      <trkpt lat="45.37433" lon="5.62579">
        <ele>474.5</ele>
        <time>2022-04-15T07:59:35Z</time>
      </trkpt>
      <trkpt lat="45.37438" lon="5.62583">
        <ele>474.5</ele>
        <time>2022-04-15T07:59:36Z</time>
      </trkpt>
      <trkpt lat="45.37443" lon="5.62588">
        <ele>474.5</ele>
        <time>2022-04-15T07:59:37Z</time>
      </trkpt>
      <trkpt lat="45.37448" lon="5.62592">
        <ele>474.6</ele>
        <time>2022-04-15T07:59:38Z</time>
      </trkpt>
      <trkpt lat="45.37452" lon="5.62594">
        <ele>474.7</ele>
        <time>2022-04-15T07:59:39Z</time>
      </trkpt>
      <trkpt lat="45.37456" lon="5.62593">
        <ele>474.7</ele>
        <time>2022-04-15T07:59:40Z</time>
      </trkpt>
      <trkpt lat="45.37457" lon="5.62593">
        <ele>474.8</ele>
        <time>2022-04-15T07:59:41Z</time>
      </trkpt>
      <trkpt lat="45.37458" lon="5.62589">
        <ele>474.9</ele>
        <time>2022-04-15T07:59:42Z</time>
      </trkpt>
      <trkpt lat="45.37459" lon="5.62585">
        <ele>475</ele>
        <time>2022-04-15T07:59:43Z</time>
      </trkpt>
      <trkpt lat="45.3746" lon="5.62584">
        <ele>475.1</ele>
        <time>2022-04-15T07:59:44Z</time>
      </trkpt>
      <trkpt lat="45.3746" lon="5.62582">
        <ele>475.1</ele>
        <time>2022-04-15T07:59:45Z</time>
      </trkpt>
      <trkpt lat="45.3746" lon="5.62581">
        <ele>475.2</ele>
        <time>2022-04-15T07:59:46Z</time>
      </trkpt>
      <trkpt lat="45.37461" lon="5.62581">
        <ele>475.2</ele>
        <time>2022-04-15T07:59:47Z</time>
      </trkpt>
      <trkpt lat="45.37461" lon="5.6258">
        <ele>475.3</ele>
        <time>2022-04-15T07:59:48Z</time>
      </trkpt>
      <trkpt lat="45.37463" lon="5.62577">
        <ele>475.4</ele>
        <time>2022-04-15T07:59:49Z</time>
      </trkpt>
      <trkpt lat="45.37464" lon="5.62576">
        <ele>475.5</ele>
        <time>2022-04-15T07:59:50Z</time>
      </trkpt>
      <trkpt lat="45.37467" lon="5.62572">
        <ele>475.8</ele>
        <time>2022-04-15T07:59:52Z</time>
      </trkpt>
      <trkpt lat="45.3747" lon="5.62569">
        <ele>476</ele>
        <time>2022-04-15T07:59:54Z</time>
      </trkpt>
      <trkpt lat="45.37471" lon="5.62567">
        <ele>476.2</ele>
        <time>2022-04-15T07:59:55Z</time>
      </trkpt>
      <trkpt lat="45.37472" lon="5.62565">
        <ele>476.4</ele>
        <time>2022-04-15T07:59:57Z</time>
      </trkpt>
      <trkpt lat="45.37474" lon="5.62562">
        <ele>476.7</ele>
        <time>2022-04-15T07:59:58Z</time>
      </trkpt>
      <trkpt lat="45.37477" lon="5.6256">
        <ele>477</ele>
        <time>2022-04-15T08:00:00Z</time>
      </trkpt>
      <trkpt lat="45.37478" lon="5.62559">
        <ele>477.1</ele>
        <time>2022-04-15T08:00:01Z</time>
      </trkpt>
      <trkpt lat="45.3748" lon="5.62557">
        <ele>477.5</ele>
        <time>2022-04-15T08:00:02Z</time>
      </trkpt>
      <trkpt lat="45.37481" lon="5.62556">
        <ele>477.6</ele>
        <time>2022-04-15T08:00:03Z</time>
      </trkpt>
      <trkpt lat="45.37483" lon="5.62554">
        <ele>477.8</ele>
        <time>2022-04-15T08:00:04Z</time>
      </trkpt>
      <trkpt lat="45.37485" lon="5.62552">
        <ele>478.9</ele>
        <time>2022-04-15T08:00:06Z</time>
      </trkpt>
      <trkpt lat="45.37485" lon="5.62553">
        <ele>478.9</ele>
        <time>2022-04-15T08:00:07Z</time>
      </trkpt>
      <trkpt lat="45.37488" lon="5.62556">
        <ele>478.9</ele>
        <time>2022-04-15T08:00:09Z</time>
      </trkpt>
      <trkpt lat="45.3749" lon="5.6256">
        <ele>478.8</ele>
        <time>2022-04-15T08:00:10Z</time>
      </trkpt>
      <trkpt lat="45.3749" lon="5.62561">
        <ele>478.8</ele>
        <time>2022-04-15T08:00:11Z</time>
      </trkpt>
      <trkpt lat="45.37491" lon="5.62566">
        <ele>478.8</ele>
        <time>2022-04-15T08:00:12Z</time>
      </trkpt>
      <trkpt lat="45.37493" lon="5.6257">
        <ele>478.7</ele>
        <time>2022-04-15T08:00:14Z</time>
      </trkpt>
      <trkpt lat="45.37496" lon="5.62576">
        <ele>478.5</ele>
        <time>2022-04-15T08:00:15Z</time>
      </trkpt>
      <trkpt lat="45.37499" lon="5.62581">
        <ele>478.4</ele>
        <time>2022-04-15T08:00:17Z</time>
      </trkpt>
      <trkpt lat="45.37503" lon="5.62589">
        <ele>478.1</ele>
        <time>2022-04-15T08:00:18Z</time>
      </trkpt>
      <trkpt lat="45.37507" lon="5.62597">
        <ele>477.8</ele>
        <time>2022-04-15T08:00:20Z</time>
      </trkpt>
      <trkpt lat="45.37513" lon="5.62604">
        <ele>477.4</ele>
        <time>2022-04-15T08:00:21Z</time>
      </trkpt>
      <trkpt lat="45.37517" lon="5.6261">
        <ele>477.1</ele>
        <time>2022-04-15T08:00:22Z</time>
      </trkpt>
      <trkpt lat="45.37521" lon="5.62616">
        <ele>476.9</ele>
        <time>2022-04-15T08:00:23Z</time>
      </trkpt>
      <trkpt lat="45.37524" lon="5.62623">
        <ele>476.6</ele>
        <time>2022-04-15T08:00:24Z</time>
      </trkpt>
      <trkpt lat="45.37528" lon="5.62629">
        <ele>476.3</ele>
        <time>2022-04-15T08:00:25Z</time>
      </trkpt>
      <trkpt lat="45.37532" lon="5.62635">
        <ele>476.1</ele>
        <time>2022-04-15T08:00:26Z</time>
      </trkpt>
      <trkpt lat="45.37535" lon="5.62641">
        <ele>475.9</ele>
        <time>2022-04-15T08:00:27Z</time>
      </trkpt>
      <trkpt lat="45.37539" lon="5.62648">
        <ele>475.6</ele>
        <time>2022-04-15T08:00:28Z</time>
      </trkpt>
      <trkpt lat="45.37543" lon="5.62654">
        <ele>475.4</ele>
        <time>2022-04-15T08:00:29Z</time>
      </trkpt>
      <trkpt lat="45.37546" lon="5.62661">
        <ele>475.1</ele>
        <time>2022-04-15T08:00:30Z</time>
      </trkpt>
      <trkpt lat="45.3755" lon="5.62668">
        <ele>474.9</ele>
        <time>2022-04-15T08:00:31Z</time>
      </trkpt>
      <trkpt lat="45.37553" lon="5.62675">
        <ele>474.7</ele>
        <time>2022-04-15T08:00:32Z</time>
      </trkpt>
      <trkpt lat="45.37557" lon="5.62683">
        <ele>474.5</ele>
        <time>2022-04-15T08:00:33Z</time>
      </trkpt>
      <trkpt lat="45.3756" lon="5.6269">
        <ele>474.3</ele>
        <time>2022-04-15T08:00:34Z</time>
      </trkpt>
      <trkpt lat="45.37564" lon="5.62697">
        <ele>474.2</ele>
        <time>2022-04-15T08:00:35Z</time>
      </trkpt>
      <trkpt lat="45.37568" lon="5.62703">
        <ele>473.9</ele>
        <time>2022-04-15T08:00:36Z</time>
      </trkpt>
      <trkpt lat="45.37573" lon="5.62709">
        <ele>473.7</ele>
        <time>2022-04-15T08:00:37Z</time>
      </trkpt>
      <trkpt lat="45.37577" lon="5.62715">
        <ele>473.5</ele>
        <time>2022-04-15T08:00:38Z</time>
      </trkpt>
      <trkpt lat="45.37582" lon="5.62721">
        <ele>473.3</ele>
        <time>2022-04-15T08:00:39Z</time>
      </trkpt>
      <trkpt lat="45.37587" lon="5.62726">
        <ele>473.1</ele>
        <time>2022-04-15T08:00:40Z</time>
      </trkpt>
      <trkpt lat="45.37591" lon="5.62732">
        <ele>472.9</ele>
        <time>2022-04-15T08:00:41Z</time>
      </trkpt>
      <trkpt lat="45.37596" lon="5.62737">
        <ele>472.7</ele>
        <time>2022-04-15T08:00:42Z</time>
      </trkpt>
      <trkpt lat="45.376" lon="5.6274">
        <ele>472.5</ele>
        <time>2022-04-15T08:00:43Z</time>
      </trkpt>
      <trkpt lat="45.37601" lon="5.62742">
        <ele>472.4</ele>
        <time>2022-04-15T08:00:44Z</time>
      </trkpt>
      <trkpt lat="45.37602" lon="5.62743">
        <ele>472.4</ele>
        <time>2022-04-15T08:00:45Z</time>
      </trkpt>
      <trkpt lat="45.37603" lon="5.62744">
        <ele>472.4</ele>
        <time>2022-04-15T08:00:46Z</time>
      </trkpt>
      <trkpt lat="45.37603" lon="5.62744">
        <ele>472.4</ele>
        <time>2022-04-15T08:00:47Z</time>
      </trkpt>
      <trkpt lat="45.37603" lon="5.62743">
        <ele>472.3</ele>
        <time>2022-04-15T08:00:48Z</time>
      </trkpt>
      <trkpt lat="45.37603" lon="5.62743">
        <ele>472.3</ele>
        <time>2022-04-15T08:00:49Z</time>
      </trkpt>
      <trkpt lat="45.37603" lon="5.62743">
        <ele>472.3</ele>
        <time>2022-04-15T08:00:50Z</time>
      </trkpt>
      <trkpt lat="45.37603" lon="5.62743">
        <ele>472.3</ele>
        <time>2022-04-15T08:00:51Z</time>
      </trkpt>
      <trkpt lat="45.37603" lon="5.62743">
        <ele>472.3</ele>
        <time>2022-04-15T08:00:52Z</time>
      </trkpt>
      <trkpt lat="45.37603" lon="5.62743">
        <ele>472.3</ele>
        <time>2022-04-15T08:00:53Z</time>
      </trkpt>
      <trkpt lat="45.37604" lon="5.62743">
        <ele>472.3</ele>
        <time>2022-04-15T08:00:55Z</time>
      </trkpt>
      <trkpt lat="45.37604" lon="5.62743">
        <ele>472.3</ele>
        <time>2022-04-15T08:00:56Z</time>
      </trkpt>
      <trkpt lat="45.37604" lon="5.62743">
        <ele>472.3</ele>
        <time>2022-04-15T08:00:57Z</time>
      </trkpt>
      <trkpt lat="45.37604" lon="5.62743">
        <ele>472.3</ele>
        <time>2022-04-15T08:00:58Z</time>
      </trkpt>
      <trkpt lat="45.37604" lon="5.62743">
        <ele>472.3</ele>
        <time>2022-04-15T08:00:59Z</time>
      </trkpt>
      <trkpt lat="45.37604" lon="5.62743">
        <ele>472.3</ele>
        <time>2022-04-15T08:01:00Z</time>
      </trkpt>
      <trkpt lat="45.37604" lon="5.62743">
        <ele>472.3</ele>
        <time>2022-04-15T08:01:01Z</time>
      </trkpt>
      <trkpt lat="45.37604" lon="5.62743">
        <ele>472.3</ele>
        <time>2022-04-15T08:01:02Z</time>
      </trkpt>
      <trkpt lat="45.37604" lon="5.62743">
        <ele>472.3</ele>
        <time>2022-04-15T08:01:03Z</time>
      </trkpt>
      <trkpt lat="45.37604" lon="5.62743">
        <ele>472.3</ele>
        <time>2022-04-15T08:01:04Z</time>
      </trkpt>
      <trkpt lat="45.37604" lon="5.62743">
        <ele>472.3</ele>
        <time>2022-04-15T08:01:05Z</time>
      </trkpt>
      <trkpt lat="45.37605" lon="5.62743">
        <ele>472.3</ele>
        <time>2022-04-15T08:01:06Z</time>
      </trkpt>
      <trkpt lat="45.37605" lon="5.62743">
        <ele>472.3</ele>
        <time>2022-04-15T08:01:07Z</time>
      </trkpt>
      <trkpt lat="45.37605" lon="5.62743">
        <ele>472.3</ele>
        <time>2022-04-15T08:01:08Z</time>
      </trkpt>
      <trkpt lat="45.37605" lon="5.62743">
        <ele>472.3</ele>
        <time>2022-04-15T08:01:09Z</time>
      </trkpt>
      <trkpt lat="45.37605" lon="5.62743">
        <ele>472.3</ele>
        <time>2022-04-15T08:01:10Z</time>
      </trkpt>
      <trkpt lat="45.37605" lon="5.62743">
        <ele>472.3</ele>
        <time>2022-04-15T08:01:11Z</time>
      </trkpt>
      <trkpt lat="45.37605" lon="5.62743">
        <ele>472.3</ele>
        <time>2022-04-15T08:01:12Z</time>
      </trkpt>
      <trkpt lat="45.37605" lon="5.62743">
        <ele>472.2</ele>
        <time>2022-04-15T08:01:13Z</time>
      </trkpt>
      <trkpt lat="45.37605" lon="5.62743">
        <ele>472.2</ele>
        <time>2022-04-15T08:01:14Z</time>
      </trkpt>
      <trkpt lat="45.37605" lon="5.62743">
        <ele>472.2</ele>
        <time>2022-04-15T08:01:15Z</time>
      </trkpt>
      <trkpt lat="45.37605" lon="5.62743">
        <ele>472.2</ele>
        <time>2022-04-15T08:01:16Z</time>
      </trkpt>
      <trkpt lat="45.37606" lon="5.62743">
        <ele>472.2</ele>
        <time>2022-04-15T08:01:18Z</time>
      </trkpt>
      <trkpt lat="45.37606" lon="5.62743">
        <ele>472.2</ele>
        <time>2022-04-15T08:01:19Z</time>
      </trkpt>
      <trkpt lat="45.37606" lon="5.62743">
        <ele>472.2</ele>
        <time>2022-04-15T08:01:20Z</time>
      </trkpt>
      <trkpt lat="45.37606" lon="5.62742">
        <ele>472.2</ele>
        <time>2022-04-15T08:01:21Z</time>
      </trkpt>
      <trkpt lat="45.37606" lon="5.62742">
        <ele>472.2</ele>
        <time>2022-04-15T08:01:22Z</time>
      </trkpt>
      <trkpt lat="45.37606" lon="5.62742">
        <ele>472.2</ele>
        <time>2022-04-15T08:01:23Z</time>
      </trkpt>
      <trkpt lat="45.37606" lon="5.62742">
        <ele>472.2</ele>
        <time>2022-04-15T08:01:24Z</time>
      </trkpt>
      <trkpt lat="45.37609" lon="5.62745">
        <ele>472.1</ele>
        <time>2022-04-15T08:01:25Z</time>
      </trkpt>
      <trkpt lat="45.37612" lon="5.62749">
        <ele>471.9</ele>
        <time>2022-04-15T08:01:26Z</time>
      </trkpt>
      <trkpt lat="45.37616" lon="5.62755">
        <ele>471.6</ele>
        <time>2022-04-15T08:01:27Z</time>
      </trkpt>
      <trkpt lat="45.37625" lon="5.62768">
        <ele>470.8</ele>
        <time>2022-04-15T08:01:29Z</time>
      </trkpt>
      <trkpt lat="45.37629" lon="5.62774">
        <ele>470.5</ele>
        <time>2022-04-15T08:01:30Z</time>
      </trkpt>
      <trkpt lat="45.37632" lon="5.6278">
        <ele>470.1</ele>
        <time>2022-04-15T08:01:31Z</time>
      </trkpt>
      <trkpt lat="45.37636" lon="5.62787">
        <ele>469.7</ele>
        <time>2022-04-15T08:01:32Z</time>
      </trkpt>
      <trkpt lat="45.37639" lon="5.62793">
        <ele>469.1</ele>
        <time>2022-04-15T08:01:33Z</time>
      </trkpt>
      <trkpt lat="45.37643" lon="5.628">
        <ele>468.5</ele>
        <time>2022-04-15T08:01:34Z</time>
      </trkpt>
      <trkpt lat="45.37648" lon="5.62806">
        <ele>467.8</ele>
        <time>2022-04-15T08:01:35Z</time>
      </trkpt>
      <trkpt lat="45.37653" lon="5.6281">
        <ele>467</ele>
        <time>2022-04-15T08:01:36Z</time>
      </trkpt>
      <trkpt lat="45.37657" lon="5.62813">
        <ele>466.3</ele>
        <time>2022-04-15T08:01:37Z</time>
      </trkpt>
      <trkpt lat="45.37663" lon="5.62818">
        <ele>465.3</ele>
        <time>2022-04-15T08:01:38Z</time>
      </trkpt>
      <trkpt lat="45.37669" lon="5.62824">
        <ele>464.3</ele>
        <time>2022-04-15T08:01:39Z</time>
      </trkpt>
      <trkpt lat="45.37676" lon="5.6283">
        <ele>463.2</ele>
        <time>2022-04-15T08:01:40Z</time>
      </trkpt>
      <trkpt lat="45.37684" lon="5.62837">
        <ele>462.2</ele>
        <time>2022-04-15T08:01:41Z</time>
      </trkpt>
      <trkpt lat="45.37692" lon="5.62844">
        <ele>461.3</ele>
        <time>2022-04-15T08:01:42Z</time>
      </trkpt>
      <trkpt lat="45.377" lon="5.6285">
        <ele>460.4</ele>
        <time>2022-04-15T08:01:43Z</time>
      </trkpt>
      <trkpt lat="45.37708" lon="5.62857">
        <ele>459.4</ele>
        <time>2022-04-15T08:01:44Z</time>
      </trkpt>
      <trkpt lat="45.37715" lon="5.62862">
        <ele>458.5</ele>
        <time>2022-04-15T08:01:45Z</time>
      </trkpt>
      <trkpt lat="45.37723" lon="5.62868">
        <ele>457.4</ele>
        <time>2022-04-15T08:01:46Z</time>
      </trkpt>
      <trkpt lat="45.37732" lon="5.62874">
        <ele>456.3</ele>
        <time>2022-04-15T08:01:47Z</time>
      </trkpt>
      <trkpt lat="45.37741" lon="5.6288">
        <ele>455</ele>
        <time>2022-04-15T08:01:48Z</time>
      </trkpt>
      <trkpt lat="45.37751" lon="5.62885">
        <ele>453.7</ele>
        <time>2022-04-15T08:01:49Z</time>
      </trkpt>
      <trkpt lat="45.37762" lon="5.6289">
        <ele>452.6</ele>
        <time>2022-04-15T08:01:50Z</time>
      </trkpt>
      <trkpt lat="45.37772" lon="5.62895">
        <ele>451.5</ele>
        <time>2022-04-15T08:01:51Z</time>
      </trkpt>
      <trkpt lat="45.37783" lon="5.62899">
        <ele>450.5</ele>
        <time>2022-04-15T08:01:52Z</time>
      </trkpt>
      <trkpt lat="45.37793" lon="5.62904">
        <ele>449.7</ele>
        <time>2022-04-15T08:01:53Z</time>
      </trkpt>
      <trkpt lat="45.37803" lon="5.62908">
        <ele>449.1</ele>
        <time>2022-04-15T08:01:54Z</time>
      </trkpt>
      <trkpt lat="45.37812" lon="5.62912">
        <ele>448.6</ele>
        <time>2022-04-15T08:01:55Z</time>
      </trkpt>
      <trkpt lat="45.3782" lon="5.62916">
        <ele>448.1</ele>
        <time>2022-04-15T08:01:56Z</time>
      </trkpt>
      <trkpt lat="45.37828" lon="5.62919">
        <ele>447.6</ele>
        <time>2022-04-15T08:01:57Z</time>
      </trkpt>
      <trkpt lat="45.37835" lon="5.6292">
        <ele>447.2</ele>
        <time>2022-04-15T08:01:58Z</time>
      </trkpt>
      <trkpt lat="45.37842" lon="5.6292">
        <ele>446.8</ele>
        <time>2022-04-15T08:01:59Z</time>
      </trkpt>
      <trkpt lat="45.37848" lon="5.62917">
        <ele>446.3</ele>
        <time>2022-04-15T08:02:00Z</time>
      </trkpt>
      <trkpt lat="45.37855" lon="5.62912">
        <ele>445.8</ele>
        <time>2022-04-15T08:02:01Z</time>
      </trkpt>
      <trkpt lat="45.37862" lon="5.62907">
        <ele>445.2</ele>
        <time>2022-04-15T08:02:02Z</time>
      </trkpt>
      <trkpt lat="45.37869" lon="5.62901">
        <ele>444.6</ele>
        <time>2022-04-15T08:02:03Z</time>
      </trkpt>
      <trkpt lat="45.37876" lon="5.62894">
        <ele>444.1</ele>
        <time>2022-04-15T08:02:04Z</time>
      </trkpt>
      <trkpt lat="45.37883" lon="5.62887">
        <ele>443.6</ele>
        <time>2022-04-15T08:02:05Z</time>
      </trkpt>
      <trkpt lat="45.3789" lon="5.62879">
        <ele>443.2</ele>
        <time>2022-04-15T08:02:06Z</time>
      </trkpt>
      <trkpt lat="45.37896" lon="5.62872">
        <ele>442.9</ele>
        <time>2022-04-15T08:02:07Z</time>
      </trkpt>
      <trkpt lat="45.37903" lon="5.62866">
        <ele>442.7</ele>
        <time>2022-04-15T08:02:08Z</time>
      </trkpt>
      <trkpt lat="45.3791" lon="5.6286">
        <ele>442.5</ele>
        <time>2022-04-15T08:02:09Z</time>
      </trkpt>
      <trkpt lat="45.37917" lon="5.62855">
        <ele>442.3</ele>
        <time>2022-04-15T08:02:10Z</time>
      </trkpt>
      <trkpt lat="45.37923" lon="5.6285">
        <ele>442.2</ele>
        <time>2022-04-15T08:02:11Z</time>
      </trkpt>
      <trkpt lat="45.3793" lon="5.62846">
        <ele>442.1</ele>
        <time>2022-04-15T08:02:12Z</time>
      </trkpt>
      <trkpt lat="45.37936" lon="5.62842">
        <ele>442.1</ele>
        <time>2022-04-15T08:02:13Z</time>
      </trkpt>
      <trkpt lat="45.37942" lon="5.62838">
        <ele>442</ele>
        <time>2022-04-15T08:02:14Z</time>
      </trkpt>
      <trkpt lat="45.37948" lon="5.62834">
        <ele>441.9</ele>
        <time>2022-04-15T08:02:15Z</time>
      </trkpt>
      <trkpt lat="45.37954" lon="5.62831">
        <ele>441.8</ele>
        <time>2022-04-15T08:02:16Z</time>
      </trkpt>
      <trkpt lat="45.37959" lon="5.62827">
        <ele>441.6</ele>
        <time>2022-04-15T08:02:17Z</time>
      </trkpt>
      <trkpt lat="45.37965" lon="5.62823">
        <ele>441.3</ele>
        <time>2022-04-15T08:02:18Z</time>
      </trkpt>
      <trkpt lat="45.37971" lon="5.6282">
        <ele>441</ele>
        <time>2022-04-15T08:02:19Z</time>
      </trkpt>
      <trkpt lat="45.37977" lon="5.62817">
        <ele>440.4</ele>
        <time>2022-04-15T08:02:20Z</time>
      </trkpt>
      <trkpt lat="45.37985" lon="5.62815">
        <ele>439.7</ele>
        <time>2022-04-15T08:02:21Z</time>
      </trkpt>
      <trkpt lat="45.37993" lon="5.62811">
        <ele>438.8</ele>
        <time>2022-04-15T08:02:22Z</time>
      </trkpt>
      <trkpt lat="45.38001" lon="5.62805">
        <ele>437.8</ele>
        <time>2022-04-15T08:02:23Z</time>
      </trkpt>
      <trkpt lat="45.38009" lon="5.62799">
        <ele>437</ele>
        <time>2022-04-15T08:02:24Z</time>
      </trkpt>
      <trkpt lat="45.38016" lon="5.62793">
        <ele>436.1</ele>
        <time>2022-04-15T08:02:25Z</time>
      </trkpt>
      <trkpt lat="45.38023" lon="5.62788">
        <ele>435.4</ele>
        <time>2022-04-15T08:02:26Z</time>
      </trkpt>
      <trkpt lat="45.38029" lon="5.62784">
        <ele>434.7</ele>
        <time>2022-04-15T08:02:27Z</time>
      </trkpt>
      <trkpt lat="45.38036" lon="5.62782">
        <ele>434.1</ele>
        <time>2022-04-15T08:02:28Z</time>
      </trkpt>
      <trkpt lat="45.38041" lon="5.6278">
        <ele>433.6</ele>
        <time>2022-04-15T08:02:29Z</time>
      </trkpt>
      <trkpt lat="45.38045" lon="5.6278">
        <ele>433.3</ele>
        <time>2022-04-15T08:02:30Z</time>
      </trkpt>
      <trkpt lat="45.38048" lon="5.62781">
        <ele>433</ele>
        <time>2022-04-15T08:02:31Z</time>
      </trkpt>
      <trkpt lat="45.38048" lon="5.62781">
        <ele>432.9</ele>
        <time>2022-04-15T08:02:32Z</time>
      </trkpt>
      <trkpt lat="45.38051" lon="5.62784">
        <ele>432.6</ele>
        <time>2022-04-15T08:02:33Z</time>
      </trkpt>
      <trkpt lat="45.38053" lon="5.6279">
        <ele>431.7</ele>
        <time>2022-04-15T08:02:34Z</time>
      </trkpt>
      <trkpt lat="45.38054" lon="5.62796">
        <ele>431.4</ele>
        <time>2022-04-15T08:02:35Z</time>
      </trkpt>
      <trkpt lat="45.38055" lon="5.62804">
        <ele>431.1</ele>
        <time>2022-04-15T08:02:36Z</time>
      </trkpt>
      <trkpt lat="45.38055" lon="5.62812">
        <ele>430.7</ele>
        <time>2022-04-15T08:02:37Z</time>
      </trkpt>
      <trkpt lat="45.38055" lon="5.62821">
        <ele>430.3</ele>
        <time>2022-04-15T08:02:38Z</time>
      </trkpt>
      <trkpt lat="45.38056" lon="5.6283">
        <ele>429.9</ele>
        <time>2022-04-15T08:02:39Z</time>
      </trkpt>
      <trkpt lat="45.38056" lon="5.62839">
        <ele>429.6</ele>
        <time>2022-04-15T08:02:40Z</time>
      </trkpt>
      <trkpt lat="45.38057" lon="5.62848">
        <ele>429.4</ele>
        <time>2022-04-15T08:02:41Z</time>
      </trkpt>
      <trkpt lat="45.38057" lon="5.62858">
        <ele>429.2</ele>
        <time>2022-04-15T08:02:42Z</time>
      </trkpt>
      <trkpt lat="45.38057" lon="5.62868">
        <ele>429</ele>
        <time>2022-04-15T08:02:43Z</time>
      </trkpt>
      <trkpt lat="45.38057" lon="5.62878">
        <ele>428.8</ele>
        <time>2022-04-15T08:02:44Z</time>
      </trkpt>
      <trkpt lat="45.38057" lon="5.62888">
        <ele>428.6</ele>
        <time>2022-04-15T08:02:45Z</time>
      </trkpt>
      <trkpt lat="45.38056" lon="5.62898">
        <ele>428.2</ele>
        <time>2022-04-15T08:02:46Z</time>
      </trkpt>
      <trkpt lat="45.38055" lon="5.62909">
        <ele>427.8</ele>
        <time>2022-04-15T08:02:47Z</time>
      </trkpt>
      <trkpt lat="45.38054" lon="5.6292">
        <ele>427.3</ele>
        <time>2022-04-15T08:02:48Z</time>
      </trkpt>
      <trkpt lat="45.38052" lon="5.62931">
        <ele>426.8</ele>
        <time>2022-04-15T08:02:49Z</time>
      </trkpt>
      <trkpt lat="45.3805" lon="5.62942">
        <ele>426.3</ele>
        <time>2022-04-15T08:02:50Z</time>
      </trkpt>
      <trkpt lat="45.38048" lon="5.62953">
        <ele>425.6</ele>
        <time>2022-04-15T08:02:51Z</time>
      </trkpt>
      <trkpt lat="45.38044" lon="5.62964">
        <ele>424.8</ele>
        <time>2022-04-15T08:02:52Z</time>
      </trkpt>
      <trkpt lat="45.3804" lon="5.62975">
        <ele>424</ele>
        <time>2022-04-15T08:02:53Z</time>
      </trkpt>
      <trkpt lat="45.38035" lon="5.62987">
        <ele>423.2</ele>
        <time>2022-04-15T08:02:54Z</time>
      </trkpt>
      <trkpt lat="45.38031" lon="5.62998">
        <ele>422.5</ele>
        <time>2022-04-15T08:02:55Z</time>
      </trkpt>
      <trkpt lat="45.38026" lon="5.6301">
        <ele>421.8</ele>
        <time>2022-04-15T08:02:56Z</time>
      </trkpt>
      <trkpt lat="45.38021" lon="5.63022">
        <ele>421.3</ele>
        <time>2022-04-15T08:02:57Z</time>
      </trkpt>
      <trkpt lat="45.38018" lon="5.63034">
        <ele>421</ele>
        <time>2022-04-15T08:02:58Z</time>
      </trkpt>
      <trkpt lat="45.38016" lon="5.63046">
        <ele>420.8</ele>
        <time>2022-04-15T08:02:59Z</time>
      </trkpt>
      <trkpt lat="45.38015" lon="5.63058">
        <ele>420.7</ele>
        <time>2022-04-15T08:03:00Z</time>
      </trkpt>
      <trkpt lat="45.38014" lon="5.63069">
        <ele>420.7</ele>
        <time>2022-04-15T08:03:01Z</time>
      </trkpt>
      <trkpt lat="45.38014" lon="5.6308">
        <ele>420.7</ele>
        <time>2022-04-15T08:03:02Z</time>
      </trkpt>
      <trkpt lat="45.38014" lon="5.6309">
        <ele>420.6</ele>
        <time>2022-04-15T08:03:03Z</time>
      </trkpt>
      <trkpt lat="45.38013" lon="5.63101">
        <ele>420.6</ele>
        <time>2022-04-15T08:03:04Z</time>
      </trkpt>
      <trkpt lat="45.38012" lon="5.63112">
        <ele>420.5</ele>
        <time>2022-04-15T08:03:05Z</time>
      </trkpt>
      <trkpt lat="45.38011" lon="5.63121">
        <ele>420.6</ele>
        <time>2022-04-15T08:03:06Z</time>
      </trkpt>
      <trkpt lat="45.38009" lon="5.63131">
        <ele>420.7</ele>
        <time>2022-04-15T08:03:07Z</time>
      </trkpt>
      <trkpt lat="45.38008" lon="5.6314">
        <ele>420.8</ele>
        <time>2022-04-15T08:03:08Z</time>
      </trkpt>
      <trkpt lat="45.38007" lon="5.63149">
        <ele>421</ele>
        <time>2022-04-15T08:03:09Z</time>
      </trkpt>
      <trkpt lat="45.38006" lon="5.63158">
        <ele>421.3</ele>
        <time>2022-04-15T08:03:10Z</time>
      </trkpt>
      <trkpt lat="45.38005" lon="5.63166">
        <ele>421.6</ele>
        <time>2022-04-15T08:03:11Z</time>
      </trkpt>
      <trkpt lat="45.38004" lon="5.63172">
        <ele>421.9</ele>
        <time>2022-04-15T08:03:12Z</time>
      </trkpt>
      <trkpt lat="45.38003" lon="5.63179">
        <ele>422.2</ele>
        <time>2022-04-15T08:03:13Z</time>
      </trkpt>
      <trkpt lat="45.38002" lon="5.63184">
        <ele>422.5</ele>
        <time>2022-04-15T08:03:14Z</time>
      </trkpt>
      <trkpt lat="45.38002" lon="5.63186">
        <ele>422.7</ele>
        <time>2022-04-15T08:03:15Z</time>
      </trkpt>
      <trkpt lat="45.38001" lon="5.6319">
        <ele>423</ele>
        <time>2022-04-15T08:03:16Z</time>
      </trkpt>
      <trkpt lat="45.38001" lon="5.63191">
        <ele>423.1</ele>
        <time>2022-04-15T08:03:17Z</time>
      </trkpt>
      <trkpt lat="45.38" lon="5.63195">
        <ele>423.4</ele>
        <time>2022-04-15T08:03:18Z</time>
      </trkpt>
      <trkpt lat="45.38" lon="5.63197">
        <ele>423.5</ele>
        <time>2022-04-15T08:03:19Z</time>
      </trkpt>
      <trkpt lat="45.38" lon="5.63198">
        <ele>423.6</ele>
        <time>2022-04-15T08:03:20Z</time>
      </trkpt>
      <trkpt lat="45.38" lon="5.632">
        <ele>423.8</ele>
        <time>2022-04-15T08:03:21Z</time>
      </trkpt>
      <trkpt lat="45.38" lon="5.63205">
        <ele>424.2</ele>
        <time>2022-04-15T08:03:23Z</time>
      </trkpt>
      <trkpt lat="45.38" lon="5.63209">
        <ele>424.6</ele>
        <time>2022-04-15T08:03:24Z</time>
      </trkpt>
      <trkpt lat="45.38" lon="5.63214">
        <ele>425</ele>
        <time>2022-04-15T08:03:25Z</time>
      </trkpt>
      <trkpt lat="45.38" lon="5.63216">
        <ele>425.1</ele>
        <time>2022-04-15T08:03:26Z</time>
      </trkpt>
      <trkpt lat="45.38" lon="5.63219">
        <ele>425.4</ele>
        <time>2022-04-15T08:03:27Z</time>
      </trkpt>
      <trkpt lat="45.38" lon="5.63224">
        <ele>425.8</ele>
        <time>2022-04-15T08:03:29Z</time>
      </trkpt>
      <trkpt lat="45.38001" lon="5.63228">
        <ele>426.1</ele>
        <time>2022-04-15T08:03:30Z</time>
      </trkpt>
      <trkpt lat="45.38001" lon="5.63229">
        <ele>426.2</ele>
        <time>2022-04-15T08:03:31Z</time>
      </trkpt>
      <trkpt lat="45.38001" lon="5.63235">
        <ele>426.6</ele>
        <time>2022-04-15T08:03:32Z</time>
      </trkpt>
      <trkpt lat="45.38001" lon="5.63238">
        <ele>426.8</ele>
        <time>2022-04-15T08:03:33Z</time>
      </trkpt>
      <trkpt lat="45.38002" lon="5.63241">
        <ele>427</ele>
        <time>2022-04-15T08:03:35Z</time>
      </trkpt>
      <trkpt lat="45.38003" lon="5.63243">
        <ele>427.2</ele>
        <time>2022-04-15T08:03:36Z</time>
      </trkpt>
      <trkpt lat="45.38007" lon="5.63248">
        <ele>427.7</ele>
        <time>2022-04-15T08:03:38Z</time>
      </trkpt>
      <trkpt lat="45.38009" lon="5.63252">
        <ele>428</ele>
        <time>2022-04-15T08:03:39Z</time>
      </trkpt>
      <trkpt lat="45.3801" lon="5.63253">
        <ele>428.1</ele>
        <time>2022-04-15T08:03:40Z</time>
      </trkpt>
      <trkpt lat="45.38012" lon="5.63257">
        <ele>428.3</ele>
        <time>2022-04-15T08:03:41Z</time>
      </trkpt>
      <trkpt lat="45.38012" lon="5.63258">
        <ele>428.4</ele>
        <time>2022-04-15T08:03:42Z</time>
      </trkpt>
      <trkpt lat="45.38014" lon="5.63262">
        <ele>428.7</ele>
        <time>2022-04-15T08:03:43Z</time>
      </trkpt>
      <trkpt lat="45.38015" lon="5.63263">
        <ele>428.8</ele>
        <time>2022-04-15T08:03:44Z</time>
      </trkpt>
      <trkpt lat="45.38017" lon="5.63268">
        <ele>429</ele>
        <time>2022-04-15T08:03:45Z</time>
      </trkpt>
      <trkpt lat="45.38019" lon="5.63272">
        <ele>429.3</ele>
        <time>2022-04-15T08:03:47Z</time>
      </trkpt>
      <trkpt lat="45.38019" lon="5.63273">
        <ele>429.4</ele>
        <time>2022-04-15T08:03:48Z</time>
      </trkpt>
      <trkpt lat="45.38021" lon="5.63276">
        <ele>429.7</ele>
        <time>2022-04-15T08:03:49Z</time>
      </trkpt>
      <trkpt lat="45.38023" lon="5.6328">
        <ele>430</ele>
        <time>2022-04-15T08:03:51Z</time>
      </trkpt>
      <trkpt lat="45.38023" lon="5.63281">
        <ele>430.1</ele>
        <time>2022-04-15T08:03:52Z</time>
      </trkpt>
      <trkpt lat="45.38026" lon="5.63287">
        <ele>430.5</ele>
        <time>2022-04-15T08:03:54Z</time>
      </trkpt>
      <trkpt lat="45.38027" lon="5.63288">
        <ele>430.7</ele>
        <time>2022-04-15T08:03:56Z</time>
      </trkpt>
      <trkpt lat="45.38028" lon="5.6329">
        <ele>430.8</ele>
        <time>2022-04-15T08:03:57Z</time>
      </trkpt>
      <trkpt lat="45.38029" lon="5.63292">
        <ele>431</ele>
        <time>2022-04-15T08:03:58Z</time>
      </trkpt>
      <trkpt lat="45.38031" lon="5.63294">
        <ele>431.3</ele>
        <time>2022-04-15T08:04:00Z</time>
      </trkpt>
      <trkpt lat="45.38032" lon="5.63297">
        <ele>431.5</ele>
        <time>2022-04-15T08:04:01Z</time>
      </trkpt>
      <trkpt lat="45.38032" lon="5.63298">
        <ele>431.6</ele>
        <time>2022-04-15T08:04:02Z</time>
      </trkpt>
      <trkpt lat="45.38032" lon="5.63299">
        <ele>431.7</ele>
        <time>2022-04-15T08:04:03Z</time>
      </trkpt>
      <trkpt lat="45.38033" lon="5.63301">
        <ele>431.8</ele>
        <time>2022-04-15T08:04:04Z</time>
      </trkpt>
      <trkpt lat="45.38033" lon="5.63303">
        <ele>432</ele>
        <time>2022-04-15T08:04:05Z</time>
      </trkpt>
      <trkpt lat="45.38034" lon="5.63308">
        <ele>432.4</ele>
        <time>2022-04-15T08:04:07Z</time>
      </trkpt>
      <trkpt lat="45.38036" lon="5.6331">
        <ele>432.7</ele>
        <time>2022-04-15T08:04:09Z</time>
      </trkpt>
      <trkpt lat="45.38036" lon="5.63312">
        <ele>432.8</ele>
        <time>2022-04-15T08:04:10Z</time>
      </trkpt>
      <trkpt lat="45.38037" lon="5.63315">
        <ele>433</ele>
        <time>2022-04-15T08:04:11Z</time>
      </trkpt>
      <trkpt lat="45.38038" lon="5.63315">
        <ele>433.1</ele>
        <time>2022-04-15T08:04:12Z</time>
      </trkpt>
      <trkpt lat="45.38038" lon="5.63316">
        <ele>433.2</ele>
        <time>2022-04-15T08:04:13Z</time>
      </trkpt>
      <trkpt lat="45.38039" lon="5.63319">
        <ele>433.4</ele>
        <time>2022-04-15T08:04:14Z</time>
      </trkpt>
      <trkpt lat="45.3804" lon="5.6332">
        <ele>433.6</ele>
        <time>2022-04-15T08:04:15Z</time>
      </trkpt>
      <trkpt lat="45.38042" lon="5.63322">
        <ele>433.9</ele>
        <time>2022-04-15T08:04:17Z</time>
      </trkpt>
      <trkpt lat="45.38043" lon="5.63325">
        <ele>434.1</ele>
        <time>2022-04-15T08:04:19Z</time>
      </trkpt>
      <trkpt lat="45.38044" lon="5.63327">
        <ele>434.3</ele>
        <time>2022-04-15T08:04:20Z</time>
      </trkpt>
      <trkpt lat="45.38045" lon="5.63328">
        <ele>434.5</ele>
        <time>2022-04-15T08:04:21Z</time>
      </trkpt>
      <trkpt lat="45.38047" lon="5.63332">
        <ele>434.9</ele>
        <time>2022-04-15T08:04:23Z</time>
      </trkpt>
      <trkpt lat="45.38047" lon="5.63333">
        <ele>435</ele>
        <time>2022-04-15T08:04:24Z</time>
      </trkpt>
      <trkpt lat="45.38048" lon="5.63335">
        <ele>435.2</ele>
        <time>2022-04-15T08:04:26Z</time>
      </trkpt>
      <trkpt lat="45.38049" lon="5.63337">
        <ele>435.3</ele>
        <time>2022-04-15T08:04:27Z</time>
      </trkpt>
      <trkpt lat="45.3805" lon="5.63339">
        <ele>435.6</ele>
        <time>2022-04-15T08:04:28Z</time>
      </trkpt>
      <trkpt lat="45.3805" lon="5.63341">
        <ele>435.7</ele>
        <time>2022-04-15T08:04:29Z</time>
      </trkpt>
      <trkpt lat="45.38051" lon="5.63342">
        <ele>435.8</ele>
        <time>2022-04-15T08:04:30Z</time>
      </trkpt>
      <trkpt lat="45.38051" lon="5.63344">
        <ele>436</ele>
        <time>2022-04-15T08:04:31Z</time>
      </trkpt>
      <trkpt lat="45.38052" lon="5.63346">
        <ele>436.1</ele>
        <time>2022-04-15T08:04:32Z</time>
      </trkpt>
      <trkpt lat="45.38053" lon="5.63347">
        <ele>436.3</ele>
        <time>2022-04-15T08:04:33Z</time>
      </trkpt>
      <trkpt lat="45.38054" lon="5.63349">
        <ele>436.5</ele>
        <time>2022-04-15T08:04:34Z</time>
      </trkpt>
      <trkpt lat="45.38054" lon="5.6335">
        <ele>436.6</ele>
        <time>2022-04-15T08:04:35Z</time>
      </trkpt>
      <trkpt lat="45.38056" lon="5.63352">
        <ele>436.8</ele>
        <time>2022-04-15T08:04:36Z</time>
      </trkpt>
      <trkpt lat="45.38057" lon="5.63354">
        <ele>437</ele>
        <time>2022-04-15T08:04:37Z</time>
      </trkpt>
      <trkpt lat="45.38057" lon="5.63356">
        <ele>437.1</ele>
        <time>2022-04-15T08:04:38Z</time>
      </trkpt>
      <trkpt lat="45.38058" lon="5.63357">
        <ele>437.2</ele>
        <time>2022-04-15T08:04:39Z</time>
      </trkpt>
      <trkpt lat="45.38058" lon="5.63359">
        <ele>437.4</ele>
        <time>2022-04-15T08:04:40Z</time>
      </trkpt>
      <trkpt lat="45.38059" lon="5.63361">
        <ele>437.6</ele>
        <time>2022-04-15T08:04:41Z</time>
      </trkpt>
      <trkpt lat="45.3806" lon="5.63366">
        <ele>437.9</ele>
        <time>2022-04-15T08:04:43Z</time>
      </trkpt>
      <trkpt lat="45.38061" lon="5.63368">
        <ele>438.1</ele>
        <time>2022-04-15T08:04:45Z</time>
      </trkpt>
      <trkpt lat="45.38061" lon="5.6337">
        <ele>438.3</ele>
        <time>2022-04-15T08:04:46Z</time>
      </trkpt>
      <trkpt lat="45.38062" lon="5.63375">
        <ele>438.6</ele>
        <time>2022-04-15T08:04:48Z</time>
      </trkpt>
      <trkpt lat="45.38062" lon="5.63379">
        <ele>438.9</ele>
        <time>2022-04-15T08:04:50Z</time>
      </trkpt>
      <trkpt lat="45.38063" lon="5.63382">
        <ele>439.1</ele>
        <time>2022-04-15T08:04:52Z</time>
      </trkpt>
      <trkpt lat="45.38064" lon="5.63386">
        <ele>439.4</ele>
        <time>2022-04-15T08:04:54Z</time>
      </trkpt>
      <trkpt lat="45.38065" lon="5.63388">
        <ele>439.5</ele>
        <time>2022-04-15T08:04:55Z</time>
      </trkpt>
      <trkpt lat="45.38066" lon="5.63391">
        <ele>439.8</ele>
        <time>2022-04-15T08:04:57Z</time>
      </trkpt>
      <trkpt lat="45.38067" lon="5.63393">
        <ele>439.9</ele>
        <time>2022-04-15T08:04:58Z</time>
      </trkpt>
      <trkpt lat="45.38067" lon="5.63395">
        <ele>440.1</ele>
        <time>2022-04-15T08:04:59Z</time>
      </trkpt>
      <trkpt lat="45.38067" lon="5.63397">
        <ele>440.2</ele>
        <time>2022-04-15T08:05:00Z</time>
      </trkpt>
      <trkpt lat="45.38067" lon="5.63399">
        <ele>440.3</ele>
        <time>2022-04-15T08:05:01Z</time>
      </trkpt>
      <trkpt lat="45.38067" lon="5.63402">
        <ele>440.5</ele>
        <time>2022-04-15T08:05:02Z</time>
      </trkpt>
      <trkpt lat="45.38066" lon="5.63406">
        <ele>440.7</ele>
        <time>2022-04-15T08:05:04Z</time>
      </trkpt>
      <trkpt lat="45.38065" lon="5.63409">
        <ele>440.9</ele>
        <time>2022-04-15T08:05:05Z</time>
      </trkpt>
      <trkpt lat="45.38065" lon="5.63411">
        <ele>441</ele>
        <time>2022-04-15T08:05:06Z</time>
      </trkpt>
      <trkpt lat="45.38065" lon="5.63413">
        <ele>441.1</ele>
        <time>2022-04-15T08:05:07Z</time>
      </trkpt>
      <trkpt lat="45.38065" lon="5.63415">
        <ele>441.2</ele>
        <time>2022-04-15T08:05:08Z</time>
      </trkpt>
      <trkpt lat="45.38065" lon="5.63418">
        <ele>441.4</ele>
        <time>2022-04-15T08:05:09Z</time>
      </trkpt>
      <trkpt lat="45.38064" lon="5.63423">
        <ele>441.6</ele>
        <time>2022-04-15T08:05:11Z</time>
      </trkpt>
      <trkpt lat="45.38064" lon="5.63426">
        <ele>441.8</ele>
        <time>2022-04-15T08:05:12Z</time>
      </trkpt>
      <trkpt lat="45.38064" lon="5.63428">
        <ele>441.8</ele>
        <time>2022-04-15T08:05:13Z</time>
      </trkpt>
      <trkpt lat="45.38063" lon="5.63431">
        <ele>442</ele>
        <time>2022-04-15T08:05:14Z</time>
      </trkpt>
      <trkpt lat="45.38063" lon="5.63434">
        <ele>442.1</ele>
        <time>2022-04-15T08:05:16Z</time>
      </trkpt>
      <trkpt lat="45.38063" lon="5.63437">
        <ele>442.2</ele>
        <time>2022-04-15T08:05:17Z</time>
      </trkpt>
      <trkpt lat="45.38062" lon="5.63439">
        <ele>442.3</ele>
        <time>2022-04-15T08:05:18Z</time>
      </trkpt>
      <trkpt lat="45.38062" lon="5.63442">
        <ele>442.4</ele>
        <time>2022-04-15T08:05:19Z</time>
      </trkpt>
      <trkpt lat="45.38062" lon="5.63447">
        <ele>442.6</ele>
        <time>2022-04-15T08:05:21Z</time>
      </trkpt>
      <trkpt lat="45.38062" lon="5.63449">
        <ele>442.7</ele>
        <time>2022-04-15T08:05:22Z</time>
      </trkpt>
      <trkpt lat="45.38061" lon="5.63452">
        <ele>442.7</ele>
        <time>2022-04-15T08:05:23Z</time>
      </trkpt>
      <trkpt lat="45.38061" lon="5.63455">
        <ele>442.8</ele>
        <time>2022-04-15T08:05:24Z</time>
      </trkpt>
      <trkpt lat="45.38059" lon="5.6346">
        <ele>443</ele>
        <time>2022-04-15T08:05:26Z</time>
      </trkpt>
      <trkpt lat="45.38058" lon="5.63464">
        <ele>443.1</ele>
        <time>2022-04-15T08:05:27Z</time>
      </trkpt>
      <trkpt lat="45.38056" lon="5.63469">
        <ele>443.2</ele>
        <time>2022-04-15T08:05:29Z</time>
      </trkpt>
      <trkpt lat="45.38055" lon="5.63474">
        <ele>443.3</ele>
        <time>2022-04-15T08:05:30Z</time>
      </trkpt>
      <trkpt lat="45.38055" lon="5.63476">
        <ele>443.4</ele>
        <time>2022-04-15T08:05:31Z</time>
      </trkpt>
      <trkpt lat="45.38054" lon="5.6348">
        <ele>443.5</ele>
        <time>2022-04-15T08:05:32Z</time>
      </trkpt>
      <trkpt lat="45.38053" lon="5.63486">
        <ele>443.6</ele>
        <time>2022-04-15T08:05:34Z</time>
      </trkpt>
      <trkpt lat="45.38051" lon="5.63491">
        <ele>443.7</ele>
        <time>2022-04-15T08:05:35Z</time>
      </trkpt>
      <trkpt lat="45.3805" lon="5.63493">
        <ele>443.7</ele>
        <time>2022-04-15T08:05:36Z</time>
      </trkpt>
      <trkpt lat="45.38049" lon="5.63497">
        <ele>443.8</ele>
        <time>2022-04-15T08:05:37Z</time>
      </trkpt>
      <trkpt lat="45.38047" lon="5.63502">
        <ele>443.9</ele>
        <time>2022-04-15T08:05:39Z</time>
      </trkpt>
      <trkpt lat="45.38045" lon="5.63507">
        <ele>443.9</ele>
        <time>2022-04-15T08:05:40Z</time>
      </trkpt>
      <trkpt lat="45.38043" lon="5.63513">
        <ele>444</ele>
        <time>2022-04-15T08:05:42Z</time>
      </trkpt>
      <trkpt lat="45.38042" lon="5.63516">
        <ele>444</ele>
        <time>2022-04-15T08:05:43Z</time>
      </trkpt>
      <trkpt lat="45.3804" lon="5.6352">
        <ele>444</ele>
        <time>2022-04-15T08:05:44Z</time>
      </trkpt>
      <trkpt lat="45.38037" lon="5.63527">
        <ele>444.1</ele>
        <time>2022-04-15T08:05:46Z</time>
      </trkpt>
      <trkpt lat="45.38035" lon="5.63531">
        <ele>444.1</ele>
        <time>2022-04-15T08:05:48Z</time>
      </trkpt>
      <trkpt lat="45.38035" lon="5.63532">
        <ele>444.1</ele>
        <time>2022-04-15T08:05:49Z</time>
      </trkpt>
      <trkpt lat="45.38036" lon="5.6353">
        <ele>444.1</ele>
        <time>2022-04-15T08:05:50Z</time>
      </trkpt>
      <trkpt lat="45.38036" lon="5.6353">
        <ele>444.1</ele>
        <time>2022-04-15T08:05:51Z</time>
      </trkpt>
      <trkpt lat="45.38036" lon="5.63529">
        <ele>444.1</ele>
        <time>2022-04-15T08:05:52Z</time>
      </trkpt>
      <trkpt lat="45.38036" lon="5.63529">
        <ele>444.1</ele>
        <time>2022-04-15T08:05:53Z</time>
      </trkpt>
      <trkpt lat="45.38036" lon="5.63529">
        <ele>444.1</ele>
        <time>2022-04-15T08:05:54Z</time>
      </trkpt>
      <trkpt lat="45.38036" lon="5.63529">
        <ele>444.1</ele>
        <time>2022-04-15T08:05:55Z</time>
      </trkpt>
      <trkpt lat="45.38036" lon="5.63529">
        <ele>444.1</ele>
        <time>2022-04-15T08:05:57Z</time>
      </trkpt>
      <trkpt lat="45.38037" lon="5.63529">
        <ele>444.1</ele>
        <time>2022-04-15T08:05:58Z</time>
      </trkpt>
      <trkpt lat="45.38037" lon="5.63529">
        <ele>444.1</ele>
        <time>2022-04-15T08:05:59Z</time>
      </trkpt>
      <trkpt lat="45.38037" lon="5.63529">
        <ele>444.1</ele>
        <time>2022-04-15T08:06:00Z</time>
      </trkpt>
      <trkpt lat="45.38037" lon="5.63529">
        <ele>444.1</ele>
        <time>2022-04-15T08:06:01Z</time>
      </trkpt>
      <trkpt lat="45.38037" lon="5.63529">
        <ele>444.1</ele>
        <time>2022-04-15T08:06:02Z</time>
      </trkpt>
      <trkpt lat="45.38037" lon="5.63529">
        <ele>444.1</ele>
        <time>2022-04-15T08:06:03Z</time>
      </trkpt>
      <trkpt lat="45.38037" lon="5.63529">
        <ele>444.1</ele>
        <time>2022-04-15T08:06:04Z</time>
      </trkpt>
      <trkpt lat="45.38037" lon="5.63529">
        <ele>444.1</ele>
        <time>2022-04-15T08:06:05Z</time>
      </trkpt>
      <trkpt lat="45.38037" lon="5.63529">
        <ele>444.1</ele>
        <time>2022-04-15T08:06:06Z</time>
      </trkpt>
      <trkpt lat="45.38038" lon="5.63529">
        <ele>444.1</ele>
        <time>2022-04-15T08:06:07Z</time>
      </trkpt>
      <trkpt lat="45.38038" lon="5.63529">
        <ele>444.1</ele>
        <time>2022-04-15T08:06:08Z</time>
      </trkpt>
      <trkpt lat="45.38038" lon="5.63529">
        <ele>444.1</ele>
        <time>2022-04-15T08:06:09Z</time>
      </trkpt>
      <trkpt lat="45.38038" lon="5.6353">
        <ele>444.1</ele>
        <time>2022-04-15T08:06:10Z</time>
      </trkpt>
      <trkpt lat="45.38039" lon="5.6353">
        <ele>444.1</ele>
        <time>2022-04-15T08:06:11Z</time>
      </trkpt>
      <trkpt lat="45.38039" lon="5.6353">
        <ele>444.1</ele>
        <time>2022-04-15T08:06:12Z</time>
      </trkpt>
      <trkpt lat="45.38039" lon="5.63531">
        <ele>444.1</ele>
        <time>2022-04-15T08:06:13Z</time>
      </trkpt>
      <trkpt lat="45.38039" lon="5.63531">
        <ele>444.1</ele>
        <time>2022-04-15T08:06:14Z</time>
      </trkpt>
      <trkpt lat="45.38039" lon="5.63531">
        <ele>444.1</ele>
        <time>2022-04-15T08:06:15Z</time>
      </trkpt>
      <trkpt lat="45.38039" lon="5.63531">
        <ele>444.1</ele>
        <time>2022-04-15T08:06:16Z</time>
      </trkpt>
      <trkpt lat="45.3804" lon="5.63532">
        <ele>444.1</ele>
        <time>2022-04-15T08:06:17Z</time>
      </trkpt>
      <trkpt lat="45.3804" lon="5.63532">
        <ele>444.1</ele>
        <time>2022-04-15T08:06:18Z</time>
      </trkpt>
      <trkpt lat="45.3804" lon="5.63532">
        <ele>444.1</ele>
        <time>2022-04-15T08:06:19Z</time>
      </trkpt>
      <trkpt lat="45.3804" lon="5.63533">
        <ele>444.1</ele>
        <time>2022-04-15T08:06:20Z</time>
      </trkpt>
      <trkpt lat="45.3804" lon="5.63533">
        <ele>444.1</ele>
        <time>2022-04-15T08:06:21Z</time>
      </trkpt>
      <trkpt lat="45.38042" lon="5.63533">
        <ele>444.1</ele>
        <time>2022-04-15T08:06:22Z</time>
      </trkpt>
      <trkpt lat="45.38043" lon="5.63532">
        <ele>444</ele>
        <time>2022-04-15T08:06:23Z</time>
      </trkpt>
      <trkpt lat="45.38046" lon="5.63528">
        <ele>444</ele>
        <time>2022-04-15T08:06:24Z</time>
      </trkpt>
      <trkpt lat="45.38046" lon="5.63527">
        <ele>444</ele>
        <time>2022-04-15T08:06:25Z</time>
      </trkpt>
      <trkpt lat="45.38048" lon="5.63522">
        <ele>444</ele>
        <time>2022-04-15T08:06:26Z</time>
      </trkpt>
      <trkpt lat="45.3805" lon="5.63515">
        <ele>444</ele>
        <time>2022-04-15T08:06:28Z</time>
      </trkpt>
      <trkpt lat="45.38053" lon="5.63512">
        <ele>443.7</ele>
        <time>2022-04-15T08:06:29Z</time>
      </trkpt>
      <trkpt lat="45.38061" lon="5.63512">
        <ele>443.5</ele>
        <time>2022-04-15T08:06:31Z</time>
      </trkpt>
      <trkpt lat="45.38068" lon="5.63515">
        <ele>443.4</ele>
        <time>2022-04-15T08:06:32Z</time>
      </trkpt>
      <trkpt lat="45.38075" lon="5.63521">
        <ele>443.2</ele>
        <time>2022-04-15T08:06:34Z</time>
      </trkpt>
      <trkpt lat="45.38079" lon="5.63523">
        <ele>443.1</ele>
        <time>2022-04-15T08:06:35Z</time>
      </trkpt>
      <trkpt lat="45.38083" lon="5.63525">
        <ele>443</ele>
        <time>2022-04-15T08:06:36Z</time>
      </trkpt>
      <trkpt lat="45.38088" lon="5.63526">
        <ele>442.9</ele>
        <time>2022-04-15T08:06:37Z</time>
      </trkpt>
      <trkpt lat="45.38092" lon="5.63527">
        <ele>442.9</ele>
        <time>2022-04-15T08:06:38Z</time>
      </trkpt>
      <trkpt lat="45.38097" lon="5.63529">
        <ele>442.8</ele>
        <time>2022-04-15T08:06:39Z</time>
      </trkpt>
      <trkpt lat="45.38102" lon="5.6353">
        <ele>442.7</ele>
        <time>2022-04-15T08:06:40Z</time>
      </trkpt>
      <trkpt lat="45.38107" lon="5.63532">
        <ele>442.7</ele>
        <time>2022-04-15T08:06:41Z</time>
      </trkpt>
      <trkpt lat="45.38112" lon="5.63533">
        <ele>442.6</ele>
        <time>2022-04-15T08:06:42Z</time>
      </trkpt>
      <trkpt lat="45.38117" lon="5.63534">
        <ele>442.6</ele>
        <time>2022-04-15T08:06:43Z</time>
      </trkpt>
      <trkpt lat="45.38121" lon="5.63536">
        <ele>442.5</ele>
        <time>2022-04-15T08:06:44Z</time>
      </trkpt>
      <trkpt lat="45.38126" lon="5.63536">
        <ele>442.5</ele>
        <time>2022-04-15T08:06:45Z</time>
      </trkpt>
      <trkpt lat="45.38131" lon="5.63537">
        <ele>442.4</ele>
        <time>2022-04-15T08:06:46Z</time>
      </trkpt>
      <trkpt lat="45.38135" lon="5.63538">
        <ele>442.4</ele>
        <time>2022-04-15T08:06:47Z</time>
      </trkpt>
      <trkpt lat="45.3814" lon="5.63539">
        <ele>442.3</ele>
        <time>2022-04-15T08:06:48Z</time>
      </trkpt>
      <trkpt lat="45.38145" lon="5.6354">
        <ele>442.3</ele>
        <time>2022-04-15T08:06:49Z</time>
      </trkpt>
      <trkpt lat="45.38148" lon="5.63541">
        <ele>442.3</ele>
        <time>2022-04-15T08:06:50Z</time>
      </trkpt>
      <trkpt lat="45.38153" lon="5.63542">
        <ele>442.2</ele>
        <time>2022-04-15T08:06:51Z</time>
      </trkpt>
      <trkpt lat="45.38158" lon="5.63543">
        <ele>442.1</ele>
        <time>2022-04-15T08:06:52Z</time>
      </trkpt>
      <trkpt lat="45.38163" lon="5.63544">
        <ele>442.1</ele>
        <time>2022-04-15T08:06:53Z</time>
      </trkpt>
      <trkpt lat="45.38168" lon="5.63545">
        <ele>442</ele>
        <time>2022-04-15T08:06:54Z</time>
      </trkpt>
      <trkpt lat="45.38173" lon="5.63546">
        <ele>441.9</ele>
        <time>2022-04-15T08:06:55Z</time>
      </trkpt>
      <trkpt lat="45.38178" lon="5.63547">
        <ele>441.8</ele>
        <time>2022-04-15T08:06:56Z</time>
      </trkpt>
      <trkpt lat="45.38184" lon="5.63547">
        <ele>441.8</ele>
        <time>2022-04-15T08:06:57Z</time>
      </trkpt>
      <trkpt lat="45.38189" lon="5.63548">
        <ele>441.7</ele>
        <time>2022-04-15T08:06:58Z</time>
      </trkpt>
      <trkpt lat="45.38194" lon="5.63549">
        <ele>441.6</ele>
        <time>2022-04-15T08:06:59Z</time>
      </trkpt>
      <trkpt lat="45.38199" lon="5.6355">
        <ele>441.6</ele>
        <time>2022-04-15T08:07:00Z</time>
      </trkpt>
      <trkpt lat="45.38204" lon="5.63552">
        <ele>441.5</ele>
        <time>2022-04-15T08:07:01Z</time>
      </trkpt>
      <trkpt lat="45.3821" lon="5.63554">
        <ele>441.4</ele>
        <time>2022-04-15T08:07:02Z</time>
      </trkpt>
      <trkpt lat="45.38215" lon="5.63554">
        <ele>441.4</ele>
        <time>2022-04-15T08:07:03Z</time>
      </trkpt>
      <trkpt lat="45.3822" lon="5.63555">
        <ele>441.4</ele>
        <time>2022-04-15T08:07:04Z</time>
      </trkpt>
      <trkpt lat="45.38225" lon="5.63556">
        <ele>441.3</ele>
        <time>2022-04-15T08:07:05Z</time>
      </trkpt>
      <trkpt lat="45.38231" lon="5.63557">
        <ele>441.3</ele>
        <time>2022-04-15T08:07:06Z</time>
      </trkpt>
      <trkpt lat="45.38236" lon="5.63559">
        <ele>441.2</ele>
        <time>2022-04-15T08:07:07Z</time>
      </trkpt>
      <trkpt lat="45.38241" lon="5.63559">
        <ele>441.1</ele>
        <time>2022-04-15T08:07:08Z</time>
      </trkpt>
      <trkpt lat="45.38247" lon="5.6356">
        <ele>441</ele>
        <time>2022-04-15T08:07:09Z</time>
      </trkpt>
      <trkpt lat="45.38252" lon="5.63561">
        <ele>440.9</ele>
        <time>2022-04-15T08:07:10Z</time>
      </trkpt>
      <trkpt lat="45.38257" lon="5.63563">
        <ele>440.9</ele>
        <time>2022-04-15T08:07:11Z</time>
      </trkpt>
      <trkpt lat="45.38262" lon="5.63564">
        <ele>440.8</ele>
        <time>2022-04-15T08:07:12Z</time>
      </trkpt>
      <trkpt lat="45.38267" lon="5.63566">
        <ele>440.7</ele>
        <time>2022-04-15T08:07:13Z</time>
      </trkpt>
      <trkpt lat="45.38273" lon="5.63567">
        <ele>440.6</ele>
        <time>2022-04-15T08:07:14Z</time>
      </trkpt>
      <trkpt lat="45.38278" lon="5.63568">
        <ele>440.5</ele>
        <time>2022-04-15T08:07:15Z</time>
      </trkpt>
      <trkpt lat="45.38284" lon="5.6357">
        <ele>440.4</ele>
        <time>2022-04-15T08:07:16Z</time>
      </trkpt>
      <trkpt lat="45.38289" lon="5.63572">
        <ele>440.2</ele>
        <time>2022-04-15T08:07:17Z</time>
      </trkpt>
      <trkpt lat="45.38295" lon="5.63573">
        <ele>440.1</ele>
        <time>2022-04-15T08:07:18Z</time>
      </trkpt>
      <trkpt lat="45.383" lon="5.63574">
        <ele>440</ele>
        <time>2022-04-15T08:07:19Z</time>
      </trkpt>
      <trkpt lat="45.38306" lon="5.63576">
        <ele>439.9</ele>
        <time>2022-04-15T08:07:20Z</time>
      </trkpt>
      <trkpt lat="45.38311" lon="5.63577">
        <ele>439.8</ele>
        <time>2022-04-15T08:07:21Z</time>
      </trkpt>
      <trkpt lat="45.38317" lon="5.63579">
        <ele>439.6</ele>
        <time>2022-04-15T08:07:22Z</time>
      </trkpt>
      <trkpt lat="45.38322" lon="5.63582">
        <ele>439.4</ele>
        <time>2022-04-15T08:07:23Z</time>
      </trkpt>
      <trkpt lat="45.38327" lon="5.63585">
        <ele>439.2</ele>
        <time>2022-04-15T08:07:24Z</time>
      </trkpt>
      <trkpt lat="45.38333" lon="5.63588">
        <ele>439</ele>
        <time>2022-04-15T08:07:25Z</time>
      </trkpt>
      <trkpt lat="45.38338" lon="5.63592">
        <ele>438.7</ele>
        <time>2022-04-15T08:07:26Z</time>
      </trkpt>
      <trkpt lat="45.38344" lon="5.63595">
        <ele>438.4</ele>
        <time>2022-04-15T08:07:27Z</time>
      </trkpt>
      <trkpt lat="45.3835" lon="5.63598">
        <ele>438</ele>
        <time>2022-04-15T08:07:28Z</time>
      </trkpt>
      <trkpt lat="45.38355" lon="5.63602">
        <ele>437.6</ele>
        <time>2022-04-15T08:07:29Z</time>
      </trkpt>
      <trkpt lat="45.38361" lon="5.63606">
        <ele>437.1</ele>
        <time>2022-04-15T08:07:30Z</time>
      </trkpt>
      <trkpt lat="45.38367" lon="5.6361">
        <ele>436.5</ele>
        <time>2022-04-15T08:07:31Z</time>
      </trkpt>
      <trkpt lat="45.38372" lon="5.63615">
        <ele>435.8</ele>
        <time>2022-04-15T08:07:32Z</time>
      </trkpt>
      <trkpt lat="45.38376" lon="5.6362">
        <ele>435.2</ele>
        <time>2022-04-15T08:07:33Z</time>
      </trkpt>
      <trkpt lat="45.3838" lon="5.63625">
        <ele>434.6</ele>
        <time>2022-04-15T08:07:34Z</time>
      </trkpt>
      <trkpt lat="45.38383" lon="5.63629">
        <ele>434</ele>
        <time>2022-04-15T08:07:35Z</time>
      </trkpt>
      <trkpt lat="45.38386" lon="5.63632">
        <ele>433.6</ele>
        <time>2022-04-15T08:07:36Z</time>
      </trkpt>
      <trkpt lat="45.38389" lon="5.63634">
        <ele>433.3</ele>
        <time>2022-04-15T08:07:37Z</time>
      </trkpt>
      <trkpt lat="45.38389" lon="5.63635">
        <ele>433.2</ele>
        <time>2022-04-15T08:07:38Z</time>
      </trkpt>
      <trkpt lat="45.38391" lon="5.63637">
        <ele>433.1</ele>
        <time>2022-04-15T08:07:39Z</time>
      </trkpt>
      <trkpt lat="45.38392" lon="5.63638">
        <ele>433</ele>
        <time>2022-04-15T08:07:40Z</time>
      </trkpt>
      <trkpt lat="45.38392" lon="5.63638">
        <ele>432.9</ele>
        <time>2022-04-15T08:07:41Z</time>
      </trkpt>
      <trkpt lat="45.38392" lon="5.63638">
        <ele>432.9</ele>
        <time>2022-04-15T08:07:42Z</time>
      </trkpt>
      <trkpt lat="45.38392" lon="5.63638">
        <ele>432.9</ele>
        <time>2022-04-15T08:07:43Z</time>
      </trkpt>
      <trkpt lat="45.38392" lon="5.63638">
        <ele>432.9</ele>
        <time>2022-04-15T08:07:44Z</time>
      </trkpt>
      <trkpt lat="45.38392" lon="5.63638">
        <ele>432.9</ele>
        <time>2022-04-15T08:07:45Z</time>
      </trkpt>
      <trkpt lat="45.38392" lon="5.63637">
        <ele>432.9</ele>
        <time>2022-04-15T08:07:46Z</time>
      </trkpt>
      <trkpt lat="45.38392" lon="5.63638">
        <ele>432.9</ele>
        <time>2022-04-15T08:07:47Z</time>
      </trkpt>
      <trkpt lat="45.38392" lon="5.63637">
        <ele>432.8</ele>
        <time>2022-04-15T08:07:48Z</time>
      </trkpt>
      <trkpt lat="45.38392" lon="5.63637">
        <ele>432.8</ele>
        <time>2022-04-15T08:07:49Z</time>
      </trkpt>
      <trkpt lat="45.38392" lon="5.63637">
        <ele>432.8</ele>
        <time>2022-04-15T08:07:50Z</time>
      </trkpt>
      <trkpt lat="45.38392" lon="5.63637">
        <ele>432.8</ele>
        <time>2022-04-15T08:07:51Z</time>
      </trkpt>
      <trkpt lat="45.38392" lon="5.63637">
        <ele>432.8</ele>
        <time>2022-04-15T08:07:52Z</time>
      </trkpt>
      <trkpt lat="45.38392" lon="5.63637">
        <ele>432.8</ele>
        <time>2022-04-15T08:07:53Z</time>
      </trkpt>
      <trkpt lat="45.38392" lon="5.63637">
        <ele>432.8</ele>
        <time>2022-04-15T08:07:54Z</time>
      </trkpt>
      <trkpt lat="45.38392" lon="5.63637">
        <ele>432.8</ele>
        <time>2022-04-15T08:07:55Z</time>
      </trkpt>
      <trkpt lat="45.38392" lon="5.63637">
        <ele>432.8</ele>
        <time>2022-04-15T08:07:56Z</time>
      </trkpt>
      <trkpt lat="45.38392" lon="5.63637">
        <ele>432.8</ele>
        <time>2022-04-15T08:07:58Z</time>
      </trkpt>
      <trkpt lat="45.38392" lon="5.63637">
        <ele>432.8</ele>
        <time>2022-04-15T08:07:59Z</time>
      </trkpt>
      <trkpt lat="45.38392" lon="5.63637">
        <ele>432.8</ele>
        <time>2022-04-15T08:08:00Z</time>
      </trkpt>
      <trkpt lat="45.38392" lon="5.63637">
        <ele>432.7</ele>
        <time>2022-04-15T08:08:01Z</time>
      </trkpt>
      <trkpt lat="45.38392" lon="5.63637">
        <ele>432.7</ele>
        <time>2022-04-15T08:08:02Z</time>
      </trkpt>
      <trkpt lat="45.38392" lon="5.63637">
        <ele>432.7</ele>
        <time>2022-04-15T08:08:03Z</time>
      </trkpt>
      <trkpt lat="45.38392" lon="5.63637">
        <ele>432.7</ele>
        <time>2022-04-15T08:08:04Z</time>
      </trkpt>
      <trkpt lat="45.38393" lon="5.63637">
        <ele>432.7</ele>
        <time>2022-04-15T08:08:05Z</time>
      </trkpt>
      <trkpt lat="45.38397" lon="5.63638">
        <ele>432.3</ele>
        <time>2022-04-15T08:08:07Z</time>
      </trkpt>
      <trkpt lat="45.384" lon="5.63637">
        <ele>432.1</ele>
        <time>2022-04-15T08:08:08Z</time>
      </trkpt>
      <trkpt lat="45.38404" lon="5.63634">
        <ele>431.9</ele>
        <time>2022-04-15T08:08:09Z</time>
      </trkpt>
      <trkpt lat="45.38412" lon="5.6362">
        <ele>431.3</ele>
        <time>2022-04-15T08:08:11Z</time>
      </trkpt>
      <trkpt lat="45.38416" lon="5.63615">
        <ele>431.1</ele>
        <time>2022-04-15T08:08:12Z</time>
      </trkpt>
      <trkpt lat="45.3842" lon="5.63609">
        <ele>430.8</ele>
        <time>2022-04-15T08:08:13Z</time>
      </trkpt>
      <trkpt lat="45.38423" lon="5.63603">
        <ele>430.5</ele>
        <time>2022-04-15T08:08:14Z</time>
      </trkpt>
      <trkpt lat="45.38427" lon="5.63597">
        <ele>430.3</ele>
        <time>2022-04-15T08:08:15Z</time>
      </trkpt>
      <trkpt lat="45.3843" lon="5.6359">
        <ele>430</ele>
        <time>2022-04-15T08:08:16Z</time>
      </trkpt>
      <trkpt lat="45.38434" lon="5.63583">
        <ele>429.7</ele>
        <time>2022-04-15T08:08:17Z</time>
      </trkpt>
      <trkpt lat="45.38437" lon="5.63575">
        <ele>429.4</ele>
        <time>2022-04-15T08:08:18Z</time>
      </trkpt>
      <trkpt lat="45.38441" lon="5.63567">
        <ele>429.1</ele>
        <time>2022-04-15T08:08:19Z</time>
      </trkpt>
      <trkpt lat="45.38444" lon="5.63559">
        <ele>428.9</ele>
        <time>2022-04-15T08:08:20Z</time>
      </trkpt>
      <trkpt lat="45.38446" lon="5.6355">
        <ele>428.6</ele>
        <time>2022-04-15T08:08:21Z</time>
      </trkpt>
      <trkpt lat="45.38448" lon="5.63541">
        <ele>428.6</ele>
        <time>2022-04-15T08:08:22Z</time>
      </trkpt>
      <trkpt lat="45.38451" lon="5.63532">
        <ele>428.5</ele>
        <time>2022-04-15T08:08:23Z</time>
      </trkpt>
      <trkpt lat="45.38453" lon="5.63522">
        <ele>428.4</ele>
        <time>2022-04-15T08:08:24Z</time>
      </trkpt>
      <trkpt lat="45.38456" lon="5.63512">
        <ele>428.2</ele>
        <time>2022-04-15T08:08:25Z</time>
      </trkpt>
      <trkpt lat="45.38458" lon="5.63502">
        <ele>428.1</ele>
        <time>2022-04-15T08:08:26Z</time>
      </trkpt>
      <trkpt lat="45.3846" lon="5.63492">
        <ele>427.9</ele>
        <time>2022-04-15T08:08:27Z</time>
      </trkpt>
      <trkpt lat="45.38462" lon="5.63482">
        <ele>427.8</ele>
        <time>2022-04-15T08:08:28Z</time>
      </trkpt>
      <trkpt lat="45.38464" lon="5.63473">
        <ele>427.7</ele>
        <time>2022-04-15T08:08:29Z</time>
      </trkpt>
      <trkpt lat="45.38465" lon="5.63464">
        <ele>427.7</ele>
        <time>2022-04-15T08:08:30Z</time>
      </trkpt>
      <trkpt lat="45.38469" lon="5.6346">
        <ele>427.6</ele>
        <time>2022-04-15T08:08:31Z</time>
      </trkpt>
      <trkpt lat="45.38474" lon="5.63459">
        <ele>427.7</ele>
        <time>2022-04-15T08:08:32Z</time>
      </trkpt>
      <trkpt lat="45.38478" lon="5.63462">
        <ele>427.7</ele>
        <time>2022-04-15T08:08:33Z</time>
      </trkpt>
      <trkpt lat="45.38482" lon="5.63467">
        <ele>427.7</ele>
        <time>2022-04-15T08:08:34Z</time>
      </trkpt>
      <trkpt lat="45.38486" lon="5.63472">
        <ele>427.8</ele>
        <time>2022-04-15T08:08:35Z</time>
      </trkpt>
      <trkpt lat="45.3849" lon="5.63476">
        <ele>427.9</ele>
        <time>2022-04-15T08:08:36Z</time>
      </trkpt>
      <trkpt lat="45.38493" lon="5.63481">
        <ele>427.9</ele>
        <time>2022-04-15T08:08:37Z</time>
      </trkpt>
      <trkpt lat="45.38497" lon="5.63485">
        <ele>428</ele>
        <time>2022-04-15T08:08:38Z</time>
      </trkpt>
      <trkpt lat="45.385" lon="5.63489">
        <ele>428.1</ele>
        <time>2022-04-15T08:08:39Z</time>
      </trkpt>
      <trkpt lat="45.38504" lon="5.63494">
        <ele>428.1</ele>
        <time>2022-04-15T08:08:40Z</time>
      </trkpt>
      <trkpt lat="45.38507" lon="5.63499">
        <ele>428.1</ele>
        <time>2022-04-15T08:08:41Z</time>
      </trkpt>
      <trkpt lat="45.38508" lon="5.63502">
        <ele>428.1</ele>
        <time>2022-04-15T08:08:42Z</time>
      </trkpt>
      <trkpt lat="45.38512" lon="5.63506">
        <ele>428.2</ele>
        <time>2022-04-15T08:08:43Z</time>
      </trkpt>
      <trkpt lat="45.38515" lon="5.6351">
        <ele>428.2</ele>
        <time>2022-04-15T08:08:44Z</time>
      </trkpt>
      <trkpt lat="45.38519" lon="5.63515">
        <ele>428.2</ele>
        <time>2022-04-15T08:08:45Z</time>
      </trkpt>
      <trkpt lat="45.38523" lon="5.6352">
        <ele>428.3</ele>
        <time>2022-04-15T08:08:46Z</time>
      </trkpt>
      <trkpt lat="45.38527" lon="5.63524">
        <ele>428.3</ele>
        <time>2022-04-15T08:08:47Z</time>
      </trkpt>
      <trkpt lat="45.3853" lon="5.63528">
        <ele>428.4</ele>
        <time>2022-04-15T08:08:48Z</time>
      </trkpt>
      <trkpt lat="45.3853" lon="5.63532">
        <ele>428.5</ele>
        <time>2022-04-15T08:08:49Z</time>
      </trkpt>
      <trkpt lat="45.3853" lon="5.63533">
        <ele>428.5</ele>
        <time>2022-04-15T08:08:50Z</time>
      </trkpt>
      <trkpt lat="45.38539" lon="5.6355">
        <ele>428.7</ele>
        <time>2022-04-15T08:08:52Z</time>
      </trkpt>
      <trkpt lat="45.38545" lon="5.6355">
        <ele>428.8</ele>
        <time>2022-04-15T08:08:53Z</time>
      </trkpt>
      <trkpt lat="45.38552" lon="5.63555">
        <ele>429</ele>
        <time>2022-04-15T08:08:55Z</time>
      </trkpt>
      <trkpt lat="45.38556" lon="5.6356">
        <ele>429.1</ele>
        <time>2022-04-15T08:08:56Z</time>
      </trkpt>
      <trkpt lat="45.38561" lon="5.63566">
        <ele>429.2</ele>
        <time>2022-04-15T08:08:58Z</time>
      </trkpt>
      <trkpt lat="45.38564" lon="5.63569">
        <ele>429.3</ele>
        <time>2022-04-15T08:08:59Z</time>
      </trkpt>
      <trkpt lat="45.38569" lon="5.63577">
        <ele>429.4</ele>
        <time>2022-04-15T08:09:01Z</time>
      </trkpt>
      <trkpt lat="45.38571" lon="5.63581">
        <ele>429.5</ele>
        <time>2022-04-15T08:09:02Z</time>
      </trkpt>
      <trkpt lat="45.38576" lon="5.63588">
        <ele>429.6</ele>
        <time>2022-04-15T08:09:04Z</time>
      </trkpt>
      <trkpt lat="45.3858" lon="5.63593">
        <ele>429.7</ele>
        <time>2022-04-15T08:09:05Z</time>
      </trkpt>
      <trkpt lat="45.38585" lon="5.63601">
        <ele>429.9</ele>
        <time>2022-04-15T08:09:07Z</time>
      </trkpt>
      <trkpt lat="45.3859" lon="5.63606">
        <ele>430.1</ele>
        <time>2022-04-15T08:09:09Z</time>
      </trkpt>
      <trkpt lat="45.38592" lon="5.63609">
        <ele>430.1</ele>
        <time>2022-04-15T08:09:10Z</time>
      </trkpt>
      <trkpt lat="45.38598" lon="5.63615">
        <ele>430.3</ele>
        <time>2022-04-15T08:09:12Z</time>
      </trkpt>
      <trkpt lat="45.386" lon="5.63618">
        <ele>430.5</ele>
        <time>2022-04-15T08:09:13Z</time>
      </trkpt>
      <trkpt lat="45.38603" lon="5.63622">
        <ele>430.6</ele>
        <time>2022-04-15T08:09:14Z</time>
      </trkpt>
      <trkpt lat="45.3861" lon="5.63631">
        <ele>430.9</ele>
        <time>2022-04-15T08:09:16Z</time>
      </trkpt>
      <trkpt lat="45.38613" lon="5.63634">
        <ele>431</ele>
        <time>2022-04-15T08:09:18Z</time>
      </trkpt>
      <trkpt lat="45.38616" lon="5.63639">
        <ele>431.2</ele>
        <time>2022-04-15T08:09:19Z</time>
      </trkpt>
      <trkpt lat="45.3862" lon="5.63643">
        <ele>431.4</ele>
        <time>2022-04-15T08:09:20Z</time>
      </trkpt>
      <trkpt lat="45.38625" lon="5.63649">
        <ele>431.8</ele>
        <time>2022-04-15T08:09:22Z</time>
      </trkpt>
      <trkpt lat="45.38627" lon="5.63653">
        <ele>431.9</ele>
        <time>2022-04-15T08:09:24Z</time>
      </trkpt>
      <trkpt lat="45.3863" lon="5.63656">
        <ele>432.1</ele>
        <time>2022-04-15T08:09:25Z</time>
      </trkpt>
      <trkpt lat="45.38633" lon="5.6366">
        <ele>432.3</ele>
        <time>2022-04-15T08:09:27Z</time>
      </trkpt>
      <trkpt lat="45.38637" lon="5.63665">
        <ele>432.6</ele>
        <time>2022-04-15T08:09:29Z</time>
      </trkpt>
      <trkpt lat="45.38642" lon="5.6367">
        <ele>432.9</ele>
        <time>2022-04-15T08:09:31Z</time>
      </trkpt>
      <trkpt lat="45.38644" lon="5.63673">
        <ele>433.1</ele>
        <time>2022-04-15T08:09:32Z</time>
      </trkpt>
      <trkpt lat="45.38646" lon="5.63677">
        <ele>433.3</ele>
        <time>2022-04-15T08:09:33Z</time>
      </trkpt>
      <trkpt lat="45.38648" lon="5.63679">
        <ele>433.5</ele>
        <time>2022-04-15T08:09:34Z</time>
      </trkpt>
      <trkpt lat="45.38651" lon="5.63682">
        <ele>433.7</ele>
        <time>2022-04-15T08:09:36Z</time>
      </trkpt>
      <trkpt lat="45.38654" lon="5.63688">
        <ele>434.1</ele>
        <time>2022-04-15T08:09:38Z</time>
      </trkpt>
      <trkpt lat="45.38656" lon="5.63692">
        <ele>434.3</ele>
        <time>2022-04-15T08:09:39Z</time>
      </trkpt>
      <trkpt lat="45.38657" lon="5.63694">
        <ele>434.4</ele>
        <time>2022-04-15T08:09:40Z</time>
      </trkpt>
      <trkpt lat="45.3866" lon="5.63699">
        <ele>434.7</ele>
        <time>2022-04-15T08:09:42Z</time>
      </trkpt>
      <trkpt lat="45.38662" lon="5.63702">
        <ele>435</ele>
        <time>2022-04-15T08:09:43Z</time>
      </trkpt>
      <trkpt lat="45.38663" lon="5.63703">
        <ele>435</ele>
        <time>2022-04-15T08:09:44Z</time>
      </trkpt>
      <trkpt lat="45.38665" lon="5.63708">
        <ele>435.3</ele>
        <time>2022-04-15T08:09:46Z</time>
      </trkpt>
      <trkpt lat="45.38666" lon="5.63711">
        <ele>435.4</ele>
        <time>2022-04-15T08:09:47Z</time>
      </trkpt>
      <trkpt lat="45.38666" lon="5.63716">
        <ele>435.7</ele>
        <time>2022-04-15T08:09:49Z</time>
      </trkpt>
      <trkpt lat="45.38668" lon="5.63721">
        <ele>435.9</ele>
        <time>2022-04-15T08:09:51Z</time>
      </trkpt>
      <trkpt lat="45.38669" lon="5.63724">
        <ele>436</ele>
        <time>2022-04-15T08:09:52Z</time>
      </trkpt>
      <trkpt lat="45.3867" lon="5.6373">
        <ele>436.3</ele>
        <time>2022-04-15T08:09:54Z</time>
      </trkpt>
      <trkpt lat="45.3867" lon="5.63735">
        <ele>436.5</ele>
        <time>2022-04-15T08:09:55Z</time>
      </trkpt>
      <trkpt lat="45.38671" lon="5.63737">
        <ele>436.6</ele>
        <time>2022-04-15T08:09:56Z</time>
      </trkpt>
      <trkpt lat="45.38672" lon="5.63739">
        <ele>436.7</ele>
        <time>2022-04-15T08:09:57Z</time>
      </trkpt>
      <trkpt lat="45.38672" lon="5.63742">
        <ele>436.8</ele>
        <time>2022-04-15T08:09:59Z</time>
      </trkpt>
      <trkpt lat="45.38673" lon="5.63746">
        <ele>437</ele>
        <time>2022-04-15T08:10:00Z</time>
      </trkpt>
      <trkpt lat="45.38674" lon="5.63748">
        <ele>437.1</ele>
        <time>2022-04-15T08:10:01Z</time>
      </trkpt>
      <trkpt lat="45.38674" lon="5.63752">
        <ele>437.3</ele>
        <time>2022-04-15T08:10:02Z</time>
      </trkpt>
      <trkpt lat="45.38675" lon="5.63759">
        <ele>437.6</ele>
        <time>2022-04-15T08:10:04Z</time>
      </trkpt>
      <trkpt lat="45.38675" lon="5.63763">
        <ele>437.8</ele>
        <time>2022-04-15T08:10:05Z</time>
      </trkpt>
      <trkpt lat="45.38676" lon="5.63766">
        <ele>437.9</ele>
        <time>2022-04-15T08:10:06Z</time>
      </trkpt>
      <trkpt lat="45.38677" lon="5.63769">
        <ele>438</ele>
        <time>2022-04-15T08:10:08Z</time>
      </trkpt>
      <trkpt lat="45.38677" lon="5.63772">
        <ele>438.2</ele>
        <time>2022-04-15T08:10:09Z</time>
      </trkpt>
      <trkpt lat="45.38678" lon="5.63779">
        <ele>438.5</ele>
        <time>2022-04-15T08:10:11Z</time>
      </trkpt>
      <trkpt lat="45.38678" lon="5.63784">
        <ele>438.7</ele>
        <time>2022-04-15T08:10:13Z</time>
      </trkpt>
      <trkpt lat="45.38679" lon="5.63787">
        <ele>438.8</ele>
        <time>2022-04-15T08:10:14Z</time>
      </trkpt>
      <trkpt lat="45.38679" lon="5.63793">
        <ele>439</ele>
        <time>2022-04-15T08:10:16Z</time>
      </trkpt>
      <trkpt lat="45.38679" lon="5.63796">
        <ele>439.2</ele>
        <time>2022-04-15T08:10:17Z</time>
      </trkpt>
      <trkpt lat="45.38681" lon="5.63805">
        <ele>439.6</ele>
        <time>2022-04-15T08:10:19Z</time>
      </trkpt>
      <trkpt lat="45.38681" lon="5.63808">
        <ele>439.7</ele>
        <time>2022-04-15T08:10:21Z</time>
      </trkpt>
      <trkpt lat="45.38683" lon="5.63811">
        <ele>439.8</ele>
        <time>2022-04-15T08:10:22Z</time>
      </trkpt>
      <trkpt lat="45.38683" lon="5.63817">
        <ele>440.1</ele>
        <time>2022-04-15T08:10:24Z</time>
      </trkpt>
      <trkpt lat="45.38684" lon="5.63821">
        <ele>440.3</ele>
        <time>2022-04-15T08:10:25Z</time>
      </trkpt>
      <trkpt lat="45.38684" lon="5.63823">
        <ele>440.3</ele>
        <time>2022-04-15T08:10:26Z</time>
      </trkpt>
      <trkpt lat="45.38684" lon="5.63827">
        <ele>440.5</ele>
        <time>2022-04-15T08:10:27Z</time>
      </trkpt>
      <trkpt lat="45.38685" lon="5.6383">
        <ele>440.7</ele>
        <time>2022-04-15T08:10:28Z</time>
      </trkpt>
      <trkpt lat="45.38685" lon="5.63833">
        <ele>440.8</ele>
        <time>2022-04-15T08:10:29Z</time>
      </trkpt>
      <trkpt lat="45.38686" lon="5.63838">
        <ele>441</ele>
        <time>2022-04-15T08:10:31Z</time>
      </trkpt>
      <trkpt lat="45.38687" lon="5.63842">
        <ele>441.2</ele>
        <time>2022-04-15T08:10:32Z</time>
      </trkpt>
      <trkpt lat="45.38688" lon="5.63845">
        <ele>441.3</ele>
        <time>2022-04-15T08:10:33Z</time>
      </trkpt>
      <trkpt lat="45.38688" lon="5.63848">
        <ele>441.5</ele>
        <time>2022-04-15T08:10:35Z</time>
      </trkpt>
      <trkpt lat="45.3869" lon="5.63852">
        <ele>441.7</ele>
        <time>2022-04-15T08:10:36Z</time>
      </trkpt>
      <trkpt lat="45.3869" lon="5.63854">
        <ele>441.8</ele>
        <time>2022-04-15T08:10:37Z</time>
      </trkpt>
      <trkpt lat="45.38691" lon="5.63857">
        <ele>441.9</ele>
        <time>2022-04-15T08:10:39Z</time>
      </trkpt>
      <trkpt lat="45.38692" lon="5.63862">
        <ele>442.1</ele>
        <time>2022-04-15T08:10:41Z</time>
      </trkpt>
      <trkpt lat="45.38693" lon="5.63867">
        <ele>442.3</ele>
        <time>2022-04-15T08:10:43Z</time>
      </trkpt>
      <trkpt lat="45.38694" lon="5.63872">
        <ele>442.6</ele>
        <time>2022-04-15T08:10:45Z</time>
      </trkpt>
      <trkpt lat="45.38695" lon="5.63874">
        <ele>442.7</ele>
        <time>2022-04-15T08:10:46Z</time>
      </trkpt>
      <trkpt lat="45.38697" lon="5.63879">
        <ele>442.9</ele>
        <time>2022-04-15T08:10:48Z</time>
      </trkpt>
      <trkpt lat="45.38697" lon="5.63882">
        <ele>443</ele>
        <time>2022-04-15T08:10:49Z</time>
      </trkpt>
      <trkpt lat="45.38698" lon="5.63887">
        <ele>443.3</ele>
        <time>2022-04-15T08:10:51Z</time>
      </trkpt>
      <trkpt lat="45.387" lon="5.63892">
        <ele>443.5</ele>
        <time>2022-04-15T08:10:53Z</time>
      </trkpt>
      <trkpt lat="45.38701" lon="5.63896">
        <ele>443.7</ele>
        <time>2022-04-15T08:10:54Z</time>
      </trkpt>
      <trkpt lat="45.38702" lon="5.63897">
        <ele>443.8</ele>
        <time>2022-04-15T08:10:55Z</time>
      </trkpt>
      <trkpt lat="45.38702" lon="5.639">
        <ele>443.9</ele>
        <time>2022-04-15T08:10:56Z</time>
      </trkpt>
      <trkpt lat="45.38703" lon="5.63905">
        <ele>444.2</ele>
        <time>2022-04-15T08:10:58Z</time>
      </trkpt>
      <trkpt lat="45.38704" lon="5.63909">
        <ele>444.4</ele>
        <time>2022-04-15T08:10:59Z</time>
      </trkpt>
      <trkpt lat="45.38705" lon="5.63911">
        <ele>444.5</ele>
        <time>2022-04-15T08:11:00Z</time>
      </trkpt>
      <trkpt lat="45.38706" lon="5.63915">
        <ele>444.6</ele>
        <time>2022-04-15T08:11:01Z</time>
      </trkpt>
      <trkpt lat="45.38706" lon="5.63916">
        <ele>444.7</ele>
        <time>2022-04-15T08:11:02Z</time>
      </trkpt>
      <trkpt lat="45.38707" lon="5.6392">
        <ele>444.9</ele>
        <time>2022-04-15T08:11:03Z</time>
      </trkpt>
      <trkpt lat="45.38707" lon="5.63922">
        <ele>445</ele>
        <time>2022-04-15T08:11:05Z</time>
      </trkpt>
      <trkpt lat="45.38708" lon="5.63924">
        <ele>445.1</ele>
        <time>2022-04-15T08:11:06Z</time>
      </trkpt>
      <trkpt lat="45.38708" lon="5.63927">
        <ele>445.2</ele>
        <time>2022-04-15T08:11:07Z</time>
      </trkpt>
      <trkpt lat="45.3871" lon="5.63931">
        <ele>445.4</ele>
        <time>2022-04-15T08:11:08Z</time>
      </trkpt>
      <trkpt lat="45.3871" lon="5.63933">
        <ele>445.5</ele>
        <time>2022-04-15T08:11:09Z</time>
      </trkpt>
      <trkpt lat="45.38711" lon="5.63935">
        <ele>445.6</ele>
        <time>2022-04-15T08:11:10Z</time>
      </trkpt>
      <trkpt lat="45.38713" lon="5.6394">
        <ele>445.8</ele>
        <time>2022-04-15T08:11:12Z</time>
      </trkpt>
      <trkpt lat="45.38715" lon="5.63943">
        <ele>446</ele>
        <time>2022-04-15T08:11:13Z</time>
      </trkpt>
      <trkpt lat="45.38718" lon="5.63947">
        <ele>446.2</ele>
        <time>2022-04-15T08:11:15Z</time>
      </trkpt>
      <trkpt lat="45.38719" lon="5.63948">
        <ele>446.3</ele>
        <time>2022-04-15T08:11:16Z</time>
      </trkpt>
      <trkpt lat="45.38721" lon="5.6395">
        <ele>446.3</ele>
        <time>2022-04-15T08:11:17Z</time>
      </trkpt>
      <trkpt lat="45.38723" lon="5.63953">
        <ele>446.5</ele>
        <time>2022-04-15T08:11:18Z</time>
      </trkpt>
      <trkpt lat="45.38724" lon="5.63954">
        <ele>446.6</ele>
        <time>2022-04-15T08:11:19Z</time>
      </trkpt>
      <trkpt lat="45.38726" lon="5.63957">
        <ele>446.7</ele>
        <time>2022-04-15T08:11:20Z</time>
      </trkpt>
      <trkpt lat="45.3873" lon="5.63963">
        <ele>446.9</ele>
        <time>2022-04-15T08:11:22Z</time>
      </trkpt>
      <trkpt lat="45.38732" lon="5.63965">
        <ele>447.1</ele>
        <time>2022-04-15T08:11:24Z</time>
      </trkpt>
      <trkpt lat="45.38735" lon="5.6397">
        <ele>447.3</ele>
        <time>2022-04-15T08:11:26Z</time>
      </trkpt>
      <trkpt lat="45.38737" lon="5.63975">
        <ele>447.5</ele>
        <time>2022-04-15T08:11:28Z</time>
      </trkpt>
      <trkpt lat="45.3874" lon="5.63977">
        <ele>447.6</ele>
        <time>2022-04-15T08:11:29Z</time>
      </trkpt>
      <trkpt lat="45.38742" lon="5.63981">
        <ele>447.7</ele>
        <time>2022-04-15T08:11:30Z</time>
      </trkpt>
      <trkpt lat="45.38744" lon="5.63985">
        <ele>447.9</ele>
        <time>2022-04-15T08:11:32Z</time>
      </trkpt>
      <trkpt lat="45.38744" lon="5.63987">
        <ele>447.9</ele>
        <time>2022-04-15T08:11:33Z</time>
      </trkpt>
      <trkpt lat="45.38746" lon="5.6399">
        <ele>448</ele>
        <time>2022-04-15T08:11:34Z</time>
      </trkpt>
      <trkpt lat="45.38747" lon="5.63991">
        <ele>448</ele>
        <time>2022-04-15T08:11:35Z</time>
      </trkpt>
      <trkpt lat="45.3875" lon="5.63995">
        <ele>448.1</ele>
        <time>2022-04-15T08:11:36Z</time>
      </trkpt>
      <trkpt lat="45.38751" lon="5.63996">
        <ele>448.2</ele>
        <time>2022-04-15T08:11:37Z</time>
      </trkpt>
      <trkpt lat="45.38751" lon="5.64">
        <ele>448.3</ele>
        <time>2022-04-15T08:11:38Z</time>
      </trkpt>
      <trkpt lat="45.38753" lon="5.64007">
        <ele>448.4</ele>
        <time>2022-04-15T08:11:40Z</time>
      </trkpt>
      <trkpt lat="45.38755" lon="5.64011">
        <ele>448.5</ele>
        <time>2022-04-15T08:11:41Z</time>
      </trkpt>
      <trkpt lat="45.38757" lon="5.64017">
        <ele>448.6</ele>
        <time>2022-04-15T08:11:42Z</time>
      </trkpt>
      <trkpt lat="45.3876" lon="5.64023">
        <ele>448.7</ele>
        <time>2022-04-15T08:11:44Z</time>
      </trkpt>
      <trkpt lat="45.3876" lon="5.64025">
        <ele>448.7</ele>
        <time>2022-04-15T08:11:45Z</time>
      </trkpt>
      <trkpt lat="45.38761" lon="5.64027">
        <ele>448.7</ele>
        <time>2022-04-15T08:11:46Z</time>
      </trkpt>
      <trkpt lat="45.38763" lon="5.64032">
        <ele>448.7</ele>
        <time>2022-04-15T08:11:47Z</time>
      </trkpt>
      <trkpt lat="45.38766" lon="5.64038">
        <ele>448.8</ele>
        <time>2022-04-15T08:11:49Z</time>
      </trkpt>
      <trkpt lat="45.38768" lon="5.64045">
        <ele>448.8</ele>
        <time>2022-04-15T08:11:51Z</time>
      </trkpt>
      <trkpt lat="45.3877" lon="5.64048">
        <ele>448.8</ele>
        <time>2022-04-15T08:11:52Z</time>
      </trkpt>
      <trkpt lat="45.38773" lon="5.64053">
        <ele>448.8</ele>
        <time>2022-04-15T08:11:53Z</time>
      </trkpt>
      <trkpt lat="45.38774" lon="5.64056">
        <ele>448.8</ele>
        <time>2022-04-15T08:11:54Z</time>
      </trkpt>
      <trkpt lat="45.38781" lon="5.64066">
        <ele>448.8</ele>
        <time>2022-04-15T08:11:56Z</time>
      </trkpt>
      <trkpt lat="45.38784" lon="5.64072">
        <ele>448.9</ele>
        <time>2022-04-15T08:11:58Z</time>
      </trkpt>
      <trkpt lat="45.38789" lon="5.6408">
        <ele>448.9</ele>
        <time>2022-04-15T08:12:00Z</time>
      </trkpt>
      <trkpt lat="45.38792" lon="5.64084">
        <ele>449</ele>
        <time>2022-04-15T08:12:01Z</time>
      </trkpt>
      <trkpt lat="45.38795" lon="5.64089">
        <ele>449</ele>
        <time>2022-04-15T08:12:02Z</time>
      </trkpt>
      <trkpt lat="45.38798" lon="5.64095">
        <ele>449.1</ele>
        <time>2022-04-15T08:12:03Z</time>
      </trkpt>
      <trkpt lat="45.38801" lon="5.641">
        <ele>449.2</ele>
        <time>2022-04-15T08:12:04Z</time>
      </trkpt>
      <trkpt lat="45.38806" lon="5.64109">
        <ele>449.3</ele>
        <time>2022-04-15T08:12:06Z</time>
      </trkpt>
      <trkpt lat="45.38809" lon="5.64113">
        <ele>449.5</ele>
        <time>2022-04-15T08:12:07Z</time>
      </trkpt>
      <trkpt lat="45.38812" lon="5.64119">
        <ele>449.6</ele>
        <time>2022-04-15T08:12:09Z</time>
      </trkpt>
      <trkpt lat="45.38815" lon="5.64125">
        <ele>449.8</ele>
        <time>2022-04-15T08:12:10Z</time>
      </trkpt>
      <trkpt lat="45.38818" lon="5.64131">
        <ele>450</ele>
        <time>2022-04-15T08:12:12Z</time>
      </trkpt>
      <trkpt lat="45.38821" lon="5.64134">
        <ele>450.2</ele>
        <time>2022-04-15T08:12:13Z</time>
      </trkpt>
      <trkpt lat="45.38823" lon="5.6414">
        <ele>450.4</ele>
        <time>2022-04-15T08:12:15Z</time>
      </trkpt>
      <trkpt lat="45.38825" lon="5.64143">
        <ele>450.5</ele>
        <time>2022-04-15T08:12:16Z</time>
      </trkpt>
      <trkpt lat="45.38827" lon="5.64146">
        <ele>450.6</ele>
        <time>2022-04-15T08:12:17Z</time>
      </trkpt>
      <trkpt lat="45.38829" lon="5.64149">
        <ele>450.8</ele>
        <time>2022-04-15T08:12:18Z</time>
      </trkpt>
      <trkpt lat="45.3883" lon="5.64152">
        <ele>450.9</ele>
        <time>2022-04-15T08:12:19Z</time>
      </trkpt>
      <trkpt lat="45.38834" lon="5.64157">
        <ele>451.2</ele>
        <time>2022-04-15T08:12:20Z</time>
      </trkpt>
      <trkpt lat="45.38837" lon="5.64161">
        <ele>451.5</ele>
        <time>2022-04-15T08:12:22Z</time>
      </trkpt>
      <trkpt lat="45.38838" lon="5.64163">
        <ele>451.6</ele>
        <time>2022-04-15T08:12:23Z</time>
      </trkpt>
      <trkpt lat="45.38839" lon="5.64164">
        <ele>451.7</ele>
        <time>2022-04-15T08:12:24Z</time>
      </trkpt>
      <trkpt lat="45.38841" lon="5.64169">
        <ele>452</ele>
        <time>2022-04-15T08:12:25Z</time>
      </trkpt>
      <trkpt lat="45.38843" lon="5.64172">
        <ele>452.2</ele>
        <time>2022-04-15T08:12:27Z</time>
      </trkpt>
      <trkpt lat="45.38845" lon="5.64176">
        <ele>452.4</ele>
        <time>2022-04-15T08:12:29Z</time>
      </trkpt>
      <trkpt lat="45.38848" lon="5.64178">
        <ele>452.6</ele>
        <time>2022-04-15T08:12:30Z</time>
      </trkpt>
      <trkpt lat="45.3885" lon="5.64181">
        <ele>452.8</ele>
        <time>2022-04-15T08:12:32Z</time>
      </trkpt>
      <trkpt lat="45.38853" lon="5.64186">
        <ele>453</ele>
        <time>2022-04-15T08:12:34Z</time>
      </trkpt>
      <trkpt lat="45.38854" lon="5.64187">
        <ele>453.1</ele>
        <time>2022-04-15T08:12:35Z</time>
      </trkpt>
      <trkpt lat="45.38855" lon="5.64188">
        <ele>453.2</ele>
        <time>2022-04-15T08:12:36Z</time>
      </trkpt>
      <trkpt lat="45.38857" lon="5.64192">
        <ele>453.4</ele>
        <time>2022-04-15T08:12:38Z</time>
      </trkpt>
      <trkpt lat="45.38859" lon="5.64197">
        <ele>453.6</ele>
        <time>2022-04-15T08:12:39Z</time>
      </trkpt>
      <trkpt lat="45.38861" lon="5.64199">
        <ele>453.7</ele>
        <time>2022-04-15T08:12:41Z</time>
      </trkpt>
      <trkpt lat="45.38863" lon="5.64204">
        <ele>453.9</ele>
        <time>2022-04-15T08:12:43Z</time>
      </trkpt>
      <trkpt lat="45.38865" lon="5.64207">
        <ele>454</ele>
        <time>2022-04-15T08:12:44Z</time>
      </trkpt>
      <trkpt lat="45.38869" lon="5.64212">
        <ele>454.2</ele>
        <time>2022-04-15T08:12:46Z</time>
      </trkpt>
      <trkpt lat="45.38872" lon="5.64216">
        <ele>454.3</ele>
        <time>2022-04-15T08:12:47Z</time>
      </trkpt>
      <trkpt lat="45.38873" lon="5.64217">
        <ele>454.4</ele>
        <time>2022-04-15T08:12:48Z</time>
      </trkpt>
      <trkpt lat="45.38876" lon="5.6422">
        <ele>454.5</ele>
        <time>2022-04-15T08:12:49Z</time>
      </trkpt>
      <trkpt lat="45.38879" lon="5.64224">
        <ele>454.6</ele>
        <time>2022-04-15T08:12:51Z</time>
      </trkpt>
      <trkpt lat="45.38883" lon="5.64228">
        <ele>454.7</ele>
        <time>2022-04-15T08:12:52Z</time>
      </trkpt>
      <trkpt lat="45.38885" lon="5.64231">
        <ele>454.8</ele>
        <time>2022-04-15T08:12:53Z</time>
      </trkpt>
      <trkpt lat="45.38889" lon="5.64235">
        <ele>454.9</ele>
        <time>2022-04-15T08:12:55Z</time>
      </trkpt>
      <trkpt lat="45.38891" lon="5.64237">
        <ele>455</ele>
        <time>2022-04-15T08:12:56Z</time>
      </trkpt>
      <trkpt lat="45.38894" lon="5.64241">
        <ele>455.1</ele>
        <time>2022-04-15T08:12:57Z</time>
      </trkpt>
      <trkpt lat="45.38896" lon="5.64244">
        <ele>455.2</ele>
        <time>2022-04-15T08:12:58Z</time>
      </trkpt>
      <trkpt lat="45.38898" lon="5.64249">
        <ele>455.3</ele>
        <time>2022-04-15T08:13:00Z</time>
      </trkpt>
      <trkpt lat="45.38901" lon="5.64253">
        <ele>455.4</ele>
        <time>2022-04-15T08:13:01Z</time>
      </trkpt>
      <trkpt lat="45.38903" lon="5.64258">
        <ele>455.5</ele>
        <time>2022-04-15T08:13:02Z</time>
      </trkpt>
      <trkpt lat="45.38906" lon="5.64263">
        <ele>455.7</ele>
        <time>2022-04-15T08:13:03Z</time>
      </trkpt>
      <trkpt lat="45.38909" lon="5.64266">
        <ele>455.8</ele>
        <time>2022-04-15T08:13:05Z</time>
      </trkpt>
      <trkpt lat="45.38911" lon="5.6427">
        <ele>456</ele>
        <time>2022-04-15T08:13:06Z</time>
      </trkpt>
      <trkpt lat="45.38913" lon="5.64274">
        <ele>456.1</ele>
        <time>2022-04-15T08:13:07Z</time>
      </trkpt>
      <trkpt lat="45.38915" lon="5.64277">
        <ele>456.2</ele>
        <time>2022-04-15T08:13:08Z</time>
      </trkpt>
      <trkpt lat="45.38917" lon="5.64283">
        <ele>456.5</ele>
        <time>2022-04-15T08:13:10Z</time>
      </trkpt>
      <trkpt lat="45.3892" lon="5.64286">
        <ele>456.7</ele>
        <time>2022-04-15T08:13:11Z</time>
      </trkpt>
      <trkpt lat="45.38921" lon="5.64288">
        <ele>456.8</ele>
        <time>2022-04-15T08:13:12Z</time>
      </trkpt>
      <trkpt lat="45.38923" lon="5.64291">
        <ele>457</ele>
        <time>2022-04-15T08:13:13Z</time>
      </trkpt>
      <trkpt lat="45.38925" lon="5.64294">
        <ele>457.1</ele>
        <time>2022-04-15T08:13:14Z</time>
      </trkpt>
      <trkpt lat="45.38928" lon="5.64297">
        <ele>457.4</ele>
        <time>2022-04-15T08:13:16Z</time>
      </trkpt>
      <trkpt lat="45.3893" lon="5.643">
        <ele>457.6</ele>
        <time>2022-04-15T08:13:17Z</time>
      </trkpt>
      <trkpt lat="45.3893" lon="5.64301">
        <ele>457.6</ele>
        <time>2022-04-15T08:13:18Z</time>
      </trkpt>
      <trkpt lat="45.38934" lon="5.64303">
        <ele>457.8</ele>
        <time>2022-04-15T08:13:20Z</time>
      </trkpt>
      <trkpt lat="45.38935" lon="5.64306">
        <ele>458</ele>
        <time>2022-04-15T08:13:21Z</time>
      </trkpt>
      <trkpt lat="45.38937" lon="5.64307">
        <ele>458.1</ele>
        <time>2022-04-15T08:13:23Z</time>
      </trkpt>
      <trkpt lat="45.3894" lon="5.64306">
        <ele>458.3</ele>
        <time>2022-04-15T08:13:25Z</time>
      </trkpt>
      <trkpt lat="45.38943" lon="5.64306">
        <ele>458.4</ele>
        <time>2022-04-15T08:13:26Z</time>
      </trkpt>
      <trkpt lat="45.38944" lon="5.64306">
        <ele>458.5</ele>
        <time>2022-04-15T08:13:27Z</time>
      </trkpt>
      <trkpt lat="45.38947" lon="5.64305">
        <ele>458.6</ele>
        <time>2022-04-15T08:13:28Z</time>
      </trkpt>
      <trkpt lat="45.38948" lon="5.64304">
        <ele>458.7</ele>
        <time>2022-04-15T08:13:29Z</time>
      </trkpt>
      <trkpt lat="45.38951" lon="5.64304">
        <ele>458.9</ele>
        <time>2022-04-15T08:13:30Z</time>
      </trkpt>
      <trkpt lat="45.38952" lon="5.64304">
        <ele>458.9</ele>
        <time>2022-04-15T08:13:31Z</time>
      </trkpt>
      <trkpt lat="45.38954" lon="5.64304">
        <ele>459</ele>
        <time>2022-04-15T08:13:32Z</time>
      </trkpt>
      <trkpt lat="45.38955" lon="5.64305">
        <ele>459.1</ele>
        <time>2022-04-15T08:13:33Z</time>
      </trkpt>
      <trkpt lat="45.38959" lon="5.64304">
        <ele>459.2</ele>
        <time>2022-04-15T08:13:34Z</time>
      </trkpt>
      <trkpt lat="45.3896" lon="5.64304">
        <ele>459.2</ele>
        <time>2022-04-15T08:13:35Z</time>
      </trkpt>
      <trkpt lat="45.38963" lon="5.64303">
        <ele>459.2</ele>
        <time>2022-04-15T08:13:36Z</time>
      </trkpt>
      <trkpt lat="45.38966" lon="5.64305">
        <ele>459.1</ele>
        <time>2022-04-15T08:13:37Z</time>
      </trkpt>
      <trkpt lat="45.38971" lon="5.64307">
        <ele>459.1</ele>
        <time>2022-04-15T08:13:38Z</time>
      </trkpt>
      <trkpt lat="45.38976" lon="5.6431">
        <ele>459.1</ele>
        <time>2022-04-15T08:13:40Z</time>
      </trkpt>
      <trkpt lat="45.38979" lon="5.64314">
        <ele>459.1</ele>
        <time>2022-04-15T08:13:41Z</time>
      </trkpt>
      <trkpt lat="45.38984" lon="5.64322">
        <ele>459.1</ele>
        <time>2022-04-15T08:13:42Z</time>
      </trkpt>
      <trkpt lat="45.38986" lon="5.64327">
        <ele>459.1</ele>
        <time>2022-04-15T08:13:44Z</time>
      </trkpt>
      <trkpt lat="45.38989" lon="5.64331">
        <ele>459.2</ele>
        <time>2022-04-15T08:13:45Z</time>
      </trkpt>
      <trkpt lat="45.38991" lon="5.64334">
        <ele>459.2</ele>
        <time>2022-04-15T08:13:46Z</time>
      </trkpt>
      <trkpt lat="45.38993" lon="5.64337">
        <ele>459.3</ele>
        <time>2022-04-15T08:13:47Z</time>
      </trkpt>
      <trkpt lat="45.38996" lon="5.64342">
        <ele>459.4</ele>
        <time>2022-04-15T08:13:48Z</time>
      </trkpt>
      <trkpt lat="45.39001" lon="5.64348">
        <ele>459.6</ele>
        <time>2022-04-15T08:13:50Z</time>
      </trkpt>
      <trkpt lat="45.39005" lon="5.64355">
        <ele>459.8</ele>
        <time>2022-04-15T08:13:52Z</time>
      </trkpt>
      <trkpt lat="45.39007" lon="5.64359">
        <ele>459.9</ele>
        <time>2022-04-15T08:13:53Z</time>
      </trkpt>
      <trkpt lat="45.39009" lon="5.64363">
        <ele>460.1</ele>
        <time>2022-04-15T08:13:54Z</time>
      </trkpt>
      <trkpt lat="45.39012" lon="5.64368">
        <ele>460.2</ele>
        <time>2022-04-15T08:13:55Z</time>
      </trkpt>
      <trkpt lat="45.39014" lon="5.64373">
        <ele>460.4</ele>
        <time>2022-04-15T08:13:57Z</time>
      </trkpt>
      <trkpt lat="45.39015" lon="5.64376">
        <ele>460.5</ele>
        <time>2022-04-15T08:13:58Z</time>
      </trkpt>
      <trkpt lat="45.39017" lon="5.64382">
        <ele>460.7</ele>
        <time>2022-04-15T08:14:00Z</time>
      </trkpt>
      <trkpt lat="45.39018" lon="5.64385">
        <ele>460.8</ele>
        <time>2022-04-15T08:14:01Z</time>
      </trkpt>
      <trkpt lat="45.3902" lon="5.64392">
        <ele>461</ele>
        <time>2022-04-15T08:14:02Z</time>
      </trkpt>
      <trkpt lat="45.39021" lon="5.64397">
        <ele>461.2</ele>
        <time>2022-04-15T08:14:04Z</time>
      </trkpt>
      <trkpt lat="45.39022" lon="5.64402">
        <ele>461.3</ele>
        <time>2022-04-15T08:14:05Z</time>
      </trkpt>
      <trkpt lat="45.39022" lon="5.64407">
        <ele>461.4</ele>
        <time>2022-04-15T08:14:06Z</time>
      </trkpt>
      <trkpt lat="45.39023" lon="5.64412">
        <ele>461.6</ele>
        <time>2022-04-15T08:14:08Z</time>
      </trkpt>
      <trkpt lat="45.39023" lon="5.64418">
        <ele>461.7</ele>
        <time>2022-04-15T08:14:09Z</time>
      </trkpt>
      <trkpt lat="45.39024" lon="5.64422">
        <ele>461.8</ele>
        <time>2022-04-15T08:14:10Z</time>
      </trkpt>
      <trkpt lat="45.39025" lon="5.64427">
        <ele>461.8</ele>
        <time>2022-04-15T08:14:12Z</time>
      </trkpt>
      <trkpt lat="45.39025" lon="5.6443">
        <ele>461.8</ele>
        <time>2022-04-15T08:14:13Z</time>
      </trkpt>
      <trkpt lat="45.39025" lon="5.64432">
        <ele>461.9</ele>
        <time>2022-04-15T08:14:14Z</time>
      </trkpt>
      <trkpt lat="45.39026" lon="5.64437">
        <ele>461.9</ele>
        <time>2022-04-15T08:14:15Z</time>
      </trkpt>
      <trkpt lat="45.39025" lon="5.6444">
        <ele>461.9</ele>
        <time>2022-04-15T08:14:16Z</time>
      </trkpt>
      <trkpt lat="45.39025" lon="5.64444">
        <ele>461.8</ele>
        <time>2022-04-15T08:14:18Z</time>
      </trkpt>
      <trkpt lat="45.39025" lon="5.64452">
        <ele>461.6</ele>
        <time>2022-04-15T08:14:20Z</time>
      </trkpt>
      <trkpt lat="45.39025" lon="5.64456">
        <ele>461.4</ele>
        <time>2022-04-15T08:14:21Z</time>
      </trkpt>
      <trkpt lat="45.39025" lon="5.64463">
        <ele>461.2</ele>
        <time>2022-04-15T08:14:22Z</time>
      </trkpt>
      <trkpt lat="45.39026" lon="5.64474">
        <ele>460.8</ele>
        <time>2022-04-15T08:14:24Z</time>
      </trkpt>
      <trkpt lat="45.39031" lon="5.64493">
        <ele>460.1</ele>
        <time>2022-04-15T08:14:26Z</time>
      </trkpt>
      <trkpt lat="45.39034" lon="5.64501">
        <ele>459.8</ele>
        <time>2022-04-15T08:14:27Z</time>
      </trkpt>
      <trkpt lat="45.39036" lon="5.64509">
        <ele>459.5</ele>
        <time>2022-04-15T08:14:28Z</time>
      </trkpt>
      <trkpt lat="45.39039" lon="5.64518">
        <ele>459.3</ele>
        <time>2022-04-15T08:14:29Z</time>
      </trkpt>
      <trkpt lat="45.39041" lon="5.64527">
        <ele>458.9</ele>
        <time>2022-04-15T08:14:30Z</time>
      </trkpt>
      <trkpt lat="45.39044" lon="5.64536">
        <ele>458.7</ele>
        <time>2022-04-15T08:14:31Z</time>
      </trkpt>
      <trkpt lat="45.39047" lon="5.64545">
        <ele>458.4</ele>
        <time>2022-04-15T08:14:32Z</time>
      </trkpt>
      <trkpt lat="45.39051" lon="5.64554">
        <ele>458.2</ele>
        <time>2022-04-15T08:14:33Z</time>
      </trkpt>
      <trkpt lat="45.39054" lon="5.64563">
        <ele>458</ele>
        <time>2022-04-15T08:14:34Z</time>
      </trkpt>
      <trkpt lat="45.39057" lon="5.64571">
        <ele>457.9</ele>
        <time>2022-04-15T08:14:35Z</time>
      </trkpt>
      <trkpt lat="45.39061" lon="5.64579">
        <ele>457.8</ele>
        <time>2022-04-15T08:14:36Z</time>
      </trkpt>
      <trkpt lat="45.39064" lon="5.64587">
        <ele>457.7</ele>
        <time>2022-04-15T08:14:37Z</time>
      </trkpt>
      <trkpt lat="45.39068" lon="5.64595">
        <ele>457.7</ele>
        <time>2022-04-15T08:14:38Z</time>
      </trkpt>
      <trkpt lat="45.39071" lon="5.64603">
        <ele>457.7</ele>
        <time>2022-04-15T08:14:39Z</time>
      </trkpt>
      <trkpt lat="45.39074" lon="5.6461">
        <ele>457.7</ele>
        <time>2022-04-15T08:14:40Z</time>
      </trkpt>
      <trkpt lat="45.39078" lon="5.64617">
        <ele>457.7</ele>
        <time>2022-04-15T08:14:41Z</time>
      </trkpt>
      <trkpt lat="45.39081" lon="5.64624">
        <ele>457.7</ele>
        <time>2022-04-15T08:14:42Z</time>
      </trkpt>
      <trkpt lat="45.39084" lon="5.6463">
        <ele>457.7</ele>
        <time>2022-04-15T08:14:43Z</time>
      </trkpt>
      <trkpt lat="45.39087" lon="5.64636">
        <ele>457.8</ele>
        <time>2022-04-15T08:14:44Z</time>
      </trkpt>
      <trkpt lat="45.3909" lon="5.64642">
        <ele>457.8</ele>
        <time>2022-04-15T08:14:45Z</time>
      </trkpt>
      <trkpt lat="45.39092" lon="5.64647">
        <ele>457.9</ele>
        <time>2022-04-15T08:14:46Z</time>
      </trkpt>
      <trkpt lat="45.39095" lon="5.64653">
        <ele>458</ele>
        <time>2022-04-15T08:14:47Z</time>
      </trkpt>
      <trkpt lat="45.39097" lon="5.64658">
        <ele>458.1</ele>
        <time>2022-04-15T08:14:48Z</time>
      </trkpt>
      <trkpt lat="45.39101" lon="5.64664">
        <ele>458.1</ele>
        <time>2022-04-15T08:14:49Z</time>
      </trkpt>
      <trkpt lat="45.39102" lon="5.64667">
        <ele>458.2</ele>
        <time>2022-04-15T08:14:50Z</time>
      </trkpt>
      <trkpt lat="45.39104" lon="5.6467">
        <ele>458.2</ele>
        <time>2022-04-15T08:14:51Z</time>
      </trkpt>
      <trkpt lat="45.39107" lon="5.64675">
        <ele>458.3</ele>
        <time>2022-04-15T08:14:52Z</time>
      </trkpt>
      <trkpt lat="45.3911" lon="5.64679">
        <ele>458.3</ele>
        <time>2022-04-15T08:14:53Z</time>
      </trkpt>
      <trkpt lat="45.39113" lon="5.64683">
        <ele>458.4</ele>
        <time>2022-04-15T08:14:54Z</time>
      </trkpt>
      <trkpt lat="45.39115" lon="5.64687">
        <ele>458.5</ele>
        <time>2022-04-15T08:14:55Z</time>
      </trkpt>
      <trkpt lat="45.39118" lon="5.64692">
        <ele>458.6</ele>
        <time>2022-04-15T08:14:56Z</time>
      </trkpt>
      <trkpt lat="45.3912" lon="5.64693">
        <ele>458.6</ele>
        <time>2022-04-15T08:14:57Z</time>
      </trkpt>
      <trkpt lat="45.39121" lon="5.64696">
        <ele>458.7</ele>
        <time>2022-04-15T08:14:58Z</time>
      </trkpt>
      <trkpt lat="45.39123" lon="5.647">
        <ele>458.8</ele>
        <time>2022-04-15T08:14:59Z</time>
      </trkpt>
      <trkpt lat="45.39125" lon="5.64704">
        <ele>458.9</ele>
        <time>2022-04-15T08:15:00Z</time>
      </trkpt>
      <trkpt lat="45.39126" lon="5.64708">
        <ele>458.9</ele>
        <time>2022-04-15T08:15:01Z</time>
      </trkpt>
      <trkpt lat="45.39126" lon="5.64709">
        <ele>459</ele>
        <time>2022-04-15T08:15:02Z</time>
      </trkpt>
      <trkpt lat="45.39126" lon="5.64714">
        <ele>459</ele>
        <time>2022-04-15T08:15:03Z</time>
      </trkpt>
      <trkpt lat="45.39126" lon="5.64716">
        <ele>459.1</ele>
        <time>2022-04-15T08:15:04Z</time>
      </trkpt>
      <trkpt lat="45.39125" lon="5.64721">
        <ele>458.9</ele>
        <time>2022-04-15T08:15:06Z</time>
      </trkpt>
      <trkpt lat="45.39123" lon="5.64724">
        <ele>458.8</ele>
        <time>2022-04-15T08:15:07Z</time>
      </trkpt>
      <trkpt lat="45.39122" lon="5.64729">
        <ele>458.7</ele>
        <time>2022-04-15T08:15:08Z</time>
      </trkpt>
      <trkpt lat="45.39122" lon="5.64735">
        <ele>458.5</ele>
        <time>2022-04-15T08:15:09Z</time>
      </trkpt>
      <trkpt lat="45.39125" lon="5.6474">
        <ele>458.4</ele>
        <time>2022-04-15T08:15:10Z</time>
      </trkpt>
      <trkpt lat="45.39131" lon="5.64744">
        <ele>458.5</ele>
        <time>2022-04-15T08:15:11Z</time>
      </trkpt>
      <trkpt lat="45.39135" lon="5.64744">
        <ele>458.5</ele>
        <time>2022-04-15T08:15:13Z</time>
      </trkpt>
      <trkpt lat="45.39139" lon="5.64744">
        <ele>458.5</ele>
        <time>2022-04-15T08:15:14Z</time>
      </trkpt>
      <trkpt lat="45.39144" lon="5.64742">
        <ele>458.8</ele>
        <time>2022-04-15T08:15:15Z</time>
      </trkpt>
      <trkpt lat="45.39147" lon="5.64741">
        <ele>458.9</ele>
        <time>2022-04-15T08:15:16Z</time>
      </trkpt>
      <trkpt lat="45.39152" lon="5.64741">
        <ele>459</ele>
        <time>2022-04-15T08:15:17Z</time>
      </trkpt>
      <trkpt lat="45.39155" lon="5.6474">
        <ele>459.1</ele>
        <time>2022-04-15T08:15:18Z</time>
      </trkpt>
      <trkpt lat="45.39161" lon="5.64739">
        <ele>459.3</ele>
        <time>2022-04-15T08:15:20Z</time>
      </trkpt>
      <trkpt lat="45.39165" lon="5.6474">
        <ele>459.4</ele>
        <time>2022-04-15T08:15:21Z</time>
      </trkpt>
      <trkpt lat="45.3917" lon="5.64742">
        <ele>459.6</ele>
        <time>2022-04-15T08:15:22Z</time>
      </trkpt>
      <trkpt lat="45.39177" lon="5.64749">
        <ele>459.8</ele>
        <time>2022-04-15T08:15:24Z</time>
      </trkpt>
      <trkpt lat="45.39181" lon="5.64753">
        <ele>460</ele>
        <time>2022-04-15T08:15:26Z</time>
      </trkpt>
      <trkpt lat="45.39184" lon="5.64761">
        <ele>460.1</ele>
        <time>2022-04-15T08:15:28Z</time>
      </trkpt>
      <trkpt lat="45.39186" lon="5.64771">
        <ele>460.3</ele>
        <time>2022-04-15T08:15:30Z</time>
      </trkpt>
      <trkpt lat="45.39186" lon="5.64778">
        <ele>460.5</ele>
        <time>2022-04-15T08:15:31Z</time>
      </trkpt>
      <trkpt lat="45.39187" lon="5.64784">
        <ele>460.6</ele>
        <time>2022-04-15T08:15:33Z</time>
      </trkpt>
      <trkpt lat="45.39188" lon="5.64787">
        <ele>460.6</ele>
        <time>2022-04-15T08:15:34Z</time>
      </trkpt>
      <trkpt lat="45.39188" lon="5.64794">
        <ele>460.8</ele>
        <time>2022-04-15T08:15:36Z</time>
      </trkpt>
      <trkpt lat="45.39189" lon="5.64798">
        <ele>460.9</ele>
        <time>2022-04-15T08:15:37Z</time>
      </trkpt>
      <trkpt lat="45.3919" lon="5.64805">
        <ele>461</ele>
        <time>2022-04-15T08:15:38Z</time>
      </trkpt>
      <trkpt lat="45.39191" lon="5.64812">
        <ele>461.2</ele>
        <time>2022-04-15T08:15:40Z</time>
      </trkpt>
      <trkpt lat="45.39191" lon="5.64819">
        <ele>461.3</ele>
        <time>2022-04-15T08:15:42Z</time>
      </trkpt>
      <trkpt lat="45.39191" lon="5.64823">
        <ele>461.3</ele>
        <time>2022-04-15T08:15:43Z</time>
      </trkpt>
      <trkpt lat="45.39192" lon="5.64828">
        <ele>461.4</ele>
        <time>2022-04-15T08:15:44Z</time>
      </trkpt>
      <trkpt lat="45.39193" lon="5.64836">
        <ele>461.5</ele>
        <time>2022-04-15T08:15:45Z</time>
      </trkpt>
      <trkpt lat="45.39194" lon="5.64843">
        <ele>461.5</ele>
        <time>2022-04-15T08:15:47Z</time>
      </trkpt>
      <trkpt lat="45.39195" lon="5.64851">
        <ele>461.7</ele>
        <time>2022-04-15T08:15:48Z</time>
      </trkpt>
      <trkpt lat="45.39196" lon="5.64857">
        <ele>461.8</ele>
        <time>2022-04-15T08:15:50Z</time>
      </trkpt>
      <trkpt lat="45.39197" lon="5.64866">
        <ele>461.9</ele>
        <time>2022-04-15T08:15:52Z</time>
      </trkpt>
      <trkpt lat="45.39198" lon="5.64873">
        <ele>462</ele>
        <time>2022-04-15T08:15:54Z</time>
      </trkpt>
      <trkpt lat="45.39199" lon="5.64879">
        <ele>462.1</ele>
        <time>2022-04-15T08:15:55Z</time>
      </trkpt>
      <trkpt lat="45.392" lon="5.64885">
        <ele>462.2</ele>
        <time>2022-04-15T08:15:56Z</time>
      </trkpt>
      <trkpt lat="45.39201" lon="5.64893">
        <ele>462.4</ele>
        <time>2022-04-15T08:15:58Z</time>
      </trkpt>
      <trkpt lat="45.39202" lon="5.64898">
        <ele>462.4</ele>
        <time>2022-04-15T08:15:59Z</time>
      </trkpt>
      <trkpt lat="45.39203" lon="5.64903">
        <ele>462.5</ele>
        <time>2022-04-15T08:16:00Z</time>
      </trkpt>
      <trkpt lat="45.39203" lon="5.64909">
        <ele>462.6</ele>
        <time>2022-04-15T08:16:01Z</time>
      </trkpt>
      <trkpt lat="45.39204" lon="5.64916">
        <ele>462.7</ele>
        <time>2022-04-15T08:16:02Z</time>
      </trkpt>
      <trkpt lat="45.39205" lon="5.64921">
        <ele>462.8</ele>
        <time>2022-04-15T08:16:04Z</time>
      </trkpt>
      <trkpt lat="45.39206" lon="5.64926">
        <ele>462.9</ele>
        <time>2022-04-15T08:16:05Z</time>
      </trkpt>
      <trkpt lat="45.39207" lon="5.64933">
        <ele>463</ele>
        <time>2022-04-15T08:16:06Z</time>
      </trkpt>
      <trkpt lat="45.39208" lon="5.64939">
        <ele>463.1</ele>
        <time>2022-04-15T08:16:07Z</time>
      </trkpt>
      <trkpt lat="45.39208" lon="5.64943">
        <ele>463.1</ele>
        <time>2022-04-15T08:16:09Z</time>
      </trkpt>
      <trkpt lat="45.3921" lon="5.64951">
        <ele>463.3</ele>
        <time>2022-04-15T08:16:11Z</time>
      </trkpt>
      <trkpt lat="45.3921" lon="5.64956">
        <ele>463.4</ele>
        <time>2022-04-15T08:16:12Z</time>
      </trkpt>
      <trkpt lat="45.39212" lon="5.64964">
        <ele>463.5</ele>
        <time>2022-04-15T08:16:14Z</time>
      </trkpt>
      <trkpt lat="45.39212" lon="5.64968">
        <ele>463.5</ele>
        <time>2022-04-15T08:16:15Z</time>
      </trkpt>
      <trkpt lat="45.39213" lon="5.64973">
        <ele>463.6</ele>
        <time>2022-04-15T08:16:16Z</time>
      </trkpt>
      <trkpt lat="45.39214" lon="5.64978">
        <ele>463.7</ele>
        <time>2022-04-15T08:16:17Z</time>
      </trkpt>
      <trkpt lat="45.39215" lon="5.64985">
        <ele>463.8</ele>
        <time>2022-04-15T08:16:18Z</time>
      </trkpt>
      <trkpt lat="45.39216" lon="5.6499">
        <ele>463.9</ele>
        <time>2022-04-15T08:16:19Z</time>
      </trkpt>
      <trkpt lat="45.39216" lon="5.64991">
        <ele>463.9</ele>
        <time>2022-04-15T08:16:20Z</time>
      </trkpt>
      <trkpt lat="45.39217" lon="5.64998">
        <ele>463.9</ele>
        <time>2022-04-15T08:16:22Z</time>
      </trkpt>
      <trkpt lat="45.39218" lon="5.65004">
        <ele>464</ele>
        <time>2022-04-15T08:16:23Z</time>
      </trkpt>
      <trkpt lat="45.39219" lon="5.65012">
        <ele>464</ele>
        <time>2022-04-15T08:16:25Z</time>
      </trkpt>
      <trkpt lat="45.39219" lon="5.65018">
        <ele>464.1</ele>
        <time>2022-04-15T08:16:26Z</time>
      </trkpt>
      <trkpt lat="45.39221" lon="5.65025">
        <ele>464.1</ele>
        <time>2022-04-15T08:16:28Z</time>
      </trkpt>
      <trkpt lat="45.39221" lon="5.6503">
        <ele>464.1</ele>
        <time>2022-04-15T08:16:29Z</time>
      </trkpt>
      <trkpt lat="45.39223" lon="5.65036">
        <ele>464.1</ele>
        <time>2022-04-15T08:16:30Z</time>
      </trkpt>
      <trkpt lat="45.39225" lon="5.65044">
        <ele>464.1</ele>
        <time>2022-04-15T08:16:32Z</time>
      </trkpt>
      <trkpt lat="45.39226" lon="5.6505">
        <ele>464.2</ele>
        <time>2022-04-15T08:16:33Z</time>
      </trkpt>
      <trkpt lat="45.39226" lon="5.65056">
        <ele>464.2</ele>
        <time>2022-04-15T08:16:34Z</time>
      </trkpt>
      <trkpt lat="45.39228" lon="5.65065">
        <ele>464.2</ele>
        <time>2022-04-15T08:16:36Z</time>
      </trkpt>
      <trkpt lat="45.39229" lon="5.65072">
        <ele>464.2</ele>
        <time>2022-04-15T08:16:37Z</time>
      </trkpt>
      <trkpt lat="45.3923" lon="5.65078">
        <ele>464.1</ele>
        <time>2022-04-15T08:16:38Z</time>
      </trkpt>
      <trkpt lat="45.3923" lon="5.65083">
        <ele>464.1</ele>
        <time>2022-04-15T08:16:39Z</time>
      </trkpt>
      <trkpt lat="45.39231" lon="5.65091">
        <ele>464.1</ele>
        <time>2022-04-15T08:16:40Z</time>
      </trkpt>
      <trkpt lat="45.39232" lon="5.65096">
        <ele>464.1</ele>
        <time>2022-04-15T08:16:41Z</time>
      </trkpt>
      <trkpt lat="45.39233" lon="5.65102">
        <ele>464.1</ele>
        <time>2022-04-15T08:16:43Z</time>
      </trkpt>
      <trkpt lat="45.39234" lon="5.65108">
        <ele>464.1</ele>
        <time>2022-04-15T08:16:44Z</time>
      </trkpt>
      <trkpt lat="45.39235" lon="5.65115">
        <ele>464</ele>
        <time>2022-04-15T08:16:45Z</time>
      </trkpt>
      <trkpt lat="45.39236" lon="5.65122">
        <ele>464</ele>
        <time>2022-04-15T08:16:47Z</time>
      </trkpt>
      <trkpt lat="45.39237" lon="5.65128">
        <ele>463.9</ele>
        <time>2022-04-15T08:16:48Z</time>
      </trkpt>
      <trkpt lat="45.39238" lon="5.65135">
        <ele>463.8</ele>
        <time>2022-04-15T08:16:49Z</time>
      </trkpt>
      <trkpt lat="45.39239" lon="5.65145">
        <ele>463.6</ele>
        <time>2022-04-15T08:16:51Z</time>
      </trkpt>
      <trkpt lat="45.39239" lon="5.6515">
        <ele>463.5</ele>
        <time>2022-04-15T08:16:52Z</time>
      </trkpt>
      <trkpt lat="45.39239" lon="5.65162">
        <ele>463.3</ele>
        <time>2022-04-15T08:16:54Z</time>
      </trkpt>
      <trkpt lat="45.39239" lon="5.6517">
        <ele>463.2</ele>
        <time>2022-04-15T08:16:55Z</time>
      </trkpt>
      <trkpt lat="45.39239" lon="5.65177">
        <ele>463.1</ele>
        <time>2022-04-15T08:16:56Z</time>
      </trkpt>
      <trkpt lat="45.39239" lon="5.65185">
        <ele>463</ele>
        <time>2022-04-15T08:16:57Z</time>
      </trkpt>
      <trkpt lat="45.39239" lon="5.65193">
        <ele>462.8</ele>
        <time>2022-04-15T08:16:58Z</time>
      </trkpt>
      <trkpt lat="45.39238" lon="5.65201">
        <ele>462.6</ele>
        <time>2022-04-15T08:16:59Z</time>
      </trkpt>
      <trkpt lat="45.39238" lon="5.65209">
        <ele>462.5</ele>
        <time>2022-04-15T08:17:00Z</time>
      </trkpt>
      <trkpt lat="45.39238" lon="5.65218">
        <ele>462.3</ele>
        <time>2022-04-15T08:17:01Z</time>
      </trkpt>
      <trkpt lat="45.39237" lon="5.65226">
        <ele>462.1</ele>
        <time>2022-04-15T08:17:02Z</time>
      </trkpt>
      <trkpt lat="45.39237" lon="5.65233">
        <ele>461.9</ele>
        <time>2022-04-15T08:17:03Z</time>
      </trkpt>
      <trkpt lat="45.39236" lon="5.65241">
        <ele>461.8</ele>
        <time>2022-04-15T08:17:04Z</time>
      </trkpt>
      <trkpt lat="45.39236" lon="5.65249">
        <ele>461.6</ele>
        <time>2022-04-15T08:17:05Z</time>
      </trkpt>
      <trkpt lat="45.39236" lon="5.65257">
        <ele>461.4</ele>
        <time>2022-04-15T08:17:06Z</time>
      </trkpt>
      <trkpt lat="45.39236" lon="5.65265">
        <ele>461.3</ele>
        <time>2022-04-15T08:17:07Z</time>
      </trkpt>
      <trkpt lat="45.39237" lon="5.65273">
        <ele>461.1</ele>
        <time>2022-04-15T08:17:08Z</time>
      </trkpt>
      <trkpt lat="45.39237" lon="5.65281">
        <ele>460.9</ele>
        <time>2022-04-15T08:17:09Z</time>
      </trkpt>
      <trkpt lat="45.39238" lon="5.65289">
        <ele>460.8</ele>
        <time>2022-04-15T08:17:10Z</time>
      </trkpt>
      <trkpt lat="45.3924" lon="5.65297">
        <ele>460.6</ele>
        <time>2022-04-15T08:17:11Z</time>
      </trkpt>
      <trkpt lat="45.39241" lon="5.65306">
        <ele>460.4</ele>
        <time>2022-04-15T08:17:12Z</time>
      </trkpt>
      <trkpt lat="45.39243" lon="5.65314">
        <ele>460.2</ele>
        <time>2022-04-15T08:17:13Z</time>
      </trkpt>
      <trkpt lat="45.39245" lon="5.65323">
        <ele>460</ele>
        <time>2022-04-15T08:17:14Z</time>
      </trkpt>
      <trkpt lat="45.39247" lon="5.65331">
        <ele>459.8</ele>
        <time>2022-04-15T08:17:15Z</time>
      </trkpt>
      <trkpt lat="45.39249" lon="5.6534">
        <ele>459.6</ele>
        <time>2022-04-15T08:17:16Z</time>
      </trkpt>
      <trkpt lat="45.39251" lon="5.65348">
        <ele>459.5</ele>
        <time>2022-04-15T08:17:17Z</time>
      </trkpt>
      <trkpt lat="45.39254" lon="5.65356">
        <ele>459.3</ele>
        <time>2022-04-15T08:17:18Z</time>
      </trkpt>
      <trkpt lat="45.39256" lon="5.65364">
        <ele>459.1</ele>
        <time>2022-04-15T08:17:19Z</time>
      </trkpt>
      <trkpt lat="45.39259" lon="5.65372">
        <ele>458.9</ele>
        <time>2022-04-15T08:17:20Z</time>
      </trkpt>
      <trkpt lat="45.39261" lon="5.6538">
        <ele>458.8</ele>
        <time>2022-04-15T08:17:21Z</time>
      </trkpt>
      <trkpt lat="45.39264" lon="5.65387">
        <ele>458.6</ele>
        <time>2022-04-15T08:17:22Z</time>
      </trkpt>
      <trkpt lat="45.39266" lon="5.65395">
        <ele>458.5</ele>
        <time>2022-04-15T08:17:23Z</time>
      </trkpt>
      <trkpt lat="45.39269" lon="5.65402">
        <ele>458.4</ele>
        <time>2022-04-15T08:17:24Z</time>
      </trkpt>
      <trkpt lat="45.39272" lon="5.65409">
        <ele>458.2</ele>
        <time>2022-04-15T08:17:25Z</time>
      </trkpt>
      <trkpt lat="45.39275" lon="5.65416">
        <ele>458.1</ele>
        <time>2022-04-15T08:17:26Z</time>
      </trkpt>
      <trkpt lat="45.39278" lon="5.65422">
        <ele>458</ele>
        <time>2022-04-15T08:17:27Z</time>
      </trkpt>
      <trkpt lat="45.39282" lon="5.65429">
        <ele>457.8</ele>
        <time>2022-04-15T08:17:28Z</time>
      </trkpt>
      <trkpt lat="45.39286" lon="5.65436">
        <ele>457.7</ele>
        <time>2022-04-15T08:17:29Z</time>
      </trkpt>
      <trkpt lat="45.39289" lon="5.65442">
        <ele>457.6</ele>
        <time>2022-04-15T08:17:30Z</time>
      </trkpt>
      <trkpt lat="45.39294" lon="5.65448">
        <ele>457.4</ele>
        <time>2022-04-15T08:17:31Z</time>
      </trkpt>
      <trkpt lat="45.39298" lon="5.65454">
        <ele>457.3</ele>
        <time>2022-04-15T08:17:32Z</time>
      </trkpt>
      <trkpt lat="45.39302" lon="5.6546">
        <ele>457.2</ele>
        <time>2022-04-15T08:17:33Z</time>
      </trkpt>
      <trkpt lat="45.39307" lon="5.65466">
        <ele>457.1</ele>
        <time>2022-04-15T08:17:34Z</time>
      </trkpt>
      <trkpt lat="45.39311" lon="5.65472">
        <ele>457.1</ele>
        <time>2022-04-15T08:17:35Z</time>
      </trkpt>
      <trkpt lat="45.39316" lon="5.65477">
        <ele>457</ele>
        <time>2022-04-15T08:17:36Z</time>
      </trkpt>
      <trkpt lat="45.3932" lon="5.65483">
        <ele>457</ele>
        <time>2022-04-15T08:17:37Z</time>
      </trkpt>
      <trkpt lat="45.39324" lon="5.65488">
        <ele>457</ele>
        <time>2022-04-15T08:17:38Z</time>
      </trkpt>
      <trkpt lat="45.39329" lon="5.65493">
        <ele>457.1</ele>
        <time>2022-04-15T08:17:39Z</time>
      </trkpt>
      <trkpt lat="45.39333" lon="5.65497">
        <ele>457.1</ele>
        <time>2022-04-15T08:17:40Z</time>
      </trkpt>
      <trkpt lat="45.39338" lon="5.65501">
        <ele>457.2</ele>
        <time>2022-04-15T08:17:41Z</time>
      </trkpt>
      <trkpt lat="45.39342" lon="5.65504">
        <ele>457.3</ele>
        <time>2022-04-15T08:17:42Z</time>
      </trkpt>
      <trkpt lat="45.39347" lon="5.65508">
        <ele>457.4</ele>
        <time>2022-04-15T08:17:43Z</time>
      </trkpt>
      <trkpt lat="45.39351" lon="5.65511">
        <ele>457.5</ele>
        <time>2022-04-15T08:17:44Z</time>
      </trkpt>
      <trkpt lat="45.39355" lon="5.65515">
        <ele>457.6</ele>
        <time>2022-04-15T08:17:45Z</time>
      </trkpt>
      <trkpt lat="45.39359" lon="5.65519">
        <ele>457.7</ele>
        <time>2022-04-15T08:17:46Z</time>
      </trkpt>
      <trkpt lat="45.39363" lon="5.65522">
        <ele>457.8</ele>
        <time>2022-04-15T08:17:47Z</time>
      </trkpt>
      <trkpt lat="45.39367" lon="5.65525">
        <ele>457.9</ele>
        <time>2022-04-15T08:17:48Z</time>
      </trkpt>
      <trkpt lat="45.39371" lon="5.65529">
        <ele>458.1</ele>
        <time>2022-04-15T08:17:49Z</time>
      </trkpt>
      <trkpt lat="45.39375" lon="5.65533">
        <ele>458.2</ele>
        <time>2022-04-15T08:17:50Z</time>
      </trkpt>
      <trkpt lat="45.39377" lon="5.65535">
        <ele>458.3</ele>
        <time>2022-04-15T08:17:51Z</time>
      </trkpt>
      <trkpt lat="45.39379" lon="5.65538">
        <ele>458.4</ele>
        <time>2022-04-15T08:17:52Z</time>
      </trkpt>
      <trkpt lat="45.39383" lon="5.65542">
        <ele>458.6</ele>
        <time>2022-04-15T08:17:53Z</time>
      </trkpt>
      <trkpt lat="45.39386" lon="5.65546">
        <ele>458.7</ele>
        <time>2022-04-15T08:17:54Z</time>
      </trkpt>
      <trkpt lat="45.39388" lon="5.6555">
        <ele>458.9</ele>
        <time>2022-04-15T08:17:55Z</time>
      </trkpt>
      <trkpt lat="45.39391" lon="5.65554">
        <ele>459</ele>
        <time>2022-04-15T08:17:56Z</time>
      </trkpt>
      <trkpt lat="45.39394" lon="5.65557">
        <ele>459.2</ele>
        <time>2022-04-15T08:17:57Z</time>
      </trkpt>
      <trkpt lat="45.39397" lon="5.65566">
        <ele>459.5</ele>
        <time>2022-04-15T08:17:58Z</time>
      </trkpt>
      <trkpt lat="45.39398" lon="5.65571">
        <ele>459.6</ele>
        <time>2022-04-15T08:18:00Z</time>
      </trkpt>
      <trkpt lat="45.39401" lon="5.65578">
        <ele>459.9</ele>
        <time>2022-04-15T08:18:01Z</time>
      </trkpt>
      <trkpt lat="45.39402" lon="5.65582">
        <ele>460</ele>
        <time>2022-04-15T08:18:03Z</time>
      </trkpt>
      <trkpt lat="45.39404" lon="5.65586">
        <ele>460.2</ele>
        <time>2022-04-15T08:18:04Z</time>
      </trkpt>
      <trkpt lat="45.39406" lon="5.65592">
        <ele>460.4</ele>
        <time>2022-04-15T08:18:05Z</time>
      </trkpt>
      <trkpt lat="45.39406" lon="5.65594">
        <ele>460.5</ele>
        <time>2022-04-15T08:18:06Z</time>
      </trkpt>
      <trkpt lat="45.39408" lon="5.656">
        <ele>460.7</ele>
        <time>2022-04-15T08:18:07Z</time>
      </trkpt>
      <trkpt lat="45.3941" lon="5.65607">
        <ele>461</ele>
        <time>2022-04-15T08:18:09Z</time>
      </trkpt>
      <trkpt lat="45.39411" lon="5.65613">
        <ele>461.2</ele>
        <time>2022-04-15T08:18:11Z</time>
      </trkpt>
      <trkpt lat="45.39413" lon="5.65617">
        <ele>461.4</ele>
        <time>2022-04-15T08:18:12Z</time>
      </trkpt>
      <trkpt lat="45.39415" lon="5.65623">
        <ele>461.6</ele>
        <time>2022-04-15T08:18:13Z</time>
      </trkpt>
      <trkpt lat="45.39416" lon="5.65626">
        <ele>461.8</ele>
        <time>2022-04-15T08:18:15Z</time>
      </trkpt>
      <trkpt lat="45.39417" lon="5.65634">
        <ele>462.1</ele>
        <time>2022-04-15T08:18:17Z</time>
      </trkpt>
      <trkpt lat="45.39418" lon="5.65639">
        <ele>462.2</ele>
        <time>2022-04-15T08:18:18Z</time>
      </trkpt>
      <trkpt lat="45.39419" lon="5.65644">
        <ele>462.4</ele>
        <time>2022-04-15T08:18:19Z</time>
      </trkpt>
      <trkpt lat="45.3942" lon="5.65649">
        <ele>462.6</ele>
        <time>2022-04-15T08:18:21Z</time>
      </trkpt>
      <trkpt lat="45.3942" lon="5.65653">
        <ele>462.8</ele>
        <time>2022-04-15T08:18:22Z</time>
      </trkpt>
      <trkpt lat="45.39421" lon="5.65658">
        <ele>463</ele>
        <time>2022-04-15T08:18:24Z</time>
      </trkpt>
      <trkpt lat="45.39422" lon="5.65662">
        <ele>463.1</ele>
        <time>2022-04-15T08:18:25Z</time>
      </trkpt>
      <trkpt lat="45.39422" lon="5.65664">
        <ele>463.2</ele>
        <time>2022-04-15T08:18:26Z</time>
      </trkpt>
      <trkpt lat="45.39423" lon="5.65668">
        <ele>463.3</ele>
        <time>2022-04-15T08:18:27Z</time>
      </trkpt>
      <trkpt lat="45.39423" lon="5.6567">
        <ele>463.4</ele>
        <time>2022-04-15T08:18:28Z</time>
      </trkpt>
      <trkpt lat="45.39424" lon="5.65675">
        <ele>463.6</ele>
        <time>2022-04-15T08:18:29Z</time>
      </trkpt>
      <trkpt lat="45.39425" lon="5.65677">
        <ele>463.7</ele>
        <time>2022-04-15T08:18:30Z</time>
      </trkpt>
      <trkpt lat="45.39426" lon="5.65681">
        <ele>463.8</ele>
        <time>2022-04-15T08:18:31Z</time>
      </trkpt>
      <trkpt lat="45.39426" lon="5.65683">
        <ele>463.9</ele>
        <time>2022-04-15T08:18:32Z</time>
      </trkpt>
      <trkpt lat="45.39428" lon="5.65687">
        <ele>464</ele>
        <time>2022-04-15T08:18:33Z</time>
      </trkpt>
      <trkpt lat="45.39428" lon="5.65688">
        <ele>464.1</ele>
        <time>2022-04-15T08:18:34Z</time>
      </trkpt>
      <trkpt lat="45.39429" lon="5.65693">
        <ele>464.2</ele>
        <time>2022-04-15T08:18:35Z</time>
      </trkpt>
      <trkpt lat="45.39429" lon="5.65695">
        <ele>464.3</ele>
        <time>2022-04-15T08:18:36Z</time>
      </trkpt>
      <trkpt lat="45.3943" lon="5.65699">
        <ele>464.4</ele>
        <time>2022-04-15T08:18:37Z</time>
      </trkpt>
      <trkpt lat="45.3943" lon="5.65703">
        <ele>464.5</ele>
        <time>2022-04-15T08:18:38Z</time>
      </trkpt>
      <trkpt lat="45.39431" lon="5.65709">
        <ele>464.6</ele>
        <time>2022-04-15T08:18:39Z</time>
      </trkpt>
      <trkpt lat="45.39431" lon="5.65711">
        <ele>464.7</ele>
        <time>2022-04-15T08:18:40Z</time>
      </trkpt>
      <trkpt lat="45.39432" lon="5.65715">
        <ele>464.8</ele>
        <time>2022-04-15T08:18:41Z</time>
      </trkpt>
      <trkpt lat="45.39432" lon="5.65721">
        <ele>464.9</ele>
        <time>2022-04-15T08:18:43Z</time>
      </trkpt>
      <trkpt lat="45.39434" lon="5.65726">
        <ele>465</ele>
        <time>2022-04-15T08:18:44Z</time>
      </trkpt>
      <trkpt lat="45.39434" lon="5.65728">
        <ele>465</ele>
        <time>2022-04-15T08:18:45Z</time>
      </trkpt>
      <trkpt lat="45.39435" lon="5.65732">
        <ele>465.2</ele>
        <time>2022-04-15T08:18:46Z</time>
      </trkpt>
      <trkpt lat="45.39435" lon="5.6574">
        <ele>465.3</ele>
        <time>2022-04-15T08:18:48Z</time>
      </trkpt>
      <trkpt lat="45.39437" lon="5.65748">
        <ele>465.5</ele>
        <time>2022-04-15T08:18:50Z</time>
      </trkpt>
      <trkpt lat="45.39438" lon="5.65752">
        <ele>465.6</ele>
        <time>2022-04-15T08:18:51Z</time>
      </trkpt>
      <trkpt lat="45.39438" lon="5.65757">
        <ele>465.7</ele>
        <time>2022-04-15T08:18:52Z</time>
      </trkpt>
      <trkpt lat="45.39439" lon="5.65762">
        <ele>465.8</ele>
        <time>2022-04-15T08:18:54Z</time>
      </trkpt>
      <trkpt lat="45.39441" lon="5.65767">
        <ele>465.9</ele>
        <time>2022-04-15T08:18:55Z</time>
      </trkpt>
      <trkpt lat="45.39442" lon="5.65773">
        <ele>466</ele>
        <time>2022-04-15T08:18:57Z</time>
      </trkpt>
      <trkpt lat="45.39442" lon="5.65774">
        <ele>466.1</ele>
        <time>2022-04-15T08:18:58Z</time>
      </trkpt>
      <trkpt lat="45.39442" lon="5.65779">
        <ele>466.1</ele>
        <time>2022-04-15T08:18:59Z</time>
      </trkpt>
      <trkpt lat="45.39443" lon="5.65783">
        <ele>466.2</ele>
        <time>2022-04-15T08:19:00Z</time>
      </trkpt>
      <trkpt lat="45.39444" lon="5.6579">
        <ele>466.2</ele>
        <time>2022-04-15T08:19:01Z</time>
      </trkpt>
      <trkpt lat="45.39444" lon="5.65794">
        <ele>466.3</ele>
        <time>2022-04-15T08:19:03Z</time>
      </trkpt>
      <trkpt lat="45.39445" lon="5.65798">
        <ele>466.3</ele>
        <time>2022-04-15T08:19:04Z</time>
      </trkpt>
      <trkpt lat="45.39446" lon="5.65804">
        <ele>466.3</ele>
        <time>2022-04-15T08:19:05Z</time>
      </trkpt>
      <trkpt lat="45.39447" lon="5.6581">
        <ele>466.4</ele>
        <time>2022-04-15T08:19:06Z</time>
      </trkpt>
      <trkpt lat="45.39448" lon="5.65817">
        <ele>466.4</ele>
        <time>2022-04-15T08:19:08Z</time>
      </trkpt>
      <trkpt lat="45.39449" lon="5.65824">
        <ele>466.4</ele>
        <time>2022-04-15T08:19:09Z</time>
      </trkpt>
      <trkpt lat="45.3945" lon="5.6583">
        <ele>466.4</ele>
        <time>2022-04-15T08:19:11Z</time>
      </trkpt>
      <trkpt lat="45.3945" lon="5.65836">
        <ele>466.4</ele>
        <time>2022-04-15T08:19:12Z</time>
      </trkpt>
      <trkpt lat="45.39451" lon="5.65845">
        <ele>466.4</ele>
        <time>2022-04-15T08:19:14Z</time>
      </trkpt>
      <trkpt lat="45.39452" lon="5.65851">
        <ele>466.3</ele>
        <time>2022-04-15T08:19:15Z</time>
      </trkpt>
      <trkpt lat="45.39452" lon="5.65861">
        <ele>466.3</ele>
        <time>2022-04-15T08:19:17Z</time>
      </trkpt>
      <trkpt lat="45.39453" lon="5.65867">
        <ele>466.3</ele>
        <time>2022-04-15T08:19:18Z</time>
      </trkpt>
      <trkpt lat="45.39454" lon="5.65876">
        <ele>466.3</ele>
        <time>2022-04-15T08:19:19Z</time>
      </trkpt>
      <trkpt lat="45.39455" lon="5.65881">
        <ele>466.3</ele>
        <time>2022-04-15T08:19:21Z</time>
      </trkpt>
      <trkpt lat="45.39455" lon="5.65888">
        <ele>466.2</ele>
        <time>2022-04-15T08:19:22Z</time>
      </trkpt>
      <trkpt lat="45.39455" lon="5.65894">
        <ele>466.2</ele>
        <time>2022-04-15T08:19:23Z</time>
      </trkpt>
      <trkpt lat="45.39456" lon="5.659">
        <ele>466.2</ele>
        <time>2022-04-15T08:19:24Z</time>
      </trkpt>
      <trkpt lat="45.39458" lon="5.65909">
        <ele>466.2</ele>
        <time>2022-04-15T08:19:26Z</time>
      </trkpt>
      <trkpt lat="45.39459" lon="5.65919">
        <ele>466.1</ele>
        <time>2022-04-15T08:19:28Z</time>
      </trkpt>
      <trkpt lat="45.3946" lon="5.65928">
        <ele>466</ele>
        <time>2022-04-15T08:19:30Z</time>
      </trkpt>
      <trkpt lat="45.39461" lon="5.65934">
        <ele>465.9</ele>
        <time>2022-04-15T08:19:31Z</time>
      </trkpt>
      <trkpt lat="45.39464" lon="5.65944">
        <ele>465.8</ele>
        <time>2022-04-15T08:19:33Z</time>
      </trkpt>
      <trkpt lat="45.39465" lon="5.65948">
        <ele>465.7</ele>
        <time>2022-04-15T08:19:34Z</time>
      </trkpt>
      <trkpt lat="45.39466" lon="5.65954">
        <ele>465.5</ele>
        <time>2022-04-15T08:19:35Z</time>
      </trkpt>
      <trkpt lat="45.39468" lon="5.65961">
        <ele>465.3</ele>
        <time>2022-04-15T08:19:36Z</time>
      </trkpt>
      <trkpt lat="45.39471" lon="5.65972">
        <ele>464.9</ele>
        <time>2022-04-15T08:19:38Z</time>
      </trkpt>
      <trkpt lat="45.39473" lon="5.6598">
        <ele>464.6</ele>
        <time>2022-04-15T08:19:39Z</time>
      </trkpt>
      <trkpt lat="45.39475" lon="5.65987">
        <ele>464.4</ele>
        <time>2022-04-15T08:19:40Z</time>
      </trkpt>
      <trkpt lat="45.39478" lon="5.65994">
        <ele>464.2</ele>
        <time>2022-04-15T08:19:41Z</time>
      </trkpt>
      <trkpt lat="45.39481" lon="5.66001">
        <ele>463.9</ele>
        <time>2022-04-15T08:19:42Z</time>
      </trkpt>
      <trkpt lat="45.39484" lon="5.66008">
        <ele>463.6</ele>
        <time>2022-04-15T08:19:43Z</time>
      </trkpt>
      <trkpt lat="45.39487" lon="5.66015">
        <ele>463.4</ele>
        <time>2022-04-15T08:19:44Z</time>
      </trkpt>
      <trkpt lat="45.39491" lon="5.66022">
        <ele>463.2</ele>
        <time>2022-04-15T08:19:45Z</time>
      </trkpt>
      <trkpt lat="45.39494" lon="5.66029">
        <ele>463</ele>
        <time>2022-04-15T08:19:46Z</time>
      </trkpt>
      <trkpt lat="45.39498" lon="5.66037">
        <ele>462.8</ele>
        <time>2022-04-15T08:19:47Z</time>
      </trkpt>
      <trkpt lat="45.39502" lon="5.66044">
        <ele>462.7</ele>
        <time>2022-04-15T08:19:48Z</time>
      </trkpt>
      <trkpt lat="45.39506" lon="5.6605">
        <ele>462.6</ele>
        <time>2022-04-15T08:19:49Z</time>
      </trkpt>
      <trkpt lat="45.39511" lon="5.66056">
        <ele>462.4</ele>
        <time>2022-04-15T08:19:50Z</time>
      </trkpt>
      <trkpt lat="45.39515" lon="5.66062">
        <ele>462.3</ele>
        <time>2022-04-15T08:19:51Z</time>
      </trkpt>
      <trkpt lat="45.3952" lon="5.66067">
        <ele>462.2</ele>
        <time>2022-04-15T08:19:52Z</time>
      </trkpt>
      <trkpt lat="45.39524" lon="5.66072">
        <ele>462.2</ele>
        <time>2022-04-15T08:19:53Z</time>
      </trkpt>
      <trkpt lat="45.39529" lon="5.66077">
        <ele>462.2</ele>
        <time>2022-04-15T08:19:54Z</time>
      </trkpt>
      <trkpt lat="45.39534" lon="5.66081">
        <ele>462.2</ele>
        <time>2022-04-15T08:19:55Z</time>
      </trkpt>
      <trkpt lat="45.39538" lon="5.66085">
        <ele>462.1</ele>
        <time>2022-04-15T08:19:56Z</time>
      </trkpt>
      <trkpt lat="45.39542" lon="5.6609">
        <ele>462.1</ele>
        <time>2022-04-15T08:19:57Z</time>
      </trkpt>
      <trkpt lat="45.39547" lon="5.66094">
        <ele>462.1</ele>
        <time>2022-04-15T08:19:58Z</time>
      </trkpt>
      <trkpt lat="45.3955" lon="5.66099">
        <ele>462.1</ele>
        <time>2022-04-15T08:19:59Z</time>
      </trkpt>
      <trkpt lat="45.39554" lon="5.66104">
        <ele>462.1</ele>
        <time>2022-04-15T08:20:00Z</time>
      </trkpt>
      <trkpt lat="45.39558" lon="5.6611">
        <ele>462</ele>
        <time>2022-04-15T08:20:01Z</time>
      </trkpt>
      <trkpt lat="45.39562" lon="5.66115">
        <ele>462</ele>
        <time>2022-04-15T08:20:02Z</time>
      </trkpt>
      <trkpt lat="45.39565" lon="5.6612">
        <ele>462</ele>
        <time>2022-04-15T08:20:03Z</time>
      </trkpt>
      <trkpt lat="45.39569" lon="5.66126">
        <ele>462</ele>
        <time>2022-04-15T08:20:04Z</time>
      </trkpt>
      <trkpt lat="45.39573" lon="5.66131">
        <ele>462</ele>
        <time>2022-04-15T08:20:05Z</time>
      </trkpt>
      <trkpt lat="45.39577" lon="5.66135">
        <ele>461.9</ele>
        <time>2022-04-15T08:20:06Z</time>
      </trkpt>
      <trkpt lat="45.3958" lon="5.6614">
        <ele>461.8</ele>
        <time>2022-04-15T08:20:07Z</time>
      </trkpt>
      <trkpt lat="45.39584" lon="5.66146">
        <ele>461.8</ele>
        <time>2022-04-15T08:20:08Z</time>
      </trkpt>
      <trkpt lat="45.39587" lon="5.66151">
        <ele>461.7</ele>
        <time>2022-04-15T08:20:09Z</time>
      </trkpt>
      <trkpt lat="45.39591" lon="5.66157">
        <ele>461.6</ele>
        <time>2022-04-15T08:20:10Z</time>
      </trkpt>
      <trkpt lat="45.39595" lon="5.66163">
        <ele>461.6</ele>
        <time>2022-04-15T08:20:11Z</time>
      </trkpt>
      <trkpt lat="45.39599" lon="5.66169">
        <ele>461.5</ele>
        <time>2022-04-15T08:20:12Z</time>
      </trkpt>
      <trkpt lat="45.39603" lon="5.66174">
        <ele>461.5</ele>
        <time>2022-04-15T08:20:13Z</time>
      </trkpt>
      <trkpt lat="45.39607" lon="5.66179">
        <ele>461.5</ele>
        <time>2022-04-15T08:20:14Z</time>
      </trkpt>
      <trkpt lat="45.39611" lon="5.66184">
        <ele>461.5</ele>
        <time>2022-04-15T08:20:15Z</time>
      </trkpt>
      <trkpt lat="45.39615" lon="5.66189">
        <ele>461.4</ele>
        <time>2022-04-15T08:20:16Z</time>
      </trkpt>
      <trkpt lat="45.39619" lon="5.66194">
        <ele>461.4</ele>
        <time>2022-04-15T08:20:17Z</time>
      </trkpt>
      <trkpt lat="45.39623" lon="5.66199">
        <ele>461.4</ele>
        <time>2022-04-15T08:20:18Z</time>
      </trkpt>
      <trkpt lat="45.39628" lon="5.66204">
        <ele>461.4</ele>
        <time>2022-04-15T08:20:19Z</time>
      </trkpt>
      <trkpt lat="45.39631" lon="5.66209">
        <ele>461.5</ele>
        <time>2022-04-15T08:20:20Z</time>
      </trkpt>
      <trkpt lat="45.39635" lon="5.66214">
        <ele>461.5</ele>
        <time>2022-04-15T08:20:21Z</time>
      </trkpt>
      <trkpt lat="45.39638" lon="5.66218">
        <ele>461.5</ele>
        <time>2022-04-15T08:20:22Z</time>
      </trkpt>
      <trkpt lat="45.39642" lon="5.66223">
        <ele>461.5</ele>
        <time>2022-04-15T08:20:23Z</time>
      </trkpt>
      <trkpt lat="45.39645" lon="5.66228">
        <ele>461.6</ele>
        <time>2022-04-15T08:20:24Z</time>
      </trkpt>
      <trkpt lat="45.39649" lon="5.66232">
        <ele>461.6</ele>
        <time>2022-04-15T08:20:25Z</time>
      </trkpt>
      <trkpt lat="45.39652" lon="5.66237">
        <ele>461.6</ele>
        <time>2022-04-15T08:20:26Z</time>
      </trkpt>
      <trkpt lat="45.39655" lon="5.66241">
        <ele>461.6</ele>
        <time>2022-04-15T08:20:27Z</time>
      </trkpt>
      <trkpt lat="45.39659" lon="5.66246">
        <ele>461.7</ele>
        <time>2022-04-15T08:20:28Z</time>
      </trkpt>
      <trkpt lat="45.39663" lon="5.6625">
        <ele>461.8</ele>
        <time>2022-04-15T08:20:29Z</time>
      </trkpt>
      <trkpt lat="45.39665" lon="5.66252">
        <ele>461.8</ele>
        <time>2022-04-15T08:20:30Z</time>
      </trkpt>
      <trkpt lat="45.39668" lon="5.66255">
        <ele>461.9</ele>
        <time>2022-04-15T08:20:31Z</time>
      </trkpt>
      <trkpt lat="45.39671" lon="5.66258">
        <ele>461.9</ele>
        <time>2022-04-15T08:20:32Z</time>
      </trkpt>
      <trkpt lat="45.39675" lon="5.66261">
        <ele>461.9</ele>
        <time>2022-04-15T08:20:33Z</time>
      </trkpt>
      <trkpt lat="45.39678" lon="5.66262">
        <ele>462</ele>
        <time>2022-04-15T08:20:34Z</time>
      </trkpt>
      <trkpt lat="45.39682" lon="5.66266">
        <ele>462</ele>
        <time>2022-04-15T08:20:35Z</time>
      </trkpt>
      <trkpt lat="45.39687" lon="5.6627">
        <ele>462</ele>
        <time>2022-04-15T08:20:36Z</time>
      </trkpt>
      <trkpt lat="45.39691" lon="5.66271">
        <ele>462.1</ele>
        <time>2022-04-15T08:20:37Z</time>
      </trkpt>
      <trkpt lat="45.39696" lon="5.66273">
        <ele>462.1</ele>
        <time>2022-04-15T08:20:39Z</time>
      </trkpt>
      <trkpt lat="45.397" lon="5.66277">
        <ele>462.2</ele>
        <time>2022-04-15T08:20:40Z</time>
      </trkpt>
      <trkpt lat="45.39704" lon="5.66279">
        <ele>462.2</ele>
        <time>2022-04-15T08:20:41Z</time>
      </trkpt>
      <trkpt lat="45.39708" lon="5.66281">
        <ele>462.3</ele>
        <time>2022-04-15T08:20:42Z</time>
      </trkpt>
      <trkpt lat="45.39713" lon="5.66284">
        <ele>462.4</ele>
        <time>2022-04-15T08:20:43Z</time>
      </trkpt>
      <trkpt lat="45.39717" lon="5.66286">
        <ele>462.4</ele>
        <time>2022-04-15T08:20:44Z</time>
      </trkpt>
      <trkpt lat="45.39721" lon="5.66289">
        <ele>462.5</ele>
        <time>2022-04-15T08:20:46Z</time>
      </trkpt>
      <trkpt lat="45.39724" lon="5.66291">
        <ele>462.6</ele>
        <time>2022-04-15T08:20:47Z</time>
      </trkpt>
      <trkpt lat="45.39728" lon="5.66294">
        <ele>462.6</ele>
        <time>2022-04-15T08:20:48Z</time>
      </trkpt>
      <trkpt lat="45.39732" lon="5.66296">
        <ele>462.7</ele>
        <time>2022-04-15T08:20:49Z</time>
      </trkpt>
      <trkpt lat="45.39737" lon="5.663">
        <ele>462.8</ele>
        <time>2022-04-15T08:20:50Z</time>
      </trkpt>
      <trkpt lat="45.3974" lon="5.66302">
        <ele>462.8</ele>
        <time>2022-04-15T08:20:51Z</time>
      </trkpt>
      <trkpt lat="45.39745" lon="5.66304">
        <ele>462.9</ele>
        <time>2022-04-15T08:20:53Z</time>
      </trkpt>
      <trkpt lat="45.39749" lon="5.66307">
        <ele>463</ele>
        <time>2022-04-15T08:20:54Z</time>
      </trkpt>
      <trkpt lat="45.39755" lon="5.66309">
        <ele>463.1</ele>
        <time>2022-04-15T08:20:56Z</time>
      </trkpt>
      <trkpt lat="45.39759" lon="5.66311">
        <ele>463.2</ele>
        <time>2022-04-15T08:20:57Z</time>
      </trkpt>
      <trkpt lat="45.39765" lon="5.66314">
        <ele>463.3</ele>
        <time>2022-04-15T08:20:58Z</time>
      </trkpt>
      <trkpt lat="45.39769" lon="5.66316">
        <ele>463.4</ele>
        <time>2022-04-15T08:21:00Z</time>
      </trkpt>
      <trkpt lat="45.39773" lon="5.66318">
        <ele>463.5</ele>
        <time>2022-04-15T08:21:01Z</time>
      </trkpt>
      <trkpt lat="45.39779" lon="5.6632">
        <ele>463.7</ele>
        <time>2022-04-15T08:21:02Z</time>
      </trkpt>
      <trkpt lat="45.39783" lon="5.66322">
        <ele>463.7</ele>
        <time>2022-04-15T08:21:04Z</time>
      </trkpt>
      <trkpt lat="45.39786" lon="5.66325">
        <ele>463.8</ele>
        <time>2022-04-15T08:21:05Z</time>
      </trkpt>
      <trkpt lat="45.39792" lon="5.66327">
        <ele>464</ele>
        <time>2022-04-15T08:21:06Z</time>
      </trkpt>
      <trkpt lat="45.39796" lon="5.66328">
        <ele>464.1</ele>
        <time>2022-04-15T08:21:08Z</time>
      </trkpt>
      <trkpt lat="45.39799" lon="5.66329">
        <ele>464.2</ele>
        <time>2022-04-15T08:21:09Z</time>
      </trkpt>
      <trkpt lat="45.39807" lon="5.66331">
        <ele>464.4</ele>
        <time>2022-04-15T08:21:11Z</time>
      </trkpt>
      <trkpt lat="45.39812" lon="5.66332">
        <ele>464.5</ele>
        <time>2022-04-15T08:21:12Z</time>
      </trkpt>
      <trkpt lat="45.39817" lon="5.66334">
        <ele>464.7</ele>
        <time>2022-04-15T08:21:14Z</time>
      </trkpt>
      <trkpt lat="45.39822" lon="5.66335">
        <ele>464.8</ele>
        <time>2022-04-15T08:21:16Z</time>
      </trkpt>
      <trkpt lat="45.39827" lon="5.66337">
        <ele>465</ele>
        <time>2022-04-15T08:21:18Z</time>
      </trkpt>
      <trkpt lat="45.39831" lon="5.66338">
        <ele>465.2</ele>
        <time>2022-04-15T08:21:19Z</time>
      </trkpt>
      <trkpt lat="45.39837" lon="5.6634">
        <ele>465.4</ele>
        <time>2022-04-15T08:21:20Z</time>
      </trkpt>
      <trkpt lat="45.3984" lon="5.6634">
        <ele>465.5</ele>
        <time>2022-04-15T08:21:22Z</time>
      </trkpt>
      <trkpt lat="45.39843" lon="5.66342">
        <ele>465.5</ele>
        <time>2022-04-15T08:21:23Z</time>
      </trkpt>
      <trkpt lat="45.39848" lon="5.66346">
        <ele>465.7</ele>
        <time>2022-04-15T08:21:25Z</time>
      </trkpt>
      <trkpt lat="45.39852" lon="5.66348">
        <ele>465.7</ele>
        <time>2022-04-15T08:21:26Z</time>
      </trkpt>
      <trkpt lat="45.39853" lon="5.66349">
        <ele>465.8</ele>
        <time>2022-04-15T08:21:27Z</time>
      </trkpt>
      <trkpt lat="45.39857" lon="5.66351">
        <ele>465.9</ele>
        <time>2022-04-15T08:21:28Z</time>
      </trkpt>
      <trkpt lat="45.39861" lon="5.66354">
        <ele>466</ele>
        <time>2022-04-15T08:21:29Z</time>
      </trkpt>
      <trkpt lat="45.39865" lon="5.66357">
        <ele>466</ele>
        <time>2022-04-15T08:21:30Z</time>
      </trkpt>
      <trkpt lat="45.39869" lon="5.66359">
        <ele>466.1</ele>
        <time>2022-04-15T08:21:32Z</time>
      </trkpt>
      <trkpt lat="45.39873" lon="5.66361">
        <ele>466.2</ele>
        <time>2022-04-15T08:21:33Z</time>
      </trkpt>
      <trkpt lat="45.39876" lon="5.66363">
        <ele>466.3</ele>
        <time>2022-04-15T08:21:34Z</time>
      </trkpt>
      <trkpt lat="45.3988" lon="5.66365">
        <ele>466.3</ele>
        <time>2022-04-15T08:21:35Z</time>
      </trkpt>
      <trkpt lat="45.39883" lon="5.66367">
        <ele>466.4</ele>
        <time>2022-04-15T08:21:36Z</time>
      </trkpt>
      <trkpt lat="45.39886" lon="5.66369">
        <ele>466.5</ele>
        <time>2022-04-15T08:21:37Z</time>
      </trkpt>
      <trkpt lat="45.3989" lon="5.66371">
        <ele>466.5</ele>
        <time>2022-04-15T08:21:39Z</time>
      </trkpt>
      <trkpt lat="45.39894" lon="5.66374">
        <ele>466.6</ele>
        <time>2022-04-15T08:21:40Z</time>
      </trkpt>
      <trkpt lat="45.39898" lon="5.66377">
        <ele>466.7</ele>
        <time>2022-04-15T08:21:41Z</time>
      </trkpt>
      <trkpt lat="45.39903" lon="5.6638">
        <ele>466.8</ele>
        <time>2022-04-15T08:21:42Z</time>
      </trkpt>
      <trkpt lat="45.39909" lon="5.66383">
        <ele>466.8</ele>
        <time>2022-04-15T08:21:44Z</time>
      </trkpt>
      <trkpt lat="45.39912" lon="5.66385">
        <ele>466.9</ele>
        <time>2022-04-15T08:21:45Z</time>
      </trkpt>
      <trkpt lat="45.39915" lon="5.66387">
        <ele>466.9</ele>
        <time>2022-04-15T08:21:46Z</time>
      </trkpt>
      <trkpt lat="45.39921" lon="5.66391">
        <ele>467</ele>
        <time>2022-04-15T08:21:48Z</time>
      </trkpt>
      <trkpt lat="45.39927" lon="5.66395">
        <ele>467.1</ele>
        <time>2022-04-15T08:21:49Z</time>
      </trkpt>
      <trkpt lat="45.3993" lon="5.66398">
        <ele>467.1</ele>
        <time>2022-04-15T08:21:50Z</time>
      </trkpt>
      <trkpt lat="45.39933" lon="5.66399">
        <ele>467.2</ele>
        <time>2022-04-15T08:21:51Z</time>
      </trkpt>
      <trkpt lat="45.3994" lon="5.66402">
        <ele>467.2</ele>
        <time>2022-04-15T08:21:53Z</time>
      </trkpt>
      <trkpt lat="45.39944" lon="5.66404">
        <ele>467.3</ele>
        <time>2022-04-15T08:21:55Z</time>
      </trkpt>
      <trkpt lat="45.39948" lon="5.66406">
        <ele>467.3</ele>
        <time>2022-04-15T08:21:56Z</time>
      </trkpt>
      <trkpt lat="45.39953" lon="5.66408">
        <ele>467.4</ele>
        <time>2022-04-15T08:21:57Z</time>
      </trkpt>
      <trkpt lat="45.39956" lon="5.66409">
        <ele>467.4</ele>
        <time>2022-04-15T08:21:58Z</time>
      </trkpt>
      <trkpt lat="45.39963" lon="5.66413">
        <ele>467.5</ele>
        <time>2022-04-15T08:21:59Z</time>
      </trkpt>
      <trkpt lat="45.39967" lon="5.66415">
        <ele>467.6</ele>
        <time>2022-04-15T08:22:01Z</time>
      </trkpt>
      <trkpt lat="45.39972" lon="5.66417">
        <ele>467.6</ele>
        <time>2022-04-15T08:22:02Z</time>
      </trkpt>
      <trkpt lat="45.39976" lon="5.66418">
        <ele>467.7</ele>
        <time>2022-04-15T08:22:03Z</time>
      </trkpt>
      <trkpt lat="45.39982" lon="5.66422">
        <ele>467.8</ele>
        <time>2022-04-15T08:22:05Z</time>
      </trkpt>
      <trkpt lat="45.39986" lon="5.66424">
        <ele>467.8</ele>
        <time>2022-04-15T08:22:06Z</time>
      </trkpt>
      <trkpt lat="45.3999" lon="5.66426">
        <ele>467.9</ele>
        <time>2022-04-15T08:22:07Z</time>
      </trkpt>
      <trkpt lat="45.39993" lon="5.66428">
        <ele>468</ele>
        <time>2022-04-15T08:22:08Z</time>
      </trkpt>
      <trkpt lat="45.39997" lon="5.66429">
        <ele>468</ele>
        <time>2022-04-15T08:22:09Z</time>
      </trkpt>
      <trkpt lat="45.40001" lon="5.66431">
        <ele>468.1</ele>
        <time>2022-04-15T08:22:11Z</time>
      </trkpt>
      <trkpt lat="45.40005" lon="5.66434">
        <ele>468.1</ele>
        <time>2022-04-15T08:22:12Z</time>
      </trkpt>
      <trkpt lat="45.4001" lon="5.66436">
        <ele>468.2</ele>
        <time>2022-04-15T08:22:13Z</time>
      </trkpt>
      <trkpt lat="45.40015" lon="5.66439">
        <ele>468.3</ele>
        <time>2022-04-15T08:22:15Z</time>
      </trkpt>
      <trkpt lat="45.40019" lon="5.66442">
        <ele>468.3</ele>
        <time>2022-04-15T08:22:16Z</time>
      </trkpt>
      <trkpt lat="45.40023" lon="5.66445">
        <ele>468.4</ele>
        <time>2022-04-15T08:22:17Z</time>
      </trkpt>
      <trkpt lat="45.40027" lon="5.66448">
        <ele>468.5</ele>
        <time>2022-04-15T08:22:18Z</time>
      </trkpt>
      <trkpt lat="45.4003" lon="5.6645">
        <ele>468.6</ele>
        <time>2022-04-15T08:22:19Z</time>
      </trkpt>
      <trkpt lat="45.40034" lon="5.66452">
        <ele>468.7</ele>
        <time>2022-04-15T08:22:21Z</time>
      </trkpt>
      <trkpt lat="45.40037" lon="5.66455">
        <ele>468.7</ele>
        <time>2022-04-15T08:22:22Z</time>
      </trkpt>
      <trkpt lat="45.40042" lon="5.66458">
        <ele>468.8</ele>
        <time>2022-04-15T08:22:23Z</time>
      </trkpt>
      <trkpt lat="45.40046" lon="5.66461">
        <ele>468.9</ele>
        <time>2022-04-15T08:22:24Z</time>
      </trkpt>
      <trkpt lat="45.4005" lon="5.66464">
        <ele>469</ele>
        <time>2022-04-15T08:22:25Z</time>
      </trkpt>
      <trkpt lat="45.40054" lon="5.66468">
        <ele>469.1</ele>
        <time>2022-04-15T08:22:26Z</time>
      </trkpt>
      <trkpt lat="45.40057" lon="5.6647">
        <ele>469.1</ele>
        <time>2022-04-15T08:22:27Z</time>
      </trkpt>
      <trkpt lat="45.40061" lon="5.66474">
        <ele>469.2</ele>
        <time>2022-04-15T08:22:28Z</time>
      </trkpt>
      <trkpt lat="45.40064" lon="5.66477">
        <ele>469.3</ele>
        <time>2022-04-15T08:22:29Z</time>
      </trkpt>
      <trkpt lat="45.40067" lon="5.6648">
        <ele>469.4</ele>
        <time>2022-04-15T08:22:31Z</time>
      </trkpt>
      <trkpt lat="45.40072" lon="5.66486">
        <ele>469.5</ele>
        <time>2022-04-15T08:22:33Z</time>
      </trkpt>
      <trkpt lat="45.40075" lon="5.66489">
        <ele>469.6</ele>
        <time>2022-04-15T08:22:34Z</time>
      </trkpt>
      <trkpt lat="45.4008" lon="5.66494">
        <ele>469.6</ele>
        <time>2022-04-15T08:22:35Z</time>
      </trkpt>
      <trkpt lat="45.40084" lon="5.66498">
        <ele>469.7</ele>
        <time>2022-04-15T08:22:37Z</time>
      </trkpt>
      <trkpt lat="45.40086" lon="5.66501">
        <ele>469.8</ele>
        <time>2022-04-15T08:22:38Z</time>
      </trkpt>
      <trkpt lat="45.40092" lon="5.66508">
        <ele>469.9</ele>
        <time>2022-04-15T08:22:40Z</time>
      </trkpt>
      <trkpt lat="45.40095" lon="5.66512">
        <ele>470</ele>
        <time>2022-04-15T08:22:41Z</time>
      </trkpt>
      <trkpt lat="45.401" lon="5.66518">
        <ele>470.1</ele>
        <time>2022-04-15T08:22:43Z</time>
      </trkpt>
      <trkpt lat="45.40102" lon="5.66521">
        <ele>470.2</ele>
        <time>2022-04-15T08:22:44Z</time>
      </trkpt>
      <trkpt lat="45.40105" lon="5.66524">
        <ele>470.3</ele>
        <time>2022-04-15T08:22:45Z</time>
      </trkpt>
      <trkpt lat="45.4011" lon="5.66529">
        <ele>470.4</ele>
        <time>2022-04-15T08:22:46Z</time>
      </trkpt>
      <trkpt lat="45.40113" lon="5.66532">
        <ele>470.5</ele>
        <time>2022-04-15T08:22:48Z</time>
      </trkpt>
      <trkpt lat="45.40116" lon="5.66535">
        <ele>470.6</ele>
        <time>2022-04-15T08:22:49Z</time>
      </trkpt>
      <trkpt lat="45.40119" lon="5.66538">
        <ele>470.6</ele>
        <time>2022-04-15T08:22:50Z</time>
      </trkpt>
      <trkpt lat="45.40123" lon="5.66541">
        <ele>470.7</ele>
        <time>2022-04-15T08:22:51Z</time>
      </trkpt>
      <trkpt lat="45.4013" lon="5.66547">
        <ele>470.9</ele>
        <time>2022-04-15T08:22:53Z</time>
      </trkpt>
      <trkpt lat="45.40134" lon="5.6655">
        <ele>471</ele>
        <time>2022-04-15T08:22:54Z</time>
      </trkpt>
      <trkpt lat="45.40138" lon="5.66552">
        <ele>471.1</ele>
        <time>2022-04-15T08:22:55Z</time>
      </trkpt>
      <trkpt lat="45.40144" lon="5.66556">
        <ele>471.3</ele>
        <time>2022-04-15T08:22:57Z</time>
      </trkpt>
      <trkpt lat="45.40147" lon="5.66558">
        <ele>471.3</ele>
        <time>2022-04-15T08:22:58Z</time>
      </trkpt>
      <trkpt lat="45.40151" lon="5.66561">
        <ele>471.4</ele>
        <time>2022-04-15T08:23:00Z</time>
      </trkpt>
      <trkpt lat="45.40156" lon="5.66564">
        <ele>471.6</ele>
        <time>2022-04-15T08:23:01Z</time>
      </trkpt>
      <trkpt lat="45.40162" lon="5.66569">
        <ele>471.7</ele>
        <time>2022-04-15T08:23:03Z</time>
      </trkpt>
      <trkpt lat="45.40166" lon="5.66572">
        <ele>471.8</ele>
        <time>2022-04-15T08:23:05Z</time>
      </trkpt>
      <trkpt lat="45.40172" lon="5.66577">
        <ele>471.9</ele>
        <time>2022-04-15T08:23:07Z</time>
      </trkpt>
      <trkpt lat="45.40175" lon="5.66579">
        <ele>471.9</ele>
        <time>2022-04-15T08:23:08Z</time>
      </trkpt>
      <trkpt lat="45.4018" lon="5.66586">
        <ele>472.1</ele>
        <time>2022-04-15T08:23:10Z</time>
      </trkpt>
      <trkpt lat="45.40185" lon="5.66592">
        <ele>472.2</ele>
        <time>2022-04-15T08:23:12Z</time>
      </trkpt>
      <trkpt lat="45.40188" lon="5.66597">
        <ele>472.3</ele>
        <time>2022-04-15T08:23:13Z</time>
      </trkpt>
      <trkpt lat="45.40192" lon="5.66602">
        <ele>472.4</ele>
        <time>2022-04-15T08:23:15Z</time>
      </trkpt>
      <trkpt lat="45.40194" lon="5.66605">
        <ele>472.5</ele>
        <time>2022-04-15T08:23:16Z</time>
      </trkpt>
      <trkpt lat="45.40196" lon="5.66609">
        <ele>472.6</ele>
        <time>2022-04-15T08:23:17Z</time>
      </trkpt>
      <trkpt lat="45.40199" lon="5.66613">
        <ele>472.7</ele>
        <time>2022-04-15T08:23:18Z</time>
      </trkpt>
      <trkpt lat="45.40203" lon="5.66618">
        <ele>472.9</ele>
        <time>2022-04-15T08:23:20Z</time>
      </trkpt>
      <trkpt lat="45.40206" lon="5.66621">
        <ele>473</ele>
        <time>2022-04-15T08:23:21Z</time>
      </trkpt>
      <trkpt lat="45.40208" lon="5.66625">
        <ele>473.2</ele>
        <time>2022-04-15T08:23:22Z</time>
      </trkpt>
      <trkpt lat="45.40211" lon="5.66629">
        <ele>473.3</ele>
        <time>2022-04-15T08:23:23Z</time>
      </trkpt>
      <trkpt lat="45.40213" lon="5.66634">
        <ele>473.4</ele>
        <time>2022-04-15T08:23:25Z</time>
      </trkpt>
      <trkpt lat="45.40214" lon="5.66635">
        <ele>473.5</ele>
        <time>2022-04-15T08:23:26Z</time>
      </trkpt>
      <trkpt lat="45.40217" lon="5.66639">
        <ele>473.6</ele>
        <time>2022-04-15T08:23:27Z</time>
      </trkpt>
      <trkpt lat="45.40219" lon="5.66642">
        <ele>473.8</ele>
        <time>2022-04-15T08:23:28Z</time>
      </trkpt>
      <trkpt lat="45.40221" lon="5.66644">
        <ele>473.9</ele>
        <time>2022-04-15T08:23:29Z</time>
      </trkpt>
      <trkpt lat="45.40224" lon="5.66649">
        <ele>474.1</ele>
        <time>2022-04-15T08:23:31Z</time>
      </trkpt>
      <trkpt lat="45.40226" lon="5.66652">
        <ele>474.2</ele>
        <time>2022-04-15T08:23:32Z</time>
      </trkpt>
      <trkpt lat="45.40228" lon="5.66655">
        <ele>474.4</ele>
        <time>2022-04-15T08:23:33Z</time>
      </trkpt>
      <trkpt lat="45.4023" lon="5.66657">
        <ele>474.5</ele>
        <time>2022-04-15T08:23:34Z</time>
      </trkpt>
      <trkpt lat="45.40233" lon="5.66661">
        <ele>474.7</ele>
        <time>2022-04-15T08:23:35Z</time>
      </trkpt>
      <trkpt lat="45.40235" lon="5.66664">
        <ele>474.9</ele>
        <time>2022-04-15T08:23:37Z</time>
      </trkpt>
      <trkpt lat="45.40238" lon="5.66668">
        <ele>475.1</ele>
        <time>2022-04-15T08:23:39Z</time>
      </trkpt>
      <trkpt lat="45.40241" lon="5.66673">
        <ele>475.3</ele>
        <time>2022-04-15T08:23:41Z</time>
      </trkpt>
      <trkpt lat="45.40243" lon="5.66676">
        <ele>475.5</ele>
        <time>2022-04-15T08:23:42Z</time>
      </trkpt>
      <trkpt lat="45.40245" lon="5.66679">
        <ele>475.6</ele>
        <time>2022-04-15T08:23:43Z</time>
      </trkpt>
      <trkpt lat="45.40247" lon="5.66681">
        <ele>475.7</ele>
        <time>2022-04-15T08:23:44Z</time>
      </trkpt>
      <trkpt lat="45.4025" lon="5.66686">
        <ele>475.9</ele>
        <time>2022-04-15T08:23:46Z</time>
      </trkpt>
      <trkpt lat="45.40253" lon="5.66689">
        <ele>476.1</ele>
        <time>2022-04-15T08:23:47Z</time>
      </trkpt>
      <trkpt lat="45.40254" lon="5.6669">
        <ele>476.2</ele>
        <time>2022-04-15T08:23:48Z</time>
      </trkpt>
      <trkpt lat="45.40257" lon="5.66694">
        <ele>476.4</ele>
        <time>2022-04-15T08:23:50Z</time>
      </trkpt>
      <trkpt lat="45.40259" lon="5.66697">
        <ele>476.5</ele>
        <time>2022-04-15T08:23:51Z</time>
      </trkpt>
      <trkpt lat="45.40263" lon="5.667">
        <ele>476.7</ele>
        <time>2022-04-15T08:23:53Z</time>
      </trkpt>
      <trkpt lat="45.40264" lon="5.66701">
        <ele>476.8</ele>
        <time>2022-04-15T08:23:54Z</time>
      </trkpt>
      <trkpt lat="45.40266" lon="5.66704">
        <ele>476.8</ele>
        <time>2022-04-15T08:23:55Z</time>
      </trkpt>
      <trkpt lat="45.40269" lon="5.66707">
        <ele>476.9</ele>
        <time>2022-04-15T08:23:56Z</time>
      </trkpt>
      <trkpt lat="45.40272" lon="5.66709">
        <ele>476.9</ele>
        <time>2022-04-15T08:23:57Z</time>
      </trkpt>
      <trkpt lat="45.40275" lon="5.66712">
        <ele>477</ele>
        <time>2022-04-15T08:23:59Z</time>
      </trkpt>
      <trkpt lat="45.40278" lon="5.66714">
        <ele>477</ele>
        <time>2022-04-15T08:24:00Z</time>
      </trkpt>
      <trkpt lat="45.40281" lon="5.66715">
        <ele>477.1</ele>
        <time>2022-04-15T08:24:01Z</time>
      </trkpt>
      <trkpt lat="45.40285" lon="5.66717">
        <ele>477.1</ele>
        <time>2022-04-15T08:24:02Z</time>
      </trkpt>
      <trkpt lat="45.40289" lon="5.6672">
        <ele>477.1</ele>
        <time>2022-04-15T08:24:03Z</time>
      </trkpt>
      <trkpt lat="45.40295" lon="5.66722">
        <ele>477.1</ele>
        <time>2022-04-15T08:24:04Z</time>
      </trkpt>
      <trkpt lat="45.40301" lon="5.66725">
        <ele>477.2</ele>
        <time>2022-04-15T08:24:06Z</time>
      </trkpt>
      <trkpt lat="45.40306" lon="5.66727">
        <ele>477.2</ele>
        <time>2022-04-15T08:24:07Z</time>
      </trkpt>
      <trkpt lat="45.40311" lon="5.66728">
        <ele>477.2</ele>
        <time>2022-04-15T08:24:08Z</time>
      </trkpt>
      <trkpt lat="45.40315" lon="5.66729">
        <ele>477.2</ele>
        <time>2022-04-15T08:24:09Z</time>
      </trkpt>
      <trkpt lat="45.4032" lon="5.6673">
        <ele>477.2</ele>
        <time>2022-04-15T08:24:10Z</time>
      </trkpt>
      <trkpt lat="45.40325" lon="5.66732">
        <ele>477.2</ele>
        <time>2022-04-15T08:24:12Z</time>
      </trkpt>
      <trkpt lat="45.40336" lon="5.66735">
        <ele>477.2</ele>
        <time>2022-04-15T08:24:14Z</time>
      </trkpt>
      <trkpt lat="45.4034" lon="5.66737">
        <ele>477.2</ele>
        <time>2022-04-15T08:24:15Z</time>
      </trkpt>
      <trkpt lat="45.40345" lon="5.66739">
        <ele>477.2</ele>
        <time>2022-04-15T08:24:16Z</time>
      </trkpt>
      <trkpt lat="45.40349" lon="5.66742">
        <ele>477.2</ele>
        <time>2022-04-15T08:24:17Z</time>
      </trkpt>
      <trkpt lat="45.40353" lon="5.66745">
        <ele>477.3</ele>
        <time>2022-04-15T08:24:18Z</time>
      </trkpt>
      <trkpt lat="45.40357" lon="5.66749">
        <ele>477.3</ele>
        <time>2022-04-15T08:24:19Z</time>
      </trkpt>
      <trkpt lat="45.40361" lon="5.66753">
        <ele>477.3</ele>
        <time>2022-04-15T08:24:20Z</time>
      </trkpt>
      <trkpt lat="45.40364" lon="5.66757">
        <ele>477.3</ele>
        <time>2022-04-15T08:24:21Z</time>
      </trkpt>
      <trkpt lat="45.40367" lon="5.66761">
        <ele>477.3</ele>
        <time>2022-04-15T08:24:22Z</time>
      </trkpt>
      <trkpt lat="45.4037" lon="5.66765">
        <ele>477.4</ele>
        <time>2022-04-15T08:24:23Z</time>
      </trkpt>
      <trkpt lat="45.40374" lon="5.66769">
        <ele>477.4</ele>
        <time>2022-04-15T08:24:24Z</time>
      </trkpt>
      <trkpt lat="45.40378" lon="5.66772">
        <ele>477.4</ele>
        <time>2022-04-15T08:24:25Z</time>
      </trkpt>
      <trkpt lat="45.40383" lon="5.66777">
        <ele>477.4</ele>
        <time>2022-04-15T08:24:26Z</time>
      </trkpt>
      <trkpt lat="45.40386" lon="5.6678">
        <ele>477.4</ele>
        <time>2022-04-15T08:24:27Z</time>
      </trkpt>
      <trkpt lat="45.4039" lon="5.66784">
        <ele>477.4</ele>
        <time>2022-04-15T08:24:28Z</time>
      </trkpt>
      <trkpt lat="45.40395" lon="5.66791">
        <ele>477.5</ele>
        <time>2022-04-15T08:24:30Z</time>
      </trkpt>
      <trkpt lat="45.40402" lon="5.66797">
        <ele>477.5</ele>
        <time>2022-04-15T08:24:32Z</time>
      </trkpt>
      <trkpt lat="45.40406" lon="5.66801">
        <ele>477.6</ele>
        <time>2022-04-15T08:24:33Z</time>
      </trkpt>
      <trkpt lat="45.40411" lon="5.66806">
        <ele>477.6</ele>
        <time>2022-04-15T08:24:35Z</time>
      </trkpt>
      <trkpt lat="45.40415" lon="5.6681">
        <ele>477.6</ele>
        <time>2022-04-15T08:24:36Z</time>
      </trkpt>
      <trkpt lat="45.40421" lon="5.66816">
        <ele>477.6</ele>
        <time>2022-04-15T08:24:38Z</time>
      </trkpt>
      <trkpt lat="45.40425" lon="5.66821">
        <ele>477.7</ele>
        <time>2022-04-15T08:24:39Z</time>
      </trkpt>
      <trkpt lat="45.4043" lon="5.66827">
        <ele>477.7</ele>
        <time>2022-04-15T08:24:41Z</time>
      </trkpt>
      <trkpt lat="45.40436" lon="5.66832">
        <ele>477.8</ele>
        <time>2022-04-15T08:24:43Z</time>
      </trkpt>
      <trkpt lat="45.40439" lon="5.66835">
        <ele>477.8</ele>
        <time>2022-04-15T08:24:44Z</time>
      </trkpt>
      <trkpt lat="45.40443" lon="5.66839">
        <ele>477.9</ele>
        <time>2022-04-15T08:24:45Z</time>
      </trkpt>
      <trkpt lat="45.40447" lon="5.66845">
        <ele>477.9</ele>
        <time>2022-04-15T08:24:46Z</time>
      </trkpt>
      <trkpt lat="45.40451" lon="5.66848">
        <ele>478</ele>
        <time>2022-04-15T08:24:47Z</time>
      </trkpt>
      <trkpt lat="45.40455" lon="5.66852">
        <ele>478.1</ele>
        <time>2022-04-15T08:24:49Z</time>
      </trkpt>
      <trkpt lat="45.4046" lon="5.66858">
        <ele>478.1</ele>
        <time>2022-04-15T08:24:50Z</time>
      </trkpt>
      <trkpt lat="45.40464" lon="5.66863">
        <ele>478.2</ele>
        <time>2022-04-15T08:24:52Z</time>
      </trkpt>
      <trkpt lat="45.40469" lon="5.66869">
        <ele>478.3</ele>
        <time>2022-04-15T08:24:54Z</time>
      </trkpt>
      <trkpt lat="45.40475" lon="5.66874">
        <ele>478.5</ele>
        <time>2022-04-15T08:24:56Z</time>
      </trkpt>
      <trkpt lat="45.40477" lon="5.66878">
        <ele>478.6</ele>
        <time>2022-04-15T08:24:57Z</time>
      </trkpt>
      <trkpt lat="45.4048" lon="5.66881">
        <ele>478.6</ele>
        <time>2022-04-15T08:24:58Z</time>
      </trkpt>
      <trkpt lat="45.40482" lon="5.66883">
        <ele>478.7</ele>
        <time>2022-04-15T08:24:59Z</time>
      </trkpt>
      <trkpt lat="45.40486" lon="5.66885">
        <ele>478.8</ele>
        <time>2022-04-15T08:25:00Z</time>
      </trkpt>
      <trkpt lat="45.40488" lon="5.66889">
        <ele>478.9</ele>
        <time>2022-04-15T08:25:01Z</time>
      </trkpt>
      <trkpt lat="45.40491" lon="5.66892">
        <ele>479</ele>
        <time>2022-04-15T08:25:02Z</time>
      </trkpt>
      <trkpt lat="45.40496" lon="5.66896">
        <ele>479.2</ele>
        <time>2022-04-15T08:25:04Z</time>
      </trkpt>
      <trkpt lat="45.40498" lon="5.66899">
        <ele>479.3</ele>
        <time>2022-04-15T08:25:05Z</time>
      </trkpt>
      <trkpt lat="45.40501" lon="5.66902">
        <ele>479.3</ele>
        <time>2022-04-15T08:25:06Z</time>
      </trkpt>
      <trkpt lat="45.40503" lon="5.66905">
        <ele>479.4</ele>
        <time>2022-04-15T08:25:07Z</time>
      </trkpt>
      <trkpt lat="45.40508" lon="5.66909">
        <ele>479.6</ele>
        <time>2022-04-15T08:25:09Z</time>
      </trkpt>
      <trkpt lat="45.40513" lon="5.66913">
        <ele>479.7</ele>
        <time>2022-04-15T08:25:11Z</time>
      </trkpt>
      <trkpt lat="45.40516" lon="5.66916">
        <ele>479.8</ele>
        <time>2022-04-15T08:25:12Z</time>
      </trkpt>
      <trkpt lat="45.4052" lon="5.66921">
        <ele>480</ele>
        <time>2022-04-15T08:25:14Z</time>
      </trkpt>
      <trkpt lat="45.40523" lon="5.66924">
        <ele>480.1</ele>
        <time>2022-04-15T08:25:15Z</time>
      </trkpt>
      <trkpt lat="45.40527" lon="5.66928">
        <ele>480.2</ele>
        <time>2022-04-15T08:25:16Z</time>
      </trkpt>
      <trkpt lat="45.40529" lon="5.66931">
        <ele>480.3</ele>
        <time>2022-04-15T08:25:17Z</time>
      </trkpt>
      <trkpt lat="45.40531" lon="5.66933">
        <ele>480.4</ele>
        <time>2022-04-15T08:25:18Z</time>
      </trkpt>
      <trkpt lat="45.40535" lon="5.66936">
        <ele>480.5</ele>
        <time>2022-04-15T08:25:20Z</time>
      </trkpt>
      <trkpt lat="45.40538" lon="5.66939">
        <ele>480.6</ele>
        <time>2022-04-15T08:25:21Z</time>
      </trkpt>
      <trkpt lat="45.40541" lon="5.66942">
        <ele>480.7</ele>
        <time>2022-04-15T08:25:22Z</time>
      </trkpt>
      <trkpt lat="45.40546" lon="5.66948">
        <ele>480.8</ele>
        <time>2022-04-15T08:25:24Z</time>
      </trkpt>
      <trkpt lat="45.4055" lon="5.66953">
        <ele>481</ele>
        <time>2022-04-15T08:25:26Z</time>
      </trkpt>
      <trkpt lat="45.40553" lon="5.66957">
        <ele>481.1</ele>
        <time>2022-04-15T08:25:27Z</time>
      </trkpt>
      <trkpt lat="45.40557" lon="5.66962">
        <ele>481.2</ele>
        <time>2022-04-15T08:25:29Z</time>
      </trkpt>
      <trkpt lat="45.40558" lon="5.66964">
        <ele>481.3</ele>
        <time>2022-04-15T08:25:30Z</time>
      </trkpt>
      <trkpt lat="45.40559" lon="5.66966">
        <ele>481.3</ele>
        <time>2022-04-15T08:25:31Z</time>
      </trkpt>
      <trkpt lat="45.40562" lon="5.66969">
        <ele>481.5</ele>
        <time>2022-04-15T08:25:32Z</time>
      </trkpt>
      <trkpt lat="45.40567" lon="5.66974">
        <ele>481.6</ele>
        <time>2022-04-15T08:25:34Z</time>
      </trkpt>
      <trkpt lat="45.4057" lon="5.66978">
        <ele>481.8</ele>
        <time>2022-04-15T08:25:35Z</time>
      </trkpt>
      <trkpt lat="45.40573" lon="5.66983">
        <ele>481.9</ele>
        <time>2022-04-15T08:25:37Z</time>
      </trkpt>
      <trkpt lat="45.40575" lon="5.66985">
        <ele>482</ele>
        <time>2022-04-15T08:25:38Z</time>
      </trkpt>
      <trkpt lat="45.40578" lon="5.6699">
        <ele>482.2</ele>
        <time>2022-04-15T08:25:39Z</time>
      </trkpt>
      <trkpt lat="45.40582" lon="5.66994">
        <ele>482.4</ele>
        <time>2022-04-15T08:25:41Z</time>
      </trkpt>
      <trkpt lat="45.40583" lon="5.66995">
        <ele>482.5</ele>
        <time>2022-04-15T08:25:42Z</time>
      </trkpt>
      <trkpt lat="45.40585" lon="5.66997">
        <ele>482.5</ele>
        <time>2022-04-15T08:25:43Z</time>
      </trkpt>
      <trkpt lat="45.40587" lon="5.66999">
        <ele>482.6</ele>
        <time>2022-04-15T08:25:44Z</time>
      </trkpt>
      <trkpt lat="45.40591" lon="5.67002">
        <ele>482.8</ele>
        <time>2022-04-15T08:25:46Z</time>
      </trkpt>
      <trkpt lat="45.40594" lon="5.67006">
        <ele>483</ele>
        <time>2022-04-15T08:25:47Z</time>
      </trkpt>
      <trkpt lat="45.40596" lon="5.67009">
        <ele>483.1</ele>
        <time>2022-04-15T08:25:49Z</time>
      </trkpt>
      <trkpt lat="45.406" lon="5.67012">
        <ele>483.2</ele>
        <time>2022-04-15T08:25:51Z</time>
      </trkpt>
      <trkpt lat="45.40602" lon="5.67014">
        <ele>483.3</ele>
        <time>2022-04-15T08:25:52Z</time>
      </trkpt>
      <trkpt lat="45.40605" lon="5.67015">
        <ele>483.5</ele>
        <time>2022-04-15T08:25:53Z</time>
      </trkpt>
      <trkpt lat="45.40607" lon="5.67016">
        <ele>483.6</ele>
        <time>2022-04-15T08:25:54Z</time>
      </trkpt>
      <trkpt lat="45.40611" lon="5.67018">
        <ele>483.8</ele>
        <time>2022-04-15T08:25:57Z</time>
      </trkpt>
      <trkpt lat="45.40614" lon="5.67019">
        <ele>483.9</ele>
        <time>2022-04-15T08:25:58Z</time>
      </trkpt>
      <trkpt lat="45.40617" lon="5.6702">
        <ele>484.1</ele>
        <time>2022-04-15T08:25:59Z</time>
      </trkpt>
      <trkpt lat="45.4062" lon="5.67021">
        <ele>484.2</ele>
        <time>2022-04-15T08:26:01Z</time>
      </trkpt>
      <trkpt lat="45.40621" lon="5.67021">
        <ele>484.3</ele>
        <time>2022-04-15T08:26:02Z</time>
      </trkpt>
      <trkpt lat="45.40626" lon="5.67022">
        <ele>484.5</ele>
        <time>2022-04-15T08:26:04Z</time>
      </trkpt>
      <trkpt lat="45.4063" lon="5.67023">
        <ele>484.7</ele>
        <time>2022-04-15T08:26:05Z</time>
      </trkpt>
      <trkpt lat="45.40631" lon="5.67023">
        <ele>484.7</ele>
        <time>2022-04-15T08:26:06Z</time>
      </trkpt>
      <trkpt lat="45.40635" lon="5.67024">
        <ele>484.9</ele>
        <time>2022-04-15T08:26:07Z</time>
      </trkpt>
      <trkpt lat="45.40636" lon="5.67024">
        <ele>485</ele>
        <time>2022-04-15T08:26:08Z</time>
      </trkpt>
      <trkpt lat="45.4064" lon="5.67026">
        <ele>485.1</ele>
        <time>2022-04-15T08:26:10Z</time>
      </trkpt>
      <trkpt lat="45.40647" lon="5.67027">
        <ele>485.4</ele>
        <time>2022-04-15T08:26:12Z</time>
      </trkpt>
      <trkpt lat="45.40649" lon="5.67029">
        <ele>485.5</ele>
        <time>2022-04-15T08:26:14Z</time>
      </trkpt>
      <trkpt lat="45.40653" lon="5.67029">
        <ele>485.7</ele>
        <time>2022-04-15T08:26:15Z</time>
      </trkpt>
      <trkpt lat="45.40655" lon="5.67029">
        <ele>485.8</ele>
        <time>2022-04-15T08:26:16Z</time>
      </trkpt>
      <trkpt lat="45.40657" lon="5.6703">
        <ele>485.9</ele>
        <time>2022-04-15T08:26:17Z</time>
      </trkpt>
      <trkpt lat="45.40661" lon="5.6703">
        <ele>486.1</ele>
        <time>2022-04-15T08:26:19Z</time>
      </trkpt>
      <trkpt lat="45.40664" lon="5.67031">
        <ele>486.3</ele>
        <time>2022-04-15T08:26:20Z</time>
      </trkpt>
      <trkpt lat="45.40666" lon="5.67032">
        <ele>486.3</ele>
        <time>2022-04-15T08:26:21Z</time>
      </trkpt>
      <trkpt lat="45.40669" lon="5.67032">
        <ele>486.5</ele>
        <time>2022-04-15T08:26:22Z</time>
      </trkpt>
      <trkpt lat="45.40672" lon="5.67033">
        <ele>486.6</ele>
        <time>2022-04-15T08:26:24Z</time>
      </trkpt>
      <trkpt lat="45.40675" lon="5.67034">
        <ele>486.8</ele>
        <time>2022-04-15T08:26:25Z</time>
      </trkpt>
      <trkpt lat="45.40678" lon="5.67034">
        <ele>486.9</ele>
        <time>2022-04-15T08:26:26Z</time>
      </trkpt>
      <trkpt lat="45.40681" lon="5.67035">
        <ele>487</ele>
        <time>2022-04-15T08:26:28Z</time>
      </trkpt>
      <trkpt lat="45.40684" lon="5.67036">
        <ele>487.2</ele>
        <time>2022-04-15T08:26:29Z</time>
      </trkpt>
      <trkpt lat="45.40685" lon="5.67037">
        <ele>487.3</ele>
        <time>2022-04-15T08:26:30Z</time>
      </trkpt>
      <trkpt lat="45.40689" lon="5.67038">
        <ele>487.4</ele>
        <time>2022-04-15T08:26:31Z</time>
      </trkpt>
      <trkpt lat="45.4069" lon="5.67038">
        <ele>487.5</ele>
        <time>2022-04-15T08:26:32Z</time>
      </trkpt>
      <trkpt lat="45.40694" lon="5.67039">
        <ele>487.7</ele>
        <time>2022-04-15T08:26:33Z</time>
      </trkpt>
      <trkpt lat="45.40695" lon="5.6704">
        <ele>487.7</ele>
        <time>2022-04-15T08:26:34Z</time>
      </trkpt>
      <trkpt lat="45.40698" lon="5.67041">
        <ele>487.9</ele>
        <time>2022-04-15T08:26:35Z</time>
      </trkpt>
      <trkpt lat="45.40699" lon="5.67041">
        <ele>487.9</ele>
        <time>2022-04-15T08:26:36Z</time>
      </trkpt>
      <trkpt lat="45.40705" lon="5.67042">
        <ele>488.2</ele>
        <time>2022-04-15T08:26:38Z</time>
      </trkpt>
      <trkpt lat="45.40707" lon="5.67043">
        <ele>488.3</ele>
        <time>2022-04-15T08:26:39Z</time>
      </trkpt>
      <trkpt lat="45.4071" lon="5.67044">
        <ele>488.4</ele>
        <time>2022-04-15T08:26:41Z</time>
      </trkpt>
      <trkpt lat="45.40712" lon="5.67045">
        <ele>488.5</ele>
        <time>2022-04-15T08:26:42Z</time>
      </trkpt>
      <trkpt lat="45.40716" lon="5.67046">
        <ele>488.7</ele>
        <time>2022-04-15T08:26:44Z</time>
      </trkpt>
      <trkpt lat="45.4072" lon="5.67047">
        <ele>488.9</ele>
        <time>2022-04-15T08:26:46Z</time>
      </trkpt>
      <trkpt lat="45.40724" lon="5.67047">
        <ele>489.1</ele>
        <time>2022-04-15T08:26:47Z</time>
      </trkpt>
      <trkpt lat="45.40725" lon="5.67047">
        <ele>489.1</ele>
        <time>2022-04-15T08:26:48Z</time>
      </trkpt>
      <trkpt lat="45.40728" lon="5.67048">
        <ele>489.3</ele>
        <time>2022-04-15T08:26:49Z</time>
      </trkpt>
      <trkpt lat="45.40733" lon="5.67049">
        <ele>489.5</ele>
        <time>2022-04-15T08:26:51Z</time>
      </trkpt>
      <trkpt lat="45.40736" lon="5.6705">
        <ele>489.6</ele>
        <time>2022-04-15T08:26:52Z</time>
      </trkpt>
      <trkpt lat="45.4074" lon="5.6705">
        <ele>489.8</ele>
        <time>2022-04-15T08:26:54Z</time>
      </trkpt>
      <trkpt lat="45.40745" lon="5.67052">
        <ele>490.1</ele>
        <time>2022-04-15T08:26:55Z</time>
      </trkpt>
      <trkpt lat="45.40748" lon="5.67052">
        <ele>490.2</ele>
        <time>2022-04-15T08:26:57Z</time>
      </trkpt>
      <trkpt lat="45.40753" lon="5.67054">
        <ele>490.5</ele>
        <time>2022-04-15T08:26:59Z</time>
      </trkpt>
      <trkpt lat="45.40758" lon="5.67055">
        <ele>490.7</ele>
        <time>2022-04-15T08:27:01Z</time>
      </trkpt>
      <trkpt lat="45.40762" lon="5.67057">
        <ele>490.9</ele>
        <time>2022-04-15T08:27:02Z</time>
      </trkpt>
      <trkpt lat="45.40764" lon="5.67058">
        <ele>491</ele>
        <time>2022-04-15T08:27:03Z</time>
      </trkpt>
      <trkpt lat="45.40767" lon="5.67059">
        <ele>491.1</ele>
        <time>2022-04-15T08:27:04Z</time>
      </trkpt>
      <trkpt lat="45.40772" lon="5.6706">
        <ele>491.3</ele>
        <time>2022-04-15T08:27:06Z</time>
      </trkpt>
      <trkpt lat="45.40777" lon="5.67063">
        <ele>491.6</ele>
        <time>2022-04-15T08:27:08Z</time>
      </trkpt>
      <trkpt lat="45.4078" lon="5.67065">
        <ele>491.7</ele>
        <time>2022-04-15T08:27:09Z</time>
      </trkpt>
      <trkpt lat="45.40784" lon="5.67067">
        <ele>491.9</ele>
        <time>2022-04-15T08:27:11Z</time>
      </trkpt>
      <trkpt lat="45.40786" lon="5.67068">
        <ele>492</ele>
        <time>2022-04-15T08:27:12Z</time>
      </trkpt>
      <trkpt lat="45.4079" lon="5.67071">
        <ele>492.2</ele>
        <time>2022-04-15T08:27:14Z</time>
      </trkpt>
      <trkpt lat="45.40794" lon="5.67073">
        <ele>492.4</ele>
        <time>2022-04-15T08:27:15Z</time>
      </trkpt>
      <trkpt lat="45.40796" lon="5.67074">
        <ele>492.5</ele>
        <time>2022-04-15T08:27:16Z</time>
      </trkpt>
      <trkpt lat="45.40799" lon="5.67077">
        <ele>492.6</ele>
        <time>2022-04-15T08:27:17Z</time>
      </trkpt>
      <trkpt lat="45.408" lon="5.67078">
        <ele>492.7</ele>
        <time>2022-04-15T08:27:18Z</time>
      </trkpt>
      <trkpt lat="45.40803" lon="5.67081">
        <ele>492.9</ele>
        <time>2022-04-15T08:27:19Z</time>
      </trkpt>
      <trkpt lat="45.40805" lon="5.67083">
        <ele>493</ele>
        <time>2022-04-15T08:27:21Z</time>
      </trkpt>
      <trkpt lat="45.40808" lon="5.67087">
        <ele>493.2</ele>
        <time>2022-04-15T08:27:22Z</time>
      </trkpt>
      <trkpt lat="45.40811" lon="5.67092">
        <ele>493.4</ele>
        <time>2022-04-15T08:27:24Z</time>
      </trkpt>
      <trkpt lat="45.40814" lon="5.67096">
        <ele>493.6</ele>
        <time>2022-04-15T08:27:25Z</time>
      </trkpt>
      <trkpt lat="45.40816" lon="5.67097">
        <ele>493.7</ele>
        <time>2022-04-15T08:27:26Z</time>
      </trkpt>
      <trkpt lat="45.40819" lon="5.67101">
        <ele>493.9</ele>
        <time>2022-04-15T08:27:27Z</time>
      </trkpt>
      <trkpt lat="45.4082" lon="5.67104">
        <ele>494</ele>
        <time>2022-04-15T08:27:28Z</time>
      </trkpt>
      <trkpt lat="45.40823" lon="5.67108">
        <ele>494.2</ele>
        <time>2022-04-15T08:27:30Z</time>
      </trkpt>
      <trkpt lat="45.40826" lon="5.67111">
        <ele>494.4</ele>
        <time>2022-04-15T08:27:31Z</time>
      </trkpt>
      <trkpt lat="45.40828" lon="5.67115">
        <ele>494.6</ele>
        <time>2022-04-15T08:27:32Z</time>
      </trkpt>
      <trkpt lat="45.4083" lon="5.67118">
        <ele>494.7</ele>
        <time>2022-04-15T08:27:33Z</time>
      </trkpt>
      <trkpt lat="45.40833" lon="5.6712">
        <ele>494.9</ele>
        <time>2022-04-15T08:27:35Z</time>
      </trkpt>
      <trkpt lat="45.40836" lon="5.67124">
        <ele>495.1</ele>
        <time>2022-04-15T08:27:37Z</time>
      </trkpt>
      <trkpt lat="45.40838" lon="5.67127">
        <ele>495.2</ele>
        <time>2022-04-15T08:27:38Z</time>
      </trkpt>
      <trkpt lat="45.40839" lon="5.67129">
        <ele>495.3</ele>
        <time>2022-04-15T08:27:39Z</time>
      </trkpt>
      <trkpt lat="45.40843" lon="5.67134">
        <ele>495.6</ele>
        <time>2022-04-15T08:27:41Z</time>
      </trkpt>
      <trkpt lat="45.40845" lon="5.67138">
        <ele>495.8</ele>
        <time>2022-04-15T08:27:42Z</time>
      </trkpt>
      <trkpt lat="45.40846" lon="5.67139">
        <ele>495.8</ele>
        <time>2022-04-15T08:27:43Z</time>
      </trkpt>
      <trkpt lat="45.40848" lon="5.67143">
        <ele>496</ele>
        <time>2022-04-15T08:27:44Z</time>
      </trkpt>
      <trkpt lat="45.40849" lon="5.67144">
        <ele>496</ele>
        <time>2022-04-15T08:27:45Z</time>
      </trkpt>
      <trkpt lat="45.40852" lon="5.67147">
        <ele>496.2</ele>
        <time>2022-04-15T08:27:46Z</time>
      </trkpt>
      <trkpt lat="45.40853" lon="5.67149">
        <ele>496.2</ele>
        <time>2022-04-15T08:27:47Z</time>
      </trkpt>
      <trkpt lat="45.40857" lon="5.67153">
        <ele>496.4</ele>
        <time>2022-04-15T08:27:49Z</time>
      </trkpt>
      <trkpt lat="45.40858" lon="5.67155">
        <ele>496.5</ele>
        <time>2022-04-15T08:27:50Z</time>
      </trkpt>
      <trkpt lat="45.40862" lon="5.67159">
        <ele>496.8</ele>
        <time>2022-04-15T08:27:52Z</time>
      </trkpt>
      <trkpt lat="45.40865" lon="5.67163">
        <ele>496.9</ele>
        <time>2022-04-15T08:27:53Z</time>
      </trkpt>
      <trkpt lat="45.40866" lon="5.67164">
        <ele>497</ele>
        <time>2022-04-15T08:27:54Z</time>
      </trkpt>
      <trkpt lat="45.40869" lon="5.67169">
        <ele>497.2</ele>
        <time>2022-04-15T08:27:56Z</time>
      </trkpt>
      <trkpt lat="45.40872" lon="5.67173">
        <ele>497.3</ele>
        <time>2022-04-15T08:27:57Z</time>
      </trkpt>
      <trkpt lat="45.40873" lon="5.67174">
        <ele>497.4</ele>
        <time>2022-04-15T08:27:58Z</time>
      </trkpt>
      <trkpt lat="45.40875" lon="5.67178">
        <ele>497.6</ele>
        <time>2022-04-15T08:27:59Z</time>
      </trkpt>
      <trkpt lat="45.40876" lon="5.67179">
        <ele>497.6</ele>
        <time>2022-04-15T08:28:00Z</time>
      </trkpt>
      <trkpt lat="45.40878" lon="5.67182">
        <ele>497.7</ele>
        <time>2022-04-15T08:28:01Z</time>
      </trkpt>
      <trkpt lat="45.40881" lon="5.67186">
        <ele>497.9</ele>
        <time>2022-04-15T08:28:02Z</time>
      </trkpt>
      <trkpt lat="45.40883" lon="5.67188">
        <ele>498</ele>
        <time>2022-04-15T08:28:03Z</time>
      </trkpt>
      <trkpt lat="45.40885" lon="5.67191">
        <ele>498.1</ele>
        <time>2022-04-15T08:28:05Z</time>
      </trkpt>
      <trkpt lat="45.40888" lon="5.67195">
        <ele>498.3</ele>
        <time>2022-04-15T08:28:06Z</time>
      </trkpt>
      <trkpt lat="45.40888" lon="5.67196">
        <ele>498.3</ele>
        <time>2022-04-15T08:28:07Z</time>
      </trkpt>
      <trkpt lat="45.40891" lon="5.67199">
        <ele>498.5</ele>
        <time>2022-04-15T08:28:08Z</time>
      </trkpt>
      <trkpt lat="45.40894" lon="5.67204">
        <ele>498.7</ele>
        <time>2022-04-15T08:28:09Z</time>
      </trkpt>
      <trkpt lat="45.40895" lon="5.67207">
        <ele>498.8</ele>
        <time>2022-04-15T08:28:10Z</time>
      </trkpt>
      <trkpt lat="45.40897" lon="5.67211">
        <ele>499</ele>
        <time>2022-04-15T08:28:12Z</time>
      </trkpt>
      <trkpt lat="45.40898" lon="5.67216">
        <ele>499.2</ele>
        <time>2022-04-15T08:28:13Z</time>
      </trkpt>
      <trkpt lat="45.40899" lon="5.67218">
        <ele>499.3</ele>
        <time>2022-04-15T08:28:14Z</time>
      </trkpt>
      <trkpt lat="45.40902" lon="5.67223">
        <ele>499.5</ele>
        <time>2022-04-15T08:28:15Z</time>
      </trkpt>
      <trkpt lat="45.40903" lon="5.67225">
        <ele>499.6</ele>
        <time>2022-04-15T08:28:16Z</time>
      </trkpt>
      <trkpt lat="45.40904" lon="5.6723">
        <ele>499.7</ele>
        <time>2022-04-15T08:28:18Z</time>
      </trkpt>
      <trkpt lat="45.40906" lon="5.67234">
        <ele>499.9</ele>
        <time>2022-04-15T08:28:19Z</time>
      </trkpt>
      <trkpt lat="45.40907" lon="5.67237">
        <ele>500</ele>
        <time>2022-04-15T08:28:20Z</time>
      </trkpt>
      <trkpt lat="45.40909" lon="5.67241">
        <ele>500.2</ele>
        <time>2022-04-15T08:28:22Z</time>
      </trkpt>
      <trkpt lat="45.40911" lon="5.67245">
        <ele>500.3</ele>
        <time>2022-04-15T08:28:23Z</time>
      </trkpt>
      <trkpt lat="45.40912" lon="5.67246">
        <ele>500.4</ele>
        <time>2022-04-15T08:28:24Z</time>
      </trkpt>
      <trkpt lat="45.40915" lon="5.67252">
        <ele>500.6</ele>
        <time>2022-04-15T08:28:26Z</time>
      </trkpt>
      <trkpt lat="45.40917" lon="5.67257">
        <ele>500.8</ele>
        <time>2022-04-15T08:28:27Z</time>
      </trkpt>
      <trkpt lat="45.4092" lon="5.67262">
        <ele>501.1</ele>
        <time>2022-04-15T08:28:29Z</time>
      </trkpt>
      <trkpt lat="45.40921" lon="5.67264">
        <ele>501.2</ele>
        <time>2022-04-15T08:28:30Z</time>
      </trkpt>
      <trkpt lat="45.40922" lon="5.67266">
        <ele>501.2</ele>
        <time>2022-04-15T08:28:31Z</time>
      </trkpt>
      <trkpt lat="45.40924" lon="5.67271">
        <ele>501.4</ele>
        <time>2022-04-15T08:28:32Z</time>
      </trkpt>
      <trkpt lat="45.40927" lon="5.67277">
        <ele>501.7</ele>
        <time>2022-04-15T08:28:34Z</time>
      </trkpt>
      <trkpt lat="45.40928" lon="5.67279">
        <ele>501.8</ele>
        <time>2022-04-15T08:28:35Z</time>
      </trkpt>
      <trkpt lat="45.40929" lon="5.6728">
        <ele>501.9</ele>
        <time>2022-04-15T08:28:36Z</time>
      </trkpt>
      <trkpt lat="45.40931" lon="5.67283">
        <ele>502</ele>
        <time>2022-04-15T08:28:38Z</time>
      </trkpt>
      <trkpt lat="45.40933" lon="5.67288">
        <ele>502.2</ele>
        <time>2022-04-15T08:28:39Z</time>
      </trkpt>
      <trkpt lat="45.40936" lon="5.67291">
        <ele>502.4</ele>
        <time>2022-04-15T08:28:41Z</time>
      </trkpt>
      <trkpt lat="45.40937" lon="5.67293">
        <ele>502.4</ele>
        <time>2022-04-15T08:28:42Z</time>
      </trkpt>
      <trkpt lat="45.4094" lon="5.67295">
        <ele>502.6</ele>
        <time>2022-04-15T08:28:43Z</time>
      </trkpt>
      <trkpt lat="45.40944" lon="5.67299">
        <ele>502.9</ele>
        <time>2022-04-15T08:28:45Z</time>
      </trkpt>
      <trkpt lat="45.40946" lon="5.67301">
        <ele>503</ele>
        <time>2022-04-15T08:28:46Z</time>
      </trkpt>
      <trkpt lat="45.40947" lon="5.67302">
        <ele>503.1</ele>
        <time>2022-04-15T08:28:47Z</time>
      </trkpt>
      <trkpt lat="45.40949" lon="5.67304">
        <ele>503.2</ele>
        <time>2022-04-15T08:28:48Z</time>
      </trkpt>
      <trkpt lat="45.40951" lon="5.67305">
        <ele>503.3</ele>
        <time>2022-04-15T08:28:50Z</time>
      </trkpt>
      <trkpt lat="45.40955" lon="5.67307">
        <ele>503.5</ele>
        <time>2022-04-15T08:28:51Z</time>
      </trkpt>
      <trkpt lat="45.40957" lon="5.67308">
        <ele>503.5</ele>
        <time>2022-04-15T08:28:52Z</time>
      </trkpt>
      <trkpt lat="45.40961" lon="5.67309">
        <ele>503.8</ele>
        <time>2022-04-15T08:28:54Z</time>
      </trkpt>
      <trkpt lat="45.40963" lon="5.6731">
        <ele>503.8</ele>
        <time>2022-04-15T08:28:55Z</time>
      </trkpt>
      <trkpt lat="45.40964" lon="5.6731">
        <ele>503.9</ele>
        <time>2022-04-15T08:28:56Z</time>
      </trkpt>
      <trkpt lat="45.40968" lon="5.67312">
        <ele>504.1</ele>
        <time>2022-04-15T08:28:57Z</time>
      </trkpt>
      <trkpt lat="45.40969" lon="5.67313">
        <ele>504.1</ele>
        <time>2022-04-15T08:28:58Z</time>
      </trkpt>
      <trkpt lat="45.40974" lon="5.67315">
        <ele>504.4</ele>
        <time>2022-04-15T08:29:00Z</time>
      </trkpt>
      <trkpt lat="45.40977" lon="5.67316">
        <ele>504.6</ele>
        <time>2022-04-15T08:29:01Z</time>
      </trkpt>
      <trkpt lat="45.4098" lon="5.67317">
        <ele>504.7</ele>
        <time>2022-04-15T08:29:03Z</time>
      </trkpt>
      <trkpt lat="45.40985" lon="5.67321">
        <ele>505</ele>
        <time>2022-04-15T08:29:05Z</time>
      </trkpt>
      <trkpt lat="45.40988" lon="5.67322">
        <ele>505.2</ele>
        <time>2022-04-15T08:29:07Z</time>
      </trkpt>
      <trkpt lat="45.40992" lon="5.67324">
        <ele>505.4</ele>
        <time>2022-04-15T08:29:09Z</time>
      </trkpt>
      <trkpt lat="45.40996" lon="5.67327">
        <ele>505.7</ele>
        <time>2022-04-15T08:29:10Z</time>
      </trkpt>
      <trkpt lat="45.40997" lon="5.67328">
        <ele>505.8</ele>
        <time>2022-04-15T08:29:11Z</time>
      </trkpt>
      <trkpt lat="45.41" lon="5.6733">
        <ele>506</ele>
        <time>2022-04-15T08:29:13Z</time>
      </trkpt>
      <trkpt lat="45.41001" lon="5.67331">
        <ele>506.1</ele>
        <time>2022-04-15T08:29:14Z</time>
      </trkpt>
      <trkpt lat="45.41003" lon="5.67333">
        <ele>506.3</ele>
        <time>2022-04-15T08:29:15Z</time>
      </trkpt>
      <trkpt lat="45.41005" lon="5.67334">
        <ele>506.4</ele>
        <time>2022-04-15T08:29:16Z</time>
      </trkpt>
      <trkpt lat="45.4101" lon="5.67338">
        <ele>506.8</ele>
        <time>2022-04-15T08:29:18Z</time>
      </trkpt>
      <trkpt lat="45.41012" lon="5.67339">
        <ele>506.9</ele>
        <time>2022-04-15T08:29:19Z</time>
      </trkpt>
      <trkpt lat="45.41015" lon="5.67341">
        <ele>507.1</ele>
        <time>2022-04-15T08:29:21Z</time>
      </trkpt>
      <trkpt lat="45.41016" lon="5.67342">
        <ele>507.2</ele>
        <time>2022-04-15T08:29:22Z</time>
      </trkpt>
      <trkpt lat="45.41019" lon="5.67344">
        <ele>507.4</ele>
        <time>2022-04-15T08:29:23Z</time>
      </trkpt>
      <trkpt lat="45.4102" lon="5.67344">
        <ele>507.5</ele>
        <time>2022-04-15T08:29:24Z</time>
      </trkpt>
      <trkpt lat="45.41022" lon="5.67346">
        <ele>507.7</ele>
        <time>2022-04-15T08:29:25Z</time>
      </trkpt>
      <trkpt lat="45.41023" lon="5.67346">
        <ele>507.8</ele>
        <time>2022-04-15T08:29:26Z</time>
      </trkpt>
      <trkpt lat="45.41025" lon="5.67348">
        <ele>507.9</ele>
        <time>2022-04-15T08:29:27Z</time>
      </trkpt>
      <trkpt lat="45.41028" lon="5.67351">
        <ele>508.2</ele>
        <time>2022-04-15T08:29:29Z</time>
      </trkpt>
      <trkpt lat="45.4103" lon="5.67352">
        <ele>508.4</ele>
        <time>2022-04-15T08:29:30Z</time>
      </trkpt>
      <trkpt lat="45.41031" lon="5.67353">
        <ele>508.5</ele>
        <time>2022-04-15T08:29:31Z</time>
      </trkpt>
      <trkpt lat="45.41033" lon="5.67354">
        <ele>508.6</ele>
        <time>2022-04-15T08:29:32Z</time>
      </trkpt>
      <trkpt lat="45.41036" lon="5.67356">
        <ele>508.9</ele>
        <time>2022-04-15T08:29:34Z</time>
      </trkpt>
      <trkpt lat="45.41038" lon="5.67358">
        <ele>509.1</ele>
        <time>2022-04-15T08:29:35Z</time>
      </trkpt>
      <trkpt lat="45.41039" lon="5.67359">
        <ele>509.2</ele>
        <time>2022-04-15T08:29:36Z</time>
      </trkpt>
      <trkpt lat="45.41042" lon="5.67361">
        <ele>509.4</ele>
        <time>2022-04-15T08:29:37Z</time>
      </trkpt>
      <trkpt lat="45.41043" lon="5.67362">
        <ele>509.5</ele>
        <time>2022-04-15T08:29:38Z</time>
      </trkpt>
      <trkpt lat="45.41046" lon="5.67364">
        <ele>509.8</ele>
        <time>2022-04-15T08:29:40Z</time>
      </trkpt>
      <trkpt lat="45.41047" lon="5.67365">
        <ele>509.8</ele>
        <time>2022-04-15T08:29:41Z</time>
      </trkpt>
      <trkpt lat="45.41049" lon="5.67367">
        <ele>510</ele>
        <time>2022-04-15T08:29:42Z</time>
      </trkpt>
      <trkpt lat="45.41052" lon="5.67369">
        <ele>510.2</ele>
        <time>2022-04-15T08:29:44Z</time>
      </trkpt>
      <trkpt lat="45.41054" lon="5.6737">
        <ele>510.4</ele>
        <time>2022-04-15T08:29:45Z</time>
      </trkpt>
      <trkpt lat="45.41056" lon="5.67372">
        <ele>510.6</ele>
        <time>2022-04-15T08:29:47Z</time>
      </trkpt>
      <trkpt lat="45.41057" lon="5.67373">
        <ele>510.7</ele>
        <time>2022-04-15T08:29:48Z</time>
      </trkpt>
      <trkpt lat="45.41059" lon="5.67374">
        <ele>510.8</ele>
        <time>2022-04-15T08:29:49Z</time>
      </trkpt>
      <trkpt lat="45.41063" lon="5.67377">
        <ele>511.1</ele>
        <time>2022-04-15T08:29:51Z</time>
      </trkpt>
      <trkpt lat="45.41066" lon="5.67379">
        <ele>511.3</ele>
        <time>2022-04-15T08:29:52Z</time>
      </trkpt>
      <trkpt lat="45.41069" lon="5.67381">
        <ele>511.6</ele>
        <time>2022-04-15T08:29:54Z</time>
      </trkpt>
      <trkpt lat="45.4107" lon="5.67381">
        <ele>511.7</ele>
        <time>2022-04-15T08:29:55Z</time>
      </trkpt>
      <trkpt lat="45.41073" lon="5.67384">
        <ele>511.9</ele>
        <time>2022-04-15T08:29:56Z</time>
      </trkpt>
      <trkpt lat="45.41075" lon="5.67385">
        <ele>512</ele>
        <time>2022-04-15T08:29:58Z</time>
      </trkpt>
      <trkpt lat="45.4108" lon="5.67387">
        <ele>512.3</ele>
        <time>2022-04-15T08:30:00Z</time>
      </trkpt>
      <trkpt lat="45.41083" lon="5.6739">
        <ele>512.5</ele>
        <time>2022-04-15T08:30:02Z</time>
      </trkpt>
      <trkpt lat="45.41085" lon="5.67392">
        <ele>512.6</ele>
        <time>2022-04-15T08:30:03Z</time>
      </trkpt>
      <trkpt lat="45.41089" lon="5.67394">
        <ele>512.9</ele>
        <time>2022-04-15T08:30:05Z</time>
      </trkpt>
      <trkpt lat="45.41091" lon="5.67396">
        <ele>513</ele>
        <time>2022-04-15T08:30:06Z</time>
      </trkpt>
      <trkpt lat="45.41092" lon="5.67396">
        <ele>513.1</ele>
        <time>2022-04-15T08:30:07Z</time>
      </trkpt>
      <trkpt lat="45.41095" lon="5.67399">
        <ele>513.3</ele>
        <time>2022-04-15T08:30:08Z</time>
      </trkpt>
      <trkpt lat="45.41096" lon="5.67399">
        <ele>513.3</ele>
        <time>2022-04-15T08:30:09Z</time>
      </trkpt>
      <trkpt lat="45.41099" lon="5.67401">
        <ele>513.5</ele>
        <time>2022-04-15T08:30:10Z</time>
      </trkpt>
      <trkpt lat="45.41101" lon="5.67403">
        <ele>513.7</ele>
        <time>2022-04-15T08:30:11Z</time>
      </trkpt>
      <trkpt lat="45.41103" lon="5.67404">
        <ele>513.7</ele>
        <time>2022-04-15T08:30:12Z</time>
      </trkpt>
      <trkpt lat="45.41106" lon="5.67405">
        <ele>514</ele>
        <time>2022-04-15T08:30:14Z</time>
      </trkpt>
      <trkpt lat="45.41107" lon="5.67406">
        <ele>514</ele>
        <time>2022-04-15T08:30:15Z</time>
      </trkpt>
      <trkpt lat="45.41111" lon="5.67408">
        <ele>514.2</ele>
        <time>2022-04-15T08:30:16Z</time>
      </trkpt>
      <trkpt lat="45.41114" lon="5.67411">
        <ele>514.5</ele>
        <time>2022-04-15T08:30:18Z</time>
      </trkpt>
      <trkpt lat="45.41115" lon="5.67412">
        <ele>514.5</ele>
        <time>2022-04-15T08:30:19Z</time>
      </trkpt>
      <trkpt lat="45.41119" lon="5.67414">
        <ele>514.8</ele>
        <time>2022-04-15T08:30:20Z</time>
      </trkpt>
      <trkpt lat="45.4112" lon="5.67415">
        <ele>514.9</ele>
        <time>2022-04-15T08:30:21Z</time>
      </trkpt>
      <trkpt lat="45.41124" lon="5.67417">
        <ele>515.1</ele>
        <time>2022-04-15T08:30:23Z</time>
      </trkpt>
      <trkpt lat="45.41125" lon="5.67418">
        <ele>515.1</ele>
        <time>2022-04-15T08:30:24Z</time>
      </trkpt>
      <trkpt lat="45.41128" lon="5.67421">
        <ele>515.4</ele>
        <time>2022-04-15T08:30:26Z</time>
      </trkpt>
      <trkpt lat="45.41132" lon="5.67423">
        <ele>515.6</ele>
        <time>2022-04-15T08:30:28Z</time>
      </trkpt>
      <trkpt lat="45.41135" lon="5.67424">
        <ele>515.8</ele>
        <time>2022-04-15T08:30:29Z</time>
      </trkpt>
      <trkpt lat="45.41136" lon="5.67425">
        <ele>515.9</ele>
        <time>2022-04-15T08:30:30Z</time>
      </trkpt>
      <trkpt lat="45.41139" lon="5.67426">
        <ele>516</ele>
        <time>2022-04-15T08:30:31Z</time>
      </trkpt>
      <trkpt lat="45.4114" lon="5.67427">
        <ele>516.1</ele>
        <time>2022-04-15T08:30:32Z</time>
      </trkpt>
      <trkpt lat="45.41144" lon="5.6743">
        <ele>516.3</ele>
        <time>2022-04-15T08:30:33Z</time>
      </trkpt>
      <trkpt lat="45.41145" lon="5.6743">
        <ele>516.4</ele>
        <time>2022-04-15T08:30:34Z</time>
      </trkpt>
      <trkpt lat="45.41147" lon="5.67432">
        <ele>516.5</ele>
        <time>2022-04-15T08:30:35Z</time>
      </trkpt>
      <trkpt lat="45.41149" lon="5.67434">
        <ele>516.7</ele>
        <time>2022-04-15T08:30:37Z</time>
      </trkpt>
      <trkpt lat="45.41153" lon="5.67437">
        <ele>516.9</ele>
        <time>2022-04-15T08:30:38Z</time>
      </trkpt>
      <trkpt lat="45.41154" lon="5.67438">
        <ele>517</ele>
        <time>2022-04-15T08:30:39Z</time>
      </trkpt>
      <trkpt lat="45.41156" lon="5.67439">
        <ele>517</ele>
        <time>2022-04-15T08:30:41Z</time>
      </trkpt>
      <trkpt lat="45.4116" lon="5.67441">
        <ele>517.2</ele>
        <time>2022-04-15T08:30:43Z</time>
      </trkpt>
      <trkpt lat="45.41161" lon="5.67443">
        <ele>517.3</ele>
        <time>2022-04-15T08:30:44Z</time>
      </trkpt>
      <trkpt lat="45.41166" lon="5.67446">
        <ele>517.5</ele>
        <time>2022-04-15T08:30:46Z</time>
      </trkpt>
      <trkpt lat="45.4117" lon="5.67448">
        <ele>517.6</ele>
        <time>2022-04-15T08:30:47Z</time>
      </trkpt>
      <trkpt lat="45.41173" lon="5.67449">
        <ele>517.7</ele>
        <time>2022-04-15T08:30:48Z</time>
      </trkpt>
      <trkpt lat="45.41178" lon="5.67452">
        <ele>517.9</ele>
        <time>2022-04-15T08:30:50Z</time>
      </trkpt>
      <trkpt lat="45.4118" lon="5.67454">
        <ele>517.9</ele>
        <time>2022-04-15T08:30:51Z</time>
      </trkpt>
      <trkpt lat="45.41182" lon="5.67455">
        <ele>518</ele>
        <time>2022-04-15T08:30:52Z</time>
      </trkpt>
      <trkpt lat="45.41184" lon="5.67456">
        <ele>518</ele>
        <time>2022-04-15T08:30:54Z</time>
      </trkpt>
      <trkpt lat="45.41187" lon="5.67458">
        <ele>518.1</ele>
        <time>2022-04-15T08:30:55Z</time>
      </trkpt>
      <trkpt lat="45.41191" lon="5.6746">
        <ele>518.2</ele>
        <time>2022-04-15T08:30:56Z</time>
      </trkpt>
      <trkpt lat="45.41193" lon="5.67461">
        <ele>518.3</ele>
        <time>2022-04-15T08:30:58Z</time>
      </trkpt>
      <trkpt lat="45.41198" lon="5.67464">
        <ele>518.5</ele>
        <time>2022-04-15T08:31:00Z</time>
      </trkpt>
      <trkpt lat="45.41202" lon="5.67467">
        <ele>518.6</ele>
        <time>2022-04-15T08:31:01Z</time>
      </trkpt>
      <trkpt lat="45.41205" lon="5.67469">
        <ele>518.7</ele>
        <time>2022-04-15T08:31:02Z</time>
      </trkpt>
      <trkpt lat="45.41208" lon="5.67472">
        <ele>518.8</ele>
        <time>2022-04-15T08:31:04Z</time>
      </trkpt>
      <trkpt lat="45.41213" lon="5.67474">
        <ele>518.9</ele>
        <time>2022-04-15T08:31:06Z</time>
      </trkpt>
      <trkpt lat="45.41215" lon="5.67477">
        <ele>519</ele>
        <time>2022-04-15T08:31:07Z</time>
      </trkpt>
      <trkpt lat="45.41218" lon="5.67478">
        <ele>519.1</ele>
        <time>2022-04-15T08:31:08Z</time>
      </trkpt>
      <trkpt lat="45.41223" lon="5.6748">
        <ele>519.2</ele>
        <time>2022-04-15T08:31:09Z</time>
      </trkpt>
      <trkpt lat="45.41226" lon="5.67483">
        <ele>519.4</ele>
        <time>2022-04-15T08:31:11Z</time>
      </trkpt>
      <trkpt lat="45.41228" lon="5.67484">
        <ele>519.4</ele>
        <time>2022-04-15T08:31:12Z</time>
      </trkpt>
      <trkpt lat="45.41231" lon="5.67487">
        <ele>519.5</ele>
        <time>2022-04-15T08:31:13Z</time>
      </trkpt>
      <trkpt lat="45.41233" lon="5.67488">
        <ele>519.6</ele>
        <time>2022-04-15T08:31:14Z</time>
      </trkpt>
      <trkpt lat="45.41236" lon="5.6749">
        <ele>519.7</ele>
        <time>2022-04-15T08:31:15Z</time>
      </trkpt>
      <trkpt lat="45.41241" lon="5.67493">
        <ele>519.8</ele>
        <time>2022-04-15T08:31:17Z</time>
      </trkpt>
      <trkpt lat="45.41245" lon="5.67496">
        <ele>519.9</ele>
        <time>2022-04-15T08:31:18Z</time>
      </trkpt>
      <trkpt lat="45.41247" lon="5.67497">
        <ele>520</ele>
        <time>2022-04-15T08:31:19Z</time>
      </trkpt>
      <trkpt lat="45.41253" lon="5.675">
        <ele>520.1</ele>
        <time>2022-04-15T08:31:21Z</time>
      </trkpt>
      <trkpt lat="45.41258" lon="5.67504">
        <ele>520.3</ele>
        <time>2022-04-15T08:31:23Z</time>
      </trkpt>
      <trkpt lat="45.41262" lon="5.67506">
        <ele>520.4</ele>
        <time>2022-04-15T08:31:24Z</time>
      </trkpt>
      <trkpt lat="45.41266" lon="5.67508">
        <ele>520.6</ele>
        <time>2022-04-15T08:31:26Z</time>
      </trkpt>
      <trkpt lat="45.41269" lon="5.6751">
        <ele>520.7</ele>
        <time>2022-04-15T08:31:27Z</time>
      </trkpt>
      <trkpt lat="45.41273" lon="5.67513">
        <ele>520.8</ele>
        <time>2022-04-15T08:31:29Z</time>
      </trkpt>
      <trkpt lat="45.41275" lon="5.67514">
        <ele>520.9</ele>
        <time>2022-04-15T08:31:30Z</time>
      </trkpt>
      <trkpt lat="45.41279" lon="5.67517">
        <ele>521</ele>
        <time>2022-04-15T08:31:31Z</time>
      </trkpt>
      <trkpt lat="45.41281" lon="5.67517">
        <ele>521</ele>
        <time>2022-04-15T08:31:32Z</time>
      </trkpt>
      <trkpt lat="45.41284" lon="5.67519">
        <ele>521.1</ele>
        <time>2022-04-15T08:31:33Z</time>
      </trkpt>
      <trkpt lat="45.41288" lon="5.67523">
        <ele>521.4</ele>
        <time>2022-04-15T08:31:35Z</time>
      </trkpt>
      <trkpt lat="45.41292" lon="5.67525">
        <ele>521.5</ele>
        <time>2022-04-15T08:31:36Z</time>
      </trkpt>
      <trkpt lat="45.41294" lon="5.67526">
        <ele>521.6</ele>
        <time>2022-04-15T08:31:37Z</time>
      </trkpt>
      <trkpt lat="45.41297" lon="5.67529">
        <ele>521.8</ele>
        <time>2022-04-15T08:31:38Z</time>
      </trkpt>
      <trkpt lat="45.41301" lon="5.67531">
        <ele>522</ele>
        <time>2022-04-15T08:31:40Z</time>
      </trkpt>
      <trkpt lat="45.41303" lon="5.67533">
        <ele>522.2</ele>
        <time>2022-04-15T08:31:41Z</time>
      </trkpt>
      <trkpt lat="45.41306" lon="5.67536">
        <ele>522.5</ele>
        <time>2022-04-15T08:31:42Z</time>
      </trkpt>
      <trkpt lat="45.41308" lon="5.6754">
        <ele>522.8</ele>
        <time>2022-04-15T08:31:44Z</time>
      </trkpt>
      <trkpt lat="45.41311" lon="5.67543">
        <ele>523.1</ele>
        <time>2022-04-15T08:31:45Z</time>
      </trkpt>
      <trkpt lat="45.41312" lon="5.67544">
        <ele>523.2</ele>
        <time>2022-04-15T08:31:46Z</time>
      </trkpt>
      <trkpt lat="45.41314" lon="5.67548">
        <ele>523.4</ele>
        <time>2022-04-15T08:31:47Z</time>
      </trkpt>
      <trkpt lat="45.41315" lon="5.67552">
        <ele>523.6</ele>
        <time>2022-04-15T08:31:49Z</time>
      </trkpt>
      <trkpt lat="45.41316" lon="5.67557">
        <ele>523.8</ele>
        <time>2022-04-15T08:31:51Z</time>
      </trkpt>
      <trkpt lat="45.41316" lon="5.67559">
        <ele>523.9</ele>
        <time>2022-04-15T08:31:52Z</time>
      </trkpt>
      <trkpt lat="45.41316" lon="5.6756">
        <ele>524</ele>
        <time>2022-04-15T08:31:53Z</time>
      </trkpt>
      <trkpt lat="45.41316" lon="5.67566">
        <ele>524.2</ele>
        <time>2022-04-15T08:31:54Z</time>
      </trkpt>
      <trkpt lat="45.41316" lon="5.67568">
        <ele>524.2</ele>
        <time>2022-04-15T08:31:55Z</time>
      </trkpt>
      <trkpt lat="45.41315" lon="5.67573">
        <ele>524.4</ele>
        <time>2022-04-15T08:31:57Z</time>
      </trkpt>
      <trkpt lat="45.41315" lon="5.67575">
        <ele>524.4</ele>
        <time>2022-04-15T08:31:58Z</time>
      </trkpt>
      <trkpt lat="45.41315" lon="5.67579">
        <ele>524.5</ele>
        <time>2022-04-15T08:31:59Z</time>
      </trkpt>
      <trkpt lat="45.41315" lon="5.67581">
        <ele>524.6</ele>
        <time>2022-04-15T08:32:00Z</time>
      </trkpt>
      <trkpt lat="45.41315" lon="5.67584">
        <ele>524.6</ele>
        <time>2022-04-15T08:32:02Z</time>
      </trkpt>
      <trkpt lat="45.41315" lon="5.6759">
        <ele>524.7</ele>
        <time>2022-04-15T08:32:04Z</time>
      </trkpt>
      <trkpt lat="45.41314" lon="5.67596">
        <ele>524.8</ele>
        <time>2022-04-15T08:32:06Z</time>
      </trkpt>
      <trkpt lat="45.41314" lon="5.67597">
        <ele>524.8</ele>
        <time>2022-04-15T08:32:07Z</time>
      </trkpt>
      <trkpt lat="45.41314" lon="5.67599">
        <ele>524.9</ele>
        <time>2022-04-15T08:32:08Z</time>
      </trkpt>
      <trkpt lat="45.41314" lon="5.67605">
        <ele>525</ele>
        <time>2022-04-15T08:32:09Z</time>
      </trkpt>
      <trkpt lat="45.41314" lon="5.67607">
        <ele>525</ele>
        <time>2022-04-15T08:32:10Z</time>
      </trkpt>
      <trkpt lat="45.41314" lon="5.67612">
        <ele>525.1</ele>
        <time>2022-04-15T08:32:11Z</time>
      </trkpt>
      <trkpt lat="45.41314" lon="5.67614">
        <ele>525.1</ele>
        <time>2022-04-15T08:32:13Z</time>
      </trkpt>
      <trkpt lat="45.41314" lon="5.67616">
        <ele>525.2</ele>
        <time>2022-04-15T08:32:14Z</time>
      </trkpt>
      <trkpt lat="45.41315" lon="5.67618">
        <ele>525.2</ele>
        <time>2022-04-15T08:32:15Z</time>
      </trkpt>
      <trkpt lat="45.41315" lon="5.67622">
        <ele>525.3</ele>
        <time>2022-04-15T08:32:17Z</time>
      </trkpt>
      <trkpt lat="45.41315" lon="5.67624">
        <ele>525.4</ele>
        <time>2022-04-15T08:32:18Z</time>
      </trkpt>
      <trkpt lat="45.41316" lon="5.6763">
        <ele>525.5</ele>
        <time>2022-04-15T08:32:20Z</time>
      </trkpt>
      <trkpt lat="45.41316" lon="5.67632">
        <ele>525.6</ele>
        <time>2022-04-15T08:32:21Z</time>
      </trkpt>
      <trkpt lat="45.41316" lon="5.67634">
        <ele>525.6</ele>
        <time>2022-04-15T08:32:22Z</time>
      </trkpt>
      <trkpt lat="45.41316" lon="5.6764">
        <ele>525.8</ele>
        <time>2022-04-15T08:32:23Z</time>
      </trkpt>
      <trkpt lat="45.41316" lon="5.67642">
        <ele>525.9</ele>
        <time>2022-04-15T08:32:24Z</time>
      </trkpt>
      <trkpt lat="45.41316" lon="5.67645">
        <ele>526</ele>
        <time>2022-04-15T08:32:26Z</time>
      </trkpt>
      <trkpt lat="45.41316" lon="5.67647">
        <ele>526</ele>
        <time>2022-04-15T08:32:27Z</time>
      </trkpt>
      <trkpt lat="45.41316" lon="5.6765">
        <ele>526.1</ele>
        <time>2022-04-15T08:32:28Z</time>
      </trkpt>
      <trkpt lat="45.41316" lon="5.67656">
        <ele>526.3</ele>
        <time>2022-04-15T08:32:30Z</time>
      </trkpt>
      <trkpt lat="45.41316" lon="5.6766">
        <ele>526.5</ele>
        <time>2022-04-15T08:32:31Z</time>
      </trkpt>
      <trkpt lat="45.41316" lon="5.67662">
        <ele>526.5</ele>
        <time>2022-04-15T08:32:32Z</time>
      </trkpt>
      <trkpt lat="45.41316" lon="5.67667">
        <ele>526.7</ele>
        <time>2022-04-15T08:32:33Z</time>
      </trkpt>
      <trkpt lat="45.41316" lon="5.67669">
        <ele>526.8</ele>
        <time>2022-04-15T08:32:34Z</time>
      </trkpt>
      <trkpt lat="45.41316" lon="5.67672">
        <ele>526.9</ele>
        <time>2022-04-15T08:32:36Z</time>
      </trkpt>
      <trkpt lat="45.41316" lon="5.67676">
        <ele>527.1</ele>
        <time>2022-04-15T08:32:38Z</time>
      </trkpt>
      <trkpt lat="45.41315" lon="5.67679">
        <ele>527.2</ele>
        <time>2022-04-15T08:32:39Z</time>
      </trkpt>
      <trkpt lat="45.41315" lon="5.67681">
        <ele>527.3</ele>
        <time>2022-04-15T08:32:40Z</time>
      </trkpt>
      <trkpt lat="45.41314" lon="5.67686">
        <ele>527.6</ele>
        <time>2022-04-15T08:32:41Z</time>
      </trkpt>
      <trkpt lat="45.41314" lon="5.67687">
        <ele>527.6</ele>
        <time>2022-04-15T08:32:42Z</time>
      </trkpt>
      <trkpt lat="45.41314" lon="5.6769">
        <ele>527.8</ele>
        <time>2022-04-15T08:32:43Z</time>
      </trkpt>
      <trkpt lat="45.41314" lon="5.67693">
        <ele>527.9</ele>
        <time>2022-04-15T08:32:45Z</time>
      </trkpt>
      <trkpt lat="45.41314" lon="5.67697">
        <ele>528.1</ele>
        <time>2022-04-15T08:32:46Z</time>
      </trkpt>
      <trkpt lat="45.41314" lon="5.67699">
        <ele>528.2</ele>
        <time>2022-04-15T08:32:47Z</time>
      </trkpt>
      <trkpt lat="45.41314" lon="5.67703">
        <ele>528.3</ele>
        <time>2022-04-15T08:32:48Z</time>
      </trkpt>
      <trkpt lat="45.41314" lon="5.67708">
        <ele>528.6</ele>
        <time>2022-04-15T08:32:49Z</time>
      </trkpt>
      <trkpt lat="45.41315" lon="5.67709">
        <ele>528.6</ele>
        <time>2022-04-15T08:32:50Z</time>
      </trkpt>
      <trkpt lat="45.41315" lon="5.67712">
        <ele>528.7</ele>
        <time>2022-04-15T08:32:51Z</time>
      </trkpt>
      <trkpt lat="45.41315" lon="5.67715">
        <ele>528.9</ele>
        <time>2022-04-15T08:32:53Z</time>
      </trkpt>
      <trkpt lat="45.41316" lon="5.6772">
        <ele>529.1</ele>
        <time>2022-04-15T08:32:54Z</time>
      </trkpt>
      <trkpt lat="45.41316" lon="5.67722">
        <ele>529.3</ele>
        <time>2022-04-15T08:32:55Z</time>
      </trkpt>
      <trkpt lat="45.41318" lon="5.67727">
        <ele>529.5</ele>
        <time>2022-04-15T08:32:57Z</time>
      </trkpt>
      <trkpt lat="45.41318" lon="5.67729">
        <ele>529.6</ele>
        <time>2022-04-15T08:32:58Z</time>
      </trkpt>
      <trkpt lat="45.41319" lon="5.67731">
        <ele>529.8</ele>
        <time>2022-04-15T08:32:59Z</time>
      </trkpt>
      <trkpt lat="45.4132" lon="5.67734">
        <ele>529.9</ele>
        <time>2022-04-15T08:33:01Z</time>
      </trkpt>
      <trkpt lat="45.41321" lon="5.67737">
        <ele>530.1</ele>
        <time>2022-04-15T08:33:02Z</time>
      </trkpt>
      <trkpt lat="45.41322" lon="5.67743">
        <ele>530.4</ele>
        <time>2022-04-15T08:33:04Z</time>
      </trkpt>
      <trkpt lat="45.41323" lon="5.67747">
        <ele>530.6</ele>
        <time>2022-04-15T08:33:05Z</time>
      </trkpt>
      <trkpt lat="45.41323" lon="5.67749">
        <ele>530.7</ele>
        <time>2022-04-15T08:33:06Z</time>
      </trkpt>
      <trkpt lat="45.41325" lon="5.67753">
        <ele>530.9</ele>
        <time>2022-04-15T08:33:08Z</time>
      </trkpt>
      <trkpt lat="45.41326" lon="5.67759">
        <ele>531.2</ele>
        <time>2022-04-15T08:33:10Z</time>
      </trkpt>
      <trkpt lat="45.41327" lon="5.67764">
        <ele>531.5</ele>
        <time>2022-04-15T08:33:12Z</time>
      </trkpt>
      <trkpt lat="45.41328" lon="5.67769">
        <ele>531.7</ele>
        <time>2022-04-15T08:33:13Z</time>
      </trkpt>
      <trkpt lat="45.41328" lon="5.6777">
        <ele>531.8</ele>
        <time>2022-04-15T08:33:14Z</time>
      </trkpt>
      <trkpt lat="45.41329" lon="5.67776">
        <ele>532.1</ele>
        <time>2022-04-15T08:33:16Z</time>
      </trkpt>
      <trkpt lat="45.4133" lon="5.67783">
        <ele>532.5</ele>
        <time>2022-04-15T08:33:18Z</time>
      </trkpt>
      <trkpt lat="45.4133" lon="5.67785">
        <ele>532.6</ele>
        <time>2022-04-15T08:33:19Z</time>
      </trkpt>
      <trkpt lat="45.41331" lon="5.67787">
        <ele>532.7</ele>
        <time>2022-04-15T08:33:20Z</time>
      </trkpt>
      <trkpt lat="45.41331" lon="5.67792">
        <ele>533</ele>
        <time>2022-04-15T08:33:22Z</time>
      </trkpt>
      <trkpt lat="45.41333" lon="5.67796">
        <ele>533.2</ele>
        <time>2022-04-15T08:33:23Z</time>
      </trkpt>
      <trkpt lat="45.41334" lon="5.67798">
        <ele>533.4</ele>
        <time>2022-04-15T08:33:25Z</time>
      </trkpt>
      <trkpt lat="45.41335" lon="5.678">
        <ele>533.5</ele>
        <time>2022-04-15T08:33:26Z</time>
      </trkpt>
      <trkpt lat="45.41336" lon="5.67805">
        <ele>533.8</ele>
        <time>2022-04-15T08:33:28Z</time>
      </trkpt>
      <trkpt lat="45.41338" lon="5.67811">
        <ele>534.2</ele>
        <time>2022-04-15T08:33:30Z</time>
      </trkpt>
      <trkpt lat="45.41339" lon="5.67816">
        <ele>534.5</ele>
        <time>2022-04-15T08:33:31Z</time>
      </trkpt>
      <trkpt lat="45.4134" lon="5.67821">
        <ele>534.7</ele>
        <time>2022-04-15T08:33:33Z</time>
      </trkpt>
      <trkpt lat="45.4134" lon="5.67823">
        <ele>534.8</ele>
        <time>2022-04-15T08:33:34Z</time>
      </trkpt>
      <trkpt lat="45.41341" lon="5.67827">
        <ele>535</ele>
        <time>2022-04-15T08:33:35Z</time>
      </trkpt>
      <trkpt lat="45.41341" lon="5.67833">
        <ele>535.4</ele>
        <time>2022-04-15T08:33:37Z</time>
      </trkpt>
      <trkpt lat="45.41342" lon="5.67835">
        <ele>535.5</ele>
        <time>2022-04-15T08:33:38Z</time>
      </trkpt>
      <trkpt lat="45.41342" lon="5.67837">
        <ele>535.6</ele>
        <time>2022-04-15T08:33:39Z</time>
      </trkpt>
      <trkpt lat="45.41342" lon="5.67842">
        <ele>535.9</ele>
        <time>2022-04-15T08:33:41Z</time>
      </trkpt>
      <trkpt lat="45.41342" lon="5.67845">
        <ele>536</ele>
        <time>2022-04-15T08:33:42Z</time>
      </trkpt>
      <trkpt lat="45.41343" lon="5.67851">
        <ele>536.3</ele>
        <time>2022-04-15T08:33:44Z</time>
      </trkpt>
      <trkpt lat="45.41343" lon="5.67857">
        <ele>536.7</ele>
        <time>2022-04-15T08:33:46Z</time>
      </trkpt>
      <trkpt lat="45.41343" lon="5.67859">
        <ele>536.8</ele>
        <time>2022-04-15T08:33:47Z</time>
      </trkpt>
      <trkpt lat="45.41343" lon="5.67861">
        <ele>536.9</ele>
        <time>2022-04-15T08:33:48Z</time>
      </trkpt>
      <trkpt lat="45.41342" lon="5.67864">
        <ele>537</ele>
        <time>2022-04-15T08:33:49Z</time>
      </trkpt>
      <trkpt lat="45.41341" lon="5.67869">
        <ele>537.3</ele>
        <time>2022-04-15T08:33:51Z</time>
      </trkpt>
      <trkpt lat="45.4134" lon="5.67872">
        <ele>537.5</ele>
        <time>2022-04-15T08:33:53Z</time>
      </trkpt>
      <trkpt lat="45.4134" lon="5.67875">
        <ele>537.6</ele>
        <time>2022-04-15T08:33:54Z</time>
      </trkpt>
      <trkpt lat="45.41339" lon="5.67877">
        <ele>537.8</ele>
        <time>2022-04-15T08:33:55Z</time>
      </trkpt>
      <trkpt lat="45.41339" lon="5.6788">
        <ele>537.9</ele>
        <time>2022-04-15T08:33:56Z</time>
      </trkpt>
      <trkpt lat="45.41339" lon="5.67886">
        <ele>538.3</ele>
        <time>2022-04-15T08:33:58Z</time>
      </trkpt>
      <trkpt lat="45.41339" lon="5.6789">
        <ele>538.5</ele>
        <time>2022-04-15T08:33:59Z</time>
      </trkpt>
      <trkpt lat="45.41339" lon="5.67895">
        <ele>538.8</ele>
        <time>2022-04-15T08:34:01Z</time>
      </trkpt>
      <trkpt lat="45.41339" lon="5.67897">
        <ele>538.9</ele>
        <time>2022-04-15T08:34:02Z</time>
      </trkpt>
      <trkpt lat="45.41339" lon="5.67901">
        <ele>539.1</ele>
        <time>2022-04-15T08:34:04Z</time>
      </trkpt>
      <trkpt lat="45.41339" lon="5.67906">
        <ele>539.4</ele>
        <time>2022-04-15T08:34:06Z</time>
      </trkpt>
      <trkpt lat="45.41339" lon="5.67911">
        <ele>539.7</ele>
        <time>2022-04-15T08:34:07Z</time>
      </trkpt>
      <trkpt lat="45.41339" lon="5.67913">
        <ele>539.8</ele>
        <time>2022-04-15T08:34:08Z</time>
      </trkpt>
      <trkpt lat="45.41339" lon="5.67917">
        <ele>540</ele>
        <time>2022-04-15T08:34:10Z</time>
      </trkpt>
      <trkpt lat="45.41339" lon="5.67919">
        <ele>540.2</ele>
        <time>2022-04-15T08:34:11Z</time>
      </trkpt>
      <trkpt lat="45.4134" lon="5.67922">
        <ele>540.3</ele>
        <time>2022-04-15T08:34:12Z</time>
      </trkpt>
      <trkpt lat="45.4134" lon="5.67926">
        <ele>540.6</ele>
        <time>2022-04-15T08:34:13Z</time>
      </trkpt>
      <trkpt lat="45.4134" lon="5.67927">
        <ele>540.6</ele>
        <time>2022-04-15T08:34:14Z</time>
      </trkpt>
      <trkpt lat="45.41341" lon="5.67931">
        <ele>540.9</ele>
        <time>2022-04-15T08:34:16Z</time>
      </trkpt>
      <trkpt lat="45.41342" lon="5.67934">
        <ele>541</ele>
        <time>2022-04-15T08:34:17Z</time>
      </trkpt>
      <trkpt lat="45.41343" lon="5.67939">
        <ele>541.3</ele>
        <time>2022-04-15T08:34:19Z</time>
      </trkpt>
      <trkpt lat="45.41343" lon="5.67942">
        <ele>541.5</ele>
        <time>2022-04-15T08:34:20Z</time>
      </trkpt>
      <trkpt lat="45.41345" lon="5.67947">
        <ele>541.8</ele>
        <time>2022-04-15T08:34:22Z</time>
      </trkpt>
      <trkpt lat="45.41345" lon="5.6795">
        <ele>542</ele>
        <time>2022-04-15T08:34:24Z</time>
      </trkpt>
      <trkpt lat="45.41346" lon="5.67953">
        <ele>542.2</ele>
        <time>2022-04-15T08:34:25Z</time>
      </trkpt>
      <trkpt lat="45.41346" lon="5.67957">
        <ele>542.5</ele>
        <time>2022-04-15T08:34:27Z</time>
      </trkpt>
      <trkpt lat="45.41347" lon="5.67959">
        <ele>542.6</ele>
        <time>2022-04-15T08:34:28Z</time>
      </trkpt>
      <trkpt lat="45.41347" lon="5.67962">
        <ele>542.8</ele>
        <time>2022-04-15T08:34:29Z</time>
      </trkpt>
      <trkpt lat="45.41348" lon="5.67967">
        <ele>543.1</ele>
        <time>2022-04-15T08:34:31Z</time>
      </trkpt>
      <trkpt lat="45.41348" lon="5.67969">
        <ele>543.2</ele>
        <time>2022-04-15T08:34:32Z</time>
      </trkpt>
      <trkpt lat="45.41349" lon="5.67971">
        <ele>543.3</ele>
        <time>2022-04-15T08:34:33Z</time>
      </trkpt>
      <trkpt lat="45.41349" lon="5.67975">
        <ele>543.6</ele>
        <time>2022-04-15T08:34:34Z</time>
      </trkpt>
      <trkpt lat="45.41348" lon="5.67978">
        <ele>543.8</ele>
        <time>2022-04-15T08:34:36Z</time>
      </trkpt>
      <trkpt lat="45.41348" lon="5.67981">
        <ele>544</ele>
        <time>2022-04-15T08:34:38Z</time>
      </trkpt>
      <trkpt lat="45.41348" lon="5.67982">
        <ele>544</ele>
        <time>2022-04-15T08:34:39Z</time>
      </trkpt>
      <trkpt lat="45.41348" lon="5.67986">
        <ele>544.3</ele>
        <time>2022-04-15T08:34:40Z</time>
      </trkpt>
      <trkpt lat="45.41348" lon="5.67987">
        <ele>544.4</ele>
        <time>2022-04-15T08:34:41Z</time>
      </trkpt>
      <trkpt lat="45.41348" lon="5.6799">
        <ele>544.6</ele>
        <time>2022-04-15T08:34:42Z</time>
      </trkpt>
      <trkpt lat="45.41348" lon="5.67993">
        <ele>544.8</ele>
        <time>2022-04-15T08:34:44Z</time>
      </trkpt>
      <trkpt lat="45.41347" lon="5.67996">
        <ele>545</ele>
        <time>2022-04-15T08:34:45Z</time>
      </trkpt>
      <trkpt lat="45.41347" lon="5.67998">
        <ele>545.1</ele>
        <time>2022-04-15T08:34:46Z</time>
      </trkpt>
      <trkpt lat="45.41348" lon="5.68">
        <ele>545.2</ele>
        <time>2022-04-15T08:34:47Z</time>
      </trkpt>
      <trkpt lat="45.41348" lon="5.68003">
        <ele>545.4</ele>
        <time>2022-04-15T08:34:49Z</time>
      </trkpt>
      <trkpt lat="45.41349" lon="5.68008">
        <ele>545.7</ele>
        <time>2022-04-15T08:34:50Z</time>
      </trkpt>
      <trkpt lat="45.41349" lon="5.6801">
        <ele>545.8</ele>
        <time>2022-04-15T08:34:51Z</time>
      </trkpt>
      <trkpt lat="45.4135" lon="5.68012">
        <ele>546</ele>
        <time>2022-04-15T08:34:52Z</time>
      </trkpt>
      <trkpt lat="45.4135" lon="5.68015">
        <ele>546.2</ele>
        <time>2022-04-15T08:34:54Z</time>
      </trkpt>
      <trkpt lat="45.4135" lon="5.68019">
        <ele>546.4</ele>
        <time>2022-04-15T08:34:55Z</time>
      </trkpt>
      <trkpt lat="45.4135" lon="5.68021">
        <ele>546.5</ele>
        <time>2022-04-15T08:34:56Z</time>
      </trkpt>
      <trkpt lat="45.4135" lon="5.68026">
        <ele>546.9</ele>
        <time>2022-04-15T08:34:57Z</time>
      </trkpt>
      <trkpt lat="45.4135" lon="5.68027">
        <ele>547</ele>
        <time>2022-04-15T08:34:58Z</time>
      </trkpt>
      <trkpt lat="45.41351" lon="5.68031">
        <ele>547.2</ele>
        <time>2022-04-15T08:34:59Z</time>
      </trkpt>
      <trkpt lat="45.41351" lon="5.68033">
        <ele>547.3</ele>
        <time>2022-04-15T08:35:01Z</time>
      </trkpt>
      <trkpt lat="45.41351" lon="5.68036">
        <ele>547.5</ele>
        <time>2022-04-15T08:35:02Z</time>
      </trkpt>
      <trkpt lat="45.41351" lon="5.68039">
        <ele>547.7</ele>
        <time>2022-04-15T08:35:04Z</time>
      </trkpt>
      <trkpt lat="45.41351" lon="5.68042">
        <ele>547.9</ele>
        <time>2022-04-15T08:35:05Z</time>
      </trkpt>
      <trkpt lat="45.41351" lon="5.68044">
        <ele>548.1</ele>
        <time>2022-04-15T08:35:06Z</time>
      </trkpt>
      <trkpt lat="45.41351" lon="5.68049">
        <ele>548.4</ele>
        <time>2022-04-15T08:35:07Z</time>
      </trkpt>
      <trkpt lat="45.41351" lon="5.6805">
        <ele>548.5</ele>
        <time>2022-04-15T08:35:08Z</time>
      </trkpt>
      <trkpt lat="45.4135" lon="5.68052">
        <ele>548.6</ele>
        <time>2022-04-15T08:35:10Z</time>
      </trkpt>
      <trkpt lat="45.41351" lon="5.68055">
        <ele>548.8</ele>
        <time>2022-04-15T08:35:11Z</time>
      </trkpt>
      <trkpt lat="45.41352" lon="5.6806">
        <ele>549.1</ele>
        <time>2022-04-15T08:35:13Z</time>
      </trkpt>
      <trkpt lat="45.41352" lon="5.68061">
        <ele>549.2</ele>
        <time>2022-04-15T08:35:14Z</time>
      </trkpt>
      <trkpt lat="45.41353" lon="5.68067">
        <ele>549.6</ele>
        <time>2022-04-15T08:35:16Z</time>
      </trkpt>
      <trkpt lat="45.41354" lon="5.68069">
        <ele>549.8</ele>
        <time>2022-04-15T08:35:18Z</time>
      </trkpt>
      <trkpt lat="45.41354" lon="5.68071">
        <ele>549.9</ele>
        <time>2022-04-15T08:35:19Z</time>
      </trkpt>
      <trkpt lat="45.41355" lon="5.68073">
        <ele>550</ele>
        <time>2022-04-15T08:35:20Z</time>
      </trkpt>
      <trkpt lat="45.41356" lon="5.68076">
        <ele>550.3</ele>
        <time>2022-04-15T08:35:22Z</time>
      </trkpt>
      <trkpt lat="45.41357" lon="5.68079">
        <ele>550.5</ele>
        <time>2022-04-15T08:35:23Z</time>
      </trkpt>
      <trkpt lat="45.41356" lon="5.68083">
        <ele>550.8</ele>
        <time>2022-04-15T08:35:25Z</time>
      </trkpt>
      <trkpt lat="45.41357" lon="5.68087">
        <ele>551.1</ele>
        <time>2022-04-15T08:35:27Z</time>
      </trkpt>
      <trkpt lat="45.41358" lon="5.68089">
        <ele>551.2</ele>
        <time>2022-04-15T08:35:28Z</time>
      </trkpt>
      <trkpt lat="45.41359" lon="5.68094">
        <ele>551.6</ele>
        <time>2022-04-15T08:35:30Z</time>
      </trkpt>
      <trkpt lat="45.4136" lon="5.68098">
        <ele>551.8</ele>
        <time>2022-04-15T08:35:31Z</time>
      </trkpt>
      <trkpt lat="45.4136" lon="5.68102">
        <ele>552.1</ele>
        <time>2022-04-15T08:35:33Z</time>
      </trkpt>
      <trkpt lat="45.4136" lon="5.68103">
        <ele>552.2</ele>
        <time>2022-04-15T08:35:34Z</time>
      </trkpt>
      <trkpt lat="45.41361" lon="5.68109">
        <ele>552.6</ele>
        <time>2022-04-15T08:35:36Z</time>
      </trkpt>
      <trkpt lat="45.41362" lon="5.68111">
        <ele>552.7</ele>
        <time>2022-04-15T08:35:38Z</time>
      </trkpt>
      <trkpt lat="45.41362" lon="5.68112">
        <ele>552.8</ele>
        <time>2022-04-15T08:35:39Z</time>
      </trkpt>
      <trkpt lat="45.41362" lon="5.68113">
        <ele>552.9</ele>
        <time>2022-04-15T08:35:40Z</time>
      </trkpt>
      <trkpt lat="45.41363" lon="5.68118">
        <ele>553.2</ele>
        <time>2022-04-15T08:35:42Z</time>
      </trkpt>
      <trkpt lat="45.41363" lon="5.68119">
        <ele>553.3</ele>
        <time>2022-04-15T08:35:43Z</time>
      </trkpt>
      <trkpt lat="45.41363" lon="5.68122">
        <ele>553.5</ele>
        <time>2022-04-15T08:35:44Z</time>
      </trkpt>
      <trkpt lat="45.41364" lon="5.68125">
        <ele>553.7</ele>
        <time>2022-04-15T08:35:46Z</time>
      </trkpt>
      <trkpt lat="45.41364" lon="5.68128">
        <ele>553.9</ele>
        <time>2022-04-15T08:35:47Z</time>
      </trkpt>
      <trkpt lat="45.41364" lon="5.68131">
        <ele>554.1</ele>
        <time>2022-04-15T08:35:49Z</time>
      </trkpt>
      <trkpt lat="45.41364" lon="5.68133">
        <ele>554.3</ele>
        <time>2022-04-15T08:35:50Z</time>
      </trkpt>
      <trkpt lat="45.41364" lon="5.68136">
        <ele>554.5</ele>
        <time>2022-04-15T08:35:51Z</time>
      </trkpt>
      <trkpt lat="45.41363" lon="5.68138">
        <ele>554.6</ele>
        <time>2022-04-15T08:35:52Z</time>
      </trkpt>
      <trkpt lat="45.41363" lon="5.6814">
        <ele>554.8</ele>
        <time>2022-04-15T08:35:53Z</time>
      </trkpt>
      <trkpt lat="45.41362" lon="5.68142">
        <ele>554.9</ele>
        <time>2022-04-15T08:35:54Z</time>
      </trkpt>
      <trkpt lat="45.4136" lon="5.68145">
        <ele>555.2</ele>
        <time>2022-04-15T08:35:56Z</time>
      </trkpt>
      <trkpt lat="45.4136" lon="5.68148">
        <ele>555.3</ele>
        <time>2022-04-15T08:35:57Z</time>
      </trkpt>
      <trkpt lat="45.41359" lon="5.68151">
        <ele>555.6</ele>
        <time>2022-04-15T08:35:59Z</time>
      </trkpt>
      <trkpt lat="45.41359" lon="5.68154">
        <ele>555.7</ele>
        <time>2022-04-15T08:36:00Z</time>
      </trkpt>
      <trkpt lat="45.41358" lon="5.68158">
        <ele>556</ele>
        <time>2022-04-15T08:36:02Z</time>
      </trkpt>
      <trkpt lat="45.41357" lon="5.68164">
        <ele>556.4</ele>
        <time>2022-04-15T08:36:04Z</time>
      </trkpt>
      <trkpt lat="45.41357" lon="5.68166">
        <ele>556.5</ele>
        <time>2022-04-15T08:36:05Z</time>
      </trkpt>
      <trkpt lat="45.41357" lon="5.68167">
        <ele>556.6</ele>
        <time>2022-04-15T08:36:06Z</time>
      </trkpt>
      <trkpt lat="45.41356" lon="5.68173">
        <ele>557</ele>
        <time>2022-04-15T08:36:08Z</time>
      </trkpt>
      <trkpt lat="45.41356" lon="5.68176">
        <ele>557.2</ele>
        <time>2022-04-15T08:36:09Z</time>
      </trkpt>
      <trkpt lat="45.41356" lon="5.68178">
        <ele>557.3</ele>
        <time>2022-04-15T08:36:10Z</time>
      </trkpt>
      <trkpt lat="45.41356" lon="5.68181">
        <ele>557.5</ele>
        <time>2022-04-15T08:36:12Z</time>
      </trkpt>
      <trkpt lat="45.41356" lon="5.68184">
        <ele>557.7</ele>
        <time>2022-04-15T08:36:14Z</time>
      </trkpt>
      <trkpt lat="45.41356" lon="5.68187">
        <ele>557.8</ele>
        <time>2022-04-15T08:36:15Z</time>
      </trkpt>
      <trkpt lat="45.41356" lon="5.68191">
        <ele>558.1</ele>
        <time>2022-04-15T08:36:17Z</time>
      </trkpt>
      <trkpt lat="45.41357" lon="5.68196">
        <ele>558.4</ele>
        <time>2022-04-15T08:36:18Z</time>
      </trkpt>
      <trkpt lat="45.41358" lon="5.68197">
        <ele>558.5</ele>
        <time>2022-04-15T08:36:19Z</time>
      </trkpt>
      <trkpt lat="45.41358" lon="5.682">
        <ele>558.7</ele>
        <time>2022-04-15T08:36:21Z</time>
      </trkpt>
      <trkpt lat="45.41359" lon="5.68207">
        <ele>559.1</ele>
        <time>2022-04-15T08:36:23Z</time>
      </trkpt>
      <trkpt lat="45.4136" lon="5.6821">
        <ele>559.4</ele>
        <time>2022-04-15T08:36:25Z</time>
      </trkpt>
      <trkpt lat="45.41362" lon="5.68215">
        <ele>559.7</ele>
        <time>2022-04-15T08:36:27Z</time>
      </trkpt>
      <trkpt lat="45.41363" lon="5.68219">
        <ele>559.9</ele>
        <time>2022-04-15T08:36:28Z</time>
      </trkpt>
      <trkpt lat="45.41363" lon="5.68224">
        <ele>560.2</ele>
        <time>2022-04-15T08:36:30Z</time>
      </trkpt>
      <trkpt lat="45.41364" lon="5.68226">
        <ele>560.4</ele>
        <time>2022-04-15T08:36:31Z</time>
      </trkpt>
      <trkpt lat="45.41364" lon="5.68231">
        <ele>560.7</ele>
        <time>2022-04-15T08:36:33Z</time>
      </trkpt>
      <trkpt lat="45.41365" lon="5.68232">
        <ele>560.8</ele>
        <time>2022-04-15T08:36:34Z</time>
      </trkpt>
      <trkpt lat="45.41366" lon="5.68236">
        <ele>561</ele>
        <time>2022-04-15T08:36:35Z</time>
      </trkpt>
      <trkpt lat="45.41366" lon="5.68237">
        <ele>561.1</ele>
        <time>2022-04-15T08:36:36Z</time>
      </trkpt>
      <trkpt lat="45.41366" lon="5.68241">
        <ele>561.4</ele>
        <time>2022-04-15T08:36:37Z</time>
      </trkpt>
      <trkpt lat="45.41367" lon="5.68243">
        <ele>561.6</ele>
        <time>2022-04-15T08:36:38Z</time>
      </trkpt>
      <trkpt lat="45.41368" lon="5.68246">
        <ele>561.7</ele>
        <time>2022-04-15T08:36:40Z</time>
      </trkpt>
      <trkpt lat="45.41371" lon="5.68252">
        <ele>562.2</ele>
        <time>2022-04-15T08:36:42Z</time>
      </trkpt>
      <trkpt lat="45.41372" lon="5.68254">
        <ele>562.4</ele>
        <time>2022-04-15T08:36:43Z</time>
      </trkpt>
      <trkpt lat="45.41373" lon="5.68256">
        <ele>562.6</ele>
        <time>2022-04-15T08:36:44Z</time>
      </trkpt>
      <trkpt lat="45.41374" lon="5.68259">
        <ele>562.9</ele>
        <time>2022-04-15T08:36:45Z</time>
      </trkpt>
      <trkpt lat="45.41375" lon="5.6826">
        <ele>563</ele>
        <time>2022-04-15T08:36:46Z</time>
      </trkpt>
      <trkpt lat="45.41376" lon="5.68263">
        <ele>563.2</ele>
        <time>2022-04-15T08:36:48Z</time>
      </trkpt>
      <trkpt lat="45.41377" lon="5.68266">
        <ele>563.5</ele>
        <time>2022-04-15T08:36:50Z</time>
      </trkpt>
      <trkpt lat="45.41378" lon="5.68268">
        <ele>563.7</ele>
        <time>2022-04-15T08:36:51Z</time>
      </trkpt>
      <trkpt lat="45.41379" lon="5.6827">
        <ele>563.9</ele>
        <time>2022-04-15T08:36:52Z</time>
      </trkpt>
      <trkpt lat="45.4138" lon="5.68272">
        <ele>564.1</ele>
        <time>2022-04-15T08:36:53Z</time>
      </trkpt>
      <trkpt lat="45.41382" lon="5.68276">
        <ele>564.4</ele>
        <time>2022-04-15T08:36:55Z</time>
      </trkpt>
      <trkpt lat="45.41384" lon="5.68278">
        <ele>564.8</ele>
        <time>2022-04-15T08:36:56Z</time>
      </trkpt>
      <trkpt lat="45.41385" lon="5.6828">
        <ele>564.9</ele>
        <time>2022-04-15T08:36:58Z</time>
      </trkpt>
      <trkpt lat="45.41385" lon="5.68283">
        <ele>565.1</ele>
        <time>2022-04-15T08:36:59Z</time>
      </trkpt>
      <trkpt lat="45.41388" lon="5.68286">
        <ele>565.5</ele>
        <time>2022-04-15T08:37:00Z</time>
      </trkpt>
      <trkpt lat="45.41389" lon="5.68287">
        <ele>565.7</ele>
        <time>2022-04-15T08:37:02Z</time>
      </trkpt>
      <trkpt lat="45.4139" lon="5.68288">
        <ele>565.8</ele>
        <time>2022-04-15T08:37:03Z</time>
      </trkpt>
      <trkpt lat="45.41391" lon="5.68289">
        <ele>566</ele>
        <time>2022-04-15T08:37:04Z</time>
      </trkpt>
      <trkpt lat="45.41393" lon="5.68293">
        <ele>566.3</ele>
        <time>2022-04-15T08:37:06Z</time>
      </trkpt>
      <trkpt lat="45.41393" lon="5.68294">
        <ele>566.4</ele>
        <time>2022-04-15T08:37:07Z</time>
      </trkpt>
      <trkpt lat="45.41396" lon="5.68298">
        <ele>566.8</ele>
        <time>2022-04-15T08:37:09Z</time>
      </trkpt>
      <trkpt lat="45.41397" lon="5.68299">
        <ele>567</ele>
        <time>2022-04-15T08:37:10Z</time>
      </trkpt>
      <trkpt lat="45.41399" lon="5.68302">
        <ele>567.4</ele>
        <time>2022-04-15T08:37:12Z</time>
      </trkpt>
      <trkpt lat="45.414" lon="5.68304">
        <ele>567.6</ele>
        <time>2022-04-15T08:37:13Z</time>
      </trkpt>
      <trkpt lat="45.41402" lon="5.68309">
        <ele>568.1</ele>
        <time>2022-04-15T08:37:15Z</time>
      </trkpt>
      <trkpt lat="45.41403" lon="5.68314">
        <ele>568.5</ele>
        <time>2022-04-15T08:37:17Z</time>
      </trkpt>
      <trkpt lat="45.41405" lon="5.68316">
        <ele>568.7</ele>
        <time>2022-04-15T08:37:18Z</time>
      </trkpt>
      <trkpt lat="45.41406" lon="5.68317">
        <ele>568.9</ele>
        <time>2022-04-15T08:37:19Z</time>
      </trkpt>
      <trkpt lat="45.41407" lon="5.68321">
        <ele>569.2</ele>
        <time>2022-04-15T08:37:20Z</time>
      </trkpt>
      <trkpt lat="45.41408" lon="5.68322">
        <ele>569.4</ele>
        <time>2022-04-15T08:37:21Z</time>
      </trkpt>
      <trkpt lat="45.41408" lon="5.68327">
        <ele>569.7</ele>
        <time>2022-04-15T08:37:23Z</time>
      </trkpt>
      <trkpt lat="45.41408" lon="5.68328">
        <ele>569.7</ele>
        <time>2022-04-15T08:37:24Z</time>
      </trkpt>
      <trkpt lat="45.41407" lon="5.6833">
        <ele>569.8</ele>
        <time>2022-04-15T08:37:25Z</time>
      </trkpt>
      <trkpt lat="45.41407" lon="5.68332">
        <ele>570</ele>
        <time>2022-04-15T08:37:26Z</time>
      </trkpt>
      <trkpt lat="45.41407" lon="5.68335">
        <ele>570.1</ele>
        <time>2022-04-15T08:37:27Z</time>
      </trkpt>
      <trkpt lat="45.41407" lon="5.68337">
        <ele>570.3</ele>
        <time>2022-04-15T08:37:28Z</time>
      </trkpt>
      <trkpt lat="45.41407" lon="5.68342">
        <ele>570.5</ele>
        <time>2022-04-15T08:37:29Z</time>
      </trkpt>
      <trkpt lat="45.41408" lon="5.68343">
        <ele>570.6</ele>
        <time>2022-04-15T08:37:30Z</time>
      </trkpt>
      <trkpt lat="45.41407" lon="5.68346">
        <ele>570.7</ele>
        <time>2022-04-15T08:37:32Z</time>
      </trkpt>
      <trkpt lat="45.41408" lon="5.68348">
        <ele>570.9</ele>
        <time>2022-04-15T08:37:33Z</time>
      </trkpt>
      <trkpt lat="45.41409" lon="5.68353">
        <ele>571.2</ele>
        <time>2022-04-15T08:37:35Z</time>
      </trkpt>
      <trkpt lat="45.41409" lon="5.68357">
        <ele>571.4</ele>
        <time>2022-04-15T08:37:36Z</time>
      </trkpt>
      <trkpt lat="45.41409" lon="5.68361">
        <ele>571.7</ele>
        <time>2022-04-15T08:37:38Z</time>
      </trkpt>
      <trkpt lat="45.4141" lon="5.68362">
        <ele>571.8</ele>
        <time>2022-04-15T08:37:39Z</time>
      </trkpt>
      <trkpt lat="45.41412" lon="5.68365">
        <ele>572</ele>
        <time>2022-04-15T08:37:40Z</time>
      </trkpt>
      <trkpt lat="45.41414" lon="5.68369">
        <ele>572.3</ele>
        <time>2022-04-15T08:37:42Z</time>
      </trkpt>
      <trkpt lat="45.41415" lon="5.6837">
        <ele>572.4</ele>
        <time>2022-04-15T08:37:43Z</time>
      </trkpt>
      <trkpt lat="45.41417" lon="5.6837">
        <ele>572.5</ele>
        <time>2022-04-15T08:37:45Z</time>
      </trkpt>
      <trkpt lat="45.41418" lon="5.6837">
        <ele>572.7</ele>
        <time>2022-04-15T08:37:46Z</time>
      </trkpt>
      <trkpt lat="45.4142" lon="5.6837">
        <ele>572.8</ele>
        <time>2022-04-15T08:37:48Z</time>
      </trkpt>
      <trkpt lat="45.41421" lon="5.6837">
        <ele>572.9</ele>
        <time>2022-04-15T08:37:49Z</time>
      </trkpt>
      <trkpt lat="45.41422" lon="5.6837">
        <ele>573</ele>
        <time>2022-04-15T08:37:50Z</time>
      </trkpt>
      <trkpt lat="45.41423" lon="5.68369">
        <ele>573.1</ele>
        <time>2022-04-15T08:37:52Z</time>
      </trkpt>
      <trkpt lat="45.41425" lon="5.68367">
        <ele>573.2</ele>
        <time>2022-04-15T08:37:53Z</time>
      </trkpt>
      <trkpt lat="45.41428" lon="5.68362">
        <ele>573.6</ele>
        <time>2022-04-15T08:37:55Z</time>
      </trkpt>
      <trkpt lat="45.41429" lon="5.6836">
        <ele>573.8</ele>
        <time>2022-04-15T08:37:57Z</time>
      </trkpt>
      <trkpt lat="45.4143" lon="5.68358">
        <ele>573.9</ele>
        <time>2022-04-15T08:37:58Z</time>
      </trkpt>
      <trkpt lat="45.41431" lon="5.68356">
        <ele>574.3</ele>
        <time>2022-04-15T08:37:59Z</time>
      </trkpt>
      <trkpt lat="45.41432" lon="5.68351">
        <ele>574.6</ele>
        <time>2022-04-15T08:38:01Z</time>
      </trkpt>
      <trkpt lat="45.41433" lon="5.68346">
        <ele>574.8</ele>
        <time>2022-04-15T08:38:02Z</time>
      </trkpt>
      <trkpt lat="45.41433" lon="5.68345">
        <ele>574.9</ele>
        <time>2022-04-15T08:38:03Z</time>
      </trkpt>
      <trkpt lat="45.41432" lon="5.68342">
        <ele>575.1</ele>
        <time>2022-04-15T08:38:04Z</time>
      </trkpt>
      <trkpt lat="45.41432" lon="5.68339">
        <ele>575.3</ele>
        <time>2022-04-15T08:38:06Z</time>
      </trkpt>
      <trkpt lat="45.41432" lon="5.68335">
        <ele>575.5</ele>
        <time>2022-04-15T08:38:07Z</time>
      </trkpt>
      <trkpt lat="45.41432" lon="5.68333">
        <ele>575.5</ele>
        <time>2022-04-15T08:38:08Z</time>
      </trkpt>
      <trkpt lat="45.41433" lon="5.68331">
        <ele>575.6</ele>
        <time>2022-04-15T08:38:09Z</time>
      </trkpt>
      <trkpt lat="45.41432" lon="5.68327">
        <ele>575.8</ele>
        <time>2022-04-15T08:38:11Z</time>
      </trkpt>
      <trkpt lat="45.41431" lon="5.68323">
        <ele>576.1</ele>
        <time>2022-04-15T08:38:12Z</time>
      </trkpt>
      <trkpt lat="45.41431" lon="5.68321">
        <ele>576.1</ele>
        <time>2022-04-15T08:38:13Z</time>
      </trkpt>
      <trkpt lat="45.41429" lon="5.68316">
        <ele>576.4</ele>
        <time>2022-04-15T08:38:15Z</time>
      </trkpt>
      <trkpt lat="45.41428" lon="5.68311">
        <ele>576.7</ele>
        <time>2022-04-15T08:38:17Z</time>
      </trkpt>
      <trkpt lat="45.41427" lon="5.68308">
        <ele>576.9</ele>
        <time>2022-04-15T08:38:18Z</time>
      </trkpt>
      <trkpt lat="45.41426" lon="5.68306">
        <ele>577</ele>
        <time>2022-04-15T08:38:19Z</time>
      </trkpt>
      <trkpt lat="45.41425" lon="5.68304">
        <ele>577.1</ele>
        <time>2022-04-15T08:38:20Z</time>
      </trkpt>
      <trkpt lat="45.41423" lon="5.68299">
        <ele>577.4</ele>
        <time>2022-04-15T08:38:22Z</time>
      </trkpt>
      <trkpt lat="45.41421" lon="5.68295">
        <ele>577.7</ele>
        <time>2022-04-15T08:38:23Z</time>
      </trkpt>
      <trkpt lat="45.41419" lon="5.68294">
        <ele>577.8</ele>
        <time>2022-04-15T08:38:25Z</time>
      </trkpt>
      <trkpt lat="45.41418" lon="5.68293">
        <ele>577.9</ele>
        <time>2022-04-15T08:38:26Z</time>
      </trkpt>
      <trkpt lat="45.41416" lon="5.68289">
        <ele>578.2</ele>
        <time>2022-04-15T08:38:27Z</time>
      </trkpt>
      <trkpt lat="45.41415" lon="5.68288">
        <ele>578.3</ele>
        <time>2022-04-15T08:38:28Z</time>
      </trkpt>
      <trkpt lat="45.41413" lon="5.68287">
        <ele>578.5</ele>
        <time>2022-04-15T08:38:29Z</time>
      </trkpt>
      <trkpt lat="45.4141" lon="5.68286">
        <ele>578.8</ele>
        <time>2022-04-15T08:38:31Z</time>
      </trkpt>
      <trkpt lat="45.41408" lon="5.68286">
        <ele>579</ele>
        <time>2022-04-15T08:38:32Z</time>
      </trkpt>
      <trkpt lat="45.41404" lon="5.68287">
        <ele>579.2</ele>
        <time>2022-04-15T08:38:34Z</time>
      </trkpt>
      <trkpt lat="45.41403" lon="5.68288">
        <ele>579.4</ele>
        <time>2022-04-15T08:38:35Z</time>
      </trkpt>
      <trkpt lat="45.41402" lon="5.68288">
        <ele>579.5</ele>
        <time>2022-04-15T08:38:36Z</time>
      </trkpt>
      <trkpt lat="45.41399" lon="5.68289">
        <ele>579.7</ele>
        <time>2022-04-15T08:38:37Z</time>
      </trkpt>
      <trkpt lat="45.41398" lon="5.6829">
        <ele>579.7</ele>
        <time>2022-04-15T08:38:38Z</time>
      </trkpt>
      <trkpt lat="45.41396" lon="5.68293">
        <ele>579.8</ele>
        <time>2022-04-15T08:38:39Z</time>
      </trkpt>
      <trkpt lat="45.41394" lon="5.68297">
        <ele>579.8</ele>
        <time>2022-04-15T08:38:41Z</time>
      </trkpt>
      <trkpt lat="45.41394" lon="5.68298">
        <ele>579.8</ele>
        <time>2022-04-15T08:38:42Z</time>
      </trkpt>
      <trkpt lat="45.41392" lon="5.68302">
        <ele>579.8</ele>
        <time>2022-04-15T08:38:43Z</time>
      </trkpt>
      <trkpt lat="45.41391" lon="5.68305">
        <ele>579.9</ele>
        <time>2022-04-15T08:38:45Z</time>
      </trkpt>
      <trkpt lat="45.41391" lon="5.68307">
        <ele>579.9</ele>
        <time>2022-04-15T08:38:46Z</time>
      </trkpt>
      <trkpt lat="45.41391" lon="5.68312">
        <ele>580</ele>
        <time>2022-04-15T08:38:47Z</time>
      </trkpt>
      <trkpt lat="45.41391" lon="5.68314">
        <ele>580.1</ele>
        <time>2022-04-15T08:38:48Z</time>
      </trkpt>
      <trkpt lat="45.4139" lon="5.68319">
        <ele>580.3</ele>
        <time>2022-04-15T08:38:49Z</time>
      </trkpt>
      <trkpt lat="45.41389" lon="5.68321">
        <ele>580.3</ele>
        <time>2022-04-15T08:38:50Z</time>
      </trkpt>
      <trkpt lat="45.41388" lon="5.68322">
        <ele>580.4</ele>
        <time>2022-04-15T08:38:51Z</time>
      </trkpt>
      <trkpt lat="45.41388" lon="5.68327">
        <ele>580.6</ele>
        <time>2022-04-15T08:38:52Z</time>
      </trkpt>
      <trkpt lat="45.41387" lon="5.68328">
        <ele>580.6</ele>
        <time>2022-04-15T08:38:53Z</time>
      </trkpt>
      <trkpt lat="45.41387" lon="5.68331">
        <ele>580.7</ele>
        <time>2022-04-15T08:38:55Z</time>
      </trkpt>
      <trkpt lat="45.41387" lon="5.68333">
        <ele>580.8</ele>
        <time>2022-04-15T08:38:56Z</time>
      </trkpt>
      <trkpt lat="45.41387" lon="5.68338">
        <ele>581</ele>
        <time>2022-04-15T08:38:57Z</time>
      </trkpt>
      <trkpt lat="45.41388" lon="5.6834">
        <ele>581</ele>
        <time>2022-04-15T08:38:58Z</time>
      </trkpt>
      <trkpt lat="45.41387" lon="5.68343">
        <ele>581.1</ele>
        <time>2022-04-15T08:38:59Z</time>
      </trkpt>
      <trkpt lat="45.41388" lon="5.68346">
        <ele>581.2</ele>
        <time>2022-04-15T08:39:01Z</time>
      </trkpt>
      <trkpt lat="45.41388" lon="5.6835">
        <ele>581.4</ele>
        <time>2022-04-15T08:39:02Z</time>
      </trkpt>
      <trkpt lat="45.41388" lon="5.68354">
        <ele>581.5</ele>
        <time>2022-04-15T08:39:03Z</time>
      </trkpt>
      <trkpt lat="45.41389" lon="5.68355">
        <ele>581.6</ele>
        <time>2022-04-15T08:39:04Z</time>
      </trkpt>
      <trkpt lat="45.41389" lon="5.68357">
        <ele>581.7</ele>
        <time>2022-04-15T08:39:05Z</time>
      </trkpt>
      <trkpt lat="45.41389" lon="5.68359">
        <ele>581.7</ele>
        <time>2022-04-15T08:39:07Z</time>
      </trkpt>
      <trkpt lat="45.41389" lon="5.68363">
        <ele>581.9</ele>
        <time>2022-04-15T08:39:08Z</time>
      </trkpt>
      <trkpt lat="45.41389" lon="5.6837">
        <ele>582.1</ele>
        <time>2022-04-15T08:39:10Z</time>
      </trkpt>
      <trkpt lat="45.41389" lon="5.68376">
        <ele>582.3</ele>
        <time>2022-04-15T08:39:11Z</time>
      </trkpt>
      <trkpt lat="45.41389" lon="5.68381">
        <ele>582.5</ele>
        <time>2022-04-15T08:39:12Z</time>
      </trkpt>
      <trkpt lat="45.41389" lon="5.68383">
        <ele>582.6</ele>
        <time>2022-04-15T08:39:13Z</time>
      </trkpt>
      <trkpt lat="45.41389" lon="5.68387">
        <ele>582.7</ele>
        <time>2022-04-15T08:39:15Z</time>
      </trkpt>
      <trkpt lat="45.41388" lon="5.68391">
        <ele>582.9</ele>
        <time>2022-04-15T08:39:16Z</time>
      </trkpt>
      <trkpt lat="45.41388" lon="5.68396">
        <ele>583</ele>
        <time>2022-04-15T08:39:17Z</time>
      </trkpt>
      <trkpt lat="45.41388" lon="5.68398">
        <ele>583.1</ele>
        <time>2022-04-15T08:39:18Z</time>
      </trkpt>
      <trkpt lat="45.41387" lon="5.68406">
        <ele>583.4</ele>
        <time>2022-04-15T08:39:20Z</time>
      </trkpt>
      <trkpt lat="45.41386" lon="5.68412">
        <ele>583.6</ele>
        <time>2022-04-15T08:39:21Z</time>
      </trkpt>
      <trkpt lat="45.41385" lon="5.68414">
        <ele>583.7</ele>
        <time>2022-04-15T08:39:22Z</time>
      </trkpt>
      <trkpt lat="45.41384" lon="5.68419">
        <ele>583.8</ele>
        <time>2022-04-15T08:39:23Z</time>
      </trkpt>
      <trkpt lat="45.41383" lon="5.68424">
        <ele>584</ele>
        <time>2022-04-15T08:39:24Z</time>
      </trkpt>
      <trkpt lat="45.41383" lon="5.68429">
        <ele>584.2</ele>
        <time>2022-04-15T08:39:25Z</time>
      </trkpt>
      <trkpt lat="45.41382" lon="5.68433">
        <ele>584.4</ele>
        <time>2022-04-15T08:39:26Z</time>
      </trkpt>
      <trkpt lat="45.41381" lon="5.68438">
        <ele>584.5</ele>
        <time>2022-04-15T08:39:27Z</time>
      </trkpt>
      <trkpt lat="45.4138" lon="5.68441">
        <ele>584.7</ele>
        <time>2022-04-15T08:39:29Z</time>
      </trkpt>
      <trkpt lat="45.41379" lon="5.68446">
        <ele>584.9</ele>
        <time>2022-04-15T08:39:30Z</time>
      </trkpt>
      <trkpt lat="45.41378" lon="5.68452">
        <ele>585.1</ele>
        <time>2022-04-15T08:39:31Z</time>
      </trkpt>
      <trkpt lat="45.41377" lon="5.68455">
        <ele>585.2</ele>
        <time>2022-04-15T08:39:32Z</time>
      </trkpt>
      <trkpt lat="45.41376" lon="5.68458">
        <ele>585.3</ele>
        <time>2022-04-15T08:39:34Z</time>
      </trkpt>
      <trkpt lat="45.41376" lon="5.68464">
        <ele>585.6</ele>
        <time>2022-04-15T08:39:35Z</time>
      </trkpt>
      <trkpt lat="45.41375" lon="5.68466">
        <ele>585.7</ele>
        <time>2022-04-15T08:39:36Z</time>
      </trkpt>
      <trkpt lat="45.41375" lon="5.68471">
        <ele>585.9</ele>
        <time>2022-04-15T08:39:37Z</time>
      </trkpt>
      <trkpt lat="45.41373" lon="5.68475">
        <ele>586</ele>
        <time>2022-04-15T08:39:38Z</time>
      </trkpt>
      <trkpt lat="45.41373" lon="5.68477">
        <ele>586.1</ele>
        <time>2022-04-15T08:39:39Z</time>
      </trkpt>
      <trkpt lat="45.41372" lon="5.68482">
        <ele>586.3</ele>
        <time>2022-04-15T08:39:41Z</time>
      </trkpt>
      <trkpt lat="45.41372" lon="5.68483">
        <ele>586.4</ele>
        <time>2022-04-15T08:39:42Z</time>
      </trkpt>
      <trkpt lat="45.41371" lon="5.6849">
        <ele>586.6</ele>
        <time>2022-04-15T08:39:44Z</time>
      </trkpt>
      <trkpt lat="45.4137" lon="5.68495">
        <ele>586.9</ele>
        <time>2022-04-15T08:39:46Z</time>
      </trkpt>
      <trkpt lat="45.41369" lon="5.68501">
        <ele>587.1</ele>
        <time>2022-04-15T08:39:47Z</time>
      </trkpt>
      <trkpt lat="45.41367" lon="5.68507">
        <ele>587.4</ele>
        <time>2022-04-15T08:39:49Z</time>
      </trkpt>
      <trkpt lat="45.41367" lon="5.68509">
        <ele>587.5</ele>
        <time>2022-04-15T08:39:50Z</time>
      </trkpt>
      <trkpt lat="45.41366" lon="5.68513">
        <ele>587.7</ele>
        <time>2022-04-15T08:39:51Z</time>
      </trkpt>
      <trkpt lat="45.41366" lon="5.68519">
        <ele>588</ele>
        <time>2022-04-15T08:39:53Z</time>
      </trkpt>
      <trkpt lat="45.41365" lon="5.68525">
        <ele>588.2</ele>
        <time>2022-04-15T08:39:55Z</time>
      </trkpt>
      <trkpt lat="45.41365" lon="5.6853">
        <ele>588.5</ele>
        <time>2022-04-15T08:39:56Z</time>
      </trkpt>
      <trkpt lat="45.41365" lon="5.68533">
        <ele>588.6</ele>
        <time>2022-04-15T08:39:57Z</time>
      </trkpt>
      <trkpt lat="45.41365" lon="5.68538">
        <ele>588.8</ele>
        <time>2022-04-15T08:39:59Z</time>
      </trkpt>
      <trkpt lat="45.41364" lon="5.68543">
        <ele>589</ele>
        <time>2022-04-15T08:40:00Z</time>
      </trkpt>
      <trkpt lat="45.41364" lon="5.68549">
        <ele>589.2</ele>
        <time>2022-04-15T08:40:02Z</time>
      </trkpt>
      <trkpt lat="45.41363" lon="5.68554">
        <ele>589.4</ele>
        <time>2022-04-15T08:40:03Z</time>
      </trkpt>
      <trkpt lat="45.41361" lon="5.68561">
        <ele>589.6</ele>
        <time>2022-04-15T08:40:05Z</time>
      </trkpt>
      <trkpt lat="45.4136" lon="5.68564">
        <ele>589.7</ele>
        <time>2022-04-15T08:40:06Z</time>
      </trkpt>
      <trkpt lat="45.41359" lon="5.68566">
        <ele>589.8</ele>
        <time>2022-04-15T08:40:07Z</time>
      </trkpt>
      <trkpt lat="45.41357" lon="5.6857">
        <ele>589.9</ele>
        <time>2022-04-15T08:40:09Z</time>
      </trkpt>
      <trkpt lat="45.41353" lon="5.68575">
        <ele>590.2</ele>
        <time>2022-04-15T08:40:11Z</time>
      </trkpt>
      <trkpt lat="45.41348" lon="5.68578">
        <ele>590.4</ele>
        <time>2022-04-15T08:40:13Z</time>
      </trkpt>
      <trkpt lat="45.41345" lon="5.68579">
        <ele>590.5</ele>
        <time>2022-04-15T08:40:14Z</time>
      </trkpt>
      <trkpt lat="45.41343" lon="5.68579">
        <ele>590.6</ele>
        <time>2022-04-15T08:40:15Z</time>
      </trkpt>
      <trkpt lat="45.4134" lon="5.68581">
        <ele>590.7</ele>
        <time>2022-04-15T08:40:16Z</time>
      </trkpt>
      <trkpt lat="45.41339" lon="5.68582">
        <ele>590.8</ele>
        <time>2022-04-15T08:40:17Z</time>
      </trkpt>
      <trkpt lat="45.41336" lon="5.68584">
        <ele>590.9</ele>
        <time>2022-04-15T08:40:18Z</time>
      </trkpt>
      <trkpt lat="45.41333" lon="5.68585">
        <ele>591</ele>
        <time>2022-04-15T08:40:19Z</time>
      </trkpt>
      <trkpt lat="45.41332" lon="5.68586">
        <ele>591.1</ele>
        <time>2022-04-15T08:40:20Z</time>
      </trkpt>
      <trkpt lat="45.41328" lon="5.68588">
        <ele>591.2</ele>
        <time>2022-04-15T08:40:22Z</time>
      </trkpt>
      <trkpt lat="45.41325" lon="5.68591">
        <ele>591.3</ele>
        <time>2022-04-15T08:40:23Z</time>
      </trkpt>
      <trkpt lat="45.41323" lon="5.68593">
        <ele>591.4</ele>
        <time>2022-04-15T08:40:24Z</time>
      </trkpt>
      <trkpt lat="45.41319" lon="5.68596">
        <ele>591.6</ele>
        <time>2022-04-15T08:40:26Z</time>
      </trkpt>
      <trkpt lat="45.41315" lon="5.68598">
        <ele>591.7</ele>
        <time>2022-04-15T08:40:28Z</time>
      </trkpt>
      <trkpt lat="45.41312" lon="5.686">
        <ele>591.8</ele>
        <time>2022-04-15T08:40:29Z</time>
      </trkpt>
      <trkpt lat="45.4131" lon="5.68602">
        <ele>591.9</ele>
        <time>2022-04-15T08:40:30Z</time>
      </trkpt>
      <trkpt lat="45.41306" lon="5.68604">
        <ele>592</ele>
        <time>2022-04-15T08:40:31Z</time>
      </trkpt>
      <trkpt lat="45.41303" lon="5.68608">
        <ele>592.1</ele>
        <time>2022-04-15T08:40:33Z</time>
      </trkpt>
      <trkpt lat="45.41302" lon="5.68609">
        <ele>592.1</ele>
        <time>2022-04-15T08:40:34Z</time>
      </trkpt>
      <trkpt lat="45.41299" lon="5.68613">
        <ele>592.2</ele>
        <time>2022-04-15T08:40:35Z</time>
      </trkpt>
      <trkpt lat="45.41298" lon="5.68615">
        <ele>592.3</ele>
        <time>2022-04-15T08:40:36Z</time>
      </trkpt>
      <trkpt lat="45.41295" lon="5.68618">
        <ele>592.3</ele>
        <time>2022-04-15T08:40:37Z</time>
      </trkpt>
      <trkpt lat="45.41293" lon="5.68621">
        <ele>592.4</ele>
        <time>2022-04-15T08:40:39Z</time>
      </trkpt>
      <trkpt lat="45.41291" lon="5.68625">
        <ele>592.4</ele>
        <time>2022-04-15T08:40:40Z</time>
      </trkpt>
      <trkpt lat="45.4129" lon="5.68628">
        <ele>592.5</ele>
        <time>2022-04-15T08:40:41Z</time>
      </trkpt>
      <trkpt lat="45.41288" lon="5.68632">
        <ele>592.5</ele>
        <time>2022-04-15T08:40:42Z</time>
      </trkpt>
      <trkpt lat="45.41286" lon="5.68638">
        <ele>592.6</ele>
        <time>2022-04-15T08:40:43Z</time>
      </trkpt>
      <trkpt lat="45.41284" lon="5.68644">
        <ele>592.7</ele>
        <time>2022-04-15T08:40:45Z</time>
      </trkpt>
      <trkpt lat="45.41283" lon="5.6865">
        <ele>592.7</ele>
        <time>2022-04-15T08:40:46Z</time>
      </trkpt>
      <trkpt lat="45.41281" lon="5.68653">
        <ele>592.8</ele>
        <time>2022-04-15T08:40:48Z</time>
      </trkpt>
      <trkpt lat="45.4128" lon="5.68657">
        <ele>592.8</ele>
        <time>2022-04-15T08:40:49Z</time>
      </trkpt>
      <trkpt lat="45.4128" lon="5.68659">
        <ele>592.8</ele>
        <time>2022-04-15T08:40:51Z</time>
      </trkpt>
      <trkpt lat="45.41281" lon="5.68659">
        <ele>592.8</ele>
        <time>2022-04-15T08:40:52Z</time>
      </trkpt>
      <trkpt lat="45.41281" lon="5.68659">
        <ele>592.8</ele>
        <time>2022-04-15T08:40:53Z</time>
      </trkpt>
      <trkpt lat="45.41281" lon="5.68659">
        <ele>592.8</ele>
        <time>2022-04-15T08:40:54Z</time>
      </trkpt>
      <trkpt lat="45.41281" lon="5.68659">
        <ele>592.8</ele>
        <time>2022-04-15T08:40:55Z</time>
      </trkpt>
      <trkpt lat="45.41282" lon="5.6866">
        <ele>592.8</ele>
        <time>2022-04-15T08:40:56Z</time>
      </trkpt>
      <trkpt lat="45.41282" lon="5.6866">
        <ele>592.8</ele>
        <time>2022-04-15T08:40:57Z</time>
      </trkpt>
      <trkpt lat="45.41282" lon="5.6866">
        <ele>592.8</ele>
        <time>2022-04-15T08:40:58Z</time>
      </trkpt>
      <trkpt lat="45.41282" lon="5.6866">
        <ele>592.8</ele>
        <time>2022-04-15T08:40:59Z</time>
      </trkpt>
      <trkpt lat="45.41282" lon="5.68661">
        <ele>592.8</ele>
        <time>2022-04-15T08:41:00Z</time>
      </trkpt>
      <trkpt lat="45.41282" lon="5.68661">
        <ele>592.8</ele>
        <time>2022-04-15T08:41:01Z</time>
      </trkpt>
      <trkpt lat="45.41282" lon="5.68661">
        <ele>592.8</ele>
        <time>2022-04-15T08:41:02Z</time>
      </trkpt>
      <trkpt lat="45.41282" lon="5.68661">
        <ele>592.8</ele>
        <time>2022-04-15T08:41:03Z</time>
      </trkpt>
      <trkpt lat="45.41282" lon="5.68661">
        <ele>592.8</ele>
        <time>2022-04-15T08:41:04Z</time>
      </trkpt>
      <trkpt lat="45.41282" lon="5.68661">
        <ele>592.8</ele>
        <time>2022-04-15T08:41:05Z</time>
      </trkpt>
      <trkpt lat="45.41282" lon="5.68661">
        <ele>592.8</ele>
        <time>2022-04-15T08:41:06Z</time>
      </trkpt>
      <trkpt lat="45.41282" lon="5.68661">
        <ele>592.8</ele>
        <time>2022-04-15T08:41:07Z</time>
      </trkpt>
      <trkpt lat="45.41282" lon="5.68661">
        <ele>592.8</ele>
        <time>2022-04-15T08:41:08Z</time>
      </trkpt>
      <trkpt lat="45.41282" lon="5.68661">
        <ele>592.8</ele>
        <time>2022-04-15T08:41:09Z</time>
      </trkpt>
      <trkpt lat="45.41283" lon="5.68661">
        <ele>592.8</ele>
        <time>2022-04-15T08:41:10Z</time>
      </trkpt>
      <trkpt lat="45.41283" lon="5.68661">
        <ele>592.8</ele>
        <time>2022-04-15T08:41:11Z</time>
      </trkpt>
      <trkpt lat="45.41283" lon="5.68661">
        <ele>592.8</ele>
        <time>2022-04-15T08:41:12Z</time>
      </trkpt>
      <trkpt lat="45.41283" lon="5.68661">
        <ele>592.8</ele>
        <time>2022-04-15T08:41:13Z</time>
      </trkpt>
      <trkpt lat="45.41283" lon="5.68661">
        <ele>592.8</ele>
        <time>2022-04-15T08:41:14Z</time>
      </trkpt>
      <trkpt lat="45.41283" lon="5.68661">
        <ele>592.8</ele>
        <time>2022-04-15T08:41:15Z</time>
      </trkpt>
      <trkpt lat="45.41283" lon="5.68661">
        <ele>592.8</ele>
        <time>2022-04-15T08:41:16Z</time>
      </trkpt>
      <trkpt lat="45.41283" lon="5.68661">
        <ele>592.8</ele>
        <time>2022-04-15T08:41:17Z</time>
      </trkpt>
      <trkpt lat="45.41283" lon="5.68661">
        <ele>592.8</ele>
        <time>2022-04-15T08:41:18Z</time>
      </trkpt>
      <trkpt lat="45.41282" lon="5.68662">
        <ele>592.8</ele>
        <time>2022-04-15T08:41:19Z</time>
      </trkpt>
      <trkpt lat="45.41282" lon="5.68662">
        <ele>592.8</ele>
        <time>2022-04-15T08:41:20Z</time>
      </trkpt>
      <trkpt lat="45.41282" lon="5.68662">
        <ele>592.8</ele>
        <time>2022-04-15T08:41:21Z</time>
      </trkpt>
      <trkpt lat="45.41282" lon="5.68661">
        <ele>592.8</ele>
        <time>2022-04-15T08:41:22Z</time>
      </trkpt>
      <trkpt lat="45.41283" lon="5.68661">
        <ele>592.8</ele>
        <time>2022-04-15T08:41:23Z</time>
      </trkpt>
      <trkpt lat="45.41283" lon="5.6866">
        <ele>592.8</ele>
        <time>2022-04-15T08:41:24Z</time>
      </trkpt>
      <trkpt lat="45.41282" lon="5.6866">
        <ele>592.8</ele>
        <time>2022-04-15T08:41:25Z</time>
      </trkpt>
      <trkpt lat="45.41282" lon="5.6866">
        <ele>592.8</ele>
        <time>2022-04-15T08:41:26Z</time>
      </trkpt>
      <trkpt lat="45.41282" lon="5.6866">
        <ele>592.9</ele>
        <time>2022-04-15T08:41:27Z</time>
      </trkpt>
      <trkpt lat="45.41282" lon="5.68661">
        <ele>592.9</ele>
        <time>2022-04-15T08:41:28Z</time>
      </trkpt>
      <trkpt lat="45.41282" lon="5.68662">
        <ele>592.9</ele>
        <time>2022-04-15T08:41:29Z</time>
      </trkpt>
      <trkpt lat="45.41282" lon="5.68662">
        <ele>592.9</ele>
        <time>2022-04-15T08:41:30Z</time>
      </trkpt>
      <trkpt lat="45.41282" lon="5.68663">
        <ele>592.9</ele>
        <time>2022-04-15T08:41:31Z</time>
      </trkpt>
      <trkpt lat="45.41282" lon="5.68663">
        <ele>592.9</ele>
        <time>2022-04-15T08:41:32Z</time>
      </trkpt>
      <trkpt lat="45.41283" lon="5.68663">
        <ele>592.9</ele>
        <time>2022-04-15T08:41:34Z</time>
      </trkpt>
      <trkpt lat="45.41283" lon="5.68663">
        <ele>592.9</ele>
        <time>2022-04-15T08:41:35Z</time>
      </trkpt>
      <trkpt lat="45.41283" lon="5.68663">
        <ele>592.9</ele>
        <time>2022-04-15T08:41:36Z</time>
      </trkpt>
      <trkpt lat="45.41283" lon="5.68664">
        <ele>592.9</ele>
        <time>2022-04-15T08:41:37Z</time>
      </trkpt>
      <trkpt lat="45.41284" lon="5.68664">
        <ele>592.9</ele>
        <time>2022-04-15T08:41:38Z</time>
      </trkpt>
      <trkpt lat="45.41285" lon="5.68663">
        <ele>592.9</ele>
        <time>2022-04-15T08:41:39Z</time>
      </trkpt>
      <trkpt lat="45.41285" lon="5.68663">
        <ele>592.9</ele>
        <time>2022-04-15T08:41:40Z</time>
      </trkpt>
      <trkpt lat="45.41285" lon="5.68663">
        <ele>592.9</ele>
        <time>2022-04-15T08:41:41Z</time>
      </trkpt>
      <trkpt lat="45.41285" lon="5.68663">
        <ele>592.9</ele>
        <time>2022-04-15T08:41:42Z</time>
      </trkpt>
      <trkpt lat="45.41285" lon="5.68663">
        <ele>592.9</ele>
        <time>2022-04-15T08:41:43Z</time>
      </trkpt>
      <trkpt lat="45.41285" lon="5.68663">
        <ele>592.9</ele>
        <time>2022-04-15T08:41:44Z</time>
      </trkpt>
      <trkpt lat="45.41285" lon="5.68663">
        <ele>592.9</ele>
        <time>2022-04-15T08:41:45Z</time>
      </trkpt>
      <trkpt lat="45.41285" lon="5.68663">
        <ele>592.9</ele>
        <time>2022-04-15T08:41:46Z</time>
      </trkpt>
      <trkpt lat="45.41285" lon="5.68664">
        <ele>592.9</ele>
        <time>2022-04-15T08:41:47Z</time>
      </trkpt>
      <trkpt lat="45.41285" lon="5.68664">
        <ele>592.9</ele>
        <time>2022-04-15T08:41:48Z</time>
      </trkpt>
      <trkpt lat="45.41285" lon="5.68664">
        <ele>592.9</ele>
        <time>2022-04-15T08:41:49Z</time>
      </trkpt>
      <trkpt lat="45.41285" lon="5.68664">
        <ele>592.9</ele>
        <time>2022-04-15T08:41:50Z</time>
      </trkpt>
      <trkpt lat="45.41285" lon="5.68664">
        <ele>592.9</ele>
        <time>2022-04-15T08:41:51Z</time>
      </trkpt>
      <trkpt lat="45.41285" lon="5.68664">
        <ele>592.9</ele>
        <time>2022-04-15T08:41:52Z</time>
      </trkpt>
      <trkpt lat="45.41285" lon="5.68664">
        <ele>592.9</ele>
        <time>2022-04-15T08:41:53Z</time>
      </trkpt>
      <trkpt lat="45.41285" lon="5.68664">
        <ele>592.9</ele>
        <time>2022-04-15T08:41:54Z</time>
      </trkpt>
      <trkpt lat="45.41285" lon="5.68664">
        <ele>592.9</ele>
        <time>2022-04-15T08:41:55Z</time>
      </trkpt>
      <trkpt lat="45.41285" lon="5.68664">
        <ele>592.9</ele>
        <time>2022-04-15T08:41:56Z</time>
      </trkpt>
      <trkpt lat="45.41285" lon="5.68664">
        <ele>592.9</ele>
        <time>2022-04-15T08:41:57Z</time>
      </trkpt>
      <trkpt lat="45.41285" lon="5.68664">
        <ele>592.9</ele>
        <time>2022-04-15T08:41:58Z</time>
      </trkpt>
      <trkpt lat="45.41285" lon="5.68664">
        <ele>592.9</ele>
        <time>2022-04-15T08:41:59Z</time>
      </trkpt>
      <trkpt lat="45.41285" lon="5.68664">
        <ele>592.9</ele>
        <time>2022-04-15T08:42:00Z</time>
      </trkpt>
      <trkpt lat="45.41285" lon="5.68664">
        <ele>592.9</ele>
        <time>2022-04-15T08:42:01Z</time>
      </trkpt>
      <trkpt lat="45.41285" lon="5.68664">
        <ele>592.9</ele>
        <time>2022-04-15T08:42:02Z</time>
      </trkpt>
      <trkpt lat="45.41285" lon="5.68664">
        <ele>592.9</ele>
        <time>2022-04-15T08:42:03Z</time>
      </trkpt>
      <trkpt lat="45.41285" lon="5.68664">
        <ele>592.9</ele>
        <time>2022-04-15T08:42:04Z</time>
      </trkpt>
      <trkpt lat="45.41285" lon="5.68664">
        <ele>592.9</ele>
        <time>2022-04-15T08:42:05Z</time>
      </trkpt>
      <trkpt lat="45.41285" lon="5.68664">
        <ele>592.9</ele>
        <time>2022-04-15T08:42:06Z</time>
      </trkpt>
      <trkpt lat="45.41285" lon="5.68665">
        <ele>592.9</ele>
        <time>2022-04-15T08:42:07Z</time>
      </trkpt>
      <trkpt lat="45.41285" lon="5.68665">
        <ele>592.9</ele>
        <time>2022-04-15T08:42:08Z</time>
      </trkpt>
      <trkpt lat="45.41285" lon="5.68665">
        <ele>592.9</ele>
        <time>2022-04-15T08:42:09Z</time>
      </trkpt>
      <trkpt lat="45.41285" lon="5.68665">
        <ele>592.9</ele>
        <time>2022-04-15T08:42:10Z</time>
      </trkpt>
      <trkpt lat="45.41285" lon="5.68665">
        <ele>592.9</ele>
        <time>2022-04-15T08:42:11Z</time>
      </trkpt>
      <trkpt lat="45.41285" lon="5.68665">
        <ele>592.9</ele>
        <time>2022-04-15T08:42:12Z</time>
      </trkpt>
      <trkpt lat="45.41285" lon="5.68665">
        <ele>592.9</ele>
        <time>2022-04-15T08:42:13Z</time>
      </trkpt>
      <trkpt lat="45.41285" lon="5.68665">
        <ele>592.9</ele>
        <time>2022-04-15T08:42:14Z</time>
      </trkpt>
      <trkpt lat="45.41285" lon="5.68665">
        <ele>592.9</ele>
        <time>2022-04-15T08:42:15Z</time>
      </trkpt>
      <trkpt lat="45.41285" lon="5.68665">
        <ele>592.9</ele>
        <time>2022-04-15T08:42:16Z</time>
      </trkpt>
      <trkpt lat="45.41285" lon="5.68665">
        <ele>592.9</ele>
        <time>2022-04-15T08:42:17Z</time>
      </trkpt>
      <trkpt lat="45.41285" lon="5.68665">
        <ele>592.9</ele>
        <time>2022-04-15T08:42:18Z</time>
      </trkpt>
      <trkpt lat="45.41285" lon="5.68665">
        <ele>592.9</ele>
        <time>2022-04-15T08:42:19Z</time>
      </trkpt>
      <trkpt lat="45.41285" lon="5.68665">
        <ele>592.9</ele>
        <time>2022-04-15T08:42:20Z</time>
      </trkpt>
      <trkpt lat="45.41285" lon="5.68665">
        <ele>592.9</ele>
        <time>2022-04-15T08:42:21Z</time>
      </trkpt>
      <trkpt lat="45.41285" lon="5.68665">
        <ele>592.9</ele>
        <time>2022-04-15T08:42:22Z</time>
      </trkpt>
      <trkpt lat="45.41285" lon="5.68665">
        <ele>592.9</ele>
        <time>2022-04-15T08:42:23Z</time>
      </trkpt>
      <trkpt lat="45.41285" lon="5.68665">
        <ele>592.9</ele>
        <time>2022-04-15T08:42:24Z</time>
      </trkpt>
      <trkpt lat="45.41285" lon="5.68665">
        <ele>592.9</ele>
        <time>2022-04-15T08:42:25Z</time>
      </trkpt>
      <trkpt lat="45.41285" lon="5.68665">
        <ele>592.9</ele>
        <time>2022-04-15T08:42:26Z</time>
      </trkpt>
      <trkpt lat="45.41285" lon="5.68665">
        <ele>592.9</ele>
        <time>2022-04-15T08:42:27Z</time>
      </trkpt>
      <trkpt lat="45.41285" lon="5.68666">
        <ele>592.9</ele>
        <time>2022-04-15T08:42:28Z</time>
      </trkpt>
      <trkpt lat="45.41285" lon="5.68666">
        <ele>592.9</ele>
        <time>2022-04-15T08:42:29Z</time>
      </trkpt>
      <trkpt lat="45.41285" lon="5.68666">
        <ele>592.9</ele>
        <time>2022-04-15T08:42:30Z</time>
      </trkpt>
      <trkpt lat="45.41285" lon="5.68666">
        <ele>592.9</ele>
        <time>2022-04-15T08:42:31Z</time>
      </trkpt>
      <trkpt lat="45.41285" lon="5.68666">
        <ele>592.9</ele>
        <time>2022-04-15T08:42:32Z</time>
      </trkpt>
      <trkpt lat="45.41285" lon="5.68666">
        <ele>592.9</ele>
        <time>2022-04-15T08:42:33Z</time>
      </trkpt>
      <trkpt lat="45.41285" lon="5.68666">
        <ele>592.9</ele>
        <time>2022-04-15T08:42:34Z</time>
      </trkpt>
      <trkpt lat="45.41285" lon="5.68666">
        <ele>592.9</ele>
        <time>2022-04-15T08:42:35Z</time>
      </trkpt>
      <trkpt lat="45.41285" lon="5.68666">
        <ele>592.9</ele>
        <time>2022-04-15T08:42:36Z</time>
      </trkpt>
      <trkpt lat="45.41285" lon="5.68666">
        <ele>592.9</ele>
        <time>2022-04-15T08:42:37Z</time>
      </trkpt>
      <trkpt lat="45.41285" lon="5.68666">
        <ele>592.9</ele>
        <time>2022-04-15T08:42:38Z</time>
      </trkpt>
      <trkpt lat="45.41285" lon="5.68666">
        <ele>592.9</ele>
        <time>2022-04-15T08:42:39Z</time>
      </trkpt>
      <trkpt lat="45.41285" lon="5.68666">
        <ele>592.9</ele>
        <time>2022-04-15T08:42:40Z</time>
      </trkpt>
      <trkpt lat="45.41285" lon="5.68666">
        <ele>592.9</ele>
        <time>2022-04-15T08:42:41Z</time>
      </trkpt>
      <trkpt lat="45.41285" lon="5.68666">
        <ele>592.9</ele>
        <time>2022-04-15T08:42:42Z</time>
      </trkpt>
      <trkpt lat="45.41285" lon="5.68666">
        <ele>592.9</ele>
        <time>2022-04-15T08:42:43Z</time>
      </trkpt>
      <trkpt lat="45.41285" lon="5.68666">
        <ele>592.9</ele>
        <time>2022-04-15T08:42:44Z</time>
      </trkpt>
      <trkpt lat="45.41285" lon="5.68666">
        <ele>592.9</ele>
        <time>2022-04-15T08:42:45Z</time>
      </trkpt>
      <trkpt lat="45.41285" lon="5.68666">
        <ele>592.9</ele>
        <time>2022-04-15T08:42:46Z</time>
      </trkpt>
      <trkpt lat="45.41285" lon="5.68666">
        <ele>592.9</ele>
        <time>2022-04-15T08:42:47Z</time>
      </trkpt>
      <trkpt lat="45.41285" lon="5.68667">
        <ele>592.9</ele>
        <time>2022-04-15T08:42:48Z</time>
      </trkpt>
      <trkpt lat="45.41285" lon="5.68667">
        <ele>592.9</ele>
        <time>2022-04-15T08:42:49Z</time>
      </trkpt>
      <trkpt lat="45.41285" lon="5.68667">
        <ele>592.9</ele>
        <time>2022-04-15T08:42:50Z</time>
      </trkpt>
      <trkpt lat="45.41285" lon="5.68667">
        <ele>592.9</ele>
        <time>2022-04-15T08:42:51Z</time>
      </trkpt>
      <trkpt lat="45.41285" lon="5.68667">
        <ele>592.9</ele>
        <time>2022-04-15T08:42:52Z</time>
      </trkpt>
      <trkpt lat="45.41285" lon="5.68667">
        <ele>592.9</ele>
        <time>2022-04-15T08:42:53Z</time>
      </trkpt>
      <trkpt lat="45.41285" lon="5.68667">
        <ele>592.9</ele>
        <time>2022-04-15T08:42:54Z</time>
      </trkpt>
      <trkpt lat="45.41285" lon="5.68667">
        <ele>592.9</ele>
        <time>2022-04-15T08:42:55Z</time>
      </trkpt>
      <trkpt lat="45.41285" lon="5.68667">
        <ele>592.9</ele>
        <time>2022-04-15T08:42:56Z</time>
      </trkpt>
      <trkpt lat="45.41285" lon="5.68667">
        <ele>592.9</ele>
        <time>2022-04-15T08:42:57Z</time>
      </trkpt>
      <trkpt lat="45.41285" lon="5.68667">
        <ele>592.9</ele>
        <time>2022-04-15T08:42:58Z</time>
      </trkpt>
      <trkpt lat="45.41285" lon="5.68667">
        <ele>592.9</ele>
        <time>2022-04-15T08:42:59Z</time>
      </trkpt>
      <trkpt lat="45.41285" lon="5.68667">
        <ele>592.9</ele>
        <time>2022-04-15T08:43:00Z</time>
      </trkpt>
      <trkpt lat="45.41285" lon="5.68667">
        <ele>592.9</ele>
        <time>2022-04-15T08:43:01Z</time>
      </trkpt>
      <trkpt lat="45.41285" lon="5.68667">
        <ele>592.9</ele>
        <time>2022-04-15T08:43:02Z</time>
      </trkpt>
      <trkpt lat="45.41285" lon="5.68667">
        <ele>592.9</ele>
        <time>2022-04-15T08:43:03Z</time>
      </trkpt>
      <trkpt lat="45.41285" lon="5.68667">
        <ele>592.9</ele>
        <time>2022-04-15T08:43:04Z</time>
      </trkpt>
      <trkpt lat="45.41285" lon="5.68667">
        <ele>592.9</ele>
        <time>2022-04-15T08:43:05Z</time>
      </trkpt>
      <trkpt lat="45.41285" lon="5.68667">
        <ele>592.9</ele>
        <time>2022-04-15T08:43:06Z</time>
      </trkpt>
      <trkpt lat="45.41285" lon="5.68667">
        <ele>592.9</ele>
        <time>2022-04-15T08:43:07Z</time>
      </trkpt>
      <trkpt lat="45.41285" lon="5.68668">
        <ele>592.9</ele>
        <time>2022-04-15T08:43:08Z</time>
      </trkpt>
      <trkpt lat="45.41285" lon="5.68668">
        <ele>592.9</ele>
        <time>2022-04-15T08:43:09Z</time>
      </trkpt>
      <trkpt lat="45.41285" lon="5.68668">
        <ele>592.9</ele>
        <time>2022-04-15T08:43:10Z</time>
      </trkpt>
      <trkpt lat="45.41285" lon="5.68668">
        <ele>592.9</ele>
        <time>2022-04-15T08:43:11Z</time>
      </trkpt>
      <trkpt lat="45.41285" lon="5.68668">
        <ele>592.9</ele>
        <time>2022-04-15T08:43:12Z</time>
      </trkpt>
      <trkpt lat="45.41285" lon="5.68668">
        <ele>592.9</ele>
        <time>2022-04-15T08:43:13Z</time>
      </trkpt>
      <trkpt lat="45.41285" lon="5.68668">
        <ele>592.9</ele>
        <time>2022-04-15T08:43:14Z</time>
      </trkpt>
      <trkpt lat="45.41285" lon="5.68668">
        <ele>592.9</ele>
        <time>2022-04-15T08:43:15Z</time>
      </trkpt>
      <trkpt lat="45.41285" lon="5.68668">
        <ele>593</ele>
        <time>2022-04-15T08:43:16Z</time>
      </trkpt>
      <trkpt lat="45.41285" lon="5.68668">
        <ele>593</ele>
        <time>2022-04-15T08:43:17Z</time>
      </trkpt>
      <trkpt lat="45.41285" lon="5.68668">
        <ele>593</ele>
        <time>2022-04-15T08:43:18Z</time>
      </trkpt>
      <trkpt lat="45.41285" lon="5.68668">
        <ele>593</ele>
        <time>2022-04-15T08:43:19Z</time>
      </trkpt>
      <trkpt lat="45.41285" lon="5.68668">
        <ele>593</ele>
        <time>2022-04-15T08:43:20Z</time>
      </trkpt>
      <trkpt lat="45.41285" lon="5.68668">
        <ele>593</ele>
        <time>2022-04-15T08:43:21Z</time>
      </trkpt>
      <trkpt lat="45.41285" lon="5.68668">
        <ele>593</ele>
        <time>2022-04-15T08:43:22Z</time>
      </trkpt>
      <trkpt lat="45.41285" lon="5.68668">
        <ele>593</ele>
        <time>2022-04-15T08:43:23Z</time>
      </trkpt>
      <trkpt lat="45.41285" lon="5.68668">
        <ele>593</ele>
        <time>2022-04-15T08:43:24Z</time>
      </trkpt>
      <trkpt lat="45.41285" lon="5.68668">
        <ele>593</ele>
        <time>2022-04-15T08:43:25Z</time>
      </trkpt>
      <trkpt lat="45.41285" lon="5.68668">
        <ele>593</ele>
        <time>2022-04-15T08:43:26Z</time>
      </trkpt>
      <trkpt lat="45.41285" lon="5.68668">
        <ele>593</ele>
        <time>2022-04-15T08:43:27Z</time>
      </trkpt>
      <trkpt lat="45.41285" lon="5.68668">
        <ele>593</ele>
        <time>2022-04-15T08:43:28Z</time>
      </trkpt>
      <trkpt lat="45.41285" lon="5.68669">
        <ele>593</ele>
        <time>2022-04-15T08:43:29Z</time>
      </trkpt>
      <trkpt lat="45.41285" lon="5.68669">
        <ele>593</ele>
        <time>2022-04-15T08:43:30Z</time>
      </trkpt>
      <trkpt lat="45.41285" lon="5.68669">
        <ele>593</ele>
        <time>2022-04-15T08:43:31Z</time>
      </trkpt>
      <trkpt lat="45.41285" lon="5.68669">
        <ele>593</ele>
        <time>2022-04-15T08:43:32Z</time>
      </trkpt>
      <trkpt lat="45.41285" lon="5.68669">
        <ele>593</ele>
        <time>2022-04-15T08:43:33Z</time>
      </trkpt>
      <trkpt lat="45.41285" lon="5.68669">
        <ele>593</ele>
        <time>2022-04-15T08:43:34Z</time>
      </trkpt>
      <trkpt lat="45.41285" lon="5.68669">
        <ele>593</ele>
        <time>2022-04-15T08:43:35Z</time>
      </trkpt>
      <trkpt lat="45.41285" lon="5.68669">
        <ele>593</ele>
        <time>2022-04-15T08:43:36Z</time>
      </trkpt>
      <trkpt lat="45.41285" lon="5.68669">
        <ele>593</ele>
        <time>2022-04-15T08:43:37Z</time>
      </trkpt>
      <trkpt lat="45.41285" lon="5.68669">
        <ele>593</ele>
        <time>2022-04-15T08:43:38Z</time>
      </trkpt>
      <trkpt lat="45.41285" lon="5.68669">
        <ele>593</ele>
        <time>2022-04-15T08:43:39Z</time>
      </trkpt>
      <trkpt lat="45.41285" lon="5.68669">
        <ele>593</ele>
        <time>2022-04-15T08:43:40Z</time>
      </trkpt>
      <trkpt lat="45.41285" lon="5.68669">
        <ele>593</ele>
        <time>2022-04-15T08:43:41Z</time>
      </trkpt>
      <trkpt lat="45.41284" lon="5.68669">
        <ele>593</ele>
        <time>2022-04-15T08:43:42Z</time>
      </trkpt>
      <trkpt lat="45.41284" lon="5.68669">
        <ele>593</ele>
        <time>2022-04-15T08:43:43Z</time>
      </trkpt>
      <trkpt lat="45.41284" lon="5.68669">
        <ele>593</ele>
        <time>2022-04-15T08:43:44Z</time>
      </trkpt>
      <trkpt lat="45.41284" lon="5.68669">
        <ele>593</ele>
        <time>2022-04-15T08:43:45Z</time>
      </trkpt>
      <trkpt lat="45.41284" lon="5.68669">
        <ele>593</ele>
        <time>2022-04-15T08:43:46Z</time>
      </trkpt>
      <trkpt lat="45.41284" lon="5.68669">
        <ele>593</ele>
        <time>2022-04-15T08:43:47Z</time>
      </trkpt>
      <trkpt lat="45.41284" lon="5.68669">
        <ele>593</ele>
        <time>2022-04-15T08:43:48Z</time>
      </trkpt>
      <trkpt lat="45.41284" lon="5.6867">
        <ele>593</ele>
        <time>2022-04-15T08:43:50Z</time>
      </trkpt>
      <trkpt lat="45.41284" lon="5.6867">
        <ele>593</ele>
        <time>2022-04-15T08:43:51Z</time>
      </trkpt>
      <trkpt lat="45.41284" lon="5.6867">
        <ele>593</ele>
        <time>2022-04-15T08:43:52Z</time>
      </trkpt>
      <trkpt lat="45.41284" lon="5.6867">
        <ele>593</ele>
        <time>2022-04-15T08:43:53Z</time>
      </trkpt>
      <trkpt lat="45.41284" lon="5.6867">
        <ele>593</ele>
        <time>2022-04-15T08:43:54Z</time>
      </trkpt>
      <trkpt lat="45.41284" lon="5.6867">
        <ele>593</ele>
        <time>2022-04-15T08:43:55Z</time>
      </trkpt>
      <trkpt lat="45.41284" lon="5.6867">
        <ele>593</ele>
        <time>2022-04-15T08:43:56Z</time>
      </trkpt>
      <trkpt lat="45.41284" lon="5.6867">
        <ele>593</ele>
        <time>2022-04-15T08:43:57Z</time>
      </trkpt>
      <trkpt lat="45.41284" lon="5.6867">
        <ele>593</ele>
        <time>2022-04-15T08:43:58Z</time>
      </trkpt>
      <trkpt lat="45.41284" lon="5.6867">
        <ele>593</ele>
        <time>2022-04-15T08:43:59Z</time>
      </trkpt>
      <trkpt lat="45.41284" lon="5.6867">
        <ele>593</ele>
        <time>2022-04-15T08:44:00Z</time>
      </trkpt>
      <trkpt lat="45.41284" lon="5.6867">
        <ele>593</ele>
        <time>2022-04-15T08:44:01Z</time>
      </trkpt>
      <trkpt lat="45.41284" lon="5.6867">
        <ele>593</ele>
        <time>2022-04-15T08:44:02Z</time>
      </trkpt>
      <trkpt lat="45.41284" lon="5.6867">
        <ele>593</ele>
        <time>2022-04-15T08:44:03Z</time>
      </trkpt>
      <trkpt lat="45.41284" lon="5.6867">
        <ele>593</ele>
        <time>2022-04-15T08:44:04Z</time>
      </trkpt>
      <trkpt lat="45.41284" lon="5.6867">
        <ele>593</ele>
        <time>2022-04-15T08:44:05Z</time>
      </trkpt>
      <trkpt lat="45.41284" lon="5.6867">
        <ele>593</ele>
        <time>2022-04-15T08:44:06Z</time>
      </trkpt>
      <trkpt lat="45.41284" lon="5.6867">
        <ele>593</ele>
        <time>2022-04-15T08:44:07Z</time>
      </trkpt>
      <trkpt lat="45.41284" lon="5.6867">
        <ele>593</ele>
        <time>2022-04-15T08:44:08Z</time>
      </trkpt>
      <trkpt lat="45.41284" lon="5.6867">
        <ele>593</ele>
        <time>2022-04-15T08:44:09Z</time>
      </trkpt>
      <trkpt lat="45.41284" lon="5.68671">
        <ele>593</ele>
        <time>2022-04-15T08:44:10Z</time>
      </trkpt>
      <trkpt lat="45.41284" lon="5.68671">
        <ele>593</ele>
        <time>2022-04-15T08:44:11Z</time>
      </trkpt>
      <trkpt lat="45.41284" lon="5.68671">
        <ele>593</ele>
        <time>2022-04-15T08:44:12Z</time>
      </trkpt>
      <trkpt lat="45.41284" lon="5.68671">
        <ele>593</ele>
        <time>2022-04-15T08:44:13Z</time>
      </trkpt>
      <trkpt lat="45.41284" lon="5.68674">
        <ele>593</ele>
        <time>2022-04-15T08:44:14Z</time>
      </trkpt>
      <trkpt lat="45.41284" lon="5.68677">
        <ele>593</ele>
        <time>2022-04-15T08:44:16Z</time>
      </trkpt>
      <trkpt lat="45.41283" lon="5.68682">
        <ele>593</ele>
        <time>2022-04-15T08:44:17Z</time>
      </trkpt>
      <trkpt lat="45.41283" lon="5.68684">
        <ele>593</ele>
        <time>2022-04-15T08:44:18Z</time>
      </trkpt>
      <trkpt lat="45.41281" lon="5.6869">
        <ele>593.1</ele>
        <time>2022-04-15T08:44:20Z</time>
      </trkpt>
      <trkpt lat="45.4128" lon="5.68696">
        <ele>593.1</ele>
        <time>2022-04-15T08:44:21Z</time>
      </trkpt>
      <trkpt lat="45.41279" lon="5.68698">
        <ele>593.1</ele>
        <time>2022-04-15T08:44:22Z</time>
      </trkpt>
      <trkpt lat="45.41279" lon="5.68704">
        <ele>593.2</ele>
        <time>2022-04-15T08:44:23Z</time>
      </trkpt>
      <trkpt lat="45.41279" lon="5.6871">
        <ele>593.2</ele>
        <time>2022-04-15T08:44:24Z</time>
      </trkpt>
      <trkpt lat="45.41279" lon="5.68716">
        <ele>593.2</ele>
        <time>2022-04-15T08:44:26Z</time>
      </trkpt>
      <trkpt lat="45.41279" lon="5.68725">
        <ele>593.3</ele>
        <time>2022-04-15T08:44:27Z</time>
      </trkpt>
      <trkpt lat="45.4128" lon="5.6873">
        <ele>593.3</ele>
        <time>2022-04-15T08:44:28Z</time>
      </trkpt>
      <trkpt lat="45.4128" lon="5.68735">
        <ele>593.3</ele>
        <time>2022-04-15T08:44:30Z</time>
      </trkpt>
      <trkpt lat="45.4128" lon="5.6874">
        <ele>593.3</ele>
        <time>2022-04-15T08:44:31Z</time>
      </trkpt>
      <trkpt lat="45.4128" lon="5.68746">
        <ele>593.4</ele>
        <time>2022-04-15T08:44:32Z</time>
      </trkpt>
      <trkpt lat="45.41281" lon="5.68751">
        <ele>593.4</ele>
        <time>2022-04-15T08:44:33Z</time>
      </trkpt>
      <trkpt lat="45.41281" lon="5.68756">
        <ele>593.4</ele>
        <time>2022-04-15T08:44:34Z</time>
      </trkpt>
      <trkpt lat="45.41283" lon="5.68765">
        <ele>593.5</ele>
        <time>2022-04-15T08:44:35Z</time>
      </trkpt>
      <trkpt lat="45.41283" lon="5.6877">
        <ele>593.5</ele>
        <time>2022-04-15T08:44:36Z</time>
      </trkpt>
      <trkpt lat="45.41284" lon="5.68778">
        <ele>593.6</ele>
        <time>2022-04-15T08:44:38Z</time>
      </trkpt>
      <trkpt lat="45.41284" lon="5.68784">
        <ele>593.6</ele>
        <time>2022-04-15T08:44:39Z</time>
      </trkpt>
      <trkpt lat="45.41284" lon="5.6879">
        <ele>593.7</ele>
        <time>2022-04-15T08:44:40Z</time>
      </trkpt>
      <trkpt lat="45.41285" lon="5.68796">
        <ele>593.7</ele>
        <time>2022-04-15T08:44:41Z</time>
      </trkpt>
      <trkpt lat="45.41286" lon="5.68804">
        <ele>593.8</ele>
        <time>2022-04-15T08:44:42Z</time>
      </trkpt>
      <trkpt lat="45.41287" lon="5.68809">
        <ele>593.9</ele>
        <time>2022-04-15T08:44:43Z</time>
      </trkpt>
      <trkpt lat="45.41288" lon="5.68818">
        <ele>594</ele>
        <time>2022-04-15T08:44:45Z</time>
      </trkpt>
      <trkpt lat="45.41288" lon="5.68825">
        <ele>594</ele>
        <time>2022-04-15T08:44:47Z</time>
      </trkpt>
      <trkpt lat="45.41288" lon="5.68831">
        <ele>594.1</ele>
        <time>2022-04-15T08:44:48Z</time>
      </trkpt>
      <trkpt lat="45.41289" lon="5.68842">
        <ele>594.2</ele>
        <time>2022-04-15T08:44:50Z</time>
      </trkpt>
      <trkpt lat="45.4129" lon="5.68848">
        <ele>594.3</ele>
        <time>2022-04-15T08:44:51Z</time>
      </trkpt>
      <trkpt lat="45.41291" lon="5.68853">
        <ele>594.3</ele>
        <time>2022-04-15T08:44:52Z</time>
      </trkpt>
      <trkpt lat="45.41293" lon="5.68863">
        <ele>594.4</ele>
        <time>2022-04-15T08:44:54Z</time>
      </trkpt>
      <trkpt lat="45.41294" lon="5.68871">
        <ele>594.4</ele>
        <time>2022-04-15T08:44:55Z</time>
      </trkpt>
      <trkpt lat="45.41296" lon="5.68878">
        <ele>594.4</ele>
        <time>2022-04-15T08:44:57Z</time>
      </trkpt>
      <trkpt lat="45.41298" lon="5.68886">
        <ele>594.5</ele>
        <time>2022-04-15T08:44:59Z</time>
      </trkpt>
      <trkpt lat="45.413" lon="5.68891">
        <ele>594.5</ele>
        <time>2022-04-15T08:45:00Z</time>
      </trkpt>
      <trkpt lat="45.41301" lon="5.68895">
        <ele>594.5</ele>
        <time>2022-04-15T08:45:01Z</time>
      </trkpt>
      <trkpt lat="45.41302" lon="5.68899">
        <ele>594.5</ele>
        <time>2022-04-15T08:45:02Z</time>
      </trkpt>
      <trkpt lat="45.41305" lon="5.68908">
        <ele>594.6</ele>
        <time>2022-04-15T08:45:03Z</time>
      </trkpt>
      <trkpt lat="45.41306" lon="5.68912">
        <ele>594.6</ele>
        <time>2022-04-15T08:45:04Z</time>
      </trkpt>
      <trkpt lat="45.41307" lon="5.68917">
        <ele>594.7</ele>
        <time>2022-04-15T08:45:06Z</time>
      </trkpt>
      <trkpt lat="45.41308" lon="5.68923">
        <ele>594.8</ele>
        <time>2022-04-15T08:45:07Z</time>
      </trkpt>
      <trkpt lat="45.4131" lon="5.68933">
        <ele>594.9</ele>
        <time>2022-04-15T08:45:09Z</time>
      </trkpt>
      <trkpt lat="45.41311" lon="5.68938">
        <ele>594.9</ele>
        <time>2022-04-15T08:45:10Z</time>
      </trkpt>
      <trkpt lat="45.41314" lon="5.68946">
        <ele>595.1</ele>
        <time>2022-04-15T08:45:12Z</time>
      </trkpt>
      <trkpt lat="45.41315" lon="5.68951">
        <ele>595.1</ele>
        <time>2022-04-15T08:45:13Z</time>
      </trkpt>
      <trkpt lat="45.41316" lon="5.68955">
        <ele>595.2</ele>
        <time>2022-04-15T08:45:14Z</time>
      </trkpt>
      <trkpt lat="45.41319" lon="5.68964">
        <ele>595.3</ele>
        <time>2022-04-15T08:45:16Z</time>
      </trkpt>
      <trkpt lat="45.41321" lon="5.68972">
        <ele>595.4</ele>
        <time>2022-04-15T08:45:18Z</time>
      </trkpt>
      <trkpt lat="45.41322" lon="5.68977">
        <ele>595.5</ele>
        <time>2022-04-15T08:45:19Z</time>
      </trkpt>
      <trkpt lat="45.41324" lon="5.68982">
        <ele>595.5</ele>
        <time>2022-04-15T08:45:20Z</time>
      </trkpt>
      <trkpt lat="45.41325" lon="5.68987">
        <ele>595.6</ele>
        <time>2022-04-15T08:45:21Z</time>
      </trkpt>
      <trkpt lat="45.41328" lon="5.68995">
        <ele>595.7</ele>
        <time>2022-04-15T08:45:22Z</time>
      </trkpt>
      <trkpt lat="45.41329" lon="5.69">
        <ele>595.7</ele>
        <time>2022-04-15T08:45:24Z</time>
      </trkpt>
      <trkpt lat="45.4133" lon="5.69004">
        <ele>595.8</ele>
        <time>2022-04-15T08:45:25Z</time>
      </trkpt>
      <trkpt lat="45.41331" lon="5.69008">
        <ele>595.8</ele>
        <time>2022-04-15T08:45:26Z</time>
      </trkpt>
      <trkpt lat="45.41333" lon="5.69014">
        <ele>595.9</ele>
        <time>2022-04-15T08:45:27Z</time>
      </trkpt>
      <trkpt lat="45.41335" lon="5.69019">
        <ele>596</ele>
        <time>2022-04-15T08:45:28Z</time>
      </trkpt>
      <trkpt lat="45.41337" lon="5.69026">
        <ele>596.1</ele>
        <time>2022-04-15T08:45:29Z</time>
      </trkpt>
      <trkpt lat="45.41339" lon="5.69031">
        <ele>596.2</ele>
        <time>2022-04-15T08:45:31Z</time>
      </trkpt>
      <trkpt lat="45.41341" lon="5.69037">
        <ele>596.2</ele>
        <time>2022-04-15T08:45:32Z</time>
      </trkpt>
      <trkpt lat="45.41342" lon="5.69043">
        <ele>596.3</ele>
        <time>2022-04-15T08:45:33Z</time>
      </trkpt>
      <trkpt lat="45.41344" lon="5.69049">
        <ele>596.4</ele>
        <time>2022-04-15T08:45:35Z</time>
      </trkpt>
      <trkpt lat="45.41345" lon="5.69054">
        <ele>596.5</ele>
        <time>2022-04-15T08:45:36Z</time>
      </trkpt>
      <trkpt lat="45.41347" lon="5.69061">
        <ele>596.6</ele>
        <time>2022-04-15T08:45:37Z</time>
      </trkpt>
      <trkpt lat="45.41349" lon="5.69067">
        <ele>596.7</ele>
        <time>2022-04-15T08:45:39Z</time>
      </trkpt>
      <trkpt lat="45.4135" lon="5.69072">
        <ele>596.7</ele>
        <time>2022-04-15T08:45:40Z</time>
      </trkpt>
      <trkpt lat="45.41352" lon="5.69078">
        <ele>596.8</ele>
        <time>2022-04-15T08:45:42Z</time>
      </trkpt>
      <trkpt lat="45.41353" lon="5.69084">
        <ele>596.9</ele>
        <time>2022-04-15T08:45:43Z</time>
      </trkpt>
      <trkpt lat="45.41356" lon="5.69092">
        <ele>597</ele>
        <time>2022-04-15T08:45:44Z</time>
      </trkpt>
      <trkpt lat="45.41357" lon="5.69096">
        <ele>597.1</ele>
        <time>2022-04-15T08:45:46Z</time>
      </trkpt>
      <trkpt lat="45.41359" lon="5.69101">
        <ele>597.2</ele>
        <time>2022-04-15T08:45:47Z</time>
      </trkpt>
      <trkpt lat="45.41361" lon="5.69108">
        <ele>597.3</ele>
        <time>2022-04-15T08:45:49Z</time>
      </trkpt>
      <trkpt lat="45.41364" lon="5.69116">
        <ele>597.4</ele>
        <time>2022-04-15T08:45:50Z</time>
      </trkpt>
      <trkpt lat="45.41366" lon="5.69121">
        <ele>597.5</ele>
        <time>2022-04-15T08:45:52Z</time>
      </trkpt>
      <trkpt lat="45.41368" lon="5.69129">
        <ele>597.6</ele>
        <time>2022-04-15T08:45:54Z</time>
      </trkpt>
      <trkpt lat="45.41371" lon="5.69138">
        <ele>597.8</ele>
        <time>2022-04-15T08:45:56Z</time>
      </trkpt>
      <trkpt lat="45.41372" lon="5.69147">
        <ele>597.9</ele>
        <time>2022-04-15T08:45:58Z</time>
      </trkpt>
      <trkpt lat="45.41373" lon="5.69152">
        <ele>597.9</ele>
        <time>2022-04-15T08:45:59Z</time>
      </trkpt>
      <trkpt lat="45.41373" lon="5.69157">
        <ele>598</ele>
        <time>2022-04-15T08:46:00Z</time>
      </trkpt>
      <trkpt lat="45.41374" lon="5.69165">
        <ele>598.1</ele>
        <time>2022-04-15T08:46:02Z</time>
      </trkpt>
      <trkpt lat="45.41374" lon="5.69171">
        <ele>598.2</ele>
        <time>2022-04-15T08:46:03Z</time>
      </trkpt>
      <trkpt lat="45.41373" lon="5.69177">
        <ele>598.2</ele>
        <time>2022-04-15T08:46:04Z</time>
      </trkpt>
      <trkpt lat="45.41373" lon="5.69184">
        <ele>598.3</ele>
        <time>2022-04-15T08:46:05Z</time>
      </trkpt>
      <trkpt lat="45.41373" lon="5.69189">
        <ele>598.4</ele>
        <time>2022-04-15T08:46:07Z</time>
      </trkpt>
      <trkpt lat="45.41373" lon="5.69196">
        <ele>598.5</ele>
        <time>2022-04-15T08:46:09Z</time>
      </trkpt>
      <trkpt lat="45.41373" lon="5.692">
        <ele>598.5</ele>
        <time>2022-04-15T08:46:10Z</time>
      </trkpt>
      <trkpt lat="45.41372" lon="5.69205">
        <ele>598.6</ele>
        <time>2022-04-15T08:46:11Z</time>
      </trkpt>
      <trkpt lat="45.41372" lon="5.69209">
        <ele>598.7</ele>
        <time>2022-04-15T08:46:12Z</time>
      </trkpt>
      <trkpt lat="45.41372" lon="5.69214">
        <ele>598.7</ele>
        <time>2022-04-15T08:46:13Z</time>
      </trkpt>
      <trkpt lat="45.41372" lon="5.69219">
        <ele>598.8</ele>
        <time>2022-04-15T08:46:14Z</time>
      </trkpt>
      <trkpt lat="45.41371" lon="5.69225">
        <ele>598.9</ele>
        <time>2022-04-15T08:46:15Z</time>
      </trkpt>
      <trkpt lat="45.4137" lon="5.69229">
        <ele>598.9</ele>
        <time>2022-04-15T08:46:16Z</time>
      </trkpt>
      <trkpt lat="45.4137" lon="5.69233">
        <ele>599</ele>
        <time>2022-04-15T08:46:17Z</time>
      </trkpt>
      <trkpt lat="45.4137" lon="5.69237">
        <ele>599.1</ele>
        <time>2022-04-15T08:46:18Z</time>
      </trkpt>
      <trkpt lat="45.4137" lon="5.69242">
        <ele>599.1</ele>
        <time>2022-04-15T08:46:19Z</time>
      </trkpt>
      <trkpt lat="45.41371" lon="5.69249">
        <ele>599.2</ele>
        <time>2022-04-15T08:46:21Z</time>
      </trkpt>
      <trkpt lat="45.41372" lon="5.69254">
        <ele>599.3</ele>
        <time>2022-04-15T08:46:22Z</time>
      </trkpt>
      <trkpt lat="45.41374" lon="5.6926">
        <ele>599.4</ele>
        <time>2022-04-15T08:46:24Z</time>
      </trkpt>
      <trkpt lat="45.41376" lon="5.69264">
        <ele>599.4</ele>
        <time>2022-04-15T08:46:25Z</time>
      </trkpt>
      <trkpt lat="45.41378" lon="5.69268">
        <ele>599.5</ele>
        <time>2022-04-15T08:46:26Z</time>
      </trkpt>
      <trkpt lat="45.41381" lon="5.69272">
        <ele>599.6</ele>
        <time>2022-04-15T08:46:27Z</time>
      </trkpt>
      <trkpt lat="45.41386" lon="5.69278">
        <ele>599.7</ele>
        <time>2022-04-15T08:46:29Z</time>
      </trkpt>
      <trkpt lat="45.41389" lon="5.69282">
        <ele>599.7</ele>
        <time>2022-04-15T08:46:30Z</time>
      </trkpt>
      <trkpt lat="45.41393" lon="5.69286">
        <ele>599.8</ele>
        <time>2022-04-15T08:46:31Z</time>
      </trkpt>
      <trkpt lat="45.41397" lon="5.69289">
        <ele>599.9</ele>
        <time>2022-04-15T08:46:33Z</time>
      </trkpt>
      <trkpt lat="45.414" lon="5.69292">
        <ele>599.9</ele>
        <time>2022-04-15T08:46:34Z</time>
      </trkpt>
      <trkpt lat="45.41407" lon="5.69298">
        <ele>600</ele>
        <time>2022-04-15T08:46:36Z</time>
      </trkpt>
      <trkpt lat="45.41411" lon="5.69303">
        <ele>600.1</ele>
        <time>2022-04-15T08:46:38Z</time>
      </trkpt>
      <trkpt lat="45.41414" lon="5.69307">
        <ele>600.2</ele>
        <time>2022-04-15T08:46:39Z</time>
      </trkpt>
      <trkpt lat="45.41416" lon="5.6931">
        <ele>600.2</ele>
        <time>2022-04-15T08:46:40Z</time>
      </trkpt>
      <trkpt lat="45.41419" lon="5.69314">
        <ele>600.3</ele>
        <time>2022-04-15T08:46:41Z</time>
      </trkpt>
      <trkpt lat="45.41422" lon="5.69318">
        <ele>600.4</ele>
        <time>2022-04-15T08:46:42Z</time>
      </trkpt>
      <trkpt lat="45.41426" lon="5.69324">
        <ele>600.5</ele>
        <time>2022-04-15T08:46:43Z</time>
      </trkpt>
      <trkpt lat="45.41428" lon="5.69328">
        <ele>600.5</ele>
        <time>2022-04-15T08:46:45Z</time>
      </trkpt>
      <trkpt lat="45.41431" lon="5.69333">
        <ele>600.6</ele>
        <time>2022-04-15T08:46:46Z</time>
      </trkpt>
      <trkpt lat="45.41434" lon="5.69341">
        <ele>600.7</ele>
        <time>2022-04-15T08:46:48Z</time>
      </trkpt>
      <trkpt lat="45.41438" lon="5.69349">
        <ele>600.8</ele>
        <time>2022-04-15T08:46:50Z</time>
      </trkpt>
      <trkpt lat="45.41441" lon="5.69354">
        <ele>600.9</ele>
        <time>2022-04-15T08:46:51Z</time>
      </trkpt>
      <trkpt lat="45.41443" lon="5.69358">
        <ele>600.9</ele>
        <time>2022-04-15T08:46:53Z</time>
      </trkpt>
      <trkpt lat="45.41445" lon="5.69361">
        <ele>601</ele>
        <time>2022-04-15T08:46:54Z</time>
      </trkpt>
      <trkpt lat="45.4145" lon="5.69367">
        <ele>601.1</ele>
        <time>2022-04-15T08:46:56Z</time>
      </trkpt>
      <trkpt lat="45.41454" lon="5.69372">
        <ele>601.1</ele>
        <time>2022-04-15T08:46:57Z</time>
      </trkpt>
      <trkpt lat="45.41457" lon="5.69374">
        <ele>601.1</ele>
        <time>2022-04-15T08:46:58Z</time>
      </trkpt>
      <trkpt lat="45.4146" lon="5.69377">
        <ele>601.2</ele>
        <time>2022-04-15T08:46:59Z</time>
      </trkpt>
      <trkpt lat="45.41464" lon="5.69379">
        <ele>601.2</ele>
        <time>2022-04-15T08:47:00Z</time>
      </trkpt>
      <trkpt lat="45.41468" lon="5.69382">
        <ele>601.3</ele>
        <time>2022-04-15T08:47:02Z</time>
      </trkpt>
      <trkpt lat="45.41471" lon="5.69384">
        <ele>601.3</ele>
        <time>2022-04-15T08:47:03Z</time>
      </trkpt>
      <trkpt lat="45.41474" lon="5.69387">
        <ele>601.4</ele>
        <time>2022-04-15T08:47:04Z</time>
      </trkpt>
      <trkpt lat="45.41477" lon="5.6939">
        <ele>601.5</ele>
        <time>2022-04-15T08:47:05Z</time>
      </trkpt>
      <trkpt lat="45.41482" lon="5.69394">
        <ele>601.6</ele>
        <time>2022-04-15T08:47:06Z</time>
      </trkpt>
      <trkpt lat="45.41489" lon="5.694">
        <ele>601.7</ele>
        <time>2022-04-15T08:47:08Z</time>
      </trkpt>
      <trkpt lat="45.41491" lon="5.69403">
        <ele>601.8</ele>
        <time>2022-04-15T08:47:09Z</time>
      </trkpt>
      <trkpt lat="45.41496" lon="5.69408">
        <ele>601.9</ele>
        <time>2022-04-15T08:47:11Z</time>
      </trkpt>
      <trkpt lat="45.41498" lon="5.69411">
        <ele>601.9</ele>
        <time>2022-04-15T08:47:12Z</time>
      </trkpt>
      <trkpt lat="45.41501" lon="5.69413">
        <ele>602</ele>
        <time>2022-04-15T08:47:13Z</time>
      </trkpt>
      <trkpt lat="45.41504" lon="5.69416">
        <ele>602.1</ele>
        <time>2022-04-15T08:47:14Z</time>
      </trkpt>
      <trkpt lat="45.41506" lon="5.69419">
        <ele>602.1</ele>
        <time>2022-04-15T08:47:15Z</time>
      </trkpt>
      <trkpt lat="45.41509" lon="5.69421">
        <ele>602.2</ele>
        <time>2022-04-15T08:47:16Z</time>
      </trkpt>
      <trkpt lat="45.41511" lon="5.69424">
        <ele>602.2</ele>
        <time>2022-04-15T08:47:17Z</time>
      </trkpt>
      <trkpt lat="45.41514" lon="5.69427">
        <ele>602.3</ele>
        <time>2022-04-15T08:47:18Z</time>
      </trkpt>
      <trkpt lat="45.41518" lon="5.69432">
        <ele>602.4</ele>
        <time>2022-04-15T08:47:20Z</time>
      </trkpt>
      <trkpt lat="45.41522" lon="5.69436">
        <ele>602.4</ele>
        <time>2022-04-15T08:47:22Z</time>
      </trkpt>
      <trkpt lat="45.41525" lon="5.6944">
        <ele>602.4</ele>
        <time>2022-04-15T08:47:24Z</time>
      </trkpt>
      <trkpt lat="45.41526" lon="5.69441">
        <ele>602.4</ele>
        <time>2022-04-15T08:47:25Z</time>
      </trkpt>
      <trkpt lat="45.41526" lon="5.69441">
        <ele>602.4</ele>
        <time>2022-04-15T08:47:26Z</time>
      </trkpt>
      <trkpt lat="45.41525" lon="5.69442">
        <ele>602.4</ele>
        <time>2022-04-15T08:47:27Z</time>
      </trkpt>
      <trkpt lat="45.41525" lon="5.69442">
        <ele>602.4</ele>
        <time>2022-04-15T08:47:28Z</time>
      </trkpt>
      <trkpt lat="45.41524" lon="5.69442">
        <ele>602.4</ele>
        <time>2022-04-15T08:47:29Z</time>
      </trkpt>
      <trkpt lat="45.41524" lon="5.69442">
        <ele>602.4</ele>
        <time>2022-04-15T08:47:30Z</time>
      </trkpt>
      <trkpt lat="45.41524" lon="5.69441">
        <ele>602.4</ele>
        <time>2022-04-15T08:47:31Z</time>
      </trkpt>
      <trkpt lat="45.41524" lon="5.69441">
        <ele>602.4</ele>
        <time>2022-04-15T08:47:32Z</time>
      </trkpt>
      <trkpt lat="45.41524" lon="5.69441">
        <ele>602.4</ele>
        <time>2022-04-15T08:47:34Z</time>
      </trkpt>
      <trkpt lat="45.41524" lon="5.69441">
        <ele>602.4</ele>
        <time>2022-04-15T08:47:35Z</time>
      </trkpt>
      <trkpt lat="45.41524" lon="5.6944">
        <ele>602.4</ele>
        <time>2022-04-15T08:47:37Z</time>
      </trkpt>
      <trkpt lat="45.41524" lon="5.6944">
        <ele>602.4</ele>
        <time>2022-04-15T08:47:38Z</time>
      </trkpt>
      <trkpt lat="45.41524" lon="5.6944">
        <ele>602.4</ele>
        <time>2022-04-15T08:47:39Z</time>
      </trkpt>
      <trkpt lat="45.41524" lon="5.6944">
        <ele>602.4</ele>
        <time>2022-04-15T08:47:40Z</time>
      </trkpt>
      <trkpt lat="45.41524" lon="5.6944">
        <ele>602.4</ele>
        <time>2022-04-15T08:47:41Z</time>
      </trkpt>
      <trkpt lat="45.41524" lon="5.6944">
        <ele>602.4</ele>
        <time>2022-04-15T08:47:42Z</time>
      </trkpt>
      <trkpt lat="45.41524" lon="5.6944">
        <ele>602.4</ele>
        <time>2022-04-15T08:47:43Z</time>
      </trkpt>
      <trkpt lat="45.41524" lon="5.6944">
        <ele>602.4</ele>
        <time>2022-04-15T08:47:44Z</time>
      </trkpt>
      <trkpt lat="45.41524" lon="5.69439">
        <ele>602.4</ele>
        <time>2022-04-15T08:47:45Z</time>
      </trkpt>
      <trkpt lat="45.41524" lon="5.69439">
        <ele>602.4</ele>
        <time>2022-04-15T08:47:46Z</time>
      </trkpt>
      <trkpt lat="45.41524" lon="5.69439">
        <ele>602.4</ele>
        <time>2022-04-15T08:47:47Z</time>
      </trkpt>
      <trkpt lat="45.41524" lon="5.69439">
        <ele>602.4</ele>
        <time>2022-04-15T08:47:48Z</time>
      </trkpt>
      <trkpt lat="45.41524" lon="5.69439">
        <ele>602.4</ele>
        <time>2022-04-15T08:47:49Z</time>
      </trkpt>
      <trkpt lat="45.41524" lon="5.69439">
        <ele>602.4</ele>
        <time>2022-04-15T08:47:50Z</time>
      </trkpt>
      <trkpt lat="45.41524" lon="5.69439">
        <ele>602.4</ele>
        <time>2022-04-15T08:47:52Z</time>
      </trkpt>
      <trkpt lat="45.41524" lon="5.69439">
        <ele>602.4</ele>
        <time>2022-04-15T08:47:53Z</time>
      </trkpt>
      <trkpt lat="45.41524" lon="5.69439">
        <ele>602.4</ele>
        <time>2022-04-15T08:47:54Z</time>
      </trkpt>
      <trkpt lat="45.41524" lon="5.69439">
        <ele>602.4</ele>
        <time>2022-04-15T08:47:55Z</time>
      </trkpt>
      <trkpt lat="45.41524" lon="5.69439">
        <ele>602.4</ele>
        <time>2022-04-15T08:47:56Z</time>
      </trkpt>
      <trkpt lat="45.41526" lon="5.6944">
        <ele>602.4</ele>
        <time>2022-04-15T08:47:58Z</time>
      </trkpt>
      <trkpt lat="45.41529" lon="5.69445">
        <ele>602.4</ele>
        <time>2022-04-15T08:48:00Z</time>
      </trkpt>
      <trkpt lat="45.41534" lon="5.69452">
        <ele>602.3</ele>
        <time>2022-04-15T08:48:02Z</time>
      </trkpt>
      <trkpt lat="45.41536" lon="5.69455">
        <ele>602.2</ele>
        <time>2022-04-15T08:48:03Z</time>
      </trkpt>
      <trkpt lat="45.41539" lon="5.69459">
        <ele>602.2</ele>
        <time>2022-04-15T08:48:04Z</time>
      </trkpt>
      <trkpt lat="45.41544" lon="5.69465">
        <ele>602</ele>
        <time>2022-04-15T08:48:06Z</time>
      </trkpt>
      <trkpt lat="45.41547" lon="5.69469">
        <ele>601.9</ele>
        <time>2022-04-15T08:48:07Z</time>
      </trkpt>
      <trkpt lat="45.41551" lon="5.69473">
        <ele>601.8</ele>
        <time>2022-04-15T08:48:08Z</time>
      </trkpt>
      <trkpt lat="45.41556" lon="5.69478">
        <ele>601.6</ele>
        <time>2022-04-15T08:48:09Z</time>
      </trkpt>
      <trkpt lat="45.41561" lon="5.69482">
        <ele>601.4</ele>
        <time>2022-04-15T08:48:11Z</time>
      </trkpt>
      <trkpt lat="45.41565" lon="5.69484">
        <ele>601.3</ele>
        <time>2022-04-15T08:48:12Z</time>
      </trkpt>
      <trkpt lat="45.41568" lon="5.69487">
        <ele>601.1</ele>
        <time>2022-04-15T08:48:13Z</time>
      </trkpt>
      <trkpt lat="45.41573" lon="5.6949">
        <ele>600.9</ele>
        <time>2022-04-15T08:48:14Z</time>
      </trkpt>
      <trkpt lat="45.41577" lon="5.69493">
        <ele>600.8</ele>
        <time>2022-04-15T08:48:15Z</time>
      </trkpt>
      <trkpt lat="45.41581" lon="5.69495">
        <ele>600.6</ele>
        <time>2022-04-15T08:48:16Z</time>
      </trkpt>
      <trkpt lat="45.4159" lon="5.69503">
        <ele>600.2</ele>
        <time>2022-04-15T08:48:18Z</time>
      </trkpt>
      <trkpt lat="45.41595" lon="5.69506">
        <ele>600.1</ele>
        <time>2022-04-15T08:48:19Z</time>
      </trkpt>
      <trkpt lat="45.41599" lon="5.6951">
        <ele>599.9</ele>
        <time>2022-04-15T08:48:20Z</time>
      </trkpt>
      <trkpt lat="45.41604" lon="5.69513">
        <ele>599.8</ele>
        <time>2022-04-15T08:48:21Z</time>
      </trkpt>
      <trkpt lat="45.41609" lon="5.69516">
        <ele>599.7</ele>
        <time>2022-04-15T08:48:22Z</time>
      </trkpt>
      <trkpt lat="45.41614" lon="5.69519">
        <ele>599.6</ele>
        <time>2022-04-15T08:48:23Z</time>
      </trkpt>
      <trkpt lat="45.41619" lon="5.69522">
        <ele>599.5</ele>
        <time>2022-04-15T08:48:24Z</time>
      </trkpt>
      <trkpt lat="45.41624" lon="5.69525">
        <ele>599.5</ele>
        <time>2022-04-15T08:48:25Z</time>
      </trkpt>
      <trkpt lat="45.41628" lon="5.69527">
        <ele>599.5</ele>
        <time>2022-04-15T08:48:26Z</time>
      </trkpt>
      <trkpt lat="45.41633" lon="5.69528">
        <ele>599.5</ele>
        <time>2022-04-15T08:48:27Z</time>
      </trkpt>
      <trkpt lat="45.41637" lon="5.6953">
        <ele>599.5</ele>
        <time>2022-04-15T08:48:28Z</time>
      </trkpt>
      <trkpt lat="45.41642" lon="5.69531">
        <ele>599.6</ele>
        <time>2022-04-15T08:48:29Z</time>
      </trkpt>
      <trkpt lat="45.41647" lon="5.69532">
        <ele>599.7</ele>
        <time>2022-04-15T08:48:30Z</time>
      </trkpt>
      <trkpt lat="45.41652" lon="5.69533">
        <ele>599.8</ele>
        <time>2022-04-15T08:48:31Z</time>
      </trkpt>
      <trkpt lat="45.41656" lon="5.69534">
        <ele>599.9</ele>
        <time>2022-04-15T08:48:32Z</time>
      </trkpt>
      <trkpt lat="45.41659" lon="5.69534">
        <ele>600</ele>
        <time>2022-04-15T08:48:33Z</time>
      </trkpt>
      <trkpt lat="45.41663" lon="5.69535">
        <ele>600.1</ele>
        <time>2022-04-15T08:48:34Z</time>
      </trkpt>
      <trkpt lat="45.41666" lon="5.69536">
        <ele>600.2</ele>
        <time>2022-04-15T08:48:35Z</time>
      </trkpt>
      <trkpt lat="45.4167" lon="5.69537">
        <ele>600.3</ele>
        <time>2022-04-15T08:48:36Z</time>
      </trkpt>
      <trkpt lat="45.41673" lon="5.69539">
        <ele>600.4</ele>
        <time>2022-04-15T08:48:37Z</time>
      </trkpt>
      <trkpt lat="45.41675" lon="5.6954">
        <ele>600.5</ele>
        <time>2022-04-15T08:48:38Z</time>
      </trkpt>
      <trkpt lat="45.41675" lon="5.69542">
        <ele>600.5</ele>
        <time>2022-04-15T08:48:39Z</time>
      </trkpt>
      <trkpt lat="45.41677" lon="5.69541">
        <ele>600.6</ele>
        <time>2022-04-15T08:48:40Z</time>
      </trkpt>
      <trkpt lat="45.41677" lon="5.69541">
        <ele>600.6</ele>
        <time>2022-04-15T08:48:42Z</time>
      </trkpt>
      <trkpt lat="45.41677" lon="5.69541">
        <ele>600.6</ele>
        <time>2022-04-15T08:48:43Z</time>
      </trkpt>
      <trkpt lat="45.41677" lon="5.69541">
        <ele>600.6</ele>
        <time>2022-04-15T08:48:44Z</time>
      </trkpt>
      <trkpt lat="45.41677" lon="5.69541">
        <ele>600.6</ele>
        <time>2022-04-15T08:48:45Z</time>
      </trkpt>
      <trkpt lat="45.41677" lon="5.69541">
        <ele>600.6</ele>
        <time>2022-04-15T08:48:46Z</time>
      </trkpt>
      <trkpt lat="45.41677" lon="5.69541">
        <ele>600.6</ele>
        <time>2022-04-15T08:48:47Z</time>
      </trkpt>
      <trkpt lat="45.41677" lon="5.6954">
        <ele>600.6</ele>
        <time>2022-04-15T08:48:48Z</time>
      </trkpt>
      <trkpt lat="45.41677" lon="5.6954">
        <ele>600.6</ele>
        <time>2022-04-15T08:48:49Z</time>
      </trkpt>
      <trkpt lat="45.41677" lon="5.6954">
        <ele>600.6</ele>
        <time>2022-04-15T08:48:50Z</time>
      </trkpt>
      <trkpt lat="45.41677" lon="5.6954">
        <ele>600.6</ele>
        <time>2022-04-15T08:48:51Z</time>
      </trkpt>
      <trkpt lat="45.41677" lon="5.6954">
        <ele>600.6</ele>
        <time>2022-04-15T08:48:52Z</time>
      </trkpt>
      <trkpt lat="45.41677" lon="5.6954">
        <ele>600.6</ele>
        <time>2022-04-15T08:48:53Z</time>
      </trkpt>
      <trkpt lat="45.41677" lon="5.69539">
        <ele>600.6</ele>
        <time>2022-04-15T08:48:54Z</time>
      </trkpt>
      <trkpt lat="45.41677" lon="5.69539">
        <ele>600.6</ele>
        <time>2022-04-15T08:48:55Z</time>
      </trkpt>
      <trkpt lat="45.41677" lon="5.69539">
        <ele>600.6</ele>
        <time>2022-04-15T08:48:56Z</time>
      </trkpt>
      <trkpt lat="45.41677" lon="5.69539">
        <ele>600.6</ele>
        <time>2022-04-15T08:48:57Z</time>
      </trkpt>
      <trkpt lat="45.41677" lon="5.69539">
        <ele>600.6</ele>
        <time>2022-04-15T08:48:58Z</time>
      </trkpt>
      <trkpt lat="45.41677" lon="5.69539">
        <ele>600.6</ele>
        <time>2022-04-15T08:48:59Z</time>
      </trkpt>
      <trkpt lat="45.41677" lon="5.69539">
        <ele>600.6</ele>
        <time>2022-04-15T08:49:00Z</time>
      </trkpt>
      <trkpt lat="45.41676" lon="5.69539">
        <ele>600.7</ele>
        <time>2022-04-15T08:49:01Z</time>
      </trkpt>
      <trkpt lat="45.41676" lon="5.69539">
        <ele>600.7</ele>
        <time>2022-04-15T08:49:02Z</time>
      </trkpt>
      <trkpt lat="45.41676" lon="5.69539">
        <ele>600.7</ele>
        <time>2022-04-15T08:49:03Z</time>
      </trkpt>
      <trkpt lat="45.41676" lon="5.69539">
        <ele>600.7</ele>
        <time>2022-04-15T08:49:04Z</time>
      </trkpt>
      <trkpt lat="45.41676" lon="5.69539">
        <ele>600.7</ele>
        <time>2022-04-15T08:49:05Z</time>
      </trkpt>
      <trkpt lat="45.41676" lon="5.69539">
        <ele>600.7</ele>
        <time>2022-04-15T08:49:06Z</time>
      </trkpt>
      <trkpt lat="45.41676" lon="5.69539">
        <ele>600.7</ele>
        <time>2022-04-15T08:49:07Z</time>
      </trkpt>
      <trkpt lat="45.41676" lon="5.69539">
        <ele>600.7</ele>
        <time>2022-04-15T08:49:08Z</time>
      </trkpt>
      <trkpt lat="45.41676" lon="5.69539">
        <ele>600.7</ele>
        <time>2022-04-15T08:49:09Z</time>
      </trkpt>
      <trkpt lat="45.41676" lon="5.69539">
        <ele>600.7</ele>
        <time>2022-04-15T08:49:10Z</time>
      </trkpt>
      <trkpt lat="45.41676" lon="5.69539">
        <ele>600.7</ele>
        <time>2022-04-15T08:49:11Z</time>
      </trkpt>
      <trkpt lat="45.41676" lon="5.69539">
        <ele>600.7</ele>
        <time>2022-04-15T08:49:12Z</time>
      </trkpt>
      <trkpt lat="45.41676" lon="5.69539">
        <ele>600.7</ele>
        <time>2022-04-15T08:49:13Z</time>
      </trkpt>
      <trkpt lat="45.41676" lon="5.69539">
        <ele>600.7</ele>
        <time>2022-04-15T08:49:14Z</time>
      </trkpt>
      <trkpt lat="45.41676" lon="5.69539">
        <ele>600.7</ele>
        <time>2022-04-15T08:49:15Z</time>
      </trkpt>
      <trkpt lat="45.41676" lon="5.69539">
        <ele>600.7</ele>
        <time>2022-04-15T08:49:16Z</time>
      </trkpt>
      <trkpt lat="45.41676" lon="5.69539">
        <ele>600.7</ele>
        <time>2022-04-15T08:49:17Z</time>
      </trkpt>
      <trkpt lat="45.41676" lon="5.69539">
        <ele>600.7</ele>
        <time>2022-04-15T08:49:18Z</time>
      </trkpt>
      <trkpt lat="45.41676" lon="5.69539">
        <ele>600.7</ele>
        <time>2022-04-15T08:49:19Z</time>
      </trkpt>
      <trkpt lat="45.41676" lon="5.69539">
        <ele>600.7</ele>
        <time>2022-04-15T08:49:20Z</time>
      </trkpt>
      <trkpt lat="45.41676" lon="5.69539">
        <ele>600.7</ele>
        <time>2022-04-15T08:49:21Z</time>
      </trkpt>
      <trkpt lat="45.41676" lon="5.69539">
        <ele>600.7</ele>
        <time>2022-04-15T08:49:22Z</time>
      </trkpt>
      <trkpt lat="45.41676" lon="5.69539">
        <ele>600.7</ele>
        <time>2022-04-15T08:49:23Z</time>
      </trkpt>
      <trkpt lat="45.41676" lon="5.69539">
        <ele>600.7</ele>
        <time>2022-04-15T08:49:24Z</time>
      </trkpt>
      <trkpt lat="45.41676" lon="5.69539">
        <ele>600.7</ele>
        <time>2022-04-15T08:49:25Z</time>
      </trkpt>
      <trkpt lat="45.41676" lon="5.69539">
        <ele>600.7</ele>
        <time>2022-04-15T08:49:26Z</time>
      </trkpt>
      <trkpt lat="45.41676" lon="5.69539">
        <ele>600.7</ele>
        <time>2022-04-15T08:49:27Z</time>
      </trkpt>
      <trkpt lat="45.41676" lon="5.69539">
        <ele>600.7</ele>
        <time>2022-04-15T08:49:28Z</time>
      </trkpt>
      <trkpt lat="45.41676" lon="5.69539">
        <ele>600.7</ele>
        <time>2022-04-15T08:49:29Z</time>
      </trkpt>
      <trkpt lat="45.41676" lon="5.69539">
        <ele>600.7</ele>
        <time>2022-04-15T08:49:30Z</time>
      </trkpt>
      <trkpt lat="45.41676" lon="5.69539">
        <ele>600.7</ele>
        <time>2022-04-15T08:49:31Z</time>
      </trkpt>
      <trkpt lat="45.41676" lon="5.69539">
        <ele>600.7</ele>
        <time>2022-04-15T08:49:32Z</time>
      </trkpt>
      <trkpt lat="45.41676" lon="5.69539">
        <ele>600.7</ele>
        <time>2022-04-15T08:49:33Z</time>
      </trkpt>
      <trkpt lat="45.41677" lon="5.69539">
        <ele>600.7</ele>
        <time>2022-04-15T08:49:34Z</time>
      </trkpt>
      <trkpt lat="45.41678" lon="5.69539">
        <ele>600.7</ele>
        <time>2022-04-15T08:49:35Z</time>
      </trkpt>
      <trkpt lat="45.4168" lon="5.6954">
        <ele>600.8</ele>
        <time>2022-04-15T08:49:36Z</time>
      </trkpt>
      <trkpt lat="45.41681" lon="5.6954">
        <ele>600.8</ele>
        <time>2022-04-15T08:49:37Z</time>
      </trkpt>
      <trkpt lat="45.41682" lon="5.6954">
        <ele>600.8</ele>
        <time>2022-04-15T08:49:38Z</time>
      </trkpt>
      <trkpt lat="45.41685" lon="5.69541">
        <ele>600.9</ele>
        <time>2022-04-15T08:49:39Z</time>
      </trkpt>
      <trkpt lat="45.41686" lon="5.69542">
        <ele>601</ele>
        <time>2022-04-15T08:49:40Z</time>
      </trkpt>
      <trkpt lat="45.41691" lon="5.69543">
        <ele>601.1</ele>
        <time>2022-04-15T08:49:42Z</time>
      </trkpt>
      <trkpt lat="45.41695" lon="5.69544">
        <ele>601.2</ele>
        <time>2022-04-15T08:49:44Z</time>
      </trkpt>
      <trkpt lat="45.41699" lon="5.69546">
        <ele>601.4</ele>
        <time>2022-04-15T08:49:45Z</time>
      </trkpt>
      <trkpt lat="45.41703" lon="5.69549">
        <ele>601.5</ele>
        <time>2022-04-15T08:49:46Z</time>
      </trkpt>
      <trkpt lat="45.41707" lon="5.69551">
        <ele>601.6</ele>
        <time>2022-04-15T08:49:47Z</time>
      </trkpt>
      <trkpt lat="45.41709" lon="5.69555">
        <ele>601.7</ele>
        <time>2022-04-15T08:49:49Z</time>
      </trkpt>
      <trkpt lat="45.41713" lon="5.6956">
        <ele>601.9</ele>
        <time>2022-04-15T08:49:50Z</time>
      </trkpt>
      <trkpt lat="45.41717" lon="5.69563">
        <ele>602</ele>
        <time>2022-04-15T08:49:52Z</time>
      </trkpt>
      <trkpt lat="45.4172" lon="5.69564">
        <ele>602.1</ele>
        <time>2022-04-15T08:49:53Z</time>
      </trkpt>
      <trkpt lat="45.41726" lon="5.69567">
        <ele>602.4</ele>
        <time>2022-04-15T08:49:55Z</time>
      </trkpt>
      <trkpt lat="45.4173" lon="5.6957">
        <ele>602.5</ele>
        <time>2022-04-15T08:49:56Z</time>
      </trkpt>
      <trkpt lat="45.41733" lon="5.69572">
        <ele>602.6</ele>
        <time>2022-04-15T08:49:57Z</time>
      </trkpt>
      <trkpt lat="45.41737" lon="5.69574">
        <ele>602.7</ele>
        <time>2022-04-15T08:49:58Z</time>
      </trkpt>
      <trkpt lat="45.41741" lon="5.69576">
        <ele>602.9</ele>
        <time>2022-04-15T08:49:59Z</time>
      </trkpt>
      <trkpt lat="45.41743" lon="5.69577">
        <ele>602.9</ele>
        <time>2022-04-15T08:50:00Z</time>
      </trkpt>
      <trkpt lat="45.41748" lon="5.6958">
        <ele>603.1</ele>
        <time>2022-04-15T08:50:02Z</time>
      </trkpt>
      <trkpt lat="45.41754" lon="5.69585">
        <ele>603.3</ele>
        <time>2022-04-15T08:50:04Z</time>
      </trkpt>
      <trkpt lat="45.41759" lon="5.69588">
        <ele>603.5</ele>
        <time>2022-04-15T08:50:05Z</time>
      </trkpt>
      <trkpt lat="45.41762" lon="5.6959">
        <ele>603.6</ele>
        <time>2022-04-15T08:50:07Z</time>
      </trkpt>
      <trkpt lat="45.41765" lon="5.69594">
        <ele>603.8</ele>
        <time>2022-04-15T08:50:09Z</time>
      </trkpt>
      <trkpt lat="45.41768" lon="5.69596">
        <ele>603.9</ele>
        <time>2022-04-15T08:50:10Z</time>
      </trkpt>
      <trkpt lat="45.41771" lon="5.69597">
        <ele>604</ele>
        <time>2022-04-15T08:50:11Z</time>
      </trkpt>
      <trkpt lat="45.41774" lon="5.69599">
        <ele>604</ele>
        <time>2022-04-15T08:50:12Z</time>
      </trkpt>
      <trkpt lat="45.41777" lon="5.69601">
        <ele>604.1</ele>
        <time>2022-04-15T08:50:13Z</time>
      </trkpt>
      <trkpt lat="45.4178" lon="5.69603">
        <ele>604.2</ele>
        <time>2022-04-15T08:50:14Z</time>
      </trkpt>
      <trkpt lat="45.41782" lon="5.69605">
        <ele>604.3</ele>
        <time>2022-04-15T08:50:15Z</time>
      </trkpt>
      <trkpt lat="45.41785" lon="5.69607">
        <ele>604.3</ele>
        <time>2022-04-15T08:50:16Z</time>
      </trkpt>
      <trkpt lat="45.41788" lon="5.69608">
        <ele>604.4</ele>
        <time>2022-04-15T08:50:17Z</time>
      </trkpt>
      <trkpt lat="45.41792" lon="5.69608">
        <ele>604.4</ele>
        <time>2022-04-15T08:50:18Z</time>
      </trkpt>
      <trkpt lat="45.41796" lon="5.69609">
        <ele>604.5</ele>
        <time>2022-04-15T08:50:20Z</time>
      </trkpt>
      <trkpt lat="45.41802" lon="5.69609">
        <ele>604.5</ele>
        <time>2022-04-15T08:50:22Z</time>
      </trkpt>
      <trkpt lat="45.41807" lon="5.6961">
        <ele>604.4</ele>
        <time>2022-04-15T08:50:24Z</time>
      </trkpt>
      <trkpt lat="45.4181" lon="5.69611">
        <ele>604.4</ele>
        <time>2022-04-15T08:50:25Z</time>
      </trkpt>
      <trkpt lat="45.41814" lon="5.69613">
        <ele>604.4</ele>
        <time>2022-04-15T08:50:26Z</time>
      </trkpt>
      <trkpt lat="45.4182" lon="5.69615">
        <ele>604.2</ele>
        <time>2022-04-15T08:50:27Z</time>
      </trkpt>
      <trkpt lat="45.41825" lon="5.69615">
        <ele>604.1</ele>
        <time>2022-04-15T08:50:29Z</time>
      </trkpt>
      <trkpt lat="45.41829" lon="5.69618">
        <ele>603.9</ele>
        <time>2022-04-15T08:50:30Z</time>
      </trkpt>
      <trkpt lat="45.41839" lon="5.69638">
        <ele>603.2</ele>
        <time>2022-04-15T08:50:32Z</time>
      </trkpt>
      <trkpt lat="45.41844" lon="5.69642">
        <ele>603</ele>
        <time>2022-04-15T08:50:33Z</time>
      </trkpt>
      <trkpt lat="45.4185" lon="5.69646">
        <ele>602.8</ele>
        <time>2022-04-15T08:50:34Z</time>
      </trkpt>
      <trkpt lat="45.41855" lon="5.6965">
        <ele>602.6</ele>
        <time>2022-04-15T08:50:35Z</time>
      </trkpt>
      <trkpt lat="45.4186" lon="5.69654">
        <ele>602.4</ele>
        <time>2022-04-15T08:50:36Z</time>
      </trkpt>
      <trkpt lat="45.41865" lon="5.6966">
        <ele>602.3</ele>
        <time>2022-04-15T08:50:37Z</time>
      </trkpt>
      <trkpt lat="45.4187" lon="5.69665">
        <ele>602.2</ele>
        <time>2022-04-15T08:50:38Z</time>
      </trkpt>
      <trkpt lat="45.41875" lon="5.69669">
        <ele>602.1</ele>
        <time>2022-04-15T08:50:39Z</time>
      </trkpt>
      <trkpt lat="45.41881" lon="5.69674">
        <ele>602</ele>
        <time>2022-04-15T08:50:40Z</time>
      </trkpt>
      <trkpt lat="45.41886" lon="5.69679">
        <ele>601.9</ele>
        <time>2022-04-15T08:50:41Z</time>
      </trkpt>
      <trkpt lat="45.41891" lon="5.69684">
        <ele>601.7</ele>
        <time>2022-04-15T08:50:42Z</time>
      </trkpt>
      <trkpt lat="45.41896" lon="5.69689">
        <ele>601.6</ele>
        <time>2022-04-15T08:50:43Z</time>
      </trkpt>
      <trkpt lat="45.41901" lon="5.69694">
        <ele>601.5</ele>
        <time>2022-04-15T08:50:44Z</time>
      </trkpt>
      <trkpt lat="45.41906" lon="5.69699">
        <ele>601.4</ele>
        <time>2022-04-15T08:50:45Z</time>
      </trkpt>
      <trkpt lat="45.41911" lon="5.69704">
        <ele>601.2</ele>
        <time>2022-04-15T08:50:46Z</time>
      </trkpt>
      <trkpt lat="45.41916" lon="5.69709">
        <ele>601</ele>
        <time>2022-04-15T08:50:47Z</time>
      </trkpt>
      <trkpt lat="45.41921" lon="5.69714">
        <ele>600.9</ele>
        <time>2022-04-15T08:50:48Z</time>
      </trkpt>
      <trkpt lat="45.41926" lon="5.6972">
        <ele>600.7</ele>
        <time>2022-04-15T08:50:49Z</time>
      </trkpt>
      <trkpt lat="45.41931" lon="5.69725">
        <ele>600.5</ele>
        <time>2022-04-15T08:50:50Z</time>
      </trkpt>
      <trkpt lat="45.41937" lon="5.6973">
        <ele>600.3</ele>
        <time>2022-04-15T08:50:51Z</time>
      </trkpt>
      <trkpt lat="45.41942" lon="5.69735">
        <ele>600.1</ele>
        <time>2022-04-15T08:50:52Z</time>
      </trkpt>
      <trkpt lat="45.41947" lon="5.69741">
        <ele>599.9</ele>
        <time>2022-04-15T08:50:53Z</time>
      </trkpt>
      <trkpt lat="45.41952" lon="5.69746">
        <ele>599.7</ele>
        <time>2022-04-15T08:50:54Z</time>
      </trkpt>
      <trkpt lat="45.41957" lon="5.69751">
        <ele>599.5</ele>
        <time>2022-04-15T08:50:55Z</time>
      </trkpt>
      <trkpt lat="45.41962" lon="5.69756">
        <ele>599.2</ele>
        <time>2022-04-15T08:50:56Z</time>
      </trkpt>
      <trkpt lat="45.41968" lon="5.69762">
        <ele>599</ele>
        <time>2022-04-15T08:50:57Z</time>
      </trkpt>
      <trkpt lat="45.41974" lon="5.69767">
        <ele>598.7</ele>
        <time>2022-04-15T08:50:58Z</time>
      </trkpt>
      <trkpt lat="45.4198" lon="5.69772">
        <ele>598.3</ele>
        <time>2022-04-15T08:50:59Z</time>
      </trkpt>
      <trkpt lat="45.41986" lon="5.69777">
        <ele>597.9</ele>
        <time>2022-04-15T08:51:00Z</time>
      </trkpt>
      <trkpt lat="45.41992" lon="5.69782">
        <ele>597.5</ele>
        <time>2022-04-15T08:51:01Z</time>
      </trkpt>
      <trkpt lat="45.41999" lon="5.69788">
        <ele>597.1</ele>
        <time>2022-04-15T08:51:02Z</time>
      </trkpt>
      <trkpt lat="45.42005" lon="5.69793">
        <ele>596.7</ele>
        <time>2022-04-15T08:51:03Z</time>
      </trkpt>
      <trkpt lat="45.42012" lon="5.69798">
        <ele>596.3</ele>
        <time>2022-04-15T08:51:04Z</time>
      </trkpt>
      <trkpt lat="45.42019" lon="5.69804">
        <ele>596</ele>
        <time>2022-04-15T08:51:05Z</time>
      </trkpt>
      <trkpt lat="45.42026" lon="5.69809">
        <ele>595.6</ele>
        <time>2022-04-15T08:51:06Z</time>
      </trkpt>
      <trkpt lat="45.42033" lon="5.69815">
        <ele>595.3</ele>
        <time>2022-04-15T08:51:07Z</time>
      </trkpt>
      <trkpt lat="45.4204" lon="5.69821">
        <ele>595</ele>
        <time>2022-04-15T08:51:08Z</time>
      </trkpt>
      <trkpt lat="45.42047" lon="5.69827">
        <ele>594.8</ele>
        <time>2022-04-15T08:51:09Z</time>
      </trkpt>
      <trkpt lat="45.42053" lon="5.69833">
        <ele>594.6</ele>
        <time>2022-04-15T08:51:10Z</time>
      </trkpt>
      <trkpt lat="45.42059" lon="5.6984">
        <ele>594.3</ele>
        <time>2022-04-15T08:51:11Z</time>
      </trkpt>
      <trkpt lat="45.42065" lon="5.69846">
        <ele>594.1</ele>
        <time>2022-04-15T08:51:12Z</time>
      </trkpt>
      <trkpt lat="45.4207" lon="5.69853">
        <ele>593.8</ele>
        <time>2022-04-15T08:51:13Z</time>
      </trkpt>
      <trkpt lat="45.42075" lon="5.69862">
        <ele>593.5</ele>
        <time>2022-04-15T08:51:14Z</time>
      </trkpt>
      <trkpt lat="45.42079" lon="5.6987">
        <ele>593.2</ele>
        <time>2022-04-15T08:51:15Z</time>
      </trkpt>
      <trkpt lat="45.42083" lon="5.69878">
        <ele>592.9</ele>
        <time>2022-04-15T08:51:16Z</time>
      </trkpt>
      <trkpt lat="45.42088" lon="5.69887">
        <ele>592.6</ele>
        <time>2022-04-15T08:51:17Z</time>
      </trkpt>
      <trkpt lat="45.42092" lon="5.69896">
        <ele>592.2</ele>
        <time>2022-04-15T08:51:18Z</time>
      </trkpt>
      <trkpt lat="45.42097" lon="5.69905">
        <ele>591.8</ele>
        <time>2022-04-15T08:51:19Z</time>
      </trkpt>
      <trkpt lat="45.42101" lon="5.69914">
        <ele>591.5</ele>
        <time>2022-04-15T08:51:20Z</time>
      </trkpt>
      <trkpt lat="45.42105" lon="5.69924">
        <ele>591.2</ele>
        <time>2022-04-15T08:51:21Z</time>
      </trkpt>
      <trkpt lat="45.42109" lon="5.69934">
        <ele>590.9</ele>
        <time>2022-04-15T08:51:22Z</time>
      </trkpt>
      <trkpt lat="45.42113" lon="5.69944">
        <ele>590.7</ele>
        <time>2022-04-15T08:51:23Z</time>
      </trkpt>
      <trkpt lat="45.42116" lon="5.69953">
        <ele>590.5</ele>
        <time>2022-04-15T08:51:24Z</time>
      </trkpt>
      <trkpt lat="45.4212" lon="5.69963">
        <ele>590.4</ele>
        <time>2022-04-15T08:51:25Z</time>
      </trkpt>
      <trkpt lat="45.42123" lon="5.69972">
        <ele>590.2</ele>
        <time>2022-04-15T08:51:26Z</time>
      </trkpt>
      <trkpt lat="45.42127" lon="5.69981">
        <ele>590.1</ele>
        <time>2022-04-15T08:51:27Z</time>
      </trkpt>
      <trkpt lat="45.4213" lon="5.6999">
        <ele>590</ele>
        <time>2022-04-15T08:51:28Z</time>
      </trkpt>
      <trkpt lat="45.42133" lon="5.69998">
        <ele>590</ele>
        <time>2022-04-15T08:51:29Z</time>
      </trkpt>
      <trkpt lat="45.42136" lon="5.70007">
        <ele>589.9</ele>
        <time>2022-04-15T08:51:30Z</time>
      </trkpt>
      <trkpt lat="45.4214" lon="5.70015">
        <ele>589.9</ele>
        <time>2022-04-15T08:51:31Z</time>
      </trkpt>
      <trkpt lat="45.42143" lon="5.70023">
        <ele>589.8</ele>
        <time>2022-04-15T08:51:32Z</time>
      </trkpt>
      <trkpt lat="45.42146" lon="5.70031">
        <ele>589.7</ele>
        <time>2022-04-15T08:51:33Z</time>
      </trkpt>
      <trkpt lat="45.4215" lon="5.70039">
        <ele>589.6</ele>
        <time>2022-04-15T08:51:34Z</time>
      </trkpt>
      <trkpt lat="45.42153" lon="5.70046">
        <ele>589.5</ele>
        <time>2022-04-15T08:51:35Z</time>
      </trkpt>
      <trkpt lat="45.42156" lon="5.70053">
        <ele>589.3</ele>
        <time>2022-04-15T08:51:36Z</time>
      </trkpt>
      <trkpt lat="45.4216" lon="5.7006">
        <ele>589.1</ele>
        <time>2022-04-15T08:51:37Z</time>
      </trkpt>
      <trkpt lat="45.42165" lon="5.70066">
        <ele>589</ele>
        <time>2022-04-15T08:51:38Z</time>
      </trkpt>
      <trkpt lat="45.42169" lon="5.70073">
        <ele>588.8</ele>
        <time>2022-04-15T08:51:39Z</time>
      </trkpt>
      <trkpt lat="45.42173" lon="5.70079">
        <ele>588.5</ele>
        <time>2022-04-15T08:51:40Z</time>
      </trkpt>
      <trkpt lat="45.42178" lon="5.70086">
        <ele>588.2</ele>
        <time>2022-04-15T08:51:41Z</time>
      </trkpt>
      <trkpt lat="45.42182" lon="5.70093">
        <ele>587.8</ele>
        <time>2022-04-15T08:51:42Z</time>
      </trkpt>
      <trkpt lat="45.42187" lon="5.70099">
        <ele>587.4</ele>
        <time>2022-04-15T08:51:43Z</time>
      </trkpt>
      <trkpt lat="45.42192" lon="5.70107">
        <ele>587</ele>
        <time>2022-04-15T08:51:44Z</time>
      </trkpt>
      <trkpt lat="45.42198" lon="5.70114">
        <ele>586.7</ele>
        <time>2022-04-15T08:51:45Z</time>
      </trkpt>
      <trkpt lat="45.42203" lon="5.70122">
        <ele>586.3</ele>
        <time>2022-04-15T08:51:46Z</time>
      </trkpt>
      <trkpt lat="45.42209" lon="5.70129">
        <ele>585.9</ele>
        <time>2022-04-15T08:51:47Z</time>
      </trkpt>
      <trkpt lat="45.42214" lon="5.70137">
        <ele>585.6</ele>
        <time>2022-04-15T08:51:48Z</time>
      </trkpt>
      <trkpt lat="45.4222" lon="5.70146">
        <ele>585.2</ele>
        <time>2022-04-15T08:51:49Z</time>
      </trkpt>
      <trkpt lat="45.42225" lon="5.70153">
        <ele>585</ele>
        <time>2022-04-15T08:51:50Z</time>
      </trkpt>
      <trkpt lat="45.42231" lon="5.70162">
        <ele>584.7</ele>
        <time>2022-04-15T08:51:51Z</time>
      </trkpt>
      <trkpt lat="45.42237" lon="5.7017">
        <ele>584.4</ele>
        <time>2022-04-15T08:51:52Z</time>
      </trkpt>
      <trkpt lat="45.42243" lon="5.70178">
        <ele>584.2</ele>
        <time>2022-04-15T08:51:53Z</time>
      </trkpt>
      <trkpt lat="45.42248" lon="5.70185">
        <ele>583.9</ele>
        <time>2022-04-15T08:51:54Z</time>
      </trkpt>
      <trkpt lat="45.42254" lon="5.70193">
        <ele>583.8</ele>
        <time>2022-04-15T08:51:55Z</time>
      </trkpt>
      <trkpt lat="45.42259" lon="5.70201">
        <ele>583.6</ele>
        <time>2022-04-15T08:51:56Z</time>
      </trkpt>
      <trkpt lat="45.42265" lon="5.70209">
        <ele>583.5</ele>
        <time>2022-04-15T08:51:57Z</time>
      </trkpt>
      <trkpt lat="45.4227" lon="5.70217">
        <ele>583.3</ele>
        <time>2022-04-15T08:51:58Z</time>
      </trkpt>
      <trkpt lat="45.42276" lon="5.70225">
        <ele>583.1</ele>
        <time>2022-04-15T08:51:59Z</time>
      </trkpt>
      <trkpt lat="45.42281" lon="5.70232">
        <ele>583</ele>
        <time>2022-04-15T08:52:00Z</time>
      </trkpt>
      <trkpt lat="45.42286" lon="5.70239">
        <ele>582.8</ele>
        <time>2022-04-15T08:52:01Z</time>
      </trkpt>
      <trkpt lat="45.42291" lon="5.70246">
        <ele>582.7</ele>
        <time>2022-04-15T08:52:02Z</time>
      </trkpt>
      <trkpt lat="45.42296" lon="5.70254">
        <ele>582.5</ele>
        <time>2022-04-15T08:52:03Z</time>
      </trkpt>
      <trkpt lat="45.42301" lon="5.70261">
        <ele>582.4</ele>
        <time>2022-04-15T08:52:04Z</time>
      </trkpt>
      <trkpt lat="45.42306" lon="5.70268">
        <ele>582.3</ele>
        <time>2022-04-15T08:52:05Z</time>
      </trkpt>
      <trkpt lat="45.42311" lon="5.70275">
        <ele>582.2</ele>
        <time>2022-04-15T08:52:06Z</time>
      </trkpt>
      <trkpt lat="45.42316" lon="5.70282">
        <ele>582.1</ele>
        <time>2022-04-15T08:52:07Z</time>
      </trkpt>
      <trkpt lat="45.42321" lon="5.7029">
        <ele>582</ele>
        <time>2022-04-15T08:52:08Z</time>
      </trkpt>
      <trkpt lat="45.42325" lon="5.70297">
        <ele>581.9</ele>
        <time>2022-04-15T08:52:09Z</time>
      </trkpt>
      <trkpt lat="45.4233" lon="5.70305">
        <ele>581.8</ele>
        <time>2022-04-15T08:52:10Z</time>
      </trkpt>
      <trkpt lat="45.42334" lon="5.70313">
        <ele>581.7</ele>
        <time>2022-04-15T08:52:11Z</time>
      </trkpt>
      <trkpt lat="45.42337" lon="5.70322">
        <ele>581.6</ele>
        <time>2022-04-15T08:52:12Z</time>
      </trkpt>
      <trkpt lat="45.42339" lon="5.70332">
        <ele>581.5</ele>
        <time>2022-04-15T08:52:13Z</time>
      </trkpt>
      <trkpt lat="45.42341" lon="5.7034">
        <ele>581.4</ele>
        <time>2022-04-15T08:52:14Z</time>
      </trkpt>
      <trkpt lat="45.42343" lon="5.70349">
        <ele>581.3</ele>
        <time>2022-04-15T08:52:15Z</time>
      </trkpt>
      <trkpt lat="45.42345" lon="5.70357">
        <ele>581.2</ele>
        <time>2022-04-15T08:52:16Z</time>
      </trkpt>
      <trkpt lat="45.42347" lon="5.70366">
        <ele>581.1</ele>
        <time>2022-04-15T08:52:17Z</time>
      </trkpt>
      <trkpt lat="45.42349" lon="5.70373">
        <ele>581.1</ele>
        <time>2022-04-15T08:52:18Z</time>
      </trkpt>
      <trkpt lat="45.42352" lon="5.70381">
        <ele>581</ele>
        <time>2022-04-15T08:52:19Z</time>
      </trkpt>
      <trkpt lat="45.42356" lon="5.70389">
        <ele>580.9</ele>
        <time>2022-04-15T08:52:20Z</time>
      </trkpt>
      <trkpt lat="45.42359" lon="5.70396">
        <ele>580.8</ele>
        <time>2022-04-15T08:52:21Z</time>
      </trkpt>
      <trkpt lat="45.42362" lon="5.70403">
        <ele>580.6</ele>
        <time>2022-04-15T08:52:22Z</time>
      </trkpt>
      <trkpt lat="45.42366" lon="5.7041">
        <ele>580.5</ele>
        <time>2022-04-15T08:52:23Z</time>
      </trkpt>
      <trkpt lat="45.4237" lon="5.70417">
        <ele>580.4</ele>
        <time>2022-04-15T08:52:24Z</time>
      </trkpt>
      <trkpt lat="45.42374" lon="5.70425">
        <ele>580.3</ele>
        <time>2022-04-15T08:52:25Z</time>
      </trkpt>
      <trkpt lat="45.42378" lon="5.70432">
        <ele>580.1</ele>
        <time>2022-04-15T08:52:26Z</time>
      </trkpt>
      <trkpt lat="45.42382" lon="5.70439">
        <ele>580</ele>
        <time>2022-04-15T08:52:27Z</time>
      </trkpt>
      <trkpt lat="45.42386" lon="5.70446">
        <ele>579.9</ele>
        <time>2022-04-15T08:52:28Z</time>
      </trkpt>
      <trkpt lat="45.4239" lon="5.70454">
        <ele>579.8</ele>
        <time>2022-04-15T08:52:29Z</time>
      </trkpt>
      <trkpt lat="45.42393" lon="5.70461">
        <ele>579.7</ele>
        <time>2022-04-15T08:52:30Z</time>
      </trkpt>
      <trkpt lat="45.42397" lon="5.70469">
        <ele>579.6</ele>
        <time>2022-04-15T08:52:31Z</time>
      </trkpt>
      <trkpt lat="45.424" lon="5.70477">
        <ele>579.5</ele>
        <time>2022-04-15T08:52:32Z</time>
      </trkpt>
      <trkpt lat="45.42404" lon="5.70485">
        <ele>579.4</ele>
        <time>2022-04-15T08:52:33Z</time>
      </trkpt>
      <trkpt lat="45.42408" lon="5.70493">
        <ele>579.3</ele>
        <time>2022-04-15T08:52:34Z</time>
      </trkpt>
      <trkpt lat="45.42412" lon="5.705">
        <ele>579.2</ele>
        <time>2022-04-15T08:52:35Z</time>
      </trkpt>
      <trkpt lat="45.42416" lon="5.70508">
        <ele>579.1</ele>
        <time>2022-04-15T08:52:36Z</time>
      </trkpt>
      <trkpt lat="45.4242" lon="5.70515">
        <ele>579</ele>
        <time>2022-04-15T08:52:37Z</time>
      </trkpt>
      <trkpt lat="45.42423" lon="5.70522">
        <ele>579</ele>
        <time>2022-04-15T08:52:38Z</time>
      </trkpt>
      <trkpt lat="45.42427" lon="5.70529">
        <ele>579</ele>
        <time>2022-04-15T08:52:39Z</time>
      </trkpt>
      <trkpt lat="45.42431" lon="5.70536">
        <ele>579</ele>
        <time>2022-04-15T08:52:40Z</time>
      </trkpt>
      <trkpt lat="45.42435" lon="5.70542">
        <ele>579</ele>
        <time>2022-04-15T08:52:41Z</time>
      </trkpt>
      <trkpt lat="45.4244" lon="5.70548">
        <ele>579</ele>
        <time>2022-04-15T08:52:42Z</time>
      </trkpt>
      <trkpt lat="45.42444" lon="5.70554">
        <ele>578.9</ele>
        <time>2022-04-15T08:52:43Z</time>
      </trkpt>
      <trkpt lat="45.42448" lon="5.7056">
        <ele>578.9</ele>
        <time>2022-04-15T08:52:44Z</time>
      </trkpt>
      <trkpt lat="45.42452" lon="5.70565">
        <ele>578.9</ele>
        <time>2022-04-15T08:52:45Z</time>
      </trkpt>
      <trkpt lat="45.42457" lon="5.70571">
        <ele>578.9</ele>
        <time>2022-04-15T08:52:46Z</time>
      </trkpt>
      <trkpt lat="45.42461" lon="5.70576">
        <ele>578.8</ele>
        <time>2022-04-15T08:52:47Z</time>
      </trkpt>
      <trkpt lat="45.42466" lon="5.70581">
        <ele>578.8</ele>
        <time>2022-04-15T08:52:48Z</time>
      </trkpt>
      <trkpt lat="45.42471" lon="5.70585">
        <ele>578.8</ele>
        <time>2022-04-15T08:52:49Z</time>
      </trkpt>
      <trkpt lat="45.42476" lon="5.70589">
        <ele>578.8</ele>
        <time>2022-04-15T08:52:50Z</time>
      </trkpt>
      <trkpt lat="45.42481" lon="5.70592">
        <ele>578.8</ele>
        <time>2022-04-15T08:52:51Z</time>
      </trkpt>
      <trkpt lat="45.42486" lon="5.70596">
        <ele>578.8</ele>
        <time>2022-04-15T08:52:52Z</time>
      </trkpt>
      <trkpt lat="45.42492" lon="5.706">
        <ele>578.8</ele>
        <time>2022-04-15T08:52:53Z</time>
      </trkpt>
      <trkpt lat="45.42497" lon="5.70603">
        <ele>578.8</ele>
        <time>2022-04-15T08:52:54Z</time>
      </trkpt>
      <trkpt lat="45.42502" lon="5.70607">
        <ele>578.9</ele>
        <time>2022-04-15T08:52:55Z</time>
      </trkpt>
      <trkpt lat="45.42507" lon="5.7061">
        <ele>578.9</ele>
        <time>2022-04-15T08:52:56Z</time>
      </trkpt>
      <trkpt lat="45.42512" lon="5.70613">
        <ele>578.9</ele>
        <time>2022-04-15T08:52:57Z</time>
      </trkpt>
      <trkpt lat="45.42517" lon="5.70616">
        <ele>578.9</ele>
        <time>2022-04-15T08:52:58Z</time>
      </trkpt>
      <trkpt lat="45.42523" lon="5.70618">
        <ele>578.9</ele>
        <time>2022-04-15T08:52:59Z</time>
      </trkpt>
      <trkpt lat="45.42528" lon="5.7062">
        <ele>578.9</ele>
        <time>2022-04-15T08:53:00Z</time>
      </trkpt>
      <trkpt lat="45.42533" lon="5.70623">
        <ele>579</ele>
        <time>2022-04-15T08:53:01Z</time>
      </trkpt>
      <trkpt lat="45.42538" lon="5.70625">
        <ele>579</ele>
        <time>2022-04-15T08:53:02Z</time>
      </trkpt>
      <trkpt lat="45.42543" lon="5.70627">
        <ele>579</ele>
        <time>2022-04-15T08:53:03Z</time>
      </trkpt>
      <trkpt lat="45.42548" lon="5.70629">
        <ele>579</ele>
        <time>2022-04-15T08:53:04Z</time>
      </trkpt>
      <trkpt lat="45.42553" lon="5.70631">
        <ele>579.1</ele>
        <time>2022-04-15T08:53:05Z</time>
      </trkpt>
      <trkpt lat="45.42558" lon="5.70633">
        <ele>579.2</ele>
        <time>2022-04-15T08:53:06Z</time>
      </trkpt>
      <trkpt lat="45.42563" lon="5.70635">
        <ele>579.3</ele>
        <time>2022-04-15T08:53:07Z</time>
      </trkpt>
      <trkpt lat="45.42568" lon="5.70636">
        <ele>579.3</ele>
        <time>2022-04-15T08:53:08Z</time>
      </trkpt>
      <trkpt lat="45.42573" lon="5.70638">
        <ele>579.4</ele>
        <time>2022-04-15T08:53:09Z</time>
      </trkpt>
      <trkpt lat="45.42578" lon="5.7064">
        <ele>579.5</ele>
        <time>2022-04-15T08:53:10Z</time>
      </trkpt>
      <trkpt lat="45.42583" lon="5.70642">
        <ele>579.6</ele>
        <time>2022-04-15T08:53:11Z</time>
      </trkpt>
      <trkpt lat="45.42588" lon="5.70644">
        <ele>579.8</ele>
        <time>2022-04-15T08:53:12Z</time>
      </trkpt>
      <trkpt lat="45.42593" lon="5.70645">
        <ele>580.1</ele>
        <time>2022-04-15T08:53:13Z</time>
      </trkpt>
      <trkpt lat="45.42597" lon="5.70648">
        <ele>580.2</ele>
        <time>2022-04-15T08:53:14Z</time>
      </trkpt>
      <trkpt lat="45.42601" lon="5.70651">
        <ele>580.4</ele>
        <time>2022-04-15T08:53:15Z</time>
      </trkpt>
      <trkpt lat="45.42605" lon="5.70653">
        <ele>580.3</ele>
        <time>2022-04-15T08:53:16Z</time>
      </trkpt>
      <trkpt lat="45.42608" lon="5.70654">
        <ele>580.3</ele>
        <time>2022-04-15T08:53:17Z</time>
      </trkpt>
      <trkpt lat="45.42611" lon="5.70657">
        <ele>580.5</ele>
        <time>2022-04-15T08:53:18Z</time>
      </trkpt>
      <trkpt lat="45.42615" lon="5.70659">
        <ele>580.7</ele>
        <time>2022-04-15T08:53:19Z</time>
      </trkpt>
      <trkpt lat="45.42617" lon="5.70662">
        <ele>580.8</ele>
        <time>2022-04-15T08:53:20Z</time>
      </trkpt>
      <trkpt lat="45.42621" lon="5.70664">
        <ele>581</ele>
        <time>2022-04-15T08:53:21Z</time>
      </trkpt>
      <trkpt lat="45.42622" lon="5.70665">
        <ele>581.1</ele>
        <time>2022-04-15T08:53:22Z</time>
      </trkpt>
      <trkpt lat="45.42624" lon="5.70666">
        <ele>581.2</ele>
        <time>2022-04-15T08:53:23Z</time>
      </trkpt>
      <trkpt lat="45.42625" lon="5.70667">
        <ele>581.2</ele>
        <time>2022-04-15T08:53:24Z</time>
      </trkpt>
      <trkpt lat="45.42626" lon="5.70668">
        <ele>581.3</ele>
        <time>2022-04-15T08:53:25Z</time>
      </trkpt>
      <trkpt lat="45.42629" lon="5.7067">
        <ele>581.5</ele>
        <time>2022-04-15T08:53:26Z</time>
      </trkpt>
      <trkpt lat="45.4263" lon="5.70671">
        <ele>581.6</ele>
        <time>2022-04-15T08:53:27Z</time>
      </trkpt>
      <trkpt lat="45.42633" lon="5.70672">
        <ele>581.7</ele>
        <time>2022-04-15T08:53:28Z</time>
      </trkpt>
      <trkpt lat="45.42636" lon="5.70675">
        <ele>581.9</ele>
        <time>2022-04-15T08:53:30Z</time>
      </trkpt>
      <trkpt lat="45.4264" lon="5.70676">
        <ele>582.2</ele>
        <time>2022-04-15T08:53:32Z</time>
      </trkpt>
      <trkpt lat="45.42644" lon="5.70679">
        <ele>582.5</ele>
        <time>2022-04-15T08:53:33Z</time>
      </trkpt>
      <trkpt lat="45.42645" lon="5.7068">
        <ele>582.6</ele>
        <time>2022-04-15T08:53:34Z</time>
      </trkpt>
      <trkpt lat="45.42647" lon="5.70681">
        <ele>582.8</ele>
        <time>2022-04-15T08:53:36Z</time>
      </trkpt>
      <trkpt lat="45.42651" lon="5.70683">
        <ele>583</ele>
        <time>2022-04-15T08:53:38Z</time>
      </trkpt>
      <trkpt lat="45.42656" lon="5.70685">
        <ele>583.4</ele>
        <time>2022-04-15T08:53:40Z</time>
      </trkpt>
      <trkpt lat="45.42657" lon="5.70685">
        <ele>583.5</ele>
        <time>2022-04-15T08:53:41Z</time>
      </trkpt>
      <trkpt lat="45.42659" lon="5.70685">
        <ele>583.6</ele>
        <time>2022-04-15T08:53:42Z</time>
      </trkpt>
      <trkpt lat="45.42661" lon="5.70686">
        <ele>583.8</ele>
        <time>2022-04-15T08:53:43Z</time>
      </trkpt>
      <trkpt lat="45.42662" lon="5.70686">
        <ele>583.8</ele>
        <time>2022-04-15T08:53:44Z</time>
      </trkpt>
      <trkpt lat="45.42665" lon="5.70688">
        <ele>584.1</ele>
        <time>2022-04-15T08:53:45Z</time>
      </trkpt>
      <trkpt lat="45.42666" lon="5.70689">
        <ele>584.1</ele>
        <time>2022-04-15T08:53:46Z</time>
      </trkpt>
      <trkpt lat="45.42668" lon="5.7069">
        <ele>584.3</ele>
        <time>2022-04-15T08:53:47Z</time>
      </trkpt>
      <trkpt lat="45.42672" lon="5.70691">
        <ele>584.6</ele>
        <time>2022-04-15T08:53:49Z</time>
      </trkpt>
      <trkpt lat="45.42675" lon="5.70692">
        <ele>584.8</ele>
        <time>2022-04-15T08:53:50Z</time>
      </trkpt>
      <trkpt lat="45.42676" lon="5.70692">
        <ele>585</ele>
        <time>2022-04-15T08:53:51Z</time>
      </trkpt>
      <trkpt lat="45.42679" lon="5.70693">
        <ele>585.2</ele>
        <time>2022-04-15T08:53:52Z</time>
      </trkpt>
      <trkpt lat="45.4268" lon="5.70694">
        <ele>585.4</ele>
        <time>2022-04-15T08:53:54Z</time>
      </trkpt>
      <trkpt lat="45.42684" lon="5.70697">
        <ele>585.8</ele>
        <time>2022-04-15T08:53:55Z</time>
      </trkpt>
      <trkpt lat="45.42687" lon="5.70699">
        <ele>586.2</ele>
        <time>2022-04-15T08:53:57Z</time>
      </trkpt>
      <trkpt lat="45.42688" lon="5.707">
        <ele>586.3</ele>
        <time>2022-04-15T08:53:58Z</time>
      </trkpt>
      <trkpt lat="45.42693" lon="5.70701">
        <ele>586.8</ele>
        <time>2022-04-15T08:54:00Z</time>
      </trkpt>
      <trkpt lat="45.42694" lon="5.70702">
        <ele>586.9</ele>
        <time>2022-04-15T08:54:01Z</time>
      </trkpt>
      <trkpt lat="45.42696" lon="5.70703">
        <ele>587.1</ele>
        <time>2022-04-15T08:54:02Z</time>
      </trkpt>
      <trkpt lat="45.42699" lon="5.70704">
        <ele>587.4</ele>
        <time>2022-04-15T08:54:04Z</time>
      </trkpt>
      <trkpt lat="45.427" lon="5.70706">
        <ele>587.6</ele>
        <time>2022-04-15T08:54:05Z</time>
      </trkpt>
      <trkpt lat="45.42703" lon="5.70707">
        <ele>587.9</ele>
        <time>2022-04-15T08:54:07Z</time>
      </trkpt>
      <trkpt lat="45.42705" lon="5.70708">
        <ele>588.1</ele>
        <time>2022-04-15T08:54:08Z</time>
      </trkpt>
      <trkpt lat="45.42709" lon="5.70711">
        <ele>588.5</ele>
        <time>2022-04-15T08:54:10Z</time>
      </trkpt>
      <trkpt lat="45.42713" lon="5.70716">
        <ele>589</ele>
        <time>2022-04-15T08:54:12Z</time>
      </trkpt>
      <trkpt lat="45.42714" lon="5.70718">
        <ele>589.5</ele>
        <time>2022-04-15T08:54:14Z</time>
      </trkpt>
      <trkpt lat="45.42715" lon="5.7072">
        <ele>589.4</ele>
        <time>2022-04-15T08:54:16Z</time>
      </trkpt>
      <trkpt lat="45.42716" lon="5.70722">
        <ele>589.4</ele>
        <time>2022-04-15T08:54:17Z</time>
      </trkpt>
      <trkpt lat="45.42716" lon="5.70728">
        <ele>589.4</ele>
        <time>2022-04-15T08:54:19Z</time>
      </trkpt>
      <trkpt lat="45.42717" lon="5.7073">
        <ele>589.2</ele>
        <time>2022-04-15T08:54:20Z</time>
      </trkpt>
      <trkpt lat="45.42717" lon="5.70732">
        <ele>589.2</ele>
        <time>2022-04-15T08:54:21Z</time>
      </trkpt>
      <trkpt lat="45.4272" lon="5.70737">
        <ele>589</ele>
        <time>2022-04-15T08:54:22Z</time>
      </trkpt>
      <trkpt lat="45.42723" lon="5.70739">
        <ele>588.9</ele>
        <time>2022-04-15T08:54:24Z</time>
      </trkpt>
      <trkpt lat="45.42723" lon="5.70739">
        <ele>588.9</ele>
        <time>2022-04-15T08:54:25Z</time>
      </trkpt>
      <trkpt lat="45.42723" lon="5.7074">
        <ele>588.9</ele>
        <time>2022-04-15T08:54:26Z</time>
      </trkpt>
      <trkpt lat="45.42723" lon="5.70739">
        <ele>588.9</ele>
        <time>2022-04-15T08:54:27Z</time>
      </trkpt>
      <trkpt lat="45.42722" lon="5.70739">
        <ele>588.9</ele>
        <time>2022-04-15T08:54:28Z</time>
      </trkpt>
      <trkpt lat="45.42722" lon="5.70739">
        <ele>588.9</ele>
        <time>2022-04-15T08:54:29Z</time>
      </trkpt>
      <trkpt lat="45.42722" lon="5.70739">
        <ele>588.9</ele>
        <time>2022-04-15T08:54:30Z</time>
      </trkpt>
      <trkpt lat="45.42722" lon="5.70738">
        <ele>588.8</ele>
        <time>2022-04-15T08:54:32Z</time>
      </trkpt>
      <trkpt lat="45.42722" lon="5.70738">
        <ele>588.8</ele>
        <time>2022-04-15T08:54:33Z</time>
      </trkpt>
      <trkpt lat="45.42722" lon="5.70738">
        <ele>588.8</ele>
        <time>2022-04-15T08:54:35Z</time>
      </trkpt>
      <trkpt lat="45.42722" lon="5.70738">
        <ele>588.8</ele>
        <time>2022-04-15T08:54:36Z</time>
      </trkpt>
      <trkpt lat="45.42722" lon="5.70737">
        <ele>588.8</ele>
        <time>2022-04-15T08:54:37Z</time>
      </trkpt>
      <trkpt lat="45.42722" lon="5.70737">
        <ele>588.8</ele>
        <time>2022-04-15T08:54:38Z</time>
      </trkpt>
      <trkpt lat="45.42722" lon="5.70737">
        <ele>588.8</ele>
        <time>2022-04-15T08:54:39Z</time>
      </trkpt>
      <trkpt lat="45.42722" lon="5.70737">
        <ele>588.8</ele>
        <time>2022-04-15T08:54:40Z</time>
      </trkpt>
      <trkpt lat="45.42722" lon="5.70737">
        <ele>588.8</ele>
        <time>2022-04-15T08:54:41Z</time>
      </trkpt>
      <trkpt lat="45.42722" lon="5.70737">
        <ele>588.8</ele>
        <time>2022-04-15T08:54:42Z</time>
      </trkpt>
      <trkpt lat="45.42722" lon="5.70737">
        <ele>588.8</ele>
        <time>2022-04-15T08:54:43Z</time>
      </trkpt>
      <trkpt lat="45.42722" lon="5.70737">
        <ele>588.8</ele>
        <time>2022-04-15T08:54:44Z</time>
      </trkpt>
      <trkpt lat="45.42722" lon="5.70737">
        <ele>588.8</ele>
        <time>2022-04-15T08:54:45Z</time>
      </trkpt>
      <trkpt lat="45.42722" lon="5.70737">
        <ele>588.8</ele>
        <time>2022-04-15T08:54:46Z</time>
      </trkpt>
      <trkpt lat="45.42722" lon="5.70737">
        <ele>588.8</ele>
        <time>2022-04-15T08:54:47Z</time>
      </trkpt>
      <trkpt lat="45.42722" lon="5.70737">
        <ele>588.8</ele>
        <time>2022-04-15T08:54:48Z</time>
      </trkpt>
      <trkpt lat="45.42722" lon="5.70737">
        <ele>588.8</ele>
        <time>2022-04-15T08:54:49Z</time>
      </trkpt>
      <trkpt lat="45.42722" lon="5.70737">
        <ele>588.8</ele>
        <time>2022-04-15T08:54:50Z</time>
      </trkpt>
      <trkpt lat="45.42722" lon="5.70737">
        <ele>588.8</ele>
        <time>2022-04-15T08:54:51Z</time>
      </trkpt>
      <trkpt lat="45.42721" lon="5.70737">
        <ele>588.8</ele>
        <time>2022-04-15T08:54:52Z</time>
      </trkpt>
      <trkpt lat="45.42721" lon="5.70737">
        <ele>588.8</ele>
        <time>2022-04-15T08:54:53Z</time>
      </trkpt>
      <trkpt lat="45.42721" lon="5.70737">
        <ele>588.8</ele>
        <time>2022-04-15T08:54:54Z</time>
      </trkpt>
      <trkpt lat="45.42721" lon="5.70737">
        <ele>588.8</ele>
        <time>2022-04-15T08:54:55Z</time>
      </trkpt>
      <trkpt lat="45.42721" lon="5.70737">
        <ele>588.8</ele>
        <time>2022-04-15T08:54:56Z</time>
      </trkpt>
      <trkpt lat="45.42721" lon="5.70737">
        <ele>588.8</ele>
        <time>2022-04-15T08:54:57Z</time>
      </trkpt>
      <trkpt lat="45.42721" lon="5.70737">
        <ele>588.8</ele>
        <time>2022-04-15T08:54:58Z</time>
      </trkpt>
      <trkpt lat="45.42721" lon="5.70737">
        <ele>588.8</ele>
        <time>2022-04-15T08:54:59Z</time>
      </trkpt>
      <trkpt lat="45.42721" lon="5.70737">
        <ele>588.8</ele>
        <time>2022-04-15T08:55:00Z</time>
      </trkpt>
      <trkpt lat="45.42721" lon="5.70737">
        <ele>588.8</ele>
        <time>2022-04-15T08:55:01Z</time>
      </trkpt>
      <trkpt lat="45.42721" lon="5.70737">
        <ele>588.8</ele>
        <time>2022-04-15T08:55:02Z</time>
      </trkpt>
      <trkpt lat="45.42721" lon="5.70737">
        <ele>588.8</ele>
        <time>2022-04-15T08:55:03Z</time>
      </trkpt>
      <trkpt lat="45.42721" lon="5.70737">
        <ele>588.8</ele>
        <time>2022-04-15T08:55:04Z</time>
      </trkpt>
      <trkpt lat="45.42721" lon="5.70737">
        <ele>588.8</ele>
        <time>2022-04-15T08:55:05Z</time>
      </trkpt>
      <trkpt lat="45.42721" lon="5.70737">
        <ele>588.8</ele>
        <time>2022-04-15T08:55:06Z</time>
      </trkpt>
      <trkpt lat="45.42721" lon="5.70737">
        <ele>588.8</ele>
        <time>2022-04-15T08:55:07Z</time>
      </trkpt>
      <trkpt lat="45.42721" lon="5.70737">
        <ele>588.8</ele>
        <time>2022-04-15T08:55:08Z</time>
      </trkpt>
      <trkpt lat="45.42721" lon="5.70737">
        <ele>588.8</ele>
        <time>2022-04-15T08:55:09Z</time>
      </trkpt>
      <trkpt lat="45.42721" lon="5.70737">
        <ele>588.8</ele>
        <time>2022-04-15T08:55:10Z</time>
      </trkpt>
      <trkpt lat="45.42721" lon="5.70737">
        <ele>588.8</ele>
        <time>2022-04-15T08:55:11Z</time>
      </trkpt>
      <trkpt lat="45.42721" lon="5.70737">
        <ele>588.8</ele>
        <time>2022-04-15T08:55:12Z</time>
      </trkpt>
      <trkpt lat="45.42721" lon="5.70737">
        <ele>588.8</ele>
        <time>2022-04-15T08:55:13Z</time>
      </trkpt>
      <trkpt lat="45.42721" lon="5.70737">
        <ele>588.8</ele>
        <time>2022-04-15T08:55:14Z</time>
      </trkpt>
      <trkpt lat="45.42721" lon="5.70737">
        <ele>588.8</ele>
        <time>2022-04-15T08:55:15Z</time>
      </trkpt>
      <trkpt lat="45.42721" lon="5.70737">
        <ele>588.8</ele>
        <time>2022-04-15T08:55:16Z</time>
      </trkpt>
      <trkpt lat="45.42721" lon="5.70737">
        <ele>588.8</ele>
        <time>2022-04-15T08:55:17Z</time>
      </trkpt>
      <trkpt lat="45.42721" lon="5.70737">
        <ele>588.8</ele>
        <time>2022-04-15T08:55:18Z</time>
      </trkpt>
      <trkpt lat="45.42721" lon="5.70737">
        <ele>588.8</ele>
        <time>2022-04-15T08:55:19Z</time>
      </trkpt>
      <trkpt lat="45.42721" lon="5.70737">
        <ele>588.8</ele>
        <time>2022-04-15T08:55:20Z</time>
      </trkpt>
      <trkpt lat="45.42721" lon="5.70737">
        <ele>588.8</ele>
        <time>2022-04-15T08:55:21Z</time>
      </trkpt>
      <trkpt lat="45.42721" lon="5.70737">
        <ele>588.8</ele>
        <time>2022-04-15T08:55:22Z</time>
      </trkpt>
      <trkpt lat="45.42721" lon="5.70737">
        <ele>588.8</ele>
        <time>2022-04-15T08:55:23Z</time>
      </trkpt>
      <trkpt lat="45.42721" lon="5.70737">
        <ele>588.8</ele>
        <time>2022-04-15T08:55:24Z</time>
      </trkpt>
      <trkpt lat="45.42721" lon="5.70737">
        <ele>588.8</ele>
        <time>2022-04-15T08:55:25Z</time>
      </trkpt>
      <trkpt lat="45.42721" lon="5.70737">
        <ele>588.8</ele>
        <time>2022-04-15T08:55:26Z</time>
      </trkpt>
      <trkpt lat="45.42721" lon="5.70737">
        <ele>588.8</ele>
        <time>2022-04-15T08:55:27Z</time>
      </trkpt>
      <trkpt lat="45.42721" lon="5.70737">
        <ele>588.8</ele>
        <time>2022-04-15T08:55:28Z</time>
      </trkpt>
      <trkpt lat="45.42721" lon="5.70737">
        <ele>588.8</ele>
        <time>2022-04-15T08:55:29Z</time>
      </trkpt>
      <trkpt lat="45.42721" lon="5.70737">
        <ele>588.8</ele>
        <time>2022-04-15T08:55:30Z</time>
      </trkpt>
      <trkpt lat="45.42721" lon="5.70737">
        <ele>588.8</ele>
        <time>2022-04-15T08:55:31Z</time>
      </trkpt>
      <trkpt lat="45.42721" lon="5.70737">
        <ele>588.8</ele>
        <time>2022-04-15T08:55:32Z</time>
      </trkpt>
      <trkpt lat="45.42721" lon="5.70737">
        <ele>588.8</ele>
        <time>2022-04-15T08:55:33Z</time>
      </trkpt>
      <trkpt lat="45.42721" lon="5.70737">
        <ele>588.8</ele>
        <time>2022-04-15T08:55:34Z</time>
      </trkpt>
      <trkpt lat="45.42721" lon="5.70737">
        <ele>588.8</ele>
        <time>2022-04-15T08:55:35Z</time>
      </trkpt>
      <trkpt lat="45.42721" lon="5.70737">
        <ele>588.8</ele>
        <time>2022-04-15T08:55:36Z</time>
      </trkpt>
      <trkpt lat="45.42721" lon="5.70737">
        <ele>588.8</ele>
        <time>2022-04-15T08:55:37Z</time>
      </trkpt>
      <trkpt lat="45.42721" lon="5.70737">
        <ele>588.8</ele>
        <time>2022-04-15T08:55:38Z</time>
      </trkpt>
      <trkpt lat="45.42721" lon="5.70737">
        <ele>588.8</ele>
        <time>2022-04-15T08:55:39Z</time>
      </trkpt>
      <trkpt lat="45.42721" lon="5.70737">
        <ele>588.8</ele>
        <time>2022-04-15T08:55:40Z</time>
      </trkpt>
      <trkpt lat="45.42721" lon="5.70737">
        <ele>588.8</ele>
        <time>2022-04-15T08:55:41Z</time>
      </trkpt>
      <trkpt lat="45.42721" lon="5.70737">
        <ele>588.8</ele>
        <time>2022-04-15T08:55:42Z</time>
      </trkpt>
      <trkpt lat="45.42721" lon="5.70737">
        <ele>588.8</ele>
        <time>2022-04-15T08:55:43Z</time>
      </trkpt>
      <trkpt lat="45.42721" lon="5.70737">
        <ele>588.8</ele>
        <time>2022-04-15T08:55:44Z</time>
      </trkpt>
      <trkpt lat="45.42721" lon="5.70737">
        <ele>588.8</ele>
        <time>2022-04-15T08:55:45Z</time>
      </trkpt>
      <trkpt lat="45.42721" lon="5.70737">
        <ele>588.8</ele>
        <time>2022-04-15T08:55:47Z</time>
      </trkpt>
      <trkpt lat="45.42722" lon="5.70737">
        <ele>588.7</ele>
        <time>2022-04-15T08:55:48Z</time>
      </trkpt>
      <trkpt lat="45.42722" lon="5.70737">
        <ele>588.7</ele>
        <time>2022-04-15T08:55:49Z</time>
      </trkpt>
      <trkpt lat="45.42724" lon="5.70737">
        <ele>588.7</ele>
        <time>2022-04-15T08:55:50Z</time>
      </trkpt>
      <trkpt lat="45.42727" lon="5.70738">
        <ele>588.6</ele>
        <time>2022-04-15T08:55:51Z</time>
      </trkpt>
      <trkpt lat="45.4273" lon="5.7074">
        <ele>588.5</ele>
        <time>2022-04-15T08:55:53Z</time>
      </trkpt>
      <trkpt lat="45.42733" lon="5.70742">
        <ele>588.4</ele>
        <time>2022-04-15T08:55:54Z</time>
      </trkpt>
      <trkpt lat="45.42736" lon="5.70744">
        <ele>588.4</ele>
        <time>2022-04-15T08:55:55Z</time>
      </trkpt>
      <trkpt lat="45.4274" lon="5.70748">
        <ele>588.3</ele>
        <time>2022-04-15T08:55:56Z</time>
      </trkpt>
      <trkpt lat="45.42747" lon="5.70752">
        <ele>588.1</ele>
        <time>2022-04-15T08:55:57Z</time>
      </trkpt>
      <trkpt lat="45.42751" lon="5.70755">
        <ele>588.1</ele>
        <time>2022-04-15T08:55:58Z</time>
      </trkpt>
      <trkpt lat="45.42756" lon="5.70759">
        <ele>588</ele>
        <time>2022-04-15T08:56:00Z</time>
      </trkpt>
      <trkpt lat="45.42764" lon="5.70764">
        <ele>587.9</ele>
        <time>2022-04-15T08:56:02Z</time>
      </trkpt>
      <trkpt lat="45.4277" lon="5.70769">
        <ele>587.9</ele>
        <time>2022-04-15T08:56:03Z</time>
      </trkpt>
      <trkpt lat="45.42774" lon="5.70773">
        <ele>587.9</ele>
        <time>2022-04-15T08:56:04Z</time>
      </trkpt>
      <trkpt lat="45.42778" lon="5.70778">
        <ele>587.9</ele>
        <time>2022-04-15T08:56:05Z</time>
      </trkpt>
      <trkpt lat="45.42782" lon="5.70783">
        <ele>587.9</ele>
        <time>2022-04-15T08:56:06Z</time>
      </trkpt>
      <trkpt lat="45.42786" lon="5.70788">
        <ele>588</ele>
        <time>2022-04-15T08:56:07Z</time>
      </trkpt>
      <trkpt lat="45.4279" lon="5.70794">
        <ele>588</ele>
        <time>2022-04-15T08:56:08Z</time>
      </trkpt>
      <trkpt lat="45.42794" lon="5.70799">
        <ele>588</ele>
        <time>2022-04-15T08:56:09Z</time>
      </trkpt>
      <trkpt lat="45.42797" lon="5.70804">
        <ele>588</ele>
        <time>2022-04-15T08:56:10Z</time>
      </trkpt>
      <trkpt lat="45.42801" lon="5.70809">
        <ele>588.1</ele>
        <time>2022-04-15T08:56:11Z</time>
      </trkpt>
      <trkpt lat="45.42804" lon="5.70813">
        <ele>588.1</ele>
        <time>2022-04-15T08:56:12Z</time>
      </trkpt>
      <trkpt lat="45.42806" lon="5.70817">
        <ele>588.2</ele>
        <time>2022-04-15T08:56:13Z</time>
      </trkpt>
      <trkpt lat="45.42806" lon="5.70821">
        <ele>588.2</ele>
        <time>2022-04-15T08:56:14Z</time>
      </trkpt>
      <trkpt lat="45.42808" lon="5.70823">
        <ele>588.3</ele>
        <time>2022-04-15T08:56:15Z</time>
      </trkpt>
      <trkpt lat="45.42813" lon="5.70829">
        <ele>588.4</ele>
        <time>2022-04-15T08:56:16Z</time>
      </trkpt>
      <trkpt lat="45.42819" lon="5.70831">
        <ele>588.5</ele>
        <time>2022-04-15T08:56:17Z</time>
      </trkpt>
      <trkpt lat="45.42824" lon="5.70834">
        <ele>588.7</ele>
        <time>2022-04-15T08:56:19Z</time>
      </trkpt>
      <trkpt lat="45.42826" lon="5.70836">
        <ele>588.7</ele>
        <time>2022-04-15T08:56:20Z</time>
      </trkpt>
      <trkpt lat="45.4283" lon="5.70839">
        <ele>588.8</ele>
        <time>2022-04-15T08:56:21Z</time>
      </trkpt>
      <trkpt lat="45.42833" lon="5.70843">
        <ele>588.9</ele>
        <time>2022-04-15T08:56:22Z</time>
      </trkpt>
      <trkpt lat="45.42835" lon="5.70844">
        <ele>589</ele>
        <time>2022-04-15T08:56:23Z</time>
      </trkpt>
      <trkpt lat="45.42838" lon="5.70846">
        <ele>589</ele>
        <time>2022-04-15T08:56:24Z</time>
      </trkpt>
      <trkpt lat="45.42841" lon="5.70847">
        <ele>589.1</ele>
        <time>2022-04-15T08:56:26Z</time>
      </trkpt>
      <trkpt lat="45.42846" lon="5.7085">
        <ele>589.1</ele>
        <time>2022-04-15T08:56:28Z</time>
      </trkpt>
      <trkpt lat="45.42852" lon="5.70854">
        <ele>589.1</ele>
        <time>2022-04-15T08:56:30Z</time>
      </trkpt>
      <trkpt lat="45.42859" lon="5.70857">
        <ele>589.1</ele>
        <time>2022-04-15T08:56:32Z</time>
      </trkpt>
      <trkpt lat="45.42863" lon="5.7086">
        <ele>589</ele>
        <time>2022-04-15T08:56:33Z</time>
      </trkpt>
      <trkpt lat="45.42869" lon="5.70873">
        <ele>588.5</ele>
        <time>2022-04-15T08:56:35Z</time>
      </trkpt>
      <trkpt lat="45.42873" lon="5.7088">
        <ele>588</ele>
        <time>2022-04-15T08:56:36Z</time>
      </trkpt>
      <trkpt lat="45.42876" lon="5.70886">
        <ele>587.6</ele>
        <time>2022-04-15T08:56:37Z</time>
      </trkpt>
      <trkpt lat="45.4288" lon="5.70893">
        <ele>587.1</ele>
        <time>2022-04-15T08:56:38Z</time>
      </trkpt>
      <trkpt lat="45.42884" lon="5.709">
        <ele>586.5</ele>
        <time>2022-04-15T08:56:39Z</time>
      </trkpt>
      <trkpt lat="45.42887" lon="5.70908">
        <ele>586</ele>
        <time>2022-04-15T08:56:40Z</time>
      </trkpt>
      <trkpt lat="45.42891" lon="5.70916">
        <ele>585.5</ele>
        <time>2022-04-15T08:56:41Z</time>
      </trkpt>
      <trkpt lat="45.42895" lon="5.70923">
        <ele>585</ele>
        <time>2022-04-15T08:56:42Z</time>
      </trkpt>
      <trkpt lat="45.429" lon="5.70931">
        <ele>584.4</ele>
        <time>2022-04-15T08:56:43Z</time>
      </trkpt>
      <trkpt lat="45.42906" lon="5.70939">
        <ele>583.8</ele>
        <time>2022-04-15T08:56:44Z</time>
      </trkpt>
      <trkpt lat="45.42911" lon="5.70948">
        <ele>583.1</ele>
        <time>2022-04-15T08:56:45Z</time>
      </trkpt>
      <trkpt lat="45.42917" lon="5.70955">
        <ele>582.5</ele>
        <time>2022-04-15T08:56:46Z</time>
      </trkpt>
      <trkpt lat="45.42924" lon="5.70961">
        <ele>581.9</ele>
        <time>2022-04-15T08:56:47Z</time>
      </trkpt>
      <trkpt lat="45.42931" lon="5.70967">
        <ele>581.3</ele>
        <time>2022-04-15T08:56:48Z</time>
      </trkpt>
      <trkpt lat="45.42939" lon="5.70973">
        <ele>580.6</ele>
        <time>2022-04-15T08:56:49Z</time>
      </trkpt>
      <trkpt lat="45.42947" lon="5.70978">
        <ele>579.9</ele>
        <time>2022-04-15T08:56:50Z</time>
      </trkpt>
      <trkpt lat="45.42955" lon="5.70984">
        <ele>579.3</ele>
        <time>2022-04-15T08:56:51Z</time>
      </trkpt>
      <trkpt lat="45.42963" lon="5.7099">
        <ele>578.6</ele>
        <time>2022-04-15T08:56:52Z</time>
      </trkpt>
      <trkpt lat="45.42971" lon="5.70997">
        <ele>577.9</ele>
        <time>2022-04-15T08:56:53Z</time>
      </trkpt>
      <trkpt lat="45.42978" lon="5.71005">
        <ele>577.2</ele>
        <time>2022-04-15T08:56:54Z</time>
      </trkpt>
      <trkpt lat="45.42985" lon="5.71014">
        <ele>576.6</ele>
        <time>2022-04-15T08:56:55Z</time>
      </trkpt>
      <trkpt lat="45.42991" lon="5.71023">
        <ele>575.9</ele>
        <time>2022-04-15T08:56:56Z</time>
      </trkpt>
      <trkpt lat="45.42998" lon="5.71032">
        <ele>575.3</ele>
        <time>2022-04-15T08:56:57Z</time>
      </trkpt>
      <trkpt lat="45.43005" lon="5.71041">
        <ele>574.7</ele>
        <time>2022-04-15T08:56:58Z</time>
      </trkpt>
      <trkpt lat="45.43011" lon="5.71051">
        <ele>574</ele>
        <time>2022-04-15T08:56:59Z</time>
      </trkpt>
      <trkpt lat="45.43018" lon="5.71061">
        <ele>573.4</ele>
        <time>2022-04-15T08:57:00Z</time>
      </trkpt>
      <trkpt lat="45.43023" lon="5.71073">
        <ele>572.7</ele>
        <time>2022-04-15T08:57:01Z</time>
      </trkpt>
      <trkpt lat="45.43028" lon="5.71085">
        <ele>572.1</ele>
        <time>2022-04-15T08:57:02Z</time>
      </trkpt>
      <trkpt lat="45.43032" lon="5.71097">
        <ele>571.5</ele>
        <time>2022-04-15T08:57:03Z</time>
      </trkpt>
      <trkpt lat="45.43037" lon="5.71109">
        <ele>570.8</ele>
        <time>2022-04-15T08:57:04Z</time>
      </trkpt>
      <trkpt lat="45.43042" lon="5.7112">
        <ele>570.2</ele>
        <time>2022-04-15T08:57:05Z</time>
      </trkpt>
      <trkpt lat="45.43048" lon="5.71131">
        <ele>569.6</ele>
        <time>2022-04-15T08:57:06Z</time>
      </trkpt>
      <trkpt lat="45.43054" lon="5.71142">
        <ele>569</ele>
        <time>2022-04-15T08:57:07Z</time>
      </trkpt>
      <trkpt lat="45.4306" lon="5.71153">
        <ele>568.4</ele>
        <time>2022-04-15T08:57:08Z</time>
      </trkpt>
      <trkpt lat="45.43065" lon="5.71164">
        <ele>567.9</ele>
        <time>2022-04-15T08:57:09Z</time>
      </trkpt>
      <trkpt lat="45.43071" lon="5.71176">
        <ele>567.5</ele>
        <time>2022-04-15T08:57:10Z</time>
      </trkpt>
      <trkpt lat="45.43076" lon="5.71187">
        <ele>567</ele>
        <time>2022-04-15T08:57:11Z</time>
      </trkpt>
      <trkpt lat="45.43082" lon="5.71199">
        <ele>566.6</ele>
        <time>2022-04-15T08:57:12Z</time>
      </trkpt>
      <trkpt lat="45.43087" lon="5.7121">
        <ele>566.3</ele>
        <time>2022-04-15T08:57:13Z</time>
      </trkpt>
      <trkpt lat="45.43092" lon="5.71221">
        <ele>565.9</ele>
        <time>2022-04-15T08:57:14Z</time>
      </trkpt>
      <trkpt lat="45.43097" lon="5.71232">
        <ele>565.5</ele>
        <time>2022-04-15T08:57:15Z</time>
      </trkpt>
      <trkpt lat="45.43102" lon="5.71244">
        <ele>565.2</ele>
        <time>2022-04-15T08:57:16Z</time>
      </trkpt>
      <trkpt lat="45.43107" lon="5.71255">
        <ele>564.8</ele>
        <time>2022-04-15T08:57:17Z</time>
      </trkpt>
      <trkpt lat="45.43112" lon="5.71265">
        <ele>564.4</ele>
        <time>2022-04-15T08:57:18Z</time>
      </trkpt>
      <trkpt lat="45.43117" lon="5.71276">
        <ele>564</ele>
        <time>2022-04-15T08:57:19Z</time>
      </trkpt>
      <trkpt lat="45.43122" lon="5.71286">
        <ele>563.6</ele>
        <time>2022-04-15T08:57:20Z</time>
      </trkpt>
      <trkpt lat="45.43127" lon="5.71297">
        <ele>563.2</ele>
        <time>2022-04-15T08:57:21Z</time>
      </trkpt>
      <trkpt lat="45.43132" lon="5.71308">
        <ele>562.7</ele>
        <time>2022-04-15T08:57:22Z</time>
      </trkpt>
      <trkpt lat="45.43135" lon="5.71319">
        <ele>562.3</ele>
        <time>2022-04-15T08:57:23Z</time>
      </trkpt>
      <trkpt lat="45.43135" lon="5.71331">
        <ele>561.7</ele>
        <time>2022-04-15T08:57:24Z</time>
      </trkpt>
      <trkpt lat="45.43133" lon="5.71343">
        <ele>561.2</ele>
        <time>2022-04-15T08:57:25Z</time>
      </trkpt>
      <trkpt lat="45.43129" lon="5.71354">
        <ele>560.5</ele>
        <time>2022-04-15T08:57:26Z</time>
      </trkpt>
      <trkpt lat="45.43122" lon="5.71362">
        <ele>559.9</ele>
        <time>2022-04-15T08:57:27Z</time>
      </trkpt>
      <trkpt lat="45.43114" lon="5.71367">
        <ele>559.8</ele>
        <time>2022-04-15T08:57:28Z</time>
      </trkpt>
      <trkpt lat="45.43104" lon="5.71368">
        <ele>558.8</ele>
        <time>2022-04-15T08:57:29Z</time>
      </trkpt>
      <trkpt lat="45.43095" lon="5.71366">
        <ele>557.9</ele>
        <time>2022-04-15T08:57:30Z</time>
      </trkpt>
      <trkpt lat="45.43085" lon="5.71363">
        <ele>557</ele>
        <time>2022-04-15T08:57:31Z</time>
      </trkpt>
      <trkpt lat="45.43075" lon="5.7136">
        <ele>556.1</ele>
        <time>2022-04-15T08:57:32Z</time>
      </trkpt>
      <trkpt lat="45.43065" lon="5.71358">
        <ele>555.3</ele>
        <time>2022-04-15T08:57:33Z</time>
      </trkpt>
      <trkpt lat="45.43055" lon="5.71355">
        <ele>554.5</ele>
        <time>2022-04-15T08:57:34Z</time>
      </trkpt>
      <trkpt lat="45.43045" lon="5.71352">
        <ele>553.7</ele>
        <time>2022-04-15T08:57:35Z</time>
      </trkpt>
      <trkpt lat="45.43035" lon="5.7135">
        <ele>552.9</ele>
        <time>2022-04-15T08:57:36Z</time>
      </trkpt>
      <trkpt lat="45.43025" lon="5.71348">
        <ele>552.1</ele>
        <time>2022-04-15T08:57:37Z</time>
      </trkpt>
      <trkpt lat="45.43015" lon="5.71346">
        <ele>551.2</ele>
        <time>2022-04-15T08:57:38Z</time>
      </trkpt>
      <trkpt lat="45.43004" lon="5.71344">
        <ele>550.4</ele>
        <time>2022-04-15T08:57:39Z</time>
      </trkpt>
      <trkpt lat="45.42994" lon="5.71343">
        <ele>549.8</ele>
        <time>2022-04-15T08:57:40Z</time>
      </trkpt>
      <trkpt lat="45.42983" lon="5.71341">
        <ele>549.5</ele>
        <time>2022-04-15T08:57:41Z</time>
      </trkpt>
      <trkpt lat="45.42972" lon="5.7134">
        <ele>549.2</ele>
        <time>2022-04-15T08:57:42Z</time>
      </trkpt>
      <trkpt lat="45.42962" lon="5.71339">
        <ele>549</ele>
        <time>2022-04-15T08:57:43Z</time>
      </trkpt>
      <trkpt lat="45.42953" lon="5.71337">
        <ele>548.7</ele>
        <time>2022-04-15T08:57:44Z</time>
      </trkpt>
      <trkpt lat="45.42945" lon="5.71336">
        <ele>548.4</ele>
        <time>2022-04-15T08:57:45Z</time>
      </trkpt>
      <trkpt lat="45.42937" lon="5.71337">
        <ele>548</ele>
        <time>2022-04-15T08:57:46Z</time>
      </trkpt>
      <trkpt lat="45.42931" lon="5.71342">
        <ele>547.4</ele>
        <time>2022-04-15T08:57:47Z</time>
      </trkpt>
      <trkpt lat="45.42926" lon="5.71352">
        <ele>546.7</ele>
        <time>2022-04-15T08:57:48Z</time>
      </trkpt>
      <trkpt lat="45.42923" lon="5.71363">
        <ele>545.8</ele>
        <time>2022-04-15T08:57:49Z</time>
      </trkpt>
      <trkpt lat="45.42922" lon="5.71376">
        <ele>544.8</ele>
        <time>2022-04-15T08:57:50Z</time>
      </trkpt>
      <trkpt lat="45.42922" lon="5.71389">
        <ele>543.8</ele>
        <time>2022-04-15T08:57:51Z</time>
      </trkpt>
      <trkpt lat="45.42923" lon="5.71402">
        <ele>542.9</ele>
        <time>2022-04-15T08:57:52Z</time>
      </trkpt>
      <trkpt lat="45.42925" lon="5.71415">
        <ele>542</ele>
        <time>2022-04-15T08:57:53Z</time>
      </trkpt>
      <trkpt lat="45.42928" lon="5.71427">
        <ele>541.2</ele>
        <time>2022-04-15T08:57:54Z</time>
      </trkpt>
      <trkpt lat="45.42932" lon="5.71439">
        <ele>540.3</ele>
        <time>2022-04-15T08:57:55Z</time>
      </trkpt>
      <trkpt lat="45.42936" lon="5.71451">
        <ele>539.5</ele>
        <time>2022-04-15T08:57:56Z</time>
      </trkpt>
      <trkpt lat="45.42942" lon="5.71462">
        <ele>538.7</ele>
        <time>2022-04-15T08:57:57Z</time>
      </trkpt>
      <trkpt lat="45.42946" lon="5.71474">
        <ele>537.9</ele>
        <time>2022-04-15T08:57:58Z</time>
      </trkpt>
      <trkpt lat="45.42951" lon="5.71486">
        <ele>537.2</ele>
        <time>2022-04-15T08:57:59Z</time>
      </trkpt>
      <trkpt lat="45.42956" lon="5.71497">
        <ele>536.5</ele>
        <time>2022-04-15T08:58:00Z</time>
      </trkpt>
      <trkpt lat="45.42962" lon="5.71509">
        <ele>535.9</ele>
        <time>2022-04-15T08:58:01Z</time>
      </trkpt>
      <trkpt lat="45.42968" lon="5.7152">
        <ele>535.4</ele>
        <time>2022-04-15T08:58:02Z</time>
      </trkpt>
      <trkpt lat="45.42973" lon="5.71531">
        <ele>534.8</ele>
        <time>2022-04-15T08:58:03Z</time>
      </trkpt>
      <trkpt lat="45.42979" lon="5.71541">
        <ele>534.2</ele>
        <time>2022-04-15T08:58:04Z</time>
      </trkpt>
      <trkpt lat="45.42987" lon="5.71551">
        <ele>533.6</ele>
        <time>2022-04-15T08:58:05Z</time>
      </trkpt>
      <trkpt lat="45.42996" lon="5.71557">
        <ele>532.8</ele>
        <time>2022-04-15T08:58:06Z</time>
      </trkpt>
      <trkpt lat="45.43005" lon="5.7156">
        <ele>532</ele>
        <time>2022-04-15T08:58:07Z</time>
      </trkpt>
      <trkpt lat="45.43015" lon="5.71561">
        <ele>531.1</ele>
        <time>2022-04-15T08:58:08Z</time>
      </trkpt>
      <trkpt lat="45.43026" lon="5.71561">
        <ele>530.1</ele>
        <time>2022-04-15T08:58:09Z</time>
      </trkpt>
      <trkpt lat="45.43036" lon="5.71561">
        <ele>529.3</ele>
        <time>2022-04-15T08:58:10Z</time>
      </trkpt>
      <trkpt lat="45.43046" lon="5.71563">
        <ele>528.5</ele>
        <time>2022-04-15T08:58:11Z</time>
      </trkpt>
      <trkpt lat="45.43056" lon="5.71564">
        <ele>527.7</ele>
        <time>2022-04-15T08:58:12Z</time>
      </trkpt>
      <trkpt lat="45.43066" lon="5.71569">
        <ele>526.9</ele>
        <time>2022-04-15T08:58:13Z</time>
      </trkpt>
      <trkpt lat="45.43075" lon="5.71575">
        <ele>526.2</ele>
        <time>2022-04-15T08:58:14Z</time>
      </trkpt>
      <trkpt lat="45.43084" lon="5.71584">
        <ele>525.6</ele>
        <time>2022-04-15T08:58:15Z</time>
      </trkpt>
      <trkpt lat="45.43091" lon="5.71593">
        <ele>524.8</ele>
        <time>2022-04-15T08:58:16Z</time>
      </trkpt>
      <trkpt lat="45.43098" lon="5.71605">
        <ele>524</ele>
        <time>2022-04-15T08:58:17Z</time>
      </trkpt>
      <trkpt lat="45.43104" lon="5.71619">
        <ele>523.1</ele>
        <time>2022-04-15T08:58:18Z</time>
      </trkpt>
      <trkpt lat="45.43106" lon="5.71634">
        <ele>522</ele>
        <time>2022-04-15T08:58:19Z</time>
      </trkpt>
      <trkpt lat="45.43108" lon="5.7165">
        <ele>521</ele>
        <time>2022-04-15T08:58:20Z</time>
      </trkpt>
      <trkpt lat="45.43109" lon="5.71666">
        <ele>519.9</ele>
        <time>2022-04-15T08:58:21Z</time>
      </trkpt>
      <trkpt lat="45.43111" lon="5.71681">
        <ele>518.9</ele>
        <time>2022-04-15T08:58:22Z</time>
      </trkpt>
      <trkpt lat="45.43115" lon="5.71696">
        <ele>517.9</ele>
        <time>2022-04-15T08:58:23Z</time>
      </trkpt>
      <trkpt lat="45.4312" lon="5.7171">
        <ele>517</ele>
        <time>2022-04-15T08:58:24Z</time>
      </trkpt>
      <trkpt lat="45.43125" lon="5.71724">
        <ele>516.1</ele>
        <time>2022-04-15T08:58:25Z</time>
      </trkpt>
      <trkpt lat="45.4313" lon="5.71738">
        <ele>515.2</ele>
        <time>2022-04-15T08:58:26Z</time>
      </trkpt>
      <trkpt lat="45.43136" lon="5.71751">
        <ele>514.3</ele>
        <time>2022-04-15T08:58:27Z</time>
      </trkpt>
      <trkpt lat="45.43142" lon="5.71764">
        <ele>513.3</ele>
        <time>2022-04-15T08:58:28Z</time>
      </trkpt>
      <trkpt lat="45.4315" lon="5.71775">
        <ele>512.4</ele>
        <time>2022-04-15T08:58:29Z</time>
      </trkpt>
      <trkpt lat="45.43158" lon="5.71785">
        <ele>511.4</ele>
        <time>2022-04-15T08:58:30Z</time>
      </trkpt>
      <trkpt lat="45.43167" lon="5.71794">
        <ele>510.5</ele>
        <time>2022-04-15T08:58:31Z</time>
      </trkpt>
      <trkpt lat="45.43176" lon="5.71803">
        <ele>509.5</ele>
        <time>2022-04-15T08:58:32Z</time>
      </trkpt>
      <trkpt lat="45.43185" lon="5.71811">
        <ele>508.6</ele>
        <time>2022-04-15T08:58:33Z</time>
      </trkpt>
      <trkpt lat="45.43195" lon="5.7182">
        <ele>507.6</ele>
        <time>2022-04-15T08:58:34Z</time>
      </trkpt>
      <trkpt lat="45.43203" lon="5.71829">
        <ele>506.8</ele>
        <time>2022-04-15T08:58:35Z</time>
      </trkpt>
      <trkpt lat="45.43212" lon="5.71839">
        <ele>505.9</ele>
        <time>2022-04-15T08:58:36Z</time>
      </trkpt>
      <trkpt lat="45.4322" lon="5.7185">
        <ele>505.1</ele>
        <time>2022-04-15T08:58:37Z</time>
      </trkpt>
      <trkpt lat="45.43227" lon="5.71861">
        <ele>504.3</ele>
        <time>2022-04-15T08:58:38Z</time>
      </trkpt>
      <trkpt lat="45.43235" lon="5.71871">
        <ele>503.6</ele>
        <time>2022-04-15T08:58:39Z</time>
      </trkpt>
      <trkpt lat="45.43244" lon="5.71879">
        <ele>502.9</ele>
        <time>2022-04-15T08:58:40Z</time>
      </trkpt>
      <trkpt lat="45.43253" lon="5.71887">
        <ele>502.1</ele>
        <time>2022-04-15T08:58:41Z</time>
      </trkpt>
      <trkpt lat="45.43263" lon="5.71893">
        <ele>501.4</ele>
        <time>2022-04-15T08:58:42Z</time>
      </trkpt>
      <trkpt lat="45.43272" lon="5.71901">
        <ele>500.7</ele>
        <time>2022-04-15T08:58:43Z</time>
      </trkpt>
      <trkpt lat="45.43281" lon="5.71908">
        <ele>500.1</ele>
        <time>2022-04-15T08:58:44Z</time>
      </trkpt>
      <trkpt lat="45.4329" lon="5.71917">
        <ele>499.4</ele>
        <time>2022-04-15T08:58:45Z</time>
      </trkpt>
      <trkpt lat="45.43299" lon="5.71927">
        <ele>498.6</ele>
        <time>2022-04-15T08:58:46Z</time>
      </trkpt>
      <trkpt lat="45.43307" lon="5.71938">
        <ele>497.8</ele>
        <time>2022-04-15T08:58:47Z</time>
      </trkpt>
      <trkpt lat="45.43314" lon="5.71951">
        <ele>496.9</ele>
        <time>2022-04-15T08:58:48Z</time>
      </trkpt>
      <trkpt lat="45.4332" lon="5.71964">
        <ele>496</ele>
        <time>2022-04-15T08:58:49Z</time>
      </trkpt>
      <trkpt lat="45.43325" lon="5.71979">
        <ele>495.1</ele>
        <time>2022-04-15T08:58:50Z</time>
      </trkpt>
      <trkpt lat="45.43328" lon="5.71993">
        <ele>494.2</ele>
        <time>2022-04-15T08:58:51Z</time>
      </trkpt>
      <trkpt lat="45.43331" lon="5.72009">
        <ele>493.4</ele>
        <time>2022-04-15T08:58:52Z</time>
      </trkpt>
      <trkpt lat="45.43331" lon="5.72024">
        <ele>492.5</ele>
        <time>2022-04-15T08:58:53Z</time>
      </trkpt>
      <trkpt lat="45.43328" lon="5.72038">
        <ele>491.7</ele>
        <time>2022-04-15T08:58:54Z</time>
      </trkpt>
      <trkpt lat="45.43325" lon="5.72052">
        <ele>490.8</ele>
        <time>2022-04-15T08:58:55Z</time>
      </trkpt>
      <trkpt lat="45.43322" lon="5.72067">
        <ele>490</ele>
        <time>2022-04-15T08:58:56Z</time>
      </trkpt>
      <trkpt lat="45.43321" lon="5.72081">
        <ele>489.2</ele>
        <time>2022-04-15T08:58:57Z</time>
      </trkpt>
      <trkpt lat="45.43321" lon="5.72096">
        <ele>488.4</ele>
        <time>2022-04-15T08:58:58Z</time>
      </trkpt>
      <trkpt lat="45.43322" lon="5.72111">
        <ele>487.6</ele>
        <time>2022-04-15T08:58:59Z</time>
      </trkpt>
      <trkpt lat="45.43324" lon="5.72127">
        <ele>486.8</ele>
        <time>2022-04-15T08:59:00Z</time>
      </trkpt>
      <trkpt lat="45.43325" lon="5.72142">
        <ele>486.1</ele>
        <time>2022-04-15T08:59:01Z</time>
      </trkpt>
      <trkpt lat="45.43327" lon="5.72157">
        <ele>485.5</ele>
        <time>2022-04-15T08:59:02Z</time>
      </trkpt>
      <trkpt lat="45.43327" lon="5.72171">
        <ele>484.9</ele>
        <time>2022-04-15T08:59:03Z</time>
      </trkpt>
      <trkpt lat="45.43327" lon="5.72186">
        <ele>484.5</ele>
        <time>2022-04-15T08:59:04Z</time>
      </trkpt>
      <trkpt lat="45.43326" lon="5.722">
        <ele>484</ele>
        <time>2022-04-15T08:59:05Z</time>
      </trkpt>
      <trkpt lat="45.43325" lon="5.72214">
        <ele>483.5</ele>
        <time>2022-04-15T08:59:06Z</time>
      </trkpt>
      <trkpt lat="45.43324" lon="5.72226">
        <ele>482.9</ele>
        <time>2022-04-15T08:59:07Z</time>
      </trkpt>
      <trkpt lat="45.43325" lon="5.72237">
        <ele>482.3</ele>
        <time>2022-04-15T08:59:08Z</time>
      </trkpt>
      <trkpt lat="45.43329" lon="5.72246">
        <ele>481.7</ele>
        <time>2022-04-15T08:59:09Z</time>
      </trkpt>
      <trkpt lat="45.43335" lon="5.72254">
        <ele>480.9</ele>
        <time>2022-04-15T08:59:10Z</time>
      </trkpt>
      <trkpt lat="45.43343" lon="5.7226">
        <ele>480</ele>
        <time>2022-04-15T08:59:11Z</time>
      </trkpt>
      <trkpt lat="45.43351" lon="5.72265">
        <ele>479.2</ele>
        <time>2022-04-15T08:59:12Z</time>
      </trkpt>
      <trkpt lat="45.43359" lon="5.72269">
        <ele>478.3</ele>
        <time>2022-04-15T08:59:13Z</time>
      </trkpt>
      <trkpt lat="45.43368" lon="5.72273">
        <ele>477.5</ele>
        <time>2022-04-15T08:59:14Z</time>
      </trkpt>
      <trkpt lat="45.43377" lon="5.72276">
        <ele>476.7</ele>
        <time>2022-04-15T08:59:15Z</time>
      </trkpt>
      <trkpt lat="45.43385" lon="5.7228">
        <ele>475.9</ele>
        <time>2022-04-15T08:59:16Z</time>
      </trkpt>
      <trkpt lat="45.43395" lon="5.72284">
        <ele>475</ele>
        <time>2022-04-15T08:59:17Z</time>
      </trkpt>
      <trkpt lat="45.43404" lon="5.72288">
        <ele>474.2</ele>
        <time>2022-04-15T08:59:18Z</time>
      </trkpt>
      <trkpt lat="45.43413" lon="5.72292">
        <ele>473.5</ele>
        <time>2022-04-15T08:59:19Z</time>
      </trkpt>
      <trkpt lat="45.43422" lon="5.72297">
        <ele>472.7</ele>
        <time>2022-04-15T08:59:20Z</time>
      </trkpt>
      <trkpt lat="45.43431" lon="5.72302">
        <ele>471.9</ele>
        <time>2022-04-15T08:59:21Z</time>
      </trkpt>
      <trkpt lat="45.43441" lon="5.72307">
        <ele>471.1</ele>
        <time>2022-04-15T08:59:22Z</time>
      </trkpt>
      <trkpt lat="45.4345" lon="5.72312">
        <ele>470.3</ele>
        <time>2022-04-15T08:59:23Z</time>
      </trkpt>
      <trkpt lat="45.43459" lon="5.72318">
        <ele>469.5</ele>
        <time>2022-04-15T08:59:24Z</time>
      </trkpt>
      <trkpt lat="45.43468" lon="5.72323">
        <ele>468.8</ele>
        <time>2022-04-15T08:59:25Z</time>
      </trkpt>
      <trkpt lat="45.43477" lon="5.72329">
        <ele>468</ele>
        <time>2022-04-15T08:59:26Z</time>
      </trkpt>
      <trkpt lat="45.43487" lon="5.72334">
        <ele>467.1</ele>
        <time>2022-04-15T08:59:27Z</time>
      </trkpt>
      <trkpt lat="45.43497" lon="5.7234">
        <ele>466.3</ele>
        <time>2022-04-15T08:59:28Z</time>
      </trkpt>
      <trkpt lat="45.43506" lon="5.72346">
        <ele>465.4</ele>
        <time>2022-04-15T08:59:29Z</time>
      </trkpt>
      <trkpt lat="45.43515" lon="5.72352">
        <ele>464.6</ele>
        <time>2022-04-15T08:59:30Z</time>
      </trkpt>
      <trkpt lat="45.43525" lon="5.72357">
        <ele>463.7</ele>
        <time>2022-04-15T08:59:31Z</time>
      </trkpt>
      <trkpt lat="45.43535" lon="5.72363">
        <ele>462.8</ele>
        <time>2022-04-15T08:59:32Z</time>
      </trkpt>
      <trkpt lat="45.43544" lon="5.72369">
        <ele>462</ele>
        <time>2022-04-15T08:59:33Z</time>
      </trkpt>
      <trkpt lat="45.43554" lon="5.72376">
        <ele>461.2</ele>
        <time>2022-04-15T08:59:34Z</time>
      </trkpt>
      <trkpt lat="45.43563" lon="5.72382">
        <ele>460.4</ele>
        <time>2022-04-15T08:59:35Z</time>
      </trkpt>
      <trkpt lat="45.43572" lon="5.72389">
        <ele>459.6</ele>
        <time>2022-04-15T08:59:36Z</time>
      </trkpt>
      <trkpt lat="45.43581" lon="5.72396">
        <ele>458.7</ele>
        <time>2022-04-15T08:59:37Z</time>
      </trkpt>
      <trkpt lat="45.43591" lon="5.72403">
        <ele>457.9</ele>
        <time>2022-04-15T08:59:38Z</time>
      </trkpt>
      <trkpt lat="45.436" lon="5.72411">
        <ele>457.1</ele>
        <time>2022-04-15T08:59:39Z</time>
      </trkpt>
      <trkpt lat="45.43609" lon="5.72418">
        <ele>456.4</ele>
        <time>2022-04-15T08:59:40Z</time>
      </trkpt>
      <trkpt lat="45.43617" lon="5.72426">
        <ele>455.7</ele>
        <time>2022-04-15T08:59:41Z</time>
      </trkpt>
      <trkpt lat="45.43626" lon="5.72435">
        <ele>455</ele>
        <time>2022-04-15T08:59:42Z</time>
      </trkpt>
      <trkpt lat="45.43634" lon="5.72443">
        <ele>454.4</ele>
        <time>2022-04-15T08:59:43Z</time>
      </trkpt>
      <trkpt lat="45.43642" lon="5.72452">
        <ele>453.9</ele>
        <time>2022-04-15T08:59:44Z</time>
      </trkpt>
      <trkpt lat="45.4365" lon="5.7246">
        <ele>453.4</ele>
        <time>2022-04-15T08:59:45Z</time>
      </trkpt>
      <trkpt lat="45.43657" lon="5.7247">
        <ele>453.1</ele>
        <time>2022-04-15T08:59:46Z</time>
      </trkpt>
      <trkpt lat="45.43663" lon="5.7248">
        <ele>452.7</ele>
        <time>2022-04-15T08:59:47Z</time>
      </trkpt>
      <trkpt lat="45.43669" lon="5.72491">
        <ele>452.4</ele>
        <time>2022-04-15T08:59:48Z</time>
      </trkpt>
      <trkpt lat="45.43674" lon="5.72502">
        <ele>452.1</ele>
        <time>2022-04-15T08:59:49Z</time>
      </trkpt>
      <trkpt lat="45.43678" lon="5.72514">
        <ele>451.7</ele>
        <time>2022-04-15T08:59:50Z</time>
      </trkpt>
      <trkpt lat="45.43681" lon="5.72526">
        <ele>451.5</ele>
        <time>2022-04-15T08:59:51Z</time>
      </trkpt>
      <trkpt lat="45.43681" lon="5.72539">
        <ele>451.2</ele>
        <time>2022-04-15T08:59:52Z</time>
      </trkpt>
      <trkpt lat="45.43679" lon="5.72551">
        <ele>450.9</ele>
        <time>2022-04-15T08:59:53Z</time>
      </trkpt>
      <trkpt lat="45.43674" lon="5.72561">
        <ele>450.6</ele>
        <time>2022-04-15T08:59:54Z</time>
      </trkpt>
      <trkpt lat="45.43669" lon="5.72566">
        <ele>450.4</ele>
        <time>2022-04-15T08:59:55Z</time>
      </trkpt>
      <trkpt lat="45.43659" lon="5.72566">
        <ele>450</ele>
        <time>2022-04-15T08:59:56Z</time>
      </trkpt>
      <trkpt lat="45.4365" lon="5.72565">
        <ele>449.5</ele>
        <time>2022-04-15T08:59:57Z</time>
      </trkpt>
      <trkpt lat="45.43641" lon="5.72565">
        <ele>449</ele>
        <time>2022-04-15T08:59:58Z</time>
      </trkpt>
      <trkpt lat="45.43633" lon="5.72568">
        <ele>448.4</ele>
        <time>2022-04-15T08:59:59Z</time>
      </trkpt>
      <trkpt lat="45.43624" lon="5.72572">
        <ele>447.8</ele>
        <time>2022-04-15T09:00:00Z</time>
      </trkpt>
      <trkpt lat="45.43616" lon="5.72577">
        <ele>447.1</ele>
        <time>2022-04-15T09:00:01Z</time>
      </trkpt>
      <trkpt lat="45.43608" lon="5.72584">
        <ele>446.4</ele>
        <time>2022-04-15T09:00:02Z</time>
      </trkpt>
      <trkpt lat="45.43601" lon="5.72592">
        <ele>445.7</ele>
        <time>2022-04-15T09:00:03Z</time>
      </trkpt>
      <trkpt lat="45.43593" lon="5.72601">
        <ele>445</ele>
        <time>2022-04-15T09:00:04Z</time>
      </trkpt>
      <trkpt lat="45.43586" lon="5.7261">
        <ele>444.2</ele>
        <time>2022-04-15T09:00:05Z</time>
      </trkpt>
      <trkpt lat="45.43577" lon="5.72619">
        <ele>443.4</ele>
        <time>2022-04-15T09:00:06Z</time>
      </trkpt>
      <trkpt lat="45.4357" lon="5.72627">
        <ele>442.6</ele>
        <time>2022-04-15T09:00:07Z</time>
      </trkpt>
      <trkpt lat="45.43563" lon="5.72635">
        <ele>441.9</ele>
        <time>2022-04-15T09:00:08Z</time>
      </trkpt>
      <trkpt lat="45.43558" lon="5.72642">
        <ele>441.3</ele>
        <time>2022-04-15T09:00:09Z</time>
      </trkpt>
      <trkpt lat="45.43556" lon="5.72651">
        <ele>440.7</ele>
        <time>2022-04-15T09:00:10Z</time>
      </trkpt>
      <trkpt lat="45.43558" lon="5.72662">
        <ele>440</ele>
        <time>2022-04-15T09:00:11Z</time>
      </trkpt>
      <trkpt lat="45.43562" lon="5.72673">
        <ele>439.2</ele>
        <time>2022-04-15T09:00:12Z</time>
      </trkpt>
      <trkpt lat="45.43568" lon="5.72683">
        <ele>438.4</ele>
        <time>2022-04-15T09:00:13Z</time>
      </trkpt>
      <trkpt lat="45.43574" lon="5.72692">
        <ele>437.7</ele>
        <time>2022-04-15T09:00:14Z</time>
      </trkpt>
      <trkpt lat="45.43581" lon="5.727">
        <ele>437</ele>
        <time>2022-04-15T09:00:15Z</time>
      </trkpt>
      <trkpt lat="45.43587" lon="5.72708">
        <ele>436.4</ele>
        <time>2022-04-15T09:00:16Z</time>
      </trkpt>
      <trkpt lat="45.43594" lon="5.72716">
        <ele>435.7</ele>
        <time>2022-04-15T09:00:17Z</time>
      </trkpt>
      <trkpt lat="45.43601" lon="5.72724">
        <ele>435</ele>
        <time>2022-04-15T09:00:18Z</time>
      </trkpt>
      <trkpt lat="45.43609" lon="5.72732">
        <ele>434.3</ele>
        <time>2022-04-15T09:00:19Z</time>
      </trkpt>
      <trkpt lat="45.43616" lon="5.72741">
        <ele>433.6</ele>
        <time>2022-04-15T09:00:20Z</time>
      </trkpt>
      <trkpt lat="45.43622" lon="5.7275">
        <ele>433</ele>
        <time>2022-04-15T09:00:21Z</time>
      </trkpt>
      <trkpt lat="45.43628" lon="5.72761">
        <ele>432.3</ele>
        <time>2022-04-15T09:00:22Z</time>
      </trkpt>
      <trkpt lat="45.43633" lon="5.72773">
        <ele>431.5</ele>
        <time>2022-04-15T09:00:23Z</time>
      </trkpt>
      <trkpt lat="45.43637" lon="5.72785">
        <ele>430.8</ele>
        <time>2022-04-15T09:00:24Z</time>
      </trkpt>
      <trkpt lat="45.4364" lon="5.72798">
        <ele>430.1</ele>
        <time>2022-04-15T09:00:25Z</time>
      </trkpt>
      <trkpt lat="45.43642" lon="5.72812">
        <ele>429.3</ele>
        <time>2022-04-15T09:00:26Z</time>
      </trkpt>
      <trkpt lat="45.43642" lon="5.72827">
        <ele>428.4</ele>
        <time>2022-04-15T09:00:27Z</time>
      </trkpt>
      <trkpt lat="45.43641" lon="5.72841">
        <ele>427.5</ele>
        <time>2022-04-15T09:00:28Z</time>
      </trkpt>
      <trkpt lat="45.43639" lon="5.72856">
        <ele>426.6</ele>
        <time>2022-04-15T09:00:29Z</time>
      </trkpt>
      <trkpt lat="45.43636" lon="5.72871">
        <ele>425.8</ele>
        <time>2022-04-15T09:00:30Z</time>
      </trkpt>
      <trkpt lat="45.43634" lon="5.72885">
        <ele>424.9</ele>
        <time>2022-04-15T09:00:31Z</time>
      </trkpt>
      <trkpt lat="45.43632" lon="5.72901">
        <ele>424.1</ele>
        <time>2022-04-15T09:00:32Z</time>
      </trkpt>
      <trkpt lat="45.4363" lon="5.72916">
        <ele>423.3</ele>
        <time>2022-04-15T09:00:33Z</time>
      </trkpt>
      <trkpt lat="45.43629" lon="5.72931">
        <ele>422.6</ele>
        <time>2022-04-15T09:00:34Z</time>
      </trkpt>
      <trkpt lat="45.43627" lon="5.72947">
        <ele>421.8</ele>
        <time>2022-04-15T09:00:35Z</time>
      </trkpt>
      <trkpt lat="45.43625" lon="5.72962">
        <ele>421.1</ele>
        <time>2022-04-15T09:00:36Z</time>
      </trkpt>
      <trkpt lat="45.43624" lon="5.72977">
        <ele>420.8</ele>
        <time>2022-04-15T09:00:37Z</time>
      </trkpt>
      <trkpt lat="45.43623" lon="5.72993">
        <ele>421</ele>
        <time>2022-04-15T09:00:38Z</time>
      </trkpt>
      <trkpt lat="45.43623" lon="5.73008">
        <ele>420.2</ele>
        <time>2022-04-15T09:00:39Z</time>
      </trkpt>
      <trkpt lat="45.43624" lon="5.73024">
        <ele>419.2</ele>
        <time>2022-04-15T09:00:40Z</time>
      </trkpt>
      <trkpt lat="45.43625" lon="5.7304">
        <ele>418.3</ele>
        <time>2022-04-15T09:00:41Z</time>
      </trkpt>
      <trkpt lat="45.43626" lon="5.73056">
        <ele>417.3</ele>
        <time>2022-04-15T09:00:42Z</time>
      </trkpt>
      <trkpt lat="45.43625" lon="5.73072">
        <ele>416.2</ele>
        <time>2022-04-15T09:00:43Z</time>
      </trkpt>
      <trkpt lat="45.43624" lon="5.73088">
        <ele>415.2</ele>
        <time>2022-04-15T09:00:44Z</time>
      </trkpt>
      <trkpt lat="45.43623" lon="5.73105">
        <ele>414.1</ele>
        <time>2022-04-15T09:00:45Z</time>
      </trkpt>
      <trkpt lat="45.43622" lon="5.73121">
        <ele>413.1</ele>
        <time>2022-04-15T09:00:46Z</time>
      </trkpt>
      <trkpt lat="45.43624" lon="5.73137">
        <ele>412</ele>
        <time>2022-04-15T09:00:47Z</time>
      </trkpt>
      <trkpt lat="45.43626" lon="5.73153">
        <ele>411</ele>
        <time>2022-04-15T09:00:48Z</time>
      </trkpt>
      <trkpt lat="45.43629" lon="5.73169">
        <ele>409.9</ele>
        <time>2022-04-15T09:00:49Z</time>
      </trkpt>
      <trkpt lat="45.43633" lon="5.73186">
        <ele>408.8</ele>
        <time>2022-04-15T09:00:50Z</time>
      </trkpt>
      <trkpt lat="45.43635" lon="5.73202">
        <ele>407.8</ele>
        <time>2022-04-15T09:00:51Z</time>
      </trkpt>
      <trkpt lat="45.43638" lon="5.73219">
        <ele>406.7</ele>
        <time>2022-04-15T09:00:52Z</time>
      </trkpt>
      <trkpt lat="45.4364" lon="5.73235">
        <ele>405.7</ele>
        <time>2022-04-15T09:00:53Z</time>
      </trkpt>
      <trkpt lat="45.43643" lon="5.73252">
        <ele>404.8</ele>
        <time>2022-04-15T09:00:54Z</time>
      </trkpt>
      <trkpt lat="45.43644" lon="5.73269">
        <ele>403.9</ele>
        <time>2022-04-15T09:00:55Z</time>
      </trkpt>
      <trkpt lat="45.43644" lon="5.73286">
        <ele>403</ele>
        <time>2022-04-15T09:00:56Z</time>
      </trkpt>
      <trkpt lat="45.43645" lon="5.73301">
        <ele>402.3</ele>
        <time>2022-04-15T09:00:57Z</time>
      </trkpt>
      <trkpt lat="45.43645" lon="5.73316">
        <ele>401.5</ele>
        <time>2022-04-15T09:00:58Z</time>
      </trkpt>
      <trkpt lat="45.43647" lon="5.7333">
        <ele>400.7</ele>
        <time>2022-04-15T09:00:59Z</time>
      </trkpt>
      <trkpt lat="45.43649" lon="5.73341">
        <ele>400</ele>
        <time>2022-04-15T09:01:00Z</time>
      </trkpt>
      <trkpt lat="45.43654" lon="5.73351">
        <ele>399.3</ele>
        <time>2022-04-15T09:01:01Z</time>
      </trkpt>
      <trkpt lat="45.43661" lon="5.73359">
        <ele>398.5</ele>
        <time>2022-04-15T09:01:02Z</time>
      </trkpt>
      <trkpt lat="45.43669" lon="5.73366">
        <ele>397.5</ele>
        <time>2022-04-15T09:01:03Z</time>
      </trkpt>
      <trkpt lat="45.43677" lon="5.73373">
        <ele>396.6</ele>
        <time>2022-04-15T09:01:04Z</time>
      </trkpt>
      <trkpt lat="45.43685" lon="5.73381">
        <ele>395.6</ele>
        <time>2022-04-15T09:01:05Z</time>
      </trkpt>
      <trkpt lat="45.43693" lon="5.73391">
        <ele>394.7</ele>
        <time>2022-04-15T09:01:06Z</time>
      </trkpt>
      <trkpt lat="45.43701" lon="5.73402">
        <ele>393.7</ele>
        <time>2022-04-15T09:01:07Z</time>
      </trkpt>
      <trkpt lat="45.43707" lon="5.73413">
        <ele>392.7</ele>
        <time>2022-04-15T09:01:08Z</time>
      </trkpt>
      <trkpt lat="45.43714" lon="5.73426">
        <ele>391.6</ele>
        <time>2022-04-15T09:01:09Z</time>
      </trkpt>
      <trkpt lat="45.43719" lon="5.73439">
        <ele>390.8</ele>
        <time>2022-04-15T09:01:10Z</time>
      </trkpt>
      <trkpt lat="45.43722" lon="5.73453">
        <ele>390.1</ele>
        <time>2022-04-15T09:01:11Z</time>
      </trkpt>
      <trkpt lat="45.43725" lon="5.73468">
        <ele>389.5</ele>
        <time>2022-04-15T09:01:12Z</time>
      </trkpt>
      <trkpt lat="45.43727" lon="5.73483">
        <ele>389</ele>
        <time>2022-04-15T09:01:13Z</time>
      </trkpt>
      <trkpt lat="45.43729" lon="5.73497">
        <ele>388.6</ele>
        <time>2022-04-15T09:01:14Z</time>
      </trkpt>
      <trkpt lat="45.4373" lon="5.73512">
        <ele>388.4</ele>
        <time>2022-04-15T09:01:15Z</time>
      </trkpt>
      <trkpt lat="45.43731" lon="5.73526">
        <ele>388.5</ele>
        <time>2022-04-15T09:01:16Z</time>
      </trkpt>
      <trkpt lat="45.43732" lon="5.7354">
        <ele>388.2</ele>
        <time>2022-04-15T09:01:17Z</time>
      </trkpt>
      <trkpt lat="45.43733" lon="5.73554">
        <ele>387.9</ele>
        <time>2022-04-15T09:01:18Z</time>
      </trkpt>
      <trkpt lat="45.43734" lon="5.73567">
        <ele>387.7</ele>
        <time>2022-04-15T09:01:19Z</time>
      </trkpt>
      <trkpt lat="45.43736" lon="5.7358">
        <ele>387.4</ele>
        <time>2022-04-15T09:01:20Z</time>
      </trkpt>
      <trkpt lat="45.43737" lon="5.73593">
        <ele>387.2</ele>
        <time>2022-04-15T09:01:21Z</time>
      </trkpt>
      <trkpt lat="45.43739" lon="5.73605">
        <ele>387.1</ele>
        <time>2022-04-15T09:01:22Z</time>
      </trkpt>
      <trkpt lat="45.43741" lon="5.73618">
        <ele>387</ele>
        <time>2022-04-15T09:01:23Z</time>
      </trkpt>
      <trkpt lat="45.43742" lon="5.73629">
        <ele>386.9</ele>
        <time>2022-04-15T09:01:24Z</time>
      </trkpt>
      <trkpt lat="45.43744" lon="5.73641">
        <ele>386.9</ele>
        <time>2022-04-15T09:01:25Z</time>
      </trkpt>
      <trkpt lat="45.43746" lon="5.73653">
        <ele>386.9</ele>
        <time>2022-04-15T09:01:26Z</time>
      </trkpt>
      <trkpt lat="45.43748" lon="5.73663">
        <ele>386.8</ele>
        <time>2022-04-15T09:01:27Z</time>
      </trkpt>
      <trkpt lat="45.4375" lon="5.73673">
        <ele>386.7</ele>
        <time>2022-04-15T09:01:28Z</time>
      </trkpt>
      <trkpt lat="45.43752" lon="5.73684">
        <ele>386.6</ele>
        <time>2022-04-15T09:01:29Z</time>
      </trkpt>
      <trkpt lat="45.43754" lon="5.73694">
        <ele>386.5</ele>
        <time>2022-04-15T09:01:30Z</time>
      </trkpt>
      <trkpt lat="45.43755" lon="5.73705">
        <ele>386.5</ele>
        <time>2022-04-15T09:01:31Z</time>
      </trkpt>
      <trkpt lat="45.43757" lon="5.73714">
        <ele>386.5</ele>
        <time>2022-04-15T09:01:32Z</time>
      </trkpt>
      <trkpt lat="45.43759" lon="5.73724">
        <ele>386.5</ele>
        <time>2022-04-15T09:01:33Z</time>
      </trkpt>
      <trkpt lat="45.4376" lon="5.73734">
        <ele>386.5</ele>
        <time>2022-04-15T09:01:34Z</time>
      </trkpt>
      <trkpt lat="45.43761" lon="5.73744">
        <ele>386.5</ele>
        <time>2022-04-15T09:01:35Z</time>
      </trkpt>
      <trkpt lat="45.43762" lon="5.73754">
        <ele>386.5</ele>
        <time>2022-04-15T09:01:36Z</time>
      </trkpt>
      <trkpt lat="45.43762" lon="5.73763">
        <ele>386.5</ele>
        <time>2022-04-15T09:01:37Z</time>
      </trkpt>
      <trkpt lat="45.43763" lon="5.73772">
        <ele>386.5</ele>
        <time>2022-04-15T09:01:38Z</time>
      </trkpt>
      <trkpt lat="45.43764" lon="5.7378">
        <ele>386.5</ele>
        <time>2022-04-15T09:01:39Z</time>
      </trkpt>
      <trkpt lat="45.43765" lon="5.73789">
        <ele>386.5</ele>
        <time>2022-04-15T09:01:40Z</time>
      </trkpt>
      <trkpt lat="45.43766" lon="5.73797">
        <ele>386.5</ele>
        <time>2022-04-15T09:01:41Z</time>
      </trkpt>
      <trkpt lat="45.43766" lon="5.73806">
        <ele>386.5</ele>
        <time>2022-04-15T09:01:42Z</time>
      </trkpt>
      <trkpt lat="45.43767" lon="5.73814">
        <ele>386.5</ele>
        <time>2022-04-15T09:01:43Z</time>
      </trkpt>
      <trkpt lat="45.43769" lon="5.73823">
        <ele>386.5</ele>
        <time>2022-04-15T09:01:44Z</time>
      </trkpt>
      <trkpt lat="45.4377" lon="5.73831">
        <ele>386.5</ele>
        <time>2022-04-15T09:01:45Z</time>
      </trkpt>
      <trkpt lat="45.43771" lon="5.7384">
        <ele>386.5</ele>
        <time>2022-04-15T09:01:46Z</time>
      </trkpt>
      <trkpt lat="45.43772" lon="5.73849">
        <ele>386.5</ele>
        <time>2022-04-15T09:01:47Z</time>
      </trkpt>
      <trkpt lat="45.43773" lon="5.73857">
        <ele>386.4</ele>
        <time>2022-04-15T09:01:48Z</time>
      </trkpt>
      <trkpt lat="45.43773" lon="5.73866">
        <ele>386.4</ele>
        <time>2022-04-15T09:01:49Z</time>
      </trkpt>
      <trkpt lat="45.43773" lon="5.73874">
        <ele>386.4</ele>
        <time>2022-04-15T09:01:50Z</time>
      </trkpt>
      <trkpt lat="45.43772" lon="5.73882">
        <ele>386.4</ele>
        <time>2022-04-15T09:01:51Z</time>
      </trkpt>
      <trkpt lat="45.43771" lon="5.7389">
        <ele>386.4</ele>
        <time>2022-04-15T09:01:52Z</time>
      </trkpt>
      <trkpt lat="45.43768" lon="5.73898">
        <ele>386.5</ele>
        <time>2022-04-15T09:01:53Z</time>
      </trkpt>
      <trkpt lat="45.43766" lon="5.73905">
        <ele>386.5</ele>
        <time>2022-04-15T09:01:54Z</time>
      </trkpt>
      <trkpt lat="45.43762" lon="5.73911">
        <ele>386.6</ele>
        <time>2022-04-15T09:01:55Z</time>
      </trkpt>
      <trkpt lat="45.43759" lon="5.73917">
        <ele>386.6</ele>
        <time>2022-04-15T09:01:56Z</time>
      </trkpt>
      <trkpt lat="45.43755" lon="5.73922">
        <ele>386.6</ele>
        <time>2022-04-15T09:01:57Z</time>
      </trkpt>
      <trkpt lat="45.4375" lon="5.73927">
        <ele>386.7</ele>
        <time>2022-04-15T09:01:58Z</time>
      </trkpt>
      <trkpt lat="45.43746" lon="5.7393">
        <ele>386.6</ele>
        <time>2022-04-15T09:01:59Z</time>
      </trkpt>
      <trkpt lat="45.4374" lon="5.73932">
        <ele>386.6</ele>
        <time>2022-04-15T09:02:00Z</time>
      </trkpt>
      <trkpt lat="45.43735" lon="5.73934">
        <ele>386.5</ele>
        <time>2022-04-15T09:02:01Z</time>
      </trkpt>
      <trkpt lat="45.43729" lon="5.73934">
        <ele>386.5</ele>
        <time>2022-04-15T09:02:02Z</time>
      </trkpt>
      <trkpt lat="45.43723" lon="5.73935">
        <ele>386.5</ele>
        <time>2022-04-15T09:02:03Z</time>
      </trkpt>
      <trkpt lat="45.43717" lon="5.73936">
        <ele>386.4</ele>
        <time>2022-04-15T09:02:04Z</time>
      </trkpt>
      <trkpt lat="45.43711" lon="5.73936">
        <ele>386.4</ele>
        <time>2022-04-15T09:02:05Z</time>
      </trkpt>
      <trkpt lat="45.43706" lon="5.73936">
        <ele>386.4</ele>
        <time>2022-04-15T09:02:06Z</time>
      </trkpt>
      <trkpt lat="45.437" lon="5.73937">
        <ele>386.3</ele>
        <time>2022-04-15T09:02:07Z</time>
      </trkpt>
      <trkpt lat="45.43695" lon="5.73938">
        <ele>386.3</ele>
        <time>2022-04-15T09:02:08Z</time>
      </trkpt>
      <trkpt lat="45.43689" lon="5.7394">
        <ele>386.3</ele>
        <time>2022-04-15T09:02:09Z</time>
      </trkpt>
      <trkpt lat="45.43683" lon="5.73942">
        <ele>386.3</ele>
        <time>2022-04-15T09:02:10Z</time>
      </trkpt>
      <trkpt lat="45.43678" lon="5.73943">
        <ele>386.3</ele>
        <time>2022-04-15T09:02:11Z</time>
      </trkpt>
      <trkpt lat="45.43673" lon="5.73946">
        <ele>386.3</ele>
        <time>2022-04-15T09:02:12Z</time>
      </trkpt>
      <trkpt lat="45.43667" lon="5.73948">
        <ele>386.3</ele>
        <time>2022-04-15T09:02:13Z</time>
      </trkpt>
      <trkpt lat="45.43662" lon="5.73951">
        <ele>386.3</ele>
        <time>2022-04-15T09:02:14Z</time>
      </trkpt>
      <trkpt lat="45.43657" lon="5.73953">
        <ele>386.3</ele>
        <time>2022-04-15T09:02:15Z</time>
      </trkpt>
      <trkpt lat="45.43651" lon="5.73955">
        <ele>386.3</ele>
        <time>2022-04-15T09:02:16Z</time>
      </trkpt>
      <trkpt lat="45.43646" lon="5.73958">
        <ele>386.3</ele>
        <time>2022-04-15T09:02:17Z</time>
      </trkpt>
      <trkpt lat="45.43641" lon="5.7396">
        <ele>386.3</ele>
        <time>2022-04-15T09:02:18Z</time>
      </trkpt>
      <trkpt lat="45.43635" lon="5.73962">
        <ele>386.3</ele>
        <time>2022-04-15T09:02:19Z</time>
      </trkpt>
      <trkpt lat="45.4363" lon="5.73964">
        <ele>386.3</ele>
        <time>2022-04-15T09:02:20Z</time>
      </trkpt>
      <trkpt lat="45.43624" lon="5.73966">
        <ele>386.2</ele>
        <time>2022-04-15T09:02:21Z</time>
      </trkpt>
      <trkpt lat="45.43618" lon="5.73968">
        <ele>386.2</ele>
        <time>2022-04-15T09:02:22Z</time>
      </trkpt>
      <trkpt lat="45.43612" lon="5.7397">
        <ele>386.1</ele>
        <time>2022-04-15T09:02:23Z</time>
      </trkpt>
      <trkpt lat="45.43607" lon="5.73972">
        <ele>386.1</ele>
        <time>2022-04-15T09:02:24Z</time>
      </trkpt>
      <trkpt lat="45.43601" lon="5.73973">
        <ele>386.1</ele>
        <time>2022-04-15T09:02:25Z</time>
      </trkpt>
      <trkpt lat="45.43596" lon="5.73975">
        <ele>386</ele>
        <time>2022-04-15T09:02:26Z</time>
      </trkpt>
      <trkpt lat="45.4359" lon="5.73977">
        <ele>385.9</ele>
        <time>2022-04-15T09:02:27Z</time>
      </trkpt>
      <trkpt lat="45.43585" lon="5.73979">
        <ele>385.9</ele>
        <time>2022-04-15T09:02:28Z</time>
      </trkpt>
      <trkpt lat="45.43579" lon="5.73981">
        <ele>385.8</ele>
        <time>2022-04-15T09:02:29Z</time>
      </trkpt>
      <trkpt lat="45.43573" lon="5.73983">
        <ele>385.7</ele>
        <time>2022-04-15T09:02:30Z</time>
      </trkpt>
      <trkpt lat="45.43568" lon="5.73986">
        <ele>385.6</ele>
        <time>2022-04-15T09:02:31Z</time>
      </trkpt>
      <trkpt lat="45.43562" lon="5.73988">
        <ele>385.6</ele>
        <time>2022-04-15T09:02:32Z</time>
      </trkpt>
      <trkpt lat="45.43556" lon="5.73991">
        <ele>385.5</ele>
        <time>2022-04-15T09:02:33Z</time>
      </trkpt>
      <trkpt lat="45.4355" lon="5.73993">
        <ele>385.4</ele>
        <time>2022-04-15T09:02:34Z</time>
      </trkpt>
      <trkpt lat="45.43544" lon="5.73996">
        <ele>385.3</ele>
        <time>2022-04-15T09:02:35Z</time>
      </trkpt>
      <trkpt lat="45.43538" lon="5.73999">
        <ele>385.3</ele>
        <time>2022-04-15T09:02:36Z</time>
      </trkpt>
      <trkpt lat="45.43533" lon="5.74002">
        <ele>385.2</ele>
        <time>2022-04-15T09:02:37Z</time>
      </trkpt>
      <trkpt lat="45.43527" lon="5.74006">
        <ele>385.1</ele>
        <time>2022-04-15T09:02:38Z</time>
      </trkpt>
      <trkpt lat="45.43521" lon="5.74009">
        <ele>385</ele>
        <time>2022-04-15T09:02:39Z</time>
      </trkpt>
      <trkpt lat="45.43516" lon="5.74013">
        <ele>385</ele>
        <time>2022-04-15T09:02:40Z</time>
      </trkpt>
      <trkpt lat="45.4351" lon="5.74016">
        <ele>384.9</ele>
        <time>2022-04-15T09:02:41Z</time>
      </trkpt>
      <trkpt lat="45.43505" lon="5.7402">
        <ele>384.8</ele>
        <time>2022-04-15T09:02:42Z</time>
      </trkpt>
      <trkpt lat="45.43499" lon="5.74024">
        <ele>384.7</ele>
        <time>2022-04-15T09:02:43Z</time>
      </trkpt>
      <trkpt lat="45.43494" lon="5.74027">
        <ele>384.6</ele>
        <time>2022-04-15T09:02:44Z</time>
      </trkpt>
      <trkpt lat="45.43489" lon="5.74031">
        <ele>384.6</ele>
        <time>2022-04-15T09:02:45Z</time>
      </trkpt>
      <trkpt lat="45.43483" lon="5.74034">
        <ele>384.5</ele>
        <time>2022-04-15T09:02:46Z</time>
      </trkpt>
      <trkpt lat="45.43477" lon="5.74038">
        <ele>384.5</ele>
        <time>2022-04-15T09:02:47Z</time>
      </trkpt>
      <trkpt lat="45.43472" lon="5.74042">
        <ele>384.4</ele>
        <time>2022-04-15T09:02:48Z</time>
      </trkpt>
      <trkpt lat="45.43467" lon="5.74046">
        <ele>384.4</ele>
        <time>2022-04-15T09:02:49Z</time>
      </trkpt>
      <trkpt lat="45.43462" lon="5.7405">
        <ele>384.4</ele>
        <time>2022-04-15T09:02:50Z</time>
      </trkpt>
      <trkpt lat="45.43457" lon="5.74055">
        <ele>384.4</ele>
        <time>2022-04-15T09:02:51Z</time>
      </trkpt>
      <trkpt lat="45.43452" lon="5.74059">
        <ele>384.4</ele>
        <time>2022-04-15T09:02:52Z</time>
      </trkpt>
      <trkpt lat="45.43447" lon="5.74063">
        <ele>384.4</ele>
        <time>2022-04-15T09:02:53Z</time>
      </trkpt>
      <trkpt lat="45.43442" lon="5.74067">
        <ele>384.4</ele>
        <time>2022-04-15T09:02:54Z</time>
      </trkpt>
      <trkpt lat="45.43437" lon="5.74071">
        <ele>384.4</ele>
        <time>2022-04-15T09:02:55Z</time>
      </trkpt>
      <trkpt lat="45.43433" lon="5.74076">
        <ele>384.3</ele>
        <time>2022-04-15T09:02:56Z</time>
      </trkpt>
      <trkpt lat="45.43429" lon="5.74081">
        <ele>384.3</ele>
        <time>2022-04-15T09:02:57Z</time>
      </trkpt>
      <trkpt lat="45.43424" lon="5.74086">
        <ele>384.3</ele>
        <time>2022-04-15T09:02:58Z</time>
      </trkpt>
      <trkpt lat="45.4342" lon="5.74091">
        <ele>384.3</ele>
        <time>2022-04-15T09:02:59Z</time>
      </trkpt>
      <trkpt lat="45.43415" lon="5.74095">
        <ele>384.3</ele>
        <time>2022-04-15T09:03:00Z</time>
      </trkpt>
      <trkpt lat="45.43411" lon="5.74101">
        <ele>384.4</ele>
        <time>2022-04-15T09:03:01Z</time>
      </trkpt>
      <trkpt lat="45.43408" lon="5.74107">
        <ele>384.4</ele>
        <time>2022-04-15T09:03:02Z</time>
      </trkpt>
      <trkpt lat="45.43405" lon="5.74112">
        <ele>384.4</ele>
        <time>2022-04-15T09:03:03Z</time>
      </trkpt>
      <trkpt lat="45.43402" lon="5.74118">
        <ele>384.4</ele>
        <time>2022-04-15T09:03:04Z</time>
      </trkpt>
      <trkpt lat="45.434" lon="5.74124">
        <ele>384.4</ele>
        <time>2022-04-15T09:03:05Z</time>
      </trkpt>
      <trkpt lat="45.43397" lon="5.7413">
        <ele>384.4</ele>
        <time>2022-04-15T09:03:06Z</time>
      </trkpt>
      <trkpt lat="45.43394" lon="5.74136">
        <ele>384.4</ele>
        <time>2022-04-15T09:03:07Z</time>
      </trkpt>
      <trkpt lat="45.43391" lon="5.74142">
        <ele>384.5</ele>
        <time>2022-04-15T09:03:08Z</time>
      </trkpt>
      <trkpt lat="45.43388" lon="5.74148">
        <ele>384.5</ele>
        <time>2022-04-15T09:03:09Z</time>
      </trkpt>
      <trkpt lat="45.43384" lon="5.74154">
        <ele>384.5</ele>
        <time>2022-04-15T09:03:10Z</time>
      </trkpt>
      <trkpt lat="45.43381" lon="5.74159">
        <ele>384.5</ele>
        <time>2022-04-15T09:03:11Z</time>
      </trkpt>
      <trkpt lat="45.43378" lon="5.74165">
        <ele>384.5</ele>
        <time>2022-04-15T09:03:12Z</time>
      </trkpt>
      <trkpt lat="45.43374" lon="5.7417">
        <ele>384.5</ele>
        <time>2022-04-15T09:03:13Z</time>
      </trkpt>
      <trkpt lat="45.43371" lon="5.74175">
        <ele>384.5</ele>
        <time>2022-04-15T09:03:14Z</time>
      </trkpt>
      <trkpt lat="45.43368" lon="5.7418">
        <ele>384.5</ele>
        <time>2022-04-15T09:03:15Z</time>
      </trkpt>
      <trkpt lat="45.43366" lon="5.74186">
        <ele>384.5</ele>
        <time>2022-04-15T09:03:16Z</time>
      </trkpt>
      <trkpt lat="45.43363" lon="5.74191">
        <ele>384.6</ele>
        <time>2022-04-15T09:03:17Z</time>
      </trkpt>
      <trkpt lat="45.43361" lon="5.74197">
        <ele>384.6</ele>
        <time>2022-04-15T09:03:18Z</time>
      </trkpt>
      <trkpt lat="45.43359" lon="5.74203">
        <ele>384.6</ele>
        <time>2022-04-15T09:03:19Z</time>
      </trkpt>
      <trkpt lat="45.43358" lon="5.74209">
        <ele>384.6</ele>
        <time>2022-04-15T09:03:20Z</time>
      </trkpt>
      <trkpt lat="45.43357" lon="5.74216">
        <ele>384.6</ele>
        <time>2022-04-15T09:03:21Z</time>
      </trkpt>
      <trkpt lat="45.43357" lon="5.74223">
        <ele>384.6</ele>
        <time>2022-04-15T09:03:22Z</time>
      </trkpt>
      <trkpt lat="45.43356" lon="5.74229">
        <ele>384.5</ele>
        <time>2022-04-15T09:03:23Z</time>
      </trkpt>
      <trkpt lat="45.43357" lon="5.74236">
        <ele>384.5</ele>
        <time>2022-04-15T09:03:24Z</time>
      </trkpt>
      <trkpt lat="45.43357" lon="5.74243">
        <ele>384.5</ele>
        <time>2022-04-15T09:03:25Z</time>
      </trkpt>
      <trkpt lat="45.43357" lon="5.74249">
        <ele>384.5</ele>
        <time>2022-04-15T09:03:26Z</time>
      </trkpt>
      <trkpt lat="45.43357" lon="5.74256">
        <ele>384.5</ele>
        <time>2022-04-15T09:03:27Z</time>
      </trkpt>
      <trkpt lat="45.43357" lon="5.74264">
        <ele>384.5</ele>
        <time>2022-04-15T09:03:28Z</time>
      </trkpt>
      <trkpt lat="45.43357" lon="5.74271">
        <ele>384.5</ele>
        <time>2022-04-15T09:03:29Z</time>
      </trkpt>
      <trkpt lat="45.43357" lon="5.74278">
        <ele>384.5</ele>
        <time>2022-04-15T09:03:30Z</time>
      </trkpt>
      <trkpt lat="45.43356" lon="5.74285">
        <ele>384.5</ele>
        <time>2022-04-15T09:03:31Z</time>
      </trkpt>
      <trkpt lat="45.43356" lon="5.74292">
        <ele>384.4</ele>
        <time>2022-04-15T09:03:32Z</time>
      </trkpt>
      <trkpt lat="45.43355" lon="5.743">
        <ele>384.4</ele>
        <time>2022-04-15T09:03:33Z</time>
      </trkpt>
      <trkpt lat="45.43356" lon="5.74306">
        <ele>384.4</ele>
        <time>2022-04-15T09:03:34Z</time>
      </trkpt>
      <trkpt lat="45.43356" lon="5.74314">
        <ele>384.3</ele>
        <time>2022-04-15T09:03:35Z</time>
      </trkpt>
      <trkpt lat="45.43356" lon="5.74321">
        <ele>384.3</ele>
        <time>2022-04-15T09:03:36Z</time>
      </trkpt>
      <trkpt lat="45.43356" lon="5.74328">
        <ele>384.3</ele>
        <time>2022-04-15T09:03:37Z</time>
      </trkpt>
      <trkpt lat="45.43356" lon="5.74336">
        <ele>384.3</ele>
        <time>2022-04-15T09:03:38Z</time>
      </trkpt>
      <trkpt lat="45.43356" lon="5.74343">
        <ele>384.3</ele>
        <time>2022-04-15T09:03:39Z</time>
      </trkpt>
      <trkpt lat="45.43357" lon="5.7435">
        <ele>384.2</ele>
        <time>2022-04-15T09:03:40Z</time>
      </trkpt>
      <trkpt lat="45.43357" lon="5.74358">
        <ele>384.2</ele>
        <time>2022-04-15T09:03:41Z</time>
      </trkpt>
      <trkpt lat="45.43357" lon="5.74365">
        <ele>384.2</ele>
        <time>2022-04-15T09:03:42Z</time>
      </trkpt>
      <trkpt lat="45.43357" lon="5.74372">
        <ele>384.2</ele>
        <time>2022-04-15T09:03:43Z</time>
      </trkpt>
      <trkpt lat="45.43357" lon="5.74379">
        <ele>384.2</ele>
        <time>2022-04-15T09:03:44Z</time>
      </trkpt>
      <trkpt lat="45.43357" lon="5.74387">
        <ele>384.2</ele>
        <time>2022-04-15T09:03:45Z</time>
      </trkpt>
      <trkpt lat="45.43357" lon="5.74394">
        <ele>384.2</ele>
        <time>2022-04-15T09:03:46Z</time>
      </trkpt>
      <trkpt lat="45.43357" lon="5.74402">
        <ele>384.2</ele>
        <time>2022-04-15T09:03:47Z</time>
      </trkpt>
      <trkpt lat="45.43357" lon="5.74409">
        <ele>384.1</ele>
        <time>2022-04-15T09:03:48Z</time>
      </trkpt>
      <trkpt lat="45.43357" lon="5.74417">
        <ele>384.1</ele>
        <time>2022-04-15T09:03:49Z</time>
      </trkpt>
      <trkpt lat="45.43357" lon="5.74424">
        <ele>384</ele>
        <time>2022-04-15T09:03:50Z</time>
      </trkpt>
      <trkpt lat="45.43357" lon="5.74432">
        <ele>384</ele>
        <time>2022-04-15T09:03:51Z</time>
      </trkpt>
      <trkpt lat="45.43357" lon="5.74439">
        <ele>384</ele>
        <time>2022-04-15T09:03:52Z</time>
      </trkpt>
      <trkpt lat="45.43357" lon="5.74447">
        <ele>383.9</ele>
        <time>2022-04-15T09:03:53Z</time>
      </trkpt>
      <trkpt lat="45.43357" lon="5.74454">
        <ele>383.9</ele>
        <time>2022-04-15T09:03:54Z</time>
      </trkpt>
      <trkpt lat="45.43358" lon="5.74462">
        <ele>383.9</ele>
        <time>2022-04-15T09:03:55Z</time>
      </trkpt>
      <trkpt lat="45.43358" lon="5.7447">
        <ele>383.9</ele>
        <time>2022-04-15T09:03:56Z</time>
      </trkpt>
      <trkpt lat="45.43357" lon="5.74477">
        <ele>383.9</ele>
        <time>2022-04-15T09:03:57Z</time>
      </trkpt>
      <trkpt lat="45.43357" lon="5.74484">
        <ele>383.9</ele>
        <time>2022-04-15T09:03:58Z</time>
      </trkpt>
      <trkpt lat="45.43357" lon="5.74492">
        <ele>383.9</ele>
        <time>2022-04-15T09:03:59Z</time>
      </trkpt>
      <trkpt lat="45.43357" lon="5.74499">
        <ele>383.9</ele>
        <time>2022-04-15T09:04:00Z</time>
      </trkpt>
      <trkpt lat="45.43357" lon="5.74506">
        <ele>383.9</ele>
        <time>2022-04-15T09:04:01Z</time>
      </trkpt>
      <trkpt lat="45.43357" lon="5.74514">
        <ele>383.9</ele>
        <time>2022-04-15T09:04:02Z</time>
      </trkpt>
      <trkpt lat="45.43357" lon="5.7452">
        <ele>383.9</ele>
        <time>2022-04-15T09:04:03Z</time>
      </trkpt>
      <trkpt lat="45.43356" lon="5.74527">
        <ele>383.9</ele>
        <time>2022-04-15T09:04:04Z</time>
      </trkpt>
      <trkpt lat="45.43357" lon="5.74533">
        <ele>383.9</ele>
        <time>2022-04-15T09:04:05Z</time>
      </trkpt>
      <trkpt lat="45.43356" lon="5.7454">
        <ele>383.9</ele>
        <time>2022-04-15T09:04:06Z</time>
      </trkpt>
      <trkpt lat="45.43357" lon="5.74547">
        <ele>383.9</ele>
        <time>2022-04-15T09:04:07Z</time>
      </trkpt>
      <trkpt lat="45.43357" lon="5.74554">
        <ele>383.9</ele>
        <time>2022-04-15T09:04:08Z</time>
      </trkpt>
      <trkpt lat="45.43357" lon="5.74561">
        <ele>383.9</ele>
        <time>2022-04-15T09:04:09Z</time>
      </trkpt>
      <trkpt lat="45.43357" lon="5.74568">
        <ele>383.9</ele>
        <time>2022-04-15T09:04:10Z</time>
      </trkpt>
      <trkpt lat="45.43357" lon="5.74575">
        <ele>383.9</ele>
        <time>2022-04-15T09:04:11Z</time>
      </trkpt>
      <trkpt lat="45.43357" lon="5.74582">
        <ele>383.9</ele>
        <time>2022-04-15T09:04:12Z</time>
      </trkpt>
      <trkpt lat="45.43357" lon="5.74588">
        <ele>384</ele>
        <time>2022-04-15T09:04:13Z</time>
      </trkpt>
      <trkpt lat="45.43356" lon="5.74595">
        <ele>384</ele>
        <time>2022-04-15T09:04:14Z</time>
      </trkpt>
      <trkpt lat="45.43356" lon="5.74602">
        <ele>384</ele>
        <time>2022-04-15T09:04:15Z</time>
      </trkpt>
      <trkpt lat="45.43356" lon="5.74609">
        <ele>384</ele>
        <time>2022-04-15T09:04:16Z</time>
      </trkpt>
      <trkpt lat="45.43356" lon="5.74616">
        <ele>384</ele>
        <time>2022-04-15T09:04:17Z</time>
      </trkpt>
      <trkpt lat="45.43357" lon="5.74623">
        <ele>384</ele>
        <time>2022-04-15T09:04:18Z</time>
      </trkpt>
      <trkpt lat="45.43357" lon="5.74629">
        <ele>384.1</ele>
        <time>2022-04-15T09:04:19Z</time>
      </trkpt>
      <trkpt lat="45.43357" lon="5.74636">
        <ele>384.1</ele>
        <time>2022-04-15T09:04:20Z</time>
      </trkpt>
      <trkpt lat="45.43357" lon="5.74642">
        <ele>384.1</ele>
        <time>2022-04-15T09:04:21Z</time>
      </trkpt>
      <trkpt lat="45.43357" lon="5.74648">
        <ele>384.1</ele>
        <time>2022-04-15T09:04:22Z</time>
      </trkpt>
      <trkpt lat="45.43357" lon="5.74655">
        <ele>384.2</ele>
        <time>2022-04-15T09:04:23Z</time>
      </trkpt>
      <trkpt lat="45.43356" lon="5.74662">
        <ele>384.2</ele>
        <time>2022-04-15T09:04:24Z</time>
      </trkpt>
      <trkpt lat="45.43356" lon="5.74665">
        <ele>384.2</ele>
        <time>2022-04-15T09:04:25Z</time>
      </trkpt>
      <trkpt lat="45.43356" lon="5.74672">
        <ele>384.2</ele>
        <time>2022-04-15T09:04:26Z</time>
      </trkpt>
      <trkpt lat="45.43357" lon="5.74677">
        <ele>384.3</ele>
        <time>2022-04-15T09:04:27Z</time>
      </trkpt>
      <trkpt lat="45.43357" lon="5.74683">
        <ele>384.3</ele>
        <time>2022-04-15T09:04:28Z</time>
      </trkpt>
      <trkpt lat="45.43357" lon="5.74691">
        <ele>384.3</ele>
        <time>2022-04-15T09:04:29Z</time>
      </trkpt>
      <trkpt lat="45.43357" lon="5.74696">
        <ele>384.4</ele>
        <time>2022-04-15T09:04:30Z</time>
      </trkpt>
      <trkpt lat="45.43358" lon="5.74701">
        <ele>384.4</ele>
        <time>2022-04-15T09:04:31Z</time>
      </trkpt>
      <trkpt lat="45.43357" lon="5.74712">
        <ele>384.5</ele>
        <time>2022-04-15T09:04:33Z</time>
      </trkpt>
      <trkpt lat="45.43358" lon="5.7472">
        <ele>384.5</ele>
        <time>2022-04-15T09:04:34Z</time>
      </trkpt>
      <trkpt lat="45.43358" lon="5.7473">
        <ele>384.6</ele>
        <time>2022-04-15T09:04:36Z</time>
      </trkpt>
      <trkpt lat="45.43358" lon="5.74737">
        <ele>384.6</ele>
        <time>2022-04-15T09:04:37Z</time>
      </trkpt>
      <trkpt lat="45.43358" lon="5.74743">
        <ele>384.7</ele>
        <time>2022-04-15T09:04:38Z</time>
      </trkpt>
      <trkpt lat="45.43358" lon="5.74756">
        <ele>384.7</ele>
        <time>2022-04-15T09:04:40Z</time>
      </trkpt>
      <trkpt lat="45.43359" lon="5.74769">
        <ele>384.8</ele>
        <time>2022-04-15T09:04:42Z</time>
      </trkpt>
      <trkpt lat="45.43358" lon="5.74782">
        <ele>384.9</ele>
        <time>2022-04-15T09:04:44Z</time>
      </trkpt>
      <trkpt lat="45.43357" lon="5.74792">
        <ele>384.9</ele>
        <time>2022-04-15T09:04:46Z</time>
      </trkpt>
      <trkpt lat="45.43357" lon="5.74799">
        <ele>385</ele>
        <time>2022-04-15T09:04:47Z</time>
      </trkpt>
      <trkpt lat="45.43357" lon="5.74812">
        <ele>385.1</ele>
        <time>2022-04-15T09:04:49Z</time>
      </trkpt>
      <trkpt lat="45.43356" lon="5.74824">
        <ele>385.2</ele>
        <time>2022-04-15T09:04:51Z</time>
      </trkpt>
      <trkpt lat="45.43356" lon="5.74838">
        <ele>385.3</ele>
        <time>2022-04-15T09:04:53Z</time>
      </trkpt>
      <trkpt lat="45.43357" lon="5.7485">
        <ele>385.4</ele>
        <time>2022-04-15T09:04:55Z</time>
      </trkpt>
      <trkpt lat="45.43357" lon="5.74861">
        <ele>385.5</ele>
        <time>2022-04-15T09:04:57Z</time>
      </trkpt>
      <trkpt lat="45.43357" lon="5.74867">
        <ele>385.5</ele>
        <time>2022-04-15T09:04:58Z</time>
      </trkpt>
      <trkpt lat="45.43357" lon="5.74875">
        <ele>385.6</ele>
        <time>2022-04-15T09:04:59Z</time>
      </trkpt>
      <trkpt lat="45.43357" lon="5.74886">
        <ele>385.7</ele>
        <time>2022-04-15T09:05:01Z</time>
      </trkpt>
      <trkpt lat="45.43357" lon="5.74898">
        <ele>385.8</ele>
        <time>2022-04-15T09:05:03Z</time>
      </trkpt>
      <trkpt lat="45.43358" lon="5.74904">
        <ele>385.8</ele>
        <time>2022-04-15T09:05:04Z</time>
      </trkpt>
      <trkpt lat="45.43357" lon="5.74912">
        <ele>385.9</ele>
        <time>2022-04-15T09:05:05Z</time>
      </trkpt>
      <trkpt lat="45.43357" lon="5.7492">
        <ele>385.9</ele>
        <time>2022-04-15T09:05:06Z</time>
      </trkpt>
      <trkpt lat="45.43357" lon="5.74927">
        <ele>386</ele>
        <time>2022-04-15T09:05:08Z</time>
      </trkpt>
      <trkpt lat="45.43357" lon="5.74937">
        <ele>386.1</ele>
        <time>2022-04-15T09:05:09Z</time>
      </trkpt>
      <trkpt lat="45.43357" lon="5.74942">
        <ele>386.1</ele>
        <time>2022-04-15T09:05:10Z</time>
      </trkpt>
      <trkpt lat="45.43357" lon="5.74949">
        <ele>386.2</ele>
        <time>2022-04-15T09:05:11Z</time>
      </trkpt>
      <trkpt lat="45.43357" lon="5.74955">
        <ele>386.2</ele>
        <time>2022-04-15T09:05:12Z</time>
      </trkpt>
      <trkpt lat="45.43357" lon="5.74962">
        <ele>386.3</ele>
        <time>2022-04-15T09:05:13Z</time>
      </trkpt>
      <trkpt lat="45.43357" lon="5.74971">
        <ele>386.4</ele>
        <time>2022-04-15T09:05:15Z</time>
      </trkpt>
      <trkpt lat="45.43357" lon="5.74976">
        <ele>386.4</ele>
        <time>2022-04-15T09:05:16Z</time>
      </trkpt>
      <trkpt lat="45.43357" lon="5.74981">
        <ele>386.5</ele>
        <time>2022-04-15T09:05:17Z</time>
      </trkpt>
      <trkpt lat="45.43357" lon="5.74987">
        <ele>386.5</ele>
        <time>2022-04-15T09:05:18Z</time>
      </trkpt>
      <trkpt lat="45.43357" lon="5.74993">
        <ele>386.5</ele>
        <time>2022-04-15T09:05:19Z</time>
      </trkpt>
      <trkpt lat="45.43357" lon="5.74999">
        <ele>386.6</ele>
        <time>2022-04-15T09:05:20Z</time>
      </trkpt>
      <trkpt lat="45.43356" lon="5.75004">
        <ele>386.6</ele>
        <time>2022-04-15T09:05:21Z</time>
      </trkpt>
      <trkpt lat="45.43356" lon="5.7501">
        <ele>386.7</ele>
        <time>2022-04-15T09:05:22Z</time>
      </trkpt>
      <trkpt lat="45.43356" lon="5.75016">
        <ele>386.7</ele>
        <time>2022-04-15T09:05:23Z</time>
      </trkpt>
      <trkpt lat="45.43355" lon="5.75023">
        <ele>386.8</ele>
        <time>2022-04-15T09:05:24Z</time>
      </trkpt>
      <trkpt lat="45.43353" lon="5.75029">
        <ele>386.9</ele>
        <time>2022-04-15T09:05:25Z</time>
      </trkpt>
      <trkpt lat="45.43351" lon="5.75039">
        <ele>387</ele>
        <time>2022-04-15T09:05:26Z</time>
      </trkpt>
      <trkpt lat="45.43349" lon="5.75044">
        <ele>387</ele>
        <time>2022-04-15T09:05:27Z</time>
      </trkpt>
      <trkpt lat="45.43347" lon="5.7505">
        <ele>387.1</ele>
        <time>2022-04-15T09:05:29Z</time>
      </trkpt>
      <trkpt lat="45.43344" lon="5.7506">
        <ele>387.2</ele>
        <time>2022-04-15T09:05:31Z</time>
      </trkpt>
      <trkpt lat="45.43342" lon="5.75065">
        <ele>387.3</ele>
        <time>2022-04-15T09:05:32Z</time>
      </trkpt>
      <trkpt lat="45.43338" lon="5.75074">
        <ele>387.4</ele>
        <time>2022-04-15T09:05:34Z</time>
      </trkpt>
      <trkpt lat="45.43334" lon="5.75083">
        <ele>387.5</ele>
        <time>2022-04-15T09:05:36Z</time>
      </trkpt>
      <trkpt lat="45.43332" lon="5.75087">
        <ele>387.5</ele>
        <time>2022-04-15T09:05:37Z</time>
      </trkpt>
      <trkpt lat="45.4333" lon="5.75092">
        <ele>387.5</ele>
        <time>2022-04-15T09:05:38Z</time>
      </trkpt>
      <trkpt lat="45.43328" lon="5.75097">
        <ele>387.5</ele>
        <time>2022-04-15T09:05:39Z</time>
      </trkpt>
      <trkpt lat="45.43326" lon="5.75103">
        <ele>387.6</ele>
        <time>2022-04-15T09:05:40Z</time>
      </trkpt>
      <trkpt lat="45.43323" lon="5.75111">
        <ele>387.6</ele>
        <time>2022-04-15T09:05:41Z</time>
      </trkpt>
      <trkpt lat="45.4332" lon="5.75116">
        <ele>387.6</ele>
        <time>2022-04-15T09:05:43Z</time>
      </trkpt>
      <trkpt lat="45.43318" lon="5.7512">
        <ele>387.7</ele>
        <time>2022-04-15T09:05:44Z</time>
      </trkpt>
      <trkpt lat="45.43315" lon="5.75125">
        <ele>387.7</ele>
        <time>2022-04-15T09:05:45Z</time>
      </trkpt>
      <trkpt lat="45.43312" lon="5.75131">
        <ele>387.7</ele>
        <time>2022-04-15T09:05:46Z</time>
      </trkpt>
      <trkpt lat="45.43309" lon="5.75135">
        <ele>387.8</ele>
        <time>2022-04-15T09:05:47Z</time>
      </trkpt>
      <trkpt lat="45.43306" lon="5.75142">
        <ele>387.9</ele>
        <time>2022-04-15T09:05:48Z</time>
      </trkpt>
      <trkpt lat="45.43303" lon="5.75151">
        <ele>388</ele>
        <time>2022-04-15T09:05:50Z</time>
      </trkpt>
      <trkpt lat="45.43301" lon="5.75157">
        <ele>388.1</ele>
        <time>2022-04-15T09:05:51Z</time>
      </trkpt>
      <trkpt lat="45.43298" lon="5.75164">
        <ele>388.2</ele>
        <time>2022-04-15T09:05:52Z</time>
      </trkpt>
      <trkpt lat="45.43295" lon="5.75173">
        <ele>388.3</ele>
        <time>2022-04-15T09:05:54Z</time>
      </trkpt>
      <trkpt lat="45.43293" lon="5.75183">
        <ele>388.5</ele>
        <time>2022-04-15T09:05:56Z</time>
      </trkpt>
      <trkpt lat="45.4329" lon="5.75192">
        <ele>388.6</ele>
        <time>2022-04-15T09:05:57Z</time>
      </trkpt>
      <trkpt lat="45.43289" lon="5.75197">
        <ele>388.7</ele>
        <time>2022-04-15T09:05:59Z</time>
      </trkpt>
      <trkpt lat="45.43288" lon="5.75202">
        <ele>388.8</ele>
        <time>2022-04-15T09:06:00Z</time>
      </trkpt>
      <trkpt lat="45.43288" lon="5.75206">
        <ele>388.9</ele>
        <time>2022-04-15T09:06:01Z</time>
      </trkpt>
      <trkpt lat="45.43287" lon="5.75209">
        <ele>388.9</ele>
        <time>2022-04-15T09:06:02Z</time>
      </trkpt>
      <trkpt lat="45.43288" lon="5.7521">
        <ele>388.9</ele>
        <time>2022-04-15T09:06:03Z</time>
      </trkpt>
      <trkpt lat="45.43288" lon="5.75211">
        <ele>388.9</ele>
        <time>2022-04-15T09:06:04Z</time>
      </trkpt>
      <trkpt lat="45.43287" lon="5.75214">
        <ele>388.9</ele>
        <time>2022-04-15T09:06:05Z</time>
      </trkpt>
      <trkpt lat="45.43287" lon="5.75219">
        <ele>388.8</ele>
        <time>2022-04-15T09:06:07Z</time>
      </trkpt>
      <trkpt lat="45.43288" lon="5.75222">
        <ele>388.8</ele>
        <time>2022-04-15T09:06:08Z</time>
      </trkpt>
      <trkpt lat="45.43288" lon="5.75224">
        <ele>388.8</ele>
        <time>2022-04-15T09:06:09Z</time>
      </trkpt>
      <trkpt lat="45.43288" lon="5.75225">
        <ele>388.8</ele>
        <time>2022-04-15T09:06:10Z</time>
      </trkpt>
      <trkpt lat="45.43288" lon="5.75226">
        <ele>388.8</ele>
        <time>2022-04-15T09:06:11Z</time>
      </trkpt>
      <trkpt lat="45.43288" lon="5.75226">
        <ele>388.8</ele>
        <time>2022-04-15T09:06:12Z</time>
      </trkpt>
      <trkpt lat="45.43288" lon="5.75226">
        <ele>388.8</ele>
        <time>2022-04-15T09:06:13Z</time>
      </trkpt>
      <trkpt lat="45.43288" lon="5.75226">
        <ele>388.8</ele>
        <time>2022-04-15T09:06:14Z</time>
      </trkpt>
      <trkpt lat="45.43288" lon="5.75227">
        <ele>388.8</ele>
        <time>2022-04-15T09:06:15Z</time>
      </trkpt>
      <trkpt lat="45.43288" lon="5.75227">
        <ele>388.8</ele>
        <time>2022-04-15T09:06:16Z</time>
      </trkpt>
      <trkpt lat="45.43288" lon="5.75227">
        <ele>388.8</ele>
        <time>2022-04-15T09:06:17Z</time>
      </trkpt>
      <trkpt lat="45.43288" lon="5.75228">
        <ele>388.8</ele>
        <time>2022-04-15T09:06:18Z</time>
      </trkpt>
      <trkpt lat="45.43289" lon="5.75228">
        <ele>388.8</ele>
        <time>2022-04-15T09:06:19Z</time>
      </trkpt>
      <trkpt lat="45.43289" lon="5.75228">
        <ele>388.8</ele>
        <time>2022-04-15T09:06:20Z</time>
      </trkpt>
      <trkpt lat="45.43289" lon="5.75228">
        <ele>388.8</ele>
        <time>2022-04-15T09:06:21Z</time>
      </trkpt>
      <trkpt lat="45.43289" lon="5.75229">
        <ele>388.8</ele>
        <time>2022-04-15T09:06:22Z</time>
      </trkpt>
      <trkpt lat="45.43289" lon="5.75229">
        <ele>388.8</ele>
        <time>2022-04-15T09:06:23Z</time>
      </trkpt>
      <trkpt lat="45.4329" lon="5.75233">
        <ele>388.8</ele>
        <time>2022-04-15T09:06:24Z</time>
      </trkpt>
      <trkpt lat="45.4329" lon="5.7524">
        <ele>388.8</ele>
        <time>2022-04-15T09:06:26Z</time>
      </trkpt>
      <trkpt lat="45.43289" lon="5.75243">
        <ele>388.8</ele>
        <time>2022-04-15T09:06:27Z</time>
      </trkpt>
      <trkpt lat="45.43289" lon="5.75245">
        <ele>388.9</ele>
        <time>2022-04-15T09:06:28Z</time>
      </trkpt>
      <trkpt lat="45.4329" lon="5.75254">
        <ele>389.1</ele>
        <time>2022-04-15T09:06:30Z</time>
      </trkpt>
      <trkpt lat="45.43291" lon="5.75259">
        <ele>389.2</ele>
        <time>2022-04-15T09:06:31Z</time>
      </trkpt>
      <trkpt lat="45.43293" lon="5.75266">
        <ele>389.4</ele>
        <time>2022-04-15T09:06:32Z</time>
      </trkpt>
      <trkpt lat="45.43294" lon="5.75272">
        <ele>389.5</ele>
        <time>2022-04-15T09:06:34Z</time>
      </trkpt>
      <trkpt lat="45.43295" lon="5.75275">
        <ele>389.6</ele>
        <time>2022-04-15T09:06:35Z</time>
      </trkpt>
      <trkpt lat="45.43296" lon="5.75281">
        <ele>389.8</ele>
        <time>2022-04-15T09:06:36Z</time>
      </trkpt>
      <trkpt lat="45.43295" lon="5.75286">
        <ele>389.9</ele>
        <time>2022-04-15T09:06:38Z</time>
      </trkpt>
      <trkpt lat="45.43295" lon="5.75288">
        <ele>389.9</ele>
        <time>2022-04-15T09:06:39Z</time>
      </trkpt>
      <trkpt lat="45.43295" lon="5.75293">
        <ele>390.1</ele>
        <time>2022-04-15T09:06:40Z</time>
      </trkpt>
      <trkpt lat="45.43295" lon="5.75295">
        <ele>390.1</ele>
        <time>2022-04-15T09:06:41Z</time>
      </trkpt>
      <trkpt lat="45.43294" lon="5.75301">
        <ele>390.3</ele>
        <time>2022-04-15T09:06:43Z</time>
      </trkpt>
      <trkpt lat="45.43293" lon="5.75306">
        <ele>390.4</ele>
        <time>2022-04-15T09:06:44Z</time>
      </trkpt>
      <trkpt lat="45.43293" lon="5.75308">
        <ele>390.5</ele>
        <time>2022-04-15T09:06:45Z</time>
      </trkpt>
      <trkpt lat="45.43291" lon="5.75316">
        <ele>390.7</ele>
        <time>2022-04-15T09:06:47Z</time>
      </trkpt>
      <trkpt lat="45.4329" lon="5.75318">
        <ele>390.8</ele>
        <time>2022-04-15T09:06:48Z</time>
      </trkpt>
      <trkpt lat="45.43289" lon="5.75323">
        <ele>390.9</ele>
        <time>2022-04-15T09:06:50Z</time>
      </trkpt>
      <trkpt lat="45.43289" lon="5.75325">
        <ele>390.9</ele>
        <time>2022-04-15T09:06:51Z</time>
      </trkpt>
      <trkpt lat="45.4329" lon="5.75329">
        <ele>391</ele>
        <time>2022-04-15T09:06:52Z</time>
      </trkpt>
      <trkpt lat="45.43291" lon="5.75334">
        <ele>391</ele>
        <time>2022-04-15T09:06:53Z</time>
      </trkpt>
      <trkpt lat="45.43291" lon="5.75336">
        <ele>391.1</ele>
        <time>2022-04-15T09:06:54Z</time>
      </trkpt>
      <trkpt lat="45.43292" lon="5.7534">
        <ele>391.1</ele>
        <time>2022-04-15T09:06:55Z</time>
      </trkpt>
      <trkpt lat="45.43294" lon="5.75347">
        <ele>391.2</ele>
        <time>2022-04-15T09:06:57Z</time>
      </trkpt>
      <trkpt lat="45.43296" lon="5.75351">
        <ele>391.3</ele>
        <time>2022-04-15T09:06:58Z</time>
      </trkpt>
      <trkpt lat="45.43298" lon="5.75356">
        <ele>391.4</ele>
        <time>2022-04-15T09:06:59Z</time>
      </trkpt>
      <trkpt lat="45.43299" lon="5.7536">
        <ele>391.4</ele>
        <time>2022-04-15T09:07:00Z</time>
      </trkpt>
      <trkpt lat="45.43303" lon="5.75369">
        <ele>391.6</ele>
        <time>2022-04-15T09:07:02Z</time>
      </trkpt>
      <trkpt lat="45.43306" lon="5.75376">
        <ele>391.7</ele>
        <time>2022-04-15T09:07:04Z</time>
      </trkpt>
      <trkpt lat="45.43307" lon="5.7538">
        <ele>391.7</ele>
        <time>2022-04-15T09:07:05Z</time>
      </trkpt>
      <trkpt lat="45.43309" lon="5.75384">
        <ele>391.7</ele>
        <time>2022-04-15T09:07:06Z</time>
      </trkpt>
      <trkpt lat="45.4331" lon="5.75388">
        <ele>391.8</ele>
        <time>2022-04-15T09:07:07Z</time>
      </trkpt>
      <trkpt lat="45.43311" lon="5.75391">
        <ele>391.8</ele>
        <time>2022-04-15T09:07:08Z</time>
      </trkpt>
      <trkpt lat="45.43312" lon="5.75395">
        <ele>391.9</ele>
        <time>2022-04-15T09:07:09Z</time>
      </trkpt>
      <trkpt lat="45.43315" lon="5.75403">
        <ele>392</ele>
        <time>2022-04-15T09:07:11Z</time>
      </trkpt>
      <trkpt lat="45.43317" lon="5.75407">
        <ele>392</ele>
        <time>2022-04-15T09:07:12Z</time>
      </trkpt>
      <trkpt lat="45.43319" lon="5.75411">
        <ele>392</ele>
        <time>2022-04-15T09:07:13Z</time>
      </trkpt>
      <trkpt lat="45.4332" lon="5.75419">
        <ele>392.1</ele>
        <time>2022-04-15T09:07:15Z</time>
      </trkpt>
      <trkpt lat="45.43321" lon="5.75423">
        <ele>392.1</ele>
        <time>2022-04-15T09:07:16Z</time>
      </trkpt>
      <trkpt lat="45.43322" lon="5.75428">
        <ele>392.2</ele>
        <time>2022-04-15T09:07:17Z</time>
      </trkpt>
      <trkpt lat="45.43325" lon="5.75438">
        <ele>392.2</ele>
        <time>2022-04-15T09:07:19Z</time>
      </trkpt>
      <trkpt lat="45.43327" lon="5.75443">
        <ele>392.3</ele>
        <time>2022-04-15T09:07:20Z</time>
      </trkpt>
      <trkpt lat="45.43329" lon="5.75449">
        <ele>392.3</ele>
        <time>2022-04-15T09:07:21Z</time>
      </trkpt>
      <trkpt lat="45.43332" lon="5.75457">
        <ele>392.3</ele>
        <time>2022-04-15T09:07:23Z</time>
      </trkpt>
      <trkpt lat="45.43335" lon="5.75465">
        <ele>392.3</ele>
        <time>2022-04-15T09:07:25Z</time>
      </trkpt>
      <trkpt lat="45.43336" lon="5.7547">
        <ele>392.3</ele>
        <time>2022-04-15T09:07:26Z</time>
      </trkpt>
      <trkpt lat="45.43338" lon="5.75476">
        <ele>392.3</ele>
        <time>2022-04-15T09:07:27Z</time>
      </trkpt>
      <trkpt lat="45.4334" lon="5.75484">
        <ele>392.3</ele>
        <time>2022-04-15T09:07:28Z</time>
      </trkpt>
      <trkpt lat="45.43342" lon="5.7549">
        <ele>392.3</ele>
        <time>2022-04-15T09:07:30Z</time>
      </trkpt>
      <trkpt lat="45.43344" lon="5.75497">
        <ele>392.2</ele>
        <time>2022-04-15T09:07:31Z</time>
      </trkpt>
      <trkpt lat="45.43347" lon="5.75507">
        <ele>392.2</ele>
        <time>2022-04-15T09:07:33Z</time>
      </trkpt>
      <trkpt lat="45.43348" lon="5.75514">
        <ele>392.2</ele>
        <time>2022-04-15T09:07:34Z</time>
      </trkpt>
      <trkpt lat="45.4335" lon="5.75522">
        <ele>392.1</ele>
        <time>2022-04-15T09:07:36Z</time>
      </trkpt>
      <trkpt lat="45.43352" lon="5.75528">
        <ele>392.1</ele>
        <time>2022-04-15T09:07:37Z</time>
      </trkpt>
      <trkpt lat="45.43354" lon="5.75534">
        <ele>392.1</ele>
        <time>2022-04-15T09:07:39Z</time>
      </trkpt>
      <trkpt lat="45.43356" lon="5.75541">
        <ele>392.1</ele>
        <time>2022-04-15T09:07:40Z</time>
      </trkpt>
      <trkpt lat="45.43359" lon="5.75546">
        <ele>392.2</ele>
        <time>2022-04-15T09:07:42Z</time>
      </trkpt>
      <trkpt lat="45.43361" lon="5.75546">
        <ele>392.2</ele>
        <time>2022-04-15T09:07:43Z</time>
      </trkpt>
      <trkpt lat="45.43364" lon="5.75545">
        <ele>392.2</ele>
        <time>2022-04-15T09:07:45Z</time>
      </trkpt>
      <trkpt lat="45.43367" lon="5.75542">
        <ele>391.8</ele>
        <time>2022-04-15T09:07:46Z</time>
      </trkpt>
      <trkpt lat="45.43372" lon="5.75539">
        <ele>391.3</ele>
        <time>2022-04-15T09:07:48Z</time>
      </trkpt>
      <trkpt lat="45.43378" lon="5.75532">
        <ele>390.7</ele>
        <time>2022-04-15T09:07:50Z</time>
      </trkpt>
      <trkpt lat="45.43382" lon="5.75527">
        <ele>390.4</ele>
        <time>2022-04-15T09:07:51Z</time>
      </trkpt>
      <trkpt lat="45.43384" lon="5.75524">
        <ele>390.2</ele>
        <time>2022-04-15T09:07:52Z</time>
      </trkpt>
      <trkpt lat="45.43387" lon="5.75521">
        <ele>390.1</ele>
        <time>2022-04-15T09:07:53Z</time>
      </trkpt>
      <trkpt lat="45.4339" lon="5.7552">
        <ele>390</ele>
        <time>2022-04-15T09:07:55Z</time>
      </trkpt>
      <trkpt lat="45.43394" lon="5.75518">
        <ele>389.9</ele>
        <time>2022-04-15T09:07:57Z</time>
      </trkpt>
      <trkpt lat="45.43396" lon="5.75517">
        <ele>389.9</ele>
        <time>2022-04-15T09:07:58Z</time>
      </trkpt>
      <trkpt lat="45.43398" lon="5.75516">
        <ele>389.9</ele>
        <time>2022-04-15T09:07:59Z</time>
      </trkpt>
      <trkpt lat="45.43401" lon="5.75514">
        <ele>389.8</ele>
        <time>2022-04-15T09:08:00Z</time>
      </trkpt>
      <trkpt lat="45.43405" lon="5.75512">
        <ele>389.8</ele>
        <time>2022-04-15T09:08:01Z</time>
      </trkpt>
      <trkpt lat="45.43408" lon="5.7551">
        <ele>389.8</ele>
        <time>2022-04-15T09:08:02Z</time>
      </trkpt>
      <trkpt lat="45.43409" lon="5.75509">
        <ele>389.7</ele>
        <time>2022-04-15T09:08:03Z</time>
      </trkpt>
      <trkpt lat="45.43411" lon="5.75508">
        <ele>389.7</ele>
        <time>2022-04-15T09:08:04Z</time>
      </trkpt>
      <trkpt lat="45.43412" lon="5.75507">
        <ele>389.7</ele>
        <time>2022-04-15T09:08:05Z</time>
      </trkpt>
      <trkpt lat="45.43413" lon="5.75507">
        <ele>389.8</ele>
        <time>2022-04-15T09:08:06Z</time>
      </trkpt>
      <trkpt lat="45.43418" lon="5.75506">
        <ele>389.8</ele>
        <time>2022-04-15T09:08:08Z</time>
      </trkpt>
      <trkpt lat="45.43421" lon="5.75506">
        <ele>389.8</ele>
        <time>2022-04-15T09:08:09Z</time>
      </trkpt>
      <trkpt lat="45.43424" lon="5.75503">
        <ele>389.9</ele>
        <time>2022-04-15T09:08:11Z</time>
      </trkpt>
      <trkpt lat="45.43427" lon="5.75502">
        <ele>389.9</ele>
        <time>2022-04-15T09:08:12Z</time>
      </trkpt>
      <trkpt lat="45.43428" lon="5.75501">
        <ele>389.9</ele>
        <time>2022-04-15T09:08:13Z</time>
      </trkpt>
      <trkpt lat="45.43433" lon="5.755">
        <ele>389.9</ele>
        <time>2022-04-15T09:08:14Z</time>
      </trkpt>
      <trkpt lat="45.43435" lon="5.75499">
        <ele>389.9</ele>
        <time>2022-04-15T09:08:15Z</time>
      </trkpt>
      <trkpt lat="45.43438" lon="5.75497">
        <ele>390</ele>
        <time>2022-04-15T09:08:17Z</time>
      </trkpt>
      <trkpt lat="45.43444" lon="5.75495">
        <ele>390</ele>
        <time>2022-04-15T09:08:19Z</time>
      </trkpt>
      <trkpt lat="45.43447" lon="5.75493">
        <ele>390</ele>
        <time>2022-04-15T09:08:20Z</time>
      </trkpt>
      <trkpt lat="45.4345" lon="5.75492">
        <ele>390</ele>
        <time>2022-04-15T09:08:21Z</time>
      </trkpt>
      <trkpt lat="45.43453" lon="5.75491">
        <ele>390</ele>
        <time>2022-04-15T09:08:22Z</time>
      </trkpt>
      <trkpt lat="45.43457" lon="5.75489">
        <ele>390.1</ele>
        <time>2022-04-15T09:08:23Z</time>
      </trkpt>
      <trkpt lat="45.43461" lon="5.75488">
        <ele>390.1</ele>
        <time>2022-04-15T09:08:25Z</time>
      </trkpt>
      <trkpt lat="45.43463" lon="5.75487">
        <ele>390.1</ele>
        <time>2022-04-15T09:08:26Z</time>
      </trkpt>
      <trkpt lat="45.43464" lon="5.75487">
        <ele>390.1</ele>
        <time>2022-04-15T09:08:27Z</time>
      </trkpt>
      <trkpt lat="45.43469" lon="5.75485">
        <ele>390.1</ele>
        <time>2022-04-15T09:08:28Z</time>
      </trkpt>
      <trkpt lat="45.43471" lon="5.75485">
        <ele>390.2</ele>
        <time>2022-04-15T09:08:29Z</time>
      </trkpt>
      <trkpt lat="45.43473" lon="5.75484">
        <ele>390.2</ele>
        <time>2022-04-15T09:08:30Z</time>
      </trkpt>
      <trkpt lat="45.43475" lon="5.75483">
        <ele>390.2</ele>
        <time>2022-04-15T09:08:32Z</time>
      </trkpt>
      <trkpt lat="45.43477" lon="5.75483">
        <ele>390.2</ele>
        <time>2022-04-15T09:08:33Z</time>
      </trkpt>
      <trkpt lat="45.43478" lon="5.75482">
        <ele>390.2</ele>
        <time>2022-04-15T09:08:34Z</time>
      </trkpt>
      <trkpt lat="45.43479" lon="5.75482">
        <ele>390.2</ele>
        <time>2022-04-15T09:08:35Z</time>
      </trkpt>
      <trkpt lat="45.4348" lon="5.75482">
        <ele>390.2</ele>
        <time>2022-04-15T09:08:37Z</time>
      </trkpt>
      <trkpt lat="45.43481" lon="5.75481">
        <ele>390.2</ele>
        <time>2022-04-15T09:08:39Z</time>
      </trkpt>
      <trkpt lat="45.43481" lon="5.75481">
        <ele>390.2</ele>
        <time>2022-04-15T09:08:40Z</time>
      </trkpt>
      <trkpt lat="45.43481" lon="5.75481">
        <ele>390.2</ele>
        <time>2022-04-15T09:08:41Z</time>
      </trkpt>
      <trkpt lat="45.43481" lon="5.75481">
        <ele>390.2</ele>
        <time>2022-04-15T09:08:42Z</time>
      </trkpt>
      <trkpt lat="45.43481" lon="5.75482">
        <ele>390.2</ele>
        <time>2022-04-15T09:08:43Z</time>
      </trkpt>
      <trkpt lat="45.43481" lon="5.75482">
        <ele>390.2</ele>
        <time>2022-04-15T09:08:44Z</time>
      </trkpt>
      <trkpt lat="45.43481" lon="5.75482">
        <ele>390.2</ele>
        <time>2022-04-15T09:08:45Z</time>
      </trkpt>
      <trkpt lat="45.43481" lon="5.75482">
        <ele>390.2</ele>
        <time>2022-04-15T09:08:46Z</time>
      </trkpt>
      <trkpt lat="45.43481" lon="5.75482">
        <ele>390.2</ele>
        <time>2022-04-15T09:08:48Z</time>
      </trkpt>
      <trkpt lat="45.43481" lon="5.75482">
        <ele>390.2</ele>
        <time>2022-04-15T09:08:49Z</time>
      </trkpt>
      <trkpt lat="45.43481" lon="5.75482">
        <ele>390.2</ele>
        <time>2022-04-15T09:08:51Z</time>
      </trkpt>
      <trkpt lat="45.43481" lon="5.75482">
        <ele>390.2</ele>
        <time>2022-04-15T09:08:52Z</time>
      </trkpt>
      <trkpt lat="45.43481" lon="5.75482">
        <ele>390.2</ele>
        <time>2022-04-15T09:08:53Z</time>
      </trkpt>
      <trkpt lat="45.43481" lon="5.75481">
        <ele>390.2</ele>
        <time>2022-04-15T09:08:54Z</time>
      </trkpt>
      <trkpt lat="45.43481" lon="5.75481">
        <ele>390.2</ele>
        <time>2022-04-15T09:08:55Z</time>
      </trkpt>
      <trkpt lat="45.43481" lon="5.75481">
        <ele>390.2</ele>
        <time>2022-04-15T09:08:56Z</time>
      </trkpt>
      <trkpt lat="45.43481" lon="5.75481">
        <ele>390.2</ele>
        <time>2022-04-15T09:08:57Z</time>
      </trkpt>
      <trkpt lat="45.43481" lon="5.75481">
        <ele>390.2</ele>
        <time>2022-04-15T09:08:58Z</time>
      </trkpt>
      <trkpt lat="45.43481" lon="5.75481">
        <ele>390.2</ele>
        <time>2022-04-15T09:08:59Z</time>
      </trkpt>
      <trkpt lat="45.43481" lon="5.75481">
        <ele>390.2</ele>
        <time>2022-04-15T09:09:00Z</time>
      </trkpt>
      <trkpt lat="45.43481" lon="5.75481">
        <ele>390.2</ele>
        <time>2022-04-15T09:09:01Z</time>
      </trkpt>
      <trkpt lat="45.43481" lon="5.75481">
        <ele>390.2</ele>
        <time>2022-04-15T09:09:02Z</time>
      </trkpt>
      <trkpt lat="45.43481" lon="5.75481">
        <ele>390.2</ele>
        <time>2022-04-15T09:09:03Z</time>
      </trkpt>
      <trkpt lat="45.43481" lon="5.75481">
        <ele>390.2</ele>
        <time>2022-04-15T09:09:04Z</time>
      </trkpt>
      <trkpt lat="45.43481" lon="5.75481">
        <ele>390.2</ele>
        <time>2022-04-15T09:09:05Z</time>
      </trkpt>
      <trkpt lat="45.43481" lon="5.7548">
        <ele>390.2</ele>
        <time>2022-04-15T09:09:06Z</time>
      </trkpt>
      <trkpt lat="45.43481" lon="5.7548">
        <ele>390.2</ele>
        <time>2022-04-15T09:09:07Z</time>
      </trkpt>
      <trkpt lat="45.43481" lon="5.7548">
        <ele>390.2</ele>
        <time>2022-04-15T09:09:08Z</time>
      </trkpt>
      <trkpt lat="45.43481" lon="5.75479">
        <ele>390.3</ele>
        <time>2022-04-15T09:09:09Z</time>
      </trkpt>
      <trkpt lat="45.43481" lon="5.75479">
        <ele>390.3</ele>
        <time>2022-04-15T09:09:10Z</time>
      </trkpt>
      <trkpt lat="45.43481" lon="5.75479">
        <ele>390.3</ele>
        <time>2022-04-15T09:09:11Z</time>
      </trkpt>
      <trkpt lat="45.43481" lon="5.75479">
        <ele>390.3</ele>
        <time>2022-04-15T09:09:12Z</time>
      </trkpt>
      <trkpt lat="45.43481" lon="5.75478">
        <ele>390.3</ele>
        <time>2022-04-15T09:09:13Z</time>
      </trkpt>
      <trkpt lat="45.43481" lon="5.75478">
        <ele>390.3</ele>
        <time>2022-04-15T09:09:14Z</time>
      </trkpt>
      <trkpt lat="45.43481" lon="5.75478">
        <ele>390.3</ele>
        <time>2022-04-15T09:09:15Z</time>
      </trkpt>
      <trkpt lat="45.43481" lon="5.75478">
        <ele>390.3</ele>
        <time>2022-04-15T09:09:16Z</time>
      </trkpt>
      <trkpt lat="45.43481" lon="5.75478">
        <ele>390.3</ele>
        <time>2022-04-15T09:09:17Z</time>
      </trkpt>
      <trkpt lat="45.43481" lon="5.75478">
        <ele>390.3</ele>
        <time>2022-04-15T09:09:18Z</time>
      </trkpt>
      <trkpt lat="45.43481" lon="5.75478">
        <ele>390.3</ele>
        <time>2022-04-15T09:09:19Z</time>
      </trkpt>
      <trkpt lat="45.43481" lon="5.75478">
        <ele>390.3</ele>
        <time>2022-04-15T09:09:20Z</time>
      </trkpt>
      <trkpt lat="45.43481" lon="5.75478">
        <ele>390.3</ele>
        <time>2022-04-15T09:09:21Z</time>
      </trkpt>
      <trkpt lat="45.43481" lon="5.75478">
        <ele>390.3</ele>
        <time>2022-04-15T09:09:22Z</time>
      </trkpt>
      <trkpt lat="45.43481" lon="5.75478">
        <ele>390.3</ele>
        <time>2022-04-15T09:09:23Z</time>
      </trkpt>
      <trkpt lat="45.43481" lon="5.75478">
        <ele>390.3</ele>
        <time>2022-04-15T09:09:24Z</time>
      </trkpt>
      <trkpt lat="45.43481" lon="5.75478">
        <ele>390.3</ele>
        <time>2022-04-15T09:09:25Z</time>
      </trkpt>
      <trkpt lat="45.43481" lon="5.75478">
        <ele>390.3</ele>
        <time>2022-04-15T09:09:26Z</time>
      </trkpt>
      <trkpt lat="45.43481" lon="5.75478">
        <ele>390.3</ele>
        <time>2022-04-15T09:09:27Z</time>
      </trkpt>
      <trkpt lat="45.43481" lon="5.75478">
        <ele>390.3</ele>
        <time>2022-04-15T09:09:28Z</time>
      </trkpt>
      <trkpt lat="45.43481" lon="5.75478">
        <ele>390.3</ele>
        <time>2022-04-15T09:09:29Z</time>
      </trkpt>
      <trkpt lat="45.43481" lon="5.75478">
        <ele>390.3</ele>
        <time>2022-04-15T09:09:30Z</time>
      </trkpt>
      <trkpt lat="45.43481" lon="5.75478">
        <ele>390.3</ele>
        <time>2022-04-15T09:09:31Z</time>
      </trkpt>
      <trkpt lat="45.43481" lon="5.75478">
        <ele>390.3</ele>
        <time>2022-04-15T09:09:32Z</time>
      </trkpt>
      <trkpt lat="45.43481" lon="5.75478">
        <ele>390.3</ele>
        <time>2022-04-15T09:09:33Z</time>
      </trkpt>
      <trkpt lat="45.43481" lon="5.75478">
        <ele>390.3</ele>
        <time>2022-04-15T09:09:34Z</time>
      </trkpt>
      <trkpt lat="45.43481" lon="5.75478">
        <ele>390.3</ele>
        <time>2022-04-15T09:09:35Z</time>
      </trkpt>
      <trkpt lat="45.43481" lon="5.75478">
        <ele>390.3</ele>
        <time>2022-04-15T09:09:36Z</time>
      </trkpt>
      <trkpt lat="45.43481" lon="5.75478">
        <ele>390.3</ele>
        <time>2022-04-15T09:09:37Z</time>
      </trkpt>
      <trkpt lat="45.43481" lon="5.75478">
        <ele>390.3</ele>
        <time>2022-04-15T09:09:38Z</time>
      </trkpt>
      <trkpt lat="45.43481" lon="5.75478">
        <ele>390.3</ele>
        <time>2022-04-15T09:09:39Z</time>
      </trkpt>
      <trkpt lat="45.43481" lon="5.75478">
        <ele>390.3</ele>
        <time>2022-04-15T09:09:40Z</time>
      </trkpt>
      <trkpt lat="45.43481" lon="5.75478">
        <ele>390.3</ele>
        <time>2022-04-15T09:09:41Z</time>
      </trkpt>
      <trkpt lat="45.43481" lon="5.75478">
        <ele>390.3</ele>
        <time>2022-04-15T09:09:42Z</time>
      </trkpt>
      <trkpt lat="45.43481" lon="5.75478">
        <ele>390.3</ele>
        <time>2022-04-15T09:09:43Z</time>
      </trkpt>
      <trkpt lat="45.43481" lon="5.75478">
        <ele>390.3</ele>
        <time>2022-04-15T09:09:44Z</time>
      </trkpt>
      <trkpt lat="45.43481" lon="5.75478">
        <ele>390.3</ele>
        <time>2022-04-15T09:09:45Z</time>
      </trkpt>
      <trkpt lat="45.43481" lon="5.75478">
        <ele>390.3</ele>
        <time>2022-04-15T09:09:46Z</time>
      </trkpt>
      <trkpt lat="45.43481" lon="5.75478">
        <ele>390.3</ele>
        <time>2022-04-15T09:09:47Z</time>
      </trkpt>
      <trkpt lat="45.43481" lon="5.75478">
        <ele>390.3</ele>
        <time>2022-04-15T09:09:48Z</time>
      </trkpt>
      <trkpt lat="45.43481" lon="5.75478">
        <ele>390.3</ele>
        <time>2022-04-15T09:09:49Z</time>
      </trkpt>
      <trkpt lat="45.43481" lon="5.75478">
        <ele>390.3</ele>
        <time>2022-04-15T09:09:50Z</time>
      </trkpt>
      <trkpt lat="45.43481" lon="5.75478">
        <ele>390.3</ele>
        <time>2022-04-15T09:09:51Z</time>
      </trkpt>
      <trkpt lat="45.43481" lon="5.75478">
        <ele>390.3</ele>
        <time>2022-04-15T09:09:52Z</time>
      </trkpt>
      <trkpt lat="45.43481" lon="5.75478">
        <ele>390.3</ele>
        <time>2022-04-15T09:09:53Z</time>
      </trkpt>
      <trkpt lat="45.43481" lon="5.75478">
        <ele>390.3</ele>
        <time>2022-04-15T09:09:54Z</time>
      </trkpt>
      <trkpt lat="45.43481" lon="5.75478">
        <ele>390.3</ele>
        <time>2022-04-15T09:09:55Z</time>
      </trkpt>
      <trkpt lat="45.43481" lon="5.75478">
        <ele>390.3</ele>
        <time>2022-04-15T09:09:56Z</time>
      </trkpt>
      <trkpt lat="45.43481" lon="5.75478">
        <ele>390.3</ele>
        <time>2022-04-15T09:09:57Z</time>
      </trkpt>
      <trkpt lat="45.43481" lon="5.75478">
        <ele>390.3</ele>
        <time>2022-04-15T09:09:58Z</time>
      </trkpt>
      <trkpt lat="45.43481" lon="5.75478">
        <ele>390.3</ele>
        <time>2022-04-15T09:09:59Z</time>
      </trkpt>
      <trkpt lat="45.43484" lon="5.75477">
        <ele>390.3</ele>
        <time>2022-04-15T09:10:00Z</time>
      </trkpt>
      <trkpt lat="45.43485" lon="5.75477">
        <ele>390.3</ele>
        <time>2022-04-15T09:10:01Z</time>
      </trkpt>
      <trkpt lat="45.43486" lon="5.75476">
        <ele>390.3</ele>
        <time>2022-04-15T09:10:02Z</time>
      </trkpt>
      <trkpt lat="45.43487" lon="5.75476">
        <ele>390.3</ele>
        <time>2022-04-15T09:10:03Z</time>
      </trkpt>
      <trkpt lat="45.43491" lon="5.75474">
        <ele>390.4</ele>
        <time>2022-04-15T09:10:05Z</time>
      </trkpt>
      <trkpt lat="45.43494" lon="5.75473">
        <ele>390.4</ele>
        <time>2022-04-15T09:10:07Z</time>
      </trkpt>
      <trkpt lat="45.43497" lon="5.75471">
        <ele>390.4</ele>
        <time>2022-04-15T09:10:08Z</time>
      </trkpt>
      <trkpt lat="45.43502" lon="5.75468">
        <ele>390.5</ele>
        <time>2022-04-15T09:10:10Z</time>
      </trkpt>
      <trkpt lat="45.43504" lon="5.75467">
        <ele>390.5</ele>
        <time>2022-04-15T09:10:11Z</time>
      </trkpt>
      <trkpt lat="45.43508" lon="5.75466">
        <ele>390.5</ele>
        <time>2022-04-15T09:10:12Z</time>
      </trkpt>
      <trkpt lat="45.43512" lon="5.75463">
        <ele>390.6</ele>
        <time>2022-04-15T09:10:14Z</time>
      </trkpt>
      <trkpt lat="45.43514" lon="5.75461">
        <ele>390.6</ele>
        <time>2022-04-15T09:10:15Z</time>
      </trkpt>
      <trkpt lat="45.43517" lon="5.75459">
        <ele>390.6</ele>
        <time>2022-04-15T09:10:17Z</time>
      </trkpt>
      <trkpt lat="45.43519" lon="5.75456">
        <ele>390.7</ele>
        <time>2022-04-15T09:10:18Z</time>
      </trkpt>
      <trkpt lat="45.4352" lon="5.75455">
        <ele>390.7</ele>
        <time>2022-04-15T09:10:19Z</time>
      </trkpt>
      <trkpt lat="45.43523" lon="5.75453">
        <ele>390.7</ele>
        <time>2022-04-15T09:10:21Z</time>
      </trkpt>
      <trkpt lat="45.43524" lon="5.75453">
        <ele>390.7</ele>
        <time>2022-04-15T09:10:22Z</time>
      </trkpt>
      <trkpt lat="45.43528" lon="5.7545">
        <ele>390.7</ele>
        <time>2022-04-15T09:10:23Z</time>
      </trkpt>
      <trkpt lat="45.4353" lon="5.75447">
        <ele>390.8</ele>
        <time>2022-04-15T09:10:25Z</time>
      </trkpt>
      <trkpt lat="45.43531" lon="5.75445">
        <ele>390.8</ele>
        <time>2022-04-15T09:10:26Z</time>
      </trkpt>
      <trkpt lat="45.43533" lon="5.75441">
        <ele>390.9</ele>
        <time>2022-04-15T09:10:27Z</time>
      </trkpt>
      <trkpt lat="45.43534" lon="5.7544">
        <ele>391</ele>
        <time>2022-04-15T09:10:28Z</time>
      </trkpt>
      <trkpt lat="45.43536" lon="5.75436">
        <ele>391.1</ele>
        <time>2022-04-15T09:10:29Z</time>
      </trkpt>
      <trkpt lat="45.43536" lon="5.75435">
        <ele>391.1</ele>
        <time>2022-04-15T09:10:30Z</time>
      </trkpt>
      <trkpt lat="45.43538" lon="5.7543">
        <ele>391.2</ele>
        <time>2022-04-15T09:10:31Z</time>
      </trkpt>
      <trkpt lat="45.43539" lon="5.75428">
        <ele>391.2</ele>
        <time>2022-04-15T09:10:32Z</time>
      </trkpt>
      <trkpt lat="45.43541" lon="5.75425">
        <ele>391.3</ele>
        <time>2022-04-15T09:10:33Z</time>
      </trkpt>
      <trkpt lat="45.43543" lon="5.7542">
        <ele>391.5</ele>
        <time>2022-04-15T09:10:35Z</time>
      </trkpt>
      <trkpt lat="45.43545" lon="5.75417">
        <ele>391.6</ele>
        <time>2022-04-15T09:10:36Z</time>
      </trkpt>
      <trkpt lat="45.43548" lon="5.75414">
        <ele>391.8</ele>
        <time>2022-04-15T09:10:38Z</time>
      </trkpt>
      <trkpt lat="45.43551" lon="5.75412">
        <ele>391.9</ele>
        <time>2022-04-15T09:10:39Z</time>
      </trkpt>
      <trkpt lat="45.43556" lon="5.75412">
        <ele>392.1</ele>
        <time>2022-04-15T09:10:41Z</time>
      </trkpt>
      <trkpt lat="45.43558" lon="5.75411">
        <ele>392.2</ele>
        <time>2022-04-15T09:10:42Z</time>
      </trkpt>
      <trkpt lat="45.43559" lon="5.75411">
        <ele>392.3</ele>
        <time>2022-04-15T09:10:43Z</time>
      </trkpt>
      <trkpt lat="45.43563" lon="5.75411">
        <ele>392.5</ele>
        <time>2022-04-15T09:10:44Z</time>
      </trkpt>
      <trkpt lat="45.43565" lon="5.75411">
        <ele>392.5</ele>
        <time>2022-04-15T09:10:45Z</time>
      </trkpt>
      <trkpt lat="45.43567" lon="5.75411">
        <ele>392.6</ele>
        <time>2022-04-15T09:10:47Z</time>
      </trkpt>
      <trkpt lat="45.4357" lon="5.75412">
        <ele>392.8</ele>
        <time>2022-04-15T09:10:48Z</time>
      </trkpt>
      <trkpt lat="45.43571" lon="5.75412">
        <ele>392.8</ele>
        <time>2022-04-15T09:10:49Z</time>
      </trkpt>
      <trkpt lat="45.43574" lon="5.75412">
        <ele>393</ele>
        <time>2022-04-15T09:10:50Z</time>
      </trkpt>
      <trkpt lat="45.43576" lon="5.75411">
        <ele>393.1</ele>
        <time>2022-04-15T09:10:51Z</time>
      </trkpt>
      <trkpt lat="45.43579" lon="5.75412">
        <ele>393.2</ele>
        <time>2022-04-15T09:10:53Z</time>
      </trkpt>
      <trkpt lat="45.43582" lon="5.75412">
        <ele>393.3</ele>
        <time>2022-04-15T09:10:54Z</time>
      </trkpt>
      <trkpt lat="45.43586" lon="5.75413">
        <ele>393.5</ele>
        <time>2022-04-15T09:10:56Z</time>
      </trkpt>
      <trkpt lat="45.43589" lon="5.75414">
        <ele>393.7</ele>
        <time>2022-04-15T09:10:57Z</time>
      </trkpt>
      <trkpt lat="45.43591" lon="5.75414">
        <ele>393.7</ele>
        <time>2022-04-15T09:10:58Z</time>
      </trkpt>
      <trkpt lat="45.43592" lon="5.75414">
        <ele>393.8</ele>
        <time>2022-04-15T09:10:59Z</time>
      </trkpt>
      <trkpt lat="45.43595" lon="5.75414">
        <ele>393.9</ele>
        <time>2022-04-15T09:11:00Z</time>
      </trkpt>
      <trkpt lat="45.43598" lon="5.75415">
        <ele>394.1</ele>
        <time>2022-04-15T09:11:02Z</time>
      </trkpt>
      <trkpt lat="45.43602" lon="5.75416">
        <ele>394.3</ele>
        <time>2022-04-15T09:11:03Z</time>
      </trkpt>
      <trkpt lat="45.43605" lon="5.75417">
        <ele>394.4</ele>
        <time>2022-04-15T09:11:05Z</time>
      </trkpt>
      <trkpt lat="45.4361" lon="5.75416">
        <ele>394.7</ele>
        <time>2022-04-15T09:11:07Z</time>
      </trkpt>
      <trkpt lat="45.43614" lon="5.75416">
        <ele>395.2</ele>
        <time>2022-04-15T09:11:09Z</time>
      </trkpt>
      <trkpt lat="45.43616" lon="5.75415">
        <ele>395.1</ele>
        <time>2022-04-15T09:11:10Z</time>
      </trkpt>
      <trkpt lat="45.43617" lon="5.7541">
        <ele>394.9</ele>
        <time>2022-04-15T09:11:12Z</time>
      </trkpt>
      <trkpt lat="45.43616" lon="5.75406">
        <ele>394.8</ele>
        <time>2022-04-15T09:11:13Z</time>
      </trkpt>
      <trkpt lat="45.43615" lon="5.754">
        <ele>394.7</ele>
        <time>2022-04-15T09:11:14Z</time>
      </trkpt>
      <trkpt lat="45.43615" lon="5.75397">
        <ele>394.6</ele>
        <time>2022-04-15T09:11:15Z</time>
      </trkpt>
      <trkpt lat="45.43616" lon="5.7539">
        <ele>394.4</ele>
        <time>2022-04-15T09:11:16Z</time>
      </trkpt>
      <trkpt lat="45.43617" lon="5.75382">
        <ele>394.2</ele>
        <time>2022-04-15T09:11:17Z</time>
      </trkpt>
      <trkpt lat="45.43616" lon="5.75378">
        <ele>394.1</ele>
        <time>2022-04-15T09:11:19Z</time>
      </trkpt>
      <trkpt lat="45.43615" lon="5.75374">
        <ele>394.1</ele>
        <time>2022-04-15T09:11:20Z</time>
      </trkpt>
      <trkpt lat="45.43615" lon="5.75369">
        <ele>394</ele>
        <time>2022-04-15T09:11:22Z</time>
      </trkpt>
      <trkpt lat="45.43618" lon="5.75366">
        <ele>393.9</ele>
        <time>2022-04-15T09:11:24Z</time>
      </trkpt>
      <trkpt lat="45.43619" lon="5.75365">
        <ele>393.8</ele>
        <time>2022-04-15T09:11:25Z</time>
      </trkpt>
      <trkpt lat="45.4362" lon="5.75365">
        <ele>393.8</ele>
        <time>2022-04-15T09:11:26Z</time>
      </trkpt>
      <trkpt lat="45.4362" lon="5.75365">
        <ele>393.8</ele>
        <time>2022-04-15T09:11:27Z</time>
      </trkpt>
      <trkpt lat="45.43619" lon="5.75365">
        <ele>393.8</ele>
        <time>2022-04-15T09:11:28Z</time>
      </trkpt>
      <trkpt lat="45.43619" lon="5.75365">
        <ele>393.8</ele>
        <time>2022-04-15T09:11:29Z</time>
      </trkpt>
      <trkpt lat="45.43619" lon="5.75365">
        <ele>393.8</ele>
        <time>2022-04-15T09:11:30Z</time>
      </trkpt>
      <trkpt lat="45.43619" lon="5.75365">
        <ele>393.8</ele>
        <time>2022-04-15T09:11:31Z</time>
      </trkpt>
      <trkpt lat="45.4362" lon="5.75365">
        <ele>393.8</ele>
        <time>2022-04-15T09:11:32Z</time>
      </trkpt>
      <trkpt lat="45.4362" lon="5.75365">
        <ele>393.8</ele>
        <time>2022-04-15T09:11:33Z</time>
      </trkpt>
      <trkpt lat="45.4362" lon="5.75365">
        <ele>393.8</ele>
        <time>2022-04-15T09:11:34Z</time>
      </trkpt>
      <trkpt lat="45.4362" lon="5.75365">
        <ele>393.7</ele>
        <time>2022-04-15T09:11:35Z</time>
      </trkpt>
      <trkpt lat="45.43621" lon="5.75364">
        <ele>393.7</ele>
        <time>2022-04-15T09:11:36Z</time>
      </trkpt>
      <trkpt lat="45.43621" lon="5.75363">
        <ele>393.7</ele>
        <time>2022-04-15T09:11:37Z</time>
      </trkpt>
      <trkpt lat="45.43621" lon="5.75361">
        <ele>393.7</ele>
        <time>2022-04-15T09:11:39Z</time>
      </trkpt>
      <trkpt lat="45.43621" lon="5.75362">
        <ele>393.7</ele>
        <time>2022-04-15T09:11:40Z</time>
      </trkpt>
      <trkpt lat="45.43621" lon="5.75362">
        <ele>393.7</ele>
        <time>2022-04-15T09:11:41Z</time>
      </trkpt>
      <trkpt lat="45.43621" lon="5.75361">
        <ele>393.7</ele>
        <time>2022-04-15T09:11:42Z</time>
      </trkpt>
      <trkpt lat="45.43621" lon="5.75361">
        <ele>393.7</ele>
        <time>2022-04-15T09:11:43Z</time>
      </trkpt>
      <trkpt lat="45.43622" lon="5.75361">
        <ele>393.6</ele>
        <time>2022-04-15T09:11:44Z</time>
      </trkpt>
      <trkpt lat="45.43622" lon="5.75361">
        <ele>393.6</ele>
        <time>2022-04-15T09:11:45Z</time>
      </trkpt>
      <trkpt lat="45.43622" lon="5.75361">
        <ele>393.6</ele>
        <time>2022-04-15T09:11:46Z</time>
      </trkpt>
      <trkpt lat="45.43623" lon="5.75361">
        <ele>393.6</ele>
        <time>2022-04-15T09:11:47Z</time>
      </trkpt>
      <trkpt lat="45.43623" lon="5.75361">
        <ele>393.6</ele>
        <time>2022-04-15T09:11:48Z</time>
      </trkpt>
      <trkpt lat="45.43624" lon="5.75361">
        <ele>393.6</ele>
        <time>2022-04-15T09:11:49Z</time>
      </trkpt>
      <trkpt lat="45.43624" lon="5.75361">
        <ele>393.6</ele>
        <time>2022-04-15T09:11:50Z</time>
      </trkpt>
      <trkpt lat="45.43624" lon="5.75361">
        <ele>393.6</ele>
        <time>2022-04-15T09:11:51Z</time>
      </trkpt>
      <trkpt lat="45.43623" lon="5.75361">
        <ele>393.6</ele>
        <time>2022-04-15T09:11:52Z</time>
      </trkpt>
      <trkpt lat="45.43623" lon="5.75361">
        <ele>393.6</ele>
        <time>2022-04-15T09:11:53Z</time>
      </trkpt>
      <trkpt lat="45.43623" lon="5.75361">
        <ele>393.6</ele>
        <time>2022-04-15T09:11:54Z</time>
      </trkpt>
      <trkpt lat="45.43623" lon="5.7536">
        <ele>393.6</ele>
        <time>2022-04-15T09:11:55Z</time>
      </trkpt>
      <trkpt lat="45.43623" lon="5.7536">
        <ele>393.6</ele>
        <time>2022-04-15T09:11:57Z</time>
      </trkpt>
      <trkpt lat="45.43623" lon="5.7536">
        <ele>393.6</ele>
        <time>2022-04-15T09:11:58Z</time>
      </trkpt>
      <trkpt lat="45.43623" lon="5.75361">
        <ele>393.6</ele>
        <time>2022-04-15T09:11:59Z</time>
      </trkpt>
      <trkpt lat="45.43623" lon="5.75361">
        <ele>393.6</ele>
        <time>2022-04-15T09:12:01Z</time>
      </trkpt>
      <trkpt lat="45.43623" lon="5.75361">
        <ele>393.6</ele>
        <time>2022-04-15T09:12:02Z</time>
      </trkpt>
      <trkpt lat="45.43623" lon="5.75361">
        <ele>393.6</ele>
        <time>2022-04-15T09:12:03Z</time>
      </trkpt>
      <trkpt lat="45.43623" lon="5.75361">
        <ele>393.6</ele>
        <time>2022-04-15T09:12:04Z</time>
      </trkpt>
      <trkpt lat="45.43623" lon="5.75361">
        <ele>393.6</ele>
        <time>2022-04-15T09:12:05Z</time>
      </trkpt>
      <trkpt lat="45.43623" lon="5.75361">
        <ele>393.6</ele>
        <time>2022-04-15T09:12:06Z</time>
      </trkpt>
      <trkpt lat="45.43623" lon="5.75361">
        <ele>393.5</ele>
        <time>2022-04-15T09:12:07Z</time>
      </trkpt>
      <trkpt lat="45.43623" lon="5.75361">
        <ele>393.5</ele>
        <time>2022-04-15T09:12:08Z</time>
      </trkpt>
      <trkpt lat="45.43623" lon="5.75361">
        <ele>393.5</ele>
        <time>2022-04-15T09:12:09Z</time>
      </trkpt>
      <trkpt lat="45.43623" lon="5.7536">
        <ele>393.5</ele>
        <time>2022-04-15T09:12:11Z</time>
      </trkpt>
      <trkpt lat="45.43623" lon="5.7536">
        <ele>393.5</ele>
        <time>2022-04-15T09:12:12Z</time>
      </trkpt>
      <trkpt lat="45.43622" lon="5.7536">
        <ele>393.5</ele>
        <time>2022-04-15T09:12:13Z</time>
      </trkpt>
      <trkpt lat="45.43622" lon="5.7536">
        <ele>393.5</ele>
        <time>2022-04-15T09:12:14Z</time>
      </trkpt>
      <trkpt lat="45.43622" lon="5.7536">
        <ele>393.5</ele>
        <time>2022-04-15T09:12:15Z</time>
      </trkpt>
      <trkpt lat="45.43622" lon="5.7536">
        <ele>393.5</ele>
        <time>2022-04-15T09:12:16Z</time>
      </trkpt>
      <trkpt lat="45.43623" lon="5.75361">
        <ele>393.5</ele>
        <time>2022-04-15T09:12:17Z</time>
      </trkpt>
      <trkpt lat="45.43623" lon="5.75361">
        <ele>393.5</ele>
        <time>2022-04-15T09:12:18Z</time>
      </trkpt>
      <trkpt lat="45.43623" lon="5.75361">
        <ele>393.5</ele>
        <time>2022-04-15T09:12:19Z</time>
      </trkpt>
      <trkpt lat="45.43623" lon="5.7536">
        <ele>393.5</ele>
        <time>2022-04-15T09:12:20Z</time>
      </trkpt>
      <trkpt lat="45.43623" lon="5.7536">
        <ele>393.5</ele>
        <time>2022-04-15T09:12:21Z</time>
      </trkpt>
      <trkpt lat="45.43623" lon="5.7536">
        <ele>393.5</ele>
        <time>2022-04-15T09:12:22Z</time>
      </trkpt>
      <trkpt lat="45.43623" lon="5.7536">
        <ele>393.5</ele>
        <time>2022-04-15T09:12:23Z</time>
      </trkpt>
      <trkpt lat="45.43623" lon="5.7536">
        <ele>393.5</ele>
        <time>2022-04-15T09:12:24Z</time>
      </trkpt>
      <trkpt lat="45.43623" lon="5.7536">
        <ele>393.5</ele>
        <time>2022-04-15T09:12:25Z</time>
      </trkpt>
      <trkpt lat="45.43623" lon="5.7536">
        <ele>393.5</ele>
        <time>2022-04-15T09:12:26Z</time>
      </trkpt>
      <trkpt lat="45.43623" lon="5.7536">
        <ele>393.5</ele>
        <time>2022-04-15T09:12:27Z</time>
      </trkpt>
      <trkpt lat="45.43623" lon="5.7536">
        <ele>393.5</ele>
        <time>2022-04-15T09:12:28Z</time>
      </trkpt>
      <trkpt lat="45.43623" lon="5.7536">
        <ele>393.5</ele>
        <time>2022-04-15T09:12:29Z</time>
      </trkpt>
      <trkpt lat="45.43623" lon="5.7536">
        <ele>393.5</ele>
        <time>2022-04-15T09:12:30Z</time>
      </trkpt>
      <trkpt lat="45.43623" lon="5.7536">
        <ele>393.5</ele>
        <time>2022-04-15T09:12:31Z</time>
      </trkpt>
      <trkpt lat="45.43623" lon="5.7536">
        <ele>393.5</ele>
        <time>2022-04-15T09:12:32Z</time>
      </trkpt>
      <trkpt lat="45.43623" lon="5.7536">
        <ele>393.5</ele>
        <time>2022-04-15T09:12:33Z</time>
      </trkpt>
      <trkpt lat="45.43623" lon="5.7536">
        <ele>393.5</ele>
        <time>2022-04-15T09:12:34Z</time>
      </trkpt>
      <trkpt lat="45.43623" lon="5.7536">
        <ele>393.5</ele>
        <time>2022-04-15T09:12:35Z</time>
      </trkpt>
      <trkpt lat="45.43623" lon="5.7536">
        <ele>393.5</ele>
        <time>2022-04-15T09:12:36Z</time>
      </trkpt>
      <trkpt lat="45.43623" lon="5.7536">
        <ele>393.5</ele>
        <time>2022-04-15T09:12:37Z</time>
      </trkpt>
      <trkpt lat="45.43623" lon="5.7536">
        <ele>393.5</ele>
        <time>2022-04-15T09:12:38Z</time>
      </trkpt>
      <trkpt lat="45.43623" lon="5.7536">
        <ele>393.5</ele>
        <time>2022-04-15T09:12:39Z</time>
      </trkpt>
      <trkpt lat="45.43623" lon="5.7536">
        <ele>393.5</ele>
        <time>2022-04-15T09:12:40Z</time>
      </trkpt>
      <trkpt lat="45.43623" lon="5.7536">
        <ele>393.5</ele>
        <time>2022-04-15T09:12:41Z</time>
      </trkpt>
      <trkpt lat="45.43623" lon="5.7536">
        <ele>393.5</ele>
        <time>2022-04-15T09:12:42Z</time>
      </trkpt>
      <trkpt lat="45.43623" lon="5.7536">
        <ele>393.5</ele>
        <time>2022-04-15T09:12:43Z</time>
      </trkpt>
      <trkpt lat="45.43623" lon="5.7536">
        <ele>393.5</ele>
        <time>2022-04-15T09:12:44Z</time>
      </trkpt>
      <trkpt lat="45.43623" lon="5.7536">
        <ele>393.5</ele>
        <time>2022-04-15T09:12:45Z</time>
      </trkpt>
      <trkpt lat="45.43623" lon="5.7536">
        <ele>393.5</ele>
        <time>2022-04-15T09:12:46Z</time>
      </trkpt>
      <trkpt lat="45.43623" lon="5.7536">
        <ele>393.5</ele>
        <time>2022-04-15T09:12:47Z</time>
      </trkpt>
      <trkpt lat="45.43623" lon="5.7536">
        <ele>393.5</ele>
        <time>2022-04-15T09:12:48Z</time>
      </trkpt>
      <trkpt lat="45.43623" lon="5.7536">
        <ele>393.5</ele>
        <time>2022-04-15T09:12:49Z</time>
      </trkpt>
      <trkpt lat="45.43623" lon="5.7536">
        <ele>393.5</ele>
        <time>2022-04-15T09:12:50Z</time>
      </trkpt>
      <trkpt lat="45.43623" lon="5.7536">
        <ele>393.5</ele>
        <time>2022-04-15T09:12:51Z</time>
      </trkpt>
      <trkpt lat="45.43623" lon="5.7536">
        <ele>393.5</ele>
        <time>2022-04-15T09:12:52Z</time>
      </trkpt>
      <trkpt lat="45.43623" lon="5.7536">
        <ele>393.5</ele>
        <time>2022-04-15T09:12:53Z</time>
      </trkpt>
      <trkpt lat="45.43623" lon="5.7536">
        <ele>393.5</ele>
        <time>2022-04-15T09:12:54Z</time>
      </trkpt>
      <trkpt lat="45.43623" lon="5.7536">
        <ele>393.5</ele>
        <time>2022-04-15T09:12:55Z</time>
      </trkpt>
      <trkpt lat="45.43623" lon="5.7536">
        <ele>393.5</ele>
        <time>2022-04-15T09:12:56Z</time>
      </trkpt>
      <trkpt lat="45.43623" lon="5.7536">
        <ele>393.5</ele>
        <time>2022-04-15T09:12:57Z</time>
      </trkpt>
      <trkpt lat="45.43623" lon="5.7536">
        <ele>393.5</ele>
        <time>2022-04-15T09:12:58Z</time>
      </trkpt>
      <trkpt lat="45.43623" lon="5.7536">
        <ele>393.5</ele>
        <time>2022-04-15T09:12:59Z</time>
      </trkpt>
      <trkpt lat="45.43623" lon="5.7536">
        <ele>393.5</ele>
        <time>2022-04-15T09:13:00Z</time>
      </trkpt>
      <trkpt lat="45.43623" lon="5.7536">
        <ele>393.5</ele>
        <time>2022-04-15T09:13:01Z</time>
      </trkpt>
      <trkpt lat="45.43623" lon="5.7536">
        <ele>393.5</ele>
        <time>2022-04-15T09:13:02Z</time>
      </trkpt>
      <trkpt lat="45.43623" lon="5.7536">
        <ele>393.5</ele>
        <time>2022-04-15T09:13:03Z</time>
      </trkpt>
      <trkpt lat="45.43623" lon="5.7536">
        <ele>393.5</ele>
        <time>2022-04-15T09:13:04Z</time>
      </trkpt>
      <trkpt lat="45.43623" lon="5.7536">
        <ele>393.5</ele>
        <time>2022-04-15T09:13:05Z</time>
      </trkpt>
      <trkpt lat="45.43623" lon="5.7536">
        <ele>393.5</ele>
        <time>2022-04-15T09:13:06Z</time>
      </trkpt>
      <trkpt lat="45.43623" lon="5.7536">
        <ele>393.5</ele>
        <time>2022-04-15T09:13:07Z</time>
      </trkpt>
      <trkpt lat="45.43623" lon="5.7536">
        <ele>393.5</ele>
        <time>2022-04-15T09:13:08Z</time>
      </trkpt>
      <trkpt lat="45.43623" lon="5.7536">
        <ele>393.5</ele>
        <time>2022-04-15T09:13:09Z</time>
      </trkpt>
      <trkpt lat="45.43623" lon="5.7536">
        <ele>393.5</ele>
        <time>2022-04-15T09:13:10Z</time>
      </trkpt>
      <trkpt lat="45.43623" lon="5.7536">
        <ele>393.5</ele>
        <time>2022-04-15T09:13:11Z</time>
      </trkpt>
      <trkpt lat="45.43623" lon="5.7536">
        <ele>393.5</ele>
        <time>2022-04-15T09:13:12Z</time>
      </trkpt>
      <trkpt lat="45.43623" lon="5.7536">
        <ele>393.5</ele>
        <time>2022-04-15T09:13:13Z</time>
      </trkpt>
      <trkpt lat="45.43623" lon="5.7536">
        <ele>393.5</ele>
        <time>2022-04-15T09:13:14Z</time>
      </trkpt>
      <trkpt lat="45.43623" lon="5.7536">
        <ele>393.5</ele>
        <time>2022-04-15T09:13:15Z</time>
      </trkpt>
      <trkpt lat="45.43623" lon="5.7536">
        <ele>393.5</ele>
        <time>2022-04-15T09:13:16Z</time>
      </trkpt>
      <trkpt lat="45.43623" lon="5.7536">
        <ele>393.5</ele>
        <time>2022-04-15T09:13:17Z</time>
      </trkpt>
      <trkpt lat="45.43623" lon="5.7536">
        <ele>393.5</ele>
        <time>2022-04-15T09:13:18Z</time>
      </trkpt>
      <trkpt lat="45.43623" lon="5.7536">
        <ele>393.5</ele>
        <time>2022-04-15T09:13:19Z</time>
      </trkpt>
      <trkpt lat="45.43623" lon="5.7536">
        <ele>393.5</ele>
        <time>2022-04-15T09:13:20Z</time>
      </trkpt>
      <trkpt lat="45.43623" lon="5.7536">
        <ele>393.5</ele>
        <time>2022-04-15T09:13:21Z</time>
      </trkpt>
      <trkpt lat="45.43623" lon="5.7536">
        <ele>393.5</ele>
        <time>2022-04-15T09:13:22Z</time>
      </trkpt>
      <trkpt lat="45.43623" lon="5.7536">
        <ele>393.5</ele>
        <time>2022-04-15T09:13:23Z</time>
      </trkpt>
      <trkpt lat="45.43623" lon="5.7536">
        <ele>393.5</ele>
        <time>2022-04-15T09:13:24Z</time>
      </trkpt>
      <trkpt lat="45.43623" lon="5.7536">
        <ele>393.5</ele>
        <time>2022-04-15T09:13:25Z</time>
      </trkpt>
      <trkpt lat="45.43623" lon="5.7536">
        <ele>393.5</ele>
        <time>2022-04-15T09:13:26Z</time>
      </trkpt>
      <trkpt lat="45.43623" lon="5.7536">
        <ele>393.5</ele>
        <time>2022-04-15T09:13:27Z</time>
      </trkpt>
      <trkpt lat="45.43623" lon="5.7536">
        <ele>393.5</ele>
        <time>2022-04-15T09:13:28Z</time>
      </trkpt>
      <trkpt lat="45.43623" lon="5.7536">
        <ele>393.5</ele>
        <time>2022-04-15T09:13:29Z</time>
      </trkpt>
      <trkpt lat="45.43623" lon="5.7536">
        <ele>393.5</ele>
        <time>2022-04-15T09:13:30Z</time>
      </trkpt>
      <trkpt lat="45.43623" lon="5.7536">
        <ele>393.5</ele>
        <time>2022-04-15T09:13:31Z</time>
      </trkpt>
      <trkpt lat="45.43623" lon="5.7536">
        <ele>393.5</ele>
        <time>2022-04-15T09:13:32Z</time>
      </trkpt>
      <trkpt lat="45.43623" lon="5.7536">
        <ele>393.5</ele>
        <time>2022-04-15T09:13:33Z</time>
      </trkpt>
      <trkpt lat="45.43623" lon="5.7536">
        <ele>393.5</ele>
        <time>2022-04-15T09:13:34Z</time>
      </trkpt>
      <trkpt lat="45.43623" lon="5.7536">
        <ele>393.5</ele>
        <time>2022-04-15T09:13:35Z</time>
      </trkpt>
      <trkpt lat="45.43623" lon="5.7536">
        <ele>393.5</ele>
        <time>2022-04-15T09:13:36Z</time>
      </trkpt>
      <trkpt lat="45.43623" lon="5.7536">
        <ele>393.5</ele>
        <time>2022-04-15T09:13:37Z</time>
      </trkpt>
      <trkpt lat="45.43623" lon="5.7536">
        <ele>393.5</ele>
        <time>2022-04-15T09:13:38Z</time>
      </trkpt>
      <trkpt lat="45.43623" lon="5.7536">
        <ele>393.5</ele>
        <time>2022-04-15T09:13:39Z</time>
      </trkpt>
      <trkpt lat="45.43623" lon="5.7536">
        <ele>393.5</ele>
        <time>2022-04-15T09:13:40Z</time>
      </trkpt>
      <trkpt lat="45.43623" lon="5.7536">
        <ele>393.5</ele>
        <time>2022-04-15T09:13:41Z</time>
      </trkpt>
      <trkpt lat="45.43623" lon="5.7536">
        <ele>393.5</ele>
        <time>2022-04-15T09:13:42Z</time>
      </trkpt>
      <trkpt lat="45.43623" lon="5.7536">
        <ele>393.5</ele>
        <time>2022-04-15T09:13:43Z</time>
      </trkpt>
      <trkpt lat="45.43623" lon="5.7536">
        <ele>393.5</ele>
        <time>2022-04-15T09:13:44Z</time>
      </trkpt>
      <trkpt lat="45.43623" lon="5.7536">
        <ele>393.5</ele>
        <time>2022-04-15T09:13:45Z</time>
      </trkpt>
      <trkpt lat="45.43623" lon="5.7536">
        <ele>393.5</ele>
        <time>2022-04-15T09:13:46Z</time>
      </trkpt>
      <trkpt lat="45.43623" lon="5.7536">
        <ele>393.5</ele>
        <time>2022-04-15T09:13:47Z</time>
      </trkpt>
      <trkpt lat="45.43623" lon="5.7536">
        <ele>393.5</ele>
        <time>2022-04-15T09:13:48Z</time>
      </trkpt>
      <trkpt lat="45.43623" lon="5.7536">
        <ele>393.5</ele>
        <time>2022-04-15T09:13:49Z</time>
      </trkpt>
      <trkpt lat="45.43623" lon="5.7536">
        <ele>393.5</ele>
        <time>2022-04-15T09:13:50Z</time>
      </trkpt>
      <trkpt lat="45.43623" lon="5.7536">
        <ele>393.5</ele>
        <time>2022-04-15T09:13:51Z</time>
      </trkpt>
      <trkpt lat="45.43623" lon="5.7536">
        <ele>393.5</ele>
        <time>2022-04-15T09:13:52Z</time>
      </trkpt>
      <trkpt lat="45.43623" lon="5.7536">
        <ele>393.5</ele>
        <time>2022-04-15T09:13:53Z</time>
      </trkpt>
      <trkpt lat="45.43623" lon="5.7536">
        <ele>393.5</ele>
        <time>2022-04-15T09:13:54Z</time>
      </trkpt>
      <trkpt lat="45.43623" lon="5.7536">
        <ele>393.5</ele>
        <time>2022-04-15T09:13:55Z</time>
      </trkpt>
      <trkpt lat="45.43623" lon="5.7536">
        <ele>393.5</ele>
        <time>2022-04-15T09:13:56Z</time>
      </trkpt>
      <trkpt lat="45.43623" lon="5.7536">
        <ele>393.5</ele>
        <time>2022-04-15T09:13:57Z</time>
      </trkpt>
      <trkpt lat="45.43623" lon="5.7536">
        <ele>393.5</ele>
        <time>2022-04-15T09:13:58Z</time>
      </trkpt>
      <trkpt lat="45.43623" lon="5.7536">
        <ele>393.5</ele>
        <time>2022-04-15T09:13:59Z</time>
      </trkpt>
      <trkpt lat="45.43623" lon="5.7536">
        <ele>393.5</ele>
        <time>2022-04-15T09:14:00Z</time>
      </trkpt>
      <trkpt lat="45.43623" lon="5.75361">
        <ele>393.5</ele>
        <time>2022-04-15T09:14:01Z</time>
      </trkpt>
      <trkpt lat="45.43623" lon="5.75361">
        <ele>393.5</ele>
        <time>2022-04-15T09:14:02Z</time>
      </trkpt>
      <trkpt lat="45.43623" lon="5.75361">
        <ele>393.5</ele>
        <time>2022-04-15T09:14:03Z</time>
      </trkpt>
      <trkpt lat="45.43623" lon="5.75361">
        <ele>393.5</ele>
        <time>2022-04-15T09:14:04Z</time>
      </trkpt>
      <trkpt lat="45.43623" lon="5.75361">
        <ele>393.5</ele>
        <time>2022-04-15T09:14:05Z</time>
      </trkpt>
      <trkpt lat="45.43623" lon="5.75361">
        <ele>393.5</ele>
        <time>2022-04-15T09:14:06Z</time>
      </trkpt>
      <trkpt lat="45.43623" lon="5.75361">
        <ele>393.5</ele>
        <time>2022-04-15T09:14:07Z</time>
      </trkpt>
      <trkpt lat="45.43623" lon="5.75361">
        <ele>393.5</ele>
        <time>2022-04-15T09:14:08Z</time>
      </trkpt>
      <trkpt lat="45.43623" lon="5.75361">
        <ele>393.5</ele>
        <time>2022-04-15T09:14:09Z</time>
      </trkpt>
      <trkpt lat="45.43623" lon="5.75361">
        <ele>393.5</ele>
        <time>2022-04-15T09:14:10Z</time>
      </trkpt>
      <trkpt lat="45.43623" lon="5.75361">
        <ele>393.5</ele>
        <time>2022-04-15T09:14:11Z</time>
      </trkpt>
      <trkpt lat="45.43623" lon="5.75361">
        <ele>393.5</ele>
        <time>2022-04-15T09:14:12Z</time>
      </trkpt>
      <trkpt lat="45.43623" lon="5.75361">
        <ele>393.5</ele>
        <time>2022-04-15T09:14:13Z</time>
      </trkpt>
      <trkpt lat="45.43623" lon="5.75361">
        <ele>393.5</ele>
        <time>2022-04-15T09:14:14Z</time>
      </trkpt>
      <trkpt lat="45.43623" lon="5.75361">
        <ele>393.5</ele>
        <time>2022-04-15T09:14:15Z</time>
      </trkpt>
      <trkpt lat="45.43623" lon="5.75361">
        <ele>393.5</ele>
        <time>2022-04-15T09:14:16Z</time>
      </trkpt>
      <trkpt lat="45.43623" lon="5.75361">
        <ele>393.5</ele>
        <time>2022-04-15T09:14:17Z</time>
      </trkpt>
      <trkpt lat="45.43623" lon="5.75361">
        <ele>393.5</ele>
        <time>2022-04-15T09:14:18Z</time>
      </trkpt>
      <trkpt lat="45.43623" lon="5.75361">
        <ele>393.5</ele>
        <time>2022-04-15T09:14:19Z</time>
      </trkpt>
      <trkpt lat="45.43623" lon="5.75361">
        <ele>393.5</ele>
        <time>2022-04-15T09:14:20Z</time>
      </trkpt>
      <trkpt lat="45.43623" lon="5.75361">
        <ele>393.5</ele>
        <time>2022-04-15T09:14:21Z</time>
      </trkpt>
      <trkpt lat="45.43623" lon="5.75361">
        <ele>393.5</ele>
        <time>2022-04-15T09:14:22Z</time>
      </trkpt>
      <trkpt lat="45.43623" lon="5.75361">
        <ele>393.5</ele>
        <time>2022-04-15T09:14:23Z</time>
      </trkpt>
      <trkpt lat="45.43623" lon="5.75361">
        <ele>393.5</ele>
        <time>2022-04-15T09:14:24Z</time>
      </trkpt>
      <trkpt lat="45.43623" lon="5.75361">
        <ele>393.5</ele>
        <time>2022-04-15T09:14:25Z</time>
      </trkpt>
      <trkpt lat="45.43623" lon="5.75361">
        <ele>393.5</ele>
        <time>2022-04-15T09:14:26Z</time>
      </trkpt>
      <trkpt lat="45.43623" lon="5.75361">
        <ele>393.5</ele>
        <time>2022-04-15T09:14:27Z</time>
      </trkpt>
      <trkpt lat="45.43623" lon="5.75361">
        <ele>393.5</ele>
        <time>2022-04-15T09:14:28Z</time>
      </trkpt>
      <trkpt lat="45.43623" lon="5.75361">
        <ele>393.5</ele>
        <time>2022-04-15T09:14:29Z</time>
      </trkpt>
      <trkpt lat="45.43623" lon="5.75361">
        <ele>393.5</ele>
        <time>2022-04-15T09:14:30Z</time>
      </trkpt>
      <trkpt lat="45.43623" lon="5.75361">
        <ele>393.5</ele>
        <time>2022-04-15T09:14:31Z</time>
      </trkpt>
      <trkpt lat="45.43623" lon="5.75361">
        <ele>393.5</ele>
        <time>2022-04-15T09:14:32Z</time>
      </trkpt>
      <trkpt lat="45.43623" lon="5.75361">
        <ele>393.5</ele>
        <time>2022-04-15T09:14:33Z</time>
      </trkpt>
      <trkpt lat="45.43623" lon="5.75361">
        <ele>393.5</ele>
        <time>2022-04-15T09:14:34Z</time>
      </trkpt>
      <trkpt lat="45.43623" lon="5.75361">
        <ele>393.5</ele>
        <time>2022-04-15T09:14:35Z</time>
      </trkpt>
      <trkpt lat="45.43623" lon="5.75361">
        <ele>393.5</ele>
        <time>2022-04-15T09:14:36Z</time>
      </trkpt>
      <trkpt lat="45.43623" lon="5.75361">
        <ele>393.5</ele>
        <time>2022-04-15T09:14:37Z</time>
      </trkpt>
      <trkpt lat="45.43623" lon="5.75361">
        <ele>393.5</ele>
        <time>2022-04-15T09:14:38Z</time>
      </trkpt>
      <trkpt lat="45.43623" lon="5.75361">
        <ele>393.5</ele>
        <time>2022-04-15T09:14:39Z</time>
      </trkpt>
      <trkpt lat="45.43623" lon="5.75361">
        <ele>393.5</ele>
        <time>2022-04-15T09:14:40Z</time>
      </trkpt>
      <trkpt lat="45.43623" lon="5.75361">
        <ele>393.5</ele>
        <time>2022-04-15T09:14:41Z</time>
      </trkpt>
      <trkpt lat="45.43623" lon="5.75361">
        <ele>393.5</ele>
        <time>2022-04-15T09:14:42Z</time>
      </trkpt>
      <trkpt lat="45.43623" lon="5.75361">
        <ele>393.5</ele>
        <time>2022-04-15T09:14:43Z</time>
      </trkpt>
      <trkpt lat="45.43623" lon="5.75361">
        <ele>393.5</ele>
        <time>2022-04-15T09:14:44Z</time>
      </trkpt>
      <trkpt lat="45.43623" lon="5.75361">
        <ele>393.5</ele>
        <time>2022-04-15T09:14:45Z</time>
      </trkpt>
      <trkpt lat="45.43623" lon="5.75361">
        <ele>393.5</ele>
        <time>2022-04-15T09:14:46Z</time>
      </trkpt>
      <trkpt lat="45.43623" lon="5.75361">
        <ele>393.5</ele>
        <time>2022-04-15T09:14:47Z</time>
      </trkpt>
      <trkpt lat="45.43623" lon="5.75361">
        <ele>393.5</ele>
        <time>2022-04-15T09:14:48Z</time>
      </trkpt>
      <trkpt lat="45.43623" lon="5.75361">
        <ele>393.5</ele>
        <time>2022-04-15T09:14:49Z</time>
      </trkpt>
      <trkpt lat="45.43623" lon="5.75361">
        <ele>393.5</ele>
        <time>2022-04-15T09:14:50Z</time>
      </trkpt>
      <trkpt lat="45.43623" lon="5.75361">
        <ele>393.5</ele>
        <time>2022-04-15T09:14:51Z</time>
      </trkpt>
      <trkpt lat="45.43623" lon="5.75361">
        <ele>393.5</ele>
        <time>2022-04-15T09:14:52Z</time>
      </trkpt>
      <trkpt lat="45.43623" lon="5.75361">
        <ele>393.5</ele>
        <time>2022-04-15T09:14:53Z</time>
      </trkpt>
      <trkpt lat="45.43623" lon="5.75361">
        <ele>393.5</ele>
        <time>2022-04-15T09:14:54Z</time>
      </trkpt>
      <trkpt lat="45.43623" lon="5.75361">
        <ele>393.5</ele>
        <time>2022-04-15T09:14:55Z</time>
      </trkpt>
      <trkpt lat="45.43623" lon="5.75361">
        <ele>393.5</ele>
        <time>2022-04-15T09:14:56Z</time>
      </trkpt>
      <trkpt lat="45.43623" lon="5.75361">
        <ele>393.5</ele>
        <time>2022-04-15T09:14:57Z</time>
      </trkpt>
      <trkpt lat="45.43623" lon="5.75361">
        <ele>393.5</ele>
        <time>2022-04-15T09:14:58Z</time>
      </trkpt>
      <trkpt lat="45.43623" lon="5.75361">
        <ele>393.5</ele>
        <time>2022-04-15T09:14:59Z</time>
      </trkpt>
      <trkpt lat="45.43623" lon="5.75361">
        <ele>393.5</ele>
        <time>2022-04-15T09:15:00Z</time>
      </trkpt>
      <trkpt lat="45.43623" lon="5.75361">
        <ele>393.5</ele>
        <time>2022-04-15T09:15:01Z</time>
      </trkpt>
      <trkpt lat="45.43623" lon="5.75361">
        <ele>393.5</ele>
        <time>2022-04-15T09:15:02Z</time>
      </trkpt>
      <trkpt lat="45.43623" lon="5.75361">
        <ele>393.5</ele>
        <time>2022-04-15T09:15:03Z</time>
      </trkpt>
      <trkpt lat="45.43623" lon="5.75361">
        <ele>393.5</ele>
        <time>2022-04-15T09:15:04Z</time>
      </trkpt>
      <trkpt lat="45.43623" lon="5.75361">
        <ele>393.5</ele>
        <time>2022-04-15T09:15:05Z</time>
      </trkpt>
      <trkpt lat="45.43623" lon="5.75361">
        <ele>393.5</ele>
        <time>2022-04-15T09:15:06Z</time>
      </trkpt>
      <trkpt lat="45.43623" lon="5.75361">
        <ele>393.5</ele>
        <time>2022-04-15T09:15:07Z</time>
      </trkpt>
      <trkpt lat="45.43623" lon="5.75361">
        <ele>393.5</ele>
        <time>2022-04-15T09:15:08Z</time>
      </trkpt>
      <trkpt lat="45.43623" lon="5.75361">
        <ele>393.5</ele>
        <time>2022-04-15T09:15:09Z</time>
      </trkpt>
      <trkpt lat="45.43623" lon="5.75361">
        <ele>393.5</ele>
        <time>2022-04-15T09:15:10Z</time>
      </trkpt>
      <trkpt lat="45.43623" lon="5.75361">
        <ele>393.5</ele>
        <time>2022-04-15T09:15:11Z</time>
      </trkpt>
      <trkpt lat="45.43623" lon="5.75361">
        <ele>393.5</ele>
        <time>2022-04-15T09:15:12Z</time>
      </trkpt>
      <trkpt lat="45.43623" lon="5.75361">
        <ele>393.5</ele>
        <time>2022-04-15T09:15:13Z</time>
      </trkpt>
      <trkpt lat="45.43623" lon="5.75361">
        <ele>393.5</ele>
        <time>2022-04-15T09:15:14Z</time>
      </trkpt>
      <trkpt lat="45.43623" lon="5.75361">
        <ele>393.5</ele>
        <time>2022-04-15T09:15:15Z</time>
      </trkpt>
      <trkpt lat="45.43623" lon="5.75361">
        <ele>393.5</ele>
        <time>2022-04-15T09:15:16Z</time>
      </trkpt>
      <trkpt lat="45.43623" lon="5.75361">
        <ele>393.5</ele>
        <time>2022-04-15T09:15:17Z</time>
      </trkpt>
      <trkpt lat="45.43623" lon="5.75361">
        <ele>393.5</ele>
        <time>2022-04-15T09:15:18Z</time>
      </trkpt>
      <trkpt lat="45.43623" lon="5.75361">
        <ele>393.5</ele>
        <time>2022-04-15T09:15:19Z</time>
      </trkpt>
      <trkpt lat="45.43623" lon="5.75361">
        <ele>393.5</ele>
        <time>2022-04-15T09:15:20Z</time>
      </trkpt>
      <trkpt lat="45.43623" lon="5.75361">
        <ele>393.5</ele>
        <time>2022-04-15T09:15:21Z</time>
      </trkpt>
      <trkpt lat="45.43623" lon="5.75361">
        <ele>393.5</ele>
        <time>2022-04-15T09:15:22Z</time>
      </trkpt>
      <trkpt lat="45.43623" lon="5.75361">
        <ele>393.5</ele>
        <time>2022-04-15T09:15:23Z</time>
      </trkpt>
      <trkpt lat="45.43623" lon="5.75361">
        <ele>393.5</ele>
        <time>2022-04-15T09:15:24Z</time>
      </trkpt>
      <trkpt lat="45.43623" lon="5.75361">
        <ele>393.5</ele>
        <time>2022-04-15T09:15:25Z</time>
      </trkpt>
      <trkpt lat="45.43623" lon="5.75361">
        <ele>393.5</ele>
        <time>2022-04-15T09:15:26Z</time>
      </trkpt>
      <trkpt lat="45.43623" lon="5.75361">
        <ele>393.5</ele>
        <time>2022-04-15T09:15:27Z</time>
      </trkpt>
      <trkpt lat="45.43623" lon="5.75361">
        <ele>393.5</ele>
        <time>2022-04-15T09:15:28Z</time>
      </trkpt>
      <trkpt lat="45.43623" lon="5.75361">
        <ele>393.5</ele>
        <time>2022-04-15T09:15:29Z</time>
      </trkpt>
      <trkpt lat="45.43623" lon="5.75361">
        <ele>393.5</ele>
        <time>2022-04-15T09:15:30Z</time>
      </trkpt>
      <trkpt lat="45.43623" lon="5.75361">
        <ele>393.5</ele>
        <time>2022-04-15T09:15:31Z</time>
      </trkpt>
      <trkpt lat="45.43623" lon="5.75361">
        <ele>393.4</ele>
        <time>2022-04-15T09:15:32Z</time>
      </trkpt>
      <trkpt lat="45.43623" lon="5.75361">
        <ele>393.4</ele>
        <time>2022-04-15T09:15:33Z</time>
      </trkpt>
      <trkpt lat="45.43623" lon="5.75361">
        <ele>393.4</ele>
        <time>2022-04-15T09:15:34Z</time>
      </trkpt>
      <trkpt lat="45.43623" lon="5.75361">
        <ele>393.4</ele>
        <time>2022-04-15T09:15:35Z</time>
      </trkpt>
      <trkpt lat="45.43623" lon="5.75361">
        <ele>393.4</ele>
        <time>2022-04-15T09:15:36Z</time>
      </trkpt>
      <trkpt lat="45.43623" lon="5.75361">
        <ele>393.4</ele>
        <time>2022-04-15T09:15:37Z</time>
      </trkpt>
      <trkpt lat="45.43623" lon="5.75361">
        <ele>393.4</ele>
        <time>2022-04-15T09:15:38Z</time>
      </trkpt>
      <trkpt lat="45.43623" lon="5.75361">
        <ele>393.4</ele>
        <time>2022-04-15T09:15:39Z</time>
      </trkpt>
      <trkpt lat="45.43623" lon="5.75361">
        <ele>393.4</ele>
        <time>2022-04-15T09:15:40Z</time>
      </trkpt>
      <trkpt lat="45.43623" lon="5.75361">
        <ele>393.4</ele>
        <time>2022-04-15T09:15:41Z</time>
      </trkpt>
      <trkpt lat="45.43623" lon="5.75361">
        <ele>393.4</ele>
        <time>2022-04-15T09:15:42Z</time>
      </trkpt>
      <trkpt lat="45.43623" lon="5.75361">
        <ele>393.4</ele>
        <time>2022-04-15T09:15:43Z</time>
      </trkpt>
      <trkpt lat="45.43623" lon="5.75361">
        <ele>393.4</ele>
        <time>2022-04-15T09:15:44Z</time>
      </trkpt>
      <trkpt lat="45.43623" lon="5.75361">
        <ele>393.4</ele>
        <time>2022-04-15T09:15:45Z</time>
      </trkpt>
      <trkpt lat="45.43623" lon="5.75361">
        <ele>393.4</ele>
        <time>2022-04-15T09:15:46Z</time>
      </trkpt>
      <trkpt lat="45.43623" lon="5.75361">
        <ele>393.4</ele>
        <time>2022-04-15T09:15:47Z</time>
      </trkpt>
      <trkpt lat="45.43623" lon="5.75361">
        <ele>393.4</ele>
        <time>2022-04-15T09:15:48Z</time>
      </trkpt>
      <trkpt lat="45.43623" lon="5.75361">
        <ele>393.4</ele>
        <time>2022-04-15T09:15:49Z</time>
      </trkpt>
      <trkpt lat="45.43623" lon="5.75361">
        <ele>393.4</ele>
        <time>2022-04-15T09:15:50Z</time>
      </trkpt>
      <trkpt lat="45.43623" lon="5.75361">
        <ele>393.4</ele>
        <time>2022-04-15T09:15:51Z</time>
      </trkpt>
      <trkpt lat="45.43623" lon="5.75361">
        <ele>393.4</ele>
        <time>2022-04-15T09:15:52Z</time>
      </trkpt>
      <trkpt lat="45.43623" lon="5.75361">
        <ele>393.4</ele>
        <time>2022-04-15T09:15:53Z</time>
      </trkpt>
      <trkpt lat="45.43623" lon="5.75361">
        <ele>393.4</ele>
        <time>2022-04-15T09:15:54Z</time>
      </trkpt>
      <trkpt lat="45.43623" lon="5.75361">
        <ele>393.4</ele>
        <time>2022-04-15T09:15:55Z</time>
      </trkpt>
      <trkpt lat="45.43623" lon="5.75361">
        <ele>393.4</ele>
        <time>2022-04-15T09:15:56Z</time>
      </trkpt>
      <trkpt lat="45.43623" lon="5.75361">
        <ele>393.4</ele>
        <time>2022-04-15T09:15:57Z</time>
      </trkpt>
      <trkpt lat="45.43623" lon="5.75361">
        <ele>393.4</ele>
        <time>2022-04-15T09:15:58Z</time>
      </trkpt>
      <trkpt lat="45.43623" lon="5.75361">
        <ele>393.4</ele>
        <time>2022-04-15T09:15:59Z</time>
      </trkpt>
      <trkpt lat="45.43623" lon="5.75361">
        <ele>393.4</ele>
        <time>2022-04-15T09:16:00Z</time>
      </trkpt>
      <trkpt lat="45.43623" lon="5.75361">
        <ele>393.4</ele>
        <time>2022-04-15T09:16:01Z</time>
      </trkpt>
      <trkpt lat="45.43623" lon="5.75361">
        <ele>393.4</ele>
        <time>2022-04-15T09:16:02Z</time>
      </trkpt>
      <trkpt lat="45.43623" lon="5.75361">
        <ele>393.4</ele>
        <time>2022-04-15T09:16:03Z</time>
      </trkpt>
      <trkpt lat="45.43623" lon="5.75361">
        <ele>393.4</ele>
        <time>2022-04-15T09:16:04Z</time>
      </trkpt>
      <trkpt lat="45.43623" lon="5.75361">
        <ele>393.4</ele>
        <time>2022-04-15T09:16:05Z</time>
      </trkpt>
      <trkpt lat="45.43623" lon="5.75361">
        <ele>393.4</ele>
        <time>2022-04-15T09:16:06Z</time>
      </trkpt>
      <trkpt lat="45.43623" lon="5.75361">
        <ele>393.4</ele>
        <time>2022-04-15T09:16:07Z</time>
      </trkpt>
      <trkpt lat="45.43623" lon="5.75361">
        <ele>393.4</ele>
        <time>2022-04-15T09:16:08Z</time>
      </trkpt>
      <trkpt lat="45.43623" lon="5.75361">
        <ele>393.4</ele>
        <time>2022-04-15T09:16:09Z</time>
      </trkpt>
      <trkpt lat="45.43623" lon="5.75361">
        <ele>393.4</ele>
        <time>2022-04-15T09:16:10Z</time>
      </trkpt>
      <trkpt lat="45.43623" lon="5.75361">
        <ele>393.4</ele>
        <time>2022-04-15T09:16:11Z</time>
      </trkpt>
      <trkpt lat="45.43623" lon="5.75361">
        <ele>393.4</ele>
        <time>2022-04-15T09:16:12Z</time>
      </trkpt>
      <trkpt lat="45.43623" lon="5.75361">
        <ele>393.4</ele>
        <time>2022-04-15T09:16:13Z</time>
      </trkpt>
      <trkpt lat="45.43623" lon="5.75361">
        <ele>393.4</ele>
        <time>2022-04-15T09:16:14Z</time>
      </trkpt>
      <trkpt lat="45.43623" lon="5.75361">
        <ele>393.4</ele>
        <time>2022-04-15T09:16:15Z</time>
      </trkpt>
      <trkpt lat="45.43623" lon="5.75361">
        <ele>393.4</ele>
        <time>2022-04-15T09:16:16Z</time>
      </trkpt>
      <trkpt lat="45.43623" lon="5.75361">
        <ele>393.4</ele>
        <time>2022-04-15T09:16:17Z</time>
      </trkpt>
      <trkpt lat="45.43623" lon="5.75361">
        <ele>393.4</ele>
        <time>2022-04-15T09:16:18Z</time>
      </trkpt>
      <trkpt lat="45.43623" lon="5.75361">
        <ele>393.4</ele>
        <time>2022-04-15T09:16:19Z</time>
      </trkpt>
      <trkpt lat="45.43623" lon="5.75361">
        <ele>393.4</ele>
        <time>2022-04-15T09:16:20Z</time>
      </trkpt>
      <trkpt lat="45.43623" lon="5.75361">
        <ele>393.4</ele>
        <time>2022-04-15T09:16:21Z</time>
      </trkpt>
      <trkpt lat="45.43623" lon="5.75361">
        <ele>393.4</ele>
        <time>2022-04-15T09:16:22Z</time>
      </trkpt>
      <trkpt lat="45.43623" lon="5.75361">
        <ele>393.4</ele>
        <time>2022-04-15T09:16:23Z</time>
      </trkpt>
      <trkpt lat="45.43623" lon="5.75361">
        <ele>393.4</ele>
        <time>2022-04-15T09:16:24Z</time>
      </trkpt>
      <trkpt lat="45.43623" lon="5.75361">
        <ele>393.4</ele>
        <time>2022-04-15T09:16:25Z</time>
      </trkpt>
      <trkpt lat="45.43623" lon="5.75361">
        <ele>393.4</ele>
        <time>2022-04-15T09:16:26Z</time>
      </trkpt>
      <trkpt lat="45.43623" lon="5.75361">
        <ele>393.4</ele>
        <time>2022-04-15T09:16:27Z</time>
      </trkpt>
      <trkpt lat="45.43623" lon="5.75361">
        <ele>393.4</ele>
        <time>2022-04-15T09:16:28Z</time>
      </trkpt>
      <trkpt lat="45.43623" lon="5.75361">
        <ele>393.4</ele>
        <time>2022-04-15T09:16:29Z</time>
      </trkpt>
      <trkpt lat="45.43623" lon="5.75361">
        <ele>393.4</ele>
        <time>2022-04-15T09:16:30Z</time>
      </trkpt>
      <trkpt lat="45.43623" lon="5.75361">
        <ele>393.4</ele>
        <time>2022-04-15T09:16:31Z</time>
      </trkpt>
      <trkpt lat="45.43623" lon="5.75361">
        <ele>393.4</ele>
        <time>2022-04-15T09:16:32Z</time>
      </trkpt>
      <trkpt lat="45.43623" lon="5.75361">
        <ele>393.4</ele>
        <time>2022-04-15T09:16:33Z</time>
      </trkpt>
      <trkpt lat="45.43623" lon="5.75361">
        <ele>393.4</ele>
        <time>2022-04-15T09:16:34Z</time>
      </trkpt>
      <trkpt lat="45.43623" lon="5.75361">
        <ele>393.4</ele>
        <time>2022-04-15T09:16:35Z</time>
      </trkpt>
      <trkpt lat="45.43623" lon="5.75361">
        <ele>393.4</ele>
        <time>2022-04-15T09:16:36Z</time>
      </trkpt>
      <trkpt lat="45.43623" lon="5.75361">
        <ele>393.4</ele>
        <time>2022-04-15T09:16:37Z</time>
      </trkpt>
      <trkpt lat="45.43623" lon="5.75361">
        <ele>393.4</ele>
        <time>2022-04-15T09:16:38Z</time>
      </trkpt>
      <trkpt lat="45.43623" lon="5.75361">
        <ele>393.4</ele>
        <time>2022-04-15T09:16:39Z</time>
      </trkpt>
      <trkpt lat="45.43623" lon="5.75361">
        <ele>393.4</ele>
        <time>2022-04-15T09:16:40Z</time>
      </trkpt>
      <trkpt lat="45.43623" lon="5.75361">
        <ele>393.4</ele>
        <time>2022-04-15T09:16:41Z</time>
      </trkpt>
      <trkpt lat="45.43623" lon="5.75361">
        <ele>393.4</ele>
        <time>2022-04-15T09:16:42Z</time>
      </trkpt>
      <trkpt lat="45.43623" lon="5.75361">
        <ele>393.4</ele>
        <time>2022-04-15T09:16:43Z</time>
      </trkpt>
      <trkpt lat="45.43623" lon="5.75361">
        <ele>393.4</ele>
        <time>2022-04-15T09:16:44Z</time>
      </trkpt>
      <trkpt lat="45.43623" lon="5.75361">
        <ele>393.4</ele>
        <time>2022-04-15T09:16:45Z</time>
      </trkpt>
      <trkpt lat="45.43623" lon="5.75361">
        <ele>393.4</ele>
        <time>2022-04-15T09:16:46Z</time>
      </trkpt>
      <trkpt lat="45.43623" lon="5.75361">
        <ele>393.4</ele>
        <time>2022-04-15T09:16:47Z</time>
      </trkpt>
      <trkpt lat="45.43623" lon="5.75361">
        <ele>393.4</ele>
        <time>2022-04-15T09:16:48Z</time>
      </trkpt>
      <trkpt lat="45.43623" lon="5.75361">
        <ele>393.4</ele>
        <time>2022-04-15T09:16:49Z</time>
      </trkpt>
      <trkpt lat="45.43623" lon="5.75361">
        <ele>393.4</ele>
        <time>2022-04-15T09:16:50Z</time>
      </trkpt>
      <trkpt lat="45.43623" lon="5.75361">
        <ele>393.4</ele>
        <time>2022-04-15T09:16:51Z</time>
      </trkpt>
      <trkpt lat="45.43623" lon="5.75361">
        <ele>393.4</ele>
        <time>2022-04-15T09:16:52Z</time>
      </trkpt>
      <trkpt lat="45.43623" lon="5.75361">
        <ele>393.4</ele>
        <time>2022-04-15T09:16:53Z</time>
      </trkpt>
      <trkpt lat="45.43623" lon="5.75361">
        <ele>393.4</ele>
        <time>2022-04-15T09:16:54Z</time>
      </trkpt>
      <trkpt lat="45.43623" lon="5.75361">
        <ele>393.4</ele>
        <time>2022-04-15T09:16:55Z</time>
      </trkpt>
      <trkpt lat="45.43623" lon="5.75361">
        <ele>393.4</ele>
        <time>2022-04-15T09:16:56Z</time>
      </trkpt>
      <trkpt lat="45.43623" lon="5.75361">
        <ele>393.4</ele>
        <time>2022-04-15T09:16:57Z</time>
      </trkpt>
      <trkpt lat="45.43623" lon="5.75361">
        <ele>393.4</ele>
        <time>2022-04-15T09:16:58Z</time>
      </trkpt>
      <trkpt lat="45.43623" lon="5.75361">
        <ele>393.4</ele>
        <time>2022-04-15T09:16:59Z</time>
      </trkpt>
      <trkpt lat="45.43623" lon="5.75361">
        <ele>393.4</ele>
        <time>2022-04-15T09:17:00Z</time>
      </trkpt>
      <trkpt lat="45.43623" lon="5.75361">
        <ele>393.4</ele>
        <time>2022-04-15T09:17:01Z</time>
      </trkpt>
      <trkpt lat="45.43623" lon="5.75361">
        <ele>393.4</ele>
        <time>2022-04-15T09:17:02Z</time>
      </trkpt>
      <trkpt lat="45.43623" lon="5.75361">
        <ele>393.4</ele>
        <time>2022-04-15T09:17:03Z</time>
      </trkpt>
      <trkpt lat="45.43623" lon="5.75361">
        <ele>393.4</ele>
        <time>2022-04-15T09:17:04Z</time>
      </trkpt>
      <trkpt lat="45.43623" lon="5.75361">
        <ele>393.4</ele>
        <time>2022-04-15T09:17:05Z</time>
      </trkpt>
      <trkpt lat="45.43623" lon="5.75361">
        <ele>393.4</ele>
        <time>2022-04-15T09:17:06Z</time>
      </trkpt>
      <trkpt lat="45.43623" lon="5.75361">
        <ele>393.4</ele>
        <time>2022-04-15T09:17:07Z</time>
      </trkpt>
      <trkpt lat="45.43623" lon="5.75361">
        <ele>393.4</ele>
        <time>2022-04-15T09:17:08Z</time>
      </trkpt>
      <trkpt lat="45.43623" lon="5.75361">
        <ele>393.4</ele>
        <time>2022-04-15T09:17:09Z</time>
      </trkpt>
      <trkpt lat="45.43623" lon="5.75361">
        <ele>393.4</ele>
        <time>2022-04-15T09:17:10Z</time>
      </trkpt>
      <trkpt lat="45.43623" lon="5.75361">
        <ele>393.4</ele>
        <time>2022-04-15T09:17:11Z</time>
      </trkpt>
      <trkpt lat="45.43623" lon="5.75361">
        <ele>393.4</ele>
        <time>2022-04-15T09:17:12Z</time>
      </trkpt>
      <trkpt lat="45.43623" lon="5.75361">
        <ele>393.4</ele>
        <time>2022-04-15T09:17:13Z</time>
      </trkpt>
      <trkpt lat="45.43623" lon="5.75361">
        <ele>393.4</ele>
        <time>2022-04-15T09:17:14Z</time>
      </trkpt>
      <trkpt lat="45.43623" lon="5.75361">
        <ele>393.4</ele>
        <time>2022-04-15T09:17:15Z</time>
      </trkpt>
      <trkpt lat="45.43623" lon="5.75361">
        <ele>393.4</ele>
        <time>2022-04-15T09:17:16Z</time>
      </trkpt>
      <trkpt lat="45.43623" lon="5.75361">
        <ele>393.4</ele>
        <time>2022-04-15T09:17:17Z</time>
      </trkpt>
      <trkpt lat="45.43623" lon="5.75361">
        <ele>393.4</ele>
        <time>2022-04-15T09:17:18Z</time>
      </trkpt>
      <trkpt lat="45.43623" lon="5.75361">
        <ele>393.4</ele>
        <time>2022-04-15T09:17:19Z</time>
      </trkpt>
      <trkpt lat="45.43623" lon="5.75361">
        <ele>393.4</ele>
        <time>2022-04-15T09:17:20Z</time>
      </trkpt>
      <trkpt lat="45.43623" lon="5.75361">
        <ele>393.4</ele>
        <time>2022-04-15T09:17:21Z</time>
      </trkpt>
      <trkpt lat="45.43623" lon="5.75361">
        <ele>393.4</ele>
        <time>2022-04-15T09:17:22Z</time>
      </trkpt>
      <trkpt lat="45.43623" lon="5.75361">
        <ele>393.4</ele>
        <time>2022-04-15T09:17:23Z</time>
      </trkpt>
      <trkpt lat="45.43623" lon="5.75361">
        <ele>393.4</ele>
        <time>2022-04-15T09:17:24Z</time>
      </trkpt>
      <trkpt lat="45.43623" lon="5.75361">
        <ele>393.4</ele>
        <time>2022-04-15T09:17:25Z</time>
      </trkpt>
      <trkpt lat="45.43623" lon="5.75361">
        <ele>393.4</ele>
        <time>2022-04-15T09:17:26Z</time>
      </trkpt>
      <trkpt lat="45.43623" lon="5.75361">
        <ele>393.4</ele>
        <time>2022-04-15T09:17:27Z</time>
      </trkpt>
      <trkpt lat="45.43623" lon="5.75361">
        <ele>393.4</ele>
        <time>2022-04-15T09:17:28Z</time>
      </trkpt>
      <trkpt lat="45.43623" lon="5.75361">
        <ele>393.4</ele>
        <time>2022-04-15T09:17:29Z</time>
      </trkpt>
      <trkpt lat="45.43623" lon="5.75361">
        <ele>393.4</ele>
        <time>2022-04-15T09:17:30Z</time>
      </trkpt>
      <trkpt lat="45.43623" lon="5.75361">
        <ele>393.4</ele>
        <time>2022-04-15T09:17:31Z</time>
      </trkpt>
      <trkpt lat="45.43623" lon="5.75361">
        <ele>393.4</ele>
        <time>2022-04-15T09:17:32Z</time>
      </trkpt>
      <trkpt lat="45.43623" lon="5.75361">
        <ele>393.4</ele>
        <time>2022-04-15T09:17:33Z</time>
      </trkpt>
      <trkpt lat="45.43623" lon="5.75361">
        <ele>393.4</ele>
        <time>2022-04-15T09:17:34Z</time>
      </trkpt>
      <trkpt lat="45.43623" lon="5.75361">
        <ele>393.4</ele>
        <time>2022-04-15T09:17:35Z</time>
      </trkpt>
      <trkpt lat="45.43623" lon="5.75361">
        <ele>393.4</ele>
        <time>2022-04-15T09:17:36Z</time>
      </trkpt>
      <trkpt lat="45.43623" lon="5.75361">
        <ele>393.4</ele>
        <time>2022-04-15T09:17:37Z</time>
      </trkpt>
      <trkpt lat="45.43623" lon="5.75361">
        <ele>393.4</ele>
        <time>2022-04-15T09:17:38Z</time>
      </trkpt>
      <trkpt lat="45.43623" lon="5.75361">
        <ele>393.4</ele>
        <time>2022-04-15T09:17:39Z</time>
      </trkpt>
      <trkpt lat="45.43623" lon="5.75361">
        <ele>393.4</ele>
        <time>2022-04-15T09:17:40Z</time>
      </trkpt>
      <trkpt lat="45.43623" lon="5.75361">
        <ele>393.4</ele>
        <time>2022-04-15T09:17:41Z</time>
      </trkpt>
      <trkpt lat="45.43623" lon="5.75361">
        <ele>393.4</ele>
        <time>2022-04-15T09:17:42Z</time>
      </trkpt>
      <trkpt lat="45.43623" lon="5.75361">
        <ele>393.4</ele>
        <time>2022-04-15T09:17:43Z</time>
      </trkpt>
      <trkpt lat="45.43623" lon="5.75361">
        <ele>393.4</ele>
        <time>2022-04-15T09:17:44Z</time>
      </trkpt>
      <trkpt lat="45.43623" lon="5.75361">
        <ele>393.4</ele>
        <time>2022-04-15T09:17:45Z</time>
      </trkpt>
      <trkpt lat="45.43623" lon="5.75361">
        <ele>393.4</ele>
        <time>2022-04-15T09:17:46Z</time>
      </trkpt>
      <trkpt lat="45.43623" lon="5.75361">
        <ele>393.4</ele>
        <time>2022-04-15T09:17:47Z</time>
      </trkpt>
      <trkpt lat="45.43623" lon="5.75361">
        <ele>393.4</ele>
        <time>2022-04-15T09:17:48Z</time>
      </trkpt>
      <trkpt lat="45.43623" lon="5.75361">
        <ele>393.4</ele>
        <time>2022-04-15T09:17:49Z</time>
      </trkpt>
      <trkpt lat="45.43623" lon="5.75361">
        <ele>393.4</ele>
        <time>2022-04-15T09:17:50Z</time>
      </trkpt>
      <trkpt lat="45.43623" lon="5.75361">
        <ele>393.4</ele>
        <time>2022-04-15T09:17:51Z</time>
      </trkpt>
      <trkpt lat="45.43623" lon="5.75361">
        <ele>393.4</ele>
        <time>2022-04-15T09:17:52Z</time>
      </trkpt>
      <trkpt lat="45.43623" lon="5.75361">
        <ele>393.4</ele>
        <time>2022-04-15T09:17:53Z</time>
      </trkpt>
      <trkpt lat="45.43623" lon="5.75361">
        <ele>393.4</ele>
        <time>2022-04-15T09:17:54Z</time>
      </trkpt>
      <trkpt lat="45.43623" lon="5.75361">
        <ele>393.4</ele>
        <time>2022-04-15T09:17:55Z</time>
      </trkpt>
      <trkpt lat="45.43623" lon="5.75361">
        <ele>393.4</ele>
        <time>2022-04-15T09:17:56Z</time>
      </trkpt>
      <trkpt lat="45.43623" lon="5.75361">
        <ele>393.4</ele>
        <time>2022-04-15T09:17:57Z</time>
      </trkpt>
      <trkpt lat="45.43623" lon="5.75361">
        <ele>393.4</ele>
        <time>2022-04-15T09:17:58Z</time>
      </trkpt>
      <trkpt lat="45.43623" lon="5.75361">
        <ele>393.4</ele>
        <time>2022-04-15T09:17:59Z</time>
      </trkpt>
      <trkpt lat="45.43623" lon="5.75361">
        <ele>393.4</ele>
        <time>2022-04-15T09:18:00Z</time>
      </trkpt>
      <trkpt lat="45.43623" lon="5.75361">
        <ele>393.4</ele>
        <time>2022-04-15T09:18:01Z</time>
      </trkpt>
      <trkpt lat="45.43623" lon="5.75361">
        <ele>393.4</ele>
        <time>2022-04-15T09:18:02Z</time>
      </trkpt>
      <trkpt lat="45.43623" lon="5.75361">
        <ele>393.4</ele>
        <time>2022-04-15T09:18:03Z</time>
      </trkpt>
      <trkpt lat="45.43623" lon="5.75361">
        <ele>393.4</ele>
        <time>2022-04-15T09:18:04Z</time>
      </trkpt>
      <trkpt lat="45.43623" lon="5.75361">
        <ele>393.4</ele>
        <time>2022-04-15T09:18:05Z</time>
      </trkpt>
      <trkpt lat="45.43623" lon="5.75361">
        <ele>393.4</ele>
        <time>2022-04-15T09:18:06Z</time>
      </trkpt>
      <trkpt lat="45.43623" lon="5.75361">
        <ele>393.4</ele>
        <time>2022-04-15T09:18:07Z</time>
      </trkpt>
      <trkpt lat="45.43623" lon="5.75361">
        <ele>393.4</ele>
        <time>2022-04-15T09:18:08Z</time>
      </trkpt>
      <trkpt lat="45.43623" lon="5.75361">
        <ele>393.4</ele>
        <time>2022-04-15T09:18:09Z</time>
      </trkpt>
      <trkpt lat="45.43623" lon="5.75361">
        <ele>393.4</ele>
        <time>2022-04-15T09:18:10Z</time>
      </trkpt>
      <trkpt lat="45.43623" lon="5.75361">
        <ele>393.4</ele>
        <time>2022-04-15T09:18:11Z</time>
      </trkpt>
      <trkpt lat="45.43623" lon="5.75361">
        <ele>393.4</ele>
        <time>2022-04-15T09:18:12Z</time>
      </trkpt>
      <trkpt lat="45.43623" lon="5.75361">
        <ele>393.4</ele>
        <time>2022-04-15T09:18:13Z</time>
      </trkpt>
      <trkpt lat="45.43623" lon="5.75361">
        <ele>393.4</ele>
        <time>2022-04-15T09:18:14Z</time>
      </trkpt>
      <trkpt lat="45.43623" lon="5.75361">
        <ele>393.4</ele>
        <time>2022-04-15T09:18:15Z</time>
      </trkpt>
      <trkpt lat="45.43623" lon="5.75361">
        <ele>393.4</ele>
        <time>2022-04-15T09:18:16Z</time>
      </trkpt>
      <trkpt lat="45.43623" lon="5.75361">
        <ele>393.4</ele>
        <time>2022-04-15T09:18:17Z</time>
      </trkpt>
      <trkpt lat="45.43623" lon="5.75361">
        <ele>393.4</ele>
        <time>2022-04-15T09:18:18Z</time>
      </trkpt>
      <trkpt lat="45.43623" lon="5.75361">
        <ele>393.4</ele>
        <time>2022-04-15T09:18:19Z</time>
      </trkpt>
      <trkpt lat="45.43623" lon="5.75361">
        <ele>393.4</ele>
        <time>2022-04-15T09:18:20Z</time>
      </trkpt>
      <trkpt lat="45.43623" lon="5.75361">
        <ele>393.4</ele>
        <time>2022-04-15T09:18:21Z</time>
      </trkpt>
      <trkpt lat="45.43623" lon="5.75361">
        <ele>393.4</ele>
        <time>2022-04-15T09:18:22Z</time>
      </trkpt>
      <trkpt lat="45.43623" lon="5.75361">
        <ele>393.4</ele>
        <time>2022-04-15T09:18:23Z</time>
      </trkpt>
      <trkpt lat="45.43623" lon="5.75361">
        <ele>393.4</ele>
        <time>2022-04-15T09:18:24Z</time>
      </trkpt>
      <trkpt lat="45.43623" lon="5.75361">
        <ele>393.4</ele>
        <time>2022-04-15T09:18:25Z</time>
      </trkpt>
      <trkpt lat="45.43623" lon="5.75361">
        <ele>393.4</ele>
        <time>2022-04-15T09:18:26Z</time>
      </trkpt>
      <trkpt lat="45.43623" lon="5.75361">
        <ele>393.4</ele>
        <time>2022-04-15T09:18:27Z</time>
      </trkpt>
      <trkpt lat="45.43623" lon="5.75361">
        <ele>393.4</ele>
        <time>2022-04-15T09:18:28Z</time>
      </trkpt>
      <trkpt lat="45.43623" lon="5.75361">
        <ele>393.4</ele>
        <time>2022-04-15T09:18:29Z</time>
      </trkpt>
      <trkpt lat="45.43623" lon="5.75361">
        <ele>393.4</ele>
        <time>2022-04-15T09:18:30Z</time>
      </trkpt>
      <trkpt lat="45.43623" lon="5.75361">
        <ele>393.4</ele>
        <time>2022-04-15T09:18:31Z</time>
      </trkpt>
      <trkpt lat="45.43623" lon="5.75361">
        <ele>393.4</ele>
        <time>2022-04-15T09:18:32Z</time>
      </trkpt>
      <trkpt lat="45.43623" lon="5.75361">
        <ele>393.4</ele>
        <time>2022-04-15T09:18:33Z</time>
      </trkpt>
      <trkpt lat="45.43623" lon="5.75361">
        <ele>393.4</ele>
        <time>2022-04-15T09:18:34Z</time>
      </trkpt>
      <trkpt lat="45.43623" lon="5.75361">
        <ele>393.4</ele>
        <time>2022-04-15T09:18:35Z</time>
      </trkpt>
      <trkpt lat="45.43623" lon="5.75361">
        <ele>393.4</ele>
        <time>2022-04-15T09:18:36Z</time>
      </trkpt>
      <trkpt lat="45.43623" lon="5.75361">
        <ele>393.4</ele>
        <time>2022-04-15T09:18:37Z</time>
      </trkpt>
      <trkpt lat="45.43623" lon="5.75361">
        <ele>393.4</ele>
        <time>2022-04-15T09:18:38Z</time>
      </trkpt>
      <trkpt lat="45.43623" lon="5.75361">
        <ele>393.4</ele>
        <time>2022-04-15T09:18:39Z</time>
      </trkpt>
      <trkpt lat="45.43623" lon="5.75361">
        <ele>393.4</ele>
        <time>2022-04-15T09:18:40Z</time>
      </trkpt>
      <trkpt lat="45.43623" lon="5.75361">
        <ele>393.4</ele>
        <time>2022-04-15T09:18:41Z</time>
      </trkpt>
      <trkpt lat="45.43623" lon="5.75361">
        <ele>393.4</ele>
        <time>2022-04-15T09:18:42Z</time>
      </trkpt>
      <trkpt lat="45.43623" lon="5.75361">
        <ele>393.4</ele>
        <time>2022-04-15T09:18:43Z</time>
      </trkpt>
      <trkpt lat="45.43623" lon="5.75361">
        <ele>393.4</ele>
        <time>2022-04-15T09:18:44Z</time>
      </trkpt>
      <trkpt lat="45.43623" lon="5.75361">
        <ele>393.4</ele>
        <time>2022-04-15T09:18:45Z</time>
      </trkpt>
      <trkpt lat="45.43623" lon="5.75361">
        <ele>393.4</ele>
        <time>2022-04-15T09:18:46Z</time>
      </trkpt>
      <trkpt lat="45.43623" lon="5.75361">
        <ele>393.4</ele>
        <time>2022-04-15T09:18:47Z</time>
      </trkpt>
      <trkpt lat="45.43623" lon="5.75361">
        <ele>393.4</ele>
        <time>2022-04-15T09:18:48Z</time>
      </trkpt>
      <trkpt lat="45.43623" lon="5.75361">
        <ele>393.4</ele>
        <time>2022-04-15T09:18:49Z</time>
      </trkpt>
      <trkpt lat="45.43623" lon="5.75361">
        <ele>393.4</ele>
        <time>2022-04-15T09:18:50Z</time>
      </trkpt>
      <trkpt lat="45.43623" lon="5.75361">
        <ele>393.4</ele>
        <time>2022-04-15T09:18:51Z</time>
      </trkpt>
      <trkpt lat="45.43623" lon="5.75361">
        <ele>393.4</ele>
        <time>2022-04-15T09:18:52Z</time>
      </trkpt>
      <trkpt lat="45.43623" lon="5.75361">
        <ele>393.4</ele>
        <time>2022-04-15T09:18:53Z</time>
      </trkpt>
      <trkpt lat="45.43623" lon="5.75361">
        <ele>393.4</ele>
        <time>2022-04-15T09:18:54Z</time>
      </trkpt>
      <trkpt lat="45.43623" lon="5.75361">
        <ele>393.4</ele>
        <time>2022-04-15T09:18:55Z</time>
      </trkpt>
      <trkpt lat="45.43623" lon="5.75361">
        <ele>393.4</ele>
        <time>2022-04-15T09:18:56Z</time>
      </trkpt>
      <trkpt lat="45.43623" lon="5.75361">
        <ele>393.4</ele>
        <time>2022-04-15T09:18:57Z</time>
      </trkpt>
      <trkpt lat="45.43623" lon="5.75361">
        <ele>393.4</ele>
        <time>2022-04-15T09:18:58Z</time>
      </trkpt>
      <trkpt lat="45.43623" lon="5.75361">
        <ele>393.4</ele>
        <time>2022-04-15T09:18:59Z</time>
      </trkpt>
      <trkpt lat="45.43623" lon="5.75361">
        <ele>393.4</ele>
        <time>2022-04-15T09:19:00Z</time>
      </trkpt>
      <trkpt lat="45.43623" lon="5.75361">
        <ele>393.4</ele>
        <time>2022-04-15T09:19:01Z</time>
      </trkpt>
      <trkpt lat="45.43623" lon="5.75361">
        <ele>393.4</ele>
        <time>2022-04-15T09:19:02Z</time>
      </trkpt>
      <trkpt lat="45.43623" lon="5.75361">
        <ele>393.4</ele>
        <time>2022-04-15T09:19:03Z</time>
      </trkpt>
      <trkpt lat="45.43623" lon="5.75361">
        <ele>393.4</ele>
        <time>2022-04-15T09:19:04Z</time>
      </trkpt>
      <trkpt lat="45.43623" lon="5.75361">
        <ele>393.4</ele>
        <time>2022-04-15T09:19:05Z</time>
      </trkpt>
      <trkpt lat="45.43623" lon="5.75361">
        <ele>393.4</ele>
        <time>2022-04-15T09:19:06Z</time>
      </trkpt>
      <trkpt lat="45.43623" lon="5.75361">
        <ele>393.4</ele>
        <time>2022-04-15T09:19:07Z</time>
      </trkpt>
      <trkpt lat="45.43623" lon="5.75361">
        <ele>393.4</ele>
        <time>2022-04-15T09:19:08Z</time>
      </trkpt>
      <trkpt lat="45.43623" lon="5.75361">
        <ele>393.4</ele>
        <time>2022-04-15T09:19:09Z</time>
      </trkpt>
      <trkpt lat="45.43623" lon="5.75361">
        <ele>393.4</ele>
        <time>2022-04-15T09:19:10Z</time>
      </trkpt>
      <trkpt lat="45.43623" lon="5.75361">
        <ele>393.4</ele>
        <time>2022-04-15T09:19:11Z</time>
      </trkpt>
      <trkpt lat="45.43623" lon="5.75361">
        <ele>393.4</ele>
        <time>2022-04-15T09:19:12Z</time>
      </trkpt>
      <trkpt lat="45.43623" lon="5.75361">
        <ele>393.4</ele>
        <time>2022-04-15T09:19:13Z</time>
      </trkpt>
      <trkpt lat="45.43623" lon="5.75361">
        <ele>393.4</ele>
        <time>2022-04-15T09:19:14Z</time>
      </trkpt>
      <trkpt lat="45.43623" lon="5.75361">
        <ele>393.4</ele>
        <time>2022-04-15T09:19:15Z</time>
      </trkpt>
      <trkpt lat="45.43623" lon="5.75361">
        <ele>393.4</ele>
        <time>2022-04-15T09:19:16Z</time>
      </trkpt>
      <trkpt lat="45.43623" lon="5.75361">
        <ele>393.4</ele>
        <time>2022-04-15T09:19:17Z</time>
      </trkpt>
      <trkpt lat="45.43623" lon="5.75361">
        <ele>393.4</ele>
        <time>2022-04-15T09:19:18Z</time>
      </trkpt>
      <trkpt lat="45.43623" lon="5.75361">
        <ele>393.4</ele>
        <time>2022-04-15T09:19:19Z</time>
      </trkpt>
      <trkpt lat="45.43623" lon="5.75361">
        <ele>393.4</ele>
        <time>2022-04-15T09:19:20Z</time>
      </trkpt>
      <trkpt lat="45.43623" lon="5.75361">
        <ele>393.4</ele>
        <time>2022-04-15T09:19:21Z</time>
      </trkpt>
      <trkpt lat="45.43623" lon="5.75361">
        <ele>393.4</ele>
        <time>2022-04-15T09:19:22Z</time>
      </trkpt>
      <trkpt lat="45.43623" lon="5.75361">
        <ele>393.4</ele>
        <time>2022-04-15T09:19:23Z</time>
      </trkpt>
      <trkpt lat="45.43623" lon="5.75361">
        <ele>393.4</ele>
        <time>2022-04-15T09:19:24Z</time>
      </trkpt>
      <trkpt lat="45.43623" lon="5.75361">
        <ele>393.4</ele>
        <time>2022-04-15T09:19:25Z</time>
      </trkpt>
      <trkpt lat="45.43623" lon="5.75361">
        <ele>393.4</ele>
        <time>2022-04-15T09:19:26Z</time>
      </trkpt>
      <trkpt lat="45.43623" lon="5.75361">
        <ele>393.4</ele>
        <time>2022-04-15T09:19:27Z</time>
      </trkpt>
      <trkpt lat="45.43623" lon="5.75361">
        <ele>393.4</ele>
        <time>2022-04-15T09:19:28Z</time>
      </trkpt>
      <trkpt lat="45.43623" lon="5.75361">
        <ele>393.4</ele>
        <time>2022-04-15T09:19:29Z</time>
      </trkpt>
      <trkpt lat="45.43623" lon="5.75361">
        <ele>393.4</ele>
        <time>2022-04-15T09:19:30Z</time>
      </trkpt>
      <trkpt lat="45.43623" lon="5.75361">
        <ele>393.4</ele>
        <time>2022-04-15T09:19:31Z</time>
      </trkpt>
      <trkpt lat="45.43623" lon="5.75361">
        <ele>393.4</ele>
        <time>2022-04-15T09:19:32Z</time>
      </trkpt>
      <trkpt lat="45.43623" lon="5.75361">
        <ele>393.4</ele>
        <time>2022-04-15T09:19:33Z</time>
      </trkpt>
      <trkpt lat="45.43623" lon="5.75361">
        <ele>393.4</ele>
        <time>2022-04-15T09:19:34Z</time>
      </trkpt>
      <trkpt lat="45.43623" lon="5.75361">
        <ele>393.4</ele>
        <time>2022-04-15T09:19:35Z</time>
      </trkpt>
      <trkpt lat="45.43623" lon="5.75361">
        <ele>393.4</ele>
        <time>2022-04-15T09:19:36Z</time>
      </trkpt>
      <trkpt lat="45.43623" lon="5.75361">
        <ele>393.4</ele>
        <time>2022-04-15T09:19:37Z</time>
      </trkpt>
      <trkpt lat="45.43623" lon="5.75361">
        <ele>393.4</ele>
        <time>2022-04-15T09:19:38Z</time>
      </trkpt>
      <trkpt lat="45.43623" lon="5.75361">
        <ele>393.4</ele>
        <time>2022-04-15T09:19:39Z</time>
      </trkpt>
      <trkpt lat="45.43623" lon="5.75361">
        <ele>393.4</ele>
        <time>2022-04-15T09:19:40Z</time>
      </trkpt>
      <trkpt lat="45.43623" lon="5.75361">
        <ele>393.4</ele>
        <time>2022-04-15T09:19:41Z</time>
      </trkpt>
      <trkpt lat="45.43623" lon="5.75361">
        <ele>393.4</ele>
        <time>2022-04-15T09:19:42Z</time>
      </trkpt>
      <trkpt lat="45.43623" lon="5.75361">
        <ele>393.4</ele>
        <time>2022-04-15T09:19:43Z</time>
      </trkpt>
      <trkpt lat="45.43623" lon="5.75361">
        <ele>393.4</ele>
        <time>2022-04-15T09:19:44Z</time>
      </trkpt>
      <trkpt lat="45.43623" lon="5.75361">
        <ele>393.4</ele>
        <time>2022-04-15T09:19:45Z</time>
      </trkpt>
      <trkpt lat="45.43623" lon="5.75361">
        <ele>393.4</ele>
        <time>2022-04-15T09:19:46Z</time>
      </trkpt>
      <trkpt lat="45.43623" lon="5.75361">
        <ele>393.4</ele>
        <time>2022-04-15T09:19:47Z</time>
      </trkpt>
      <trkpt lat="45.43623" lon="5.75361">
        <ele>393.4</ele>
        <time>2022-04-15T09:19:48Z</time>
      </trkpt>
      <trkpt lat="45.43623" lon="5.75361">
        <ele>393.4</ele>
        <time>2022-04-15T09:19:49Z</time>
      </trkpt>
      <trkpt lat="45.43623" lon="5.75361">
        <ele>393.4</ele>
        <time>2022-04-15T09:19:50Z</time>
      </trkpt>
      <trkpt lat="45.43623" lon="5.75361">
        <ele>393.4</ele>
        <time>2022-04-15T09:19:51Z</time>
      </trkpt>
      <trkpt lat="45.43623" lon="5.75361">
        <ele>393.4</ele>
        <time>2022-04-15T09:19:52Z</time>
      </trkpt>
      <trkpt lat="45.43623" lon="5.75361">
        <ele>393.4</ele>
        <time>2022-04-15T09:19:53Z</time>
      </trkpt>
      <trkpt lat="45.43623" lon="5.75361">
        <ele>393.4</ele>
        <time>2022-04-15T09:19:54Z</time>
      </trkpt>
      <trkpt lat="45.43623" lon="5.75361">
        <ele>393.4</ele>
        <time>2022-04-15T09:19:55Z</time>
      </trkpt>
      <trkpt lat="45.43623" lon="5.75361">
        <ele>393.4</ele>
        <time>2022-04-15T09:19:56Z</time>
      </trkpt>
      <trkpt lat="45.43623" lon="5.75361">
        <ele>393.4</ele>
        <time>2022-04-15T09:19:57Z</time>
      </trkpt>
      <trkpt lat="45.43623" lon="5.75361">
        <ele>393.4</ele>
        <time>2022-04-15T09:19:58Z</time>
      </trkpt>
      <trkpt lat="45.43623" lon="5.75361">
        <ele>393.4</ele>
        <time>2022-04-15T09:19:59Z</time>
      </trkpt>
      <trkpt lat="45.43623" lon="5.75361">
        <ele>393.4</ele>
        <time>2022-04-15T09:20:00Z</time>
      </trkpt>
      <trkpt lat="45.43623" lon="5.75361">
        <ele>393.4</ele>
        <time>2022-04-15T09:20:01Z</time>
      </trkpt>
      <trkpt lat="45.43623" lon="5.75361">
        <ele>393.4</ele>
        <time>2022-04-15T09:20:02Z</time>
      </trkpt>
      <trkpt lat="45.43623" lon="5.75361">
        <ele>393.4</ele>
        <time>2022-04-15T09:20:03Z</time>
      </trkpt>
      <trkpt lat="45.43623" lon="5.75361">
        <ele>393.4</ele>
        <time>2022-04-15T09:20:04Z</time>
      </trkpt>
      <trkpt lat="45.43623" lon="5.75361">
        <ele>393.4</ele>
        <time>2022-04-15T09:20:05Z</time>
      </trkpt>
      <trkpt lat="45.43623" lon="5.75361">
        <ele>393.4</ele>
        <time>2022-04-15T09:20:06Z</time>
      </trkpt>
      <trkpt lat="45.43623" lon="5.75361">
        <ele>393.4</ele>
        <time>2022-04-15T09:20:07Z</time>
      </trkpt>
      <trkpt lat="45.43623" lon="5.75361">
        <ele>393.4</ele>
        <time>2022-04-15T09:20:08Z</time>
      </trkpt>
      <trkpt lat="45.43623" lon="5.75361">
        <ele>393.4</ele>
        <time>2022-04-15T09:20:09Z</time>
      </trkpt>
      <trkpt lat="45.43623" lon="5.75361">
        <ele>393.4</ele>
        <time>2022-04-15T09:20:10Z</time>
      </trkpt>
      <trkpt lat="45.43623" lon="5.75361">
        <ele>393.4</ele>
        <time>2022-04-15T09:20:11Z</time>
      </trkpt>
      <trkpt lat="45.43623" lon="5.75361">
        <ele>393.4</ele>
        <time>2022-04-15T09:20:12Z</time>
      </trkpt>
      <trkpt lat="45.43623" lon="5.75361">
        <ele>393.4</ele>
        <time>2022-04-15T09:20:13Z</time>
      </trkpt>
      <trkpt lat="45.43623" lon="5.75361">
        <ele>393.4</ele>
        <time>2022-04-15T09:20:14Z</time>
      </trkpt>
      <trkpt lat="45.43623" lon="5.75361">
        <ele>393.4</ele>
        <time>2022-04-15T09:20:15Z</time>
      </trkpt>
      <trkpt lat="45.43623" lon="5.75361">
        <ele>393.4</ele>
        <time>2022-04-15T09:20:16Z</time>
      </trkpt>
      <trkpt lat="45.43623" lon="5.75361">
        <ele>393.4</ele>
        <time>2022-04-15T09:20:17Z</time>
      </trkpt>
      <trkpt lat="45.43623" lon="5.75361">
        <ele>393.4</ele>
        <time>2022-04-15T09:20:18Z</time>
      </trkpt>
      <trkpt lat="45.43623" lon="5.75361">
        <ele>393.4</ele>
        <time>2022-04-15T09:20:19Z</time>
      </trkpt>
      <trkpt lat="45.43623" lon="5.75361">
        <ele>393.4</ele>
        <time>2022-04-15T09:20:20Z</time>
      </trkpt>
      <trkpt lat="45.43623" lon="5.75361">
        <ele>393.4</ele>
        <time>2022-04-15T09:20:21Z</time>
      </trkpt>
      <trkpt lat="45.43623" lon="5.75361">
        <ele>393.4</ele>
        <time>2022-04-15T09:20:22Z</time>
      </trkpt>
      <trkpt lat="45.43623" lon="5.75361">
        <ele>393.4</ele>
        <time>2022-04-15T09:20:23Z</time>
      </trkpt>
      <trkpt lat="45.43623" lon="5.75361">
        <ele>393.4</ele>
        <time>2022-04-15T09:20:24Z</time>
      </trkpt>
      <trkpt lat="45.43623" lon="5.75361">
        <ele>393.4</ele>
        <time>2022-04-15T09:20:25Z</time>
      </trkpt>
      <trkpt lat="45.43623" lon="5.75361">
        <ele>393.4</ele>
        <time>2022-04-15T09:20:26Z</time>
      </trkpt>
      <trkpt lat="45.43623" lon="5.75361">
        <ele>393.4</ele>
        <time>2022-04-15T09:20:27Z</time>
      </trkpt>
      <trkpt lat="45.43623" lon="5.75361">
        <ele>393.4</ele>
        <time>2022-04-15T09:20:28Z</time>
      </trkpt>
      <trkpt lat="45.43623" lon="5.75361">
        <ele>393.4</ele>
        <time>2022-04-15T09:20:29Z</time>
      </trkpt>
      <trkpt lat="45.43623" lon="5.75361">
        <ele>393.4</ele>
        <time>2022-04-15T09:20:30Z</time>
      </trkpt>
      <trkpt lat="45.43623" lon="5.75361">
        <ele>393.4</ele>
        <time>2022-04-15T09:20:31Z</time>
      </trkpt>
      <trkpt lat="45.43623" lon="5.75361">
        <ele>393.4</ele>
        <time>2022-04-15T09:20:32Z</time>
      </trkpt>
      <trkpt lat="45.43623" lon="5.75361">
        <ele>393.4</ele>
        <time>2022-04-15T09:20:33Z</time>
      </trkpt>
      <trkpt lat="45.43623" lon="5.75361">
        <ele>393.4</ele>
        <time>2022-04-15T09:20:34Z</time>
      </trkpt>
      <trkpt lat="45.43623" lon="5.75361">
        <ele>393.4</ele>
        <time>2022-04-15T09:20:35Z</time>
      </trkpt>
      <trkpt lat="45.43623" lon="5.75361">
        <ele>393.4</ele>
        <time>2022-04-15T09:20:36Z</time>
      </trkpt>
      <trkpt lat="45.43623" lon="5.75361">
        <ele>393.4</ele>
        <time>2022-04-15T09:20:37Z</time>
      </trkpt>
      <trkpt lat="45.43623" lon="5.75361">
        <ele>393.4</ele>
        <time>2022-04-15T09:20:38Z</time>
      </trkpt>
      <trkpt lat="45.43623" lon="5.75361">
        <ele>393.4</ele>
        <time>2022-04-15T09:20:39Z</time>
      </trkpt>
      <trkpt lat="45.43623" lon="5.75361">
        <ele>393.4</ele>
        <time>2022-04-15T09:20:40Z</time>
      </trkpt>
      <trkpt lat="45.43623" lon="5.75361">
        <ele>393.4</ele>
        <time>2022-04-15T09:20:41Z</time>
      </trkpt>
      <trkpt lat="45.43623" lon="5.75361">
        <ele>393.4</ele>
        <time>2022-04-15T09:20:42Z</time>
      </trkpt>
      <trkpt lat="45.43623" lon="5.75361">
        <ele>393.4</ele>
        <time>2022-04-15T09:20:43Z</time>
      </trkpt>
      <trkpt lat="45.43623" lon="5.75361">
        <ele>393.4</ele>
        <time>2022-04-15T09:20:44Z</time>
      </trkpt>
      <trkpt lat="45.43623" lon="5.75361">
        <ele>393.4</ele>
        <time>2022-04-15T09:20:45Z</time>
      </trkpt>
      <trkpt lat="45.43623" lon="5.75361">
        <ele>393.4</ele>
        <time>2022-04-15T09:20:46Z</time>
      </trkpt>
      <trkpt lat="45.43623" lon="5.75361">
        <ele>393.4</ele>
        <time>2022-04-15T09:20:47Z</time>
      </trkpt>
      <trkpt lat="45.43623" lon="5.75361">
        <ele>393.4</ele>
        <time>2022-04-15T09:20:48Z</time>
      </trkpt>
      <trkpt lat="45.43623" lon="5.75361">
        <ele>393.4</ele>
        <time>2022-04-15T09:20:49Z</time>
      </trkpt>
      <trkpt lat="45.43623" lon="5.75361">
        <ele>393.4</ele>
        <time>2022-04-15T09:20:50Z</time>
      </trkpt>
      <trkpt lat="45.43623" lon="5.75361">
        <ele>393.4</ele>
        <time>2022-04-15T09:20:51Z</time>
      </trkpt>
      <trkpt lat="45.43623" lon="5.75361">
        <ele>393.4</ele>
        <time>2022-04-15T09:20:52Z</time>
      </trkpt>
      <trkpt lat="45.43623" lon="5.75361">
        <ele>393.4</ele>
        <time>2022-04-15T09:20:53Z</time>
      </trkpt>
      <trkpt lat="45.43623" lon="5.75361">
        <ele>393.4</ele>
        <time>2022-04-15T09:20:54Z</time>
      </trkpt>
      <trkpt lat="45.43623" lon="5.75361">
        <ele>393.4</ele>
        <time>2022-04-15T09:20:55Z</time>
      </trkpt>
      <trkpt lat="45.43623" lon="5.75361">
        <ele>393.4</ele>
        <time>2022-04-15T09:20:56Z</time>
      </trkpt>
      <trkpt lat="45.43623" lon="5.75361">
        <ele>393.4</ele>
        <time>2022-04-15T09:20:57Z</time>
      </trkpt>
      <trkpt lat="45.43623" lon="5.75361">
        <ele>393.4</ele>
        <time>2022-04-15T09:20:58Z</time>
      </trkpt>
      <trkpt lat="45.43623" lon="5.75361">
        <ele>393.4</ele>
        <time>2022-04-15T09:20:59Z</time>
      </trkpt>
      <trkpt lat="45.43623" lon="5.75361">
        <ele>393.4</ele>
        <time>2022-04-15T09:21:00Z</time>
      </trkpt>
      <trkpt lat="45.43623" lon="5.75361">
        <ele>393.4</ele>
        <time>2022-04-15T09:21:01Z</time>
      </trkpt>
      <trkpt lat="45.43623" lon="5.75361">
        <ele>393.4</ele>
        <time>2022-04-15T09:21:02Z</time>
      </trkpt>
      <trkpt lat="45.43623" lon="5.75361">
        <ele>393.4</ele>
        <time>2022-04-15T09:21:03Z</time>
      </trkpt>
      <trkpt lat="45.43623" lon="5.75361">
        <ele>393.4</ele>
        <time>2022-04-15T09:21:04Z</time>
      </trkpt>
      <trkpt lat="45.43623" lon="5.75361">
        <ele>393.4</ele>
        <time>2022-04-15T09:21:05Z</time>
      </trkpt>
      <trkpt lat="45.43623" lon="5.75361">
        <ele>393.4</ele>
        <time>2022-04-15T09:21:06Z</time>
      </trkpt>
      <trkpt lat="45.43623" lon="5.75361">
        <ele>393.4</ele>
        <time>2022-04-15T09:21:07Z</time>
      </trkpt>
      <trkpt lat="45.43623" lon="5.75361">
        <ele>393.4</ele>
        <time>2022-04-15T09:21:08Z</time>
      </trkpt>
      <trkpt lat="45.43623" lon="5.75361">
        <ele>393.4</ele>
        <time>2022-04-15T09:21:09Z</time>
      </trkpt>
      <trkpt lat="45.43623" lon="5.75361">
        <ele>393.4</ele>
        <time>2022-04-15T09:21:10Z</time>
      </trkpt>
      <trkpt lat="45.43623" lon="5.75361">
        <ele>393.4</ele>
        <time>2022-04-15T09:21:11Z</time>
      </trkpt>
      <trkpt lat="45.43623" lon="5.75361">
        <ele>393.4</ele>
        <time>2022-04-15T09:21:12Z</time>
      </trkpt>
      <trkpt lat="45.43623" lon="5.75361">
        <ele>393.4</ele>
        <time>2022-04-15T09:21:13Z</time>
      </trkpt>
      <trkpt lat="45.43623" lon="5.75361">
        <ele>393.4</ele>
        <time>2022-04-15T09:21:14Z</time>
      </trkpt>
      <trkpt lat="45.43623" lon="5.75361">
        <ele>393.4</ele>
        <time>2022-04-15T09:21:15Z</time>
      </trkpt>
      <trkpt lat="45.43623" lon="5.75361">
        <ele>393.4</ele>
        <time>2022-04-15T09:21:16Z</time>
      </trkpt>
      <trkpt lat="45.43623" lon="5.75361">
        <ele>393.4</ele>
        <time>2022-04-15T09:21:17Z</time>
      </trkpt>
      <trkpt lat="45.43623" lon="5.75361">
        <ele>393.4</ele>
        <time>2022-04-15T09:21:18Z</time>
      </trkpt>
      <trkpt lat="45.43623" lon="5.75361">
        <ele>393.4</ele>
        <time>2022-04-15T09:21:19Z</time>
      </trkpt>
      <trkpt lat="45.43623" lon="5.75361">
        <ele>393.4</ele>
        <time>2022-04-15T09:21:20Z</time>
      </trkpt>
      <trkpt lat="45.43623" lon="5.75361">
        <ele>393.4</ele>
        <time>2022-04-15T09:21:21Z</time>
      </trkpt>
      <trkpt lat="45.43623" lon="5.75361">
        <ele>393.4</ele>
        <time>2022-04-15T09:21:22Z</time>
      </trkpt>
      <trkpt lat="45.43623" lon="5.75361">
        <ele>393.4</ele>
        <time>2022-04-15T09:21:23Z</time>
      </trkpt>
      <trkpt lat="45.43623" lon="5.75361">
        <ele>393.4</ele>
        <time>2022-04-15T09:21:24Z</time>
      </trkpt>
      <trkpt lat="45.43623" lon="5.75361">
        <ele>393.4</ele>
        <time>2022-04-15T09:21:25Z</time>
      </trkpt>
      <trkpt lat="45.43623" lon="5.75361">
        <ele>393.4</ele>
        <time>2022-04-15T09:21:26Z</time>
      </trkpt>
      <trkpt lat="45.43623" lon="5.75361">
        <ele>393.4</ele>
        <time>2022-04-15T09:21:27Z</time>
      </trkpt>
      <trkpt lat="45.43623" lon="5.75361">
        <ele>393.4</ele>
        <time>2022-04-15T09:21:28Z</time>
      </trkpt>
      <trkpt lat="45.43623" lon="5.75361">
        <ele>393.4</ele>
        <time>2022-04-15T09:21:29Z</time>
      </trkpt>
      <trkpt lat="45.43623" lon="5.75361">
        <ele>393.4</ele>
        <time>2022-04-15T09:21:30Z</time>
      </trkpt>
      <trkpt lat="45.43623" lon="5.75361">
        <ele>393.4</ele>
        <time>2022-04-15T09:21:31Z</time>
      </trkpt>
      <trkpt lat="45.43623" lon="5.75361">
        <ele>393.4</ele>
        <time>2022-04-15T09:21:32Z</time>
      </trkpt>
      <trkpt lat="45.43623" lon="5.75361">
        <ele>393.4</ele>
        <time>2022-04-15T09:21:33Z</time>
      </trkpt>
      <trkpt lat="45.43623" lon="5.75361">
        <ele>393.4</ele>
        <time>2022-04-15T09:21:34Z</time>
      </trkpt>
      <trkpt lat="45.43623" lon="5.75361">
        <ele>393.4</ele>
        <time>2022-04-15T09:21:35Z</time>
      </trkpt>
      <trkpt lat="45.43623" lon="5.75361">
        <ele>393.4</ele>
        <time>2022-04-15T09:21:36Z</time>
      </trkpt>
      <trkpt lat="45.43623" lon="5.75361">
        <ele>393.4</ele>
        <time>2022-04-15T09:21:37Z</time>
      </trkpt>
      <trkpt lat="45.43623" lon="5.75361">
        <ele>393.4</ele>
        <time>2022-04-15T09:21:38Z</time>
      </trkpt>
      <trkpt lat="45.43623" lon="5.75361">
        <ele>393.4</ele>
        <time>2022-04-15T09:21:39Z</time>
      </trkpt>
      <trkpt lat="45.43623" lon="5.75361">
        <ele>393.4</ele>
        <time>2022-04-15T09:21:40Z</time>
      </trkpt>
      <trkpt lat="45.43623" lon="5.75361">
        <ele>393.4</ele>
        <time>2022-04-15T09:21:41Z</time>
      </trkpt>
      <trkpt lat="45.43623" lon="5.75361">
        <ele>393.4</ele>
        <time>2022-04-15T09:21:42Z</time>
      </trkpt>
      <trkpt lat="45.43623" lon="5.75361">
        <ele>393.4</ele>
        <time>2022-04-15T09:21:43Z</time>
      </trkpt>
      <trkpt lat="45.43623" lon="5.75361">
        <ele>393.4</ele>
        <time>2022-04-15T09:21:44Z</time>
      </trkpt>
      <trkpt lat="45.43623" lon="5.75361">
        <ele>393.4</ele>
        <time>2022-04-15T09:21:45Z</time>
      </trkpt>
      <trkpt lat="45.43623" lon="5.75361">
        <ele>393.4</ele>
        <time>2022-04-15T09:21:46Z</time>
      </trkpt>
      <trkpt lat="45.43623" lon="5.75361">
        <ele>393.4</ele>
        <time>2022-04-15T09:21:47Z</time>
      </trkpt>
      <trkpt lat="45.43623" lon="5.75361">
        <ele>393.4</ele>
        <time>2022-04-15T09:21:48Z</time>
      </trkpt>
      <trkpt lat="45.43623" lon="5.75361">
        <ele>393.4</ele>
        <time>2022-04-15T09:21:49Z</time>
      </trkpt>
      <trkpt lat="45.43623" lon="5.75361">
        <ele>393.4</ele>
        <time>2022-04-15T09:21:50Z</time>
      </trkpt>
      <trkpt lat="45.43623" lon="5.75361">
        <ele>393.4</ele>
        <time>2022-04-15T09:21:51Z</time>
      </trkpt>
      <trkpt lat="45.43623" lon="5.75361">
        <ele>393.4</ele>
        <time>2022-04-15T09:21:52Z</time>
      </trkpt>
      <trkpt lat="45.43623" lon="5.75361">
        <ele>393.4</ele>
        <time>2022-04-15T09:21:53Z</time>
      </trkpt>
      <trkpt lat="45.43623" lon="5.75361">
        <ele>393.4</ele>
        <time>2022-04-15T09:21:54Z</time>
      </trkpt>
      <trkpt lat="45.43623" lon="5.75361">
        <ele>393.4</ele>
        <time>2022-04-15T09:21:55Z</time>
      </trkpt>
      <trkpt lat="45.43623" lon="5.75361">
        <ele>393.4</ele>
        <time>2022-04-15T09:21:56Z</time>
      </trkpt>
      <trkpt lat="45.43623" lon="5.75361">
        <ele>393.4</ele>
        <time>2022-04-15T09:21:57Z</time>
      </trkpt>
      <trkpt lat="45.43623" lon="5.75361">
        <ele>393.4</ele>
        <time>2022-04-15T09:21:58Z</time>
      </trkpt>
      <trkpt lat="45.43623" lon="5.75361">
        <ele>393.4</ele>
        <time>2022-04-15T09:21:59Z</time>
      </trkpt>
      <trkpt lat="45.43623" lon="5.75361">
        <ele>393.4</ele>
        <time>2022-04-15T09:22:00Z</time>
      </trkpt>
      <trkpt lat="45.43623" lon="5.75361">
        <ele>393.4</ele>
        <time>2022-04-15T09:22:01Z</time>
      </trkpt>
      <trkpt lat="45.43623" lon="5.75361">
        <ele>393.4</ele>
        <time>2022-04-15T09:22:02Z</time>
      </trkpt>
      <trkpt lat="45.43623" lon="5.75361">
        <ele>393.4</ele>
        <time>2022-04-15T09:22:03Z</time>
      </trkpt>
      <trkpt lat="45.43623" lon="5.75361">
        <ele>393.4</ele>
        <time>2022-04-15T09:22:04Z</time>
      </trkpt>
      <trkpt lat="45.43623" lon="5.75361">
        <ele>393.4</ele>
        <time>2022-04-15T09:22:05Z</time>
      </trkpt>
      <trkpt lat="45.43623" lon="5.75361">
        <ele>393.4</ele>
        <time>2022-04-15T09:22:06Z</time>
      </trkpt>
      <trkpt lat="45.43623" lon="5.75361">
        <ele>393.4</ele>
        <time>2022-04-15T09:22:07Z</time>
      </trkpt>
      <trkpt lat="45.43623" lon="5.75361">
        <ele>393.4</ele>
        <time>2022-04-15T09:22:08Z</time>
      </trkpt>
      <trkpt lat="45.43623" lon="5.75361">
        <ele>393.4</ele>
        <time>2022-04-15T09:22:09Z</time>
      </trkpt>
      <trkpt lat="45.43623" lon="5.75361">
        <ele>393.4</ele>
        <time>2022-04-15T09:22:10Z</time>
      </trkpt>
      <trkpt lat="45.43623" lon="5.75361">
        <ele>393.4</ele>
        <time>2022-04-15T09:22:11Z</time>
      </trkpt>
      <trkpt lat="45.43623" lon="5.75361">
        <ele>393.4</ele>
        <time>2022-04-15T09:22:12Z</time>
      </trkpt>
      <trkpt lat="45.43623" lon="5.75361">
        <ele>393.4</ele>
        <time>2022-04-15T09:22:13Z</time>
      </trkpt>
      <trkpt lat="45.43623" lon="5.75361">
        <ele>393.4</ele>
        <time>2022-04-15T09:22:14Z</time>
      </trkpt>
      <trkpt lat="45.43623" lon="5.75361">
        <ele>393.4</ele>
        <time>2022-04-15T09:22:15Z</time>
      </trkpt>
      <trkpt lat="45.43623" lon="5.75361">
        <ele>393.4</ele>
        <time>2022-04-15T09:22:16Z</time>
      </trkpt>
      <trkpt lat="45.43623" lon="5.75361">
        <ele>393.4</ele>
        <time>2022-04-15T09:22:17Z</time>
      </trkpt>
      <trkpt lat="45.43623" lon="5.75361">
        <ele>393.4</ele>
        <time>2022-04-15T09:22:18Z</time>
      </trkpt>
      <trkpt lat="45.43623" lon="5.75361">
        <ele>393.4</ele>
        <time>2022-04-15T09:22:19Z</time>
      </trkpt>
      <trkpt lat="45.43623" lon="5.75361">
        <ele>393.4</ele>
        <time>2022-04-15T09:22:20Z</time>
      </trkpt>
      <trkpt lat="45.43623" lon="5.75361">
        <ele>393.4</ele>
        <time>2022-04-15T09:22:21Z</time>
      </trkpt>
      <trkpt lat="45.43623" lon="5.75361">
        <ele>393.4</ele>
        <time>2022-04-15T09:22:22Z</time>
      </trkpt>
      <trkpt lat="45.43623" lon="5.75361">
        <ele>393.4</ele>
        <time>2022-04-15T09:22:23Z</time>
      </trkpt>
      <trkpt lat="45.43623" lon="5.75362">
        <ele>393.4</ele>
        <time>2022-04-15T09:22:24Z</time>
      </trkpt>
      <trkpt lat="45.43623" lon="5.75362">
        <ele>393.4</ele>
        <time>2022-04-15T09:22:25Z</time>
      </trkpt>
      <trkpt lat="45.43623" lon="5.75362">
        <ele>393.4</ele>
        <time>2022-04-15T09:22:26Z</time>
      </trkpt>
      <trkpt lat="45.43623" lon="5.75362">
        <ele>393.4</ele>
        <time>2022-04-15T09:22:27Z</time>
      </trkpt>
      <trkpt lat="45.43623" lon="5.75362">
        <ele>393.4</ele>
        <time>2022-04-15T09:22:28Z</time>
      </trkpt>
      <trkpt lat="45.43623" lon="5.75362">
        <ele>393.4</ele>
        <time>2022-04-15T09:22:29Z</time>
      </trkpt>
      <trkpt lat="45.43623" lon="5.75362">
        <ele>393.4</ele>
        <time>2022-04-15T09:22:30Z</time>
      </trkpt>
      <trkpt lat="45.43623" lon="5.75362">
        <ele>393.4</ele>
        <time>2022-04-15T09:22:31Z</time>
      </trkpt>
      <trkpt lat="45.43623" lon="5.75362">
        <ele>393.4</ele>
        <time>2022-04-15T09:22:32Z</time>
      </trkpt>
      <trkpt lat="45.43623" lon="5.75362">
        <ele>393.4</ele>
        <time>2022-04-15T09:22:33Z</time>
      </trkpt>
      <trkpt lat="45.43623" lon="5.75362">
        <ele>393.4</ele>
        <time>2022-04-15T09:22:34Z</time>
      </trkpt>
      <trkpt lat="45.43623" lon="5.75362">
        <ele>393.4</ele>
        <time>2022-04-15T09:22:35Z</time>
      </trkpt>
      <trkpt lat="45.43623" lon="5.75362">
        <ele>393.4</ele>
        <time>2022-04-15T09:22:36Z</time>
      </trkpt>
      <trkpt lat="45.43623" lon="5.75362">
        <ele>393.4</ele>
        <time>2022-04-15T09:22:37Z</time>
      </trkpt>
      <trkpt lat="45.43623" lon="5.75362">
        <ele>393.4</ele>
        <time>2022-04-15T09:22:38Z</time>
      </trkpt>
      <trkpt lat="45.43623" lon="5.75362">
        <ele>393.4</ele>
        <time>2022-04-15T09:22:39Z</time>
      </trkpt>
      <trkpt lat="45.43623" lon="5.75362">
        <ele>393.4</ele>
        <time>2022-04-15T09:22:40Z</time>
      </trkpt>
      <trkpt lat="45.43623" lon="5.75362">
        <ele>393.4</ele>
        <time>2022-04-15T09:22:41Z</time>
      </trkpt>
      <trkpt lat="45.43623" lon="5.75362">
        <ele>393.4</ele>
        <time>2022-04-15T09:22:42Z</time>
      </trkpt>
      <trkpt lat="45.43623" lon="5.75362">
        <ele>393.4</ele>
        <time>2022-04-15T09:22:43Z</time>
      </trkpt>
      <trkpt lat="45.43623" lon="5.75362">
        <ele>393.4</ele>
        <time>2022-04-15T09:22:44Z</time>
      </trkpt>
      <trkpt lat="45.43623" lon="5.75362">
        <ele>393.4</ele>
        <time>2022-04-15T09:22:45Z</time>
      </trkpt>
      <trkpt lat="45.43623" lon="5.75362">
        <ele>393.4</ele>
        <time>2022-04-15T09:22:46Z</time>
      </trkpt>
      <trkpt lat="45.43623" lon="5.75362">
        <ele>393.4</ele>
        <time>2022-04-15T09:22:47Z</time>
      </trkpt>
      <trkpt lat="45.43623" lon="5.75362">
        <ele>393.4</ele>
        <time>2022-04-15T09:22:48Z</time>
      </trkpt>
      <trkpt lat="45.43623" lon="5.75362">
        <ele>393.4</ele>
        <time>2022-04-15T09:22:49Z</time>
      </trkpt>
      <trkpt lat="45.43623" lon="5.75362">
        <ele>393.4</ele>
        <time>2022-04-15T09:22:50Z</time>
      </trkpt>
      <trkpt lat="45.43623" lon="5.75362">
        <ele>393.4</ele>
        <time>2022-04-15T09:22:51Z</time>
      </trkpt>
      <trkpt lat="45.43623" lon="5.75362">
        <ele>393.4</ele>
        <time>2022-04-15T09:22:52Z</time>
      </trkpt>
      <trkpt lat="45.43623" lon="5.75362">
        <ele>393.4</ele>
        <time>2022-04-15T09:22:53Z</time>
      </trkpt>
      <trkpt lat="45.43623" lon="5.75362">
        <ele>393.4</ele>
        <time>2022-04-15T09:22:54Z</time>
      </trkpt>
      <trkpt lat="45.43623" lon="5.75362">
        <ele>393.4</ele>
        <time>2022-04-15T09:22:55Z</time>
      </trkpt>
      <trkpt lat="45.43623" lon="5.75362">
        <ele>393.4</ele>
        <time>2022-04-15T09:22:56Z</time>
      </trkpt>
      <trkpt lat="45.43623" lon="5.75362">
        <ele>393.4</ele>
        <time>2022-04-15T09:22:57Z</time>
      </trkpt>
      <trkpt lat="45.43623" lon="5.75362">
        <ele>393.4</ele>
        <time>2022-04-15T09:22:58Z</time>
      </trkpt>
      <trkpt lat="45.43623" lon="5.75362">
        <ele>393.4</ele>
        <time>2022-04-15T09:22:59Z</time>
      </trkpt>
      <trkpt lat="45.43623" lon="5.75362">
        <ele>393.4</ele>
        <time>2022-04-15T09:23:00Z</time>
      </trkpt>
      <trkpt lat="45.43623" lon="5.75362">
        <ele>393.4</ele>
        <time>2022-04-15T09:23:01Z</time>
      </trkpt>
      <trkpt lat="45.43623" lon="5.75362">
        <ele>393.4</ele>
        <time>2022-04-15T09:23:02Z</time>
      </trkpt>
      <trkpt lat="45.43623" lon="5.75362">
        <ele>393.4</ele>
        <time>2022-04-15T09:23:03Z</time>
      </trkpt>
      <trkpt lat="45.43623" lon="5.75362">
        <ele>393.4</ele>
        <time>2022-04-15T09:23:04Z</time>
      </trkpt>
      <trkpt lat="45.43623" lon="5.75362">
        <ele>393.4</ele>
        <time>2022-04-15T09:23:05Z</time>
      </trkpt>
      <trkpt lat="45.43623" lon="5.75362">
        <ele>393.4</ele>
        <time>2022-04-15T09:23:06Z</time>
      </trkpt>
      <trkpt lat="45.43623" lon="5.75362">
        <ele>393.4</ele>
        <time>2022-04-15T09:23:07Z</time>
      </trkpt>
      <trkpt lat="45.43623" lon="5.75362">
        <ele>393.4</ele>
        <time>2022-04-15T09:23:08Z</time>
      </trkpt>
      <trkpt lat="45.43623" lon="5.75362">
        <ele>393.4</ele>
        <time>2022-04-15T09:23:09Z</time>
      </trkpt>
      <trkpt lat="45.43623" lon="5.75362">
        <ele>393.4</ele>
        <time>2022-04-15T09:23:10Z</time>
      </trkpt>
      <trkpt lat="45.43623" lon="5.75362">
        <ele>393.4</ele>
        <time>2022-04-15T09:23:11Z</time>
      </trkpt>
      <trkpt lat="45.43623" lon="5.75362">
        <ele>393.4</ele>
        <time>2022-04-15T09:23:12Z</time>
      </trkpt>
      <trkpt lat="45.43623" lon="5.75362">
        <ele>393.4</ele>
        <time>2022-04-15T09:23:13Z</time>
      </trkpt>
      <trkpt lat="45.43623" lon="5.75362">
        <ele>393.4</ele>
        <time>2022-04-15T09:23:14Z</time>
      </trkpt>
      <trkpt lat="45.43623" lon="5.75362">
        <ele>393.4</ele>
        <time>2022-04-15T09:23:15Z</time>
      </trkpt>
      <trkpt lat="45.43623" lon="5.75362">
        <ele>393.4</ele>
        <time>2022-04-15T09:23:16Z</time>
      </trkpt>
      <trkpt lat="45.43623" lon="5.75362">
        <ele>393.4</ele>
        <time>2022-04-15T09:23:17Z</time>
      </trkpt>
      <trkpt lat="45.43623" lon="5.75362">
        <ele>393.4</ele>
        <time>2022-04-15T09:23:18Z</time>
      </trkpt>
      <trkpt lat="45.43623" lon="5.75362">
        <ele>393.4</ele>
        <time>2022-04-15T09:23:19Z</time>
      </trkpt>
      <trkpt lat="45.43623" lon="5.75362">
        <ele>393.4</ele>
        <time>2022-04-15T09:23:20Z</time>
      </trkpt>
      <trkpt lat="45.43623" lon="5.75362">
        <ele>393.4</ele>
        <time>2022-04-15T09:23:21Z</time>
      </trkpt>
      <trkpt lat="45.43623" lon="5.75362">
        <ele>393.4</ele>
        <time>2022-04-15T09:23:22Z</time>
      </trkpt>
      <trkpt lat="45.43623" lon="5.75362">
        <ele>393.4</ele>
        <time>2022-04-15T09:23:23Z</time>
      </trkpt>
      <trkpt lat="45.43623" lon="5.75362">
        <ele>393.4</ele>
        <time>2022-04-15T09:23:24Z</time>
      </trkpt>
      <trkpt lat="45.43623" lon="5.75362">
        <ele>393.4</ele>
        <time>2022-04-15T09:23:25Z</time>
      </trkpt>
      <trkpt lat="45.43623" lon="5.75362">
        <ele>393.4</ele>
        <time>2022-04-15T09:23:26Z</time>
      </trkpt>
      <trkpt lat="45.43623" lon="5.75362">
        <ele>393.4</ele>
        <time>2022-04-15T09:23:27Z</time>
      </trkpt>
      <trkpt lat="45.43623" lon="5.75362">
        <ele>393.4</ele>
        <time>2022-04-15T09:23:28Z</time>
      </trkpt>
      <trkpt lat="45.43623" lon="5.75362">
        <ele>393.4</ele>
        <time>2022-04-15T09:23:29Z</time>
      </trkpt>
      <trkpt lat="45.43623" lon="5.75362">
        <ele>393.4</ele>
        <time>2022-04-15T09:23:30Z</time>
      </trkpt>
      <trkpt lat="45.43623" lon="5.75362">
        <ele>393.4</ele>
        <time>2022-04-15T09:23:31Z</time>
      </trkpt>
      <trkpt lat="45.43623" lon="5.75362">
        <ele>393.4</ele>
        <time>2022-04-15T09:23:32Z</time>
      </trkpt>
      <trkpt lat="45.43623" lon="5.75362">
        <ele>393.4</ele>
        <time>2022-04-15T09:23:33Z</time>
      </trkpt>
      <trkpt lat="45.43623" lon="5.75362">
        <ele>393.4</ele>
        <time>2022-04-15T09:23:34Z</time>
      </trkpt>
      <trkpt lat="45.43623" lon="5.75362">
        <ele>393.4</ele>
        <time>2022-04-15T09:23:35Z</time>
      </trkpt>
      <trkpt lat="45.43623" lon="5.75362">
        <ele>393.4</ele>
        <time>2022-04-15T09:23:36Z</time>
      </trkpt>
      <trkpt lat="45.43623" lon="5.75362">
        <ele>393.4</ele>
        <time>2022-04-15T09:23:37Z</time>
      </trkpt>
      <trkpt lat="45.43623" lon="5.75362">
        <ele>393.4</ele>
        <time>2022-04-15T09:23:38Z</time>
      </trkpt>
      <trkpt lat="45.43623" lon="5.75362">
        <ele>393.4</ele>
        <time>2022-04-15T09:23:39Z</time>
      </trkpt>
      <trkpt lat="45.43623" lon="5.75362">
        <ele>393.4</ele>
        <time>2022-04-15T09:23:40Z</time>
      </trkpt>
      <trkpt lat="45.43623" lon="5.75362">
        <ele>393.4</ele>
        <time>2022-04-15T09:23:41Z</time>
      </trkpt>
      <trkpt lat="45.43623" lon="5.75362">
        <ele>393.4</ele>
        <time>2022-04-15T09:23:42Z</time>
      </trkpt>
      <trkpt lat="45.43623" lon="5.75362">
        <ele>393.4</ele>
        <time>2022-04-15T09:23:43Z</time>
      </trkpt>
      <trkpt lat="45.43623" lon="5.75362">
        <ele>393.4</ele>
        <time>2022-04-15T09:23:44Z</time>
      </trkpt>
      <trkpt lat="45.43623" lon="5.75362">
        <ele>393.4</ele>
        <time>2022-04-15T09:23:45Z</time>
      </trkpt>
      <trkpt lat="45.43623" lon="5.75362">
        <ele>393.4</ele>
        <time>2022-04-15T09:23:46Z</time>
      </trkpt>
      <trkpt lat="45.43623" lon="5.75362">
        <ele>393.4</ele>
        <time>2022-04-15T09:23:47Z</time>
      </trkpt>
      <trkpt lat="45.43623" lon="5.75362">
        <ele>393.4</ele>
        <time>2022-04-15T09:23:48Z</time>
      </trkpt>
      <trkpt lat="45.43623" lon="5.75362">
        <ele>393.4</ele>
        <time>2022-04-15T09:23:49Z</time>
      </trkpt>
      <trkpt lat="45.43623" lon="5.75362">
        <ele>393.4</ele>
        <time>2022-04-15T09:23:50Z</time>
      </trkpt>
      <trkpt lat="45.43623" lon="5.75362">
        <ele>393.4</ele>
        <time>2022-04-15T09:23:51Z</time>
      </trkpt>
      <trkpt lat="45.43623" lon="5.75362">
        <ele>393.4</ele>
        <time>2022-04-15T09:23:52Z</time>
      </trkpt>
      <trkpt lat="45.43624" lon="5.75362">
        <ele>393.4</ele>
        <time>2022-04-15T09:23:53Z</time>
      </trkpt>
      <trkpt lat="45.43624" lon="5.75362">
        <ele>393.4</ele>
        <time>2022-04-15T09:23:54Z</time>
      </trkpt>
      <trkpt lat="45.43624" lon="5.75362">
        <ele>393.4</ele>
        <time>2022-04-15T09:23:55Z</time>
      </trkpt>
      <trkpt lat="45.43624" lon="5.75362">
        <ele>393.4</ele>
        <time>2022-04-15T09:23:56Z</time>
      </trkpt>
      <trkpt lat="45.43624" lon="5.75362">
        <ele>393.4</ele>
        <time>2022-04-15T09:23:57Z</time>
      </trkpt>
      <trkpt lat="45.43624" lon="5.75362">
        <ele>393.4</ele>
        <time>2022-04-15T09:23:58Z</time>
      </trkpt>
      <trkpt lat="45.43624" lon="5.75363">
        <ele>393.4</ele>
        <time>2022-04-15T09:23:59Z</time>
      </trkpt>
      <trkpt lat="45.43624" lon="5.75362">
        <ele>393.3</ele>
        <time>2022-04-15T09:24:00Z</time>
      </trkpt>
      <trkpt lat="45.43624" lon="5.75361">
        <ele>393.3</ele>
        <time>2022-04-15T09:24:01Z</time>
      </trkpt>
      <trkpt lat="45.43624" lon="5.75361">
        <ele>393.3</ele>
        <time>2022-04-15T09:24:02Z</time>
      </trkpt>
      <trkpt lat="45.43624" lon="5.75361">
        <ele>393.3</ele>
        <time>2022-04-15T09:24:03Z</time>
      </trkpt>
      <trkpt lat="45.43625" lon="5.75361">
        <ele>393.3</ele>
        <time>2022-04-15T09:24:05Z</time>
      </trkpt>
      <trkpt lat="45.43625" lon="5.75361">
        <ele>393.3</ele>
        <time>2022-04-15T09:24:06Z</time>
      </trkpt>
      <trkpt lat="45.43625" lon="5.7536">
        <ele>393.3</ele>
        <time>2022-04-15T09:24:07Z</time>
      </trkpt>
      <trkpt lat="45.43625" lon="5.7536">
        <ele>393.3</ele>
        <time>2022-04-15T09:24:08Z</time>
      </trkpt>
      <trkpt lat="45.43625" lon="5.7536">
        <ele>393.3</ele>
        <time>2022-04-15T09:24:09Z</time>
      </trkpt>
      <trkpt lat="45.43625" lon="5.7536">
        <ele>393.3</ele>
        <time>2022-04-15T09:24:10Z</time>
      </trkpt>
      <trkpt lat="45.43626" lon="5.7536">
        <ele>393.3</ele>
        <time>2022-04-15T09:24:11Z</time>
      </trkpt>
      <trkpt lat="45.43626" lon="5.7536">
        <ele>393.3</ele>
        <time>2022-04-15T09:24:12Z</time>
      </trkpt>
      <trkpt lat="45.43626" lon="5.7536">
        <ele>393.3</ele>
        <time>2022-04-15T09:24:13Z</time>
      </trkpt>
      <trkpt lat="45.43626" lon="5.7536">
        <ele>393.3</ele>
        <time>2022-04-15T09:24:14Z</time>
      </trkpt>
      <trkpt lat="45.43626" lon="5.7536">
        <ele>393.3</ele>
        <time>2022-04-15T09:24:15Z</time>
      </trkpt>
      <trkpt lat="45.43626" lon="5.7536">
        <ele>393.3</ele>
        <time>2022-04-15T09:24:16Z</time>
      </trkpt>
      <trkpt lat="45.43626" lon="5.7536">
        <ele>393.3</ele>
        <time>2022-04-15T09:24:17Z</time>
      </trkpt>
      <trkpt lat="45.43626" lon="5.75359">
        <ele>393.3</ele>
        <time>2022-04-15T09:24:18Z</time>
      </trkpt>
      <trkpt lat="45.43626" lon="5.75359">
        <ele>393.3</ele>
        <time>2022-04-15T09:24:19Z</time>
      </trkpt>
      <trkpt lat="45.43626" lon="5.75359">
        <ele>393.3</ele>
        <time>2022-04-15T09:24:20Z</time>
      </trkpt>
      <trkpt lat="45.43626" lon="5.75359">
        <ele>393.3</ele>
        <time>2022-04-15T09:24:21Z</time>
      </trkpt>
      <trkpt lat="45.43626" lon="5.75359">
        <ele>393.3</ele>
        <time>2022-04-15T09:24:22Z</time>
      </trkpt>
      <trkpt lat="45.43626" lon="5.75359">
        <ele>393.3</ele>
        <time>2022-04-15T09:24:23Z</time>
      </trkpt>
      <trkpt lat="45.43626" lon="5.75359">
        <ele>393.3</ele>
        <time>2022-04-15T09:24:24Z</time>
      </trkpt>
      <trkpt lat="45.43626" lon="5.75359">
        <ele>393.3</ele>
        <time>2022-04-15T09:24:25Z</time>
      </trkpt>
      <trkpt lat="45.43626" lon="5.75359">
        <ele>393.3</ele>
        <time>2022-04-15T09:24:26Z</time>
      </trkpt>
      <trkpt lat="45.43626" lon="5.75359">
        <ele>393.3</ele>
        <time>2022-04-15T09:24:27Z</time>
      </trkpt>
      <trkpt lat="45.43626" lon="5.75359">
        <ele>393.3</ele>
        <time>2022-04-15T09:24:28Z</time>
      </trkpt>
      <trkpt lat="45.43626" lon="5.75359">
        <ele>393.3</ele>
        <time>2022-04-15T09:24:29Z</time>
      </trkpt>
      <trkpt lat="45.43626" lon="5.75359">
        <ele>393.3</ele>
        <time>2022-04-15T09:24:30Z</time>
      </trkpt>
      <trkpt lat="45.43626" lon="5.75359">
        <ele>393.3</ele>
        <time>2022-04-15T09:24:31Z</time>
      </trkpt>
      <trkpt lat="45.43626" lon="5.75359">
        <ele>393.3</ele>
        <time>2022-04-15T09:24:32Z</time>
      </trkpt>
      <trkpt lat="45.43626" lon="5.75359">
        <ele>393.3</ele>
        <time>2022-04-15T09:24:33Z</time>
      </trkpt>
      <trkpt lat="45.43626" lon="5.75359">
        <ele>393.3</ele>
        <time>2022-04-15T09:24:34Z</time>
      </trkpt>
      <trkpt lat="45.43626" lon="5.75359">
        <ele>393.3</ele>
        <time>2022-04-15T09:24:35Z</time>
      </trkpt>
      <trkpt lat="45.43626" lon="5.75359">
        <ele>393.3</ele>
        <time>2022-04-15T09:24:36Z</time>
      </trkpt>
      <trkpt lat="45.43626" lon="5.75359">
        <ele>393.3</ele>
        <time>2022-04-15T09:24:37Z</time>
      </trkpt>
      <trkpt lat="45.43626" lon="5.75359">
        <ele>393.3</ele>
        <time>2022-04-15T09:24:38Z</time>
      </trkpt>
      <trkpt lat="45.43626" lon="5.75359">
        <ele>393.3</ele>
        <time>2022-04-15T09:24:39Z</time>
      </trkpt>
      <trkpt lat="45.43626" lon="5.75359">
        <ele>393.2</ele>
        <time>2022-04-15T09:24:40Z</time>
      </trkpt>
      <trkpt lat="45.43626" lon="5.75359">
        <ele>393.2</ele>
        <time>2022-04-15T09:24:41Z</time>
      </trkpt>
      <trkpt lat="45.43626" lon="5.75359">
        <ele>393.2</ele>
        <time>2022-04-15T09:24:42Z</time>
      </trkpt>
      <trkpt lat="45.43626" lon="5.75359">
        <ele>393.2</ele>
        <time>2022-04-15T09:24:43Z</time>
      </trkpt>
      <trkpt lat="45.43626" lon="5.75359">
        <ele>393.2</ele>
        <time>2022-04-15T09:24:44Z</time>
      </trkpt>
      <trkpt lat="45.43626" lon="5.75359">
        <ele>393.2</ele>
        <time>2022-04-15T09:24:45Z</time>
      </trkpt>
      <trkpt lat="45.43626" lon="5.75359">
        <ele>393.2</ele>
        <time>2022-04-15T09:24:46Z</time>
      </trkpt>
      <trkpt lat="45.43626" lon="5.75359">
        <ele>393.2</ele>
        <time>2022-04-15T09:24:47Z</time>
      </trkpt>
      <trkpt lat="45.43626" lon="5.75359">
        <ele>393.2</ele>
        <time>2022-04-15T09:24:48Z</time>
      </trkpt>
      <trkpt lat="45.43626" lon="5.75359">
        <ele>393.2</ele>
        <time>2022-04-15T09:24:49Z</time>
      </trkpt>
      <trkpt lat="45.43626" lon="5.75359">
        <ele>393.2</ele>
        <time>2022-04-15T09:24:50Z</time>
      </trkpt>
      <trkpt lat="45.43626" lon="5.75359">
        <ele>393.2</ele>
        <time>2022-04-15T09:24:51Z</time>
      </trkpt>
      <trkpt lat="45.43626" lon="5.75359">
        <ele>393.2</ele>
        <time>2022-04-15T09:24:52Z</time>
      </trkpt>
      <trkpt lat="45.43626" lon="5.75359">
        <ele>393.2</ele>
        <time>2022-04-15T09:24:53Z</time>
      </trkpt>
      <trkpt lat="45.43626" lon="5.75359">
        <ele>393.2</ele>
        <time>2022-04-15T09:24:54Z</time>
      </trkpt>
      <trkpt lat="45.43626" lon="5.75359">
        <ele>393.2</ele>
        <time>2022-04-15T09:24:55Z</time>
      </trkpt>
      <trkpt lat="45.43626" lon="5.75359">
        <ele>393.2</ele>
        <time>2022-04-15T09:24:56Z</time>
      </trkpt>
      <trkpt lat="45.43626" lon="5.75359">
        <ele>393.2</ele>
        <time>2022-04-15T09:24:57Z</time>
      </trkpt>
      <trkpt lat="45.43626" lon="5.75359">
        <ele>393.2</ele>
        <time>2022-04-15T09:24:58Z</time>
      </trkpt>
      <trkpt lat="45.43626" lon="5.75359">
        <ele>393.2</ele>
        <time>2022-04-15T09:24:59Z</time>
      </trkpt>
      <trkpt lat="45.43626" lon="5.75359">
        <ele>393.2</ele>
        <time>2022-04-15T09:25:00Z</time>
      </trkpt>
      <trkpt lat="45.43626" lon="5.75359">
        <ele>393.2</ele>
        <time>2022-04-15T09:25:01Z</time>
      </trkpt>
      <trkpt lat="45.43626" lon="5.75359">
        <ele>393.2</ele>
        <time>2022-04-15T09:25:02Z</time>
      </trkpt>
      <trkpt lat="45.43626" lon="5.75359">
        <ele>393.2</ele>
        <time>2022-04-15T09:25:03Z</time>
      </trkpt>
      <trkpt lat="45.43626" lon="5.75359">
        <ele>393.2</ele>
        <time>2022-04-15T09:25:04Z</time>
      </trkpt>
      <trkpt lat="45.43626" lon="5.75359">
        <ele>393.2</ele>
        <time>2022-04-15T09:25:05Z</time>
      </trkpt>
      <trkpt lat="45.43626" lon="5.75359">
        <ele>393.2</ele>
        <time>2022-04-15T09:25:06Z</time>
      </trkpt>
      <trkpt lat="45.43626" lon="5.75359">
        <ele>393.2</ele>
        <time>2022-04-15T09:25:07Z</time>
      </trkpt>
      <trkpt lat="45.43626" lon="5.75359">
        <ele>393.2</ele>
        <time>2022-04-15T09:25:08Z</time>
      </trkpt>
      <trkpt lat="45.43626" lon="5.75359">
        <ele>393.2</ele>
        <time>2022-04-15T09:25:09Z</time>
      </trkpt>
      <trkpt lat="45.43626" lon="5.75359">
        <ele>393.2</ele>
        <time>2022-04-15T09:25:10Z</time>
      </trkpt>
      <trkpt lat="45.43626" lon="5.75359">
        <ele>393.2</ele>
        <time>2022-04-15T09:25:11Z</time>
      </trkpt>
      <trkpt lat="45.43626" lon="5.75359">
        <ele>393.2</ele>
        <time>2022-04-15T09:25:12Z</time>
      </trkpt>
      <trkpt lat="45.43626" lon="5.75359">
        <ele>393.2</ele>
        <time>2022-04-15T09:25:13Z</time>
      </trkpt>
      <trkpt lat="45.43626" lon="5.75359">
        <ele>393.2</ele>
        <time>2022-04-15T09:25:14Z</time>
      </trkpt>
      <trkpt lat="45.43626" lon="5.75359">
        <ele>393.2</ele>
        <time>2022-04-15T09:25:15Z</time>
      </trkpt>
      <trkpt lat="45.43626" lon="5.75359">
        <ele>393.2</ele>
        <time>2022-04-15T09:25:16Z</time>
      </trkpt>
      <trkpt lat="45.43626" lon="5.75359">
        <ele>393.2</ele>
        <time>2022-04-15T09:25:17Z</time>
      </trkpt>
      <trkpt lat="45.43626" lon="5.75359">
        <ele>393.2</ele>
        <time>2022-04-15T09:25:18Z</time>
      </trkpt>
      <trkpt lat="45.43626" lon="5.75359">
        <ele>393.2</ele>
        <time>2022-04-15T09:25:19Z</time>
      </trkpt>
      <trkpt lat="45.43626" lon="5.75359">
        <ele>393.2</ele>
        <time>2022-04-15T09:25:20Z</time>
      </trkpt>
      <trkpt lat="45.43626" lon="5.75359">
        <ele>393.2</ele>
        <time>2022-04-15T09:25:21Z</time>
      </trkpt>
      <trkpt lat="45.43626" lon="5.75359">
        <ele>393.2</ele>
        <time>2022-04-15T09:25:22Z</time>
      </trkpt>
      <trkpt lat="45.43626" lon="5.75359">
        <ele>393.2</ele>
        <time>2022-04-15T09:25:23Z</time>
      </trkpt>
      <trkpt lat="45.43626" lon="5.75359">
        <ele>393.2</ele>
        <time>2022-04-15T09:25:24Z</time>
      </trkpt>
      <trkpt lat="45.43626" lon="5.75359">
        <ele>393.2</ele>
        <time>2022-04-15T09:25:25Z</time>
      </trkpt>
      <trkpt lat="45.43626" lon="5.75359">
        <ele>393.2</ele>
        <time>2022-04-15T09:25:26Z</time>
      </trkpt>
      <trkpt lat="45.43626" lon="5.75359">
        <ele>393.2</ele>
        <time>2022-04-15T09:25:27Z</time>
      </trkpt>
      <trkpt lat="45.43626" lon="5.75359">
        <ele>393.2</ele>
        <time>2022-04-15T09:25:28Z</time>
      </trkpt>
      <trkpt lat="45.43626" lon="5.75359">
        <ele>393.2</ele>
        <time>2022-04-15T09:25:29Z</time>
      </trkpt>
      <trkpt lat="45.43626" lon="5.75359">
        <ele>393.2</ele>
        <time>2022-04-15T09:25:30Z</time>
      </trkpt>
      <trkpt lat="45.43626" lon="5.75359">
        <ele>393.2</ele>
        <time>2022-04-15T09:25:31Z</time>
      </trkpt>
      <trkpt lat="45.43626" lon="5.75359">
        <ele>393.2</ele>
        <time>2022-04-15T09:25:32Z</time>
      </trkpt>
      <trkpt lat="45.43626" lon="5.75359">
        <ele>393.2</ele>
        <time>2022-04-15T09:25:33Z</time>
      </trkpt>
      <trkpt lat="45.43626" lon="5.75359">
        <ele>393.2</ele>
        <time>2022-04-15T09:25:34Z</time>
      </trkpt>
      <trkpt lat="45.43626" lon="5.75359">
        <ele>393.2</ele>
        <time>2022-04-15T09:25:35Z</time>
      </trkpt>
      <trkpt lat="45.43626" lon="5.75359">
        <ele>393.2</ele>
        <time>2022-04-15T09:25:36Z</time>
      </trkpt>
      <trkpt lat="45.43626" lon="5.75359">
        <ele>393.2</ele>
        <time>2022-04-15T09:25:37Z</time>
      </trkpt>
      <trkpt lat="45.43626" lon="5.75359">
        <ele>393.2</ele>
        <time>2022-04-15T09:25:38Z</time>
      </trkpt>
      <trkpt lat="45.43626" lon="5.75359">
        <ele>393.2</ele>
        <time>2022-04-15T09:25:39Z</time>
      </trkpt>
      <trkpt lat="45.43626" lon="5.75359">
        <ele>393.2</ele>
        <time>2022-04-15T09:25:40Z</time>
      </trkpt>
      <trkpt lat="45.43626" lon="5.75359">
        <ele>393.2</ele>
        <time>2022-04-15T09:25:41Z</time>
      </trkpt>
      <trkpt lat="45.43626" lon="5.75359">
        <ele>393.2</ele>
        <time>2022-04-15T09:25:42Z</time>
      </trkpt>
      <trkpt lat="45.43626" lon="5.75359">
        <ele>393.2</ele>
        <time>2022-04-15T09:25:43Z</time>
      </trkpt>
      <trkpt lat="45.43626" lon="5.75359">
        <ele>393.2</ele>
        <time>2022-04-15T09:25:44Z</time>
      </trkpt>
      <trkpt lat="45.43626" lon="5.75359">
        <ele>393.2</ele>
        <time>2022-04-15T09:25:45Z</time>
      </trkpt>
      <trkpt lat="45.43626" lon="5.75359">
        <ele>393.2</ele>
        <time>2022-04-15T09:25:46Z</time>
      </trkpt>
      <trkpt lat="45.43626" lon="5.75359">
        <ele>393.2</ele>
        <time>2022-04-15T09:25:47Z</time>
      </trkpt>
      <trkpt lat="45.43626" lon="5.75359">
        <ele>393.2</ele>
        <time>2022-04-15T09:25:48Z</time>
      </trkpt>
      <trkpt lat="45.43626" lon="5.75359">
        <ele>393.2</ele>
        <time>2022-04-15T09:25:49Z</time>
      </trkpt>
      <trkpt lat="45.43626" lon="5.75359">
        <ele>393.2</ele>
        <time>2022-04-15T09:25:50Z</time>
      </trkpt>
      <trkpt lat="45.43626" lon="5.75359">
        <ele>393.2</ele>
        <time>2022-04-15T09:25:51Z</time>
      </trkpt>
      <trkpt lat="45.43626" lon="5.75359">
        <ele>393.2</ele>
        <time>2022-04-15T09:25:52Z</time>
      </trkpt>
      <trkpt lat="45.43626" lon="5.75359">
        <ele>393.2</ele>
        <time>2022-04-15T09:25:53Z</time>
      </trkpt>
      <trkpt lat="45.43626" lon="5.75359">
        <ele>393.2</ele>
        <time>2022-04-15T09:25:54Z</time>
      </trkpt>
      <trkpt lat="45.43626" lon="5.75359">
        <ele>393.2</ele>
        <time>2022-04-15T09:25:55Z</time>
      </trkpt>
      <trkpt lat="45.43626" lon="5.75359">
        <ele>393.2</ele>
        <time>2022-04-15T09:25:56Z</time>
      </trkpt>
      <trkpt lat="45.43626" lon="5.75359">
        <ele>393.2</ele>
        <time>2022-04-15T09:25:57Z</time>
      </trkpt>
      <trkpt lat="45.43626" lon="5.75359">
        <ele>393.2</ele>
        <time>2022-04-15T09:25:58Z</time>
      </trkpt>
      <trkpt lat="45.43626" lon="5.75359">
        <ele>393.2</ele>
        <time>2022-04-15T09:25:59Z</time>
      </trkpt>
      <trkpt lat="45.43626" lon="5.75359">
        <ele>393.2</ele>
        <time>2022-04-15T09:26:00Z</time>
      </trkpt>
      <trkpt lat="45.43626" lon="5.75359">
        <ele>393.2</ele>
        <time>2022-04-15T09:26:01Z</time>
      </trkpt>
      <trkpt lat="45.43626" lon="5.75359">
        <ele>393.2</ele>
        <time>2022-04-15T09:26:02Z</time>
      </trkpt>
      <trkpt lat="45.43626" lon="5.75359">
        <ele>393.2</ele>
        <time>2022-04-15T09:26:03Z</time>
      </trkpt>
      <trkpt lat="45.43626" lon="5.75359">
        <ele>393.2</ele>
        <time>2022-04-15T09:26:04Z</time>
      </trkpt>
      <trkpt lat="45.43626" lon="5.75359">
        <ele>393.2</ele>
        <time>2022-04-15T09:26:05Z</time>
      </trkpt>
      <trkpt lat="45.43626" lon="5.75359">
        <ele>393.2</ele>
        <time>2022-04-15T09:26:06Z</time>
      </trkpt>
      <trkpt lat="45.43626" lon="5.75359">
        <ele>393.2</ele>
        <time>2022-04-15T09:26:07Z</time>
      </trkpt>
      <trkpt lat="45.43626" lon="5.75359">
        <ele>393.2</ele>
        <time>2022-04-15T09:26:08Z</time>
      </trkpt>
      <trkpt lat="45.43626" lon="5.75359">
        <ele>393.2</ele>
        <time>2022-04-15T09:26:09Z</time>
      </trkpt>
      <trkpt lat="45.43626" lon="5.75359">
        <ele>393.2</ele>
        <time>2022-04-15T09:26:10Z</time>
      </trkpt>
      <trkpt lat="45.43626" lon="5.75359">
        <ele>393.2</ele>
        <time>2022-04-15T09:26:11Z</time>
      </trkpt>
      <trkpt lat="45.43626" lon="5.75359">
        <ele>393.2</ele>
        <time>2022-04-15T09:26:12Z</time>
      </trkpt>
      <trkpt lat="45.43626" lon="5.75359">
        <ele>393.2</ele>
        <time>2022-04-15T09:26:13Z</time>
      </trkpt>
      <trkpt lat="45.43626" lon="5.75359">
        <ele>393.2</ele>
        <time>2022-04-15T09:26:14Z</time>
      </trkpt>
      <trkpt lat="45.43626" lon="5.75359">
        <ele>393.2</ele>
        <time>2022-04-15T09:26:15Z</time>
      </trkpt>
      <trkpt lat="45.43626" lon="5.75359">
        <ele>393.2</ele>
        <time>2022-04-15T09:26:16Z</time>
      </trkpt>
      <trkpt lat="45.43626" lon="5.75359">
        <ele>393.2</ele>
        <time>2022-04-15T09:26:17Z</time>
      </trkpt>
      <trkpt lat="45.43626" lon="5.75359">
        <ele>393.2</ele>
        <time>2022-04-15T09:26:18Z</time>
      </trkpt>
      <trkpt lat="45.43626" lon="5.75359">
        <ele>393.2</ele>
        <time>2022-04-15T09:26:19Z</time>
      </trkpt>
      <trkpt lat="45.43626" lon="5.75359">
        <ele>393.2</ele>
        <time>2022-04-15T09:26:20Z</time>
      </trkpt>
      <trkpt lat="45.43626" lon="5.75359">
        <ele>393.2</ele>
        <time>2022-04-15T09:26:21Z</time>
      </trkpt>
      <trkpt lat="45.43626" lon="5.75359">
        <ele>393.2</ele>
        <time>2022-04-15T09:26:22Z</time>
      </trkpt>
      <trkpt lat="45.43626" lon="5.75359">
        <ele>393.2</ele>
        <time>2022-04-15T09:26:23Z</time>
      </trkpt>
      <trkpt lat="45.43626" lon="5.75359">
        <ele>393.2</ele>
        <time>2022-04-15T09:26:24Z</time>
      </trkpt>
      <trkpt lat="45.43626" lon="5.75359">
        <ele>393.2</ele>
        <time>2022-04-15T09:26:25Z</time>
      </trkpt>
      <trkpt lat="45.43626" lon="5.75359">
        <ele>393.2</ele>
        <time>2022-04-15T09:26:26Z</time>
      </trkpt>
      <trkpt lat="45.43626" lon="5.75359">
        <ele>393.2</ele>
        <time>2022-04-15T09:26:27Z</time>
      </trkpt>
      <trkpt lat="45.43626" lon="5.75359">
        <ele>393.2</ele>
        <time>2022-04-15T09:26:28Z</time>
      </trkpt>
      <trkpt lat="45.43626" lon="5.75359">
        <ele>393.2</ele>
        <time>2022-04-15T09:26:29Z</time>
      </trkpt>
      <trkpt lat="45.43626" lon="5.75359">
        <ele>393.2</ele>
        <time>2022-04-15T09:26:30Z</time>
      </trkpt>
      <trkpt lat="45.43626" lon="5.75359">
        <ele>393.2</ele>
        <time>2022-04-15T09:26:31Z</time>
      </trkpt>
      <trkpt lat="45.43626" lon="5.75359">
        <ele>393.2</ele>
        <time>2022-04-15T09:26:32Z</time>
      </trkpt>
      <trkpt lat="45.43626" lon="5.75359">
        <ele>393.2</ele>
        <time>2022-04-15T09:26:33Z</time>
      </trkpt>
      <trkpt lat="45.43626" lon="5.75359">
        <ele>393.2</ele>
        <time>2022-04-15T09:26:34Z</time>
      </trkpt>
      <trkpt lat="45.43626" lon="5.75359">
        <ele>393.2</ele>
        <time>2022-04-15T09:26:35Z</time>
      </trkpt>
      <trkpt lat="45.43626" lon="5.75359">
        <ele>393.2</ele>
        <time>2022-04-15T09:26:36Z</time>
      </trkpt>
      <trkpt lat="45.43626" lon="5.75359">
        <ele>393.2</ele>
        <time>2022-04-15T09:26:37Z</time>
      </trkpt>
      <trkpt lat="45.43626" lon="5.75359">
        <ele>393.2</ele>
        <time>2022-04-15T09:26:38Z</time>
      </trkpt>
      <trkpt lat="45.43626" lon="5.75359">
        <ele>393.2</ele>
        <time>2022-04-15T09:26:39Z</time>
      </trkpt>
      <trkpt lat="45.43626" lon="5.75359">
        <ele>393.2</ele>
        <time>2022-04-15T09:26:40Z</time>
      </trkpt>
      <trkpt lat="45.43626" lon="5.75359">
        <ele>393.2</ele>
        <time>2022-04-15T09:26:41Z</time>
      </trkpt>
      <trkpt lat="45.43626" lon="5.75359">
        <ele>393.2</ele>
        <time>2022-04-15T09:26:42Z</time>
      </trkpt>
      <trkpt lat="45.43626" lon="5.75359">
        <ele>393.2</ele>
        <time>2022-04-15T09:26:43Z</time>
      </trkpt>
      <trkpt lat="45.43626" lon="5.75359">
        <ele>393.2</ele>
        <time>2022-04-15T09:26:44Z</time>
      </trkpt>
      <trkpt lat="45.43626" lon="5.75359">
        <ele>393.2</ele>
        <time>2022-04-15T09:26:45Z</time>
      </trkpt>
      <trkpt lat="45.43626" lon="5.75359">
        <ele>393.2</ele>
        <time>2022-04-15T09:26:46Z</time>
      </trkpt>
      <trkpt lat="45.43626" lon="5.75359">
        <ele>393.2</ele>
        <time>2022-04-15T09:26:47Z</time>
      </trkpt>
      <trkpt lat="45.43626" lon="5.75359">
        <ele>393.2</ele>
        <time>2022-04-15T09:26:48Z</time>
      </trkpt>
      <trkpt lat="45.43626" lon="5.75359">
        <ele>393.2</ele>
        <time>2022-04-15T09:26:49Z</time>
      </trkpt>
      <trkpt lat="45.43626" lon="5.75359">
        <ele>393.2</ele>
        <time>2022-04-15T09:26:50Z</time>
      </trkpt>
      <trkpt lat="45.43626" lon="5.75359">
        <ele>393.2</ele>
        <time>2022-04-15T09:26:51Z</time>
      </trkpt>
      <trkpt lat="45.43626" lon="5.75359">
        <ele>393.2</ele>
        <time>2022-04-15T09:26:52Z</time>
      </trkpt>
      <trkpt lat="45.43626" lon="5.75359">
        <ele>393.2</ele>
        <time>2022-04-15T09:26:53Z</time>
      </trkpt>
      <trkpt lat="45.43626" lon="5.75359">
        <ele>393.2</ele>
        <time>2022-04-15T09:26:54Z</time>
      </trkpt>
      <trkpt lat="45.43626" lon="5.75359">
        <ele>393.2</ele>
        <time>2022-04-15T09:26:55Z</time>
      </trkpt>
      <trkpt lat="45.43626" lon="5.75359">
        <ele>393.2</ele>
        <time>2022-04-15T09:26:56Z</time>
      </trkpt>
      <trkpt lat="45.43626" lon="5.75359">
        <ele>393.2</ele>
        <time>2022-04-15T09:26:57Z</time>
      </trkpt>
      <trkpt lat="45.43626" lon="5.75359">
        <ele>393.2</ele>
        <time>2022-04-15T09:26:58Z</time>
      </trkpt>
      <trkpt lat="45.43627" lon="5.75359">
        <ele>393.2</ele>
        <time>2022-04-15T09:26:59Z</time>
      </trkpt>
      <trkpt lat="45.43628" lon="5.75359">
        <ele>393.2</ele>
        <time>2022-04-15T09:27:00Z</time>
      </trkpt>
      <trkpt lat="45.43628" lon="5.75359">
        <ele>393.2</ele>
        <time>2022-04-15T09:27:01Z</time>
      </trkpt>
      <trkpt lat="45.43629" lon="5.75359">
        <ele>393.2</ele>
        <time>2022-04-15T09:27:02Z</time>
      </trkpt>
      <trkpt lat="45.4363" lon="5.75359">
        <ele>393.1</ele>
        <time>2022-04-15T09:27:03Z</time>
      </trkpt>
      <trkpt lat="45.43632" lon="5.75359">
        <ele>393.1</ele>
        <time>2022-04-15T09:27:04Z</time>
      </trkpt>
      <trkpt lat="45.43634" lon="5.75358">
        <ele>393</ele>
        <time>2022-04-15T09:27:05Z</time>
      </trkpt>
      <trkpt lat="45.43635" lon="5.75358">
        <ele>393</ele>
        <time>2022-04-15T09:27:06Z</time>
      </trkpt>
      <trkpt lat="45.43638" lon="5.75358">
        <ele>393</ele>
        <time>2022-04-15T09:27:08Z</time>
      </trkpt>
      <trkpt lat="45.43639" lon="5.75358">
        <ele>392.9</ele>
        <time>2022-04-15T09:27:09Z</time>
      </trkpt>
      <trkpt lat="45.43639" lon="5.75357">
        <ele>392.9</ele>
        <time>2022-04-15T09:27:10Z</time>
      </trkpt>
      <trkpt lat="45.4364" lon="5.75355">
        <ele>392.9</ele>
        <time>2022-04-15T09:27:11Z</time>
      </trkpt>
      <trkpt lat="45.4364" lon="5.75355">
        <ele>392.9</ele>
        <time>2022-04-15T09:27:12Z</time>
      </trkpt>
      <trkpt lat="45.43641" lon="5.75354">
        <ele>392.9</ele>
        <time>2022-04-15T09:27:14Z</time>
      </trkpt>
      <trkpt lat="45.43641" lon="5.75354">
        <ele>392.9</ele>
        <time>2022-04-15T09:27:15Z</time>
      </trkpt>
      <trkpt lat="45.43642" lon="5.75353">
        <ele>392.9</ele>
        <time>2022-04-15T09:27:16Z</time>
      </trkpt>
      <trkpt lat="45.43643" lon="5.75352">
        <ele>392.8</ele>
        <time>2022-04-15T09:27:17Z</time>
      </trkpt>
      <trkpt lat="45.43644" lon="5.75351">
        <ele>392.8</ele>
        <time>2022-04-15T09:27:18Z</time>
      </trkpt>
      <trkpt lat="45.43646" lon="5.7535">
        <ele>392.8</ele>
        <time>2022-04-15T09:27:19Z</time>
      </trkpt>
      <trkpt lat="45.43648" lon="5.75348">
        <ele>392.7</ele>
        <time>2022-04-15T09:27:20Z</time>
      </trkpt>
      <trkpt lat="45.43649" lon="5.75347">
        <ele>392.7</ele>
        <time>2022-04-15T09:27:21Z</time>
      </trkpt>
      <trkpt lat="45.43655" lon="5.75343">
        <ele>392.6</ele>
        <time>2022-04-15T09:27:23Z</time>
      </trkpt>
      <trkpt lat="45.43659" lon="5.75343">
        <ele>392.6</ele>
        <time>2022-04-15T09:27:24Z</time>
      </trkpt>
      <trkpt lat="45.43665" lon="5.75343">
        <ele>392.5</ele>
        <time>2022-04-15T09:27:26Z</time>
      </trkpt>
      <trkpt lat="45.4367" lon="5.75343">
        <ele>392.4</ele>
        <time>2022-04-15T09:27:27Z</time>
      </trkpt>
      <trkpt lat="45.43678" lon="5.75345">
        <ele>392.3</ele>
        <time>2022-04-15T09:27:29Z</time>
      </trkpt>
      <trkpt lat="45.43683" lon="5.75345">
        <ele>392.3</ele>
        <time>2022-04-15T09:27:30Z</time>
      </trkpt>
      <trkpt lat="45.43691" lon="5.75342">
        <ele>392.2</ele>
        <time>2022-04-15T09:27:32Z</time>
      </trkpt>
      <trkpt lat="45.43696" lon="5.7534">
        <ele>392.2</ele>
        <time>2022-04-15T09:27:33Z</time>
      </trkpt>
      <trkpt lat="45.43699" lon="5.75341">
        <ele>392.2</ele>
        <time>2022-04-15T09:27:34Z</time>
      </trkpt>
      <trkpt lat="45.43699" lon="5.75342">
        <ele>392.2</ele>
        <time>2022-04-15T09:27:35Z</time>
      </trkpt>
      <trkpt lat="45.43701" lon="5.75342">
        <ele>392.2</ele>
        <time>2022-04-15T09:27:36Z</time>
      </trkpt>
      <trkpt lat="45.43701" lon="5.75343">
        <ele>392.2</ele>
        <time>2022-04-15T09:27:38Z</time>
      </trkpt>
      <trkpt lat="45.43701" lon="5.75344">
        <ele>392.2</ele>
        <time>2022-04-15T09:27:39Z</time>
      </trkpt>
      <trkpt lat="45.43701" lon="5.75344">
        <ele>392.2</ele>
        <time>2022-04-15T09:27:40Z</time>
      </trkpt>
      <trkpt lat="45.43701" lon="5.75344">
        <ele>392.2</ele>
        <time>2022-04-15T09:27:41Z</time>
      </trkpt>
      <trkpt lat="45.43701" lon="5.75345">
        <ele>392.2</ele>
        <time>2022-04-15T09:27:43Z</time>
      </trkpt>
      <trkpt lat="45.43701" lon="5.75345">
        <ele>392.2</ele>
        <time>2022-04-15T09:27:44Z</time>
      </trkpt>
      <trkpt lat="45.43701" lon="5.75345">
        <ele>392.2</ele>
        <time>2022-04-15T09:27:45Z</time>
      </trkpt>
      <trkpt lat="45.43701" lon="5.75345">
        <ele>392.2</ele>
        <time>2022-04-15T09:27:46Z</time>
      </trkpt>
      <trkpt lat="45.43701" lon="5.75345">
        <ele>392.2</ele>
        <time>2022-04-15T09:27:47Z</time>
      </trkpt>
      <trkpt lat="45.43701" lon="5.75345">
        <ele>392.2</ele>
        <time>2022-04-15T09:27:48Z</time>
      </trkpt>
      <trkpt lat="45.43701" lon="5.75345">
        <ele>392.2</ele>
        <time>2022-04-15T09:27:49Z</time>
      </trkpt>
      <trkpt lat="45.43701" lon="5.75345">
        <ele>392.2</ele>
        <time>2022-04-15T09:27:50Z</time>
      </trkpt>
      <trkpt lat="45.43701" lon="5.75345">
        <ele>392.2</ele>
        <time>2022-04-15T09:27:51Z</time>
      </trkpt>
      <trkpt lat="45.43701" lon="5.75345">
        <ele>392.2</ele>
        <time>2022-04-15T09:27:52Z</time>
      </trkpt>
      <trkpt lat="45.43701" lon="5.75345">
        <ele>392.2</ele>
        <time>2022-04-15T09:27:53Z</time>
      </trkpt>
      <trkpt lat="45.43701" lon="5.75345">
        <ele>392.2</ele>
        <time>2022-04-15T09:27:54Z</time>
      </trkpt>
      <trkpt lat="45.43701" lon="5.75345">
        <ele>392.2</ele>
        <time>2022-04-15T09:27:55Z</time>
      </trkpt>
      <trkpt lat="45.43701" lon="5.75345">
        <ele>392.2</ele>
        <time>2022-04-15T09:27:56Z</time>
      </trkpt>
      <trkpt lat="45.43701" lon="5.75346">
        <ele>392.2</ele>
        <time>2022-04-15T09:27:57Z</time>
      </trkpt>
      <trkpt lat="45.43701" lon="5.75345">
        <ele>392.2</ele>
        <time>2022-04-15T09:27:58Z</time>
      </trkpt>
      <trkpt lat="45.437" lon="5.75346">
        <ele>392.2</ele>
        <time>2022-04-15T09:27:59Z</time>
      </trkpt>
      <trkpt lat="45.437" lon="5.75346">
        <ele>392.2</ele>
        <time>2022-04-15T09:28:00Z</time>
      </trkpt>
      <trkpt lat="45.437" lon="5.75347">
        <ele>392.2</ele>
        <time>2022-04-15T09:28:01Z</time>
      </trkpt>
      <trkpt lat="45.437" lon="5.75348">
        <ele>392.2</ele>
        <time>2022-04-15T09:28:02Z</time>
      </trkpt>
      <trkpt lat="45.437" lon="5.75348">
        <ele>392.2</ele>
        <time>2022-04-15T09:28:03Z</time>
      </trkpt>
      <trkpt lat="45.437" lon="5.75348">
        <ele>392.2</ele>
        <time>2022-04-15T09:28:04Z</time>
      </trkpt>
      <trkpt lat="45.437" lon="5.75348">
        <ele>392.2</ele>
        <time>2022-04-15T09:28:05Z</time>
      </trkpt>
      <trkpt lat="45.437" lon="5.75348">
        <ele>392.2</ele>
        <time>2022-04-15T09:28:06Z</time>
      </trkpt>
      <trkpt lat="45.437" lon="5.75348">
        <ele>392.2</ele>
        <time>2022-04-15T09:28:07Z</time>
      </trkpt>
      <trkpt lat="45.437" lon="5.75348">
        <ele>392.2</ele>
        <time>2022-04-15T09:28:08Z</time>
      </trkpt>
      <trkpt lat="45.437" lon="5.75348">
        <ele>392.2</ele>
        <time>2022-04-15T09:28:09Z</time>
      </trkpt>
      <trkpt lat="45.437" lon="5.75348">
        <ele>392.2</ele>
        <time>2022-04-15T09:28:10Z</time>
      </trkpt>
      <trkpt lat="45.437" lon="5.75348">
        <ele>392.2</ele>
        <time>2022-04-15T09:28:11Z</time>
      </trkpt>
      <trkpt lat="45.437" lon="5.75348">
        <ele>392.2</ele>
        <time>2022-04-15T09:28:12Z</time>
      </trkpt>
      <trkpt lat="45.437" lon="5.75348">
        <ele>392.2</ele>
        <time>2022-04-15T09:28:13Z</time>
      </trkpt>
      <trkpt lat="45.437" lon="5.75348">
        <ele>392.2</ele>
        <time>2022-04-15T09:28:14Z</time>
      </trkpt>
      <trkpt lat="45.437" lon="5.75348">
        <ele>392.2</ele>
        <time>2022-04-15T09:28:15Z</time>
      </trkpt>
      <trkpt lat="45.437" lon="5.75348">
        <ele>392.2</ele>
        <time>2022-04-15T09:28:16Z</time>
      </trkpt>
      <trkpt lat="45.43699" lon="5.75348">
        <ele>392.2</ele>
        <time>2022-04-15T09:28:17Z</time>
      </trkpt>
      <trkpt lat="45.43699" lon="5.75348">
        <ele>392.2</ele>
        <time>2022-04-15T09:28:18Z</time>
      </trkpt>
      <trkpt lat="45.43699" lon="5.75348">
        <ele>392.2</ele>
        <time>2022-04-15T09:28:19Z</time>
      </trkpt>
      <trkpt lat="45.43699" lon="5.75348">
        <ele>392.2</ele>
        <time>2022-04-15T09:28:20Z</time>
      </trkpt>
      <trkpt lat="45.43699" lon="5.75348">
        <ele>392.2</ele>
        <time>2022-04-15T09:28:21Z</time>
      </trkpt>
      <trkpt lat="45.43699" lon="5.75348">
        <ele>392.2</ele>
        <time>2022-04-15T09:28:22Z</time>
      </trkpt>
      <trkpt lat="45.43699" lon="5.75348">
        <ele>392.2</ele>
        <time>2022-04-15T09:28:23Z</time>
      </trkpt>
      <trkpt lat="45.43699" lon="5.75348">
        <ele>392.2</ele>
        <time>2022-04-15T09:28:24Z</time>
      </trkpt>
      <trkpt lat="45.43699" lon="5.75348">
        <ele>392.2</ele>
        <time>2022-04-15T09:28:25Z</time>
      </trkpt>
      <trkpt lat="45.43699" lon="5.75348">
        <ele>392.2</ele>
        <time>2022-04-15T09:28:26Z</time>
      </trkpt>
      <trkpt lat="45.43699" lon="5.75348">
        <ele>392.2</ele>
        <time>2022-04-15T09:28:27Z</time>
      </trkpt>
      <trkpt lat="45.43699" lon="5.75348">
        <ele>392.2</ele>
        <time>2022-04-15T09:28:28Z</time>
      </trkpt>
      <trkpt lat="45.43699" lon="5.75348">
        <ele>392.2</ele>
        <time>2022-04-15T09:28:29Z</time>
      </trkpt>
      <trkpt lat="45.43699" lon="5.75348">
        <ele>392.2</ele>
        <time>2022-04-15T09:28:30Z</time>
      </trkpt>
      <trkpt lat="45.43699" lon="5.75348">
        <ele>392.2</ele>
        <time>2022-04-15T09:28:31Z</time>
      </trkpt>
      <trkpt lat="45.43699" lon="5.75348">
        <ele>392.2</ele>
        <time>2022-04-15T09:28:32Z</time>
      </trkpt>
      <trkpt lat="45.43699" lon="5.75348">
        <ele>392.2</ele>
        <time>2022-04-15T09:28:33Z</time>
      </trkpt>
      <trkpt lat="45.43699" lon="5.75348">
        <ele>392.2</ele>
        <time>2022-04-15T09:28:34Z</time>
      </trkpt>
      <trkpt lat="45.43699" lon="5.75348">
        <ele>392.2</ele>
        <time>2022-04-15T09:28:35Z</time>
      </trkpt>
      <trkpt lat="45.43699" lon="5.75348">
        <ele>392.2</ele>
        <time>2022-04-15T09:28:36Z</time>
      </trkpt>
      <trkpt lat="45.43699" lon="5.75348">
        <ele>392.2</ele>
        <time>2022-04-15T09:28:37Z</time>
      </trkpt>
      <trkpt lat="45.43699" lon="5.75348">
        <ele>392.2</ele>
        <time>2022-04-15T09:28:38Z</time>
      </trkpt>
      <trkpt lat="45.43699" lon="5.75348">
        <ele>392.2</ele>
        <time>2022-04-15T09:28:39Z</time>
      </trkpt>
      <trkpt lat="45.43699" lon="5.75348">
        <ele>392.2</ele>
        <time>2022-04-15T09:28:40Z</time>
      </trkpt>
      <trkpt lat="45.43699" lon="5.75348">
        <ele>392.2</ele>
        <time>2022-04-15T09:28:41Z</time>
      </trkpt>
      <trkpt lat="45.43699" lon="5.75348">
        <ele>392.2</ele>
        <time>2022-04-15T09:28:42Z</time>
      </trkpt>
      <trkpt lat="45.43699" lon="5.75348">
        <ele>392.2</ele>
        <time>2022-04-15T09:28:43Z</time>
      </trkpt>
      <trkpt lat="45.43699" lon="5.75348">
        <ele>392.2</ele>
        <time>2022-04-15T09:28:44Z</time>
      </trkpt>
      <trkpt lat="45.43699" lon="5.75348">
        <ele>392.2</ele>
        <time>2022-04-15T09:28:45Z</time>
      </trkpt>
      <trkpt lat="45.43699" lon="5.75348">
        <ele>392.2</ele>
        <time>2022-04-15T09:28:46Z</time>
      </trkpt>
      <trkpt lat="45.43699" lon="5.75348">
        <ele>392.2</ele>
        <time>2022-04-15T09:28:47Z</time>
      </trkpt>
      <trkpt lat="45.43699" lon="5.75348">
        <ele>392.2</ele>
        <time>2022-04-15T09:28:48Z</time>
      </trkpt>
      <trkpt lat="45.43699" lon="5.75348">
        <ele>392.2</ele>
        <time>2022-04-15T09:28:49Z</time>
      </trkpt>
      <trkpt lat="45.43699" lon="5.75348">
        <ele>392.2</ele>
        <time>2022-04-15T09:28:50Z</time>
      </trkpt>
      <trkpt lat="45.43699" lon="5.75348">
        <ele>392.2</ele>
        <time>2022-04-15T09:28:51Z</time>
      </trkpt>
      <trkpt lat="45.43699" lon="5.75348">
        <ele>392.2</ele>
        <time>2022-04-15T09:28:52Z</time>
      </trkpt>
      <trkpt lat="45.43699" lon="5.75348">
        <ele>392.2</ele>
        <time>2022-04-15T09:28:53Z</time>
      </trkpt>
      <trkpt lat="45.43699" lon="5.75348">
        <ele>392.2</ele>
        <time>2022-04-15T09:28:54Z</time>
      </trkpt>
      <trkpt lat="45.43699" lon="5.75348">
        <ele>392.2</ele>
        <time>2022-04-15T09:28:55Z</time>
      </trkpt>
      <trkpt lat="45.43699" lon="5.75348">
        <ele>392.2</ele>
        <time>2022-04-15T09:28:56Z</time>
      </trkpt>
      <trkpt lat="45.43699" lon="5.75348">
        <ele>392.2</ele>
        <time>2022-04-15T09:28:57Z</time>
      </trkpt>
      <trkpt lat="45.43699" lon="5.75348">
        <ele>392.2</ele>
        <time>2022-04-15T09:28:58Z</time>
      </trkpt>
      <trkpt lat="45.43699" lon="5.75348">
        <ele>392.2</ele>
        <time>2022-04-15T09:28:59Z</time>
      </trkpt>
      <trkpt lat="45.43699" lon="5.75348">
        <ele>392.2</ele>
        <time>2022-04-15T09:29:00Z</time>
      </trkpt>
      <trkpt lat="45.43699" lon="5.75348">
        <ele>392.2</ele>
        <time>2022-04-15T09:29:01Z</time>
      </trkpt>
      <trkpt lat="45.43699" lon="5.75348">
        <ele>392.2</ele>
        <time>2022-04-15T09:29:02Z</time>
      </trkpt>
      <trkpt lat="45.43699" lon="5.75348">
        <ele>392.2</ele>
        <time>2022-04-15T09:29:03Z</time>
      </trkpt>
      <trkpt lat="45.43699" lon="5.75348">
        <ele>392.2</ele>
        <time>2022-04-15T09:29:04Z</time>
      </trkpt>
      <trkpt lat="45.43699" lon="5.75348">
        <ele>392.2</ele>
        <time>2022-04-15T09:29:05Z</time>
      </trkpt>
      <trkpt lat="45.43699" lon="5.75348">
        <ele>392.2</ele>
        <time>2022-04-15T09:29:06Z</time>
      </trkpt>
      <trkpt lat="45.43699" lon="5.75348">
        <ele>392.2</ele>
        <time>2022-04-15T09:29:07Z</time>
      </trkpt>
      <trkpt lat="45.43699" lon="5.75348">
        <ele>392.2</ele>
        <time>2022-04-15T09:29:08Z</time>
      </trkpt>
      <trkpt lat="45.43699" lon="5.75348">
        <ele>392.2</ele>
        <time>2022-04-15T09:29:09Z</time>
      </trkpt>
      <trkpt lat="45.43699" lon="5.75348">
        <ele>392.2</ele>
        <time>2022-04-15T09:29:10Z</time>
      </trkpt>
      <trkpt lat="45.43699" lon="5.75348">
        <ele>392.2</ele>
        <time>2022-04-15T09:29:11Z</time>
      </trkpt>
      <trkpt lat="45.43699" lon="5.75348">
        <ele>392.2</ele>
        <time>2022-04-15T09:29:12Z</time>
      </trkpt>
      <trkpt lat="45.43699" lon="5.75348">
        <ele>392.2</ele>
        <time>2022-04-15T09:29:13Z</time>
      </trkpt>
      <trkpt lat="45.43699" lon="5.75348">
        <ele>392.2</ele>
        <time>2022-04-15T09:29:14Z</time>
      </trkpt>
      <trkpt lat="45.43699" lon="5.75348">
        <ele>392.2</ele>
        <time>2022-04-15T09:29:15Z</time>
      </trkpt>
      <trkpt lat="45.43699" lon="5.75348">
        <ele>392.2</ele>
        <time>2022-04-15T09:29:16Z</time>
      </trkpt>
      <trkpt lat="45.43699" lon="5.75348">
        <ele>392.2</ele>
        <time>2022-04-15T09:29:17Z</time>
      </trkpt>
      <trkpt lat="45.43699" lon="5.75348">
        <ele>392.2</ele>
        <time>2022-04-15T09:29:18Z</time>
      </trkpt>
      <trkpt lat="45.43699" lon="5.75348">
        <ele>392.2</ele>
        <time>2022-04-15T09:29:19Z</time>
      </trkpt>
      <trkpt lat="45.43699" lon="5.75348">
        <ele>392.2</ele>
        <time>2022-04-15T09:29:20Z</time>
      </trkpt>
      <trkpt lat="45.43699" lon="5.75348">
        <ele>392.2</ele>
        <time>2022-04-15T09:29:21Z</time>
      </trkpt>
      <trkpt lat="45.43699" lon="5.75348">
        <ele>392.2</ele>
        <time>2022-04-15T09:29:22Z</time>
      </trkpt>
      <trkpt lat="45.43699" lon="5.75348">
        <ele>392.2</ele>
        <time>2022-04-15T09:29:23Z</time>
      </trkpt>
      <trkpt lat="45.43699" lon="5.75348">
        <ele>392.2</ele>
        <time>2022-04-15T09:29:24Z</time>
      </trkpt>
      <trkpt lat="45.43699" lon="5.75348">
        <ele>392.2</ele>
        <time>2022-04-15T09:29:25Z</time>
      </trkpt>
      <trkpt lat="45.43699" lon="5.75348">
        <ele>392.2</ele>
        <time>2022-04-15T09:29:26Z</time>
      </trkpt>
      <trkpt lat="45.43699" lon="5.75348">
        <ele>392.2</ele>
        <time>2022-04-15T09:29:27Z</time>
      </trkpt>
      <trkpt lat="45.43699" lon="5.75348">
        <ele>392.2</ele>
        <time>2022-04-15T09:29:28Z</time>
      </trkpt>
      <trkpt lat="45.43699" lon="5.75348">
        <ele>392.2</ele>
        <time>2022-04-15T09:29:29Z</time>
      </trkpt>
      <trkpt lat="45.43699" lon="5.75348">
        <ele>392.2</ele>
        <time>2022-04-15T09:29:30Z</time>
      </trkpt>
      <trkpt lat="45.43699" lon="5.75348">
        <ele>392.2</ele>
        <time>2022-04-15T09:29:31Z</time>
      </trkpt>
      <trkpt lat="45.43699" lon="5.75348">
        <ele>392.2</ele>
        <time>2022-04-15T09:29:32Z</time>
      </trkpt>
      <trkpt lat="45.43699" lon="5.75348">
        <ele>392.2</ele>
        <time>2022-04-15T09:29:33Z</time>
      </trkpt>
      <trkpt lat="45.43699" lon="5.75348">
        <ele>392.2</ele>
        <time>2022-04-15T09:29:34Z</time>
      </trkpt>
      <trkpt lat="45.43699" lon="5.75348">
        <ele>392.2</ele>
        <time>2022-04-15T09:29:35Z</time>
      </trkpt>
      <trkpt lat="45.43699" lon="5.75348">
        <ele>392.2</ele>
        <time>2022-04-15T09:29:36Z</time>
      </trkpt>
      <trkpt lat="45.43699" lon="5.75348">
        <ele>392.2</ele>
        <time>2022-04-15T09:29:37Z</time>
      </trkpt>
      <trkpt lat="45.43699" lon="5.75348">
        <ele>392.2</ele>
        <time>2022-04-15T09:29:38Z</time>
      </trkpt>
      <trkpt lat="45.43699" lon="5.75348">
        <ele>392.2</ele>
        <time>2022-04-15T09:29:39Z</time>
      </trkpt>
      <trkpt lat="45.43699" lon="5.75348">
        <ele>392.2</ele>
        <time>2022-04-15T09:29:40Z</time>
      </trkpt>
      <trkpt lat="45.43699" lon="5.75348">
        <ele>392.2</ele>
        <time>2022-04-15T09:29:41Z</time>
      </trkpt>
      <trkpt lat="45.43699" lon="5.75348">
        <ele>392.2</ele>
        <time>2022-04-15T09:29:42Z</time>
      </trkpt>
      <trkpt lat="45.43699" lon="5.75348">
        <ele>392.2</ele>
        <time>2022-04-15T09:29:43Z</time>
      </trkpt>
      <trkpt lat="45.43699" lon="5.75348">
        <ele>392.2</ele>
        <time>2022-04-15T09:29:44Z</time>
      </trkpt>
      <trkpt lat="45.43699" lon="5.75348">
        <ele>392.2</ele>
        <time>2022-04-15T09:29:45Z</time>
      </trkpt>
      <trkpt lat="45.43699" lon="5.75348">
        <ele>392.2</ele>
        <time>2022-04-15T09:29:46Z</time>
      </trkpt>
      <trkpt lat="45.43699" lon="5.75348">
        <ele>392.2</ele>
        <time>2022-04-15T09:29:47Z</time>
      </trkpt>
      <trkpt lat="45.43699" lon="5.75348">
        <ele>392.2</ele>
        <time>2022-04-15T09:29:48Z</time>
      </trkpt>
      <trkpt lat="45.43699" lon="5.75348">
        <ele>392.2</ele>
        <time>2022-04-15T09:29:49Z</time>
      </trkpt>
      <trkpt lat="45.43699" lon="5.75348">
        <ele>392.2</ele>
        <time>2022-04-15T09:29:50Z</time>
      </trkpt>
      <trkpt lat="45.43699" lon="5.75348">
        <ele>392.2</ele>
        <time>2022-04-15T09:29:51Z</time>
      </trkpt>
      <trkpt lat="45.43699" lon="5.75348">
        <ele>392.2</ele>
        <time>2022-04-15T09:29:52Z</time>
      </trkpt>
      <trkpt lat="45.43699" lon="5.75348">
        <ele>392.2</ele>
        <time>2022-04-15T09:29:53Z</time>
      </trkpt>
      <trkpt lat="45.43699" lon="5.75348">
        <ele>392.2</ele>
        <time>2022-04-15T09:29:54Z</time>
      </trkpt>
      <trkpt lat="45.43699" lon="5.75348">
        <ele>392.2</ele>
        <time>2022-04-15T09:29:55Z</time>
      </trkpt>
      <trkpt lat="45.43699" lon="5.75348">
        <ele>392.2</ele>
        <time>2022-04-15T09:29:56Z</time>
      </trkpt>
      <trkpt lat="45.43699" lon="5.75348">
        <ele>392.2</ele>
        <time>2022-04-15T09:29:57Z</time>
      </trkpt>
      <trkpt lat="45.43699" lon="5.75348">
        <ele>392.2</ele>
        <time>2022-04-15T09:29:58Z</time>
      </trkpt>
      <trkpt lat="45.43699" lon="5.75348">
        <ele>392.2</ele>
        <time>2022-04-15T09:29:59Z</time>
      </trkpt>
      <trkpt lat="45.43699" lon="5.75348">
        <ele>392.2</ele>
        <time>2022-04-15T09:30:00Z</time>
      </trkpt>
      <trkpt lat="45.43699" lon="5.75348">
        <ele>392.2</ele>
        <time>2022-04-15T09:30:01Z</time>
      </trkpt>
      <trkpt lat="45.43699" lon="5.75348">
        <ele>392.2</ele>
        <time>2022-04-15T09:30:02Z</time>
      </trkpt>
      <trkpt lat="45.43699" lon="5.75348">
        <ele>392.2</ele>
        <time>2022-04-15T09:30:03Z</time>
      </trkpt>
      <trkpt lat="45.43699" lon="5.75348">
        <ele>392.2</ele>
        <time>2022-04-15T09:30:04Z</time>
      </trkpt>
      <trkpt lat="45.43699" lon="5.75348">
        <ele>392.2</ele>
        <time>2022-04-15T09:30:05Z</time>
      </trkpt>
      <trkpt lat="45.43699" lon="5.75348">
        <ele>392.2</ele>
        <time>2022-04-15T09:30:06Z</time>
      </trkpt>
      <trkpt lat="45.43699" lon="5.75348">
        <ele>392.2</ele>
        <time>2022-04-15T09:30:07Z</time>
      </trkpt>
      <trkpt lat="45.43699" lon="5.75348">
        <ele>392.2</ele>
        <time>2022-04-15T09:30:08Z</time>
      </trkpt>
      <trkpt lat="45.43699" lon="5.75348">
        <ele>392.2</ele>
        <time>2022-04-15T09:30:09Z</time>
      </trkpt>
      <trkpt lat="45.43699" lon="5.75348">
        <ele>392.2</ele>
        <time>2022-04-15T09:30:10Z</time>
      </trkpt>
      <trkpt lat="45.43699" lon="5.75348">
        <ele>392.2</ele>
        <time>2022-04-15T09:30:11Z</time>
      </trkpt>
      <trkpt lat="45.43699" lon="5.75348">
        <ele>392.2</ele>
        <time>2022-04-15T09:30:12Z</time>
      </trkpt>
      <trkpt lat="45.43699" lon="5.75348">
        <ele>392.2</ele>
        <time>2022-04-15T09:30:13Z</time>
      </trkpt>
      <trkpt lat="45.43699" lon="5.75348">
        <ele>392.2</ele>
        <time>2022-04-15T09:30:14Z</time>
      </trkpt>
      <trkpt lat="45.43699" lon="5.75348">
        <ele>392.2</ele>
        <time>2022-04-15T09:30:15Z</time>
      </trkpt>
      <trkpt lat="45.43699" lon="5.75348">
        <ele>392.2</ele>
        <time>2022-04-15T09:30:16Z</time>
      </trkpt>
      <trkpt lat="45.43699" lon="5.75348">
        <ele>392.2</ele>
        <time>2022-04-15T09:30:17Z</time>
      </trkpt>
      <trkpt lat="45.43699" lon="5.75348">
        <ele>392.2</ele>
        <time>2022-04-15T09:30:18Z</time>
      </trkpt>
      <trkpt lat="45.43699" lon="5.75348">
        <ele>392.2</ele>
        <time>2022-04-15T09:30:19Z</time>
      </trkpt>
      <trkpt lat="45.43699" lon="5.75348">
        <ele>392.2</ele>
        <time>2022-04-15T09:30:20Z</time>
      </trkpt>
      <trkpt lat="45.43699" lon="5.75348">
        <ele>392.2</ele>
        <time>2022-04-15T09:30:21Z</time>
      </trkpt>
      <trkpt lat="45.43699" lon="5.75348">
        <ele>392.2</ele>
        <time>2022-04-15T09:30:22Z</time>
      </trkpt>
      <trkpt lat="45.43699" lon="5.75348">
        <ele>392.2</ele>
        <time>2022-04-15T09:30:23Z</time>
      </trkpt>
      <trkpt lat="45.43699" lon="5.75348">
        <ele>392.2</ele>
        <time>2022-04-15T09:30:24Z</time>
      </trkpt>
      <trkpt lat="45.43699" lon="5.75348">
        <ele>392.2</ele>
        <time>2022-04-15T09:30:25Z</time>
      </trkpt>
      <trkpt lat="45.43699" lon="5.75348">
        <ele>392.2</ele>
        <time>2022-04-15T09:30:26Z</time>
      </trkpt>
      <trkpt lat="45.43699" lon="5.75348">
        <ele>392.2</ele>
        <time>2022-04-15T09:30:27Z</time>
      </trkpt>
      <trkpt lat="45.43699" lon="5.75348">
        <ele>392.2</ele>
        <time>2022-04-15T09:30:28Z</time>
      </trkpt>
      <trkpt lat="45.43699" lon="5.75348">
        <ele>392.2</ele>
        <time>2022-04-15T09:30:29Z</time>
      </trkpt>
      <trkpt lat="45.43699" lon="5.75348">
        <ele>392.2</ele>
        <time>2022-04-15T09:30:30Z</time>
      </trkpt>
      <trkpt lat="45.43699" lon="5.75348">
        <ele>392.2</ele>
        <time>2022-04-15T09:30:31Z</time>
      </trkpt>
      <trkpt lat="45.43699" lon="5.75348">
        <ele>392.2</ele>
        <time>2022-04-15T09:30:32Z</time>
      </trkpt>
      <trkpt lat="45.43699" lon="5.75348">
        <ele>392.2</ele>
        <time>2022-04-15T09:30:33Z</time>
      </trkpt>
      <trkpt lat="45.43699" lon="5.75348">
        <ele>392.2</ele>
        <time>2022-04-15T09:30:34Z</time>
      </trkpt>
      <trkpt lat="45.43699" lon="5.75348">
        <ele>392.2</ele>
        <time>2022-04-15T09:30:35Z</time>
      </trkpt>
      <trkpt lat="45.43699" lon="5.75348">
        <ele>392.2</ele>
        <time>2022-04-15T09:30:36Z</time>
      </trkpt>
      <trkpt lat="45.43699" lon="5.75348">
        <ele>392.2</ele>
        <time>2022-04-15T09:30:37Z</time>
      </trkpt>
      <trkpt lat="45.43699" lon="5.75348">
        <ele>392.2</ele>
        <time>2022-04-15T09:30:38Z</time>
      </trkpt>
      <trkpt lat="45.43699" lon="5.75348">
        <ele>392.2</ele>
        <time>2022-04-15T09:30:39Z</time>
      </trkpt>
      <trkpt lat="45.43699" lon="5.75348">
        <ele>392.2</ele>
        <time>2022-04-15T09:30:40Z</time>
      </trkpt>
      <trkpt lat="45.43699" lon="5.75348">
        <ele>392.2</ele>
        <time>2022-04-15T09:30:41Z</time>
      </trkpt>
      <trkpt lat="45.43699" lon="5.75348">
        <ele>392.2</ele>
        <time>2022-04-15T09:30:42Z</time>
      </trkpt>
      <trkpt lat="45.43699" lon="5.75348">
        <ele>392.2</ele>
        <time>2022-04-15T09:30:43Z</time>
      </trkpt>
      <trkpt lat="45.43699" lon="5.75348">
        <ele>392.2</ele>
        <time>2022-04-15T09:30:44Z</time>
      </trkpt>
      <trkpt lat="45.43699" lon="5.75348">
        <ele>392.2</ele>
        <time>2022-04-15T09:30:45Z</time>
      </trkpt>
      <trkpt lat="45.43699" lon="5.75348">
        <ele>392.2</ele>
        <time>2022-04-15T09:30:46Z</time>
      </trkpt>
      <trkpt lat="45.43699" lon="5.75348">
        <ele>392.2</ele>
        <time>2022-04-15T09:30:48Z</time>
      </trkpt>
      <trkpt lat="45.43699" lon="5.75348">
        <ele>392.2</ele>
        <time>2022-04-15T09:30:49Z</time>
      </trkpt>
      <trkpt lat="45.43699" lon="5.75348">
        <ele>392.2</ele>
        <time>2022-04-15T09:30:50Z</time>
      </trkpt>
      <trkpt lat="45.43699" lon="5.75348">
        <ele>392.2</ele>
        <time>2022-04-15T09:30:51Z</time>
      </trkpt>
      <trkpt lat="45.437" lon="5.75347">
        <ele>392.2</ele>
        <time>2022-04-15T09:30:53Z</time>
      </trkpt>
      <trkpt lat="45.43703" lon="5.75347">
        <ele>392.2</ele>
        <time>2022-04-15T09:30:55Z</time>
      </trkpt>
      <trkpt lat="45.43707" lon="5.75347">
        <ele>392.2</ele>
        <time>2022-04-15T09:30:56Z</time>
      </trkpt>
      <trkpt lat="45.43708" lon="5.75347">
        <ele>392.2</ele>
        <time>2022-04-15T09:30:57Z</time>
      </trkpt>
      <trkpt lat="45.43711" lon="5.75348">
        <ele>392.2</ele>
        <time>2022-04-15T09:30:58Z</time>
      </trkpt>
      <trkpt lat="45.43713" lon="5.7535">
        <ele>392.2</ele>
        <time>2022-04-15T09:30:59Z</time>
      </trkpt>
      <trkpt lat="45.43716" lon="5.75353">
        <ele>392.2</ele>
        <time>2022-04-15T09:31:01Z</time>
      </trkpt>
      <trkpt lat="45.43717" lon="5.75353">
        <ele>392.2</ele>
        <time>2022-04-15T09:31:02Z</time>
      </trkpt>
      <trkpt lat="45.43719" lon="5.75355">
        <ele>392.3</ele>
        <time>2022-04-15T09:31:03Z</time>
      </trkpt>
      <trkpt lat="45.43721" lon="5.75357">
        <ele>392.3</ele>
        <time>2022-04-15T09:31:04Z</time>
      </trkpt>
      <trkpt lat="45.43722" lon="5.75358">
        <ele>392.3</ele>
        <time>2022-04-15T09:31:05Z</time>
      </trkpt>
      <trkpt lat="45.43726" lon="5.75354">
        <ele>392.3</ele>
        <time>2022-04-15T09:31:07Z</time>
      </trkpt>
      <trkpt lat="45.4373" lon="5.75347">
        <ele>392.3</ele>
        <time>2022-04-15T09:31:09Z</time>
      </trkpt>
      <trkpt lat="45.4373" lon="5.75343">
        <ele>392.2</ele>
        <time>2022-04-15T09:31:10Z</time>
      </trkpt>
      <trkpt lat="45.43731" lon="5.75337">
        <ele>392.1</ele>
        <time>2022-04-15T09:31:11Z</time>
      </trkpt>
      <trkpt lat="45.43732" lon="5.7533">
        <ele>392</ele>
        <time>2022-04-15T09:31:12Z</time>
      </trkpt>
      <trkpt lat="45.43733" lon="5.75325">
        <ele>392</ele>
        <time>2022-04-15T09:31:13Z</time>
      </trkpt>
      <trkpt lat="45.43735" lon="5.75321">
        <ele>391.9</ele>
        <time>2022-04-15T09:31:14Z</time>
      </trkpt>
      <trkpt lat="45.43737" lon="5.75315">
        <ele>391.8</ele>
        <time>2022-04-15T09:31:15Z</time>
      </trkpt>
      <trkpt lat="45.43738" lon="5.7531">
        <ele>391.7</ele>
        <time>2022-04-15T09:31:16Z</time>
      </trkpt>
      <trkpt lat="45.43739" lon="5.75303">
        <ele>391.7</ele>
        <time>2022-04-15T09:31:17Z</time>
      </trkpt>
      <trkpt lat="45.43742" lon="5.75297">
        <ele>391.6</ele>
        <time>2022-04-15T09:31:19Z</time>
      </trkpt>
      <trkpt lat="45.43744" lon="5.75291">
        <ele>391.5</ele>
        <time>2022-04-15T09:31:20Z</time>
      </trkpt>
      <trkpt lat="45.43745" lon="5.75281">
        <ele>391.4</ele>
        <time>2022-04-15T09:31:22Z</time>
      </trkpt>
      <trkpt lat="45.43747" lon="5.75269">
        <ele>391.2</ele>
        <time>2022-04-15T09:31:24Z</time>
      </trkpt>
      <trkpt lat="45.43749" lon="5.75262">
        <ele>391.1</ele>
        <time>2022-04-15T09:31:25Z</time>
      </trkpt>
      <trkpt lat="45.43752" lon="5.75254">
        <ele>391</ele>
        <time>2022-04-15T09:31:27Z</time>
      </trkpt>
      <trkpt lat="45.43754" lon="5.75249">
        <ele>391</ele>
        <time>2022-04-15T09:31:28Z</time>
      </trkpt>
      <trkpt lat="45.43756" lon="5.75246">
        <ele>391</ele>
        <time>2022-04-15T09:31:29Z</time>
      </trkpt>
      <trkpt lat="45.4376" lon="5.75242">
        <ele>390.9</ele>
        <time>2022-04-15T09:31:30Z</time>
      </trkpt>
      <trkpt lat="45.43763" lon="5.75239">
        <ele>390.9</ele>
        <time>2022-04-15T09:31:31Z</time>
      </trkpt>
      <trkpt lat="45.43771" lon="5.75236">
        <ele>391.1</ele>
        <time>2022-04-15T09:31:32Z</time>
      </trkpt>
      <trkpt lat="45.43776" lon="5.75235">
        <ele>391.1</ele>
        <time>2022-04-15T09:31:34Z</time>
      </trkpt>
      <trkpt lat="45.43781" lon="5.75235">
        <ele>391.1</ele>
        <time>2022-04-15T09:31:35Z</time>
      </trkpt>
      <trkpt lat="45.43786" lon="5.75236">
        <ele>391.1</ele>
        <time>2022-04-15T09:31:37Z</time>
      </trkpt>
      <trkpt lat="45.43791" lon="5.75236">
        <ele>391.1</ele>
        <time>2022-04-15T09:31:38Z</time>
      </trkpt>
      <trkpt lat="45.43797" lon="5.75237">
        <ele>391</ele>
        <time>2022-04-15T09:31:39Z</time>
      </trkpt>
      <trkpt lat="45.43801" lon="5.75238">
        <ele>391</ele>
        <time>2022-04-15T09:31:41Z</time>
      </trkpt>
      <trkpt lat="45.43804" lon="5.75237">
        <ele>391</ele>
        <time>2022-04-15T09:31:42Z</time>
      </trkpt>
      <trkpt lat="45.43808" lon="5.75238">
        <ele>390.9</ele>
        <time>2022-04-15T09:31:43Z</time>
      </trkpt>
      <trkpt lat="45.43812" lon="5.75239">
        <ele>390.9</ele>
        <time>2022-04-15T09:31:44Z</time>
      </trkpt>
      <trkpt lat="45.43819" lon="5.7524">
        <ele>390.8</ele>
        <time>2022-04-15T09:31:46Z</time>
      </trkpt>
      <trkpt lat="45.43824" lon="5.75242">
        <ele>390.8</ele>
        <time>2022-04-15T09:31:47Z</time>
      </trkpt>
      <trkpt lat="45.4383" lon="5.75242">
        <ele>390.8</ele>
        <time>2022-04-15T09:31:49Z</time>
      </trkpt>
      <trkpt lat="45.43834" lon="5.75243">
        <ele>390.8</ele>
        <time>2022-04-15T09:31:50Z</time>
      </trkpt>
      <trkpt lat="45.43841" lon="5.75243">
        <ele>390.7</ele>
        <time>2022-04-15T09:31:52Z</time>
      </trkpt>
      <trkpt lat="45.43845" lon="5.75243">
        <ele>390.7</ele>
        <time>2022-04-15T09:31:53Z</time>
      </trkpt>
      <trkpt lat="45.43848" lon="5.75243">
        <ele>390.8</ele>
        <time>2022-04-15T09:31:54Z</time>
      </trkpt>
      <trkpt lat="45.43851" lon="5.75244">
        <ele>390.8</ele>
        <time>2022-04-15T09:31:55Z</time>
      </trkpt>
      <trkpt lat="45.43857" lon="5.75245">
        <ele>390.8</ele>
        <time>2022-04-15T09:31:56Z</time>
      </trkpt>
      <trkpt lat="45.4386" lon="5.75247">
        <ele>390.8</ele>
        <time>2022-04-15T09:31:58Z</time>
      </trkpt>
      <trkpt lat="45.43861" lon="5.75246">
        <ele>390.8</ele>
        <time>2022-04-15T09:31:59Z</time>
      </trkpt>
      <trkpt lat="45.4386" lon="5.75241">
        <ele>390.8</ele>
        <time>2022-04-15T09:32:01Z</time>
      </trkpt>
      <trkpt lat="45.4386" lon="5.75238">
        <ele>390.8</ele>
        <time>2022-04-15T09:32:02Z</time>
      </trkpt>
      <trkpt lat="45.43852" lon="5.75238">
        <ele>390.8</ele>
        <time>2022-04-15T09:32:04Z</time>
      </trkpt>
      <trkpt lat="45.43848" lon="5.75238">
        <ele>390.8</ele>
        <time>2022-04-15T09:32:06Z</time>
      </trkpt>
      <trkpt lat="45.43845" lon="5.75238">
        <ele>390.7</ele>
        <time>2022-04-15T09:32:07Z</time>
      </trkpt>
      <trkpt lat="45.43842" lon="5.75238">
        <ele>390.7</ele>
        <time>2022-04-15T09:32:08Z</time>
      </trkpt>
      <trkpt lat="45.43838" lon="5.75237">
        <ele>390.7</ele>
        <time>2022-04-15T09:32:09Z</time>
      </trkpt>
      <trkpt lat="45.43835" lon="5.75236">
        <ele>390.8</ele>
        <time>2022-04-15T09:32:10Z</time>
      </trkpt>
      <trkpt lat="45.43828" lon="5.75237">
        <ele>390.8</ele>
        <time>2022-04-15T09:32:11Z</time>
      </trkpt>
      <trkpt lat="45.43823" lon="5.75237">
        <ele>390.8</ele>
        <time>2022-04-15T09:32:13Z</time>
      </trkpt>
      <trkpt lat="45.43819" lon="5.75236">
        <ele>390.8</ele>
        <time>2022-04-15T09:32:14Z</time>
      </trkpt>
      <trkpt lat="45.43815" lon="5.75235">
        <ele>390.9</ele>
        <time>2022-04-15T09:32:15Z</time>
      </trkpt>
      <trkpt lat="45.43809" lon="5.75235">
        <ele>390.9</ele>
        <time>2022-04-15T09:32:17Z</time>
      </trkpt>
      <trkpt lat="45.43803" lon="5.75233">
        <ele>391</ele>
        <time>2022-04-15T09:32:19Z</time>
      </trkpt>
      <trkpt lat="45.43799" lon="5.75233">
        <ele>391</ele>
        <time>2022-04-15T09:32:20Z</time>
      </trkpt>
      <trkpt lat="45.43795" lon="5.75233">
        <ele>391</ele>
        <time>2022-04-15T09:32:21Z</time>
      </trkpt>
      <trkpt lat="45.43789" lon="5.75232">
        <ele>391.1</ele>
        <time>2022-04-15T09:32:23Z</time>
      </trkpt>
      <trkpt lat="45.43785" lon="5.75231">
        <ele>391.1</ele>
        <time>2022-04-15T09:32:24Z</time>
      </trkpt>
      <trkpt lat="45.43781" lon="5.7523">
        <ele>391.1</ele>
        <time>2022-04-15T09:32:25Z</time>
      </trkpt>
      <trkpt lat="45.43776" lon="5.75224">
        <ele>391</ele>
        <time>2022-04-15T09:32:27Z</time>
      </trkpt>
      <trkpt lat="45.43776" lon="5.75218">
        <ele>390.8</ele>
        <time>2022-04-15T09:32:28Z</time>
      </trkpt>
      <trkpt lat="45.43779" lon="5.75214">
        <ele>390.7</ele>
        <time>2022-04-15T09:32:29Z</time>
      </trkpt>
      <trkpt lat="45.43783" lon="5.7521">
        <ele>390.6</ele>
        <time>2022-04-15T09:32:30Z</time>
      </trkpt>
      <trkpt lat="45.4379" lon="5.75203">
        <ele>390.4</ele>
        <time>2022-04-15T09:32:32Z</time>
      </trkpt>
      <trkpt lat="45.43792" lon="5.75199">
        <ele>390.3</ele>
        <time>2022-04-15T09:32:33Z</time>
      </trkpt>
      <trkpt lat="45.43795" lon="5.75195">
        <ele>390.3</ele>
        <time>2022-04-15T09:32:34Z</time>
      </trkpt>
      <trkpt lat="45.43798" lon="5.75191">
        <ele>390.2</ele>
        <time>2022-04-15T09:32:35Z</time>
      </trkpt>
      <trkpt lat="45.43802" lon="5.75187">
        <ele>390.1</ele>
        <time>2022-04-15T09:32:36Z</time>
      </trkpt>
      <trkpt lat="45.4381" lon="5.7518">
        <ele>390</ele>
        <time>2022-04-15T09:32:38Z</time>
      </trkpt>
      <trkpt lat="45.43817" lon="5.75173">
        <ele>389.9</ele>
        <time>2022-04-15T09:32:40Z</time>
      </trkpt>
      <trkpt lat="45.43821" lon="5.7517">
        <ele>389.8</ele>
        <time>2022-04-15T09:32:41Z</time>
      </trkpt>
      <trkpt lat="45.43826" lon="5.75164">
        <ele>389.6</ele>
        <time>2022-04-15T09:32:42Z</time>
      </trkpt>
      <trkpt lat="45.43831" lon="5.75159">
        <ele>389.5</ele>
        <time>2022-04-15T09:32:44Z</time>
      </trkpt>
      <trkpt lat="45.43833" lon="5.75156">
        <ele>389.4</ele>
        <time>2022-04-15T09:32:45Z</time>
      </trkpt>
      <trkpt lat="45.43837" lon="5.75151">
        <ele>389.3</ele>
        <time>2022-04-15T09:32:46Z</time>
      </trkpt>
      <trkpt lat="45.43842" lon="5.75144">
        <ele>389.2</ele>
        <time>2022-04-15T09:32:47Z</time>
      </trkpt>
      <trkpt lat="45.43844" lon="5.75139">
        <ele>389.1</ele>
        <time>2022-04-15T09:32:49Z</time>
      </trkpt>
      <trkpt lat="45.43847" lon="5.75136">
        <ele>389</ele>
        <time>2022-04-15T09:32:50Z</time>
      </trkpt>
      <trkpt lat="45.4385" lon="5.75131">
        <ele>388.9</ele>
        <time>2022-04-15T09:32:51Z</time>
      </trkpt>
      <trkpt lat="45.43857" lon="5.75126">
        <ele>388.7</ele>
        <time>2022-04-15T09:32:52Z</time>
      </trkpt>
      <trkpt lat="45.4386" lon="5.75122">
        <ele>388.6</ele>
        <time>2022-04-15T09:32:54Z</time>
      </trkpt>
      <trkpt lat="45.43862" lon="5.75117">
        <ele>388.5</ele>
        <time>2022-04-15T09:32:55Z</time>
      </trkpt>
      <trkpt lat="45.43866" lon="5.75112">
        <ele>388.5</ele>
        <time>2022-04-15T09:32:56Z</time>
      </trkpt>
      <trkpt lat="45.43869" lon="5.75108">
        <ele>388.4</ele>
        <time>2022-04-15T09:32:57Z</time>
      </trkpt>
      <trkpt lat="45.4387" lon="5.75107">
        <ele>388.4</ele>
        <time>2022-04-15T09:32:58Z</time>
      </trkpt>
      <trkpt lat="45.43871" lon="5.75103">
        <ele>388.4</ele>
        <time>2022-04-15T09:33:00Z</time>
      </trkpt>
      <trkpt lat="45.43872" lon="5.75101">
        <ele>388.4</ele>
        <time>2022-04-15T09:33:02Z</time>
      </trkpt>
      <trkpt lat="45.43871" lon="5.75102">
        <ele>388.4</ele>
        <time>2022-04-15T09:33:03Z</time>
      </trkpt>
      <trkpt lat="45.43871" lon="5.75102">
        <ele>388.4</ele>
        <time>2022-04-15T09:33:04Z</time>
      </trkpt>
      <trkpt lat="45.4387" lon="5.75102">
        <ele>388.4</ele>
        <time>2022-04-15T09:33:05Z</time>
      </trkpt>
      <trkpt lat="45.4387" lon="5.75102">
        <ele>388.4</ele>
        <time>2022-04-15T09:33:06Z</time>
      </trkpt>
      <trkpt lat="45.4387" lon="5.75102">
        <ele>388.4</ele>
        <time>2022-04-15T09:33:07Z</time>
      </trkpt>
      <trkpt lat="45.43871" lon="5.75103">
        <ele>388.4</ele>
        <time>2022-04-15T09:33:08Z</time>
      </trkpt>
      <trkpt lat="45.43871" lon="5.75103">
        <ele>388.4</ele>
        <time>2022-04-15T09:33:09Z</time>
      </trkpt>
      <trkpt lat="45.43871" lon="5.75103">
        <ele>388.4</ele>
        <time>2022-04-15T09:33:10Z</time>
      </trkpt>
      <trkpt lat="45.43871" lon="5.75103">
        <ele>388.4</ele>
        <time>2022-04-15T09:33:11Z</time>
      </trkpt>
      <trkpt lat="45.4387" lon="5.75104">
        <ele>388.4</ele>
        <time>2022-04-15T09:33:12Z</time>
      </trkpt>
      <trkpt lat="45.4387" lon="5.75104">
        <ele>388.4</ele>
        <time>2022-04-15T09:33:13Z</time>
      </trkpt>
      <trkpt lat="45.4387" lon="5.75104">
        <ele>388.4</ele>
        <time>2022-04-15T09:33:14Z</time>
      </trkpt>
      <trkpt lat="45.4387" lon="5.75104">
        <ele>388.4</ele>
        <time>2022-04-15T09:33:15Z</time>
      </trkpt>
      <trkpt lat="45.4387" lon="5.75105">
        <ele>388.4</ele>
        <time>2022-04-15T09:33:16Z</time>
      </trkpt>
      <trkpt lat="45.4387" lon="5.75105">
        <ele>388.4</ele>
        <time>2022-04-15T09:33:17Z</time>
      </trkpt>
      <trkpt lat="45.4387" lon="5.75105">
        <ele>388.4</ele>
        <time>2022-04-15T09:33:18Z</time>
      </trkpt>
      <trkpt lat="45.4387" lon="5.75105">
        <ele>388.4</ele>
        <time>2022-04-15T09:33:19Z</time>
      </trkpt>
      <trkpt lat="45.4387" lon="5.75105">
        <ele>388.4</ele>
        <time>2022-04-15T09:33:20Z</time>
      </trkpt>
      <trkpt lat="45.4387" lon="5.75105">
        <ele>388.4</ele>
        <time>2022-04-15T09:33:21Z</time>
      </trkpt>
      <trkpt lat="45.4387" lon="5.75105">
        <ele>388.4</ele>
        <time>2022-04-15T09:33:22Z</time>
      </trkpt>
      <trkpt lat="45.43869" lon="5.75105">
        <ele>388.4</ele>
        <time>2022-04-15T09:33:23Z</time>
      </trkpt>
      <trkpt lat="45.43869" lon="5.75105">
        <ele>388.4</ele>
        <time>2022-04-15T09:33:24Z</time>
      </trkpt>
      <trkpt lat="45.43869" lon="5.75105">
        <ele>388.4</ele>
        <time>2022-04-15T09:33:25Z</time>
      </trkpt>
      <trkpt lat="45.43869" lon="5.75105">
        <ele>388.4</ele>
        <time>2022-04-15T09:33:26Z</time>
      </trkpt>
      <trkpt lat="45.43869" lon="5.75105">
        <ele>388.4</ele>
        <time>2022-04-15T09:33:27Z</time>
      </trkpt>
      <trkpt lat="45.43869" lon="5.75105">
        <ele>388.4</ele>
        <time>2022-04-15T09:33:28Z</time>
      </trkpt>
      <trkpt lat="45.43869" lon="5.75105">
        <ele>388.4</ele>
        <time>2022-04-15T09:33:29Z</time>
      </trkpt>
      <trkpt lat="45.43869" lon="5.75105">
        <ele>388.4</ele>
        <time>2022-04-15T09:33:30Z</time>
      </trkpt>
      <trkpt lat="45.43869" lon="5.75105">
        <ele>388.4</ele>
        <time>2022-04-15T09:33:31Z</time>
      </trkpt>
      <trkpt lat="45.43869" lon="5.75105">
        <ele>388.4</ele>
        <time>2022-04-15T09:33:32Z</time>
      </trkpt>
      <trkpt lat="45.43869" lon="5.75105">
        <ele>388.4</ele>
        <time>2022-04-15T09:33:33Z</time>
      </trkpt>
      <trkpt lat="45.43869" lon="5.75105">
        <ele>388.4</ele>
        <time>2022-04-15T09:33:34Z</time>
      </trkpt>
      <trkpt lat="45.43869" lon="5.75105">
        <ele>388.4</ele>
        <time>2022-04-15T09:33:35Z</time>
      </trkpt>
      <trkpt lat="45.43869" lon="5.75105">
        <ele>388.4</ele>
        <time>2022-04-15T09:33:36Z</time>
      </trkpt>
      <trkpt lat="45.43869" lon="5.75105">
        <ele>388.4</ele>
        <time>2022-04-15T09:33:37Z</time>
      </trkpt>
      <trkpt lat="45.43869" lon="5.75105">
        <ele>388.4</ele>
        <time>2022-04-15T09:33:38Z</time>
      </trkpt>
      <trkpt lat="45.43869" lon="5.75105">
        <ele>388.4</ele>
        <time>2022-04-15T09:33:39Z</time>
      </trkpt>
      <trkpt lat="45.43869" lon="5.75105">
        <ele>388.4</ele>
        <time>2022-04-15T09:33:40Z</time>
      </trkpt>
      <trkpt lat="45.43869" lon="5.75105">
        <ele>388.4</ele>
        <time>2022-04-15T09:33:41Z</time>
      </trkpt>
      <trkpt lat="45.43869" lon="5.75105">
        <ele>388.4</ele>
        <time>2022-04-15T09:33:42Z</time>
      </trkpt>
      <trkpt lat="45.43869" lon="5.75105">
        <ele>388.4</ele>
        <time>2022-04-15T09:33:43Z</time>
      </trkpt>
      <trkpt lat="45.43869" lon="5.75105">
        <ele>388.4</ele>
        <time>2022-04-15T09:33:44Z</time>
      </trkpt>
      <trkpt lat="45.43869" lon="5.75105">
        <ele>388.4</ele>
        <time>2022-04-15T09:33:45Z</time>
      </trkpt>
      <trkpt lat="45.43869" lon="5.75105">
        <ele>388.4</ele>
        <time>2022-04-15T09:33:46Z</time>
      </trkpt>
      <trkpt lat="45.43869" lon="5.75105">
        <ele>388.4</ele>
        <time>2022-04-15T09:33:47Z</time>
      </trkpt>
      <trkpt lat="45.43869" lon="5.75105">
        <ele>388.4</ele>
        <time>2022-04-15T09:33:48Z</time>
      </trkpt>
      <trkpt lat="45.43869" lon="5.75105">
        <ele>388.4</ele>
        <time>2022-04-15T09:33:49Z</time>
      </trkpt>
      <trkpt lat="45.43869" lon="5.75105">
        <ele>388.4</ele>
        <time>2022-04-15T09:33:50Z</time>
      </trkpt>
      <trkpt lat="45.43869" lon="5.75105">
        <ele>388.4</ele>
        <time>2022-04-15T09:33:51Z</time>
      </trkpt>
      <trkpt lat="45.43869" lon="5.75104">
        <ele>388.4</ele>
        <time>2022-04-15T09:33:52Z</time>
      </trkpt>
      <trkpt lat="45.43869" lon="5.75101">
        <ele>388.3</ele>
        <time>2022-04-15T09:33:53Z</time>
      </trkpt>
      <trkpt lat="45.43868" lon="5.75101">
        <ele>388.3</ele>
        <time>2022-04-15T09:33:54Z</time>
      </trkpt>
      <trkpt lat="45.43869" lon="5.75095">
        <ele>388.3</ele>
        <time>2022-04-15T09:33:56Z</time>
      </trkpt>
      <trkpt lat="45.43872" lon="5.75091">
        <ele>388.3</ele>
        <time>2022-04-15T09:33:57Z</time>
      </trkpt>
      <trkpt lat="45.43877" lon="5.75083">
        <ele>388.2</ele>
        <time>2022-04-15T09:33:59Z</time>
      </trkpt>
      <trkpt lat="45.43881" lon="5.75079">
        <ele>388.1</ele>
        <time>2022-04-15T09:34:00Z</time>
      </trkpt>
      <trkpt lat="45.43885" lon="5.75072">
        <ele>388</ele>
        <time>2022-04-15T09:34:02Z</time>
      </trkpt>
      <trkpt lat="45.43889" lon="5.75066">
        <ele>388</ele>
        <time>2022-04-15T09:34:03Z</time>
      </trkpt>
      <trkpt lat="45.43893" lon="5.75059">
        <ele>387.9</ele>
        <time>2022-04-15T09:34:05Z</time>
      </trkpt>
      <trkpt lat="45.43895" lon="5.75055">
        <ele>387.8</ele>
        <time>2022-04-15T09:34:06Z</time>
      </trkpt>
      <trkpt lat="45.43899" lon="5.7505">
        <ele>387.8</ele>
        <time>2022-04-15T09:34:07Z</time>
      </trkpt>
      <trkpt lat="45.43902" lon="5.75045">
        <ele>387.8</ele>
        <time>2022-04-15T09:34:08Z</time>
      </trkpt>
      <trkpt lat="45.43906" lon="5.75038">
        <ele>387.7</ele>
        <time>2022-04-15T09:34:09Z</time>
      </trkpt>
      <trkpt lat="45.43913" lon="5.75028">
        <ele>387.6</ele>
        <time>2022-04-15T09:34:11Z</time>
      </trkpt>
      <trkpt lat="45.43919" lon="5.75019">
        <ele>387.5</ele>
        <time>2022-04-15T09:34:13Z</time>
      </trkpt>
      <trkpt lat="45.43922" lon="5.75014">
        <ele>387.5</ele>
        <time>2022-04-15T09:34:14Z</time>
      </trkpt>
      <trkpt lat="45.43925" lon="5.75009">
        <ele>387.5</ele>
        <time>2022-04-15T09:34:15Z</time>
      </trkpt>
      <trkpt lat="45.43929" lon="5.75004">
        <ele>387.4</ele>
        <time>2022-04-15T09:34:16Z</time>
      </trkpt>
      <trkpt lat="45.43932" lon="5.74999">
        <ele>387.4</ele>
        <time>2022-04-15T09:34:17Z</time>
      </trkpt>
      <trkpt lat="45.43935" lon="5.74994">
        <ele>387.4</ele>
        <time>2022-04-15T09:34:18Z</time>
      </trkpt>
      <trkpt lat="45.43939" lon="5.74989">
        <ele>387.3</ele>
        <time>2022-04-15T09:34:19Z</time>
      </trkpt>
      <trkpt lat="45.43942" lon="5.74984">
        <ele>387.3</ele>
        <time>2022-04-15T09:34:20Z</time>
      </trkpt>
      <trkpt lat="45.43945" lon="5.74979">
        <ele>387.3</ele>
        <time>2022-04-15T09:34:21Z</time>
      </trkpt>
      <trkpt lat="45.43948" lon="5.74973">
        <ele>387.2</ele>
        <time>2022-04-15T09:34:22Z</time>
      </trkpt>
      <trkpt lat="45.43951" lon="5.74967">
        <ele>387.2</ele>
        <time>2022-04-15T09:34:23Z</time>
      </trkpt>
      <trkpt lat="45.43954" lon="5.74961">
        <ele>387.2</ele>
        <time>2022-04-15T09:34:24Z</time>
      </trkpt>
      <trkpt lat="45.43957" lon="5.74956">
        <ele>387.2</ele>
        <time>2022-04-15T09:34:25Z</time>
      </trkpt>
      <trkpt lat="45.4396" lon="5.74951">
        <ele>387.1</ele>
        <time>2022-04-15T09:34:26Z</time>
      </trkpt>
      <trkpt lat="45.43963" lon="5.74945">
        <ele>387.1</ele>
        <time>2022-04-15T09:34:27Z</time>
      </trkpt>
      <trkpt lat="45.43966" lon="5.7494">
        <ele>387.1</ele>
        <time>2022-04-15T09:34:28Z</time>
      </trkpt>
      <trkpt lat="45.4397" lon="5.74935">
        <ele>387</ele>
        <time>2022-04-15T09:34:29Z</time>
      </trkpt>
      <trkpt lat="45.43973" lon="5.7493">
        <ele>387</ele>
        <time>2022-04-15T09:34:30Z</time>
      </trkpt>
      <trkpt lat="45.43976" lon="5.74925">
        <ele>387</ele>
        <time>2022-04-15T09:34:31Z</time>
      </trkpt>
      <trkpt lat="45.43978" lon="5.74922">
        <ele>387</ele>
        <time>2022-04-15T09:34:32Z</time>
      </trkpt>
      <trkpt lat="45.4398" lon="5.74918">
        <ele>386.9</ele>
        <time>2022-04-15T09:34:33Z</time>
      </trkpt>
      <trkpt lat="45.4398" lon="5.74917">
        <ele>386.9</ele>
        <time>2022-04-15T09:34:34Z</time>
      </trkpt>
      <trkpt lat="45.43981" lon="5.74917">
        <ele>386.9</ele>
        <time>2022-04-15T09:34:35Z</time>
      </trkpt>
      <trkpt lat="45.43981" lon="5.74917">
        <ele>386.9</ele>
        <time>2022-04-15T09:34:36Z</time>
      </trkpt>
      <trkpt lat="45.43981" lon="5.74917">
        <ele>386.9</ele>
        <time>2022-04-15T09:34:37Z</time>
      </trkpt>
      <trkpt lat="45.43981" lon="5.74915">
        <ele>386.9</ele>
        <time>2022-04-15T09:34:38Z</time>
      </trkpt>
      <trkpt lat="45.43982" lon="5.74912">
        <ele>386.9</ele>
        <time>2022-04-15T09:34:40Z</time>
      </trkpt>
      <trkpt lat="45.43981" lon="5.74907">
        <ele>386.9</ele>
        <time>2022-04-15T09:34:41Z</time>
      </trkpt>
      <trkpt lat="45.4398" lon="5.74905">
        <ele>386.9</ele>
        <time>2022-04-15T09:34:42Z</time>
      </trkpt>
      <trkpt lat="45.43978" lon="5.74899">
        <ele>386.8</ele>
        <time>2022-04-15T09:34:43Z</time>
      </trkpt>
      <trkpt lat="45.43977" lon="5.74895">
        <ele>386.8</ele>
        <time>2022-04-15T09:34:44Z</time>
      </trkpt>
      <trkpt lat="45.43978" lon="5.74883">
        <ele>386.7</ele>
        <time>2022-04-15T09:34:45Z</time>
      </trkpt>
      <trkpt lat="45.43978" lon="5.74871">
        <ele>386.6</ele>
        <time>2022-04-15T09:34:47Z</time>
      </trkpt>
      <trkpt lat="45.43978" lon="5.7486">
        <ele>386.5</ele>
        <time>2022-04-15T09:34:49Z</time>
      </trkpt>
      <trkpt lat="45.43978" lon="5.74852">
        <ele>386.4</ele>
        <time>2022-04-15T09:34:50Z</time>
      </trkpt>
      <trkpt lat="45.43978" lon="5.74845">
        <ele>386.4</ele>
        <time>2022-04-15T09:34:51Z</time>
      </trkpt>
      <trkpt lat="45.43978" lon="5.74839">
        <ele>386.3</ele>
        <time>2022-04-15T09:34:52Z</time>
      </trkpt>
      <trkpt lat="45.43978" lon="5.74834">
        <ele>386.3</ele>
        <time>2022-04-15T09:34:53Z</time>
      </trkpt>
      <trkpt lat="45.43979" lon="5.74832">
        <ele>386.3</ele>
        <time>2022-04-15T09:34:54Z</time>
      </trkpt>
      <trkpt lat="45.4398" lon="5.74827">
        <ele>386.1</ele>
        <time>2022-04-15T09:34:55Z</time>
      </trkpt>
      <trkpt lat="45.43982" lon="5.74823">
        <ele>386</ele>
        <time>2022-04-15T09:34:56Z</time>
      </trkpt>
      <trkpt lat="45.43984" lon="5.7482">
        <ele>385.8</ele>
        <time>2022-04-15T09:34:57Z</time>
      </trkpt>
      <trkpt lat="45.43985" lon="5.74815">
        <ele>385.7</ele>
        <time>2022-04-15T09:34:58Z</time>
      </trkpt>
      <trkpt lat="45.43988" lon="5.74811">
        <ele>385.5</ele>
        <time>2022-04-15T09:34:59Z</time>
      </trkpt>
      <trkpt lat="45.43991" lon="5.74806">
        <ele>385.2</ele>
        <time>2022-04-15T09:35:00Z</time>
      </trkpt>
      <trkpt lat="45.43995" lon="5.748">
        <ele>384.9</ele>
        <time>2022-04-15T09:35:01Z</time>
      </trkpt>
      <trkpt lat="45.43998" lon="5.74793">
        <ele>384.6</ele>
        <time>2022-04-15T09:35:03Z</time>
      </trkpt>
      <trkpt lat="45.44001" lon="5.74788">
        <ele>384.4</ele>
        <time>2022-04-15T09:35:04Z</time>
      </trkpt>
      <trkpt lat="45.44008" lon="5.7478">
        <ele>383.9</ele>
        <time>2022-04-15T09:35:06Z</time>
      </trkpt>
      <trkpt lat="45.44014" lon="5.74769">
        <ele>383.5</ele>
        <time>2022-04-15T09:35:08Z</time>
      </trkpt>
      <trkpt lat="45.44016" lon="5.74764">
        <ele>383.2</ele>
        <time>2022-04-15T09:35:10Z</time>
      </trkpt>
      <trkpt lat="45.44018" lon="5.7476">
        <ele>383.1</ele>
        <time>2022-04-15T09:35:11Z</time>
      </trkpt>
      <trkpt lat="45.44023" lon="5.74753">
        <ele>383.1</ele>
        <time>2022-04-15T09:35:12Z</time>
      </trkpt>
      <trkpt lat="45.44027" lon="5.7475">
        <ele>383.1</ele>
        <time>2022-04-15T09:35:14Z</time>
      </trkpt>
      <trkpt lat="45.4403" lon="5.74746">
        <ele>383.1</ele>
        <time>2022-04-15T09:35:15Z</time>
      </trkpt>
      <trkpt lat="45.44032" lon="5.7474">
        <ele>383.1</ele>
        <time>2022-04-15T09:35:16Z</time>
      </trkpt>
      <trkpt lat="45.44037" lon="5.74732">
        <ele>383.1</ele>
        <time>2022-04-15T09:35:18Z</time>
      </trkpt>
      <trkpt lat="45.4404" lon="5.74727">
        <ele>383</ele>
        <time>2022-04-15T09:35:19Z</time>
      </trkpt>
      <trkpt lat="45.44044" lon="5.74722">
        <ele>383</ele>
        <time>2022-04-15T09:35:20Z</time>
      </trkpt>
      <trkpt lat="45.44049" lon="5.74712">
        <ele>382.8</ele>
        <time>2022-04-15T09:35:22Z</time>
      </trkpt>
      <trkpt lat="45.44053" lon="5.74708">
        <ele>382.7</ele>
        <time>2022-04-15T09:35:23Z</time>
      </trkpt>
      <trkpt lat="45.44057" lon="5.74704">
        <ele>382.7</ele>
        <time>2022-04-15T09:35:24Z</time>
      </trkpt>
      <trkpt lat="45.44061" lon="5.74693">
        <ele>382.6</ele>
        <time>2022-04-15T09:35:26Z</time>
      </trkpt>
      <trkpt lat="45.44064" lon="5.74687">
        <ele>382.5</ele>
        <time>2022-04-15T09:35:27Z</time>
      </trkpt>
      <trkpt lat="45.44067" lon="5.74683">
        <ele>382.5</ele>
        <time>2022-04-15T09:35:28Z</time>
      </trkpt>
      <trkpt lat="45.4407" lon="5.74677">
        <ele>382.4</ele>
        <time>2022-04-15T09:35:29Z</time>
      </trkpt>
      <trkpt lat="45.44072" lon="5.74672">
        <ele>382.3</ele>
        <time>2022-04-15T09:35:30Z</time>
      </trkpt>
      <trkpt lat="45.44075" lon="5.74667">
        <ele>382.3</ele>
        <time>2022-04-15T09:35:31Z</time>
      </trkpt>
      <trkpt lat="45.44078" lon="5.74662">
        <ele>382.2</ele>
        <time>2022-04-15T09:35:32Z</time>
      </trkpt>
      <trkpt lat="45.44081" lon="5.74658">
        <ele>382.2</ele>
        <time>2022-04-15T09:35:33Z</time>
      </trkpt>
      <trkpt lat="45.44084" lon="5.74653">
        <ele>382.2</ele>
        <time>2022-04-15T09:35:34Z</time>
      </trkpt>
      <trkpt lat="45.44087" lon="5.7465">
        <ele>382.2</ele>
        <time>2022-04-15T09:35:35Z</time>
      </trkpt>
      <trkpt lat="45.44091" lon="5.74646">
        <ele>382.1</ele>
        <time>2022-04-15T09:35:36Z</time>
      </trkpt>
      <trkpt lat="45.44094" lon="5.74639">
        <ele>382.1</ele>
        <time>2022-04-15T09:35:37Z</time>
      </trkpt>
      <trkpt lat="45.44097" lon="5.74631">
        <ele>382</ele>
        <time>2022-04-15T09:35:39Z</time>
      </trkpt>
      <trkpt lat="45.441" lon="5.74627">
        <ele>382</ele>
        <time>2022-04-15T09:35:40Z</time>
      </trkpt>
      <trkpt lat="45.44104" lon="5.74621">
        <ele>382</ele>
        <time>2022-04-15T09:35:41Z</time>
      </trkpt>
      <trkpt lat="45.44108" lon="5.74613">
        <ele>381.9</ele>
        <time>2022-04-15T09:35:42Z</time>
      </trkpt>
      <trkpt lat="45.44112" lon="5.74609">
        <ele>381.9</ele>
        <time>2022-04-15T09:35:43Z</time>
      </trkpt>
      <trkpt lat="45.44115" lon="5.74603">
        <ele>381.9</ele>
        <time>2022-04-15T09:35:45Z</time>
      </trkpt>
      <trkpt lat="45.44118" lon="5.74598">
        <ele>381.9</ele>
        <time>2022-04-15T09:35:46Z</time>
      </trkpt>
      <trkpt lat="45.44121" lon="5.74593">
        <ele>382.1</ele>
        <time>2022-04-15T09:35:47Z</time>
      </trkpt>
      <trkpt lat="45.44127" lon="5.74583">
        <ele>382.6</ele>
        <time>2022-04-15T09:35:49Z</time>
      </trkpt>
      <trkpt lat="45.44129" lon="5.74579">
        <ele>382.9</ele>
        <time>2022-04-15T09:35:50Z</time>
      </trkpt>
      <trkpt lat="45.44133" lon="5.74574">
        <ele>383.2</ele>
        <time>2022-04-15T09:35:51Z</time>
      </trkpt>
      <trkpt lat="45.44136" lon="5.74568">
        <ele>383.9</ele>
        <time>2022-04-15T09:35:53Z</time>
      </trkpt>
      <trkpt lat="45.44137" lon="5.74562">
        <ele>383.9</ele>
        <time>2022-04-15T09:35:54Z</time>
      </trkpt>
      <trkpt lat="45.44136" lon="5.74557">
        <ele>383.9</ele>
        <time>2022-04-15T09:35:55Z</time>
      </trkpt>
      <trkpt lat="45.44133" lon="5.74556">
        <ele>383.9</ele>
        <time>2022-04-15T09:35:57Z</time>
      </trkpt>
      <trkpt lat="45.44132" lon="5.74556">
        <ele>383.9</ele>
        <time>2022-04-15T09:35:58Z</time>
      </trkpt>
      <trkpt lat="45.4413" lon="5.74553">
        <ele>383.9</ele>
        <time>2022-04-15T09:35:59Z</time>
      </trkpt>
      <trkpt lat="45.44129" lon="5.74552">
        <ele>383.9</ele>
        <time>2022-04-15T09:36:00Z</time>
      </trkpt>
      <trkpt lat="45.44126" lon="5.74551">
        <ele>383.9</ele>
        <time>2022-04-15T09:36:01Z</time>
      </trkpt>
      <trkpt lat="45.44121" lon="5.74548">
        <ele>383.9</ele>
        <time>2022-04-15T09:36:02Z</time>
      </trkpt>
      <trkpt lat="45.44117" lon="5.74545">
        <ele>383.9</ele>
        <time>2022-04-15T09:36:04Z</time>
      </trkpt>
      <trkpt lat="45.44114" lon="5.74542">
        <ele>383.9</ele>
        <time>2022-04-15T09:36:05Z</time>
      </trkpt>
      <trkpt lat="45.44111" lon="5.74539">
        <ele>383.9</ele>
        <time>2022-04-15T09:36:06Z</time>
      </trkpt>
      <trkpt lat="45.44107" lon="5.74536">
        <ele>383.9</ele>
        <time>2022-04-15T09:36:07Z</time>
      </trkpt>
      <trkpt lat="45.44104" lon="5.74535">
        <ele>383.9</ele>
        <time>2022-04-15T09:36:08Z</time>
      </trkpt>
      <trkpt lat="45.44095" lon="5.74529">
        <ele>384</ele>
        <time>2022-04-15T09:36:10Z</time>
      </trkpt>
      <trkpt lat="45.44087" lon="5.74525">
        <ele>384</ele>
        <time>2022-04-15T09:36:12Z</time>
      </trkpt>
      <trkpt lat="45.44082" lon="5.74521">
        <ele>384</ele>
        <time>2022-04-15T09:36:13Z</time>
      </trkpt>
      <trkpt lat="45.44076" lon="5.74516">
        <ele>384</ele>
        <time>2022-04-15T09:36:14Z</time>
      </trkpt>
      <trkpt lat="45.44072" lon="5.74513">
        <ele>384</ele>
        <time>2022-04-15T09:36:15Z</time>
      </trkpt>
      <trkpt lat="45.44066" lon="5.7451">
        <ele>384.1</ele>
        <time>2022-04-15T09:36:17Z</time>
      </trkpt>
      <trkpt lat="45.4406" lon="5.74505">
        <ele>384.1</ele>
        <time>2022-04-15T09:36:18Z</time>
      </trkpt>
      <trkpt lat="45.44056" lon="5.74502">
        <ele>384.1</ele>
        <time>2022-04-15T09:36:20Z</time>
      </trkpt>
      <trkpt lat="45.44049" lon="5.745">
        <ele>384.1</ele>
        <time>2022-04-15T09:36:21Z</time>
      </trkpt>
      <trkpt lat="45.44044" lon="5.74498">
        <ele>384.2</ele>
        <time>2022-04-15T09:36:23Z</time>
      </trkpt>
      <trkpt lat="45.44041" lon="5.74492">
        <ele>384.3</ele>
        <time>2022-04-15T09:36:24Z</time>
      </trkpt>
      <trkpt lat="45.44041" lon="5.74482">
        <ele>384.3</ele>
        <time>2022-04-15T09:36:26Z</time>
      </trkpt>
      <trkpt lat="45.44043" lon="5.74478">
        <ele>384.3</ele>
        <time>2022-04-15T09:36:27Z</time>
      </trkpt>
      <trkpt lat="45.44044" lon="5.74476">
        <ele>384.3</ele>
        <time>2022-04-15T09:36:28Z</time>
      </trkpt>
      <trkpt lat="45.44052" lon="5.74469">
        <ele>384.3</ele>
        <time>2022-04-15T09:36:30Z</time>
      </trkpt>
      <trkpt lat="45.44055" lon="5.74466">
        <ele>384.3</ele>
        <time>2022-04-15T09:36:31Z</time>
      </trkpt>
      <trkpt lat="45.44061" lon="5.74458">
        <ele>384.2</ele>
        <time>2022-04-15T09:36:33Z</time>
      </trkpt>
      <trkpt lat="45.44064" lon="5.74455">
        <ele>384.2</ele>
        <time>2022-04-15T09:36:34Z</time>
      </trkpt>
      <trkpt lat="45.44068" lon="5.7445">
        <ele>384.2</ele>
        <time>2022-04-15T09:36:35Z</time>
      </trkpt>
      <trkpt lat="45.44072" lon="5.74444">
        <ele>384.2</ele>
        <time>2022-04-15T09:36:37Z</time>
      </trkpt>
      <trkpt lat="45.44077" lon="5.74439">
        <ele>384.2</ele>
        <time>2022-04-15T09:36:38Z</time>
      </trkpt>
      <trkpt lat="45.44081" lon="5.74433">
        <ele>384.2</ele>
        <time>2022-04-15T09:36:40Z</time>
      </trkpt>
      <trkpt lat="45.44084" lon="5.74428">
        <ele>384.2</ele>
        <time>2022-04-15T09:36:41Z</time>
      </trkpt>
      <trkpt lat="45.44088" lon="5.74423">
        <ele>384.1</ele>
        <time>2022-04-15T09:36:42Z</time>
      </trkpt>
      <trkpt lat="45.44092" lon="5.74419">
        <ele>384.1</ele>
        <time>2022-04-15T09:36:43Z</time>
      </trkpt>
      <trkpt lat="45.44097" lon="5.74413">
        <ele>384</ele>
        <time>2022-04-15T09:36:44Z</time>
      </trkpt>
      <trkpt lat="45.44102" lon="5.74405">
        <ele>383.9</ele>
        <time>2022-04-15T09:36:46Z</time>
      </trkpt>
      <trkpt lat="45.44107" lon="5.74397">
        <ele>383.8</ele>
        <time>2022-04-15T09:36:48Z</time>
      </trkpt>
      <trkpt lat="45.44111" lon="5.74392">
        <ele>383.7</ele>
        <time>2022-04-15T09:36:49Z</time>
      </trkpt>
      <trkpt lat="45.44117" lon="5.74384">
        <ele>383.6</ele>
        <time>2022-04-15T09:36:51Z</time>
      </trkpt>
      <trkpt lat="45.44121" lon="5.7438">
        <ele>383.5</ele>
        <time>2022-04-15T09:36:52Z</time>
      </trkpt>
      <trkpt lat="45.44124" lon="5.74377">
        <ele>383.4</ele>
        <time>2022-04-15T09:36:53Z</time>
      </trkpt>
      <trkpt lat="45.44133" lon="5.74368">
        <ele>383.2</ele>
        <time>2022-04-15T09:36:55Z</time>
      </trkpt>
      <trkpt lat="45.44137" lon="5.74365">
        <ele>383.1</ele>
        <time>2022-04-15T09:36:56Z</time>
      </trkpt>
      <trkpt lat="45.44141" lon="5.74361">
        <ele>383</ele>
        <time>2022-04-15T09:36:57Z</time>
      </trkpt>
      <trkpt lat="45.44146" lon="5.74359">
        <ele>382.9</ele>
        <time>2022-04-15T09:36:58Z</time>
      </trkpt>
      <trkpt lat="45.44151" lon="5.74355">
        <ele>382.7</ele>
        <time>2022-04-15T09:36:59Z</time>
      </trkpt>
      <trkpt lat="45.44156" lon="5.74352">
        <ele>382.6</ele>
        <time>2022-04-15T09:37:00Z</time>
      </trkpt>
      <trkpt lat="45.44161" lon="5.74349">
        <ele>382.4</ele>
        <time>2022-04-15T09:37:01Z</time>
      </trkpt>
      <trkpt lat="45.44166" lon="5.74346">
        <ele>382.2</ele>
        <time>2022-04-15T09:37:02Z</time>
      </trkpt>
      <trkpt lat="45.44171" lon="5.74343">
        <ele>382.1</ele>
        <time>2022-04-15T09:37:03Z</time>
      </trkpt>
      <trkpt lat="45.44177" lon="5.74341">
        <ele>381.9</ele>
        <time>2022-04-15T09:37:04Z</time>
      </trkpt>
      <trkpt lat="45.44182" lon="5.74338">
        <ele>381.7</ele>
        <time>2022-04-15T09:37:05Z</time>
      </trkpt>
      <trkpt lat="45.44186" lon="5.74335">
        <ele>381.6</ele>
        <time>2022-04-15T09:37:06Z</time>
      </trkpt>
      <trkpt lat="45.44189" lon="5.74332">
        <ele>381.5</ele>
        <time>2022-04-15T09:37:07Z</time>
      </trkpt>
      <trkpt lat="45.44193" lon="5.74329">
        <ele>381.4</ele>
        <time>2022-04-15T09:37:08Z</time>
      </trkpt>
      <trkpt lat="45.44194" lon="5.74327">
        <ele>381.3</ele>
        <time>2022-04-15T09:37:09Z</time>
      </trkpt>
      <trkpt lat="45.44197" lon="5.74322">
        <ele>381.2</ele>
        <time>2022-04-15T09:37:10Z</time>
      </trkpt>
      <trkpt lat="45.442" lon="5.74315">
        <ele>381</ele>
        <time>2022-04-15T09:37:11Z</time>
      </trkpt>
      <trkpt lat="45.44203" lon="5.74307">
        <ele>380.8</ele>
        <time>2022-04-15T09:37:12Z</time>
      </trkpt>
      <trkpt lat="45.44206" lon="5.74301">
        <ele>380.7</ele>
        <time>2022-04-15T09:37:13Z</time>
      </trkpt>
      <trkpt lat="45.44205" lon="5.74297">
        <ele>380.6</ele>
        <time>2022-04-15T09:37:14Z</time>
      </trkpt>
      <trkpt lat="45.44206" lon="5.74293">
        <ele>380.7</ele>
        <time>2022-04-15T09:37:15Z</time>
      </trkpt>
      <trkpt lat="45.44207" lon="5.74291">
        <ele>380.7</ele>
        <time>2022-04-15T09:37:16Z</time>
      </trkpt>
      <trkpt lat="45.44209" lon="5.7429">
        <ele>380.7</ele>
        <time>2022-04-15T09:37:18Z</time>
      </trkpt>
      <trkpt lat="45.44208" lon="5.74291">
        <ele>380.7</ele>
        <time>2022-04-15T09:37:19Z</time>
      </trkpt>
      <trkpt lat="45.44208" lon="5.74291">
        <ele>380.7</ele>
        <time>2022-04-15T09:37:20Z</time>
      </trkpt>
      <trkpt lat="45.44207" lon="5.74292">
        <ele>380.8</ele>
        <time>2022-04-15T09:37:21Z</time>
      </trkpt>
      <trkpt lat="45.44207" lon="5.74293">
        <ele>380.8</ele>
        <time>2022-04-15T09:37:22Z</time>
      </trkpt>
      <trkpt lat="45.44207" lon="5.74294">
        <ele>380.8</ele>
        <time>2022-04-15T09:37:23Z</time>
      </trkpt>
      <trkpt lat="45.44206" lon="5.74295">
        <ele>380.8</ele>
        <time>2022-04-15T09:37:24Z</time>
      </trkpt>
      <trkpt lat="45.44206" lon="5.74296">
        <ele>380.8</ele>
        <time>2022-04-15T09:37:25Z</time>
      </trkpt>
      <trkpt lat="45.44205" lon="5.74297">
        <ele>380.8</ele>
        <time>2022-04-15T09:37:26Z</time>
      </trkpt>
      <trkpt lat="45.44205" lon="5.74297">
        <ele>380.8</ele>
        <time>2022-04-15T09:37:27Z</time>
      </trkpt>
      <trkpt lat="45.44203" lon="5.74301">
        <ele>380.9</ele>
        <time>2022-04-15T09:37:29Z</time>
      </trkpt>
      <trkpt lat="45.44202" lon="5.74303">
        <ele>380.9</ele>
        <time>2022-04-15T09:37:30Z</time>
      </trkpt>
      <trkpt lat="45.442" lon="5.74306">
        <ele>381</ele>
        <time>2022-04-15T09:37:31Z</time>
      </trkpt>
      <trkpt lat="45.44199" lon="5.74307">
        <ele>381</ele>
        <time>2022-04-15T09:37:32Z</time>
      </trkpt>
      <trkpt lat="45.44198" lon="5.74312">
        <ele>381</ele>
        <time>2022-04-15T09:37:33Z</time>
      </trkpt>
      <trkpt lat="45.44198" lon="5.74314">
        <ele>381.1</ele>
        <time>2022-04-15T09:37:34Z</time>
      </trkpt>
      <trkpt lat="45.44198" lon="5.74322">
        <ele>381.2</ele>
        <time>2022-04-15T09:37:35Z</time>
      </trkpt>
      <trkpt lat="45.44199" lon="5.74327">
        <ele>381.3</ele>
        <time>2022-04-15T09:37:37Z</time>
      </trkpt>
      <trkpt lat="45.44201" lon="5.74332">
        <ele>381.3</ele>
        <time>2022-04-15T09:37:38Z</time>
      </trkpt>
      <trkpt lat="45.44205" lon="5.74334">
        <ele>381.3</ele>
        <time>2022-04-15T09:37:39Z</time>
      </trkpt>
      <trkpt lat="45.4421" lon="5.74338">
        <ele>381.3</ele>
        <time>2022-04-15T09:37:41Z</time>
      </trkpt>
      <trkpt lat="45.44214" lon="5.74339">
        <ele>381.4</ele>
        <time>2022-04-15T09:37:42Z</time>
      </trkpt>
      <trkpt lat="45.44217" lon="5.7434">
        <ele>381.4</ele>
        <time>2022-04-15T09:37:43Z</time>
      </trkpt>
      <trkpt lat="45.4422" lon="5.74341">
        <ele>381.4</ele>
        <time>2022-04-15T09:37:44Z</time>
      </trkpt>
      <trkpt lat="45.44224" lon="5.74341">
        <ele>381.4</ele>
        <time>2022-04-15T09:37:45Z</time>
      </trkpt>
      <trkpt lat="45.44229" lon="5.7434">
        <ele>381.5</ele>
        <time>2022-04-15T09:37:46Z</time>
      </trkpt>
      <trkpt lat="45.44234" lon="5.7434">
        <ele>381.6</ele>
        <time>2022-04-15T09:37:48Z</time>
      </trkpt>
      <trkpt lat="45.44238" lon="5.74341">
        <ele>381.6</ele>
        <time>2022-04-15T09:37:49Z</time>
      </trkpt>
      <trkpt lat="45.44241" lon="5.74341">
        <ele>381.6</ele>
        <time>2022-04-15T09:37:50Z</time>
      </trkpt>
      <trkpt lat="45.44244" lon="5.74341">
        <ele>381.7</ele>
        <time>2022-04-15T09:37:51Z</time>
      </trkpt>
      <trkpt lat="45.44249" lon="5.74342">
        <ele>381.8</ele>
        <time>2022-04-15T09:37:53Z</time>
      </trkpt>
      <trkpt lat="45.44252" lon="5.74343">
        <ele>381.8</ele>
        <time>2022-04-15T09:37:54Z</time>
      </trkpt>
      <trkpt lat="45.44256" lon="5.74345">
        <ele>381.9</ele>
        <time>2022-04-15T09:37:55Z</time>
      </trkpt>
      <trkpt lat="45.44258" lon="5.74346">
        <ele>381.9</ele>
        <time>2022-04-15T09:37:56Z</time>
      </trkpt>
      <trkpt lat="45.44261" lon="5.74348">
        <ele>382</ele>
        <time>2022-04-15T09:37:57Z</time>
      </trkpt>
      <trkpt lat="45.44264" lon="5.7435">
        <ele>382.1</ele>
        <time>2022-04-15T09:37:58Z</time>
      </trkpt>
      <trkpt lat="45.44268" lon="5.74352">
        <ele>382.2</ele>
        <time>2022-04-15T09:37:59Z</time>
      </trkpt>
      <trkpt lat="45.44272" lon="5.74356">
        <ele>382.3</ele>
        <time>2022-04-15T09:38:01Z</time>
      </trkpt>
      <trkpt lat="45.44277" lon="5.74359">
        <ele>382.5</ele>
        <time>2022-04-15T09:38:03Z</time>
      </trkpt>
      <trkpt lat="45.4428" lon="5.74363">
        <ele>382.7</ele>
        <time>2022-04-15T09:38:04Z</time>
      </trkpt>
      <trkpt lat="45.44281" lon="5.74364">
        <ele>382.7</ele>
        <time>2022-04-15T09:38:05Z</time>
      </trkpt>
      <trkpt lat="45.44287" lon="5.74367">
        <ele>383</ele>
        <time>2022-04-15T09:38:07Z</time>
      </trkpt>
      <trkpt lat="45.44289" lon="5.7437">
        <ele>383.1</ele>
        <time>2022-04-15T09:38:08Z</time>
      </trkpt>
      <trkpt lat="45.4429" lon="5.74371">
        <ele>383.2</ele>
        <time>2022-04-15T09:38:09Z</time>
      </trkpt>
      <trkpt lat="45.44293" lon="5.74373">
        <ele>383.3</ele>
        <time>2022-04-15T09:38:10Z</time>
      </trkpt>
      <trkpt lat="45.44297" lon="5.74374">
        <ele>383.5</ele>
        <time>2022-04-15T09:38:12Z</time>
      </trkpt>
      <trkpt lat="45.443" lon="5.74374">
        <ele>383.7</ele>
        <time>2022-04-15T09:38:13Z</time>
      </trkpt>
      <trkpt lat="45.44301" lon="5.74374">
        <ele>383.7</ele>
        <time>2022-04-15T09:38:15Z</time>
      </trkpt>
      <trkpt lat="45.44302" lon="5.74376">
        <ele>383.8</ele>
        <time>2022-04-15T09:38:16Z</time>
      </trkpt>
      <trkpt lat="45.44304" lon="5.74379">
        <ele>383.9</ele>
        <time>2022-04-15T09:38:17Z</time>
      </trkpt>
      <trkpt lat="45.44305" lon="5.7438">
        <ele>384</ele>
        <time>2022-04-15T09:38:18Z</time>
      </trkpt>
      <trkpt lat="45.44308" lon="5.74382">
        <ele>384</ele>
        <time>2022-04-15T09:38:19Z</time>
      </trkpt>
      <trkpt lat="45.4431" lon="5.74382">
        <ele>384</ele>
        <time>2022-04-15T09:38:20Z</time>
      </trkpt>
      <trkpt lat="45.44313" lon="5.74383">
        <ele>384</ele>
        <time>2022-04-15T09:38:21Z</time>
      </trkpt>
      <trkpt lat="45.44321" lon="5.74383">
        <ele>384</ele>
        <time>2022-04-15T09:38:23Z</time>
      </trkpt>
      <trkpt lat="45.44324" lon="5.74384">
        <ele>384.1</ele>
        <time>2022-04-15T09:38:25Z</time>
      </trkpt>
      <trkpt lat="45.44327" lon="5.74385">
        <ele>384.1</ele>
        <time>2022-04-15T09:38:26Z</time>
      </trkpt>
      <trkpt lat="45.44332" lon="5.74389">
        <ele>384.2</ele>
        <time>2022-04-15T09:38:28Z</time>
      </trkpt>
      <trkpt lat="45.44336" lon="5.7439">
        <ele>384.2</ele>
        <time>2022-04-15T09:38:30Z</time>
      </trkpt>
      <trkpt lat="45.44339" lon="5.7439">
        <ele>384.3</ele>
        <time>2022-04-15T09:38:31Z</time>
      </trkpt>
      <trkpt lat="45.44343" lon="5.74393">
        <ele>384.4</ele>
        <time>2022-04-15T09:38:33Z</time>
      </trkpt>
      <trkpt lat="45.44347" lon="5.74395">
        <ele>384.5</ele>
        <time>2022-04-15T09:38:35Z</time>
      </trkpt>
      <trkpt lat="45.44352" lon="5.74397">
        <ele>384.7</ele>
        <time>2022-04-15T09:38:37Z</time>
      </trkpt>
      <trkpt lat="45.44357" lon="5.74398">
        <ele>384.8</ele>
        <time>2022-04-15T09:38:39Z</time>
      </trkpt>
      <trkpt lat="45.4436" lon="5.744">
        <ele>384.9</ele>
        <time>2022-04-15T09:38:40Z</time>
      </trkpt>
      <trkpt lat="45.44363" lon="5.744">
        <ele>385.1</ele>
        <time>2022-04-15T09:38:42Z</time>
      </trkpt>
      <trkpt lat="45.44368" lon="5.74402">
        <ele>385.3</ele>
        <time>2022-04-15T09:38:44Z</time>
      </trkpt>
      <trkpt lat="45.4437" lon="5.74402">
        <ele>385.4</ele>
        <time>2022-04-15T09:38:46Z</time>
      </trkpt>
      <trkpt lat="45.44372" lon="5.74403">
        <ele>385.5</ele>
        <time>2022-04-15T09:38:47Z</time>
      </trkpt>
      <trkpt lat="45.44376" lon="5.74402">
        <ele>385.7</ele>
        <time>2022-04-15T09:38:49Z</time>
      </trkpt>
      <trkpt lat="45.44379" lon="5.74401">
        <ele>385.8</ele>
        <time>2022-04-15T09:38:50Z</time>
      </trkpt>
      <trkpt lat="45.4438" lon="5.74401">
        <ele>385.9</ele>
        <time>2022-04-15T09:38:51Z</time>
      </trkpt>
      <trkpt lat="45.44383" lon="5.744">
        <ele>386</ele>
        <time>2022-04-15T09:38:52Z</time>
      </trkpt>
      <trkpt lat="45.44387" lon="5.74398">
        <ele>386.2</ele>
        <time>2022-04-15T09:38:53Z</time>
      </trkpt>
      <trkpt lat="45.44388" lon="5.74396">
        <ele>386.3</ele>
        <time>2022-04-15T09:38:54Z</time>
      </trkpt>
      <trkpt lat="45.4439" lon="5.74393">
        <ele>386.4</ele>
        <time>2022-04-15T09:38:55Z</time>
      </trkpt>
      <trkpt lat="45.44392" lon="5.7439">
        <ele>386.6</ele>
        <time>2022-04-15T09:38:57Z</time>
      </trkpt>
      <trkpt lat="45.44393" lon="5.74386">
        <ele>386.7</ele>
        <time>2022-04-15T09:38:58Z</time>
      </trkpt>
      <trkpt lat="45.44395" lon="5.74382">
        <ele>386.9</ele>
        <time>2022-04-15T09:39:00Z</time>
      </trkpt>
      <trkpt lat="45.44397" lon="5.74377">
        <ele>387.2</ele>
        <time>2022-04-15T09:39:02Z</time>
      </trkpt>
      <trkpt lat="45.44399" lon="5.74371">
        <ele>387.4</ele>
        <time>2022-04-15T09:39:04Z</time>
      </trkpt>
      <trkpt lat="45.444" lon="5.74366">
        <ele>387.6</ele>
        <time>2022-04-15T09:39:05Z</time>
      </trkpt>
      <trkpt lat="45.444" lon="5.74364">
        <ele>387.7</ele>
        <time>2022-04-15T09:39:06Z</time>
      </trkpt>
      <trkpt lat="45.44403" lon="5.7436">
        <ele>387.9</ele>
        <time>2022-04-15T09:39:08Z</time>
      </trkpt>
      <trkpt lat="45.44405" lon="5.74354">
        <ele>388.2</ele>
        <time>2022-04-15T09:39:10Z</time>
      </trkpt>
      <trkpt lat="45.44409" lon="5.74351">
        <ele>388.4</ele>
        <time>2022-04-15T09:39:11Z</time>
      </trkpt>
      <trkpt lat="45.4441" lon="5.7435">
        <ele>388.4</ele>
        <time>2022-04-15T09:39:12Z</time>
      </trkpt>
      <trkpt lat="45.44412" lon="5.74347">
        <ele>388.6</ele>
        <time>2022-04-15T09:39:13Z</time>
      </trkpt>
      <trkpt lat="45.44414" lon="5.74346">
        <ele>388.7</ele>
        <time>2022-04-15T09:39:14Z</time>
      </trkpt>
      <trkpt lat="45.44417" lon="5.74345">
        <ele>388.9</ele>
        <time>2022-04-15T09:39:16Z</time>
      </trkpt>
      <trkpt lat="45.44419" lon="5.74343">
        <ele>389.1</ele>
        <time>2022-04-15T09:39:17Z</time>
      </trkpt>
      <trkpt lat="45.44423" lon="5.74341">
        <ele>389.3</ele>
        <time>2022-04-15T09:39:19Z</time>
      </trkpt>
      <trkpt lat="45.44424" lon="5.7434">
        <ele>389.3</ele>
        <time>2022-04-15T09:39:20Z</time>
      </trkpt>
      <trkpt lat="45.44427" lon="5.74338">
        <ele>389.5</ele>
        <time>2022-04-15T09:39:21Z</time>
      </trkpt>
      <trkpt lat="45.44428" lon="5.74338">
        <ele>389.6</ele>
        <time>2022-04-15T09:39:22Z</time>
      </trkpt>
      <trkpt lat="45.4443" lon="5.74337">
        <ele>389.7</ele>
        <time>2022-04-15T09:39:23Z</time>
      </trkpt>
      <trkpt lat="45.44434" lon="5.74334">
        <ele>389.9</ele>
        <time>2022-04-15T09:39:25Z</time>
      </trkpt>
      <trkpt lat="45.44436" lon="5.74333">
        <ele>390</ele>
        <time>2022-04-15T09:39:26Z</time>
      </trkpt>
      <trkpt lat="45.4444" lon="5.74332">
        <ele>390.2</ele>
        <time>2022-04-15T09:39:28Z</time>
      </trkpt>
      <trkpt lat="45.44443" lon="5.74331">
        <ele>390.4</ele>
        <time>2022-04-15T09:39:29Z</time>
      </trkpt>
      <trkpt lat="45.44444" lon="5.7433">
        <ele>390.4</ele>
        <time>2022-04-15T09:39:30Z</time>
      </trkpt>
      <trkpt lat="45.44447" lon="5.74329">
        <ele>390.6</ele>
        <time>2022-04-15T09:39:31Z</time>
      </trkpt>
      <trkpt lat="45.44449" lon="5.74329">
        <ele>390.7</ele>
        <time>2022-04-15T09:39:32Z</time>
      </trkpt>
      <trkpt lat="45.44453" lon="5.74328">
        <ele>390.8</ele>
        <time>2022-04-15T09:39:34Z</time>
      </trkpt>
      <trkpt lat="45.44455" lon="5.74328">
        <ele>391</ele>
        <time>2022-04-15T09:39:35Z</time>
      </trkpt>
      <trkpt lat="45.44459" lon="5.74327">
        <ele>391.1</ele>
        <time>2022-04-15T09:39:37Z</time>
      </trkpt>
      <trkpt lat="45.44463" lon="5.74328">
        <ele>391.3</ele>
        <time>2022-04-15T09:39:38Z</time>
      </trkpt>
      <trkpt lat="45.44464" lon="5.74328">
        <ele>391.3</ele>
        <time>2022-04-15T09:39:39Z</time>
      </trkpt>
      <trkpt lat="45.44467" lon="5.74328">
        <ele>391.4</ele>
        <time>2022-04-15T09:39:40Z</time>
      </trkpt>
      <trkpt lat="45.4447" lon="5.74328">
        <ele>391.5</ele>
        <time>2022-04-15T09:39:41Z</time>
      </trkpt>
      <trkpt lat="45.44471" lon="5.74328">
        <ele>391.6</ele>
        <time>2022-04-15T09:39:42Z</time>
      </trkpt>
      <trkpt lat="45.44476" lon="5.74327">
        <ele>391.8</ele>
        <time>2022-04-15T09:39:44Z</time>
      </trkpt>
      <trkpt lat="45.44478" lon="5.74327">
        <ele>391.8</ele>
        <time>2022-04-15T09:39:45Z</time>
      </trkpt>
      <trkpt lat="45.4448" lon="5.74326">
        <ele>391.9</ele>
        <time>2022-04-15T09:39:46Z</time>
      </trkpt>
      <trkpt lat="45.44483" lon="5.74326">
        <ele>392</ele>
        <time>2022-04-15T09:39:47Z</time>
      </trkpt>
      <trkpt lat="45.44485" lon="5.74326">
        <ele>392.1</ele>
        <time>2022-04-15T09:39:48Z</time>
      </trkpt>
      <trkpt lat="45.4449" lon="5.74326">
        <ele>392.3</ele>
        <time>2022-04-15T09:39:50Z</time>
      </trkpt>
      <trkpt lat="45.44492" lon="5.74326">
        <ele>392.4</ele>
        <time>2022-04-15T09:39:52Z</time>
      </trkpt>
      <trkpt lat="45.44495" lon="5.74326">
        <ele>392.4</ele>
        <time>2022-04-15T09:39:53Z</time>
      </trkpt>
      <trkpt lat="45.44497" lon="5.74326">
        <ele>392.5</ele>
        <time>2022-04-15T09:39:54Z</time>
      </trkpt>
      <trkpt lat="45.445" lon="5.74326">
        <ele>392.6</ele>
        <time>2022-04-15T09:39:55Z</time>
      </trkpt>
      <trkpt lat="45.44503" lon="5.74325">
        <ele>392.8</ele>
        <time>2022-04-15T09:39:57Z</time>
      </trkpt>
      <trkpt lat="45.44505" lon="5.74325">
        <ele>392.8</ele>
        <time>2022-04-15T09:39:58Z</time>
      </trkpt>
      <trkpt lat="45.44509" lon="5.74324">
        <ele>393</ele>
        <time>2022-04-15T09:40:00Z</time>
      </trkpt>
      <trkpt lat="45.44511" lon="5.74324">
        <ele>393.1</ele>
        <time>2022-04-15T09:40:01Z</time>
      </trkpt>
      <trkpt lat="45.44512" lon="5.74323">
        <ele>393.1</ele>
        <time>2022-04-15T09:40:02Z</time>
      </trkpt>
      <trkpt lat="45.44516" lon="5.74322">
        <ele>393.3</ele>
        <time>2022-04-15T09:40:03Z</time>
      </trkpt>
      <trkpt lat="45.44517" lon="5.74322">
        <ele>393.3</ele>
        <time>2022-04-15T09:40:04Z</time>
      </trkpt>
      <trkpt lat="45.4452" lon="5.74321">
        <ele>393.5</ele>
        <time>2022-04-15T09:40:05Z</time>
      </trkpt>
      <trkpt lat="45.44524" lon="5.74321">
        <ele>393.7</ele>
        <time>2022-04-15T09:40:07Z</time>
      </trkpt>
      <trkpt lat="45.44527" lon="5.7432">
        <ele>393.8</ele>
        <time>2022-04-15T09:40:08Z</time>
      </trkpt>
      <trkpt lat="45.44528" lon="5.7432">
        <ele>393.8</ele>
        <time>2022-04-15T09:40:09Z</time>
      </trkpt>
      <trkpt lat="45.44532" lon="5.74319">
        <ele>394</ele>
        <time>2022-04-15T09:40:10Z</time>
      </trkpt>
      <trkpt lat="45.44533" lon="5.74318">
        <ele>394</ele>
        <time>2022-04-15T09:40:11Z</time>
      </trkpt>
      <trkpt lat="45.44537" lon="5.74318">
        <ele>394.2</ele>
        <time>2022-04-15T09:40:13Z</time>
      </trkpt>
      <trkpt lat="45.44539" lon="5.74318">
        <ele>394.3</ele>
        <time>2022-04-15T09:40:14Z</time>
      </trkpt>
      <trkpt lat="45.44543" lon="5.74317">
        <ele>394.5</ele>
        <time>2022-04-15T09:40:15Z</time>
      </trkpt>
      <trkpt lat="45.44545" lon="5.74317">
        <ele>394.6</ele>
        <time>2022-04-15T09:40:16Z</time>
      </trkpt>
      <trkpt lat="45.44548" lon="5.74317">
        <ele>394.7</ele>
        <time>2022-04-15T09:40:18Z</time>
      </trkpt>
      <trkpt lat="45.44551" lon="5.74316">
        <ele>394.9</ele>
        <time>2022-04-15T09:40:19Z</time>
      </trkpt>
      <trkpt lat="45.44552" lon="5.74316">
        <ele>394.9</ele>
        <time>2022-04-15T09:40:20Z</time>
      </trkpt>
      <trkpt lat="45.44557" lon="5.74316">
        <ele>395.1</ele>
        <time>2022-04-15T09:40:22Z</time>
      </trkpt>
      <trkpt lat="45.44561" lon="5.74315">
        <ele>395.3</ele>
        <time>2022-04-15T09:40:23Z</time>
      </trkpt>
      <trkpt lat="45.44563" lon="5.74314">
        <ele>395.4</ele>
        <time>2022-04-15T09:40:25Z</time>
      </trkpt>
      <trkpt lat="45.44568" lon="5.74313">
        <ele>395.6</ele>
        <time>2022-04-15T09:40:27Z</time>
      </trkpt>
      <trkpt lat="45.4457" lon="5.74312">
        <ele>395.7</ele>
        <time>2022-04-15T09:40:28Z</time>
      </trkpt>
      <trkpt lat="45.44571" lon="5.74312">
        <ele>395.7</ele>
        <time>2022-04-15T09:40:29Z</time>
      </trkpt>
      <trkpt lat="45.44574" lon="5.74311">
        <ele>395.8</ele>
        <time>2022-04-15T09:40:30Z</time>
      </trkpt>
      <trkpt lat="45.44575" lon="5.74311">
        <ele>395.9</ele>
        <time>2022-04-15T09:40:31Z</time>
      </trkpt>
      <trkpt lat="45.44578" lon="5.74309">
        <ele>395.9</ele>
        <time>2022-04-15T09:40:32Z</time>
      </trkpt>
      <trkpt lat="45.44582" lon="5.74308">
        <ele>396.1</ele>
        <time>2022-04-15T09:40:34Z</time>
      </trkpt>
      <trkpt lat="45.44585" lon="5.74306">
        <ele>396.2</ele>
        <time>2022-04-15T09:40:35Z</time>
      </trkpt>
      <trkpt lat="45.44586" lon="5.74305">
        <ele>396.3</ele>
        <time>2022-04-15T09:40:36Z</time>
      </trkpt>
      <trkpt lat="45.44588" lon="5.74302">
        <ele>396.4</ele>
        <time>2022-04-15T09:40:37Z</time>
      </trkpt>
      <trkpt lat="45.44589" lon="5.74301">
        <ele>396.4</ele>
        <time>2022-04-15T09:40:38Z</time>
      </trkpt>
      <trkpt lat="45.44591" lon="5.74298">
        <ele>396.5</ele>
        <time>2022-04-15T09:40:39Z</time>
      </trkpt>
      <trkpt lat="45.44594" lon="5.74293">
        <ele>396.6</ele>
        <time>2022-04-15T09:40:40Z</time>
      </trkpt>
      <trkpt lat="45.44595" lon="5.74292">
        <ele>396.7</ele>
        <time>2022-04-15T09:40:41Z</time>
      </trkpt>
      <trkpt lat="45.44599" lon="5.74287">
        <ele>396.8</ele>
        <time>2022-04-15T09:40:43Z</time>
      </trkpt>
      <trkpt lat="45.44602" lon="5.74282">
        <ele>396.9</ele>
        <time>2022-04-15T09:40:44Z</time>
      </trkpt>
      <trkpt lat="45.44603" lon="5.7428">
        <ele>397</ele>
        <time>2022-04-15T09:40:45Z</time>
      </trkpt>
      <trkpt lat="45.44607" lon="5.74274">
        <ele>397.1</ele>
        <time>2022-04-15T09:40:47Z</time>
      </trkpt>
      <trkpt lat="45.44609" lon="5.74272">
        <ele>397.2</ele>
        <time>2022-04-15T09:40:49Z</time>
      </trkpt>
      <trkpt lat="45.44612" lon="5.74268">
        <ele>397.3</ele>
        <time>2022-04-15T09:40:50Z</time>
      </trkpt>
      <trkpt lat="45.44613" lon="5.74267">
        <ele>397.3</ele>
        <time>2022-04-15T09:40:51Z</time>
      </trkpt>
      <trkpt lat="45.44615" lon="5.74264">
        <ele>397.4</ele>
        <time>2022-04-15T09:40:52Z</time>
      </trkpt>
      <trkpt lat="45.44618" lon="5.74261">
        <ele>397.5</ele>
        <time>2022-04-15T09:40:53Z</time>
      </trkpt>
      <trkpt lat="45.44619" lon="5.7426">
        <ele>397.5</ele>
        <time>2022-04-15T09:40:54Z</time>
      </trkpt>
      <trkpt lat="45.44622" lon="5.74257">
        <ele>397.6</ele>
        <time>2022-04-15T09:40:55Z</time>
      </trkpt>
      <trkpt lat="45.44623" lon="5.74256">
        <ele>397.6</ele>
        <time>2022-04-15T09:40:56Z</time>
      </trkpt>
      <trkpt lat="45.44626" lon="5.74253">
        <ele>397.8</ele>
        <time>2022-04-15T09:40:57Z</time>
      </trkpt>
      <trkpt lat="45.44627" lon="5.74252">
        <ele>397.8</ele>
        <time>2022-04-15T09:40:58Z</time>
      </trkpt>
      <trkpt lat="45.4463" lon="5.74251">
        <ele>397.9</ele>
        <time>2022-04-15T09:40:59Z</time>
      </trkpt>
      <trkpt lat="45.44631" lon="5.7425">
        <ele>397.9</ele>
        <time>2022-04-15T09:41:00Z</time>
      </trkpt>
      <trkpt lat="45.44634" lon="5.74248">
        <ele>398.1</ele>
        <time>2022-04-15T09:41:01Z</time>
      </trkpt>
      <trkpt lat="45.44635" lon="5.74247">
        <ele>398.1</ele>
        <time>2022-04-15T09:41:02Z</time>
      </trkpt>
      <trkpt lat="45.44638" lon="5.74245">
        <ele>398.2</ele>
        <time>2022-04-15T09:41:03Z</time>
      </trkpt>
      <trkpt lat="45.4464" lon="5.74243">
        <ele>398.3</ele>
        <time>2022-04-15T09:41:04Z</time>
      </trkpt>
      <trkpt lat="45.44642" lon="5.74242">
        <ele>398.4</ele>
        <time>2022-04-15T09:41:06Z</time>
      </trkpt>
      <trkpt lat="45.44644" lon="5.74243">
        <ele>398.5</ele>
        <time>2022-04-15T09:41:07Z</time>
      </trkpt>
      <trkpt lat="45.44648" lon="5.74241">
        <ele>398.7</ele>
        <time>2022-04-15T09:41:09Z</time>
      </trkpt>
      <trkpt lat="45.44651" lon="5.74239">
        <ele>398.9</ele>
        <time>2022-04-15T09:41:10Z</time>
      </trkpt>
      <trkpt lat="45.44655" lon="5.74238">
        <ele>399.1</ele>
        <time>2022-04-15T09:41:12Z</time>
      </trkpt>
      <trkpt lat="45.44656" lon="5.74238">
        <ele>399.2</ele>
        <time>2022-04-15T09:41:13Z</time>
      </trkpt>
      <trkpt lat="45.44659" lon="5.74236">
        <ele>399.4</ele>
        <time>2022-04-15T09:41:14Z</time>
      </trkpt>
      <trkpt lat="45.44662" lon="5.74235">
        <ele>399.5</ele>
        <time>2022-04-15T09:41:16Z</time>
      </trkpt>
      <trkpt lat="45.44666" lon="5.74233">
        <ele>399.8</ele>
        <time>2022-04-15T09:41:18Z</time>
      </trkpt>
      <trkpt lat="45.4467" lon="5.74232">
        <ele>400.1</ele>
        <time>2022-04-15T09:41:20Z</time>
      </trkpt>
      <trkpt lat="45.44674" lon="5.74231">
        <ele>400.4</ele>
        <time>2022-04-15T09:41:22Z</time>
      </trkpt>
      <trkpt lat="45.44676" lon="5.7423">
        <ele>400.5</ele>
        <time>2022-04-15T09:41:23Z</time>
      </trkpt>
      <trkpt lat="45.44679" lon="5.74228">
        <ele>400.8</ele>
        <time>2022-04-15T09:41:25Z</time>
      </trkpt>
      <trkpt lat="45.44683" lon="5.74226">
        <ele>401.1</ele>
        <time>2022-04-15T09:41:27Z</time>
      </trkpt>
      <trkpt lat="45.44686" lon="5.74226">
        <ele>401.3</ele>
        <time>2022-04-15T09:41:28Z</time>
      </trkpt>
      <trkpt lat="45.4469" lon="5.74224">
        <ele>401.6</ele>
        <time>2022-04-15T09:41:30Z</time>
      </trkpt>
      <trkpt lat="45.44692" lon="5.74224">
        <ele>401.7</ele>
        <time>2022-04-15T09:41:31Z</time>
      </trkpt>
      <trkpt lat="45.44693" lon="5.74223">
        <ele>401.8</ele>
        <time>2022-04-15T09:41:32Z</time>
      </trkpt>
      <trkpt lat="45.44696" lon="5.74222">
        <ele>402</ele>
        <time>2022-04-15T09:41:34Z</time>
      </trkpt>
      <trkpt lat="45.44696" lon="5.74222">
        <ele>402</ele>
        <time>2022-04-15T09:41:35Z</time>
      </trkpt>
      <trkpt lat="45.44699" lon="5.74221">
        <ele>402.2</ele>
        <time>2022-04-15T09:41:36Z</time>
      </trkpt>
      <trkpt lat="45.447" lon="5.74221">
        <ele>402.3</ele>
        <time>2022-04-15T09:41:37Z</time>
      </trkpt>
      <trkpt lat="45.44705" lon="5.74218">
        <ele>402.6</ele>
        <time>2022-04-15T09:41:39Z</time>
      </trkpt>
      <trkpt lat="45.44706" lon="5.74218">
        <ele>402.8</ele>
        <time>2022-04-15T09:41:41Z</time>
      </trkpt>
      <trkpt lat="45.44708" lon="5.74217">
        <ele>402.9</ele>
        <time>2022-04-15T09:41:42Z</time>
      </trkpt>
      <trkpt lat="45.4471" lon="5.74216">
        <ele>403</ele>
        <time>2022-04-15T09:41:43Z</time>
      </trkpt>
      <trkpt lat="45.44714" lon="5.74215">
        <ele>403.3</ele>
        <time>2022-04-15T09:41:45Z</time>
      </trkpt>
      <trkpt lat="45.44716" lon="5.74214">
        <ele>403.5</ele>
        <time>2022-04-15T09:41:47Z</time>
      </trkpt>
      <trkpt lat="45.44719" lon="5.74213">
        <ele>403.7</ele>
        <time>2022-04-15T09:41:49Z</time>
      </trkpt>
      <trkpt lat="45.44721" lon="5.74213">
        <ele>403.9</ele>
        <time>2022-04-15T09:41:50Z</time>
      </trkpt>
      <trkpt lat="45.44723" lon="5.74213">
        <ele>404</ele>
        <time>2022-04-15T09:41:52Z</time>
      </trkpt>
      <trkpt lat="45.44726" lon="5.74212">
        <ele>404.2</ele>
        <time>2022-04-15T09:41:53Z</time>
      </trkpt>
      <trkpt lat="45.44727" lon="5.74212">
        <ele>404.3</ele>
        <time>2022-04-15T09:41:54Z</time>
      </trkpt>
      <trkpt lat="45.4473" lon="5.74212">
        <ele>404.5</ele>
        <time>2022-04-15T09:41:55Z</time>
      </trkpt>
      <trkpt lat="45.44732" lon="5.74211">
        <ele>404.6</ele>
        <time>2022-04-15T09:41:57Z</time>
      </trkpt>
      <trkpt lat="45.44735" lon="5.7421">
        <ele>404.9</ele>
        <time>2022-04-15T09:41:59Z</time>
      </trkpt>
      <trkpt lat="45.44737" lon="5.74208">
        <ele>405.1</ele>
        <time>2022-04-15T09:42:00Z</time>
      </trkpt>
      <trkpt lat="45.44739" lon="5.74207">
        <ele>405.2</ele>
        <time>2022-04-15T09:42:02Z</time>
      </trkpt>
      <trkpt lat="45.44743" lon="5.74206">
        <ele>405.5</ele>
        <time>2022-04-15T09:42:04Z</time>
      </trkpt>
      <trkpt lat="45.44744" lon="5.74206">
        <ele>405.6</ele>
        <time>2022-04-15T09:42:05Z</time>
      </trkpt>
      <trkpt lat="45.44747" lon="5.74206">
        <ele>405.8</ele>
        <time>2022-04-15T09:42:07Z</time>
      </trkpt>
      <trkpt lat="45.44748" lon="5.74206">
        <ele>405.9</ele>
        <time>2022-04-15T09:42:08Z</time>
      </trkpt>
      <trkpt lat="45.44752" lon="5.74207">
        <ele>406.2</ele>
        <time>2022-04-15T09:42:10Z</time>
      </trkpt>
      <trkpt lat="45.44754" lon="5.74207">
        <ele>406.4</ele>
        <time>2022-04-15T09:42:12Z</time>
      </trkpt>
      <trkpt lat="45.44757" lon="5.74208">
        <ele>406.6</ele>
        <time>2022-04-15T09:42:14Z</time>
      </trkpt>
      <trkpt lat="45.44759" lon="5.74207">
        <ele>406.7</ele>
        <time>2022-04-15T09:42:15Z</time>
      </trkpt>
      <trkpt lat="45.44761" lon="5.74207">
        <ele>406.9</ele>
        <time>2022-04-15T09:42:16Z</time>
      </trkpt>
      <trkpt lat="45.44762" lon="5.74207">
        <ele>407</ele>
        <time>2022-04-15T09:42:17Z</time>
      </trkpt>
      <trkpt lat="45.44764" lon="5.74207">
        <ele>407.1</ele>
        <time>2022-04-15T09:42:18Z</time>
      </trkpt>
      <trkpt lat="45.44766" lon="5.74208">
        <ele>407.3</ele>
        <time>2022-04-15T09:42:20Z</time>
      </trkpt>
      <trkpt lat="45.44769" lon="5.74207">
        <ele>407.5</ele>
        <time>2022-04-15T09:42:22Z</time>
      </trkpt>
      <trkpt lat="45.44771" lon="5.74207">
        <ele>407.6</ele>
        <time>2022-04-15T09:42:23Z</time>
      </trkpt>
      <trkpt lat="45.44774" lon="5.74208">
        <ele>407.9</ele>
        <time>2022-04-15T09:42:25Z</time>
      </trkpt>
      <trkpt lat="45.44777" lon="5.74209">
        <ele>408.1</ele>
        <time>2022-04-15T09:42:26Z</time>
      </trkpt>
      <trkpt lat="45.44778" lon="5.7421">
        <ele>408.2</ele>
        <time>2022-04-15T09:42:27Z</time>
      </trkpt>
      <trkpt lat="45.4478" lon="5.7421">
        <ele>408.4</ele>
        <time>2022-04-15T09:42:29Z</time>
      </trkpt>
      <trkpt lat="45.44781" lon="5.74211">
        <ele>408.5</ele>
        <time>2022-04-15T09:42:30Z</time>
      </trkpt>
      <trkpt lat="45.44782" lon="5.74211">
        <ele>408.5</ele>
        <time>2022-04-15T09:42:31Z</time>
      </trkpt>
      <trkpt lat="45.44785" lon="5.74212">
        <ele>408.8</ele>
        <time>2022-04-15T09:42:33Z</time>
      </trkpt>
      <trkpt lat="45.44786" lon="5.74211">
        <ele>408.9</ele>
        <time>2022-04-15T09:42:34Z</time>
      </trkpt>
      <trkpt lat="45.44788" lon="5.74212">
        <ele>409.1</ele>
        <time>2022-04-15T09:42:36Z</time>
      </trkpt>
      <trkpt lat="45.44789" lon="5.74212">
        <ele>409.2</ele>
        <time>2022-04-15T09:42:37Z</time>
      </trkpt>
      <trkpt lat="45.4479" lon="5.74211">
        <ele>409.3</ele>
        <time>2022-04-15T09:42:38Z</time>
      </trkpt>
      <trkpt lat="45.44791" lon="5.74212">
        <ele>409.4</ele>
        <time>2022-04-15T09:42:39Z</time>
      </trkpt>
      <trkpt lat="45.44793" lon="5.74212">
        <ele>409.5</ele>
        <time>2022-04-15T09:42:40Z</time>
      </trkpt>
      <trkpt lat="45.44795" lon="5.74211">
        <ele>409.7</ele>
        <time>2022-04-15T09:42:41Z</time>
      </trkpt>
      <trkpt lat="45.44798" lon="5.74212">
        <ele>410</ele>
        <time>2022-04-15T09:42:43Z</time>
      </trkpt>
      <trkpt lat="45.44799" lon="5.74212">
        <ele>410.1</ele>
        <time>2022-04-15T09:42:44Z</time>
      </trkpt>
      <trkpt lat="45.44801" lon="5.74212">
        <ele>410.2</ele>
        <time>2022-04-15T09:42:45Z</time>
      </trkpt>
      <trkpt lat="45.44803" lon="5.74214">
        <ele>410.4</ele>
        <time>2022-04-15T09:42:47Z</time>
      </trkpt>
      <trkpt lat="45.44805" lon="5.74214">
        <ele>410.6</ele>
        <time>2022-04-15T09:42:48Z</time>
      </trkpt>
      <trkpt lat="45.44808" lon="5.74213">
        <ele>410.8</ele>
        <time>2022-04-15T09:42:50Z</time>
      </trkpt>
      <trkpt lat="45.4481" lon="5.74213">
        <ele>411</ele>
        <time>2022-04-15T09:42:51Z</time>
      </trkpt>
      <trkpt lat="45.44812" lon="5.74214">
        <ele>411.2</ele>
        <time>2022-04-15T09:42:53Z</time>
      </trkpt>
      <trkpt lat="45.44814" lon="5.74214">
        <ele>411.4</ele>
        <time>2022-04-15T09:42:54Z</time>
      </trkpt>
      <trkpt lat="45.44817" lon="5.74215">
        <ele>411.6</ele>
        <time>2022-04-15T09:42:56Z</time>
      </trkpt>
      <trkpt lat="45.4482" lon="5.74215">
        <ele>411.8</ele>
        <time>2022-04-15T09:42:58Z</time>
      </trkpt>
      <trkpt lat="45.44821" lon="5.74215">
        <ele>412</ele>
        <time>2022-04-15T09:42:59Z</time>
      </trkpt>
      <trkpt lat="45.44823" lon="5.74216">
        <ele>412.2</ele>
        <time>2022-04-15T09:43:00Z</time>
      </trkpt>
      <trkpt lat="45.44825" lon="5.74216">
        <ele>412.3</ele>
        <time>2022-04-15T09:43:01Z</time>
      </trkpt>
      <trkpt lat="45.44827" lon="5.74216">
        <ele>412.4</ele>
        <time>2022-04-15T09:43:02Z</time>
      </trkpt>
      <trkpt lat="45.44829" lon="5.74219">
        <ele>412.7</ele>
        <time>2022-04-15T09:43:04Z</time>
      </trkpt>
      <trkpt lat="45.44829" lon="5.74219">
        <ele>412.7</ele>
        <time>2022-04-15T09:43:05Z</time>
      </trkpt>
      <trkpt lat="45.44833" lon="5.74221">
        <ele>413.1</ele>
        <time>2022-04-15T09:43:07Z</time>
      </trkpt>
      <trkpt lat="45.44834" lon="5.74222">
        <ele>413.2</ele>
        <time>2022-04-15T09:43:08Z</time>
      </trkpt>
      <trkpt lat="45.44836" lon="5.74222">
        <ele>413.4</ele>
        <time>2022-04-15T09:43:10Z</time>
      </trkpt>
      <trkpt lat="45.44838" lon="5.74222">
        <ele>413.5</ele>
        <time>2022-04-15T09:43:11Z</time>
      </trkpt>
      <trkpt lat="45.44839" lon="5.74223">
        <ele>413.6</ele>
        <time>2022-04-15T09:43:12Z</time>
      </trkpt>
      <trkpt lat="45.4484" lon="5.74223">
        <ele>413.7</ele>
        <time>2022-04-15T09:43:13Z</time>
      </trkpt>
      <trkpt lat="45.44843" lon="5.74224">
        <ele>413.9</ele>
        <time>2022-04-15T09:43:14Z</time>
      </trkpt>
      <trkpt lat="45.44844" lon="5.74224">
        <ele>414</ele>
        <time>2022-04-15T09:43:15Z</time>
      </trkpt>
      <trkpt lat="45.44847" lon="5.74223">
        <ele>414.3</ele>
        <time>2022-04-15T09:43:16Z</time>
      </trkpt>
      <trkpt lat="45.44848" lon="5.74223">
        <ele>414.4</ele>
        <time>2022-04-15T09:43:18Z</time>
      </trkpt>
      <trkpt lat="45.4485" lon="5.74222">
        <ele>414.5</ele>
        <time>2022-04-15T09:43:19Z</time>
      </trkpt>
      <trkpt lat="45.44851" lon="5.74222">
        <ele>414.6</ele>
        <time>2022-04-15T09:43:20Z</time>
      </trkpt>
      <trkpt lat="45.44851" lon="5.74225">
        <ele>414.8</ele>
        <time>2022-04-15T09:43:21Z</time>
      </trkpt>
      <trkpt lat="45.44851" lon="5.74226">
        <ele>414.8</ele>
        <time>2022-04-15T09:43:23Z</time>
      </trkpt>
      <trkpt lat="45.44851" lon="5.74228">
        <ele>414.9</ele>
        <time>2022-04-15T09:43:24Z</time>
      </trkpt>
      <trkpt lat="45.44852" lon="5.74228">
        <ele>415</ele>
        <time>2022-04-15T09:43:25Z</time>
      </trkpt>
      <trkpt lat="45.44857" lon="5.74226">
        <ele>415.4</ele>
        <time>2022-04-15T09:43:27Z</time>
      </trkpt>
      <trkpt lat="45.4486" lon="5.74225">
        <ele>415.7</ele>
        <time>2022-04-15T09:43:28Z</time>
      </trkpt>
      <trkpt lat="45.44861" lon="5.74225">
        <ele>415.7</ele>
        <time>2022-04-15T09:43:29Z</time>
      </trkpt>
      <trkpt lat="45.44864" lon="5.74225">
        <ele>416</ele>
        <time>2022-04-15T09:43:31Z</time>
      </trkpt>
      <trkpt lat="45.44866" lon="5.74225">
        <ele>416.1</ele>
        <time>2022-04-15T09:43:32Z</time>
      </trkpt>
      <trkpt lat="45.44869" lon="5.74225">
        <ele>416.4</ele>
        <time>2022-04-15T09:43:34Z</time>
      </trkpt>
      <trkpt lat="45.44873" lon="5.74225">
        <ele>416.7</ele>
        <time>2022-04-15T09:43:35Z</time>
      </trkpt>
      <trkpt lat="45.44874" lon="5.74225">
        <ele>416.8</ele>
        <time>2022-04-15T09:43:36Z</time>
      </trkpt>
      <trkpt lat="45.44876" lon="5.74226">
        <ele>417</ele>
        <time>2022-04-15T09:43:37Z</time>
      </trkpt>
      <trkpt lat="45.44879" lon="5.74225">
        <ele>417.2</ele>
        <time>2022-04-15T09:43:39Z</time>
      </trkpt>
      <trkpt lat="45.44882" lon="5.74225">
        <ele>417.5</ele>
        <time>2022-04-15T09:43:40Z</time>
      </trkpt>
      <trkpt lat="45.44884" lon="5.74226">
        <ele>417.6</ele>
        <time>2022-04-15T09:43:41Z</time>
      </trkpt>
      <trkpt lat="45.44886" lon="5.74227">
        <ele>417.8</ele>
        <time>2022-04-15T09:43:43Z</time>
      </trkpt>
      <trkpt lat="45.44888" lon="5.74226">
        <ele>417.9</ele>
        <time>2022-04-15T09:43:44Z</time>
      </trkpt>
      <trkpt lat="45.4489" lon="5.74226">
        <ele>418.1</ele>
        <time>2022-04-15T09:43:46Z</time>
      </trkpt>
      <trkpt lat="45.44891" lon="5.74226">
        <ele>418.2</ele>
        <time>2022-04-15T09:43:47Z</time>
      </trkpt>
      <trkpt lat="45.44893" lon="5.74227">
        <ele>418.3</ele>
        <time>2022-04-15T09:43:48Z</time>
      </trkpt>
      <trkpt lat="45.44895" lon="5.74227">
        <ele>418.4</ele>
        <time>2022-04-15T09:43:49Z</time>
      </trkpt>
      <trkpt lat="45.44896" lon="5.74227">
        <ele>418.5</ele>
        <time>2022-04-15T09:43:50Z</time>
      </trkpt>
      <trkpt lat="45.44898" lon="5.74227">
        <ele>418.7</ele>
        <time>2022-04-15T09:43:51Z</time>
      </trkpt>
      <trkpt lat="45.44901" lon="5.74227">
        <ele>418.8</ele>
        <time>2022-04-15T09:43:52Z</time>
      </trkpt>
      <trkpt lat="45.44902" lon="5.74227">
        <ele>419</ele>
        <time>2022-04-15T09:43:54Z</time>
      </trkpt>
      <trkpt lat="45.44904" lon="5.74227">
        <ele>419.1</ele>
        <time>2022-04-15T09:43:55Z</time>
      </trkpt>
      <trkpt lat="45.44906" lon="5.74226">
        <ele>419.2</ele>
        <time>2022-04-15T09:43:56Z</time>
      </trkpt>
      <trkpt lat="45.4491" lon="5.74225">
        <ele>419.5</ele>
        <time>2022-04-15T09:43:57Z</time>
      </trkpt>
      <trkpt lat="45.44911" lon="5.74225">
        <ele>419.6</ele>
        <time>2022-04-15T09:43:58Z</time>
      </trkpt>
      <trkpt lat="45.44913" lon="5.74225">
        <ele>419.7</ele>
        <time>2022-04-15T09:43:59Z</time>
      </trkpt>
      <trkpt lat="45.44915" lon="5.74225">
        <ele>419.8</ele>
        <time>2022-04-15T09:44:01Z</time>
      </trkpt>
      <trkpt lat="45.44917" lon="5.74224">
        <ele>419.9</ele>
        <time>2022-04-15T09:44:02Z</time>
      </trkpt>
      <trkpt lat="45.44919" lon="5.74223">
        <ele>420.1</ele>
        <time>2022-04-15T09:44:04Z</time>
      </trkpt>
      <trkpt lat="45.44921" lon="5.74222">
        <ele>420.2</ele>
        <time>2022-04-15T09:44:05Z</time>
      </trkpt>
      <trkpt lat="45.44923" lon="5.74222">
        <ele>420.3</ele>
        <time>2022-04-15T09:44:06Z</time>
      </trkpt>
      <trkpt lat="45.44926" lon="5.7422">
        <ele>420.5</ele>
        <time>2022-04-15T09:44:07Z</time>
      </trkpt>
      <trkpt lat="45.44927" lon="5.7422">
        <ele>420.6</ele>
        <time>2022-04-15T09:44:08Z</time>
      </trkpt>
      <trkpt lat="45.44929" lon="5.74219">
        <ele>420.7</ele>
        <time>2022-04-15T09:44:09Z</time>
      </trkpt>
      <trkpt lat="45.44931" lon="5.74218">
        <ele>420.8</ele>
        <time>2022-04-15T09:44:11Z</time>
      </trkpt>
      <trkpt lat="45.44933" lon="5.74218">
        <ele>420.9</ele>
        <time>2022-04-15T09:44:12Z</time>
      </trkpt>
      <trkpt lat="45.44935" lon="5.74217">
        <ele>421</ele>
        <time>2022-04-15T09:44:13Z</time>
      </trkpt>
      <trkpt lat="45.44936" lon="5.74217">
        <ele>421.1</ele>
        <time>2022-04-15T09:44:14Z</time>
      </trkpt>
      <trkpt lat="45.44938" lon="5.74216">
        <ele>421.2</ele>
        <time>2022-04-15T09:44:15Z</time>
      </trkpt>
      <trkpt lat="45.44942" lon="5.74214">
        <ele>421.4</ele>
        <time>2022-04-15T09:44:17Z</time>
      </trkpt>
      <trkpt lat="45.44946" lon="5.74213">
        <ele>421.6</ele>
        <time>2022-04-15T09:44:19Z</time>
      </trkpt>
      <trkpt lat="45.4495" lon="5.74212">
        <ele>421.7</ele>
        <time>2022-04-15T09:44:21Z</time>
      </trkpt>
      <trkpt lat="45.44953" lon="5.7421">
        <ele>421.9</ele>
        <time>2022-04-15T09:44:22Z</time>
      </trkpt>
      <trkpt lat="45.44954" lon="5.7421">
        <ele>421.9</ele>
        <time>2022-04-15T09:44:23Z</time>
      </trkpt>
      <trkpt lat="45.44961" lon="5.74206">
        <ele>422.2</ele>
        <time>2022-04-15T09:44:25Z</time>
      </trkpt>
      <trkpt lat="45.44965" lon="5.74205">
        <ele>422.3</ele>
        <time>2022-04-15T09:44:27Z</time>
      </trkpt>
      <trkpt lat="45.44969" lon="5.74205">
        <ele>422.4</ele>
        <time>2022-04-15T09:44:28Z</time>
      </trkpt>
      <trkpt lat="45.44972" lon="5.74204">
        <ele>422.5</ele>
        <time>2022-04-15T09:44:30Z</time>
      </trkpt>
      <trkpt lat="45.44973" lon="5.74203">
        <ele>422.6</ele>
        <time>2022-04-15T09:44:31Z</time>
      </trkpt>
      <trkpt lat="45.44976" lon="5.74203">
        <ele>422.6</ele>
        <time>2022-04-15T09:44:32Z</time>
      </trkpt>
      <trkpt lat="45.4498" lon="5.74202">
        <ele>422.8</ele>
        <time>2022-04-15T09:44:34Z</time>
      </trkpt>
      <trkpt lat="45.44985" lon="5.74201">
        <ele>422.9</ele>
        <time>2022-04-15T09:44:35Z</time>
      </trkpt>
      <trkpt lat="45.44987" lon="5.742">
        <ele>422.9</ele>
        <time>2022-04-15T09:44:36Z</time>
      </trkpt>
      <trkpt lat="45.44992" lon="5.74199">
        <ele>423.1</ele>
        <time>2022-04-15T09:44:38Z</time>
      </trkpt>
      <trkpt lat="45.44994" lon="5.74199">
        <ele>423.1</ele>
        <time>2022-04-15T09:44:39Z</time>
      </trkpt>
      <trkpt lat="45.44995" lon="5.74198">
        <ele>423.2</ele>
        <time>2022-04-15T09:44:40Z</time>
      </trkpt>
      <trkpt lat="45.45" lon="5.74197">
        <ele>423.3</ele>
        <time>2022-04-15T09:44:42Z</time>
      </trkpt>
      <trkpt lat="45.45002" lon="5.74197">
        <ele>423.4</ele>
        <time>2022-04-15T09:44:43Z</time>
      </trkpt>
      <trkpt lat="45.45007" lon="5.74195">
        <ele>423.6</ele>
        <time>2022-04-15T09:44:45Z</time>
      </trkpt>
      <trkpt lat="45.45012" lon="5.74194">
        <ele>423.7</ele>
        <time>2022-04-15T09:44:47Z</time>
      </trkpt>
      <trkpt lat="45.45015" lon="5.74193">
        <ele>423.8</ele>
        <time>2022-04-15T09:44:48Z</time>
      </trkpt>
      <trkpt lat="45.45018" lon="5.74192">
        <ele>423.9</ele>
        <time>2022-04-15T09:44:49Z</time>
      </trkpt>
      <trkpt lat="45.45023" lon="5.74191">
        <ele>424.1</ele>
        <time>2022-04-15T09:44:51Z</time>
      </trkpt>
      <trkpt lat="45.45027" lon="5.7419">
        <ele>424.2</ele>
        <time>2022-04-15T09:44:52Z</time>
      </trkpt>
      <trkpt lat="45.45031" lon="5.74189">
        <ele>424.4</ele>
        <time>2022-04-15T09:44:53Z</time>
      </trkpt>
      <trkpt lat="45.45032" lon="5.74189">
        <ele>424.4</ele>
        <time>2022-04-15T09:44:54Z</time>
      </trkpt>
      <trkpt lat="45.45036" lon="5.74188">
        <ele>424.5</ele>
        <time>2022-04-15T09:44:56Z</time>
      </trkpt>
      <trkpt lat="45.45039" lon="5.74187">
        <ele>424.6</ele>
        <time>2022-04-15T09:44:57Z</time>
      </trkpt>
      <trkpt lat="45.45043" lon="5.74187">
        <ele>424.7</ele>
        <time>2022-04-15T09:44:58Z</time>
      </trkpt>
      <trkpt lat="45.45045" lon="5.74187">
        <ele>424.8</ele>
        <time>2022-04-15T09:44:59Z</time>
      </trkpt>
      <trkpt lat="45.45048" lon="5.74187">
        <ele>424.8</ele>
        <time>2022-04-15T09:45:00Z</time>
      </trkpt>
      <trkpt lat="45.45051" lon="5.74187">
        <ele>424.9</ele>
        <time>2022-04-15T09:45:02Z</time>
      </trkpt>
      <trkpt lat="45.45058" lon="5.74187">
        <ele>424.9</ele>
        <time>2022-04-15T09:45:04Z</time>
      </trkpt>
      <trkpt lat="45.45062" lon="5.74188">
        <ele>425</ele>
        <time>2022-04-15T09:45:06Z</time>
      </trkpt>
      <trkpt lat="45.45066" lon="5.74187">
        <ele>425.1</ele>
        <time>2022-04-15T09:45:07Z</time>
      </trkpt>
      <trkpt lat="45.45069" lon="5.74187">
        <ele>425.1</ele>
        <time>2022-04-15T09:45:08Z</time>
      </trkpt>
      <trkpt lat="45.45073" lon="5.74186">
        <ele>425.2</ele>
        <time>2022-04-15T09:45:10Z</time>
      </trkpt>
      <trkpt lat="45.45076" lon="5.74184">
        <ele>425.2</ele>
        <time>2022-04-15T09:45:11Z</time>
      </trkpt>
      <trkpt lat="45.45078" lon="5.74184">
        <ele>425.2</ele>
        <time>2022-04-15T09:45:12Z</time>
      </trkpt>
      <trkpt lat="45.45081" lon="5.74182">
        <ele>425.3</ele>
        <time>2022-04-15T09:45:13Z</time>
      </trkpt>
      <trkpt lat="45.45082" lon="5.74181">
        <ele>425.3</ele>
        <time>2022-04-15T09:45:14Z</time>
      </trkpt>
      <trkpt lat="45.45086" lon="5.7418">
        <ele>425.3</ele>
        <time>2022-04-15T09:45:15Z</time>
      </trkpt>
      <trkpt lat="45.4509" lon="5.74176">
        <ele>425.3</ele>
        <time>2022-04-15T09:45:17Z</time>
      </trkpt>
      <trkpt lat="45.45093" lon="5.74172">
        <ele>425.3</ele>
        <time>2022-04-15T09:45:18Z</time>
      </trkpt>
      <trkpt lat="45.45098" lon="5.74169">
        <ele>425.2</ele>
        <time>2022-04-15T09:45:20Z</time>
      </trkpt>
      <trkpt lat="45.45099" lon="5.74167">
        <ele>425.2</ele>
        <time>2022-04-15T09:45:21Z</time>
      </trkpt>
      <trkpt lat="45.45101" lon="5.74166">
        <ele>425.2</ele>
        <time>2022-04-15T09:45:22Z</time>
      </trkpt>
      <trkpt lat="45.45109" lon="5.74162">
        <ele>425.1</ele>
        <time>2022-04-15T09:45:24Z</time>
      </trkpt>
      <trkpt lat="45.45112" lon="5.7416">
        <ele>425.1</ele>
        <time>2022-04-15T09:45:25Z</time>
      </trkpt>
      <trkpt lat="45.45117" lon="5.74157">
        <ele>425</ele>
        <time>2022-04-15T09:45:27Z</time>
      </trkpt>
      <trkpt lat="45.4512" lon="5.74156">
        <ele>425</ele>
        <time>2022-04-15T09:45:28Z</time>
      </trkpt>
      <trkpt lat="45.45124" lon="5.74155">
        <ele>425</ele>
        <time>2022-04-15T09:45:29Z</time>
      </trkpt>
      <trkpt lat="45.45131" lon="5.74153">
        <ele>425.1</ele>
        <time>2022-04-15T09:45:30Z</time>
      </trkpt>
      <trkpt lat="45.45133" lon="5.74152">
        <ele>425.1</ele>
        <time>2022-04-15T09:45:32Z</time>
      </trkpt>
      <trkpt lat="45.45138" lon="5.74151">
        <ele>425.1</ele>
        <time>2022-04-15T09:45:33Z</time>
      </trkpt>
      <trkpt lat="45.45142" lon="5.74148">
        <ele>425.2</ele>
        <time>2022-04-15T09:45:34Z</time>
      </trkpt>
      <trkpt lat="45.45147" lon="5.74147">
        <ele>425.2</ele>
        <time>2022-04-15T09:45:35Z</time>
      </trkpt>
      <trkpt lat="45.45151" lon="5.74146">
        <ele>425.2</ele>
        <time>2022-04-15T09:45:37Z</time>
      </trkpt>
      <trkpt lat="45.45156" lon="5.74144">
        <ele>425.3</ele>
        <time>2022-04-15T09:45:38Z</time>
      </trkpt>
      <trkpt lat="45.45159" lon="5.74143">
        <ele>425.3</ele>
        <time>2022-04-15T09:45:39Z</time>
      </trkpt>
      <trkpt lat="45.45165" lon="5.74141">
        <ele>425.4</ele>
        <time>2022-04-15T09:45:41Z</time>
      </trkpt>
      <trkpt lat="45.45169" lon="5.7414">
        <ele>425.4</ele>
        <time>2022-04-15T09:45:42Z</time>
      </trkpt>
      <trkpt lat="45.45172" lon="5.74139">
        <ele>425.4</ele>
        <time>2022-04-15T09:45:43Z</time>
      </trkpt>
      <trkpt lat="45.45178" lon="5.74137">
        <ele>425.5</ele>
        <time>2022-04-15T09:45:45Z</time>
      </trkpt>
      <trkpt lat="45.45182" lon="5.74137">
        <ele>425.5</ele>
        <time>2022-04-15T09:45:46Z</time>
      </trkpt>
      <trkpt lat="45.45188" lon="5.74136">
        <ele>425.5</ele>
        <time>2022-04-15T09:45:47Z</time>
      </trkpt>
      <trkpt lat="45.45193" lon="5.74136">
        <ele>425.5</ele>
        <time>2022-04-15T09:45:49Z</time>
      </trkpt>
      <trkpt lat="45.45199" lon="5.74135">
        <ele>425.5</ele>
        <time>2022-04-15T09:45:50Z</time>
      </trkpt>
      <trkpt lat="45.45204" lon="5.74135">
        <ele>425.6</ele>
        <time>2022-04-15T09:45:52Z</time>
      </trkpt>
      <trkpt lat="45.45207" lon="5.74135">
        <ele>425.6</ele>
        <time>2022-04-15T09:45:53Z</time>
      </trkpt>
      <trkpt lat="45.45214" lon="5.74136">
        <ele>425.6</ele>
        <time>2022-04-15T09:45:55Z</time>
      </trkpt>
      <trkpt lat="45.45218" lon="5.74136">
        <ele>425.7</ele>
        <time>2022-04-15T09:45:56Z</time>
      </trkpt>
      <trkpt lat="45.45223" lon="5.74136">
        <ele>425.7</ele>
        <time>2022-04-15T09:45:57Z</time>
      </trkpt>
      <trkpt lat="45.45229" lon="5.74135">
        <ele>425.7</ele>
        <time>2022-04-15T09:45:59Z</time>
      </trkpt>
      <trkpt lat="45.45236" lon="5.74136">
        <ele>425.7</ele>
        <time>2022-04-15T09:46:01Z</time>
      </trkpt>
      <trkpt lat="45.4524" lon="5.74135">
        <ele>425.8</ele>
        <time>2022-04-15T09:46:02Z</time>
      </trkpt>
      <trkpt lat="45.45246" lon="5.74134">
        <ele>425.8</ele>
        <time>2022-04-15T09:46:04Z</time>
      </trkpt>
      <trkpt lat="45.45253" lon="5.74133">
        <ele>425.8</ele>
        <time>2022-04-15T09:46:06Z</time>
      </trkpt>
      <trkpt lat="45.45257" lon="5.74134">
        <ele>425.8</ele>
        <time>2022-04-15T09:46:07Z</time>
      </trkpt>
      <trkpt lat="45.45264" lon="5.74132">
        <ele>425.8</ele>
        <time>2022-04-15T09:46:08Z</time>
      </trkpt>
      <trkpt lat="45.45269" lon="5.74131">
        <ele>425.8</ele>
        <time>2022-04-15T09:46:10Z</time>
      </trkpt>
      <trkpt lat="45.45276" lon="5.74131">
        <ele>425.8</ele>
        <time>2022-04-15T09:46:11Z</time>
      </trkpt>
      <trkpt lat="45.45281" lon="5.7413">
        <ele>425.8</ele>
        <time>2022-04-15T09:46:13Z</time>
      </trkpt>
      <trkpt lat="45.45285" lon="5.74129">
        <ele>425.9</ele>
        <time>2022-04-15T09:46:14Z</time>
      </trkpt>
      <trkpt lat="45.45289" lon="5.74128">
        <ele>425.9</ele>
        <time>2022-04-15T09:46:15Z</time>
      </trkpt>
      <trkpt lat="45.45295" lon="5.74125">
        <ele>426.1</ele>
        <time>2022-04-15T09:46:17Z</time>
      </trkpt>
      <trkpt lat="45.45299" lon="5.74123">
        <ele>426.1</ele>
        <time>2022-04-15T09:46:18Z</time>
      </trkpt>
      <trkpt lat="45.45306" lon="5.7412">
        <ele>426.3</ele>
        <time>2022-04-15T09:46:19Z</time>
      </trkpt>
      <trkpt lat="45.4531" lon="5.74118">
        <ele>426.3</ele>
        <time>2022-04-15T09:46:21Z</time>
      </trkpt>
      <trkpt lat="45.45316" lon="5.74112">
        <ele>426.4</ele>
        <time>2022-04-15T09:46:23Z</time>
      </trkpt>
      <trkpt lat="45.45323" lon="5.74107">
        <ele>426.5</ele>
        <time>2022-04-15T09:46:25Z</time>
      </trkpt>
      <trkpt lat="45.45328" lon="5.74099">
        <ele>426.7</ele>
        <time>2022-04-15T09:46:27Z</time>
      </trkpt>
      <trkpt lat="45.45333" lon="5.74092">
        <ele>426.8</ele>
        <time>2022-04-15T09:46:29Z</time>
      </trkpt>
      <trkpt lat="45.45336" lon="5.74088">
        <ele>426.8</ele>
        <time>2022-04-15T09:46:30Z</time>
      </trkpt>
      <trkpt lat="45.45339" lon="5.74083">
        <ele>426.9</ele>
        <time>2022-04-15T09:46:31Z</time>
      </trkpt>
      <trkpt lat="45.45343" lon="5.74077">
        <ele>427</ele>
        <time>2022-04-15T09:46:33Z</time>
      </trkpt>
      <trkpt lat="45.45345" lon="5.74073">
        <ele>427</ele>
        <time>2022-04-15T09:46:34Z</time>
      </trkpt>
      <trkpt lat="45.45348" lon="5.74068">
        <ele>427.1</ele>
        <time>2022-04-15T09:46:35Z</time>
      </trkpt>
      <trkpt lat="45.45352" lon="5.74061">
        <ele>427.2</ele>
        <time>2022-04-15T09:46:37Z</time>
      </trkpt>
      <trkpt lat="45.45355" lon="5.74058">
        <ele>427.2</ele>
        <time>2022-04-15T09:46:38Z</time>
      </trkpt>
      <trkpt lat="45.45358" lon="5.74053">
        <ele>427.3</ele>
        <time>2022-04-15T09:46:39Z</time>
      </trkpt>
      <trkpt lat="45.45362" lon="5.74049">
        <ele>427.4</ele>
        <time>2022-04-15T09:46:40Z</time>
      </trkpt>
      <trkpt lat="45.45366" lon="5.74044">
        <ele>427.4</ele>
        <time>2022-04-15T09:46:41Z</time>
      </trkpt>
      <trkpt lat="45.45369" lon="5.7404">
        <ele>427.5</ele>
        <time>2022-04-15T09:46:43Z</time>
      </trkpt>
      <trkpt lat="45.45375" lon="5.74037">
        <ele>427.5</ele>
        <time>2022-04-15T09:46:44Z</time>
      </trkpt>
      <trkpt lat="45.45378" lon="5.74035">
        <ele>427.5</ele>
        <time>2022-04-15T09:46:46Z</time>
      </trkpt>
      <trkpt lat="45.45383" lon="5.74034">
        <ele>427.6</ele>
        <time>2022-04-15T09:46:47Z</time>
      </trkpt>
      <trkpt lat="45.4539" lon="5.74033">
        <ele>427.6</ele>
        <time>2022-04-15T09:46:49Z</time>
      </trkpt>
      <trkpt lat="45.45393" lon="5.74032">
        <ele>427.7</ele>
        <time>2022-04-15T09:46:50Z</time>
      </trkpt>
      <trkpt lat="45.45397" lon="5.74031">
        <ele>427.7</ele>
        <time>2022-04-15T09:46:51Z</time>
      </trkpt>
      <trkpt lat="45.454" lon="5.74031">
        <ele>427.8</ele>
        <time>2022-04-15T09:46:52Z</time>
      </trkpt>
      <trkpt lat="45.45407" lon="5.7403">
        <ele>427.9</ele>
        <time>2022-04-15T09:46:54Z</time>
      </trkpt>
      <trkpt lat="45.45413" lon="5.74029">
        <ele>427.9</ele>
        <time>2022-04-15T09:46:55Z</time>
      </trkpt>
      <trkpt lat="45.45417" lon="5.74029">
        <ele>428</ele>
        <time>2022-04-15T09:46:57Z</time>
      </trkpt>
      <trkpt lat="45.45423" lon="5.74028">
        <ele>428.1</ele>
        <time>2022-04-15T09:46:58Z</time>
      </trkpt>
      <trkpt lat="45.45428" lon="5.74027">
        <ele>428.1</ele>
        <time>2022-04-15T09:47:00Z</time>
      </trkpt>
      <trkpt lat="45.45431" lon="5.74026">
        <ele>428.2</ele>
        <time>2022-04-15T09:47:01Z</time>
      </trkpt>
      <trkpt lat="45.45435" lon="5.74026">
        <ele>428.2</ele>
        <time>2022-04-15T09:47:02Z</time>
      </trkpt>
      <trkpt lat="45.45444" lon="5.74023">
        <ele>428.4</ele>
        <time>2022-04-15T09:47:04Z</time>
      </trkpt>
      <trkpt lat="45.4545" lon="5.74022">
        <ele>428.5</ele>
        <time>2022-04-15T09:47:06Z</time>
      </trkpt>
      <trkpt lat="45.45455" lon="5.74022">
        <ele>428.6</ele>
        <time>2022-04-15T09:47:07Z</time>
      </trkpt>
      <trkpt lat="45.4546" lon="5.74021">
        <ele>428.7</ele>
        <time>2022-04-15T09:47:08Z</time>
      </trkpt>
      <trkpt lat="45.45464" lon="5.74021">
        <ele>428.8</ele>
        <time>2022-04-15T09:47:10Z</time>
      </trkpt>
      <trkpt lat="45.45468" lon="5.7402">
        <ele>428.9</ele>
        <time>2022-04-15T09:47:11Z</time>
      </trkpt>
      <trkpt lat="45.45471" lon="5.74019">
        <ele>428.9</ele>
        <time>2022-04-15T09:47:12Z</time>
      </trkpt>
      <trkpt lat="45.45475" lon="5.74019">
        <ele>429</ele>
        <time>2022-04-15T09:47:13Z</time>
      </trkpt>
      <trkpt lat="45.45482" lon="5.74017">
        <ele>429.2</ele>
        <time>2022-04-15T09:47:15Z</time>
      </trkpt>
      <trkpt lat="45.45485" lon="5.74016">
        <ele>429.2</ele>
        <time>2022-04-15T09:47:16Z</time>
      </trkpt>
      <trkpt lat="45.45492" lon="5.74015">
        <ele>429.3</ele>
        <time>2022-04-15T09:47:18Z</time>
      </trkpt>
      <trkpt lat="45.45496" lon="5.74014">
        <ele>429.4</ele>
        <time>2022-04-15T09:47:19Z</time>
      </trkpt>
      <trkpt lat="45.45503" lon="5.74011">
        <ele>429.5</ele>
        <time>2022-04-15T09:47:21Z</time>
      </trkpt>
      <trkpt lat="45.45507" lon="5.74009">
        <ele>429.5</ele>
        <time>2022-04-15T09:47:22Z</time>
      </trkpt>
      <trkpt lat="45.45511" lon="5.74008">
        <ele>429.6</ele>
        <time>2022-04-15T09:47:23Z</time>
      </trkpt>
      <trkpt lat="45.45515" lon="5.74007">
        <ele>429.7</ele>
        <time>2022-04-15T09:47:25Z</time>
      </trkpt>
      <trkpt lat="45.45518" lon="5.74006">
        <ele>429.8</ele>
        <time>2022-04-15T09:47:26Z</time>
      </trkpt>
      <trkpt lat="45.45522" lon="5.74005">
        <ele>429.8</ele>
        <time>2022-04-15T09:47:27Z</time>
      </trkpt>
      <trkpt lat="45.45526" lon="5.74004">
        <ele>429.9</ele>
        <time>2022-04-15T09:47:29Z</time>
      </trkpt>
      <trkpt lat="45.45532" lon="5.74002">
        <ele>430.1</ele>
        <time>2022-04-15T09:47:30Z</time>
      </trkpt>
      <trkpt lat="45.45535" lon="5.74002">
        <ele>430.2</ele>
        <time>2022-04-15T09:47:31Z</time>
      </trkpt>
      <trkpt lat="45.45538" lon="5.74001">
        <ele>430.2</ele>
        <time>2022-04-15T09:47:33Z</time>
      </trkpt>
      <trkpt lat="45.45541" lon="5.73999">
        <ele>430.3</ele>
        <time>2022-04-15T09:47:34Z</time>
      </trkpt>
      <trkpt lat="45.45544" lon="5.73998">
        <ele>430.4</ele>
        <time>2022-04-15T09:47:35Z</time>
      </trkpt>
      <trkpt lat="45.45548" lon="5.73997">
        <ele>430.5</ele>
        <time>2022-04-15T09:47:36Z</time>
      </trkpt>
      <trkpt lat="45.45554" lon="5.73995">
        <ele>430.7</ele>
        <time>2022-04-15T09:47:38Z</time>
      </trkpt>
      <trkpt lat="45.45558" lon="5.73994">
        <ele>430.7</ele>
        <time>2022-04-15T09:47:39Z</time>
      </trkpt>
      <trkpt lat="45.45561" lon="5.73994">
        <ele>430.7</ele>
        <time>2022-04-15T09:47:41Z</time>
      </trkpt>
      <trkpt lat="45.45568" lon="5.73993">
        <ele>430.6</ele>
        <time>2022-04-15T09:47:43Z</time>
      </trkpt>
      <trkpt lat="45.45574" lon="5.73993">
        <ele>430.6</ele>
        <time>2022-04-15T09:47:45Z</time>
      </trkpt>
      <trkpt lat="45.45579" lon="5.73995">
        <ele>430.7</ele>
        <time>2022-04-15T09:47:46Z</time>
      </trkpt>
      <trkpt lat="45.45586" lon="5.73996">
        <ele>430.7</ele>
        <time>2022-04-15T09:47:48Z</time>
      </trkpt>
      <trkpt lat="45.45592" lon="5.73997">
        <ele>430.7</ele>
        <time>2022-04-15T09:47:50Z</time>
      </trkpt>
      <trkpt lat="45.45596" lon="5.73998">
        <ele>430.7</ele>
        <time>2022-04-15T09:47:51Z</time>
      </trkpt>
      <trkpt lat="45.45603" lon="5.74">
        <ele>430.7</ele>
        <time>2022-04-15T09:47:53Z</time>
      </trkpt>
      <trkpt lat="45.45608" lon="5.74003">
        <ele>430.7</ele>
        <time>2022-04-15T09:47:54Z</time>
      </trkpt>
      <trkpt lat="45.45611" lon="5.74004">
        <ele>430.7</ele>
        <time>2022-04-15T09:47:55Z</time>
      </trkpt>
      <trkpt lat="45.45615" lon="5.74006">
        <ele>430.7</ele>
        <time>2022-04-15T09:47:56Z</time>
      </trkpt>
      <trkpt lat="45.45618" lon="5.74008">
        <ele>430.7</ele>
        <time>2022-04-15T09:47:57Z</time>
      </trkpt>
      <trkpt lat="45.45623" lon="5.74012">
        <ele>430.7</ele>
        <time>2022-04-15T09:47:59Z</time>
      </trkpt>
      <trkpt lat="45.45627" lon="5.74015">
        <ele>430.6</ele>
        <time>2022-04-15T09:48:00Z</time>
      </trkpt>
      <trkpt lat="45.45631" lon="5.74017">
        <ele>430.6</ele>
        <time>2022-04-15T09:48:01Z</time>
      </trkpt>
      <trkpt lat="45.45635" lon="5.7402">
        <ele>430.6</ele>
        <time>2022-04-15T09:48:03Z</time>
      </trkpt>
      <trkpt lat="45.4564" lon="5.74023">
        <ele>430.7</ele>
        <time>2022-04-15T09:48:04Z</time>
      </trkpt>
      <trkpt lat="45.45647" lon="5.74027">
        <ele>430.7</ele>
        <time>2022-04-15T09:48:06Z</time>
      </trkpt>
      <trkpt lat="45.4565" lon="5.7403">
        <ele>430.7</ele>
        <time>2022-04-15T09:48:07Z</time>
      </trkpt>
      <trkpt lat="45.45656" lon="5.74033">
        <ele>430.7</ele>
        <time>2022-04-15T09:48:08Z</time>
      </trkpt>
      <trkpt lat="45.45662" lon="5.74037">
        <ele>430.7</ele>
        <time>2022-04-15T09:48:10Z</time>
      </trkpt>
      <trkpt lat="45.45667" lon="5.74041">
        <ele>430.6</ele>
        <time>2022-04-15T09:48:12Z</time>
      </trkpt>
      <trkpt lat="45.45675" lon="5.74045">
        <ele>430.5</ele>
        <time>2022-04-15T09:48:14Z</time>
      </trkpt>
      <trkpt lat="45.4568" lon="5.74049">
        <ele>430.4</ele>
        <time>2022-04-15T09:48:15Z</time>
      </trkpt>
      <trkpt lat="45.45687" lon="5.74054">
        <ele>430.3</ele>
        <time>2022-04-15T09:48:16Z</time>
      </trkpt>
      <trkpt lat="45.45692" lon="5.74056">
        <ele>430.2</ele>
        <time>2022-04-15T09:48:18Z</time>
      </trkpt>
      <trkpt lat="45.45697" lon="5.74059">
        <ele>430.2</ele>
        <time>2022-04-15T09:48:19Z</time>
      </trkpt>
      <trkpt lat="45.45701" lon="5.74061">
        <ele>430.1</ele>
        <time>2022-04-15T09:48:20Z</time>
      </trkpt>
      <trkpt lat="45.4571" lon="5.74063">
        <ele>430</ele>
        <time>2022-04-15T09:48:22Z</time>
      </trkpt>
      <trkpt lat="45.45719" lon="5.74067">
        <ele>430</ele>
        <time>2022-04-15T09:48:24Z</time>
      </trkpt>
      <trkpt lat="45.45723" lon="5.74069">
        <ele>429.9</ele>
        <time>2022-04-15T09:48:25Z</time>
      </trkpt>
      <trkpt lat="45.45728" lon="5.74071">
        <ele>429.9</ele>
        <time>2022-04-15T09:48:26Z</time>
      </trkpt>
      <trkpt lat="45.45732" lon="5.74072">
        <ele>429.9</ele>
        <time>2022-04-15T09:48:27Z</time>
      </trkpt>
      <trkpt lat="45.45736" lon="5.74074">
        <ele>429.8</ele>
        <time>2022-04-15T09:48:28Z</time>
      </trkpt>
      <trkpt lat="45.45741" lon="5.74075">
        <ele>429.8</ele>
        <time>2022-04-15T09:48:29Z</time>
      </trkpt>
      <trkpt lat="45.45745" lon="5.74077">
        <ele>429.8</ele>
        <time>2022-04-15T09:48:30Z</time>
      </trkpt>
      <trkpt lat="45.45749" lon="5.74079">
        <ele>429.7</ele>
        <time>2022-04-15T09:48:31Z</time>
      </trkpt>
      <trkpt lat="45.45753" lon="5.74081">
        <ele>429.7</ele>
        <time>2022-04-15T09:48:32Z</time>
      </trkpt>
      <trkpt lat="45.45758" lon="5.74083">
        <ele>429.7</ele>
        <time>2022-04-15T09:48:33Z</time>
      </trkpt>
      <trkpt lat="45.45763" lon="5.74086">
        <ele>429.7</ele>
        <time>2022-04-15T09:48:34Z</time>
      </trkpt>
      <trkpt lat="45.45766" lon="5.74087">
        <ele>429.8</ele>
        <time>2022-04-15T09:48:35Z</time>
      </trkpt>
      <trkpt lat="45.45775" lon="5.7409">
        <ele>429.8</ele>
        <time>2022-04-15T09:48:37Z</time>
      </trkpt>
      <trkpt lat="45.45783" lon="5.74092">
        <ele>429.8</ele>
        <time>2022-04-15T09:48:39Z</time>
      </trkpt>
      <trkpt lat="45.45794" lon="5.74097">
        <ele>429.6</ele>
        <time>2022-04-15T09:48:41Z</time>
      </trkpt>
      <trkpt lat="45.45798" lon="5.74099">
        <ele>429.5</ele>
        <time>2022-04-15T09:48:42Z</time>
      </trkpt>
      <trkpt lat="45.45802" lon="5.74101">
        <ele>429.4</ele>
        <time>2022-04-15T09:48:43Z</time>
      </trkpt>
      <trkpt lat="45.45806" lon="5.74104">
        <ele>429.4</ele>
        <time>2022-04-15T09:48:44Z</time>
      </trkpt>
      <trkpt lat="45.45809" lon="5.74108">
        <ele>429.3</ele>
        <time>2022-04-15T09:48:45Z</time>
      </trkpt>
      <trkpt lat="45.45818" lon="5.7411">
        <ele>429.2</ele>
        <time>2022-04-15T09:48:47Z</time>
      </trkpt>
      <trkpt lat="45.45828" lon="5.74114">
        <ele>429.1</ele>
        <time>2022-04-15T09:48:49Z</time>
      </trkpt>
      <trkpt lat="45.45832" lon="5.74116">
        <ele>429.1</ele>
        <time>2022-04-15T09:48:50Z</time>
      </trkpt>
      <trkpt lat="45.45837" lon="5.74118">
        <ele>429.1</ele>
        <time>2022-04-15T09:48:51Z</time>
      </trkpt>
      <trkpt lat="45.45841" lon="5.74121">
        <ele>429.1</ele>
        <time>2022-04-15T09:48:52Z</time>
      </trkpt>
      <trkpt lat="45.45845" lon="5.74123">
        <ele>429.1</ele>
        <time>2022-04-15T09:48:53Z</time>
      </trkpt>
      <trkpt lat="45.4585" lon="5.74125">
        <ele>429</ele>
        <time>2022-04-15T09:48:54Z</time>
      </trkpt>
      <trkpt lat="45.45854" lon="5.74127">
        <ele>429</ele>
        <time>2022-04-15T09:48:55Z</time>
      </trkpt>
      <trkpt lat="45.45858" lon="5.74129">
        <ele>429</ele>
        <time>2022-04-15T09:48:56Z</time>
      </trkpt>
      <trkpt lat="45.45863" lon="5.74133">
        <ele>429</ele>
        <time>2022-04-15T09:48:57Z</time>
      </trkpt>
      <trkpt lat="45.45865" lon="5.74134">
        <ele>428.9</ele>
        <time>2022-04-15T09:48:58Z</time>
      </trkpt>
      <trkpt lat="45.45871" lon="5.74136">
        <ele>428.9</ele>
        <time>2022-04-15T09:48:59Z</time>
      </trkpt>
      <trkpt lat="45.45876" lon="5.74138">
        <ele>428.9</ele>
        <time>2022-04-15T09:49:01Z</time>
      </trkpt>
      <trkpt lat="45.45881" lon="5.74141">
        <ele>428.9</ele>
        <time>2022-04-15T09:49:02Z</time>
      </trkpt>
      <trkpt lat="45.45891" lon="5.74145">
        <ele>428.8</ele>
        <time>2022-04-15T09:49:04Z</time>
      </trkpt>
      <trkpt lat="45.45896" lon="5.74147">
        <ele>428.7</ele>
        <time>2022-04-15T09:49:05Z</time>
      </trkpt>
      <trkpt lat="45.45901" lon="5.7415">
        <ele>428.7</ele>
        <time>2022-04-15T09:49:06Z</time>
      </trkpt>
      <trkpt lat="45.45905" lon="5.74152">
        <ele>428.6</ele>
        <time>2022-04-15T09:49:07Z</time>
      </trkpt>
      <trkpt lat="45.4591" lon="5.74155">
        <ele>428.6</ele>
        <time>2022-04-15T09:49:08Z</time>
      </trkpt>
      <trkpt lat="45.45914" lon="5.74156">
        <ele>428.5</ele>
        <time>2022-04-15T09:49:09Z</time>
      </trkpt>
      <trkpt lat="45.45918" lon="5.74159">
        <ele>428.5</ele>
        <time>2022-04-15T09:49:10Z</time>
      </trkpt>
      <trkpt lat="45.4592" lon="5.74161">
        <ele>428.5</ele>
        <time>2022-04-15T09:49:11Z</time>
      </trkpt>
      <trkpt lat="45.45919" lon="5.74161">
        <ele>428.4</ele>
        <time>2022-04-15T09:49:13Z</time>
      </trkpt>
      <trkpt lat="45.45919" lon="5.7416">
        <ele>428.4</ele>
        <time>2022-04-15T09:49:14Z</time>
      </trkpt>
      <trkpt lat="45.45919" lon="5.7416">
        <ele>428.5</ele>
        <time>2022-04-15T09:49:15Z</time>
      </trkpt>
      <trkpt lat="45.45919" lon="5.7416">
        <ele>428.5</ele>
        <time>2022-04-15T09:49:16Z</time>
      </trkpt>
      <trkpt lat="45.45919" lon="5.7416">
        <ele>428.5</ele>
        <time>2022-04-15T09:49:17Z</time>
      </trkpt>
      <trkpt lat="45.45919" lon="5.7416">
        <ele>428.5</ele>
        <time>2022-04-15T09:49:18Z</time>
      </trkpt>
      <trkpt lat="45.45919" lon="5.7416">
        <ele>428.5</ele>
        <time>2022-04-15T09:49:19Z</time>
      </trkpt>
      <trkpt lat="45.45919" lon="5.7416">
        <ele>428.5</ele>
        <time>2022-04-15T09:49:20Z</time>
      </trkpt>
      <trkpt lat="45.45919" lon="5.7416">
        <ele>428.5</ele>
        <time>2022-04-15T09:49:21Z</time>
      </trkpt>
      <trkpt lat="45.45919" lon="5.74159">
        <ele>428.5</ele>
        <time>2022-04-15T09:49:22Z</time>
      </trkpt>
      <trkpt lat="45.45919" lon="5.74159">
        <ele>428.5</ele>
        <time>2022-04-15T09:49:23Z</time>
      </trkpt>
      <trkpt lat="45.45919" lon="5.74159">
        <ele>428.5</ele>
        <time>2022-04-15T09:49:24Z</time>
      </trkpt>
      <trkpt lat="45.45919" lon="5.74159">
        <ele>428.5</ele>
        <time>2022-04-15T09:49:25Z</time>
      </trkpt>
      <trkpt lat="45.45919" lon="5.74159">
        <ele>428.5</ele>
        <time>2022-04-15T09:49:26Z</time>
      </trkpt>
      <trkpt lat="45.45919" lon="5.74159">
        <ele>428.5</ele>
        <time>2022-04-15T09:49:27Z</time>
      </trkpt>
      <trkpt lat="45.45919" lon="5.74159">
        <ele>428.5</ele>
        <time>2022-04-15T09:49:28Z</time>
      </trkpt>
      <trkpt lat="45.45919" lon="5.74159">
        <ele>428.5</ele>
        <time>2022-04-15T09:49:29Z</time>
      </trkpt>
      <trkpt lat="45.45919" lon="5.74158">
        <ele>428.5</ele>
        <time>2022-04-15T09:49:30Z</time>
      </trkpt>
      <trkpt lat="45.45919" lon="5.74158">
        <ele>428.5</ele>
        <time>2022-04-15T09:49:31Z</time>
      </trkpt>
      <trkpt lat="45.45918" lon="5.74158">
        <ele>428.5</ele>
        <time>2022-04-15T09:49:32Z</time>
      </trkpt>
      <trkpt lat="45.45918" lon="5.74158">
        <ele>428.5</ele>
        <time>2022-04-15T09:49:33Z</time>
      </trkpt>
      <trkpt lat="45.45918" lon="5.74158">
        <ele>428.5</ele>
        <time>2022-04-15T09:49:34Z</time>
      </trkpt>
      <trkpt lat="45.45918" lon="5.74158">
        <ele>428.5</ele>
        <time>2022-04-15T09:49:35Z</time>
      </trkpt>
      <trkpt lat="45.45918" lon="5.74158">
        <ele>428.5</ele>
        <time>2022-04-15T09:49:36Z</time>
      </trkpt>
      <trkpt lat="45.45918" lon="5.74158">
        <ele>428.5</ele>
        <time>2022-04-15T09:49:37Z</time>
      </trkpt>
      <trkpt lat="45.45918" lon="5.74157">
        <ele>428.5</ele>
        <time>2022-04-15T09:49:38Z</time>
      </trkpt>
      <trkpt lat="45.45918" lon="5.74157">
        <ele>428.5</ele>
        <time>2022-04-15T09:49:39Z</time>
      </trkpt>
      <trkpt lat="45.45918" lon="5.74157">
        <ele>428.5</ele>
        <time>2022-04-15T09:49:40Z</time>
      </trkpt>
      <trkpt lat="45.45918" lon="5.74157">
        <ele>428.5</ele>
        <time>2022-04-15T09:49:41Z</time>
      </trkpt>
      <trkpt lat="45.45918" lon="5.74157">
        <ele>428.5</ele>
        <time>2022-04-15T09:49:42Z</time>
      </trkpt>
      <trkpt lat="45.45918" lon="5.74157">
        <ele>428.5</ele>
        <time>2022-04-15T09:49:43Z</time>
      </trkpt>
      <trkpt lat="45.45918" lon="5.74157">
        <ele>428.5</ele>
        <time>2022-04-15T09:49:44Z</time>
      </trkpt>
      <trkpt lat="45.45918" lon="5.74157">
        <ele>428.5</ele>
        <time>2022-04-15T09:49:45Z</time>
      </trkpt>
      <trkpt lat="45.45918" lon="5.74157">
        <ele>428.5</ele>
        <time>2022-04-15T09:49:46Z</time>
      </trkpt>
      <trkpt lat="45.45918" lon="5.74156">
        <ele>428.5</ele>
        <time>2022-04-15T09:49:47Z</time>
      </trkpt>
      <trkpt lat="45.45918" lon="5.74156">
        <ele>428.5</ele>
        <time>2022-04-15T09:49:48Z</time>
      </trkpt>
      <trkpt lat="45.45918" lon="5.74156">
        <ele>428.5</ele>
        <time>2022-04-15T09:49:49Z</time>
      </trkpt>
      <trkpt lat="45.45918" lon="5.74156">
        <ele>428.5</ele>
        <time>2022-04-15T09:49:50Z</time>
      </trkpt>
      <trkpt lat="45.45917" lon="5.74156">
        <ele>428.5</ele>
        <time>2022-04-15T09:49:51Z</time>
      </trkpt>
      <trkpt lat="45.45917" lon="5.74156">
        <ele>428.5</ele>
        <time>2022-04-15T09:49:52Z</time>
      </trkpt>
      <trkpt lat="45.45917" lon="5.74156">
        <ele>428.5</ele>
        <time>2022-04-15T09:49:53Z</time>
      </trkpt>
      <trkpt lat="45.45917" lon="5.74156">
        <ele>428.5</ele>
        <time>2022-04-15T09:49:54Z</time>
      </trkpt>
      <trkpt lat="45.45917" lon="5.74155">
        <ele>428.5</ele>
        <time>2022-04-15T09:49:55Z</time>
      </trkpt>
      <trkpt lat="45.45917" lon="5.74155">
        <ele>428.5</ele>
        <time>2022-04-15T09:49:56Z</time>
      </trkpt>
      <trkpt lat="45.45917" lon="5.74155">
        <ele>428.5</ele>
        <time>2022-04-15T09:49:57Z</time>
      </trkpt>
      <trkpt lat="45.45917" lon="5.74155">
        <ele>428.5</ele>
        <time>2022-04-15T09:49:58Z</time>
      </trkpt>
      <trkpt lat="45.45917" lon="5.74155">
        <ele>428.5</ele>
        <time>2022-04-15T09:49:59Z</time>
      </trkpt>
      <trkpt lat="45.45917" lon="5.74155">
        <ele>428.5</ele>
        <time>2022-04-15T09:50:00Z</time>
      </trkpt>
      <trkpt lat="45.45917" lon="5.74155">
        <ele>428.5</ele>
        <time>2022-04-15T09:50:01Z</time>
      </trkpt>
      <trkpt lat="45.45917" lon="5.74155">
        <ele>428.5</ele>
        <time>2022-04-15T09:50:02Z</time>
      </trkpt>
      <trkpt lat="45.45917" lon="5.74154">
        <ele>428.5</ele>
        <time>2022-04-15T09:50:03Z</time>
      </trkpt>
      <trkpt lat="45.45917" lon="5.74154">
        <ele>428.5</ele>
        <time>2022-04-15T09:50:04Z</time>
      </trkpt>
      <trkpt lat="45.45917" lon="5.74154">
        <ele>428.5</ele>
        <time>2022-04-15T09:50:05Z</time>
      </trkpt>
      <trkpt lat="45.45917" lon="5.74154">
        <ele>428.5</ele>
        <time>2022-04-15T09:50:06Z</time>
      </trkpt>
      <trkpt lat="45.45917" lon="5.74154">
        <ele>428.5</ele>
        <time>2022-04-15T09:50:07Z</time>
      </trkpt>
      <trkpt lat="45.45914" lon="5.74152">
        <ele>428.6</ele>
        <time>2022-04-15T09:50:08Z</time>
      </trkpt>
      <trkpt lat="45.45913" lon="5.74152">
        <ele>428.6</ele>
        <time>2022-04-15T09:50:09Z</time>
      </trkpt>
      <trkpt lat="45.45911" lon="5.74151">
        <ele>428.6</ele>
        <time>2022-04-15T09:50:10Z</time>
      </trkpt>
      <trkpt lat="45.4591" lon="5.7415">
        <ele>428.6</ele>
        <time>2022-04-15T09:50:11Z</time>
      </trkpt>
      <trkpt lat="45.45909" lon="5.74149">
        <ele>428.6</ele>
        <time>2022-04-15T09:50:12Z</time>
      </trkpt>
      <trkpt lat="45.45907" lon="5.7415">
        <ele>428.6</ele>
        <time>2022-04-15T09:50:13Z</time>
      </trkpt>
      <trkpt lat="45.45902" lon="5.74145">
        <ele>428.7</ele>
        <time>2022-04-15T09:50:15Z</time>
      </trkpt>
      <trkpt lat="45.45898" lon="5.74142">
        <ele>428.7</ele>
        <time>2022-04-15T09:50:16Z</time>
      </trkpt>
      <trkpt lat="45.45893" lon="5.74139">
        <ele>428.8</ele>
        <time>2022-04-15T09:50:17Z</time>
      </trkpt>
      <trkpt lat="45.45888" lon="5.74136">
        <ele>428.8</ele>
        <time>2022-04-15T09:50:19Z</time>
      </trkpt>
      <trkpt lat="45.45884" lon="5.74135">
        <ele>428.9</ele>
        <time>2022-04-15T09:50:20Z</time>
      </trkpt>
      <trkpt lat="45.45882" lon="5.74134">
        <ele>428.9</ele>
        <time>2022-04-15T09:50:21Z</time>
      </trkpt>
      <trkpt lat="45.4588" lon="5.74132">
        <ele>428.9</ele>
        <time>2022-04-15T09:50:22Z</time>
      </trkpt>
      <trkpt lat="45.45876" lon="5.7413">
        <ele>428.9</ele>
        <time>2022-04-15T09:50:23Z</time>
      </trkpt>
      <trkpt lat="45.45869" lon="5.74127">
        <ele>428.9</ele>
        <time>2022-04-15T09:50:24Z</time>
      </trkpt>
      <trkpt lat="45.45865" lon="5.74125">
        <ele>429</ele>
        <time>2022-04-15T09:50:26Z</time>
      </trkpt>
      <trkpt lat="45.45861" lon="5.74122">
        <ele>429</ele>
        <time>2022-04-15T09:50:27Z</time>
      </trkpt>
      <trkpt lat="45.45856" lon="5.74121">
        <ele>429</ele>
        <time>2022-04-15T09:50:28Z</time>
      </trkpt>
      <trkpt lat="45.45851" lon="5.74119">
        <ele>429</ele>
        <time>2022-04-15T09:50:29Z</time>
      </trkpt>
      <trkpt lat="45.45847" lon="5.74117">
        <ele>429.1</ele>
        <time>2022-04-15T09:50:31Z</time>
      </trkpt>
      <trkpt lat="45.45843" lon="5.74114">
        <ele>429.1</ele>
        <time>2022-04-15T09:50:32Z</time>
      </trkpt>
      <trkpt lat="45.45837" lon="5.74111">
        <ele>429.1</ele>
        <time>2022-04-15T09:50:34Z</time>
      </trkpt>
      <trkpt lat="45.45832" lon="5.7411">
        <ele>429.1</ele>
        <time>2022-04-15T09:50:35Z</time>
      </trkpt>
      <trkpt lat="45.45826" lon="5.74108">
        <ele>429.2</ele>
        <time>2022-04-15T09:50:36Z</time>
      </trkpt>
      <trkpt lat="45.45822" lon="5.74106">
        <ele>429.2</ele>
        <time>2022-04-15T09:50:38Z</time>
      </trkpt>
      <trkpt lat="45.45819" lon="5.74104">
        <ele>429.2</ele>
        <time>2022-04-15T09:50:39Z</time>
      </trkpt>
      <trkpt lat="45.45816" lon="5.74102">
        <ele>429.2</ele>
        <time>2022-04-15T09:50:40Z</time>
      </trkpt>
      <trkpt lat="45.45812" lon="5.741">
        <ele>429.3</ele>
        <time>2022-04-15T09:50:41Z</time>
      </trkpt>
      <trkpt lat="45.45806" lon="5.74097">
        <ele>429.4</ele>
        <time>2022-04-15T09:50:42Z</time>
      </trkpt>
      <trkpt lat="45.45799" lon="5.74095">
        <ele>429.5</ele>
        <time>2022-04-15T09:50:44Z</time>
      </trkpt>
      <trkpt lat="45.45794" lon="5.74092">
        <ele>429.6</ele>
        <time>2022-04-15T09:50:45Z</time>
      </trkpt>
      <trkpt lat="45.4579" lon="5.7409">
        <ele>429.7</ele>
        <time>2022-04-15T09:50:46Z</time>
      </trkpt>
      <trkpt lat="45.45782" lon="5.74087">
        <ele>429.8</ele>
        <time>2022-04-15T09:50:48Z</time>
      </trkpt>
      <trkpt lat="45.45773" lon="5.74083">
        <ele>429.8</ele>
        <time>2022-04-15T09:50:50Z</time>
      </trkpt>
      <trkpt lat="45.45766" lon="5.7408">
        <ele>429.7</ele>
        <time>2022-04-15T09:50:52Z</time>
      </trkpt>
      <trkpt lat="45.45758" lon="5.74078">
        <ele>429.7</ele>
        <time>2022-04-15T09:50:54Z</time>
      </trkpt>
      <trkpt lat="45.45754" lon="5.74076">
        <ele>429.7</ele>
        <time>2022-04-15T09:50:55Z</time>
      </trkpt>
      <trkpt lat="45.45748" lon="5.74075">
        <ele>429.7</ele>
        <time>2022-04-15T09:50:56Z</time>
      </trkpt>
      <trkpt lat="45.4574" lon="5.74072">
        <ele>429.8</ele>
        <time>2022-04-15T09:50:58Z</time>
      </trkpt>
      <trkpt lat="45.45737" lon="5.7407">
        <ele>429.8</ele>
        <time>2022-04-15T09:50:59Z</time>
      </trkpt>
      <trkpt lat="45.45729" lon="5.74068">
        <ele>429.9</ele>
        <time>2022-04-15T09:51:01Z</time>
      </trkpt>
      <trkpt lat="45.45724" lon="5.74067">
        <ele>429.9</ele>
        <time>2022-04-15T09:51:02Z</time>
      </trkpt>
      <trkpt lat="45.4572" lon="5.74065">
        <ele>430</ele>
        <time>2022-04-15T09:51:03Z</time>
      </trkpt>
      <trkpt lat="45.45714" lon="5.74062">
        <ele>430</ele>
        <time>2022-04-15T09:51:04Z</time>
      </trkpt>
      <trkpt lat="45.45707" lon="5.7406">
        <ele>430.1</ele>
        <time>2022-04-15T09:51:06Z</time>
      </trkpt>
      <trkpt lat="45.45701" lon="5.74058">
        <ele>430.1</ele>
        <time>2022-04-15T09:51:08Z</time>
      </trkpt>
      <trkpt lat="45.45692" lon="5.74054">
        <ele>430.2</ele>
        <time>2022-04-15T09:51:10Z</time>
      </trkpt>
      <trkpt lat="45.45684" lon="5.74049">
        <ele>430.4</ele>
        <time>2022-04-15T09:51:12Z</time>
      </trkpt>
      <trkpt lat="45.45681" lon="5.74047">
        <ele>430.4</ele>
        <time>2022-04-15T09:51:13Z</time>
      </trkpt>
      <trkpt lat="45.45676" lon="5.74044">
        <ele>430.5</ele>
        <time>2022-04-15T09:51:14Z</time>
      </trkpt>
      <trkpt lat="45.45672" lon="5.74041">
        <ele>430.6</ele>
        <time>2022-04-15T09:51:15Z</time>
      </trkpt>
      <trkpt lat="45.45667" lon="5.74037">
        <ele>430.6</ele>
        <time>2022-04-15T09:51:16Z</time>
      </trkpt>
      <trkpt lat="45.45664" lon="5.74034">
        <ele>430.7</ele>
        <time>2022-04-15T09:51:17Z</time>
      </trkpt>
      <trkpt lat="45.45659" lon="5.74031">
        <ele>430.7</ele>
        <time>2022-04-15T09:51:19Z</time>
      </trkpt>
      <trkpt lat="45.45652" lon="5.74027">
        <ele>430.7</ele>
        <time>2022-04-15T09:51:21Z</time>
      </trkpt>
      <trkpt lat="45.45648" lon="5.74024">
        <ele>430.7</ele>
        <time>2022-04-15T09:51:22Z</time>
      </trkpt>
      <trkpt lat="45.45644" lon="5.74021">
        <ele>430.7</ele>
        <time>2022-04-15T09:51:23Z</time>
      </trkpt>
      <trkpt lat="45.45638" lon="5.74016">
        <ele>430.6</ele>
        <time>2022-04-15T09:51:25Z</time>
      </trkpt>
      <trkpt lat="45.45631" lon="5.74012">
        <ele>430.6</ele>
        <time>2022-04-15T09:51:26Z</time>
      </trkpt>
      <trkpt lat="45.45626" lon="5.74009">
        <ele>430.7</ele>
        <time>2022-04-15T09:51:28Z</time>
      </trkpt>
      <trkpt lat="45.45621" lon="5.74006">
        <ele>430.7</ele>
        <time>2022-04-15T09:51:29Z</time>
      </trkpt>
      <trkpt lat="45.45613" lon="5.74001">
        <ele>430.7</ele>
        <time>2022-04-15T09:51:31Z</time>
      </trkpt>
      <trkpt lat="45.45609" lon="5.73999">
        <ele>430.7</ele>
        <time>2022-04-15T09:51:32Z</time>
      </trkpt>
      <trkpt lat="45.45604" lon="5.73998">
        <ele>430.7</ele>
        <time>2022-04-15T09:51:33Z</time>
      </trkpt>
      <trkpt lat="45.456" lon="5.73997">
        <ele>430.7</ele>
        <time>2022-04-15T09:51:34Z</time>
      </trkpt>
      <trkpt lat="45.45595" lon="5.73996">
        <ele>430.7</ele>
        <time>2022-04-15T09:51:35Z</time>
      </trkpt>
      <trkpt lat="45.4559" lon="5.73995">
        <ele>430.7</ele>
        <time>2022-04-15T09:51:36Z</time>
      </trkpt>
      <trkpt lat="45.45586" lon="5.73994">
        <ele>430.7</ele>
        <time>2022-04-15T09:51:37Z</time>
      </trkpt>
      <trkpt lat="45.45581" lon="5.73993">
        <ele>430.7</ele>
        <time>2022-04-15T09:51:38Z</time>
      </trkpt>
      <trkpt lat="45.45576" lon="5.73993">
        <ele>430.7</ele>
        <time>2022-04-15T09:51:39Z</time>
      </trkpt>
      <trkpt lat="45.45571" lon="5.73992">
        <ele>430.6</ele>
        <time>2022-04-15T09:51:40Z</time>
      </trkpt>
      <trkpt lat="45.45566" lon="5.73992">
        <ele>430.6</ele>
        <time>2022-04-15T09:51:41Z</time>
      </trkpt>
      <trkpt lat="45.45561" lon="5.73992">
        <ele>430.7</ele>
        <time>2022-04-15T09:51:42Z</time>
      </trkpt>
      <trkpt lat="45.45556" lon="5.73992">
        <ele>430.7</ele>
        <time>2022-04-15T09:51:43Z</time>
      </trkpt>
      <trkpt lat="45.45552" lon="5.73993">
        <ele>430.6</ele>
        <time>2022-04-15T09:51:44Z</time>
      </trkpt>
      <trkpt lat="45.45547" lon="5.73995">
        <ele>430.5</ele>
        <time>2022-04-15T09:51:45Z</time>
      </trkpt>
      <trkpt lat="45.45542" lon="5.73996">
        <ele>430.4</ele>
        <time>2022-04-15T09:51:46Z</time>
      </trkpt>
      <trkpt lat="45.45537" lon="5.73998">
        <ele>430.2</ele>
        <time>2022-04-15T09:51:47Z</time>
      </trkpt>
      <trkpt lat="45.45532" lon="5.73999">
        <ele>430.1</ele>
        <time>2022-04-15T09:51:48Z</time>
      </trkpt>
      <trkpt lat="45.45526" lon="5.74">
        <ele>430</ele>
        <time>2022-04-15T09:51:49Z</time>
      </trkpt>
      <trkpt lat="45.45521" lon="5.74001">
        <ele>429.8</ele>
        <time>2022-04-15T09:51:50Z</time>
      </trkpt>
      <trkpt lat="45.45515" lon="5.74003">
        <ele>429.7</ele>
        <time>2022-04-15T09:51:51Z</time>
      </trkpt>
      <trkpt lat="45.4551" lon="5.74005">
        <ele>429.6</ele>
        <time>2022-04-15T09:51:52Z</time>
      </trkpt>
      <trkpt lat="45.45504" lon="5.74007">
        <ele>429.5</ele>
        <time>2022-04-15T09:51:53Z</time>
      </trkpt>
      <trkpt lat="45.45498" lon="5.74008">
        <ele>429.4</ele>
        <time>2022-04-15T09:51:54Z</time>
      </trkpt>
      <trkpt lat="45.45493" lon="5.74009">
        <ele>429.3</ele>
        <time>2022-04-15T09:51:55Z</time>
      </trkpt>
      <trkpt lat="45.45487" lon="5.7401">
        <ele>429.2</ele>
        <time>2022-04-15T09:51:56Z</time>
      </trkpt>
      <trkpt lat="45.45481" lon="5.74012">
        <ele>429.2</ele>
        <time>2022-04-15T09:51:57Z</time>
      </trkpt>
      <trkpt lat="45.45476" lon="5.74013">
        <ele>429.1</ele>
        <time>2022-04-15T09:51:58Z</time>
      </trkpt>
      <trkpt lat="45.45471" lon="5.74014">
        <ele>429</ele>
        <time>2022-04-15T09:51:59Z</time>
      </trkpt>
      <trkpt lat="45.45465" lon="5.74016">
        <ele>428.8</ele>
        <time>2022-04-15T09:52:00Z</time>
      </trkpt>
      <trkpt lat="45.4546" lon="5.74016">
        <ele>428.7</ele>
        <time>2022-04-15T09:52:01Z</time>
      </trkpt>
      <trkpt lat="45.45454" lon="5.74017">
        <ele>428.6</ele>
        <time>2022-04-15T09:52:02Z</time>
      </trkpt>
      <trkpt lat="45.45449" lon="5.74018">
        <ele>428.5</ele>
        <time>2022-04-15T09:52:03Z</time>
      </trkpt>
      <trkpt lat="45.45443" lon="5.74019">
        <ele>428.4</ele>
        <time>2022-04-15T09:52:04Z</time>
      </trkpt>
      <trkpt lat="45.45438" lon="5.7402">
        <ele>428.3</ele>
        <time>2022-04-15T09:52:05Z</time>
      </trkpt>
      <trkpt lat="45.45433" lon="5.74021">
        <ele>428.2</ele>
        <time>2022-04-15T09:52:06Z</time>
      </trkpt>
      <trkpt lat="45.45428" lon="5.74022">
        <ele>428.1</ele>
        <time>2022-04-15T09:52:07Z</time>
      </trkpt>
      <trkpt lat="45.45422" lon="5.74023">
        <ele>428</ele>
        <time>2022-04-15T09:52:08Z</time>
      </trkpt>
      <trkpt lat="45.45417" lon="5.74023">
        <ele>428</ele>
        <time>2022-04-15T09:52:09Z</time>
      </trkpt>
      <trkpt lat="45.45412" lon="5.74024">
        <ele>427.9</ele>
        <time>2022-04-15T09:52:10Z</time>
      </trkpt>
      <trkpt lat="45.45407" lon="5.74024">
        <ele>427.9</ele>
        <time>2022-04-15T09:52:11Z</time>
      </trkpt>
      <trkpt lat="45.45402" lon="5.74025">
        <ele>427.8</ele>
        <time>2022-04-15T09:52:12Z</time>
      </trkpt>
      <trkpt lat="45.45397" lon="5.74026">
        <ele>427.7</ele>
        <time>2022-04-15T09:52:13Z</time>
      </trkpt>
      <trkpt lat="45.45392" lon="5.74027">
        <ele>427.6</ele>
        <time>2022-04-15T09:52:14Z</time>
      </trkpt>
      <trkpt lat="45.45387" lon="5.74027">
        <ele>427.6</ele>
        <time>2022-04-15T09:52:15Z</time>
      </trkpt>
      <trkpt lat="45.45382" lon="5.74028">
        <ele>427.5</ele>
        <time>2022-04-15T09:52:16Z</time>
      </trkpt>
      <trkpt lat="45.45377" lon="5.74029">
        <ele>427.5</ele>
        <time>2022-04-15T09:52:17Z</time>
      </trkpt>
      <trkpt lat="45.45372" lon="5.74032">
        <ele>427.5</ele>
        <time>2022-04-15T09:52:18Z</time>
      </trkpt>
      <trkpt lat="45.45368" lon="5.74035">
        <ele>427.5</ele>
        <time>2022-04-15T09:52:19Z</time>
      </trkpt>
      <trkpt lat="45.45364" lon="5.74039">
        <ele>427.4</ele>
        <time>2022-04-15T09:52:20Z</time>
      </trkpt>
      <trkpt lat="45.4536" lon="5.74043">
        <ele>427.4</ele>
        <time>2022-04-15T09:52:21Z</time>
      </trkpt>
      <trkpt lat="45.45356" lon="5.74049">
        <ele>427.3</ele>
        <time>2022-04-15T09:52:22Z</time>
      </trkpt>
      <trkpt lat="45.45352" lon="5.74054">
        <ele>427.2</ele>
        <time>2022-04-15T09:52:23Z</time>
      </trkpt>
      <trkpt lat="45.45348" lon="5.74059">
        <ele>427.1</ele>
        <time>2022-04-15T09:52:24Z</time>
      </trkpt>
      <trkpt lat="45.45345" lon="5.74065">
        <ele>427.1</ele>
        <time>2022-04-15T09:52:25Z</time>
      </trkpt>
      <trkpt lat="45.45342" lon="5.74071">
        <ele>427</ele>
        <time>2022-04-15T09:52:26Z</time>
      </trkpt>
      <trkpt lat="45.45338" lon="5.74076">
        <ele>426.9</ele>
        <time>2022-04-15T09:52:27Z</time>
      </trkpt>
      <trkpt lat="45.45335" lon="5.74082">
        <ele>426.8</ele>
        <time>2022-04-15T09:52:28Z</time>
      </trkpt>
      <trkpt lat="45.45331" lon="5.74088">
        <ele>426.8</ele>
        <time>2022-04-15T09:52:29Z</time>
      </trkpt>
      <trkpt lat="45.45327" lon="5.74094">
        <ele>426.7</ele>
        <time>2022-04-15T09:52:30Z</time>
      </trkpt>
      <trkpt lat="45.45323" lon="5.74099">
        <ele>426.6</ele>
        <time>2022-04-15T09:52:31Z</time>
      </trkpt>
      <trkpt lat="45.45319" lon="5.74103">
        <ele>426.5</ele>
        <time>2022-04-15T09:52:32Z</time>
      </trkpt>
      <trkpt lat="45.45314" lon="5.74108">
        <ele>426.4</ele>
        <time>2022-04-15T09:52:33Z</time>
      </trkpt>
      <trkpt lat="45.4531" lon="5.74112">
        <ele>426.3</ele>
        <time>2022-04-15T09:52:34Z</time>
      </trkpt>
      <trkpt lat="45.45304" lon="5.74115">
        <ele>426.3</ele>
        <time>2022-04-15T09:52:35Z</time>
      </trkpt>
      <trkpt lat="45.45299" lon="5.74117">
        <ele>426.1</ele>
        <time>2022-04-15T09:52:36Z</time>
      </trkpt>
      <trkpt lat="45.45294" lon="5.74119">
        <ele>426</ele>
        <time>2022-04-15T09:52:37Z</time>
      </trkpt>
      <trkpt lat="45.45288" lon="5.74121">
        <ele>425.9</ele>
        <time>2022-04-15T09:52:38Z</time>
      </trkpt>
      <trkpt lat="45.45283" lon="5.74123">
        <ele>425.9</ele>
        <time>2022-04-15T09:52:39Z</time>
      </trkpt>
      <trkpt lat="45.45277" lon="5.74125">
        <ele>425.8</ele>
        <time>2022-04-15T09:52:40Z</time>
      </trkpt>
      <trkpt lat="45.45271" lon="5.74126">
        <ele>425.8</ele>
        <time>2022-04-15T09:52:41Z</time>
      </trkpt>
      <trkpt lat="45.45266" lon="5.74127">
        <ele>425.8</ele>
        <time>2022-04-15T09:52:42Z</time>
      </trkpt>
      <trkpt lat="45.4526" lon="5.74128">
        <ele>425.8</ele>
        <time>2022-04-15T09:52:43Z</time>
      </trkpt>
      <trkpt lat="45.45255" lon="5.74129">
        <ele>425.8</ele>
        <time>2022-04-15T09:52:44Z</time>
      </trkpt>
      <trkpt lat="45.45249" lon="5.74129">
        <ele>425.8</ele>
        <time>2022-04-15T09:52:45Z</time>
      </trkpt>
      <trkpt lat="45.45244" lon="5.74129">
        <ele>425.8</ele>
        <time>2022-04-15T09:52:46Z</time>
      </trkpt>
      <trkpt lat="45.45238" lon="5.7413">
        <ele>425.8</ele>
        <time>2022-04-15T09:52:47Z</time>
      </trkpt>
      <trkpt lat="45.45233" lon="5.74129">
        <ele>425.7</ele>
        <time>2022-04-15T09:52:48Z</time>
      </trkpt>
      <trkpt lat="45.45228" lon="5.74129">
        <ele>425.7</ele>
        <time>2022-04-15T09:52:49Z</time>
      </trkpt>
      <trkpt lat="45.45222" lon="5.7413">
        <ele>425.7</ele>
        <time>2022-04-15T09:52:50Z</time>
      </trkpt>
      <trkpt lat="45.45217" lon="5.7413">
        <ele>425.7</ele>
        <time>2022-04-15T09:52:51Z</time>
      </trkpt>
      <trkpt lat="45.45212" lon="5.7413">
        <ele>425.6</ele>
        <time>2022-04-15T09:52:52Z</time>
      </trkpt>
      <trkpt lat="45.45207" lon="5.7413">
        <ele>425.6</ele>
        <time>2022-04-15T09:52:53Z</time>
      </trkpt>
      <trkpt lat="45.45202" lon="5.7413">
        <ele>425.6</ele>
        <time>2022-04-15T09:52:54Z</time>
      </trkpt>
      <trkpt lat="45.45196" lon="5.7413">
        <ele>425.5</ele>
        <time>2022-04-15T09:52:55Z</time>
      </trkpt>
      <trkpt lat="45.45191" lon="5.74131">
        <ele>425.5</ele>
        <time>2022-04-15T09:52:56Z</time>
      </trkpt>
      <trkpt lat="45.45186" lon="5.74131">
        <ele>425.5</ele>
        <time>2022-04-15T09:52:57Z</time>
      </trkpt>
      <trkpt lat="45.4518" lon="5.74131">
        <ele>425.5</ele>
        <time>2022-04-15T09:52:58Z</time>
      </trkpt>
      <trkpt lat="45.45175" lon="5.74132">
        <ele>425.5</ele>
        <time>2022-04-15T09:52:59Z</time>
      </trkpt>
      <trkpt lat="45.4517" lon="5.74133">
        <ele>425.4</ele>
        <time>2022-04-15T09:53:00Z</time>
      </trkpt>
      <trkpt lat="45.45165" lon="5.74135">
        <ele>425.4</ele>
        <time>2022-04-15T09:53:01Z</time>
      </trkpt>
      <trkpt lat="45.45159" lon="5.74136">
        <ele>425.3</ele>
        <time>2022-04-15T09:53:02Z</time>
      </trkpt>
      <trkpt lat="45.45154" lon="5.74137">
        <ele>425.3</ele>
        <time>2022-04-15T09:53:03Z</time>
      </trkpt>
      <trkpt lat="45.45148" lon="5.74139">
        <ele>425.2</ele>
        <time>2022-04-15T09:53:04Z</time>
      </trkpt>
      <trkpt lat="45.45143" lon="5.74141">
        <ele>425.2</ele>
        <time>2022-04-15T09:53:05Z</time>
      </trkpt>
      <trkpt lat="45.45137" lon="5.74144">
        <ele>425.1</ele>
        <time>2022-04-15T09:53:06Z</time>
      </trkpt>
      <trkpt lat="45.45132" lon="5.74146">
        <ele>425.1</ele>
        <time>2022-04-15T09:53:07Z</time>
      </trkpt>
      <trkpt lat="45.45127" lon="5.74148">
        <ele>425.1</ele>
        <time>2022-04-15T09:53:08Z</time>
      </trkpt>
      <trkpt lat="45.45121" lon="5.74151">
        <ele>425</ele>
        <time>2022-04-15T09:53:09Z</time>
      </trkpt>
      <trkpt lat="45.45116" lon="5.74153">
        <ele>425</ele>
        <time>2022-04-15T09:53:10Z</time>
      </trkpt>
      <trkpt lat="45.45111" lon="5.74156">
        <ele>425.1</ele>
        <time>2022-04-15T09:53:11Z</time>
      </trkpt>
      <trkpt lat="45.45107" lon="5.74158">
        <ele>425.1</ele>
        <time>2022-04-15T09:53:12Z</time>
      </trkpt>
      <trkpt lat="45.45102" lon="5.74161">
        <ele>425.2</ele>
        <time>2022-04-15T09:53:13Z</time>
      </trkpt>
      <trkpt lat="45.45098" lon="5.74164">
        <ele>425.2</ele>
        <time>2022-04-15T09:53:14Z</time>
      </trkpt>
      <trkpt lat="45.45094" lon="5.74167">
        <ele>425.3</ele>
        <time>2022-04-15T09:53:15Z</time>
      </trkpt>
      <trkpt lat="45.4509" lon="5.74171">
        <ele>425.3</ele>
        <time>2022-04-15T09:53:16Z</time>
      </trkpt>
      <trkpt lat="45.45086" lon="5.74175">
        <ele>425.3</ele>
        <time>2022-04-15T09:53:17Z</time>
      </trkpt>
      <trkpt lat="45.45084" lon="5.74177">
        <ele>425.3</ele>
        <time>2022-04-15T09:53:18Z</time>
      </trkpt>
      <trkpt lat="45.45079" lon="5.74181">
        <ele>425.3</ele>
        <time>2022-04-15T09:53:19Z</time>
      </trkpt>
      <trkpt lat="45.45074" lon="5.74184">
        <ele>425.2</ele>
        <time>2022-04-15T09:53:20Z</time>
      </trkpt>
      <trkpt lat="45.45069" lon="5.74186">
        <ele>425.1</ele>
        <time>2022-04-15T09:53:21Z</time>
      </trkpt>
      <trkpt lat="45.45065" lon="5.74186">
        <ele>425</ele>
        <time>2022-04-15T09:53:22Z</time>
      </trkpt>
      <trkpt lat="45.45063" lon="5.74187">
        <ele>425</ele>
        <time>2022-04-15T09:53:23Z</time>
      </trkpt>
      <trkpt lat="45.45057" lon="5.74186">
        <ele>424.9</ele>
        <time>2022-04-15T09:53:24Z</time>
      </trkpt>
      <trkpt lat="45.45052" lon="5.74186">
        <ele>424.9</ele>
        <time>2022-04-15T09:53:25Z</time>
      </trkpt>
      <trkpt lat="45.45047" lon="5.74185">
        <ele>424.8</ele>
        <time>2022-04-15T09:53:26Z</time>
      </trkpt>
      <trkpt lat="45.45043" lon="5.74184">
        <ele>424.3</ele>
        <time>2022-04-15T09:53:27Z</time>
      </trkpt>
      <trkpt lat="45.45041" lon="5.74185">
        <ele>424.3</ele>
        <time>2022-04-15T09:53:28Z</time>
      </trkpt>
      <trkpt lat="45.4504" lon="5.74187">
        <ele>424.3</ele>
        <time>2022-04-15T09:53:29Z</time>
      </trkpt>
      <trkpt lat="45.45039" lon="5.74188">
        <ele>424.3</ele>
        <time>2022-04-15T09:53:30Z</time>
      </trkpt>
      <trkpt lat="45.45041" lon="5.74197">
        <ele>424.3</ele>
        <time>2022-04-15T09:53:32Z</time>
      </trkpt>
      <trkpt lat="45.45046" lon="5.74199">
        <ele>425.3</ele>
        <time>2022-04-15T09:53:33Z</time>
      </trkpt>
      <trkpt lat="45.45047" lon="5.74198">
        <ele>425.4</ele>
        <time>2022-04-15T09:53:35Z</time>
      </trkpt>
      <trkpt lat="45.45049" lon="5.74199">
        <ele>425.4</ele>
        <time>2022-04-15T09:53:37Z</time>
      </trkpt>
      <trkpt lat="45.45051" lon="5.742">
        <ele>425.6</ele>
        <time>2022-04-15T09:53:38Z</time>
      </trkpt>
      <trkpt lat="45.45053" lon="5.74198">
        <ele>425.7</ele>
        <time>2022-04-15T09:53:40Z</time>
      </trkpt>
      <trkpt lat="45.45055" lon="5.74197">
        <ele>425.8</ele>
        <time>2022-04-15T09:53:41Z</time>
      </trkpt>
      <trkpt lat="45.45056" lon="5.74197">
        <ele>425.9</ele>
        <time>2022-04-15T09:53:42Z</time>
      </trkpt>
      <trkpt lat="45.45058" lon="5.74198">
        <ele>426</ele>
        <time>2022-04-15T09:53:43Z</time>
      </trkpt>
      <trkpt lat="45.45061" lon="5.74199">
        <ele>426.1</ele>
        <time>2022-04-15T09:53:45Z</time>
      </trkpt>
      <trkpt lat="45.45062" lon="5.74199">
        <ele>426.2</ele>
        <time>2022-04-15T09:53:46Z</time>
      </trkpt>
      <trkpt lat="45.45065" lon="5.74199">
        <ele>426.4</ele>
        <time>2022-04-15T09:53:48Z</time>
      </trkpt>
      <trkpt lat="45.45066" lon="5.74199">
        <ele>426.4</ele>
        <time>2022-04-15T09:53:49Z</time>
      </trkpt>
      <trkpt lat="45.45069" lon="5.74198">
        <ele>426.6</ele>
        <time>2022-04-15T09:53:51Z</time>
      </trkpt>
      <trkpt lat="45.45071" lon="5.742">
        <ele>426.8</ele>
        <time>2022-04-15T09:53:52Z</time>
      </trkpt>
      <trkpt lat="45.45073" lon="5.742">
        <ele>426.8</ele>
        <time>2022-04-15T09:53:53Z</time>
      </trkpt>
      <trkpt lat="45.45074" lon="5.74199">
        <ele>426.9</ele>
        <time>2022-04-15T09:53:55Z</time>
      </trkpt>
      <trkpt lat="45.45076" lon="5.74199">
        <ele>427</ele>
        <time>2022-04-15T09:53:57Z</time>
      </trkpt>
      <trkpt lat="45.45077" lon="5.74199">
        <ele>427.1</ele>
        <time>2022-04-15T09:53:58Z</time>
      </trkpt>
      <trkpt lat="45.45082" lon="5.74201">
        <ele>427.3</ele>
        <time>2022-04-15T09:54:00Z</time>
      </trkpt>
      <trkpt lat="45.45083" lon="5.74201">
        <ele>427.4</ele>
        <time>2022-04-15T09:54:02Z</time>
      </trkpt>
      <trkpt lat="45.45086" lon="5.74202">
        <ele>427.6</ele>
        <time>2022-04-15T09:54:04Z</time>
      </trkpt>
      <trkpt lat="45.45087" lon="5.74204">
        <ele>427.7</ele>
        <time>2022-04-15T09:54:05Z</time>
      </trkpt>
      <trkpt lat="45.45087" lon="5.74205">
        <ele>427.7</ele>
        <time>2022-04-15T09:54:06Z</time>
      </trkpt>
      <trkpt lat="45.45088" lon="5.74207">
        <ele>427.8</ele>
        <time>2022-04-15T09:54:07Z</time>
      </trkpt>
      <trkpt lat="45.45089" lon="5.74208">
        <ele>427.9</ele>
        <time>2022-04-15T09:54:08Z</time>
      </trkpt>
      <trkpt lat="45.4509" lon="5.7421">
        <ele>428</ele>
        <time>2022-04-15T09:54:09Z</time>
      </trkpt>
      <trkpt lat="45.45091" lon="5.74212">
        <ele>428.1</ele>
        <time>2022-04-15T09:54:10Z</time>
      </trkpt>
      <trkpt lat="45.45091" lon="5.74216">
        <ele>428.2</ele>
        <time>2022-04-15T09:54:12Z</time>
      </trkpt>
      <trkpt lat="45.45089" lon="5.74221">
        <ele>428.4</ele>
        <time>2022-04-15T09:54:14Z</time>
      </trkpt>
      <trkpt lat="45.45088" lon="5.74223">
        <ele>428.5</ele>
        <time>2022-04-15T09:54:16Z</time>
      </trkpt>
      <trkpt lat="45.45088" lon="5.74224">
        <ele>428.6</ele>
        <time>2022-04-15T09:54:17Z</time>
      </trkpt>
      <trkpt lat="45.45087" lon="5.74226">
        <ele>428.7</ele>
        <time>2022-04-15T09:54:18Z</time>
      </trkpt>
      <trkpt lat="45.45087" lon="5.74228">
        <ele>428.7</ele>
        <time>2022-04-15T09:54:19Z</time>
      </trkpt>
      <trkpt lat="45.45087" lon="5.74231">
        <ele>428.9</ele>
        <time>2022-04-15T09:54:21Z</time>
      </trkpt>
      <trkpt lat="45.45086" lon="5.74232">
        <ele>428.9</ele>
        <time>2022-04-15T09:54:22Z</time>
      </trkpt>
      <trkpt lat="45.45086" lon="5.74233">
        <ele>428.9</ele>
        <time>2022-04-15T09:54:23Z</time>
      </trkpt>
      <trkpt lat="45.45085" lon="5.74235">
        <ele>429</ele>
        <time>2022-04-15T09:54:25Z</time>
      </trkpt>
      <trkpt lat="45.45084" lon="5.74239">
        <ele>429.2</ele>
        <time>2022-04-15T09:54:27Z</time>
      </trkpt>
      <trkpt lat="45.45084" lon="5.7424">
        <ele>429.2</ele>
        <time>2022-04-15T09:54:28Z</time>
      </trkpt>
      <trkpt lat="45.45083" lon="5.74242">
        <ele>429.3</ele>
        <time>2022-04-15T09:54:29Z</time>
      </trkpt>
      <trkpt lat="45.45082" lon="5.74244">
        <ele>429.4</ele>
        <time>2022-04-15T09:54:31Z</time>
      </trkpt>
      <trkpt lat="45.45082" lon="5.74247">
        <ele>429.6</ele>
        <time>2022-04-15T09:54:33Z</time>
      </trkpt>
      <trkpt lat="45.45082" lon="5.74249">
        <ele>429.6</ele>
        <time>2022-04-15T09:54:34Z</time>
      </trkpt>
      <trkpt lat="45.45081" lon="5.7425">
        <ele>429.7</ele>
        <time>2022-04-15T09:54:35Z</time>
      </trkpt>
      <trkpt lat="45.45081" lon="5.74252">
        <ele>429.8</ele>
        <time>2022-04-15T09:54:36Z</time>
      </trkpt>
      <trkpt lat="45.45081" lon="5.74255">
        <ele>429.9</ele>
        <time>2022-04-15T09:54:38Z</time>
      </trkpt>
      <trkpt lat="45.4508" lon="5.74256">
        <ele>429.9</ele>
        <time>2022-04-15T09:54:39Z</time>
      </trkpt>
      <trkpt lat="45.4508" lon="5.74257">
        <ele>430</ele>
        <time>2022-04-15T09:54:40Z</time>
      </trkpt>
      <trkpt lat="45.4508" lon="5.7426">
        <ele>430.1</ele>
        <time>2022-04-15T09:54:42Z</time>
      </trkpt>
      <trkpt lat="45.4508" lon="5.74262">
        <ele>430.1</ele>
        <time>2022-04-15T09:54:43Z</time>
      </trkpt>
      <trkpt lat="45.4508" lon="5.74263">
        <ele>430.2</ele>
        <time>2022-04-15T09:54:44Z</time>
      </trkpt>
      <trkpt lat="45.45079" lon="5.74264">
        <ele>430.2</ele>
        <time>2022-04-15T09:54:45Z</time>
      </trkpt>
      <trkpt lat="45.4508" lon="5.74265">
        <ele>430.3</ele>
        <time>2022-04-15T09:54:46Z</time>
      </trkpt>
      <trkpt lat="45.4508" lon="5.74267">
        <ele>430.3</ele>
        <time>2022-04-15T09:54:47Z</time>
      </trkpt>
      <trkpt lat="45.4508" lon="5.7427">
        <ele>430.5</ele>
        <time>2022-04-15T09:54:49Z</time>
      </trkpt>
      <trkpt lat="45.45081" lon="5.74271">
        <ele>430.5</ele>
        <time>2022-04-15T09:54:50Z</time>
      </trkpt>
      <trkpt lat="45.45081" lon="5.74273">
        <ele>430.6</ele>
        <time>2022-04-15T09:54:51Z</time>
      </trkpt>
      <trkpt lat="45.45082" lon="5.74276">
        <ele>430.7</ele>
        <time>2022-04-15T09:54:53Z</time>
      </trkpt>
      <trkpt lat="45.45081" lon="5.74277">
        <ele>430.8</ele>
        <time>2022-04-15T09:54:54Z</time>
      </trkpt>
      <trkpt lat="45.45081" lon="5.7428">
        <ele>430.9</ele>
        <time>2022-04-15T09:54:56Z</time>
      </trkpt>
      <trkpt lat="45.45081" lon="5.74282">
        <ele>430.9</ele>
        <time>2022-04-15T09:54:57Z</time>
      </trkpt>
      <trkpt lat="45.45082" lon="5.74284">
        <ele>431</ele>
        <time>2022-04-15T09:54:58Z</time>
      </trkpt>
      <trkpt lat="45.45082" lon="5.74285">
        <ele>431.1</ele>
        <time>2022-04-15T09:54:59Z</time>
      </trkpt>
      <trkpt lat="45.45082" lon="5.74286">
        <ele>431.1</ele>
        <time>2022-04-15T09:55:00Z</time>
      </trkpt>
      <trkpt lat="45.45083" lon="5.74288">
        <ele>431.2</ele>
        <time>2022-04-15T09:55:01Z</time>
      </trkpt>
      <trkpt lat="45.45083" lon="5.7429">
        <ele>431.3</ele>
        <time>2022-04-15T09:55:02Z</time>
      </trkpt>
      <trkpt lat="45.45083" lon="5.74291">
        <ele>431.4</ele>
        <time>2022-04-15T09:55:03Z</time>
      </trkpt>
      <trkpt lat="45.45083" lon="5.74293">
        <ele>431.4</ele>
        <time>2022-04-15T09:55:05Z</time>
      </trkpt>
      <trkpt lat="45.45084" lon="5.74295">
        <ele>431.5</ele>
        <time>2022-04-15T09:55:06Z</time>
      </trkpt>
      <trkpt lat="45.45086" lon="5.74296">
        <ele>431.6</ele>
        <time>2022-04-15T09:55:08Z</time>
      </trkpt>
      <trkpt lat="45.45087" lon="5.74297">
        <ele>431.7</ele>
        <time>2022-04-15T09:55:09Z</time>
      </trkpt>
      <trkpt lat="45.45088" lon="5.74297">
        <ele>431.7</ele>
        <time>2022-04-15T09:55:10Z</time>
      </trkpt>
      <trkpt lat="45.45089" lon="5.74298">
        <ele>431.8</ele>
        <time>2022-04-15T09:55:11Z</time>
      </trkpt>
      <trkpt lat="45.45091" lon="5.743">
        <ele>431.9</ele>
        <time>2022-04-15T09:55:13Z</time>
      </trkpt>
      <trkpt lat="45.45092" lon="5.743">
        <ele>432</ele>
        <time>2022-04-15T09:55:14Z</time>
      </trkpt>
      <trkpt lat="45.45096" lon="5.743">
        <ele>432.5</ele>
        <time>2022-04-15T09:55:16Z</time>
      </trkpt>
      <trkpt lat="45.45097" lon="5.743">
        <ele>432.7</ele>
        <time>2022-04-15T09:55:17Z</time>
      </trkpt>
      <trkpt lat="45.451" lon="5.743">
        <ele>433.2</ele>
        <time>2022-04-15T09:55:19Z</time>
      </trkpt>
      <trkpt lat="45.451" lon="5.743">
        <ele>433.3</ele>
        <time>2022-04-15T09:55:20Z</time>
      </trkpt>
      <trkpt lat="45.45104" lon="5.743">
        <ele>433.8</ele>
        <time>2022-04-15T09:55:21Z</time>
      </trkpt>
      <trkpt lat="45.45105" lon="5.743">
        <ele>434</ele>
        <time>2022-04-15T09:55:22Z</time>
      </trkpt>
      <trkpt lat="45.45108" lon="5.743">
        <ele>434.4</ele>
        <time>2022-04-15T09:55:23Z</time>
      </trkpt>
      <trkpt lat="45.45109" lon="5.74299">
        <ele>434.6</ele>
        <time>2022-04-15T09:55:24Z</time>
      </trkpt>
      <trkpt lat="45.45111" lon="5.74299">
        <ele>434.8</ele>
        <time>2022-04-15T09:55:26Z</time>
      </trkpt>
      <trkpt lat="45.45112" lon="5.74299">
        <ele>435</ele>
        <time>2022-04-15T09:55:27Z</time>
      </trkpt>
      <trkpt lat="45.45114" lon="5.74299">
        <ele>435.3</ele>
        <time>2022-04-15T09:55:28Z</time>
      </trkpt>
      <trkpt lat="45.45117" lon="5.74298">
        <ele>435.6</ele>
        <time>2022-04-15T09:55:30Z</time>
      </trkpt>
      <trkpt lat="45.4512" lon="5.74299">
        <ele>436</ele>
        <time>2022-04-15T09:55:31Z</time>
      </trkpt>
      <trkpt lat="45.45121" lon="5.743">
        <ele>436.1</ele>
        <time>2022-04-15T09:55:32Z</time>
      </trkpt>
      <trkpt lat="45.45124" lon="5.743">
        <ele>436.4</ele>
        <time>2022-04-15T09:55:33Z</time>
      </trkpt>
      <trkpt lat="45.45126" lon="5.743">
        <ele>436.6</ele>
        <time>2022-04-15T09:55:35Z</time>
      </trkpt>
      <trkpt lat="45.45127" lon="5.743">
        <ele>436.8</ele>
        <time>2022-04-15T09:55:36Z</time>
      </trkpt>
      <trkpt lat="45.45129" lon="5.743">
        <ele>436.9</ele>
        <time>2022-04-15T09:55:37Z</time>
      </trkpt>
      <trkpt lat="45.4513" lon="5.74301">
        <ele>437.1</ele>
        <time>2022-04-15T09:55:38Z</time>
      </trkpt>
      <trkpt lat="45.45132" lon="5.74301">
        <ele>437.3</ele>
        <time>2022-04-15T09:55:39Z</time>
      </trkpt>
      <trkpt lat="45.45135" lon="5.74304">
        <ele>437.7</ele>
        <time>2022-04-15T09:55:41Z</time>
      </trkpt>
      <trkpt lat="45.45136" lon="5.74305">
        <ele>437.8</ele>
        <time>2022-04-15T09:55:42Z</time>
      </trkpt>
      <trkpt lat="45.45137" lon="5.74305">
        <ele>438</ele>
        <time>2022-04-15T09:55:43Z</time>
      </trkpt>
      <trkpt lat="45.4514" lon="5.74305">
        <ele>438.3</ele>
        <time>2022-04-15T09:55:45Z</time>
      </trkpt>
      <trkpt lat="45.45144" lon="5.74305">
        <ele>438.6</ele>
        <time>2022-04-15T09:55:46Z</time>
      </trkpt>
      <trkpt lat="45.45145" lon="5.74305">
        <ele>438.8</ele>
        <time>2022-04-15T09:55:47Z</time>
      </trkpt>
      <trkpt lat="45.45146" lon="5.74304">
        <ele>438.9</ele>
        <time>2022-04-15T09:55:48Z</time>
      </trkpt>
      <trkpt lat="45.45149" lon="5.74304">
        <ele>439.1</ele>
        <time>2022-04-15T09:55:50Z</time>
      </trkpt>
      <trkpt lat="45.45153" lon="5.74304">
        <ele>439.5</ele>
        <time>2022-04-15T09:55:52Z</time>
      </trkpt>
      <trkpt lat="45.45157" lon="5.74304">
        <ele>439.8</ele>
        <time>2022-04-15T09:55:53Z</time>
      </trkpt>
      <trkpt lat="45.45159" lon="5.74304">
        <ele>440</ele>
        <time>2022-04-15T09:55:54Z</time>
      </trkpt>
      <trkpt lat="45.45161" lon="5.74303">
        <ele>440.1</ele>
        <time>2022-04-15T09:55:56Z</time>
      </trkpt>
      <trkpt lat="45.45166" lon="5.74303">
        <ele>440.5</ele>
        <time>2022-04-15T09:55:58Z</time>
      </trkpt>
      <trkpt lat="45.4517" lon="5.74303">
        <ele>440.8</ele>
        <time>2022-04-15T09:56:00Z</time>
      </trkpt>
      <trkpt lat="45.45172" lon="5.74302">
        <ele>441.1</ele>
        <time>2022-04-15T09:56:01Z</time>
      </trkpt>
      <trkpt lat="45.45176" lon="5.74303">
        <ele>441.4</ele>
        <time>2022-04-15T09:56:02Z</time>
      </trkpt>
      <trkpt lat="45.45177" lon="5.74303">
        <ele>441.5</ele>
        <time>2022-04-15T09:56:03Z</time>
      </trkpt>
      <trkpt lat="45.45182" lon="5.74301">
        <ele>441.8</ele>
        <time>2022-04-15T09:56:05Z</time>
      </trkpt>
      <trkpt lat="45.45185" lon="5.74301">
        <ele>442.1</ele>
        <time>2022-04-15T09:56:06Z</time>
      </trkpt>
      <trkpt lat="45.45188" lon="5.74301">
        <ele>442.3</ele>
        <time>2022-04-15T09:56:07Z</time>
      </trkpt>
      <trkpt lat="45.45189" lon="5.743">
        <ele>442.4</ele>
        <time>2022-04-15T09:56:08Z</time>
      </trkpt>
      <trkpt lat="45.45193" lon="5.74299">
        <ele>442.8</ele>
        <time>2022-04-15T09:56:09Z</time>
      </trkpt>
      <trkpt lat="45.45195" lon="5.74298">
        <ele>442.9</ele>
        <time>2022-04-15T09:56:10Z</time>
      </trkpt>
      <trkpt lat="45.452" lon="5.74298">
        <ele>443.3</ele>
        <time>2022-04-15T09:56:12Z</time>
      </trkpt>
      <trkpt lat="45.45203" lon="5.74297">
        <ele>443.6</ele>
        <time>2022-04-15T09:56:13Z</time>
      </trkpt>
      <trkpt lat="45.45207" lon="5.74295">
        <ele>443.9</ele>
        <time>2022-04-15T09:56:15Z</time>
      </trkpt>
      <trkpt lat="45.4521" lon="5.74294">
        <ele>444.2</ele>
        <time>2022-04-15T09:56:16Z</time>
      </trkpt>
      <trkpt lat="45.45212" lon="5.74294">
        <ele>444.3</ele>
        <time>2022-04-15T09:56:17Z</time>
      </trkpt>
      <trkpt lat="45.45214" lon="5.74294">
        <ele>444.6</ele>
        <time>2022-04-15T09:56:18Z</time>
      </trkpt>
      <trkpt lat="45.45218" lon="5.74294">
        <ele>444.9</ele>
        <time>2022-04-15T09:56:19Z</time>
      </trkpt>
      <trkpt lat="45.45222" lon="5.74293">
        <ele>445.3</ele>
        <time>2022-04-15T09:56:21Z</time>
      </trkpt>
      <trkpt lat="45.45223" lon="5.74292">
        <ele>445.4</ele>
        <time>2022-04-15T09:56:22Z</time>
      </trkpt>
      <trkpt lat="45.45227" lon="5.74292">
        <ele>445.8</ele>
        <time>2022-04-15T09:56:24Z</time>
      </trkpt>
      <trkpt lat="45.4523" lon="5.74291">
        <ele>446</ele>
        <time>2022-04-15T09:56:25Z</time>
      </trkpt>
      <trkpt lat="45.45232" lon="5.74289">
        <ele>446.3</ele>
        <time>2022-04-15T09:56:27Z</time>
      </trkpt>
      <trkpt lat="45.45234" lon="5.74289">
        <ele>446.5</ele>
        <time>2022-04-15T09:56:28Z</time>
      </trkpt>
      <trkpt lat="45.45236" lon="5.74289">
        <ele>446.6</ele>
        <time>2022-04-15T09:56:29Z</time>
      </trkpt>
      <trkpt lat="45.45239" lon="5.74287">
        <ele>447</ele>
        <time>2022-04-15T09:56:30Z</time>
      </trkpt>
      <trkpt lat="45.4524" lon="5.74287">
        <ele>447.1</ele>
        <time>2022-04-15T09:56:31Z</time>
      </trkpt>
      <trkpt lat="45.45243" lon="5.74285">
        <ele>447.4</ele>
        <time>2022-04-15T09:56:32Z</time>
      </trkpt>
      <trkpt lat="45.45247" lon="5.74284">
        <ele>447.8</ele>
        <time>2022-04-15T09:56:33Z</time>
      </trkpt>
      <trkpt lat="45.45249" lon="5.74284">
        <ele>448</ele>
        <time>2022-04-15T09:56:34Z</time>
      </trkpt>
      <trkpt lat="45.45252" lon="5.74283">
        <ele>448.3</ele>
        <time>2022-04-15T09:56:36Z</time>
      </trkpt>
      <trkpt lat="45.45255" lon="5.74282">
        <ele>448.7</ele>
        <time>2022-04-15T09:56:37Z</time>
      </trkpt>
      <trkpt lat="45.45258" lon="5.74281">
        <ele>448.9</ele>
        <time>2022-04-15T09:56:38Z</time>
      </trkpt>
      <trkpt lat="45.45262" lon="5.74281">
        <ele>449.4</ele>
        <time>2022-04-15T09:56:40Z</time>
      </trkpt>
      <trkpt lat="45.45265" lon="5.74281">
        <ele>449.8</ele>
        <time>2022-04-15T09:56:41Z</time>
      </trkpt>
      <trkpt lat="45.45267" lon="5.74281">
        <ele>449.9</ele>
        <time>2022-04-15T09:56:42Z</time>
      </trkpt>
      <trkpt lat="45.4527" lon="5.74281">
        <ele>450.4</ele>
        <time>2022-04-15T09:56:43Z</time>
      </trkpt>
      <trkpt lat="45.45272" lon="5.74282">
        <ele>450.5</ele>
        <time>2022-04-15T09:56:44Z</time>
      </trkpt>
      <trkpt lat="45.45275" lon="5.74281">
        <ele>450.9</ele>
        <time>2022-04-15T09:56:45Z</time>
      </trkpt>
      <trkpt lat="45.45279" lon="5.74281">
        <ele>451.3</ele>
        <time>2022-04-15T09:56:47Z</time>
      </trkpt>
      <trkpt lat="45.45283" lon="5.7428">
        <ele>451.7</ele>
        <time>2022-04-15T09:56:48Z</time>
      </trkpt>
      <trkpt lat="45.45286" lon="5.7428">
        <ele>452.1</ele>
        <time>2022-04-15T09:56:49Z</time>
      </trkpt>
      <trkpt lat="45.4529" lon="5.74279">
        <ele>452.6</ele>
        <time>2022-04-15T09:56:51Z</time>
      </trkpt>
      <trkpt lat="45.45292" lon="5.74279">
        <ele>452.8</ele>
        <time>2022-04-15T09:56:52Z</time>
      </trkpt>
      <trkpt lat="45.45293" lon="5.74279">
        <ele>453</ele>
        <time>2022-04-15T09:56:53Z</time>
      </trkpt>
      <trkpt lat="45.45296" lon="5.74279">
        <ele>453.3</ele>
        <time>2022-04-15T09:56:54Z</time>
      </trkpt>
      <trkpt lat="45.45299" lon="5.74278">
        <ele>453.7</ele>
        <time>2022-04-15T09:56:56Z</time>
      </trkpt>
      <trkpt lat="45.45302" lon="5.74279">
        <ele>454.1</ele>
        <time>2022-04-15T09:56:58Z</time>
      </trkpt>
      <trkpt lat="45.45305" lon="5.7428">
        <ele>454.5</ele>
        <time>2022-04-15T09:56:59Z</time>
      </trkpt>
      <trkpt lat="45.45308" lon="5.74281">
        <ele>454.9</ele>
        <time>2022-04-15T09:57:01Z</time>
      </trkpt>
      <trkpt lat="45.45312" lon="5.7428">
        <ele>455.5</ele>
        <time>2022-04-15T09:57:03Z</time>
      </trkpt>
      <trkpt lat="45.45313" lon="5.74281">
        <ele>455.7</ele>
        <time>2022-04-15T09:57:04Z</time>
      </trkpt>
      <trkpt lat="45.45315" lon="5.74281">
        <ele>455.9</ele>
        <time>2022-04-15T09:57:05Z</time>
      </trkpt>
      <trkpt lat="45.45318" lon="5.74281">
        <ele>456.4</ele>
        <time>2022-04-15T09:57:07Z</time>
      </trkpt>
      <trkpt lat="45.4532" lon="5.7428">
        <ele>456.5</ele>
        <time>2022-04-15T09:57:08Z</time>
      </trkpt>
      <trkpt lat="45.45321" lon="5.7428">
        <ele>456.7</ele>
        <time>2022-04-15T09:57:09Z</time>
      </trkpt>
      <trkpt lat="45.45323" lon="5.74281">
        <ele>456.8</ele>
        <time>2022-04-15T09:57:10Z</time>
      </trkpt>
      <trkpt lat="45.45325" lon="5.74281">
        <ele>457</ele>
        <time>2022-04-15T09:57:11Z</time>
      </trkpt>
      <trkpt lat="45.45328" lon="5.74281">
        <ele>457.3</ele>
        <time>2022-04-15T09:57:12Z</time>
      </trkpt>
      <trkpt lat="45.45331" lon="5.74281">
        <ele>457.5</ele>
        <time>2022-04-15T09:57:14Z</time>
      </trkpt>
      <trkpt lat="45.45332" lon="5.74281">
        <ele>457.6</ele>
        <time>2022-04-15T09:57:15Z</time>
      </trkpt>
      <trkpt lat="45.45333" lon="5.74281">
        <ele>457.7</ele>
        <time>2022-04-15T09:57:16Z</time>
      </trkpt>
      <trkpt lat="45.45335" lon="5.74282">
        <ele>457.9</ele>
        <time>2022-04-15T09:57:17Z</time>
      </trkpt>
      <trkpt lat="45.45337" lon="5.74282">
        <ele>458</ele>
        <time>2022-04-15T09:57:18Z</time>
      </trkpt>
      <trkpt lat="45.45338" lon="5.74283">
        <ele>458.1</ele>
        <time>2022-04-15T09:57:19Z</time>
      </trkpt>
      <trkpt lat="45.45339" lon="5.74284">
        <ele>458.3</ele>
        <time>2022-04-15T09:57:20Z</time>
      </trkpt>
      <trkpt lat="45.45341" lon="5.74284">
        <ele>458.4</ele>
        <time>2022-04-15T09:57:21Z</time>
      </trkpt>
      <trkpt lat="45.45343" lon="5.74286">
        <ele>458.6</ele>
        <time>2022-04-15T09:57:22Z</time>
      </trkpt>
      <trkpt lat="45.45344" lon="5.74286">
        <ele>458.7</ele>
        <time>2022-04-15T09:57:23Z</time>
      </trkpt>
      <trkpt lat="45.45346" lon="5.74287">
        <ele>458.8</ele>
        <time>2022-04-15T09:57:25Z</time>
      </trkpt>
      <trkpt lat="45.45347" lon="5.74288">
        <ele>459</ele>
        <time>2022-04-15T09:57:26Z</time>
      </trkpt>
      <trkpt lat="45.45349" lon="5.74288">
        <ele>459.1</ele>
        <time>2022-04-15T09:57:27Z</time>
      </trkpt>
      <trkpt lat="45.45351" lon="5.74289">
        <ele>459.3</ele>
        <time>2022-04-15T09:57:28Z</time>
      </trkpt>
      <trkpt lat="45.45352" lon="5.7429">
        <ele>459.4</ele>
        <time>2022-04-15T09:57:29Z</time>
      </trkpt>
      <trkpt lat="45.45353" lon="5.74292">
        <ele>459.5</ele>
        <time>2022-04-15T09:57:31Z</time>
      </trkpt>
      <trkpt lat="45.45356" lon="5.74294">
        <ele>459.8</ele>
        <time>2022-04-15T09:57:33Z</time>
      </trkpt>
      <trkpt lat="45.45359" lon="5.74297">
        <ele>460.1</ele>
        <time>2022-04-15T09:57:35Z</time>
      </trkpt>
      <trkpt lat="45.45361" lon="5.74299">
        <ele>460.3</ele>
        <time>2022-04-15T09:57:37Z</time>
      </trkpt>
      <trkpt lat="45.45362" lon="5.74301">
        <ele>460.4</ele>
        <time>2022-04-15T09:57:38Z</time>
      </trkpt>
      <trkpt lat="45.45363" lon="5.74302">
        <ele>460.5</ele>
        <time>2022-04-15T09:57:39Z</time>
      </trkpt>
      <trkpt lat="45.45365" lon="5.74304">
        <ele>460.8</ele>
        <time>2022-04-15T09:57:40Z</time>
      </trkpt>
      <trkpt lat="45.45366" lon="5.74305">
        <ele>460.9</ele>
        <time>2022-04-15T09:57:41Z</time>
      </trkpt>
      <trkpt lat="45.45369" lon="5.74306">
        <ele>461.1</ele>
        <time>2022-04-15T09:57:42Z</time>
      </trkpt>
      <trkpt lat="45.4537" lon="5.74307">
        <ele>461.2</ele>
        <time>2022-04-15T09:57:43Z</time>
      </trkpt>
      <trkpt lat="45.45372" lon="5.74307">
        <ele>461.3</ele>
        <time>2022-04-15T09:57:44Z</time>
      </trkpt>
      <trkpt lat="45.45373" lon="5.74307">
        <ele>461.5</ele>
        <time>2022-04-15T09:57:45Z</time>
      </trkpt>
      <trkpt lat="45.45376" lon="5.74308">
        <ele>461.7</ele>
        <time>2022-04-15T09:57:47Z</time>
      </trkpt>
      <trkpt lat="45.45379" lon="5.74309">
        <ele>462</ele>
        <time>2022-04-15T09:57:48Z</time>
      </trkpt>
      <trkpt lat="45.45382" lon="5.74311">
        <ele>462.2</ele>
        <time>2022-04-15T09:57:50Z</time>
      </trkpt>
      <trkpt lat="45.45384" lon="5.74314">
        <ele>462.5</ele>
        <time>2022-04-15T09:57:51Z</time>
      </trkpt>
      <trkpt lat="45.45385" lon="5.74318">
        <ele>462.7</ele>
        <time>2022-04-15T09:57:53Z</time>
      </trkpt>
      <trkpt lat="45.45385" lon="5.7432">
        <ele>462.8</ele>
        <time>2022-04-15T09:57:54Z</time>
      </trkpt>
      <trkpt lat="45.45386" lon="5.74322">
        <ele>463</ele>
        <time>2022-04-15T09:57:55Z</time>
      </trkpt>
      <trkpt lat="45.45386" lon="5.74324">
        <ele>463.1</ele>
        <time>2022-04-15T09:57:56Z</time>
      </trkpt>
      <trkpt lat="45.45386" lon="5.74327">
        <ele>463.3</ele>
        <time>2022-04-15T09:57:57Z</time>
      </trkpt>
      <trkpt lat="45.45387" lon="5.74329">
        <ele>463.4</ele>
        <time>2022-04-15T09:57:58Z</time>
      </trkpt>
      <trkpt lat="45.45389" lon="5.74332">
        <ele>463.6</ele>
        <time>2022-04-15T09:58:00Z</time>
      </trkpt>
      <trkpt lat="45.4539" lon="5.74334">
        <ele>463.8</ele>
        <time>2022-04-15T09:58:01Z</time>
      </trkpt>
      <trkpt lat="45.45391" lon="5.74336">
        <ele>463.9</ele>
        <time>2022-04-15T09:58:02Z</time>
      </trkpt>
      <trkpt lat="45.45392" lon="5.74339">
        <ele>464.1</ele>
        <time>2022-04-15T09:58:03Z</time>
      </trkpt>
      <trkpt lat="45.45393" lon="5.74341">
        <ele>464.2</ele>
        <time>2022-04-15T09:58:04Z</time>
      </trkpt>
      <trkpt lat="45.45394" lon="5.74345">
        <ele>464.5</ele>
        <time>2022-04-15T09:58:06Z</time>
      </trkpt>
      <trkpt lat="45.45396" lon="5.74348">
        <ele>464.8</ele>
        <time>2022-04-15T09:58:07Z</time>
      </trkpt>
      <trkpt lat="45.45398" lon="5.74352">
        <ele>465</ele>
        <time>2022-04-15T09:58:09Z</time>
      </trkpt>
      <trkpt lat="45.454" lon="5.74357">
        <ele>465.4</ele>
        <time>2022-04-15T09:58:10Z</time>
      </trkpt>
      <trkpt lat="45.45401" lon="5.7436">
        <ele>465.5</ele>
        <time>2022-04-15T09:58:11Z</time>
      </trkpt>
      <trkpt lat="45.45402" lon="5.74363">
        <ele>465.8</ele>
        <time>2022-04-15T09:58:13Z</time>
      </trkpt>
      <trkpt lat="45.45403" lon="5.74366">
        <ele>465.9</ele>
        <time>2022-04-15T09:58:14Z</time>
      </trkpt>
      <trkpt lat="45.45405" lon="5.74373">
        <ele>466.4</ele>
        <time>2022-04-15T09:58:16Z</time>
      </trkpt>
      <trkpt lat="45.45406" lon="5.74376">
        <ele>466.6</ele>
        <time>2022-04-15T09:58:18Z</time>
      </trkpt>
      <trkpt lat="45.45407" lon="5.74381">
        <ele>466.9</ele>
        <time>2022-04-15T09:58:19Z</time>
      </trkpt>
      <trkpt lat="45.45407" lon="5.74383">
        <ele>467</ele>
        <time>2022-04-15T09:58:20Z</time>
      </trkpt>
      <trkpt lat="45.45408" lon="5.74387">
        <ele>467.3</ele>
        <time>2022-04-15T09:58:22Z</time>
      </trkpt>
      <trkpt lat="45.45409" lon="5.74389">
        <ele>467.4</ele>
        <time>2022-04-15T09:58:23Z</time>
      </trkpt>
      <trkpt lat="45.4541" lon="5.7439">
        <ele>467.5</ele>
        <time>2022-04-15T09:58:24Z</time>
      </trkpt>
      <trkpt lat="45.45411" lon="5.74394">
        <ele>467.7</ele>
        <time>2022-04-15T09:58:25Z</time>
      </trkpt>
      <trkpt lat="45.45411" lon="5.74395">
        <ele>467.8</ele>
        <time>2022-04-15T09:58:26Z</time>
      </trkpt>
      <trkpt lat="45.45411" lon="5.74398">
        <ele>468</ele>
        <time>2022-04-15T09:58:27Z</time>
      </trkpt>
      <trkpt lat="45.45412" lon="5.74402">
        <ele>468.2</ele>
        <time>2022-04-15T09:58:29Z</time>
      </trkpt>
      <trkpt lat="45.45412" lon="5.74405">
        <ele>468.4</ele>
        <time>2022-04-15T09:58:30Z</time>
      </trkpt>
      <trkpt lat="45.45412" lon="5.74406">
        <ele>468.5</ele>
        <time>2022-04-15T09:58:31Z</time>
      </trkpt>
      <trkpt lat="45.45413" lon="5.74407">
        <ele>468.6</ele>
        <time>2022-04-15T09:58:32Z</time>
      </trkpt>
      <trkpt lat="45.45413" lon="5.74409">
        <ele>468.7</ele>
        <time>2022-04-15T09:58:33Z</time>
      </trkpt>
      <trkpt lat="45.45413" lon="5.74411">
        <ele>468.8</ele>
        <time>2022-04-15T09:58:34Z</time>
      </trkpt>
      <trkpt lat="45.45414" lon="5.74416">
        <ele>469.1</ele>
        <time>2022-04-15T09:58:36Z</time>
      </trkpt>
      <trkpt lat="45.45415" lon="5.74417">
        <ele>469.1</ele>
        <time>2022-04-15T09:58:37Z</time>
      </trkpt>
      <trkpt lat="45.45415" lon="5.74418">
        <ele>469.2</ele>
        <time>2022-04-15T09:58:38Z</time>
      </trkpt>
      <trkpt lat="45.45416" lon="5.7442">
        <ele>469.4</ele>
        <time>2022-04-15T09:58:39Z</time>
      </trkpt>
      <trkpt lat="45.45417" lon="5.74424">
        <ele>469.6</ele>
        <time>2022-04-15T09:58:41Z</time>
      </trkpt>
      <trkpt lat="45.45417" lon="5.74426">
        <ele>469.8</ele>
        <time>2022-04-15T09:58:42Z</time>
      </trkpt>
      <trkpt lat="45.45418" lon="5.74427">
        <ele>469.8</ele>
        <time>2022-04-15T09:58:43Z</time>
      </trkpt>
      <trkpt lat="45.45418" lon="5.74428">
        <ele>469.9</ele>
        <time>2022-04-15T09:58:44Z</time>
      </trkpt>
      <trkpt lat="45.45418" lon="5.7443">
        <ele>470</ele>
        <time>2022-04-15T09:58:45Z</time>
      </trkpt>
      <trkpt lat="45.45419" lon="5.74431">
        <ele>470.1</ele>
        <time>2022-04-15T09:58:46Z</time>
      </trkpt>
      <trkpt lat="45.45419" lon="5.74433">
        <ele>470.2</ele>
        <time>2022-04-15T09:58:47Z</time>
      </trkpt>
      <trkpt lat="45.45419" lon="5.74436">
        <ele>470.3</ele>
        <time>2022-04-15T09:58:48Z</time>
      </trkpt>
      <trkpt lat="45.45419" lon="5.74437">
        <ele>470.4</ele>
        <time>2022-04-15T09:58:49Z</time>
      </trkpt>
      <trkpt lat="45.4542" lon="5.74438">
        <ele>470.5</ele>
        <time>2022-04-15T09:58:50Z</time>
      </trkpt>
      <trkpt lat="45.4542" lon="5.74439">
        <ele>470.6</ele>
        <time>2022-04-15T09:58:51Z</time>
      </trkpt>
      <trkpt lat="45.4542" lon="5.74441">
        <ele>470.7</ele>
        <time>2022-04-15T09:58:52Z</time>
      </trkpt>
      <trkpt lat="45.45421" lon="5.74442">
        <ele>470.8</ele>
        <time>2022-04-15T09:58:53Z</time>
      </trkpt>
      <trkpt lat="45.45421" lon="5.74445">
        <ele>470.9</ele>
        <time>2022-04-15T09:58:54Z</time>
      </trkpt>
      <trkpt lat="45.45421" lon="5.74446">
        <ele>471</ele>
        <time>2022-04-15T09:58:55Z</time>
      </trkpt>
      <trkpt lat="45.45421" lon="5.74448">
        <ele>471.1</ele>
        <time>2022-04-15T09:58:56Z</time>
      </trkpt>
      <trkpt lat="45.45421" lon="5.74449">
        <ele>471.2</ele>
        <time>2022-04-15T09:58:57Z</time>
      </trkpt>
      <trkpt lat="45.45421" lon="5.74451">
        <ele>471.3</ele>
        <time>2022-04-15T09:58:58Z</time>
      </trkpt>
      <trkpt lat="45.45421" lon="5.74453">
        <ele>471.4</ele>
        <time>2022-04-15T09:58:59Z</time>
      </trkpt>
      <trkpt lat="45.45421" lon="5.74454">
        <ele>471.5</ele>
        <time>2022-04-15T09:59:00Z</time>
      </trkpt>
      <trkpt lat="45.45421" lon="5.74456">
        <ele>471.6</ele>
        <time>2022-04-15T09:59:01Z</time>
      </trkpt>
      <trkpt lat="45.45421" lon="5.74458">
        <ele>471.7</ele>
        <time>2022-04-15T09:59:02Z</time>
      </trkpt>
      <trkpt lat="45.45421" lon="5.74459">
        <ele>471.7</ele>
        <time>2022-04-15T09:59:03Z</time>
      </trkpt>
      <trkpt lat="45.45422" lon="5.7446">
        <ele>471.8</ele>
        <time>2022-04-15T09:59:04Z</time>
      </trkpt>
      <trkpt lat="45.45422" lon="5.74462">
        <ele>471.9</ele>
        <time>2022-04-15T09:59:05Z</time>
      </trkpt>
      <trkpt lat="45.45422" lon="5.74463">
        <ele>472</ele>
        <time>2022-04-15T09:59:06Z</time>
      </trkpt>
      <trkpt lat="45.45423" lon="5.74465">
        <ele>472.1</ele>
        <time>2022-04-15T09:59:07Z</time>
      </trkpt>
      <trkpt lat="45.45423" lon="5.74467">
        <ele>472.2</ele>
        <time>2022-04-15T09:59:08Z</time>
      </trkpt>
      <trkpt lat="45.45423" lon="5.74468">
        <ele>472.3</ele>
        <time>2022-04-15T09:59:09Z</time>
      </trkpt>
      <trkpt lat="45.45423" lon="5.7447">
        <ele>472.4</ele>
        <time>2022-04-15T09:59:10Z</time>
      </trkpt>
      <trkpt lat="45.45423" lon="5.74472">
        <ele>472.5</ele>
        <time>2022-04-15T09:59:11Z</time>
      </trkpt>
      <trkpt lat="45.45423" lon="5.74473">
        <ele>472.6</ele>
        <time>2022-04-15T09:59:12Z</time>
      </trkpt>
      <trkpt lat="45.45422" lon="5.74475">
        <ele>472.7</ele>
        <time>2022-04-15T09:59:13Z</time>
      </trkpt>
      <trkpt lat="45.45422" lon="5.74476">
        <ele>472.8</ele>
        <time>2022-04-15T09:59:14Z</time>
      </trkpt>
      <trkpt lat="45.45422" lon="5.74479">
        <ele>473</ele>
        <time>2022-04-15T09:59:15Z</time>
      </trkpt>
      <trkpt lat="45.45422" lon="5.7448">
        <ele>473</ele>
        <time>2022-04-15T09:59:16Z</time>
      </trkpt>
      <trkpt lat="45.45422" lon="5.74481">
        <ele>473.1</ele>
        <time>2022-04-15T09:59:17Z</time>
      </trkpt>
      <trkpt lat="45.45422" lon="5.74483">
        <ele>473.2</ele>
        <time>2022-04-15T09:59:18Z</time>
      </trkpt>
      <trkpt lat="45.45422" lon="5.74485">
        <ele>473.3</ele>
        <time>2022-04-15T09:59:19Z</time>
      </trkpt>
      <trkpt lat="45.45422" lon="5.74488">
        <ele>473.5</ele>
        <time>2022-04-15T09:59:20Z</time>
      </trkpt>
      <trkpt lat="45.45421" lon="5.7449">
        <ele>473.6</ele>
        <time>2022-04-15T09:59:22Z</time>
      </trkpt>
      <trkpt lat="45.45421" lon="5.74491">
        <ele>473.7</ele>
        <time>2022-04-15T09:59:23Z</time>
      </trkpt>
      <trkpt lat="45.45421" lon="5.74493">
        <ele>473.8</ele>
        <time>2022-04-15T09:59:24Z</time>
      </trkpt>
      <trkpt lat="45.4542" lon="5.74494">
        <ele>473.9</ele>
        <time>2022-04-15T09:59:25Z</time>
      </trkpt>
      <trkpt lat="45.45419" lon="5.74497">
        <ele>474.1</ele>
        <time>2022-04-15T09:59:27Z</time>
      </trkpt>
      <trkpt lat="45.45419" lon="5.74498">
        <ele>474.2</ele>
        <time>2022-04-15T09:59:28Z</time>
      </trkpt>
      <trkpt lat="45.45418" lon="5.74501">
        <ele>474.4</ele>
        <time>2022-04-15T09:59:29Z</time>
      </trkpt>
      <trkpt lat="45.45417" lon="5.74503">
        <ele>474.5</ele>
        <time>2022-04-15T09:59:30Z</time>
      </trkpt>
      <trkpt lat="45.45417" lon="5.74504">
        <ele>474.5</ele>
        <time>2022-04-15T09:59:31Z</time>
      </trkpt>
      <trkpt lat="45.45416" lon="5.74506">
        <ele>474.7</ele>
        <time>2022-04-15T09:59:33Z</time>
      </trkpt>
      <trkpt lat="45.45415" lon="5.74509">
        <ele>475.4</ele>
        <time>2022-04-15T09:59:35Z</time>
      </trkpt>
      <trkpt lat="45.45416" lon="5.74512">
        <ele>475.5</ele>
        <time>2022-04-15T09:59:36Z</time>
      </trkpt>
      <trkpt lat="45.45416" lon="5.74513">
        <ele>475.5</ele>
        <time>2022-04-15T09:59:37Z</time>
      </trkpt>
      <trkpt lat="45.45416" lon="5.74514">
        <ele>475.5</ele>
        <time>2022-04-15T09:59:38Z</time>
      </trkpt>
      <trkpt lat="45.45419" lon="5.74516">
        <ele>475.5</ele>
        <time>2022-04-15T09:59:39Z</time>
      </trkpt>
      <trkpt lat="45.45419" lon="5.74517">
        <ele>475.6</ele>
        <time>2022-04-15T09:59:40Z</time>
      </trkpt>
      <trkpt lat="45.45424" lon="5.74515">
        <ele>475.6</ele>
        <time>2022-04-15T09:59:42Z</time>
      </trkpt>
      <trkpt lat="45.45425" lon="5.74515">
        <ele>475.7</ele>
        <time>2022-04-15T09:59:43Z</time>
      </trkpt>
      <trkpt lat="45.45427" lon="5.74514">
        <ele>475.7</ele>
        <time>2022-04-15T09:59:45Z</time>
      </trkpt>
      <trkpt lat="45.4543" lon="5.74512">
        <ele>475.8</ele>
        <time>2022-04-15T09:59:46Z</time>
      </trkpt>
      <trkpt lat="45.45431" lon="5.74511">
        <ele>475.8</ele>
        <time>2022-04-15T09:59:47Z</time>
      </trkpt>
      <trkpt lat="45.45435" lon="5.74509">
        <ele>475.9</ele>
        <time>2022-04-15T09:59:49Z</time>
      </trkpt>
      <trkpt lat="45.45437" lon="5.74508">
        <ele>475.9</ele>
        <time>2022-04-15T09:59:50Z</time>
      </trkpt>
      <trkpt lat="45.45438" lon="5.74507">
        <ele>476</ele>
        <time>2022-04-15T09:59:51Z</time>
      </trkpt>
      <trkpt lat="45.4544" lon="5.74506">
        <ele>476.1</ele>
        <time>2022-04-15T09:59:53Z</time>
      </trkpt>
      <trkpt lat="45.45442" lon="5.74505">
        <ele>476.2</ele>
        <time>2022-04-15T09:59:54Z</time>
      </trkpt>
      <trkpt lat="45.45443" lon="5.74505">
        <ele>476.3</ele>
        <time>2022-04-15T09:59:55Z</time>
      </trkpt>
      <trkpt lat="45.45445" lon="5.74504">
        <ele>476.4</ele>
        <time>2022-04-15T09:59:56Z</time>
      </trkpt>
      <trkpt lat="45.45447" lon="5.74503">
        <ele>476.5</ele>
        <time>2022-04-15T09:59:57Z</time>
      </trkpt>
      <trkpt lat="45.45448" lon="5.74502">
        <ele>476.6</ele>
        <time>2022-04-15T09:59:58Z</time>
      </trkpt>
      <trkpt lat="45.4545" lon="5.74502">
        <ele>476.7</ele>
        <time>2022-04-15T09:59:59Z</time>
      </trkpt>
      <trkpt lat="45.45452" lon="5.745">
        <ele>476.8</ele>
        <time>2022-04-15T10:00:00Z</time>
      </trkpt>
      <trkpt lat="45.45455" lon="5.74499">
        <ele>477</ele>
        <time>2022-04-15T10:00:02Z</time>
      </trkpt>
      <trkpt lat="45.45458" lon="5.74497">
        <ele>477.2</ele>
        <time>2022-04-15T10:00:03Z</time>
      </trkpt>
      <trkpt lat="45.45459" lon="5.74496">
        <ele>477.3</ele>
        <time>2022-04-15T10:00:04Z</time>
      </trkpt>
      <trkpt lat="45.45462" lon="5.74494">
        <ele>477.4</ele>
        <time>2022-04-15T10:00:05Z</time>
      </trkpt>
      <trkpt lat="45.45463" lon="5.74494">
        <ele>477.5</ele>
        <time>2022-04-15T10:00:06Z</time>
      </trkpt>
      <trkpt lat="45.45465" lon="5.74492">
        <ele>477.7</ele>
        <time>2022-04-15T10:00:08Z</time>
      </trkpt>
      <trkpt lat="45.45467" lon="5.74491">
        <ele>477.8</ele>
        <time>2022-04-15T10:00:09Z</time>
      </trkpt>
      <trkpt lat="45.45469" lon="5.7449">
        <ele>477.9</ele>
        <time>2022-04-15T10:00:10Z</time>
      </trkpt>
      <trkpt lat="45.45472" lon="5.74488">
        <ele>478.1</ele>
        <time>2022-04-15T10:00:11Z</time>
      </trkpt>
      <trkpt lat="45.45473" lon="5.74488">
        <ele>478.1</ele>
        <time>2022-04-15T10:00:12Z</time>
      </trkpt>
      <trkpt lat="45.45477" lon="5.74485">
        <ele>478.4</ele>
        <time>2022-04-15T10:00:14Z</time>
      </trkpt>
      <trkpt lat="45.45481" lon="5.74483">
        <ele>478.6</ele>
        <time>2022-04-15T10:00:16Z</time>
      </trkpt>
      <trkpt lat="45.45482" lon="5.74482">
        <ele>478.7</ele>
        <time>2022-04-15T10:00:17Z</time>
      </trkpt>
      <trkpt lat="45.45485" lon="5.7448">
        <ele>478.9</ele>
        <time>2022-04-15T10:00:19Z</time>
      </trkpt>
      <trkpt lat="45.45488" lon="5.74478">
        <ele>479</ele>
        <time>2022-04-15T10:00:20Z</time>
      </trkpt>
      <trkpt lat="45.4549" lon="5.74477">
        <ele>479.2</ele>
        <time>2022-04-15T10:00:22Z</time>
      </trkpt>
      <trkpt lat="45.45494" lon="5.74475">
        <ele>479.5</ele>
        <time>2022-04-15T10:00:24Z</time>
      </trkpt>
      <trkpt lat="45.45497" lon="5.74473">
        <ele>479.6</ele>
        <time>2022-04-15T10:00:25Z</time>
      </trkpt>
      <trkpt lat="45.455" lon="5.74471">
        <ele>479.8</ele>
        <time>2022-04-15T10:00:27Z</time>
      </trkpt>
      <trkpt lat="45.45502" lon="5.7447">
        <ele>480</ele>
        <time>2022-04-15T10:00:28Z</time>
      </trkpt>
      <trkpt lat="45.45505" lon="5.74469">
        <ele>480.1</ele>
        <time>2022-04-15T10:00:30Z</time>
      </trkpt>
      <trkpt lat="45.45509" lon="5.74466">
        <ele>480.4</ele>
        <time>2022-04-15T10:00:31Z</time>
      </trkpt>
      <trkpt lat="45.45512" lon="5.74463">
        <ele>480.7</ele>
        <time>2022-04-15T10:00:33Z</time>
      </trkpt>
      <trkpt lat="45.45514" lon="5.74463">
        <ele>480.7</ele>
        <time>2022-04-15T10:00:34Z</time>
      </trkpt>
      <trkpt lat="45.45518" lon="5.7446">
        <ele>481</ele>
        <time>2022-04-15T10:00:36Z</time>
      </trkpt>
      <trkpt lat="45.45519" lon="5.74459">
        <ele>481.1</ele>
        <time>2022-04-15T10:00:37Z</time>
      </trkpt>
      <trkpt lat="45.45521" lon="5.74459">
        <ele>481.2</ele>
        <time>2022-04-15T10:00:38Z</time>
      </trkpt>
      <trkpt lat="45.45524" lon="5.74457">
        <ele>481.4</ele>
        <time>2022-04-15T10:00:39Z</time>
      </trkpt>
      <trkpt lat="45.45524" lon="5.74456">
        <ele>481.5</ele>
        <time>2022-04-15T10:00:40Z</time>
      </trkpt>
      <trkpt lat="45.45527" lon="5.74454">
        <ele>481.7</ele>
        <time>2022-04-15T10:00:41Z</time>
      </trkpt>
      <trkpt lat="45.45528" lon="5.74454">
        <ele>481.7</ele>
        <time>2022-04-15T10:00:42Z</time>
      </trkpt>
      <trkpt lat="45.45532" lon="5.74451">
        <ele>482</ele>
        <time>2022-04-15T10:00:44Z</time>
      </trkpt>
      <trkpt lat="45.45534" lon="5.7445">
        <ele>482.1</ele>
        <time>2022-04-15T10:00:45Z</time>
      </trkpt>
      <trkpt lat="45.45536" lon="5.74449">
        <ele>482.2</ele>
        <time>2022-04-15T10:00:46Z</time>
      </trkpt>
      <trkpt lat="45.45539" lon="5.74447">
        <ele>482.4</ele>
        <time>2022-04-15T10:00:48Z</time>
      </trkpt>
      <trkpt lat="45.4554" lon="5.74446">
        <ele>482.5</ele>
        <time>2022-04-15T10:00:49Z</time>
      </trkpt>
      <trkpt lat="45.45543" lon="5.74444">
        <ele>482.7</ele>
        <time>2022-04-15T10:00:51Z</time>
      </trkpt>
      <trkpt lat="45.45545" lon="5.74443">
        <ele>482.9</ele>
        <time>2022-04-15T10:00:52Z</time>
      </trkpt>
      <trkpt lat="45.45549" lon="5.74441">
        <ele>483.1</ele>
        <time>2022-04-15T10:00:54Z</time>
      </trkpt>
      <trkpt lat="45.45551" lon="5.7444">
        <ele>483.3</ele>
        <time>2022-04-15T10:00:55Z</time>
      </trkpt>
      <trkpt lat="45.45552" lon="5.74439">
        <ele>483.4</ele>
        <time>2022-04-15T10:00:56Z</time>
      </trkpt>
      <trkpt lat="45.45555" lon="5.74438">
        <ele>483.5</ele>
        <time>2022-04-15T10:00:57Z</time>
      </trkpt>
      <trkpt lat="45.45559" lon="5.74436">
        <ele>483.8</ele>
        <time>2022-04-15T10:00:59Z</time>
      </trkpt>
      <trkpt lat="45.45562" lon="5.74435">
        <ele>483.9</ele>
        <time>2022-04-15T10:01:00Z</time>
      </trkpt>
      <trkpt lat="45.45562" lon="5.74435">
        <ele>484</ele>
        <time>2022-04-15T10:01:01Z</time>
      </trkpt>
      <trkpt lat="45.45566" lon="5.74432">
        <ele>484.2</ele>
        <time>2022-04-15T10:01:03Z</time>
      </trkpt>
      <trkpt lat="45.45568" lon="5.74431">
        <ele>484.4</ele>
        <time>2022-04-15T10:01:05Z</time>
      </trkpt>
      <trkpt lat="45.4557" lon="5.7443">
        <ele>484.5</ele>
        <time>2022-04-15T10:01:06Z</time>
      </trkpt>
      <trkpt lat="45.45572" lon="5.7443">
        <ele>484.6</ele>
        <time>2022-04-15T10:01:07Z</time>
      </trkpt>
      <trkpt lat="45.45575" lon="5.74429">
        <ele>484.8</ele>
        <time>2022-04-15T10:01:08Z</time>
      </trkpt>
      <trkpt lat="45.45577" lon="5.74429">
        <ele>484.9</ele>
        <time>2022-04-15T10:01:09Z</time>
      </trkpt>
      <trkpt lat="45.4558" lon="5.74428">
        <ele>485.1</ele>
        <time>2022-04-15T10:01:11Z</time>
      </trkpt>
      <trkpt lat="45.45583" lon="5.74428">
        <ele>485.2</ele>
        <time>2022-04-15T10:01:12Z</time>
      </trkpt>
      <trkpt lat="45.45586" lon="5.74428">
        <ele>485.4</ele>
        <time>2022-04-15T10:01:14Z</time>
      </trkpt>
      <trkpt lat="45.45589" lon="5.74427">
        <ele>485.6</ele>
        <time>2022-04-15T10:01:16Z</time>
      </trkpt>
      <trkpt lat="45.45591" lon="5.74427">
        <ele>485.7</ele>
        <time>2022-04-15T10:01:17Z</time>
      </trkpt>
      <trkpt lat="45.45595" lon="5.74426">
        <ele>485.9</ele>
        <time>2022-04-15T10:01:19Z</time>
      </trkpt>
      <trkpt lat="45.45599" lon="5.74426">
        <ele>486.1</ele>
        <time>2022-04-15T10:01:20Z</time>
      </trkpt>
      <trkpt lat="45.456" lon="5.74426">
        <ele>486.2</ele>
        <time>2022-04-15T10:01:21Z</time>
      </trkpt>
      <trkpt lat="45.45604" lon="5.74425">
        <ele>486.5</ele>
        <time>2022-04-15T10:01:22Z</time>
      </trkpt>
      <trkpt lat="45.45609" lon="5.74425">
        <ele>486.8</ele>
        <time>2022-04-15T10:01:24Z</time>
      </trkpt>
      <trkpt lat="45.45611" lon="5.74425">
        <ele>486.9</ele>
        <time>2022-04-15T10:01:26Z</time>
      </trkpt>
      <trkpt lat="45.45613" lon="5.74426">
        <ele>487</ele>
        <time>2022-04-15T10:01:27Z</time>
      </trkpt>
      <trkpt lat="45.45618" lon="5.74426">
        <ele>487.3</ele>
        <time>2022-04-15T10:01:29Z</time>
      </trkpt>
      <trkpt lat="45.45622" lon="5.74427">
        <ele>487.5</ele>
        <time>2022-04-15T10:01:31Z</time>
      </trkpt>
      <trkpt lat="45.45625" lon="5.74427">
        <ele>487.7</ele>
        <time>2022-04-15T10:01:32Z</time>
      </trkpt>
      <trkpt lat="45.45626" lon="5.74428">
        <ele>487.8</ele>
        <time>2022-04-15T10:01:33Z</time>
      </trkpt>
      <trkpt lat="45.4563" lon="5.74429">
        <ele>488</ele>
        <time>2022-04-15T10:01:35Z</time>
      </trkpt>
      <trkpt lat="45.45634" lon="5.7443">
        <ele>488.3</ele>
        <time>2022-04-15T10:01:37Z</time>
      </trkpt>
      <trkpt lat="45.45636" lon="5.74431">
        <ele>488.4</ele>
        <time>2022-04-15T10:01:38Z</time>
      </trkpt>
      <trkpt lat="45.45639" lon="5.74432">
        <ele>488.6</ele>
        <time>2022-04-15T10:01:39Z</time>
      </trkpt>
      <trkpt lat="45.45642" lon="5.74432">
        <ele>488.8</ele>
        <time>2022-04-15T10:01:41Z</time>
      </trkpt>
      <trkpt lat="45.45645" lon="5.74434">
        <ele>489</ele>
        <time>2022-04-15T10:01:42Z</time>
      </trkpt>
      <trkpt lat="45.45646" lon="5.74434">
        <ele>489</ele>
        <time>2022-04-15T10:01:43Z</time>
      </trkpt>
      <trkpt lat="45.45649" lon="5.74435">
        <ele>489.2</ele>
        <time>2022-04-15T10:01:44Z</time>
      </trkpt>
      <trkpt lat="45.4565" lon="5.74436">
        <ele>489.3</ele>
        <time>2022-04-15T10:01:45Z</time>
      </trkpt>
      <trkpt lat="45.45654" lon="5.74438">
        <ele>489.6</ele>
        <time>2022-04-15T10:01:47Z</time>
      </trkpt>
      <trkpt lat="45.45656" lon="5.74439">
        <ele>489.7</ele>
        <time>2022-04-15T10:01:48Z</time>
      </trkpt>
      <trkpt lat="45.45657" lon="5.7444">
        <ele>489.8</ele>
        <time>2022-04-15T10:01:49Z</time>
      </trkpt>
      <trkpt lat="45.45661" lon="5.74442">
        <ele>490</ele>
        <time>2022-04-15T10:01:51Z</time>
      </trkpt>
      <trkpt lat="45.45662" lon="5.74442">
        <ele>490</ele>
        <time>2022-04-15T10:01:52Z</time>
      </trkpt>
      <trkpt lat="45.45664" lon="5.74443">
        <ele>490.2</ele>
        <time>2022-04-15T10:01:53Z</time>
      </trkpt>
      <trkpt lat="45.45665" lon="5.74444">
        <ele>490.2</ele>
        <time>2022-04-15T10:01:54Z</time>
      </trkpt>
      <trkpt lat="45.45669" lon="5.74446">
        <ele>490.5</ele>
        <time>2022-04-15T10:01:55Z</time>
      </trkpt>
      <trkpt lat="45.4567" lon="5.74447">
        <ele>490.6</ele>
        <time>2022-04-15T10:01:56Z</time>
      </trkpt>
      <trkpt lat="45.45673" lon="5.74449">
        <ele>490.7</ele>
        <time>2022-04-15T10:01:58Z</time>
      </trkpt>
      <trkpt lat="45.45674" lon="5.7445">
        <ele>490.8</ele>
        <time>2022-04-15T10:01:59Z</time>
      </trkpt>
      <trkpt lat="45.45677" lon="5.74452">
        <ele>491</ele>
        <time>2022-04-15T10:02:00Z</time>
      </trkpt>
      <trkpt lat="45.45678" lon="5.74452">
        <ele>491</ele>
        <time>2022-04-15T10:02:01Z</time>
      </trkpt>
      <trkpt lat="45.45682" lon="5.74455">
        <ele>491.3</ele>
        <time>2022-04-15T10:02:03Z</time>
      </trkpt>
      <trkpt lat="45.45686" lon="5.74458">
        <ele>491.5</ele>
        <time>2022-04-15T10:02:05Z</time>
      </trkpt>
      <trkpt lat="45.4569" lon="5.74461">
        <ele>491.8</ele>
        <time>2022-04-15T10:02:07Z</time>
      </trkpt>
      <trkpt lat="45.45691" lon="5.74462">
        <ele>491.9</ele>
        <time>2022-04-15T10:02:08Z</time>
      </trkpt>
      <trkpt lat="45.45692" lon="5.74463">
        <ele>491.9</ele>
        <time>2022-04-15T10:02:09Z</time>
      </trkpt>
      <trkpt lat="45.45695" lon="5.74465">
        <ele>492.1</ele>
        <time>2022-04-15T10:02:10Z</time>
      </trkpt>
      <trkpt lat="45.45697" lon="5.74466">
        <ele>492.2</ele>
        <time>2022-04-15T10:02:11Z</time>
      </trkpt>
      <trkpt lat="45.45701" lon="5.74468">
        <ele>492.5</ele>
        <time>2022-04-15T10:02:13Z</time>
      </trkpt>
      <trkpt lat="45.45703" lon="5.74469">
        <ele>492.6</ele>
        <time>2022-04-15T10:02:14Z</time>
      </trkpt>
      <trkpt lat="45.45704" lon="5.7447">
        <ele>492.7</ele>
        <time>2022-04-15T10:02:15Z</time>
      </trkpt>
      <trkpt lat="45.45706" lon="5.74472">
        <ele>492.8</ele>
        <time>2022-04-15T10:02:16Z</time>
      </trkpt>
      <trkpt lat="45.45708" lon="5.74473">
        <ele>492.9</ele>
        <time>2022-04-15T10:02:18Z</time>
      </trkpt>
      <trkpt lat="45.45711" lon="5.74476">
        <ele>493.1</ele>
        <time>2022-04-15T10:02:20Z</time>
      </trkpt>
      <trkpt lat="45.45714" lon="5.74478">
        <ele>493.3</ele>
        <time>2022-04-15T10:02:21Z</time>
      </trkpt>
      <trkpt lat="45.45715" lon="5.74478">
        <ele>493.3</ele>
        <time>2022-04-15T10:02:22Z</time>
      </trkpt>
      <trkpt lat="45.45718" lon="5.74479">
        <ele>493.4</ele>
        <time>2022-04-15T10:02:23Z</time>
      </trkpt>
      <trkpt lat="45.45722" lon="5.74482">
        <ele>493.6</ele>
        <time>2022-04-15T10:02:25Z</time>
      </trkpt>
      <trkpt lat="45.45724" lon="5.74483">
        <ele>493.7</ele>
        <time>2022-04-15T10:02:26Z</time>
      </trkpt>
      <trkpt lat="45.45725" lon="5.74484">
        <ele>493.7</ele>
        <time>2022-04-15T10:02:27Z</time>
      </trkpt>
      <trkpt lat="45.45729" lon="5.74485">
        <ele>493.9</ele>
        <time>2022-04-15T10:02:29Z</time>
      </trkpt>
      <trkpt lat="45.4573" lon="5.74486">
        <ele>493.9</ele>
        <time>2022-04-15T10:02:30Z</time>
      </trkpt>
      <trkpt lat="45.45733" lon="5.74487">
        <ele>494.1</ele>
        <time>2022-04-15T10:02:31Z</time>
      </trkpt>
      <trkpt lat="45.45734" lon="5.74488">
        <ele>494.1</ele>
        <time>2022-04-15T10:02:32Z</time>
      </trkpt>
      <trkpt lat="45.45737" lon="5.7449">
        <ele>494.2</ele>
        <time>2022-04-15T10:02:33Z</time>
      </trkpt>
      <trkpt lat="45.45738" lon="5.74491">
        <ele>494.3</ele>
        <time>2022-04-15T10:02:34Z</time>
      </trkpt>
      <trkpt lat="45.45741" lon="5.74493">
        <ele>494.4</ele>
        <time>2022-04-15T10:02:35Z</time>
      </trkpt>
      <trkpt lat="45.45744" lon="5.74495">
        <ele>494.5</ele>
        <time>2022-04-15T10:02:37Z</time>
      </trkpt>
      <trkpt lat="45.45746" lon="5.74496">
        <ele>494.6</ele>
        <time>2022-04-15T10:02:38Z</time>
      </trkpt>
      <trkpt lat="45.4575" lon="5.74498">
        <ele>494.8</ele>
        <time>2022-04-15T10:02:40Z</time>
      </trkpt>
      <trkpt lat="45.45754" lon="5.745">
        <ele>494.9</ele>
        <time>2022-04-15T10:02:42Z</time>
      </trkpt>
      <trkpt lat="45.45758" lon="5.74503">
        <ele>495.1</ele>
        <time>2022-04-15T10:02:44Z</time>
      </trkpt>
      <trkpt lat="45.45761" lon="5.74505">
        <ele>495.2</ele>
        <time>2022-04-15T10:02:45Z</time>
      </trkpt>
      <trkpt lat="45.45764" lon="5.74506">
        <ele>495.3</ele>
        <time>2022-04-15T10:02:46Z</time>
      </trkpt>
      <trkpt lat="45.45767" lon="5.74508">
        <ele>495.4</ele>
        <time>2022-04-15T10:02:48Z</time>
      </trkpt>
      <trkpt lat="45.4577" lon="5.74509">
        <ele>495.4</ele>
        <time>2022-04-15T10:02:49Z</time>
      </trkpt>
      <trkpt lat="45.45774" lon="5.74511">
        <ele>495.6</ele>
        <time>2022-04-15T10:02:51Z</time>
      </trkpt>
      <trkpt lat="45.45777" lon="5.74513">
        <ele>495.7</ele>
        <time>2022-04-15T10:02:52Z</time>
      </trkpt>
      <trkpt lat="45.45781" lon="5.74515">
        <ele>495.8</ele>
        <time>2022-04-15T10:02:53Z</time>
      </trkpt>
      <trkpt lat="45.45785" lon="5.74518">
        <ele>495.9</ele>
        <time>2022-04-15T10:02:55Z</time>
      </trkpt>
      <trkpt lat="45.45786" lon="5.74519">
        <ele>496</ele>
        <time>2022-04-15T10:02:56Z</time>
      </trkpt>
      <trkpt lat="45.45787" lon="5.7452">
        <ele>496</ele>
        <time>2022-04-15T10:02:57Z</time>
      </trkpt>
      <trkpt lat="45.4579" lon="5.74522">
        <ele>496.1</ele>
        <time>2022-04-15T10:02:58Z</time>
      </trkpt>
      <trkpt lat="45.45792" lon="5.74524">
        <ele>496.2</ele>
        <time>2022-04-15T10:02:59Z</time>
      </trkpt>
      <trkpt lat="45.45797" lon="5.74527">
        <ele>496.3</ele>
        <time>2022-04-15T10:03:01Z</time>
      </trkpt>
      <trkpt lat="45.458" lon="5.7453">
        <ele>496.5</ele>
        <time>2022-04-15T10:03:02Z</time>
      </trkpt>
      <trkpt lat="45.45801" lon="5.74531">
        <ele>496.5</ele>
        <time>2022-04-15T10:03:03Z</time>
      </trkpt>
      <trkpt lat="45.45804" lon="5.74533">
        <ele>496.6</ele>
        <time>2022-04-15T10:03:04Z</time>
      </trkpt>
      <trkpt lat="45.45808" lon="5.74537">
        <ele>496.8</ele>
        <time>2022-04-15T10:03:06Z</time>
      </trkpt>
      <trkpt lat="45.45811" lon="5.74539">
        <ele>496.9</ele>
        <time>2022-04-15T10:03:07Z</time>
      </trkpt>
      <trkpt lat="45.45813" lon="5.74542">
        <ele>497</ele>
        <time>2022-04-15T10:03:08Z</time>
      </trkpt>
      <trkpt lat="45.45817" lon="5.74546">
        <ele>497.1</ele>
        <time>2022-04-15T10:03:10Z</time>
      </trkpt>
      <trkpt lat="45.4582" lon="5.74549">
        <ele>497.3</ele>
        <time>2022-04-15T10:03:11Z</time>
      </trkpt>
      <trkpt lat="45.45822" lon="5.74553">
        <ele>497.4</ele>
        <time>2022-04-15T10:03:13Z</time>
      </trkpt>
      <trkpt lat="45.45825" lon="5.74556">
        <ele>497.5</ele>
        <time>2022-04-15T10:03:14Z</time>
      </trkpt>
      <trkpt lat="45.45829" lon="5.74562">
        <ele>497.7</ele>
        <time>2022-04-15T10:03:16Z</time>
      </trkpt>
      <trkpt lat="45.4583" lon="5.74565">
        <ele>497.8</ele>
        <time>2022-04-15T10:03:17Z</time>
      </trkpt>
      <trkpt lat="45.45833" lon="5.7457">
        <ele>497.9</ele>
        <time>2022-04-15T10:03:19Z</time>
      </trkpt>
      <trkpt lat="45.45835" lon="5.74574">
        <ele>498</ele>
        <time>2022-04-15T10:03:20Z</time>
      </trkpt>
      <trkpt lat="45.45837" lon="5.74578">
        <ele>498.2</ele>
        <time>2022-04-15T10:03:22Z</time>
      </trkpt>
      <trkpt lat="45.45839" lon="5.74582">
        <ele>498.3</ele>
        <time>2022-04-15T10:03:23Z</time>
      </trkpt>
      <trkpt lat="45.45841" lon="5.74587">
        <ele>498.4</ele>
        <time>2022-04-15T10:03:24Z</time>
      </trkpt>
      <trkpt lat="45.45843" lon="5.74591">
        <ele>498.5</ele>
        <time>2022-04-15T10:03:26Z</time>
      </trkpt>
      <trkpt lat="45.45845" lon="5.74594">
        <ele>498.6</ele>
        <time>2022-04-15T10:03:27Z</time>
      </trkpt>
      <trkpt lat="45.45847" lon="5.74598">
        <ele>498.7</ele>
        <time>2022-04-15T10:03:28Z</time>
      </trkpt>
      <trkpt lat="45.45849" lon="5.74604">
        <ele>498.8</ele>
        <time>2022-04-15T10:03:30Z</time>
      </trkpt>
      <trkpt lat="45.45851" lon="5.74607">
        <ele>498.9</ele>
        <time>2022-04-15T10:03:31Z</time>
      </trkpt>
      <trkpt lat="45.45852" lon="5.74611">
        <ele>499</ele>
        <time>2022-04-15T10:03:32Z</time>
      </trkpt>
      <trkpt lat="45.45854" lon="5.74614">
        <ele>499.2</ele>
        <time>2022-04-15T10:03:33Z</time>
      </trkpt>
      <trkpt lat="45.45856" lon="5.74619">
        <ele>499.3</ele>
        <time>2022-04-15T10:03:34Z</time>
      </trkpt>
      <trkpt lat="45.45857" lon="5.74621">
        <ele>499.4</ele>
        <time>2022-04-15T10:03:35Z</time>
      </trkpt>
      <trkpt lat="45.45858" lon="5.74626">
        <ele>499.6</ele>
        <time>2022-04-15T10:03:36Z</time>
      </trkpt>
      <trkpt lat="45.45861" lon="5.74631">
        <ele>499.7</ele>
        <time>2022-04-15T10:03:38Z</time>
      </trkpt>
      <trkpt lat="45.45861" lon="5.74633">
        <ele>499.8</ele>
        <time>2022-04-15T10:03:39Z</time>
      </trkpt>
      <trkpt lat="45.45864" lon="5.7464">
        <ele>500</ele>
        <time>2022-04-15T10:03:41Z</time>
      </trkpt>
      <trkpt lat="45.45867" lon="5.74644">
        <ele>500.2</ele>
        <time>2022-04-15T10:03:42Z</time>
      </trkpt>
      <trkpt lat="45.45867" lon="5.74646">
        <ele>500.3</ele>
        <time>2022-04-15T10:03:43Z</time>
      </trkpt>
      <trkpt lat="45.4587" lon="5.74651">
        <ele>500.4</ele>
        <time>2022-04-15T10:03:45Z</time>
      </trkpt>
      <trkpt lat="45.4587" lon="5.74653">
        <ele>500.5</ele>
        <time>2022-04-15T10:03:46Z</time>
      </trkpt>
      <trkpt lat="45.45872" lon="5.74656">
        <ele>500.7</ele>
        <time>2022-04-15T10:03:47Z</time>
      </trkpt>
      <trkpt lat="45.45873" lon="5.74659">
        <ele>500.8</ele>
        <time>2022-04-15T10:03:48Z</time>
      </trkpt>
      <trkpt lat="45.45876" lon="5.74664">
        <ele>501</ele>
        <time>2022-04-15T10:03:50Z</time>
      </trkpt>
      <trkpt lat="45.45878" lon="5.74669">
        <ele>501.2</ele>
        <time>2022-04-15T10:03:52Z</time>
      </trkpt>
      <trkpt lat="45.45881" lon="5.74675">
        <ele>501.5</ele>
        <time>2022-04-15T10:03:54Z</time>
      </trkpt>
      <trkpt lat="45.45882" lon="5.74677">
        <ele>501.5</ele>
        <time>2022-04-15T10:03:55Z</time>
      </trkpt>
      <trkpt lat="45.45883" lon="5.74678">
        <ele>501.6</ele>
        <time>2022-04-15T10:03:56Z</time>
      </trkpt>
      <trkpt lat="45.45886" lon="5.74682">
        <ele>501.8</ele>
        <time>2022-04-15T10:03:57Z</time>
      </trkpt>
      <trkpt lat="45.45889" lon="5.74688">
        <ele>502.1</ele>
        <time>2022-04-15T10:03:59Z</time>
      </trkpt>
      <trkpt lat="45.45891" lon="5.74689">
        <ele>502.2</ele>
        <time>2022-04-15T10:04:00Z</time>
      </trkpt>
      <trkpt lat="45.45892" lon="5.74691">
        <ele>502.3</ele>
        <time>2022-04-15T10:04:01Z</time>
      </trkpt>
      <trkpt lat="45.45894" lon="5.74694">
        <ele>502.5</ele>
        <time>2022-04-15T10:04:02Z</time>
      </trkpt>
      <trkpt lat="45.45896" lon="5.74697">
        <ele>502.6</ele>
        <time>2022-04-15T10:04:04Z</time>
      </trkpt>
      <trkpt lat="45.45897" lon="5.74698">
        <ele>502.7</ele>
        <time>2022-04-15T10:04:05Z</time>
      </trkpt>
      <trkpt lat="45.45898" lon="5.74701">
        <ele>502.8</ele>
        <time>2022-04-15T10:04:07Z</time>
      </trkpt>
      <trkpt lat="45.45899" lon="5.74702">
        <ele>502.9</ele>
        <time>2022-04-15T10:04:08Z</time>
      </trkpt>
      <trkpt lat="45.45901" lon="5.74703">
        <ele>503.1</ele>
        <time>2022-04-15T10:04:09Z</time>
      </trkpt>
      <trkpt lat="45.45902" lon="5.74704">
        <ele>503.1</ele>
        <time>2022-04-15T10:04:10Z</time>
      </trkpt>
      <trkpt lat="45.45904" lon="5.74706">
        <ele>503.3</ele>
        <time>2022-04-15T10:04:11Z</time>
      </trkpt>
      <trkpt lat="45.45906" lon="5.74708">
        <ele>503.5</ele>
        <time>2022-04-15T10:04:12Z</time>
      </trkpt>
      <trkpt lat="45.45908" lon="5.74709">
        <ele>503.6</ele>
        <time>2022-04-15T10:04:13Z</time>
      </trkpt>
      <trkpt lat="45.45911" lon="5.74712">
        <ele>503.8</ele>
        <time>2022-04-15T10:04:15Z</time>
      </trkpt>
      <trkpt lat="45.45914" lon="5.74714">
        <ele>504</ele>
        <time>2022-04-15T10:04:16Z</time>
      </trkpt>
      <trkpt lat="45.45916" lon="5.74716">
        <ele>504.2</ele>
        <time>2022-04-15T10:04:17Z</time>
      </trkpt>
      <trkpt lat="45.45919" lon="5.74718">
        <ele>504.4</ele>
        <time>2022-04-15T10:04:19Z</time>
      </trkpt>
      <trkpt lat="45.45922" lon="5.74721">
        <ele>504.7</ele>
        <time>2022-04-15T10:04:20Z</time>
      </trkpt>
      <trkpt lat="45.45924" lon="5.74722">
        <ele>504.8</ele>
        <time>2022-04-15T10:04:21Z</time>
      </trkpt>
      <trkpt lat="45.45927" lon="5.74723">
        <ele>505</ele>
        <time>2022-04-15T10:04:22Z</time>
      </trkpt>
      <trkpt lat="45.45929" lon="5.74724">
        <ele>505.1</ele>
        <time>2022-04-15T10:04:23Z</time>
      </trkpt>
      <trkpt lat="45.45932" lon="5.74725">
        <ele>505.3</ele>
        <time>2022-04-15T10:04:25Z</time>
      </trkpt>
      <trkpt lat="45.45935" lon="5.74726">
        <ele>505.5</ele>
        <time>2022-04-15T10:04:26Z</time>
      </trkpt>
      <trkpt lat="45.45937" lon="5.74727">
        <ele>505.7</ele>
        <time>2022-04-15T10:04:27Z</time>
      </trkpt>
      <trkpt lat="45.45941" lon="5.74729">
        <ele>506</ele>
        <time>2022-04-15T10:04:29Z</time>
      </trkpt>
      <trkpt lat="45.45946" lon="5.7473">
        <ele>506.3</ele>
        <time>2022-04-15T10:04:31Z</time>
      </trkpt>
      <trkpt lat="45.45949" lon="5.74731">
        <ele>506.5</ele>
        <time>2022-04-15T10:04:32Z</time>
      </trkpt>
      <trkpt lat="45.45952" lon="5.74732">
        <ele>506.7</ele>
        <time>2022-04-15T10:04:33Z</time>
      </trkpt>
      <trkpt lat="45.45955" lon="5.74733">
        <ele>506.9</ele>
        <time>2022-04-15T10:04:34Z</time>
      </trkpt>
      <trkpt lat="45.45957" lon="5.74734">
        <ele>507.1</ele>
        <time>2022-04-15T10:04:36Z</time>
      </trkpt>
      <trkpt lat="45.4596" lon="5.74735">
        <ele>507.2</ele>
        <time>2022-04-15T10:04:37Z</time>
      </trkpt>
      <trkpt lat="45.45964" lon="5.74734">
        <ele>507.5</ele>
        <time>2022-04-15T10:04:39Z</time>
      </trkpt>
      <trkpt lat="45.45966" lon="5.74734">
        <ele>507.7</ele>
        <time>2022-04-15T10:04:40Z</time>
      </trkpt>
      <trkpt lat="45.4597" lon="5.74734">
        <ele>507.9</ele>
        <time>2022-04-15T10:04:41Z</time>
      </trkpt>
      <trkpt lat="45.45972" lon="5.74735">
        <ele>508.1</ele>
        <time>2022-04-15T10:04:43Z</time>
      </trkpt>
      <trkpt lat="45.45974" lon="5.74735">
        <ele>508.2</ele>
        <time>2022-04-15T10:04:44Z</time>
      </trkpt>
      <trkpt lat="45.45978" lon="5.74735">
        <ele>508.5</ele>
        <time>2022-04-15T10:04:46Z</time>
      </trkpt>
      <trkpt lat="45.4598" lon="5.74735">
        <ele>508.6</ele>
        <time>2022-04-15T10:04:47Z</time>
      </trkpt>
      <trkpt lat="45.45983" lon="5.74734">
        <ele>508.8</ele>
        <time>2022-04-15T10:04:49Z</time>
      </trkpt>
      <trkpt lat="45.45988" lon="5.74733">
        <ele>509.1</ele>
        <time>2022-04-15T10:04:51Z</time>
      </trkpt>
      <trkpt lat="45.45989" lon="5.74733">
        <ele>509.2</ele>
        <time>2022-04-15T10:04:52Z</time>
      </trkpt>
      <trkpt lat="45.4599" lon="5.74733">
        <ele>509.3</ele>
        <time>2022-04-15T10:04:53Z</time>
      </trkpt>
      <trkpt lat="45.45993" lon="5.74732">
        <ele>509.5</ele>
        <time>2022-04-15T10:04:55Z</time>
      </trkpt>
      <trkpt lat="45.45995" lon="5.74732">
        <ele>509.6</ele>
        <time>2022-04-15T10:04:56Z</time>
      </trkpt>
      <trkpt lat="45.45998" lon="5.74731">
        <ele>509.8</ele>
        <time>2022-04-15T10:04:58Z</time>
      </trkpt>
      <trkpt lat="45.46" lon="5.74731">
        <ele>509.9</ele>
        <time>2022-04-15T10:04:59Z</time>
      </trkpt>
      <trkpt lat="45.46003" lon="5.74731">
        <ele>510.2</ele>
        <time>2022-04-15T10:05:01Z</time>
      </trkpt>
      <trkpt lat="45.46007" lon="5.7473">
        <ele>510.4</ele>
        <time>2022-04-15T10:05:03Z</time>
      </trkpt>
      <trkpt lat="45.4601" lon="5.74729">
        <ele>510.6</ele>
        <time>2022-04-15T10:05:04Z</time>
      </trkpt>
      <trkpt lat="45.46013" lon="5.74728">
        <ele>510.7</ele>
        <time>2022-04-15T10:05:05Z</time>
      </trkpt>
      <trkpt lat="45.46013" lon="5.74728">
        <ele>510.8</ele>
        <time>2022-04-15T10:05:06Z</time>
      </trkpt>
      <trkpt lat="45.46015" lon="5.74728">
        <ele>510.9</ele>
        <time>2022-04-15T10:05:08Z</time>
      </trkpt>
      <trkpt lat="45.46016" lon="5.74727">
        <ele>511</ele>
        <time>2022-04-15T10:05:09Z</time>
      </trkpt>
      <trkpt lat="45.46019" lon="5.74727">
        <ele>511.2</ele>
        <time>2022-04-15T10:05:10Z</time>
      </trkpt>
      <trkpt lat="45.4602" lon="5.74727">
        <ele>511.2</ele>
        <time>2022-04-15T10:05:11Z</time>
      </trkpt>
      <trkpt lat="45.46024" lon="5.74726">
        <ele>511.5</ele>
        <time>2022-04-15T10:05:13Z</time>
      </trkpt>
      <trkpt lat="45.46027" lon="5.74726">
        <ele>511.6</ele>
        <time>2022-04-15T10:05:14Z</time>
      </trkpt>
      <trkpt lat="45.46028" lon="5.74725">
        <ele>511.7</ele>
        <time>2022-04-15T10:05:15Z</time>
      </trkpt>
      <trkpt lat="45.46031" lon="5.74725">
        <ele>511.9</ele>
        <time>2022-04-15T10:05:16Z</time>
      </trkpt>
      <trkpt lat="45.46032" lon="5.74725">
        <ele>512</ele>
        <time>2022-04-15T10:05:17Z</time>
      </trkpt>
      <trkpt lat="45.46034" lon="5.74725">
        <ele>512.1</ele>
        <time>2022-04-15T10:05:18Z</time>
      </trkpt>
      <trkpt lat="45.46036" lon="5.74725">
        <ele>512.3</ele>
        <time>2022-04-15T10:05:20Z</time>
      </trkpt>
      <trkpt lat="45.46038" lon="5.74725">
        <ele>512.4</ele>
        <time>2022-04-15T10:05:21Z</time>
      </trkpt>
      <trkpt lat="45.46041" lon="5.74724">
        <ele>512.6</ele>
        <time>2022-04-15T10:05:23Z</time>
      </trkpt>
      <trkpt lat="45.46044" lon="5.74724">
        <ele>512.8</ele>
        <time>2022-04-15T10:05:24Z</time>
      </trkpt>
      <trkpt lat="45.46045" lon="5.74724">
        <ele>512.9</ele>
        <time>2022-04-15T10:05:25Z</time>
      </trkpt>
      <trkpt lat="45.46048" lon="5.74723">
        <ele>513</ele>
        <time>2022-04-15T10:05:26Z</time>
      </trkpt>
      <trkpt lat="45.46049" lon="5.74722">
        <ele>513.1</ele>
        <time>2022-04-15T10:05:28Z</time>
      </trkpt>
      <trkpt lat="45.46051" lon="5.74722">
        <ele>513.2</ele>
        <time>2022-04-15T10:05:29Z</time>
      </trkpt>
      <trkpt lat="45.46052" lon="5.74721">
        <ele>513.3</ele>
        <time>2022-04-15T10:05:30Z</time>
      </trkpt>
      <trkpt lat="45.46055" lon="5.7472">
        <ele>513.5</ele>
        <time>2022-04-15T10:05:31Z</time>
      </trkpt>
      <trkpt lat="45.46056" lon="5.7472">
        <ele>513.6</ele>
        <time>2022-04-15T10:05:32Z</time>
      </trkpt>
      <trkpt lat="45.46059" lon="5.7472">
        <ele>513.8</ele>
        <time>2022-04-15T10:05:33Z</time>
      </trkpt>
      <trkpt lat="45.46062" lon="5.7472">
        <ele>514</ele>
        <time>2022-04-15T10:05:34Z</time>
      </trkpt>
      <trkpt lat="45.46063" lon="5.7472">
        <ele>514.1</ele>
        <time>2022-04-15T10:05:35Z</time>
      </trkpt>
      <trkpt lat="45.46067" lon="5.7472">
        <ele>514.3</ele>
        <time>2022-04-15T10:05:37Z</time>
      </trkpt>
      <trkpt lat="45.46068" lon="5.7472">
        <ele>514.4</ele>
        <time>2022-04-15T10:05:38Z</time>
      </trkpt>
      <trkpt lat="45.46072" lon="5.7472">
        <ele>514.6</ele>
        <time>2022-04-15T10:05:40Z</time>
      </trkpt>
      <trkpt lat="45.46073" lon="5.7472">
        <ele>514.7</ele>
        <time>2022-04-15T10:05:41Z</time>
      </trkpt>
      <trkpt lat="45.46077" lon="5.7472">
        <ele>514.9</ele>
        <time>2022-04-15T10:05:42Z</time>
      </trkpt>
      <trkpt lat="45.46078" lon="5.7472">
        <ele>514.9</ele>
        <time>2022-04-15T10:05:43Z</time>
      </trkpt>
      <trkpt lat="45.46081" lon="5.7472">
        <ele>515.1</ele>
        <time>2022-04-15T10:05:44Z</time>
      </trkpt>
      <trkpt lat="45.46081" lon="5.7472">
        <ele>515.2</ele>
        <time>2022-04-15T10:05:45Z</time>
      </trkpt>
      <trkpt lat="45.46084" lon="5.7472">
        <ele>515.3</ele>
        <time>2022-04-15T10:05:47Z</time>
      </trkpt>
      <trkpt lat="45.46086" lon="5.7472">
        <ele>515.4</ele>
        <time>2022-04-15T10:05:48Z</time>
      </trkpt>
      <trkpt lat="45.46088" lon="5.74721">
        <ele>515.6</ele>
        <time>2022-04-15T10:05:49Z</time>
      </trkpt>
      <trkpt lat="45.46093" lon="5.74721">
        <ele>515.8</ele>
        <time>2022-04-15T10:05:51Z</time>
      </trkpt>
      <trkpt lat="45.46094" lon="5.74721">
        <ele>515.9</ele>
        <time>2022-04-15T10:05:52Z</time>
      </trkpt>
      <trkpt lat="45.46096" lon="5.74722">
        <ele>516</ele>
        <time>2022-04-15T10:05:54Z</time>
      </trkpt>
      <trkpt lat="45.46099" lon="5.74722">
        <ele>516.2</ele>
        <time>2022-04-15T10:05:55Z</time>
      </trkpt>
      <trkpt lat="45.46102" lon="5.74722">
        <ele>516.3</ele>
        <time>2022-04-15T10:05:56Z</time>
      </trkpt>
      <trkpt lat="45.46104" lon="5.74723">
        <ele>516.4</ele>
        <time>2022-04-15T10:05:58Z</time>
      </trkpt>
      <trkpt lat="45.46107" lon="5.74724">
        <ele>516.6</ele>
        <time>2022-04-15T10:05:59Z</time>
      </trkpt>
      <trkpt lat="45.46108" lon="5.74725">
        <ele>516.7</ele>
        <time>2022-04-15T10:06:00Z</time>
      </trkpt>
      <trkpt lat="45.4611" lon="5.74725">
        <ele>516.8</ele>
        <time>2022-04-15T10:06:01Z</time>
      </trkpt>
      <trkpt lat="45.46113" lon="5.74726">
        <ele>517</ele>
        <time>2022-04-15T10:06:03Z</time>
      </trkpt>
      <trkpt lat="45.46117" lon="5.74728">
        <ele>517.2</ele>
        <time>2022-04-15T10:06:05Z</time>
      </trkpt>
      <trkpt lat="45.46119" lon="5.74729">
        <ele>517.3</ele>
        <time>2022-04-15T10:06:06Z</time>
      </trkpt>
      <trkpt lat="45.46122" lon="5.7473">
        <ele>517.6</ele>
        <time>2022-04-15T10:06:08Z</time>
      </trkpt>
      <trkpt lat="45.46125" lon="5.74732">
        <ele>517.7</ele>
        <time>2022-04-15T10:06:09Z</time>
      </trkpt>
      <trkpt lat="45.46126" lon="5.74732">
        <ele>517.8</ele>
        <time>2022-04-15T10:06:10Z</time>
      </trkpt>
      <trkpt lat="45.4613" lon="5.74734">
        <ele>518</ele>
        <time>2022-04-15T10:06:12Z</time>
      </trkpt>
      <trkpt lat="45.46133" lon="5.74735">
        <ele>518.2</ele>
        <time>2022-04-15T10:06:13Z</time>
      </trkpt>
      <trkpt lat="45.46134" lon="5.74735">
        <ele>518.3</ele>
        <time>2022-04-15T10:06:14Z</time>
      </trkpt>
      <trkpt lat="45.46137" lon="5.74738">
        <ele>518.5</ele>
        <time>2022-04-15T10:06:16Z</time>
      </trkpt>
      <trkpt lat="45.46139" lon="5.74739">
        <ele>518.7</ele>
        <time>2022-04-15T10:06:17Z</time>
      </trkpt>
      <trkpt lat="45.46142" lon="5.74742">
        <ele>518.9</ele>
        <time>2022-04-15T10:06:19Z</time>
      </trkpt>
      <trkpt lat="45.46145" lon="5.74744">
        <ele>519.1</ele>
        <time>2022-04-15T10:06:20Z</time>
      </trkpt>
      <trkpt lat="45.46146" lon="5.74744">
        <ele>519.1</ele>
        <time>2022-04-15T10:06:21Z</time>
      </trkpt>
      <trkpt lat="45.46149" lon="5.74746">
        <ele>519.3</ele>
        <time>2022-04-15T10:06:22Z</time>
      </trkpt>
      <trkpt lat="45.4615" lon="5.74746">
        <ele>519.4</ele>
        <time>2022-04-15T10:06:23Z</time>
      </trkpt>
      <trkpt lat="45.46152" lon="5.74748">
        <ele>519.5</ele>
        <time>2022-04-15T10:06:24Z</time>
      </trkpt>
      <trkpt lat="45.46156" lon="5.7475">
        <ele>519.7</ele>
        <time>2022-04-15T10:06:25Z</time>
      </trkpt>
      <trkpt lat="45.46157" lon="5.7475">
        <ele>519.8</ele>
        <time>2022-04-15T10:06:26Z</time>
      </trkpt>
      <trkpt lat="45.4616" lon="5.74752">
        <ele>520</ele>
        <time>2022-04-15T10:06:28Z</time>
      </trkpt>
      <trkpt lat="45.46161" lon="5.74753">
        <ele>520.1</ele>
        <time>2022-04-15T10:06:29Z</time>
      </trkpt>
      <trkpt lat="45.46164" lon="5.74756">
        <ele>520.3</ele>
        <time>2022-04-15T10:06:30Z</time>
      </trkpt>
      <trkpt lat="45.46165" lon="5.74756">
        <ele>520.3</ele>
        <time>2022-04-15T10:06:31Z</time>
      </trkpt>
      <trkpt lat="45.46168" lon="5.74759">
        <ele>520.5</ele>
        <time>2022-04-15T10:06:32Z</time>
      </trkpt>
      <trkpt lat="45.46169" lon="5.74759">
        <ele>520.6</ele>
        <time>2022-04-15T10:06:33Z</time>
      </trkpt>
      <trkpt lat="45.46172" lon="5.74762">
        <ele>520.8</ele>
        <time>2022-04-15T10:06:34Z</time>
      </trkpt>
      <trkpt lat="45.46173" lon="5.74763">
        <ele>520.8</ele>
        <time>2022-04-15T10:06:35Z</time>
      </trkpt>
      <trkpt lat="45.46175" lon="5.74765">
        <ele>521</ele>
        <time>2022-04-15T10:06:37Z</time>
      </trkpt>
      <trkpt lat="45.46176" lon="5.74766">
        <ele>521.1</ele>
        <time>2022-04-15T10:06:38Z</time>
      </trkpt>
      <trkpt lat="45.46179" lon="5.7477">
        <ele>521.3</ele>
        <time>2022-04-15T10:06:39Z</time>
      </trkpt>
      <trkpt lat="45.4618" lon="5.74771">
        <ele>521.4</ele>
        <time>2022-04-15T10:06:40Z</time>
      </trkpt>
      <trkpt lat="45.46183" lon="5.74773">
        <ele>521.5</ele>
        <time>2022-04-15T10:06:42Z</time>
      </trkpt>
      <trkpt lat="45.46184" lon="5.74774">
        <ele>521.6</ele>
        <time>2022-04-15T10:06:43Z</time>
      </trkpt>
      <trkpt lat="45.46187" lon="5.74775">
        <ele>521.8</ele>
        <time>2022-04-15T10:06:44Z</time>
      </trkpt>
      <trkpt lat="45.46188" lon="5.74776">
        <ele>521.8</ele>
        <time>2022-04-15T10:06:45Z</time>
      </trkpt>
      <trkpt lat="45.46191" lon="5.74778">
        <ele>522</ele>
        <time>2022-04-15T10:06:46Z</time>
      </trkpt>
      <trkpt lat="45.46192" lon="5.74779">
        <ele>522.1</ele>
        <time>2022-04-15T10:06:47Z</time>
      </trkpt>
      <trkpt lat="45.46195" lon="5.74781">
        <ele>522.3</ele>
        <time>2022-04-15T10:06:49Z</time>
      </trkpt>
      <trkpt lat="45.46197" lon="5.74784">
        <ele>522.4</ele>
        <time>2022-04-15T10:06:50Z</time>
      </trkpt>
      <trkpt lat="45.46199" lon="5.74786">
        <ele>522.6</ele>
        <time>2022-04-15T10:06:51Z</time>
      </trkpt>
      <trkpt lat="45.46202" lon="5.74788">
        <ele>522.8</ele>
        <time>2022-04-15T10:06:53Z</time>
      </trkpt>
      <trkpt lat="45.46205" lon="5.74792">
        <ele>523</ele>
        <time>2022-04-15T10:06:55Z</time>
      </trkpt>
      <trkpt lat="45.46208" lon="5.74796">
        <ele>523.2</ele>
        <time>2022-04-15T10:06:57Z</time>
      </trkpt>
      <trkpt lat="45.46211" lon="5.748">
        <ele>523.4</ele>
        <time>2022-04-15T10:06:59Z</time>
      </trkpt>
      <trkpt lat="45.46214" lon="5.74803">
        <ele>523.7</ele>
        <time>2022-04-15T10:07:01Z</time>
      </trkpt>
      <trkpt lat="45.46217" lon="5.74807">
        <ele>523.9</ele>
        <time>2022-04-15T10:07:03Z</time>
      </trkpt>
      <trkpt lat="45.4622" lon="5.74811">
        <ele>524.1</ele>
        <time>2022-04-15T10:07:04Z</time>
      </trkpt>
      <trkpt lat="45.46221" lon="5.74812">
        <ele>524.2</ele>
        <time>2022-04-15T10:07:05Z</time>
      </trkpt>
      <trkpt lat="45.46225" lon="5.74818">
        <ele>524.5</ele>
        <time>2022-04-15T10:07:09Z</time>
      </trkpt>
      <trkpt lat="45.46227" lon="5.74821">
        <ele>524.7</ele>
        <time>2022-04-15T10:07:10Z</time>
      </trkpt>
      <trkpt lat="45.4623" lon="5.74824">
        <ele>524.9</ele>
        <time>2022-04-15T10:07:12Z</time>
      </trkpt>
      <trkpt lat="45.46232" lon="5.74826">
        <ele>525</ele>
        <time>2022-04-15T10:07:13Z</time>
      </trkpt>
      <trkpt lat="45.46235" lon="5.74831">
        <ele>525.3</ele>
        <time>2022-04-15T10:07:15Z</time>
      </trkpt>
      <trkpt lat="45.46237" lon="5.74834">
        <ele>525.5</ele>
        <time>2022-04-15T10:07:16Z</time>
      </trkpt>
      <trkpt lat="45.46239" lon="5.74837">
        <ele>525.6</ele>
        <time>2022-04-15T10:07:17Z</time>
      </trkpt>
      <trkpt lat="45.46242" lon="5.74842">
        <ele>525.9</ele>
        <time>2022-04-15T10:07:19Z</time>
      </trkpt>
      <trkpt lat="45.46243" lon="5.74843">
        <ele>526</ele>
        <time>2022-04-15T10:07:20Z</time>
      </trkpt>
      <trkpt lat="45.46244" lon="5.74845">
        <ele>526.1</ele>
        <time>2022-04-15T10:07:21Z</time>
      </trkpt>
      <trkpt lat="45.46248" lon="5.7485">
        <ele>526.4</ele>
        <time>2022-04-15T10:07:23Z</time>
      </trkpt>
      <trkpt lat="45.4625" lon="5.74852">
        <ele>526.5</ele>
        <time>2022-04-15T10:07:24Z</time>
      </trkpt>
      <trkpt lat="45.46252" lon="5.74856">
        <ele>526.7</ele>
        <time>2022-04-15T10:07:26Z</time>
      </trkpt>
      <trkpt lat="45.46254" lon="5.74859">
        <ele>526.9</ele>
        <time>2022-04-15T10:07:27Z</time>
      </trkpt>
      <trkpt lat="45.46255" lon="5.7486">
        <ele>526.9</ele>
        <time>2022-04-15T10:07:28Z</time>
      </trkpt>
      <trkpt lat="45.46257" lon="5.74865">
        <ele>527.1</ele>
        <time>2022-04-15T10:07:30Z</time>
      </trkpt>
      <trkpt lat="45.46259" lon="5.74868">
        <ele>527.3</ele>
        <time>2022-04-15T10:07:31Z</time>
      </trkpt>
      <trkpt lat="45.46259" lon="5.7487">
        <ele>527.3</ele>
        <time>2022-04-15T10:07:32Z</time>
      </trkpt>
      <trkpt lat="45.4626" lon="5.74872">
        <ele>527.4</ele>
        <time>2022-04-15T10:07:33Z</time>
      </trkpt>
      <trkpt lat="45.46262" lon="5.74876">
        <ele>527.6</ele>
        <time>2022-04-15T10:07:35Z</time>
      </trkpt>
      <trkpt lat="45.46263" lon="5.74881">
        <ele>527.8</ele>
        <time>2022-04-15T10:07:36Z</time>
      </trkpt>
      <trkpt lat="45.46264" lon="5.74882">
        <ele>527.9</ele>
        <time>2022-04-15T10:07:37Z</time>
      </trkpt>
      <trkpt lat="45.46266" lon="5.74887">
        <ele>528.1</ele>
        <time>2022-04-15T10:07:38Z</time>
      </trkpt>
      <trkpt lat="45.46267" lon="5.74889">
        <ele>528.2</ele>
        <time>2022-04-15T10:07:39Z</time>
      </trkpt>
      <trkpt lat="45.46268" lon="5.74893">
        <ele>528.3</ele>
        <time>2022-04-15T10:07:40Z</time>
      </trkpt>
      <trkpt lat="45.46269" lon="5.74896">
        <ele>528.5</ele>
        <time>2022-04-15T10:07:42Z</time>
      </trkpt>
      <trkpt lat="45.4627" lon="5.749">
        <ele>528.6</ele>
        <time>2022-04-15T10:07:43Z</time>
      </trkpt>
      <trkpt lat="45.46271" lon="5.74901">
        <ele>528.7</ele>
        <time>2022-04-15T10:07:44Z</time>
      </trkpt>
      <trkpt lat="45.46273" lon="5.74907">
        <ele>528.9</ele>
        <time>2022-04-15T10:07:46Z</time>
      </trkpt>
      <trkpt lat="45.46273" lon="5.74909">
        <ele>529</ele>
        <time>2022-04-15T10:07:47Z</time>
      </trkpt>
      <trkpt lat="45.46274" lon="5.7491">
        <ele>529.1</ele>
        <time>2022-04-15T10:07:48Z</time>
      </trkpt>
      <trkpt lat="45.46275" lon="5.74916">
        <ele>529.3</ele>
        <time>2022-04-15T10:07:50Z</time>
      </trkpt>
      <trkpt lat="45.46276" lon="5.7492">
        <ele>529.5</ele>
        <time>2022-04-15T10:07:51Z</time>
      </trkpt>
      <trkpt lat="45.46277" lon="5.74921">
        <ele>529.5</ele>
        <time>2022-04-15T10:07:52Z</time>
      </trkpt>
      <trkpt lat="45.46278" lon="5.74926">
        <ele>529.7</ele>
        <time>2022-04-15T10:07:53Z</time>
      </trkpt>
      <trkpt lat="45.46278" lon="5.74927">
        <ele>529.8</ele>
        <time>2022-04-15T10:07:54Z</time>
      </trkpt>
      <trkpt lat="45.46278" lon="5.7493">
        <ele>529.9</ele>
        <time>2022-04-15T10:07:55Z</time>
      </trkpt>
      <trkpt lat="45.46278" lon="5.74933">
        <ele>530.1</ele>
        <time>2022-04-15T10:07:57Z</time>
      </trkpt>
      <trkpt lat="45.46279" lon="5.74937">
        <ele>530.2</ele>
        <time>2022-04-15T10:07:58Z</time>
      </trkpt>
      <trkpt lat="45.46279" lon="5.74939">
        <ele>530.3</ele>
        <time>2022-04-15T10:07:59Z</time>
      </trkpt>
      <trkpt lat="45.46279" lon="5.74942">
        <ele>530.4</ele>
        <time>2022-04-15T10:08:00Z</time>
      </trkpt>
      <trkpt lat="45.4628" lon="5.74946">
        <ele>530.6</ele>
        <time>2022-04-15T10:08:02Z</time>
      </trkpt>
      <trkpt lat="45.46281" lon="5.74951">
        <ele>530.8</ele>
        <time>2022-04-15T10:08:03Z</time>
      </trkpt>
      <trkpt lat="45.46281" lon="5.74953">
        <ele>530.9</ele>
        <time>2022-04-15T10:08:04Z</time>
      </trkpt>
      <trkpt lat="45.46282" lon="5.74959">
        <ele>531.2</ele>
        <time>2022-04-15T10:08:06Z</time>
      </trkpt>
      <trkpt lat="45.46283" lon="5.74963">
        <ele>531.3</ele>
        <time>2022-04-15T10:08:08Z</time>
      </trkpt>
      <trkpt lat="45.46283" lon="5.74969">
        <ele>531.6</ele>
        <time>2022-04-15T10:08:10Z</time>
      </trkpt>
      <trkpt lat="45.46284" lon="5.74974">
        <ele>531.7</ele>
        <time>2022-04-15T10:08:11Z</time>
      </trkpt>
      <trkpt lat="45.46284" lon="5.74975">
        <ele>531.8</ele>
        <time>2022-04-15T10:08:12Z</time>
      </trkpt>
      <trkpt lat="45.46285" lon="5.7498">
        <ele>532</ele>
        <time>2022-04-15T10:08:13Z</time>
      </trkpt>
      <trkpt lat="45.46286" lon="5.74982">
        <ele>532.1</ele>
        <time>2022-04-15T10:08:14Z</time>
      </trkpt>
      <trkpt lat="45.46287" lon="5.74989">
        <ele>532.3</ele>
        <time>2022-04-15T10:08:16Z</time>
      </trkpt>
      <trkpt lat="45.46288" lon="5.74995">
        <ele>532.5</ele>
        <time>2022-04-15T10:08:17Z</time>
      </trkpt>
      <trkpt lat="45.46288" lon="5.74997">
        <ele>532.5</ele>
        <time>2022-04-15T10:08:18Z</time>
      </trkpt>
      <trkpt lat="45.4629" lon="5.75">
        <ele>532.7</ele>
        <time>2022-04-15T10:08:19Z</time>
      </trkpt>
      <trkpt lat="45.46292" lon="5.75007">
        <ele>532.9</ele>
        <time>2022-04-15T10:08:21Z</time>
      </trkpt>
      <trkpt lat="45.46294" lon="5.75014">
        <ele>533.1</ele>
        <time>2022-04-15T10:08:23Z</time>
      </trkpt>
      <trkpt lat="45.46295" lon="5.75018">
        <ele>533.3</ele>
        <time>2022-04-15T10:08:24Z</time>
      </trkpt>
      <trkpt lat="45.46296" lon="5.75022">
        <ele>533.4</ele>
        <time>2022-04-15T10:08:25Z</time>
      </trkpt>
      <trkpt lat="45.46298" lon="5.75027">
        <ele>533.6</ele>
        <time>2022-04-15T10:08:27Z</time>
      </trkpt>
      <trkpt lat="45.46299" lon="5.75032">
        <ele>533.8</ele>
        <time>2022-04-15T10:08:28Z</time>
      </trkpt>
      <trkpt lat="45.463" lon="5.75034">
        <ele>533.8</ele>
        <time>2022-04-15T10:08:29Z</time>
      </trkpt>
      <trkpt lat="45.46303" lon="5.75041">
        <ele>534.1</ele>
        <time>2022-04-15T10:08:31Z</time>
      </trkpt>
      <trkpt lat="45.46304" lon="5.75043">
        <ele>534.2</ele>
        <time>2022-04-15T10:08:32Z</time>
      </trkpt>
      <trkpt lat="45.46305" lon="5.75045">
        <ele>534.3</ele>
        <time>2022-04-15T10:08:33Z</time>
      </trkpt>
      <trkpt lat="45.46307" lon="5.75048">
        <ele>534.4</ele>
        <time>2022-04-15T10:08:34Z</time>
      </trkpt>
      <trkpt lat="45.46308" lon="5.75052">
        <ele>534.5</ele>
        <time>2022-04-15T10:08:35Z</time>
      </trkpt>
      <trkpt lat="45.4631" lon="5.75056">
        <ele>534.6</ele>
        <time>2022-04-15T10:08:36Z</time>
      </trkpt>
      <trkpt lat="45.46312" lon="5.75061">
        <ele>534.8</ele>
        <time>2022-04-15T10:08:38Z</time>
      </trkpt>
      <trkpt lat="45.46313" lon="5.75063">
        <ele>534.9</ele>
        <time>2022-04-15T10:08:39Z</time>
      </trkpt>
      <trkpt lat="45.46315" lon="5.75067">
        <ele>535</ele>
        <time>2022-04-15T10:08:40Z</time>
      </trkpt>
      <trkpt lat="45.46318" lon="5.75073">
        <ele>535.3</ele>
        <time>2022-04-15T10:08:42Z</time>
      </trkpt>
      <trkpt lat="45.46318" lon="5.75075">
        <ele>535.3</ele>
        <time>2022-04-15T10:08:43Z</time>
      </trkpt>
      <trkpt lat="45.46319" lon="5.75077">
        <ele>535.4</ele>
        <time>2022-04-15T10:08:44Z</time>
      </trkpt>
      <trkpt lat="45.46322" lon="5.75083">
        <ele>535.6</ele>
        <time>2022-04-15T10:08:46Z</time>
      </trkpt>
      <trkpt lat="45.46324" lon="5.75089">
        <ele>535.9</ele>
        <time>2022-04-15T10:08:47Z</time>
      </trkpt>
      <trkpt lat="45.46325" lon="5.75092">
        <ele>536</ele>
        <time>2022-04-15T10:08:49Z</time>
      </trkpt>
      <trkpt lat="45.46327" lon="5.75097">
        <ele>536.2</ele>
        <time>2022-04-15T10:08:50Z</time>
      </trkpt>
      <trkpt lat="45.46328" lon="5.751">
        <ele>536.3</ele>
        <time>2022-04-15T10:08:51Z</time>
      </trkpt>
      <trkpt lat="45.4633" lon="5.75104">
        <ele>536.4</ele>
        <time>2022-04-15T10:08:52Z</time>
      </trkpt>
      <trkpt lat="45.46332" lon="5.75109">
        <ele>536.6</ele>
        <time>2022-04-15T10:08:54Z</time>
      </trkpt>
      <trkpt lat="45.46334" lon="5.75113">
        <ele>536.8</ele>
        <time>2022-04-15T10:08:55Z</time>
      </trkpt>
      <trkpt lat="45.46335" lon="5.75115">
        <ele>536.9</ele>
        <time>2022-04-15T10:08:56Z</time>
      </trkpt>
      <trkpt lat="45.46336" lon="5.75119">
        <ele>537</ele>
        <time>2022-04-15T10:08:57Z</time>
      </trkpt>
      <trkpt lat="45.46338" lon="5.75125">
        <ele>537.3</ele>
        <time>2022-04-15T10:08:59Z</time>
      </trkpt>
      <trkpt lat="45.4634" lon="5.75131">
        <ele>537.5</ele>
        <time>2022-04-15T10:09:00Z</time>
      </trkpt>
      <trkpt lat="45.46341" lon="5.75135">
        <ele>537.6</ele>
        <time>2022-04-15T10:09:01Z</time>
      </trkpt>
      <trkpt lat="45.46344" lon="5.75139">
        <ele>537.8</ele>
        <time>2022-04-15T10:09:02Z</time>
      </trkpt>
      <trkpt lat="45.46345" lon="5.75143">
        <ele>537.9</ele>
        <time>2022-04-15T10:09:04Z</time>
      </trkpt>
      <trkpt lat="45.46347" lon="5.75148">
        <ele>538.1</ele>
        <time>2022-04-15T10:09:06Z</time>
      </trkpt>
      <trkpt lat="45.46349" lon="5.7515">
        <ele>538.2</ele>
        <time>2022-04-15T10:09:07Z</time>
      </trkpt>
      <trkpt lat="45.4635" lon="5.75155">
        <ele>538.4</ele>
        <time>2022-04-15T10:09:09Z</time>
      </trkpt>
      <trkpt lat="45.46351" lon="5.75158">
        <ele>538.5</ele>
        <time>2022-04-15T10:09:10Z</time>
      </trkpt>
      <trkpt lat="45.46353" lon="5.75165">
        <ele>538.8</ele>
        <time>2022-04-15T10:09:12Z</time>
      </trkpt>
      <trkpt lat="45.46355" lon="5.7517">
        <ele>539</ele>
        <time>2022-04-15T10:09:14Z</time>
      </trkpt>
      <trkpt lat="45.46357" lon="5.75175">
        <ele>539.2</ele>
        <time>2022-04-15T10:09:15Z</time>
      </trkpt>
      <trkpt lat="45.46357" lon="5.75176">
        <ele>539.2</ele>
        <time>2022-04-15T10:09:16Z</time>
      </trkpt>
      <trkpt lat="45.46359" lon="5.7518">
        <ele>539.4</ele>
        <time>2022-04-15T10:09:17Z</time>
      </trkpt>
      <trkpt lat="45.46359" lon="5.75182">
        <ele>539.5</ele>
        <time>2022-04-15T10:09:18Z</time>
      </trkpt>
      <trkpt lat="45.4636" lon="5.75186">
        <ele>539.6</ele>
        <time>2022-04-15T10:09:19Z</time>
      </trkpt>
      <trkpt lat="45.46361" lon="5.7519">
        <ele>539.7</ele>
        <time>2022-04-15T10:09:20Z</time>
      </trkpt>
      <trkpt lat="45.46362" lon="5.75195">
        <ele>539.9</ele>
        <time>2022-04-15T10:09:21Z</time>
      </trkpt>
      <trkpt lat="45.46363" lon="5.75199">
        <ele>540.1</ele>
        <time>2022-04-15T10:09:22Z</time>
      </trkpt>
      <trkpt lat="45.46364" lon="5.75203">
        <ele>540.2</ele>
        <time>2022-04-15T10:09:24Z</time>
      </trkpt>
      <trkpt lat="45.46365" lon="5.75208">
        <ele>540.4</ele>
        <time>2022-04-15T10:09:25Z</time>
      </trkpt>
      <trkpt lat="45.46366" lon="5.75209">
        <ele>540.4</ele>
        <time>2022-04-15T10:09:26Z</time>
      </trkpt>
      <trkpt lat="45.46367" lon="5.75214">
        <ele>540.6</ele>
        <time>2022-04-15T10:09:27Z</time>
      </trkpt>
      <trkpt lat="45.46368" lon="5.75217">
        <ele>540.7</ele>
        <time>2022-04-15T10:09:28Z</time>
      </trkpt>
      <trkpt lat="45.46369" lon="5.75222">
        <ele>540.9</ele>
        <time>2022-04-15T10:09:29Z</time>
      </trkpt>
      <trkpt lat="45.4637" lon="5.75229">
        <ele>541.1</ele>
        <time>2022-04-15T10:09:31Z</time>
      </trkpt>
      <trkpt lat="45.46371" lon="5.75232">
        <ele>541.2</ele>
        <time>2022-04-15T10:09:32Z</time>
      </trkpt>
      <trkpt lat="45.46371" lon="5.75235">
        <ele>541.3</ele>
        <time>2022-04-15T10:09:33Z</time>
      </trkpt>
      <trkpt lat="45.46372" lon="5.75242">
        <ele>541.5</ele>
        <time>2022-04-15T10:09:35Z</time>
      </trkpt>
      <trkpt lat="45.46372" lon="5.75247">
        <ele>541.6</ele>
        <time>2022-04-15T10:09:36Z</time>
      </trkpt>
      <trkpt lat="45.46373" lon="5.75251">
        <ele>541.7</ele>
        <time>2022-04-15T10:09:37Z</time>
      </trkpt>
      <trkpt lat="45.46373" lon="5.75257">
        <ele>541.9</ele>
        <time>2022-04-15T10:09:39Z</time>
      </trkpt>
      <trkpt lat="45.46374" lon="5.75263">
        <ele>542.1</ele>
        <time>2022-04-15T10:09:40Z</time>
      </trkpt>
      <trkpt lat="45.46375" lon="5.75266">
        <ele>542.2</ele>
        <time>2022-04-15T10:09:41Z</time>
      </trkpt>
      <trkpt lat="45.46375" lon="5.75271">
        <ele>542.3</ele>
        <time>2022-04-15T10:09:42Z</time>
      </trkpt>
      <trkpt lat="45.46376" lon="5.75275">
        <ele>542.4</ele>
        <time>2022-04-15T10:09:43Z</time>
      </trkpt>
      <trkpt lat="45.46376" lon="5.75279">
        <ele>542.6</ele>
        <time>2022-04-15T10:09:45Z</time>
      </trkpt>
      <trkpt lat="45.46377" lon="5.75283">
        <ele>542.7</ele>
        <time>2022-04-15T10:09:46Z</time>
      </trkpt>
      <trkpt lat="45.46377" lon="5.75287">
        <ele>542.8</ele>
        <time>2022-04-15T10:09:47Z</time>
      </trkpt>
      <trkpt lat="45.46378" lon="5.75293">
        <ele>543</ele>
        <time>2022-04-15T10:09:48Z</time>
      </trkpt>
      <trkpt lat="45.46378" lon="5.75298">
        <ele>543.1</ele>
        <time>2022-04-15T10:09:50Z</time>
      </trkpt>
      <trkpt lat="45.4638" lon="5.75304">
        <ele>543.3</ele>
        <time>2022-04-15T10:09:52Z</time>
      </trkpt>
      <trkpt lat="45.46381" lon="5.75311">
        <ele>543.4</ele>
        <time>2022-04-15T10:09:53Z</time>
      </trkpt>
      <trkpt lat="45.46382" lon="5.75315">
        <ele>543.5</ele>
        <time>2022-04-15T10:09:55Z</time>
      </trkpt>
      <trkpt lat="45.46384" lon="5.7532">
        <ele>543.6</ele>
        <time>2022-04-15T10:09:56Z</time>
      </trkpt>
      <trkpt lat="45.46386" lon="5.75328">
        <ele>543.8</ele>
        <time>2022-04-15T10:09:58Z</time>
      </trkpt>
      <trkpt lat="45.46389" lon="5.75335">
        <ele>543.9</ele>
        <time>2022-04-15T10:10:00Z</time>
      </trkpt>
      <trkpt lat="45.46391" lon="5.75341">
        <ele>544</ele>
        <time>2022-04-15T10:10:01Z</time>
      </trkpt>
      <trkpt lat="45.46394" lon="5.75349">
        <ele>544</ele>
        <time>2022-04-15T10:10:03Z</time>
      </trkpt>
      <trkpt lat="45.46397" lon="5.75355">
        <ele>544.1</ele>
        <time>2022-04-15T10:10:04Z</time>
      </trkpt>
      <trkpt lat="45.46401" lon="5.75359">
        <ele>544.1</ele>
        <time>2022-04-15T10:10:05Z</time>
      </trkpt>
      <trkpt lat="45.46405" lon="5.75364">
        <ele>544.1</ele>
        <time>2022-04-15T10:10:06Z</time>
      </trkpt>
      <trkpt lat="45.46408" lon="5.75369">
        <ele>544.1</ele>
        <time>2022-04-15T10:10:08Z</time>
      </trkpt>
      <trkpt lat="45.46411" lon="5.75373">
        <ele>544.1</ele>
        <time>2022-04-15T10:10:09Z</time>
      </trkpt>
      <trkpt lat="45.46416" lon="5.7538">
        <ele>544.2</ele>
        <time>2022-04-15T10:10:10Z</time>
      </trkpt>
      <trkpt lat="45.46421" lon="5.75385">
        <ele>544.2</ele>
        <time>2022-04-15T10:10:12Z</time>
      </trkpt>
      <trkpt lat="45.46424" lon="5.75389">
        <ele>544.3</ele>
        <time>2022-04-15T10:10:13Z</time>
      </trkpt>
      <trkpt lat="45.46427" lon="5.75393">
        <ele>544.3</ele>
        <time>2022-04-15T10:10:14Z</time>
      </trkpt>
      <trkpt lat="45.46433" lon="5.75399">
        <ele>544.3</ele>
        <time>2022-04-15T10:10:16Z</time>
      </trkpt>
      <trkpt lat="45.46437" lon="5.75402">
        <ele>544.4</ele>
        <time>2022-04-15T10:10:17Z</time>
      </trkpt>
      <trkpt lat="45.4644" lon="5.75406">
        <ele>544.4</ele>
        <time>2022-04-15T10:10:18Z</time>
      </trkpt>
      <trkpt lat="45.46446" lon="5.75411">
        <ele>544.4</ele>
        <time>2022-04-15T10:10:19Z</time>
      </trkpt>
      <trkpt lat="45.4645" lon="5.75414">
        <ele>544.4</ele>
        <time>2022-04-15T10:10:20Z</time>
      </trkpt>
      <trkpt lat="45.46454" lon="5.75417">
        <ele>544.4</ele>
        <time>2022-04-15T10:10:21Z</time>
      </trkpt>
      <trkpt lat="45.46457" lon="5.7542">
        <ele>544.4</ele>
        <time>2022-04-15T10:10:23Z</time>
      </trkpt>
      <trkpt lat="45.46462" lon="5.75424">
        <ele>544.4</ele>
        <time>2022-04-15T10:10:24Z</time>
      </trkpt>
      <trkpt lat="45.46467" lon="5.75429">
        <ele>544.3</ele>
        <time>2022-04-15T10:10:25Z</time>
      </trkpt>
      <trkpt lat="45.46472" lon="5.75433">
        <ele>544.2</ele>
        <time>2022-04-15T10:10:27Z</time>
      </trkpt>
      <trkpt lat="45.46478" lon="5.75439">
        <ele>544.1</ele>
        <time>2022-04-15T10:10:28Z</time>
      </trkpt>
      <trkpt lat="45.46483" lon="5.75443">
        <ele>543.9</ele>
        <time>2022-04-15T10:10:30Z</time>
      </trkpt>
      <trkpt lat="45.46487" lon="5.75448">
        <ele>543.8</ele>
        <time>2022-04-15T10:10:31Z</time>
      </trkpt>
      <trkpt lat="45.46493" lon="5.75455">
        <ele>543.6</ele>
        <time>2022-04-15T10:10:33Z</time>
      </trkpt>
      <trkpt lat="45.46497" lon="5.75458">
        <ele>543.5</ele>
        <time>2022-04-15T10:10:34Z</time>
      </trkpt>
      <trkpt lat="45.46501" lon="5.75462">
        <ele>543.4</ele>
        <time>2022-04-15T10:10:35Z</time>
      </trkpt>
      <trkpt lat="45.46506" lon="5.75466">
        <ele>543.2</ele>
        <time>2022-04-15T10:10:36Z</time>
      </trkpt>
      <trkpt lat="45.4651" lon="5.7547">
        <ele>543.1</ele>
        <time>2022-04-15T10:10:37Z</time>
      </trkpt>
      <trkpt lat="45.46515" lon="5.75474">
        <ele>543</ele>
        <time>2022-04-15T10:10:38Z</time>
      </trkpt>
      <trkpt lat="45.46519" lon="5.75478">
        <ele>542.8</ele>
        <time>2022-04-15T10:10:39Z</time>
      </trkpt>
      <trkpt lat="45.46524" lon="5.75483">
        <ele>542.7</ele>
        <time>2022-04-15T10:10:40Z</time>
      </trkpt>
      <trkpt lat="45.46529" lon="5.75487">
        <ele>542.5</ele>
        <time>2022-04-15T10:10:41Z</time>
      </trkpt>
      <trkpt lat="45.46533" lon="5.75492">
        <ele>542.4</ele>
        <time>2022-04-15T10:10:42Z</time>
      </trkpt>
      <trkpt lat="45.46538" lon="5.75496">
        <ele>542.3</ele>
        <time>2022-04-15T10:10:43Z</time>
      </trkpt>
      <trkpt lat="45.46542" lon="5.75501">
        <ele>542.1</ele>
        <time>2022-04-15T10:10:44Z</time>
      </trkpt>
      <trkpt lat="45.46547" lon="5.75506">
        <ele>542</ele>
        <time>2022-04-15T10:10:45Z</time>
      </trkpt>
      <trkpt lat="45.46552" lon="5.75511">
        <ele>541.9</ele>
        <time>2022-04-15T10:10:46Z</time>
      </trkpt>
      <trkpt lat="45.46557" lon="5.75515">
        <ele>541.7</ele>
        <time>2022-04-15T10:10:47Z</time>
      </trkpt>
      <trkpt lat="45.46562" lon="5.75519">
        <ele>541.6</ele>
        <time>2022-04-15T10:10:48Z</time>
      </trkpt>
      <trkpt lat="45.46566" lon="5.75524">
        <ele>541.4</ele>
        <time>2022-04-15T10:10:49Z</time>
      </trkpt>
      <trkpt lat="45.46571" lon="5.75528">
        <ele>541.3</ele>
        <time>2022-04-15T10:10:50Z</time>
      </trkpt>
      <trkpt lat="45.46576" lon="5.75533">
        <ele>541.1</ele>
        <time>2022-04-15T10:10:51Z</time>
      </trkpt>
      <trkpt lat="45.4658" lon="5.75537">
        <ele>541</ele>
        <time>2022-04-15T10:10:52Z</time>
      </trkpt>
      <trkpt lat="45.46585" lon="5.75541">
        <ele>540.8</ele>
        <time>2022-04-15T10:10:53Z</time>
      </trkpt>
      <trkpt lat="45.46589" lon="5.75545">
        <ele>540.7</ele>
        <time>2022-04-15T10:10:54Z</time>
      </trkpt>
      <trkpt lat="45.46593" lon="5.7555">
        <ele>540.6</ele>
        <time>2022-04-15T10:10:55Z</time>
      </trkpt>
      <trkpt lat="45.46597" lon="5.75554">
        <ele>540.5</ele>
        <time>2022-04-15T10:10:56Z</time>
      </trkpt>
      <trkpt lat="45.46601" lon="5.75557">
        <ele>540.4</ele>
        <time>2022-04-15T10:10:57Z</time>
      </trkpt>
      <trkpt lat="45.46604" lon="5.7556">
        <ele>540.3</ele>
        <time>2022-04-15T10:10:58Z</time>
      </trkpt>
      <trkpt lat="45.46606" lon="5.75562">
        <ele>540.3</ele>
        <time>2022-04-15T10:10:59Z</time>
      </trkpt>
      <trkpt lat="45.46609" lon="5.75564">
        <ele>540.2</ele>
        <time>2022-04-15T10:11:00Z</time>
      </trkpt>
      <trkpt lat="45.46611" lon="5.75567">
        <ele>540.2</ele>
        <time>2022-04-15T10:11:01Z</time>
      </trkpt>
      <trkpt lat="45.46613" lon="5.75569">
        <ele>540.1</ele>
        <time>2022-04-15T10:11:02Z</time>
      </trkpt>
      <trkpt lat="45.46614" lon="5.75569">
        <ele>540.1</ele>
        <time>2022-04-15T10:11:03Z</time>
      </trkpt>
      <trkpt lat="45.46614" lon="5.75569">
        <ele>540.1</ele>
        <time>2022-04-15T10:11:04Z</time>
      </trkpt>
      <trkpt lat="45.46614" lon="5.7557">
        <ele>540.1</ele>
        <time>2022-04-15T10:11:05Z</time>
      </trkpt>
      <trkpt lat="45.46614" lon="5.7557">
        <ele>540.1</ele>
        <time>2022-04-15T10:11:06Z</time>
      </trkpt>
      <trkpt lat="45.46614" lon="5.7557">
        <ele>540.1</ele>
        <time>2022-04-15T10:11:07Z</time>
      </trkpt>
      <trkpt lat="45.46614" lon="5.75569">
        <ele>540.1</ele>
        <time>2022-04-15T10:11:08Z</time>
      </trkpt>
      <trkpt lat="45.46614" lon="5.75569">
        <ele>540.1</ele>
        <time>2022-04-15T10:11:09Z</time>
      </trkpt>
      <trkpt lat="45.46615" lon="5.75569">
        <ele>540.1</ele>
        <time>2022-04-15T10:11:10Z</time>
      </trkpt>
      <trkpt lat="45.46614" lon="5.75569">
        <ele>540.1</ele>
        <time>2022-04-15T10:11:12Z</time>
      </trkpt>
      <trkpt lat="45.46614" lon="5.75569">
        <ele>540</ele>
        <time>2022-04-15T10:11:14Z</time>
      </trkpt>
      <trkpt lat="45.46614" lon="5.75569">
        <ele>540</ele>
        <time>2022-04-15T10:11:15Z</time>
      </trkpt>
      <trkpt lat="45.46615" lon="5.75568">
        <ele>540</ele>
        <time>2022-04-15T10:11:16Z</time>
      </trkpt>
      <trkpt lat="45.46615" lon="5.75568">
        <ele>540</ele>
        <time>2022-04-15T10:11:17Z</time>
      </trkpt>
      <trkpt lat="45.46615" lon="5.75568">
        <ele>540</ele>
        <time>2022-04-15T10:11:18Z</time>
      </trkpt>
      <trkpt lat="45.46615" lon="5.75568">
        <ele>540</ele>
        <time>2022-04-15T10:11:19Z</time>
      </trkpt>
      <trkpt lat="45.46615" lon="5.75568">
        <ele>540</ele>
        <time>2022-04-15T10:11:20Z</time>
      </trkpt>
      <trkpt lat="45.46615" lon="5.75568">
        <ele>540</ele>
        <time>2022-04-15T10:11:21Z</time>
      </trkpt>
      <trkpt lat="45.46615" lon="5.75568">
        <ele>540</ele>
        <time>2022-04-15T10:11:22Z</time>
      </trkpt>
      <trkpt lat="45.46615" lon="5.75568">
        <ele>540</ele>
        <time>2022-04-15T10:11:23Z</time>
      </trkpt>
      <trkpt lat="45.46615" lon="5.75568">
        <ele>540</ele>
        <time>2022-04-15T10:11:24Z</time>
      </trkpt>
      <trkpt lat="45.46615" lon="5.75568">
        <ele>540</ele>
        <time>2022-04-15T10:11:25Z</time>
      </trkpt>
      <trkpt lat="45.46615" lon="5.75567">
        <ele>540</ele>
        <time>2022-04-15T10:11:26Z</time>
      </trkpt>
      <trkpt lat="45.46615" lon="5.75567">
        <ele>540</ele>
        <time>2022-04-15T10:11:27Z</time>
      </trkpt>
      <trkpt lat="45.46615" lon="5.75567">
        <ele>540</ele>
        <time>2022-04-15T10:11:28Z</time>
      </trkpt>
      <trkpt lat="45.46615" lon="5.75567">
        <ele>540</ele>
        <time>2022-04-15T10:11:29Z</time>
      </trkpt>
      <trkpt lat="45.46615" lon="5.75567">
        <ele>540</ele>
        <time>2022-04-15T10:11:30Z</time>
      </trkpt>
      <trkpt lat="45.46615" lon="5.75567">
        <ele>540</ele>
        <time>2022-04-15T10:11:31Z</time>
      </trkpt>
      <trkpt lat="45.46615" lon="5.75567">
        <ele>540</ele>
        <time>2022-04-15T10:11:32Z</time>
      </trkpt>
      <trkpt lat="45.46615" lon="5.75567">
        <ele>540</ele>
        <time>2022-04-15T10:11:33Z</time>
      </trkpt>
      <trkpt lat="45.46615" lon="5.75567">
        <ele>540</ele>
        <time>2022-04-15T10:11:34Z</time>
      </trkpt>
      <trkpt lat="45.46615" lon="5.75567">
        <ele>540</ele>
        <time>2022-04-15T10:11:35Z</time>
      </trkpt>
      <trkpt lat="45.46615" lon="5.75567">
        <ele>540</ele>
        <time>2022-04-15T10:11:36Z</time>
      </trkpt>
      <trkpt lat="45.46615" lon="5.75567">
        <ele>540</ele>
        <time>2022-04-15T10:11:37Z</time>
      </trkpt>
      <trkpt lat="45.46615" lon="5.75567">
        <ele>540</ele>
        <time>2022-04-15T10:11:38Z</time>
      </trkpt>
      <trkpt lat="45.46615" lon="5.75567">
        <ele>540</ele>
        <time>2022-04-15T10:11:39Z</time>
      </trkpt>
      <trkpt lat="45.46615" lon="5.75567">
        <ele>540</ele>
        <time>2022-04-15T10:11:40Z</time>
      </trkpt>
      <trkpt lat="45.46615" lon="5.75567">
        <ele>540</ele>
        <time>2022-04-15T10:11:41Z</time>
      </trkpt>
      <trkpt lat="45.46615" lon="5.75567">
        <ele>540</ele>
        <time>2022-04-15T10:11:42Z</time>
      </trkpt>
      <trkpt lat="45.46615" lon="5.75567">
        <ele>540</ele>
        <time>2022-04-15T10:11:43Z</time>
      </trkpt>
      <trkpt lat="45.46615" lon="5.75567">
        <ele>540</ele>
        <time>2022-04-15T10:11:44Z</time>
      </trkpt>
      <trkpt lat="45.46615" lon="5.75567">
        <ele>540</ele>
        <time>2022-04-15T10:11:45Z</time>
      </trkpt>
      <trkpt lat="45.46615" lon="5.75567">
        <ele>540</ele>
        <time>2022-04-15T10:11:46Z</time>
      </trkpt>
      <trkpt lat="45.46615" lon="5.75567">
        <ele>540</ele>
        <time>2022-04-15T10:11:47Z</time>
      </trkpt>
      <trkpt lat="45.46615" lon="5.75567">
        <ele>540</ele>
        <time>2022-04-15T10:11:48Z</time>
      </trkpt>
      <trkpt lat="45.46615" lon="5.75567">
        <ele>540</ele>
        <time>2022-04-15T10:11:49Z</time>
      </trkpt>
      <trkpt lat="45.46615" lon="5.75567">
        <ele>540</ele>
        <time>2022-04-15T10:11:50Z</time>
      </trkpt>
      <trkpt lat="45.46615" lon="5.75567">
        <ele>540</ele>
        <time>2022-04-15T10:11:51Z</time>
      </trkpt>
      <trkpt lat="45.46615" lon="5.75567">
        <ele>540</ele>
        <time>2022-04-15T10:11:52Z</time>
      </trkpt>
      <trkpt lat="45.46615" lon="5.75567">
        <ele>540</ele>
        <time>2022-04-15T10:11:53Z</time>
      </trkpt>
      <trkpt lat="45.46615" lon="5.75567">
        <ele>540</ele>
        <time>2022-04-15T10:11:54Z</time>
      </trkpt>
      <trkpt lat="45.46615" lon="5.75567">
        <ele>540</ele>
        <time>2022-04-15T10:11:55Z</time>
      </trkpt>
      <trkpt lat="45.46615" lon="5.75567">
        <ele>540</ele>
        <time>2022-04-15T10:11:56Z</time>
      </trkpt>
      <trkpt lat="45.46615" lon="5.75567">
        <ele>540</ele>
        <time>2022-04-15T10:11:57Z</time>
      </trkpt>
      <trkpt lat="45.46615" lon="5.75567">
        <ele>540</ele>
        <time>2022-04-15T10:11:58Z</time>
      </trkpt>
      <trkpt lat="45.46615" lon="5.75567">
        <ele>540</ele>
        <time>2022-04-15T10:11:59Z</time>
      </trkpt>
      <trkpt lat="45.46615" lon="5.75567">
        <ele>540</ele>
        <time>2022-04-15T10:12:00Z</time>
      </trkpt>
      <trkpt lat="45.46615" lon="5.75567">
        <ele>540</ele>
        <time>2022-04-15T10:12:01Z</time>
      </trkpt>
      <trkpt lat="45.46615" lon="5.75567">
        <ele>540</ele>
        <time>2022-04-15T10:12:02Z</time>
      </trkpt>
      <trkpt lat="45.46615" lon="5.75567">
        <ele>540</ele>
        <time>2022-04-15T10:12:03Z</time>
      </trkpt>
      <trkpt lat="45.46615" lon="5.75567">
        <ele>540</ele>
        <time>2022-04-15T10:12:04Z</time>
      </trkpt>
      <trkpt lat="45.46615" lon="5.75567">
        <ele>540</ele>
        <time>2022-04-15T10:12:05Z</time>
      </trkpt>
      <trkpt lat="45.46615" lon="5.75567">
        <ele>540</ele>
        <time>2022-04-15T10:12:06Z</time>
      </trkpt>
      <trkpt lat="45.46615" lon="5.75567">
        <ele>540</ele>
        <time>2022-04-15T10:12:07Z</time>
      </trkpt>
      <trkpt lat="45.46615" lon="5.75567">
        <ele>540</ele>
        <time>2022-04-15T10:12:08Z</time>
      </trkpt>
      <trkpt lat="45.46615" lon="5.75567">
        <ele>540</ele>
        <time>2022-04-15T10:12:09Z</time>
      </trkpt>
      <trkpt lat="45.46615" lon="5.75567">
        <ele>540</ele>
        <time>2022-04-15T10:12:10Z</time>
      </trkpt>
      <trkpt lat="45.46615" lon="5.75567">
        <ele>540</ele>
        <time>2022-04-15T10:12:11Z</time>
      </trkpt>
      <trkpt lat="45.46615" lon="5.75567">
        <ele>540</ele>
        <time>2022-04-15T10:12:12Z</time>
      </trkpt>
      <trkpt lat="45.46615" lon="5.75567">
        <ele>540</ele>
        <time>2022-04-15T10:12:13Z</time>
      </trkpt>
      <trkpt lat="45.46615" lon="5.75567">
        <ele>540</ele>
        <time>2022-04-15T10:12:14Z</time>
      </trkpt>
      <trkpt lat="45.46615" lon="5.75567">
        <ele>540</ele>
        <time>2022-04-15T10:12:15Z</time>
      </trkpt>
      <trkpt lat="45.46615" lon="5.75567">
        <ele>540</ele>
        <time>2022-04-15T10:12:16Z</time>
      </trkpt>
      <trkpt lat="45.46615" lon="5.75567">
        <ele>540</ele>
        <time>2022-04-15T10:12:17Z</time>
      </trkpt>
      <trkpt lat="45.46615" lon="5.75567">
        <ele>540</ele>
        <time>2022-04-15T10:12:18Z</time>
      </trkpt>
      <trkpt lat="45.46616" lon="5.75567">
        <ele>540</ele>
        <time>2022-04-15T10:12:19Z</time>
      </trkpt>
      <trkpt lat="45.46616" lon="5.75566">
        <ele>540</ele>
        <time>2022-04-15T10:12:20Z</time>
      </trkpt>
      <trkpt lat="45.46616" lon="5.75566">
        <ele>540</ele>
        <time>2022-04-15T10:12:21Z</time>
      </trkpt>
      <trkpt lat="45.46616" lon="5.75566">
        <ele>540</ele>
        <time>2022-04-15T10:12:22Z</time>
      </trkpt>
      <trkpt lat="45.46616" lon="5.75566">
        <ele>540</ele>
        <time>2022-04-15T10:12:23Z</time>
      </trkpt>
      <trkpt lat="45.46616" lon="5.75566">
        <ele>540</ele>
        <time>2022-04-15T10:12:24Z</time>
      </trkpt>
      <trkpt lat="45.46616" lon="5.75566">
        <ele>540</ele>
        <time>2022-04-15T10:12:25Z</time>
      </trkpt>
      <trkpt lat="45.46616" lon="5.75566">
        <ele>540</ele>
        <time>2022-04-15T10:12:26Z</time>
      </trkpt>
      <trkpt lat="45.46616" lon="5.75566">
        <ele>540</ele>
        <time>2022-04-15T10:12:27Z</time>
      </trkpt>
      <trkpt lat="45.46616" lon="5.75566">
        <ele>540</ele>
        <time>2022-04-15T10:12:28Z</time>
      </trkpt>
      <trkpt lat="45.46616" lon="5.75566">
        <ele>540</ele>
        <time>2022-04-15T10:12:29Z</time>
      </trkpt>
      <trkpt lat="45.46617" lon="5.75566">
        <ele>539.9</ele>
        <time>2022-04-15T10:12:30Z</time>
      </trkpt>
      <trkpt lat="45.4662" lon="5.75566">
        <ele>539.9</ele>
        <time>2022-04-15T10:12:32Z</time>
      </trkpt>
      <trkpt lat="45.46624" lon="5.75569">
        <ele>539.7</ele>
        <time>2022-04-15T10:12:34Z</time>
      </trkpt>
      <trkpt lat="45.46628" lon="5.75572">
        <ele>539.6</ele>
        <time>2022-04-15T10:12:35Z</time>
      </trkpt>
      <trkpt lat="45.46631" lon="5.75574">
        <ele>539.5</ele>
        <time>2022-04-15T10:12:36Z</time>
      </trkpt>
      <trkpt lat="45.46634" lon="5.75577">
        <ele>539.3</ele>
        <time>2022-04-15T10:12:37Z</time>
      </trkpt>
      <trkpt lat="45.46639" lon="5.75581">
        <ele>539.1</ele>
        <time>2022-04-15T10:12:38Z</time>
      </trkpt>
      <trkpt lat="45.46648" lon="5.75589">
        <ele>538.7</ele>
        <time>2022-04-15T10:12:40Z</time>
      </trkpt>
      <trkpt lat="45.46652" lon="5.75592">
        <ele>538.5</ele>
        <time>2022-04-15T10:12:41Z</time>
      </trkpt>
      <trkpt lat="45.46657" lon="5.75595">
        <ele>538.2</ele>
        <time>2022-04-15T10:12:42Z</time>
      </trkpt>
      <trkpt lat="45.46662" lon="5.75598">
        <ele>538</ele>
        <time>2022-04-15T10:12:43Z</time>
      </trkpt>
      <trkpt lat="45.46667" lon="5.756">
        <ele>537.8</ele>
        <time>2022-04-15T10:12:44Z</time>
      </trkpt>
      <trkpt lat="45.46672" lon="5.75604">
        <ele>537.6</ele>
        <time>2022-04-15T10:12:45Z</time>
      </trkpt>
      <trkpt lat="45.46678" lon="5.75607">
        <ele>537.3</ele>
        <time>2022-04-15T10:12:46Z</time>
      </trkpt>
      <trkpt lat="45.46684" lon="5.75609">
        <ele>537.1</ele>
        <time>2022-04-15T10:12:47Z</time>
      </trkpt>
      <trkpt lat="45.4669" lon="5.75612">
        <ele>536.9</ele>
        <time>2022-04-15T10:12:48Z</time>
      </trkpt>
      <trkpt lat="45.46696" lon="5.75614">
        <ele>536.6</ele>
        <time>2022-04-15T10:12:49Z</time>
      </trkpt>
      <trkpt lat="45.46702" lon="5.75617">
        <ele>536.4</ele>
        <time>2022-04-15T10:12:50Z</time>
      </trkpt>
      <trkpt lat="45.46708" lon="5.7562">
        <ele>536.1</ele>
        <time>2022-04-15T10:12:51Z</time>
      </trkpt>
      <trkpt lat="45.46714" lon="5.75624">
        <ele>535.9</ele>
        <time>2022-04-15T10:12:52Z</time>
      </trkpt>
      <trkpt lat="45.46721" lon="5.75627">
        <ele>535.6</ele>
        <time>2022-04-15T10:12:53Z</time>
      </trkpt>
      <trkpt lat="45.46728" lon="5.7563">
        <ele>535.3</ele>
        <time>2022-04-15T10:12:54Z</time>
      </trkpt>
      <trkpt lat="45.46734" lon="5.75633">
        <ele>535</ele>
        <time>2022-04-15T10:12:55Z</time>
      </trkpt>
      <trkpt lat="45.4674" lon="5.75636">
        <ele>534.8</ele>
        <time>2022-04-15T10:12:56Z</time>
      </trkpt>
      <trkpt lat="45.46747" lon="5.75639">
        <ele>534.5</ele>
        <time>2022-04-15T10:12:57Z</time>
      </trkpt>
      <trkpt lat="45.46754" lon="5.75642">
        <ele>534.2</ele>
        <time>2022-04-15T10:12:58Z</time>
      </trkpt>
      <trkpt lat="45.46761" lon="5.75645">
        <ele>533.9</ele>
        <time>2022-04-15T10:12:59Z</time>
      </trkpt>
      <trkpt lat="45.46767" lon="5.75648">
        <ele>533.6</ele>
        <time>2022-04-15T10:13:00Z</time>
      </trkpt>
      <trkpt lat="45.46774" lon="5.75651">
        <ele>533.4</ele>
        <time>2022-04-15T10:13:01Z</time>
      </trkpt>
      <trkpt lat="45.46781" lon="5.75655">
        <ele>533.1</ele>
        <time>2022-04-15T10:13:02Z</time>
      </trkpt>
      <trkpt lat="45.46788" lon="5.75658">
        <ele>532.8</ele>
        <time>2022-04-15T10:13:03Z</time>
      </trkpt>
      <trkpt lat="45.46794" lon="5.75661">
        <ele>532.5</ele>
        <time>2022-04-15T10:13:04Z</time>
      </trkpt>
      <trkpt lat="45.46801" lon="5.75664">
        <ele>532.3</ele>
        <time>2022-04-15T10:13:05Z</time>
      </trkpt>
      <trkpt lat="45.46808" lon="5.75667">
        <ele>532</ele>
        <time>2022-04-15T10:13:06Z</time>
      </trkpt>
      <trkpt lat="45.46815" lon="5.7567">
        <ele>531.7</ele>
        <time>2022-04-15T10:13:07Z</time>
      </trkpt>
      <trkpt lat="45.46821" lon="5.75673">
        <ele>531.5</ele>
        <time>2022-04-15T10:13:08Z</time>
      </trkpt>
      <trkpt lat="45.46828" lon="5.75676">
        <ele>531.2</ele>
        <time>2022-04-15T10:13:09Z</time>
      </trkpt>
      <trkpt lat="45.46834" lon="5.75679">
        <ele>530.9</ele>
        <time>2022-04-15T10:13:10Z</time>
      </trkpt>
      <trkpt lat="45.46841" lon="5.75683">
        <ele>530.6</ele>
        <time>2022-04-15T10:13:11Z</time>
      </trkpt>
      <trkpt lat="45.46848" lon="5.75686">
        <ele>530.3</ele>
        <time>2022-04-15T10:13:12Z</time>
      </trkpt>
      <trkpt lat="45.46855" lon="5.75689">
        <ele>530</ele>
        <time>2022-04-15T10:13:13Z</time>
      </trkpt>
      <trkpt lat="45.46861" lon="5.75693">
        <ele>529.7</ele>
        <time>2022-04-15T10:13:14Z</time>
      </trkpt>
      <trkpt lat="45.46868" lon="5.75696">
        <ele>529.4</ele>
        <time>2022-04-15T10:13:15Z</time>
      </trkpt>
      <trkpt lat="45.46875" lon="5.75699">
        <ele>529.1</ele>
        <time>2022-04-15T10:13:16Z</time>
      </trkpt>
      <trkpt lat="45.46882" lon="5.75703">
        <ele>528.8</ele>
        <time>2022-04-15T10:13:17Z</time>
      </trkpt>
      <trkpt lat="45.46888" lon="5.75707">
        <ele>528.4</ele>
        <time>2022-04-15T10:13:18Z</time>
      </trkpt>
      <trkpt lat="45.46895" lon="5.75711">
        <ele>528.1</ele>
        <time>2022-04-15T10:13:19Z</time>
      </trkpt>
      <trkpt lat="45.46901" lon="5.75717">
        <ele>527.8</ele>
        <time>2022-04-15T10:13:20Z</time>
      </trkpt>
      <trkpt lat="45.46907" lon="5.75723">
        <ele>527.5</ele>
        <time>2022-04-15T10:13:21Z</time>
      </trkpt>
      <trkpt lat="45.46912" lon="5.7573">
        <ele>527.1</ele>
        <time>2022-04-15T10:13:22Z</time>
      </trkpt>
      <trkpt lat="45.46917" lon="5.75739">
        <ele>526.8</ele>
        <time>2022-04-15T10:13:23Z</time>
      </trkpt>
      <trkpt lat="45.46921" lon="5.75748">
        <ele>526.5</ele>
        <time>2022-04-15T10:13:24Z</time>
      </trkpt>
      <trkpt lat="45.46925" lon="5.75757">
        <ele>526.2</ele>
        <time>2022-04-15T10:13:25Z</time>
      </trkpt>
      <trkpt lat="45.46929" lon="5.75768">
        <ele>525.9</ele>
        <time>2022-04-15T10:13:26Z</time>
      </trkpt>
      <trkpt lat="45.46931" lon="5.75778">
        <ele>525.7</ele>
        <time>2022-04-15T10:13:27Z</time>
      </trkpt>
      <trkpt lat="45.46934" lon="5.75789">
        <ele>525.5</ele>
        <time>2022-04-15T10:13:28Z</time>
      </trkpt>
      <trkpt lat="45.46937" lon="5.758">
        <ele>525.3</ele>
        <time>2022-04-15T10:13:29Z</time>
      </trkpt>
      <trkpt lat="45.46941" lon="5.7581">
        <ele>525.4</ele>
        <time>2022-04-15T10:13:30Z</time>
      </trkpt>
      <trkpt lat="45.46945" lon="5.7582">
        <ele>525.4</ele>
        <time>2022-04-15T10:13:31Z</time>
      </trkpt>
      <trkpt lat="45.46949" lon="5.75829">
        <ele>525.4</ele>
        <time>2022-04-15T10:13:32Z</time>
      </trkpt>
      <trkpt lat="45.46954" lon="5.75837">
        <ele>525.4</ele>
        <time>2022-04-15T10:13:33Z</time>
      </trkpt>
      <trkpt lat="45.46959" lon="5.75844">
        <ele>525.4</ele>
        <time>2022-04-15T10:13:34Z</time>
      </trkpt>
      <trkpt lat="45.46964" lon="5.75851">
        <ele>525.4</ele>
        <time>2022-04-15T10:13:35Z</time>
      </trkpt>
      <trkpt lat="45.46969" lon="5.75857">
        <ele>525.4</ele>
        <time>2022-04-15T10:13:36Z</time>
      </trkpt>
      <trkpt lat="45.46974" lon="5.75863">
        <ele>525.4</ele>
        <time>2022-04-15T10:13:37Z</time>
      </trkpt>
      <trkpt lat="45.46979" lon="5.7587">
        <ele>525.5</ele>
        <time>2022-04-15T10:13:38Z</time>
      </trkpt>
      <trkpt lat="45.46984" lon="5.75875">
        <ele>525.5</ele>
        <time>2022-04-15T10:13:39Z</time>
      </trkpt>
      <trkpt lat="45.46989" lon="5.7588">
        <ele>525.6</ele>
        <time>2022-04-15T10:13:40Z</time>
      </trkpt>
      <trkpt lat="45.46993" lon="5.75886">
        <ele>525.7</ele>
        <time>2022-04-15T10:13:41Z</time>
      </trkpt>
      <trkpt lat="45.46997" lon="5.75891">
        <ele>525.7</ele>
        <time>2022-04-15T10:13:42Z</time>
      </trkpt>
      <trkpt lat="45.47002" lon="5.75895">
        <ele>525.8</ele>
        <time>2022-04-15T10:13:43Z</time>
      </trkpt>
      <trkpt lat="45.47006" lon="5.759">
        <ele>525.8</ele>
        <time>2022-04-15T10:13:44Z</time>
      </trkpt>
      <trkpt lat="45.47009" lon="5.75905">
        <ele>525.9</ele>
        <time>2022-04-15T10:13:45Z</time>
      </trkpt>
      <trkpt lat="45.47013" lon="5.75909">
        <ele>525.9</ele>
        <time>2022-04-15T10:13:46Z</time>
      </trkpt>
      <trkpt lat="45.47017" lon="5.75914">
        <ele>526</ele>
        <time>2022-04-15T10:13:47Z</time>
      </trkpt>
      <trkpt lat="45.4702" lon="5.75918">
        <ele>526</ele>
        <time>2022-04-15T10:13:48Z</time>
      </trkpt>
      <trkpt lat="45.47024" lon="5.75922">
        <ele>526</ele>
        <time>2022-04-15T10:13:49Z</time>
      </trkpt>
      <trkpt lat="45.47028" lon="5.75926">
        <ele>526.1</ele>
        <time>2022-04-15T10:13:50Z</time>
      </trkpt>
      <trkpt lat="45.47031" lon="5.7593">
        <ele>526.1</ele>
        <time>2022-04-15T10:13:51Z</time>
      </trkpt>
      <trkpt lat="45.47035" lon="5.75934">
        <ele>526.1</ele>
        <time>2022-04-15T10:13:52Z</time>
      </trkpt>
      <trkpt lat="45.47038" lon="5.75938">
        <ele>526.2</ele>
        <time>2022-04-15T10:13:53Z</time>
      </trkpt>
      <trkpt lat="45.47042" lon="5.75941">
        <ele>526.2</ele>
        <time>2022-04-15T10:13:54Z</time>
      </trkpt>
      <trkpt lat="45.47046" lon="5.75945">
        <ele>526.2</ele>
        <time>2022-04-15T10:13:55Z</time>
      </trkpt>
      <trkpt lat="45.47048" lon="5.75947">
        <ele>526.3</ele>
        <time>2022-04-15T10:13:56Z</time>
      </trkpt>
      <trkpt lat="45.47052" lon="5.75951">
        <ele>526.3</ele>
        <time>2022-04-15T10:13:57Z</time>
      </trkpt>
      <trkpt lat="45.47056" lon="5.75955">
        <ele>526.4</ele>
        <time>2022-04-15T10:13:58Z</time>
      </trkpt>
      <trkpt lat="45.4706" lon="5.75959">
        <ele>526.5</ele>
        <time>2022-04-15T10:13:59Z</time>
      </trkpt>
      <trkpt lat="45.47065" lon="5.75964">
        <ele>526.5</ele>
        <time>2022-04-15T10:14:00Z</time>
      </trkpt>
      <trkpt lat="45.47068" lon="5.75967">
        <ele>526.6</ele>
        <time>2022-04-15T10:14:01Z</time>
      </trkpt>
      <trkpt lat="45.47069" lon="5.75968">
        <ele>526.6</ele>
        <time>2022-04-15T10:14:02Z</time>
      </trkpt>
      <trkpt lat="45.47073" lon="5.75975">
        <ele>526.7</ele>
        <time>2022-04-15T10:14:03Z</time>
      </trkpt>
      <trkpt lat="45.47081" lon="5.75982">
        <ele>526.9</ele>
        <time>2022-04-15T10:14:05Z</time>
      </trkpt>
      <trkpt lat="45.47085" lon="5.75987">
        <ele>527</ele>
        <time>2022-04-15T10:14:06Z</time>
      </trkpt>
      <trkpt lat="45.47091" lon="5.75994">
        <ele>527.1</ele>
        <time>2022-04-15T10:14:08Z</time>
      </trkpt>
      <trkpt lat="45.47096" lon="5.75998">
        <ele>527.2</ele>
        <time>2022-04-15T10:14:09Z</time>
      </trkpt>
      <trkpt lat="45.47099" lon="5.76001">
        <ele>527.3</ele>
        <time>2022-04-15T10:14:10Z</time>
      </trkpt>
      <trkpt lat="45.47104" lon="5.76006">
        <ele>527.3</ele>
        <time>2022-04-15T10:14:12Z</time>
      </trkpt>
      <trkpt lat="45.47107" lon="5.76009">
        <ele>527.4</ele>
        <time>2022-04-15T10:14:13Z</time>
      </trkpt>
      <trkpt lat="45.47113" lon="5.76015">
        <ele>527.5</ele>
        <time>2022-04-15T10:14:15Z</time>
      </trkpt>
      <trkpt lat="45.47118" lon="5.76018">
        <ele>527.6</ele>
        <time>2022-04-15T10:14:16Z</time>
      </trkpt>
      <trkpt lat="45.47122" lon="5.76021">
        <ele>527.6</ele>
        <time>2022-04-15T10:14:18Z</time>
      </trkpt>
      <trkpt lat="45.47126" lon="5.76025">
        <ele>527.7</ele>
        <time>2022-04-15T10:14:19Z</time>
      </trkpt>
      <trkpt lat="45.47132" lon="5.7603">
        <ele>527.8</ele>
        <time>2022-04-15T10:14:20Z</time>
      </trkpt>
      <trkpt lat="45.47135" lon="5.76033">
        <ele>527.9</ele>
        <time>2022-04-15T10:14:22Z</time>
      </trkpt>
      <trkpt lat="45.47138" lon="5.76036">
        <ele>528</ele>
        <time>2022-04-15T10:14:23Z</time>
      </trkpt>
      <trkpt lat="45.47142" lon="5.76037">
        <ele>528</ele>
        <time>2022-04-15T10:14:24Z</time>
      </trkpt>
      <trkpt lat="45.47147" lon="5.7604">
        <ele>528.1</ele>
        <time>2022-04-15T10:14:25Z</time>
      </trkpt>
      <trkpt lat="45.47153" lon="5.76042">
        <ele>528.2</ele>
        <time>2022-04-15T10:14:26Z</time>
      </trkpt>
      <trkpt lat="45.47157" lon="5.76043">
        <ele>528.3</ele>
        <time>2022-04-15T10:14:27Z</time>
      </trkpt>
      <trkpt lat="45.4716" lon="5.76044">
        <ele>528.3</ele>
        <time>2022-04-15T10:14:28Z</time>
      </trkpt>
      <trkpt lat="45.47164" lon="5.76045">
        <ele>528.4</ele>
        <time>2022-04-15T10:14:29Z</time>
      </trkpt>
      <trkpt lat="45.47169" lon="5.76047">
        <ele>528.4</ele>
        <time>2022-04-15T10:14:31Z</time>
      </trkpt>
      <trkpt lat="45.47173" lon="5.7605">
        <ele>528.5</ele>
        <time>2022-04-15T10:14:32Z</time>
      </trkpt>
      <trkpt lat="45.4718" lon="5.76054">
        <ele>528.6</ele>
        <time>2022-04-15T10:14:34Z</time>
      </trkpt>
      <trkpt lat="45.47184" lon="5.76056">
        <ele>528.6</ele>
        <time>2022-04-15T10:14:35Z</time>
      </trkpt>
      <trkpt lat="45.4719" lon="5.76058">
        <ele>528.7</ele>
        <time>2022-04-15T10:14:36Z</time>
      </trkpt>
      <trkpt lat="45.47196" lon="5.7606">
        <ele>528.7</ele>
        <time>2022-04-15T10:14:38Z</time>
      </trkpt>
      <trkpt lat="45.47201" lon="5.76063">
        <ele>528.8</ele>
        <time>2022-04-15T10:14:39Z</time>
      </trkpt>
      <trkpt lat="45.47205" lon="5.76066">
        <ele>528.9</ele>
        <time>2022-04-15T10:14:40Z</time>
      </trkpt>
      <trkpt lat="45.4721" lon="5.76069">
        <ele>528.9</ele>
        <time>2022-04-15T10:14:42Z</time>
      </trkpt>
      <trkpt lat="45.47214" lon="5.76072">
        <ele>529</ele>
        <time>2022-04-15T10:14:43Z</time>
      </trkpt>
      <trkpt lat="45.47219" lon="5.76076">
        <ele>529</ele>
        <time>2022-04-15T10:14:44Z</time>
      </trkpt>
      <trkpt lat="45.47223" lon="5.7608">
        <ele>529.1</ele>
        <time>2022-04-15T10:14:46Z</time>
      </trkpt>
      <trkpt lat="45.47228" lon="5.76084">
        <ele>529.1</ele>
        <time>2022-04-15T10:14:47Z</time>
      </trkpt>
      <trkpt lat="45.47234" lon="5.76089">
        <ele>529.2</ele>
        <time>2022-04-15T10:14:49Z</time>
      </trkpt>
      <trkpt lat="45.47237" lon="5.76091">
        <ele>529.2</ele>
        <time>2022-04-15T10:14:50Z</time>
      </trkpt>
      <trkpt lat="45.4724" lon="5.76093">
        <ele>529.3</ele>
        <time>2022-04-15T10:14:51Z</time>
      </trkpt>
      <trkpt lat="45.47243" lon="5.76095">
        <ele>529.3</ele>
        <time>2022-04-15T10:14:52Z</time>
      </trkpt>
      <trkpt lat="45.47247" lon="5.76098">
        <ele>529.4</ele>
        <time>2022-04-15T10:14:53Z</time>
      </trkpt>
      <trkpt lat="45.47252" lon="5.76102">
        <ele>529.5</ele>
        <time>2022-04-15T10:14:54Z</time>
      </trkpt>
      <trkpt lat="45.47256" lon="5.76104">
        <ele>529.5</ele>
        <time>2022-04-15T10:14:56Z</time>
      </trkpt>
      <trkpt lat="45.47262" lon="5.76109">
        <ele>529.6</ele>
        <time>2022-04-15T10:14:58Z</time>
      </trkpt>
      <trkpt lat="45.47266" lon="5.76113">
        <ele>529.6</ele>
        <time>2022-04-15T10:14:59Z</time>
      </trkpt>
      <trkpt lat="45.47273" lon="5.76118">
        <ele>529.7</ele>
        <time>2022-04-15T10:15:01Z</time>
      </trkpt>
      <trkpt lat="45.47279" lon="5.76123">
        <ele>529.8</ele>
        <time>2022-04-15T10:15:03Z</time>
      </trkpt>
      <trkpt lat="45.47282" lon="5.76126">
        <ele>529.8</ele>
        <time>2022-04-15T10:15:04Z</time>
      </trkpt>
      <trkpt lat="45.47287" lon="5.76129">
        <ele>529.8</ele>
        <time>2022-04-15T10:15:05Z</time>
      </trkpt>
      <trkpt lat="45.47291" lon="5.76131">
        <ele>529.9</ele>
        <time>2022-04-15T10:15:06Z</time>
      </trkpt>
      <trkpt lat="45.47297" lon="5.76136">
        <ele>529.9</ele>
        <time>2022-04-15T10:15:08Z</time>
      </trkpt>
      <trkpt lat="45.47301" lon="5.76138">
        <ele>530</ele>
        <time>2022-04-15T10:15:09Z</time>
      </trkpt>
      <trkpt lat="45.47305" lon="5.76142">
        <ele>530</ele>
        <time>2022-04-15T10:15:10Z</time>
      </trkpt>
      <trkpt lat="45.4731" lon="5.76145">
        <ele>530.1</ele>
        <time>2022-04-15T10:15:11Z</time>
      </trkpt>
      <trkpt lat="45.47314" lon="5.76149">
        <ele>530.1</ele>
        <time>2022-04-15T10:15:13Z</time>
      </trkpt>
      <trkpt lat="45.47319" lon="5.76154">
        <ele>530.2</ele>
        <time>2022-04-15T10:15:14Z</time>
      </trkpt>
      <trkpt lat="45.47322" lon="5.76158">
        <ele>530.2</ele>
        <time>2022-04-15T10:15:15Z</time>
      </trkpt>
      <trkpt lat="45.47325" lon="5.76161">
        <ele>530.3</ele>
        <time>2022-04-15T10:15:17Z</time>
      </trkpt>
      <trkpt lat="45.47328" lon="5.76164">
        <ele>530.3</ele>
        <time>2022-04-15T10:15:18Z</time>
      </trkpt>
      <trkpt lat="45.47332" lon="5.76168">
        <ele>530.4</ele>
        <time>2022-04-15T10:15:19Z</time>
      </trkpt>
      <trkpt lat="45.47334" lon="5.7617">
        <ele>530.4</ele>
        <time>2022-04-15T10:15:20Z</time>
      </trkpt>
      <trkpt lat="45.47338" lon="5.76173">
        <ele>530.4</ele>
        <time>2022-04-15T10:15:21Z</time>
      </trkpt>
      <trkpt lat="45.47343" lon="5.76177">
        <ele>530.5</ele>
        <time>2022-04-15T10:15:22Z</time>
      </trkpt>
      <trkpt lat="45.47347" lon="5.76179">
        <ele>530.5</ele>
        <time>2022-04-15T10:15:24Z</time>
      </trkpt>
      <trkpt lat="45.47351" lon="5.76182">
        <ele>530.6</ele>
        <time>2022-04-15T10:15:25Z</time>
      </trkpt>
      <trkpt lat="45.47357" lon="5.76185">
        <ele>530.7</ele>
        <time>2022-04-15T10:15:26Z</time>
      </trkpt>
      <trkpt lat="45.4736" lon="5.76188">
        <ele>530.7</ele>
        <time>2022-04-15T10:15:28Z</time>
      </trkpt>
      <trkpt lat="45.47363" lon="5.76191">
        <ele>530.8</ele>
        <time>2022-04-15T10:15:29Z</time>
      </trkpt>
      <trkpt lat="45.47366" lon="5.76194">
        <ele>530.8</ele>
        <time>2022-04-15T10:15:30Z</time>
      </trkpt>
      <trkpt lat="45.47369" lon="5.76196">
        <ele>530.9</ele>
        <time>2022-04-15T10:15:31Z</time>
      </trkpt>
      <trkpt lat="45.47374" lon="5.762">
        <ele>530.9</ele>
        <time>2022-04-15T10:15:32Z</time>
      </trkpt>
      <trkpt lat="45.4738" lon="5.76204">
        <ele>531.1</ele>
        <time>2022-04-15T10:15:34Z</time>
      </trkpt>
      <trkpt lat="45.47383" lon="5.76206">
        <ele>531.2</ele>
        <time>2022-04-15T10:15:35Z</time>
      </trkpt>
      <trkpt lat="45.47386" lon="5.76208">
        <ele>531.2</ele>
        <time>2022-04-15T10:15:36Z</time>
      </trkpt>
      <trkpt lat="45.47389" lon="5.7621">
        <ele>531.3</ele>
        <time>2022-04-15T10:15:37Z</time>
      </trkpt>
      <trkpt lat="45.47392" lon="5.76212">
        <ele>531.4</ele>
        <time>2022-04-15T10:15:38Z</time>
      </trkpt>
      <trkpt lat="45.47396" lon="5.76215">
        <ele>531.6</ele>
        <time>2022-04-15T10:15:39Z</time>
      </trkpt>
      <trkpt lat="45.474" lon="5.76217">
        <ele>531.8</ele>
        <time>2022-04-15T10:15:41Z</time>
      </trkpt>
      <trkpt lat="45.47404" lon="5.7622">
        <ele>531.9</ele>
        <time>2022-04-15T10:15:42Z</time>
      </trkpt>
      <trkpt lat="45.47407" lon="5.76222">
        <ele>532</ele>
        <time>2022-04-15T10:15:43Z</time>
      </trkpt>
      <trkpt lat="45.4741" lon="5.76224">
        <ele>532.1</ele>
        <time>2022-04-15T10:15:44Z</time>
      </trkpt>
      <trkpt lat="45.47413" lon="5.76226">
        <ele>532.3</ele>
        <time>2022-04-15T10:15:46Z</time>
      </trkpt>
      <trkpt lat="45.47418" lon="5.7623">
        <ele>532.5</ele>
        <time>2022-04-15T10:15:48Z</time>
      </trkpt>
      <trkpt lat="45.4742" lon="5.76231">
        <ele>532.6</ele>
        <time>2022-04-15T10:15:49Z</time>
      </trkpt>
      <trkpt lat="45.47424" lon="5.76233">
        <ele>532.7</ele>
        <time>2022-04-15T10:15:50Z</time>
      </trkpt>
      <trkpt lat="45.47428" lon="5.76235">
        <ele>532.9</ele>
        <time>2022-04-15T10:15:52Z</time>
      </trkpt>
      <trkpt lat="45.47434" lon="5.76237">
        <ele>533.1</ele>
        <time>2022-04-15T10:15:54Z</time>
      </trkpt>
      <trkpt lat="45.47438" lon="5.76237">
        <ele>533.2</ele>
        <time>2022-04-15T10:15:55Z</time>
      </trkpt>
      <trkpt lat="45.47441" lon="5.76239">
        <ele>533.4</ele>
        <time>2022-04-15T10:15:57Z</time>
      </trkpt>
      <trkpt lat="45.47444" lon="5.7624">
        <ele>533.5</ele>
        <time>2022-04-15T10:15:58Z</time>
      </trkpt>
      <trkpt lat="45.47448" lon="5.76241">
        <ele>533.6</ele>
        <time>2022-04-15T10:15:59Z</time>
      </trkpt>
      <trkpt lat="45.47452" lon="5.76241">
        <ele>533.8</ele>
        <time>2022-04-15T10:16:00Z</time>
      </trkpt>
      <trkpt lat="45.47456" lon="5.76241">
        <ele>533.9</ele>
        <time>2022-04-15T10:16:02Z</time>
      </trkpt>
      <trkpt lat="45.47459" lon="5.76242">
        <ele>534.1</ele>
        <time>2022-04-15T10:16:03Z</time>
      </trkpt>
      <trkpt lat="45.47464" lon="5.76244">
        <ele>534.3</ele>
        <time>2022-04-15T10:16:04Z</time>
      </trkpt>
      <trkpt lat="45.47467" lon="5.76244">
        <ele>534.4</ele>
        <time>2022-04-15T10:16:06Z</time>
      </trkpt>
      <trkpt lat="45.4747" lon="5.76245">
        <ele>534.4</ele>
        <time>2022-04-15T10:16:07Z</time>
      </trkpt>
      <trkpt lat="45.47475" lon="5.76245">
        <ele>534.5</ele>
        <time>2022-04-15T10:16:09Z</time>
      </trkpt>
      <trkpt lat="45.4748" lon="5.76246">
        <ele>534.6</ele>
        <time>2022-04-15T10:16:10Z</time>
      </trkpt>
      <trkpt lat="45.47482" lon="5.76246">
        <ele>534.7</ele>
        <time>2022-04-15T10:16:11Z</time>
      </trkpt>
      <trkpt lat="45.47485" lon="5.76246">
        <ele>534.8</ele>
        <time>2022-04-15T10:16:13Z</time>
      </trkpt>
      <trkpt lat="45.47489" lon="5.76246">
        <ele>534.8</ele>
        <time>2022-04-15T10:16:14Z</time>
      </trkpt>
      <trkpt lat="45.47492" lon="5.76247">
        <ele>534.9</ele>
        <time>2022-04-15T10:16:16Z</time>
      </trkpt>
      <trkpt lat="45.47497" lon="5.76247">
        <ele>535.1</ele>
        <time>2022-04-15T10:16:18Z</time>
      </trkpt>
      <trkpt lat="45.47501" lon="5.76247">
        <ele>535.3</ele>
        <time>2022-04-15T10:16:19Z</time>
      </trkpt>
      <trkpt lat="45.47505" lon="5.76246">
        <ele>535.4</ele>
        <time>2022-04-15T10:16:21Z</time>
      </trkpt>
      <trkpt lat="45.47509" lon="5.76247">
        <ele>535.6</ele>
        <time>2022-04-15T10:16:23Z</time>
      </trkpt>
      <trkpt lat="45.47514" lon="5.76248">
        <ele>535.8</ele>
        <time>2022-04-15T10:16:25Z</time>
      </trkpt>
      <trkpt lat="45.47517" lon="5.76248">
        <ele>535.9</ele>
        <time>2022-04-15T10:16:26Z</time>
      </trkpt>
      <trkpt lat="45.4752" lon="5.76248">
        <ele>536</ele>
        <time>2022-04-15T10:16:27Z</time>
      </trkpt>
      <trkpt lat="45.47522" lon="5.76249">
        <ele>536.1</ele>
        <time>2022-04-15T10:16:28Z</time>
      </trkpt>
      <trkpt lat="45.47527" lon="5.76249">
        <ele>536.3</ele>
        <time>2022-04-15T10:16:30Z</time>
      </trkpt>
      <trkpt lat="45.47529" lon="5.7625">
        <ele>536.4</ele>
        <time>2022-04-15T10:16:31Z</time>
      </trkpt>
      <trkpt lat="45.47534" lon="5.7625">
        <ele>536.6</ele>
        <time>2022-04-15T10:16:33Z</time>
      </trkpt>
      <trkpt lat="45.47538" lon="5.76251">
        <ele>536.7</ele>
        <time>2022-04-15T10:16:34Z</time>
      </trkpt>
      <trkpt lat="45.47539" lon="5.76252">
        <ele>536.8</ele>
        <time>2022-04-15T10:16:35Z</time>
      </trkpt>
      <trkpt lat="45.47544" lon="5.76252">
        <ele>537</ele>
        <time>2022-04-15T10:16:37Z</time>
      </trkpt>
      <trkpt lat="45.47547" lon="5.76253">
        <ele>537.1</ele>
        <time>2022-04-15T10:16:38Z</time>
      </trkpt>
      <trkpt lat="45.47549" lon="5.76253">
        <ele>537.2</ele>
        <time>2022-04-15T10:16:39Z</time>
      </trkpt>
      <trkpt lat="45.47552" lon="5.76254">
        <ele>537.3</ele>
        <time>2022-04-15T10:16:40Z</time>
      </trkpt>
      <trkpt lat="45.47553" lon="5.76254">
        <ele>537.4</ele>
        <time>2022-04-15T10:16:41Z</time>
      </trkpt>
      <trkpt lat="45.47558" lon="5.76255">
        <ele>537.6</ele>
        <time>2022-04-15T10:16:42Z</time>
      </trkpt>
      <trkpt lat="45.4756" lon="5.76256">
        <ele>537.7</ele>
        <time>2022-04-15T10:16:43Z</time>
      </trkpt>
      <trkpt lat="45.47564" lon="5.76257">
        <ele>537.8</ele>
        <time>2022-04-15T10:16:45Z</time>
      </trkpt>
      <trkpt lat="45.47571" lon="5.76257">
        <ele>538.1</ele>
        <time>2022-04-15T10:16:47Z</time>
      </trkpt>
      <trkpt lat="45.47576" lon="5.76258">
        <ele>538.3</ele>
        <time>2022-04-15T10:16:49Z</time>
      </trkpt>
      <trkpt lat="45.47579" lon="5.76259">
        <ele>538.4</ele>
        <time>2022-04-15T10:16:51Z</time>
      </trkpt>
      <trkpt lat="45.47582" lon="5.76259">
        <ele>538.5</ele>
        <time>2022-04-15T10:16:52Z</time>
      </trkpt>
      <trkpt lat="45.47587" lon="5.76259">
        <ele>538.6</ele>
        <time>2022-04-15T10:16:53Z</time>
      </trkpt>
      <trkpt lat="45.4759" lon="5.7626">
        <ele>538.8</ele>
        <time>2022-04-15T10:16:55Z</time>
      </trkpt>
      <trkpt lat="45.47595" lon="5.76261">
        <ele>538.9</ele>
        <time>2022-04-15T10:16:57Z</time>
      </trkpt>
      <trkpt lat="45.47598" lon="5.76261">
        <ele>539</ele>
        <time>2022-04-15T10:16:58Z</time>
      </trkpt>
      <trkpt lat="45.47601" lon="5.76261">
        <ele>539.1</ele>
        <time>2022-04-15T10:16:59Z</time>
      </trkpt>
      <trkpt lat="45.47604" lon="5.76262">
        <ele>539.2</ele>
        <time>2022-04-15T10:17:00Z</time>
      </trkpt>
      <trkpt lat="45.47607" lon="5.76261">
        <ele>539.3</ele>
        <time>2022-04-15T10:17:02Z</time>
      </trkpt>
      <trkpt lat="45.47612" lon="5.76263">
        <ele>539.5</ele>
        <time>2022-04-15T10:17:04Z</time>
      </trkpt>
      <trkpt lat="45.47616" lon="5.76263">
        <ele>539.6</ele>
        <time>2022-04-15T10:17:05Z</time>
      </trkpt>
      <trkpt lat="45.47619" lon="5.76265">
        <ele>539.7</ele>
        <time>2022-04-15T10:17:07Z</time>
      </trkpt>
      <trkpt lat="45.47624" lon="5.76265">
        <ele>539.9</ele>
        <time>2022-04-15T10:17:08Z</time>
      </trkpt>
      <trkpt lat="45.47628" lon="5.76265">
        <ele>540</ele>
        <time>2022-04-15T10:17:10Z</time>
      </trkpt>
      <trkpt lat="45.4763" lon="5.76265">
        <ele>540</ele>
        <time>2022-04-15T10:17:11Z</time>
      </trkpt>
      <trkpt lat="45.47632" lon="5.76265">
        <ele>540.1</ele>
        <time>2022-04-15T10:17:12Z</time>
      </trkpt>
      <trkpt lat="45.47637" lon="5.76265">
        <ele>540.2</ele>
        <time>2022-04-15T10:17:13Z</time>
      </trkpt>
      <trkpt lat="45.47641" lon="5.76265">
        <ele>540.4</ele>
        <time>2022-04-15T10:17:15Z</time>
      </trkpt>
      <trkpt lat="45.47644" lon="5.76264">
        <ele>540.5</ele>
        <time>2022-04-15T10:17:16Z</time>
      </trkpt>
      <trkpt lat="45.47648" lon="5.76265">
        <ele>540.6</ele>
        <time>2022-04-15T10:17:18Z</time>
      </trkpt>
      <trkpt lat="45.47651" lon="5.76265">
        <ele>540.7</ele>
        <time>2022-04-15T10:17:19Z</time>
      </trkpt>
      <trkpt lat="45.47654" lon="5.76267">
        <ele>540.8</ele>
        <time>2022-04-15T10:17:20Z</time>
      </trkpt>
      <trkpt lat="45.47659" lon="5.76268">
        <ele>541</ele>
        <time>2022-04-15T10:17:21Z</time>
      </trkpt>
      <trkpt lat="45.47662" lon="5.76268">
        <ele>541.1</ele>
        <time>2022-04-15T10:17:22Z</time>
      </trkpt>
      <trkpt lat="45.47666" lon="5.76268">
        <ele>541.2</ele>
        <time>2022-04-15T10:17:24Z</time>
      </trkpt>
      <trkpt lat="45.47668" lon="5.76268">
        <ele>541.3</ele>
        <time>2022-04-15T10:17:25Z</time>
      </trkpt>
      <trkpt lat="45.47674" lon="5.76269">
        <ele>541.4</ele>
        <time>2022-04-15T10:17:27Z</time>
      </trkpt>
      <trkpt lat="45.47677" lon="5.7627">
        <ele>541.5</ele>
        <time>2022-04-15T10:17:28Z</time>
      </trkpt>
      <trkpt lat="45.47683" lon="5.76271">
        <ele>541.7</ele>
        <time>2022-04-15T10:17:30Z</time>
      </trkpt>
      <trkpt lat="45.47688" lon="5.76271">
        <ele>541.9</ele>
        <time>2022-04-15T10:17:32Z</time>
      </trkpt>
      <trkpt lat="45.47692" lon="5.7627">
        <ele>542</ele>
        <time>2022-04-15T10:17:33Z</time>
      </trkpt>
      <trkpt lat="45.47697" lon="5.7627">
        <ele>542.1</ele>
        <time>2022-04-15T10:17:34Z</time>
      </trkpt>
      <trkpt lat="45.47698" lon="5.7627">
        <ele>542.2</ele>
        <time>2022-04-15T10:17:35Z</time>
      </trkpt>
      <trkpt lat="45.47703" lon="5.7627">
        <ele>542.3</ele>
        <time>2022-04-15T10:17:37Z</time>
      </trkpt>
      <trkpt lat="45.47705" lon="5.76269">
        <ele>542.4</ele>
        <time>2022-04-15T10:17:38Z</time>
      </trkpt>
      <trkpt lat="45.47707" lon="5.76269">
        <ele>542.4</ele>
        <time>2022-04-15T10:17:39Z</time>
      </trkpt>
      <trkpt lat="45.47712" lon="5.76269">
        <ele>542.6</ele>
        <time>2022-04-15T10:17:40Z</time>
      </trkpt>
      <trkpt lat="45.47715" lon="5.76269">
        <ele>542.7</ele>
        <time>2022-04-15T10:17:41Z</time>
      </trkpt>
      <trkpt lat="45.47719" lon="5.76268">
        <ele>542.8</ele>
        <time>2022-04-15T10:17:43Z</time>
      </trkpt>
      <trkpt lat="45.47722" lon="5.76268">
        <ele>542.9</ele>
        <time>2022-04-15T10:17:44Z</time>
      </trkpt>
      <trkpt lat="45.47728" lon="5.76269">
        <ele>543.1</ele>
        <time>2022-04-15T10:17:46Z</time>
      </trkpt>
      <trkpt lat="45.47731" lon="5.76269">
        <ele>543.1</ele>
        <time>2022-04-15T10:17:47Z</time>
      </trkpt>
      <trkpt lat="45.47736" lon="5.7627">
        <ele>543.2</ele>
        <time>2022-04-15T10:17:48Z</time>
      </trkpt>
      <trkpt lat="45.47739" lon="5.76269">
        <ele>543.3</ele>
        <time>2022-04-15T10:17:50Z</time>
      </trkpt>
      <trkpt lat="45.47744" lon="5.76269">
        <ele>543.4</ele>
        <time>2022-04-15T10:17:51Z</time>
      </trkpt>
      <trkpt lat="45.47748" lon="5.76268">
        <ele>543.5</ele>
        <time>2022-04-15T10:17:52Z</time>
      </trkpt>
      <trkpt lat="45.47751" lon="5.76267">
        <ele>543.5</ele>
        <time>2022-04-15T10:17:54Z</time>
      </trkpt>
      <trkpt lat="45.47755" lon="5.76267">
        <ele>543.6</ele>
        <time>2022-04-15T10:17:55Z</time>
      </trkpt>
      <trkpt lat="45.47758" lon="5.76267">
        <ele>543.6</ele>
        <time>2022-04-15T10:17:56Z</time>
      </trkpt>
      <trkpt lat="45.47761" lon="5.76266">
        <ele>543.7</ele>
        <time>2022-04-15T10:17:57Z</time>
      </trkpt>
      <trkpt lat="45.47765" lon="5.76265">
        <ele>543.7</ele>
        <time>2022-04-15T10:17:58Z</time>
      </trkpt>
      <trkpt lat="45.47771" lon="5.76264">
        <ele>543.8</ele>
        <time>2022-04-15T10:17:59Z</time>
      </trkpt>
      <trkpt lat="45.47775" lon="5.76263">
        <ele>543.8</ele>
        <time>2022-04-15T10:18:01Z</time>
      </trkpt>
      <trkpt lat="45.47778" lon="5.76263">
        <ele>543.9</ele>
        <time>2022-04-15T10:18:02Z</time>
      </trkpt>
      <trkpt lat="45.47784" lon="5.76262">
        <ele>543.9</ele>
        <time>2022-04-15T10:18:04Z</time>
      </trkpt>
      <trkpt lat="45.47792" lon="5.76261">
        <ele>544.1</ele>
        <time>2022-04-15T10:18:06Z</time>
      </trkpt>
      <trkpt lat="45.47794" lon="5.76261">
        <ele>544.1</ele>
        <time>2022-04-15T10:18:07Z</time>
      </trkpt>
      <trkpt lat="45.47798" lon="5.76261">
        <ele>544.2</ele>
        <time>2022-04-15T10:18:08Z</time>
      </trkpt>
      <trkpt lat="45.47802" lon="5.7626">
        <ele>544.2</ele>
        <time>2022-04-15T10:18:09Z</time>
      </trkpt>
      <trkpt lat="45.47806" lon="5.76259">
        <ele>544.3</ele>
        <time>2022-04-15T10:18:10Z</time>
      </trkpt>
      <trkpt lat="45.47811" lon="5.7626">
        <ele>544.4</ele>
        <time>2022-04-15T10:18:11Z</time>
      </trkpt>
      <trkpt lat="45.47817" lon="5.76259">
        <ele>544.5</ele>
        <time>2022-04-15T10:18:13Z</time>
      </trkpt>
      <trkpt lat="45.47822" lon="5.76258">
        <ele>544.5</ele>
        <time>2022-04-15T10:18:14Z</time>
      </trkpt>
      <trkpt lat="45.47825" lon="5.76257">
        <ele>544.6</ele>
        <time>2022-04-15T10:18:15Z</time>
      </trkpt>
      <trkpt lat="45.4783" lon="5.76257">
        <ele>544.7</ele>
        <time>2022-04-15T10:18:16Z</time>
      </trkpt>
      <trkpt lat="45.47835" lon="5.76257">
        <ele>544.7</ele>
        <time>2022-04-15T10:18:18Z</time>
      </trkpt>
      <trkpt lat="45.4784" lon="5.76256">
        <ele>544.9</ele>
        <time>2022-04-15T10:18:20Z</time>
      </trkpt>
      <trkpt lat="45.47844" lon="5.76256">
        <ele>545</ele>
        <time>2022-04-15T10:18:21Z</time>
      </trkpt>
      <trkpt lat="45.47848" lon="5.76255">
        <ele>545</ele>
        <time>2022-04-15T10:18:22Z</time>
      </trkpt>
      <trkpt lat="45.47854" lon="5.76254">
        <ele>545.2</ele>
        <time>2022-04-15T10:18:24Z</time>
      </trkpt>
      <trkpt lat="45.47858" lon="5.76254">
        <ele>545.3</ele>
        <time>2022-04-15T10:18:25Z</time>
      </trkpt>
      <trkpt lat="45.47865" lon="5.76255">
        <ele>545.5</ele>
        <time>2022-04-15T10:18:27Z</time>
      </trkpt>
      <trkpt lat="45.4787" lon="5.76255">
        <ele>545.6</ele>
        <time>2022-04-15T10:18:28Z</time>
      </trkpt>
      <trkpt lat="45.47874" lon="5.76255">
        <ele>545.7</ele>
        <time>2022-04-15T10:18:30Z</time>
      </trkpt>
      <trkpt lat="45.47877" lon="5.76254">
        <ele>545.8</ele>
        <time>2022-04-15T10:18:31Z</time>
      </trkpt>
      <trkpt lat="45.47884" lon="5.76253">
        <ele>546</ele>
        <time>2022-04-15T10:18:33Z</time>
      </trkpt>
      <trkpt lat="45.4789" lon="5.76253">
        <ele>546.1</ele>
        <time>2022-04-15T10:18:35Z</time>
      </trkpt>
      <trkpt lat="45.47893" lon="5.76253">
        <ele>546.2</ele>
        <time>2022-04-15T10:18:36Z</time>
      </trkpt>
      <trkpt lat="45.47897" lon="5.76252">
        <ele>546.3</ele>
        <time>2022-04-15T10:18:37Z</time>
      </trkpt>
      <trkpt lat="45.479" lon="5.76251">
        <ele>546.4</ele>
        <time>2022-04-15T10:18:38Z</time>
      </trkpt>
      <trkpt lat="45.47903" lon="5.76251">
        <ele>546.5</ele>
        <time>2022-04-15T10:18:39Z</time>
      </trkpt>
      <trkpt lat="45.47906" lon="5.76251">
        <ele>546.5</ele>
        <time>2022-04-15T10:18:40Z</time>
      </trkpt>
      <trkpt lat="45.47909" lon="5.76251">
        <ele>546.6</ele>
        <time>2022-04-15T10:18:41Z</time>
      </trkpt>
      <trkpt lat="45.47913" lon="5.7625">
        <ele>546.7</ele>
        <time>2022-04-15T10:18:42Z</time>
      </trkpt>
      <trkpt lat="45.47916" lon="5.76249">
        <ele>546.8</ele>
        <time>2022-04-15T10:18:43Z</time>
      </trkpt>
      <trkpt lat="45.4792" lon="5.76248">
        <ele>546.8</ele>
        <time>2022-04-15T10:18:44Z</time>
      </trkpt>
      <trkpt lat="45.47924" lon="5.76249">
        <ele>546.9</ele>
        <time>2022-04-15T10:18:45Z</time>
      </trkpt>
      <trkpt lat="45.47928" lon="5.76248">
        <ele>547</ele>
        <time>2022-04-15T10:18:46Z</time>
      </trkpt>
      <trkpt lat="45.47932" lon="5.76248">
        <ele>547.1</ele>
        <time>2022-04-15T10:18:48Z</time>
      </trkpt>
      <trkpt lat="45.47936" lon="5.76247">
        <ele>547.1</ele>
        <time>2022-04-15T10:18:49Z</time>
      </trkpt>
      <trkpt lat="45.47943" lon="5.76247">
        <ele>547.3</ele>
        <time>2022-04-15T10:18:51Z</time>
      </trkpt>
      <trkpt lat="45.47947" lon="5.76246">
        <ele>547.4</ele>
        <time>2022-04-15T10:18:52Z</time>
      </trkpt>
      <trkpt lat="45.47953" lon="5.76245">
        <ele>547.4</ele>
        <time>2022-04-15T10:18:54Z</time>
      </trkpt>
      <trkpt lat="45.47956" lon="5.76246">
        <ele>547.4</ele>
        <time>2022-04-15T10:18:55Z</time>
      </trkpt>
      <trkpt lat="45.47959" lon="5.76245">
        <ele>547.4</ele>
        <time>2022-04-15T10:18:56Z</time>
      </trkpt>
      <trkpt lat="45.47963" lon="5.76246">
        <ele>547.4</ele>
        <time>2022-04-15T10:18:57Z</time>
      </trkpt>
      <trkpt lat="45.47969" lon="5.76247">
        <ele>547.3</ele>
        <time>2022-04-15T10:18:58Z</time>
      </trkpt>
      <trkpt lat="45.47974" lon="5.76248">
        <ele>547.3</ele>
        <time>2022-04-15T10:19:00Z</time>
      </trkpt>
      <trkpt lat="45.47979" lon="5.7625">
        <ele>547.2</ele>
        <time>2022-04-15T10:19:01Z</time>
      </trkpt>
      <trkpt lat="45.47986" lon="5.76254">
        <ele>547.1</ele>
        <time>2022-04-15T10:19:02Z</time>
      </trkpt>
      <trkpt lat="45.47991" lon="5.76261">
        <ele>547</ele>
        <time>2022-04-15T10:19:04Z</time>
      </trkpt>
      <trkpt lat="45.47995" lon="5.76266">
        <ele>546.9</ele>
        <time>2022-04-15T10:19:05Z</time>
      </trkpt>
      <trkpt lat="45.47999" lon="5.76269">
        <ele>546.8</ele>
        <time>2022-04-15T10:19:06Z</time>
      </trkpt>
      <trkpt lat="45.48002" lon="5.76274">
        <ele>546.7</ele>
        <time>2022-04-15T10:19:07Z</time>
      </trkpt>
      <trkpt lat="45.48006" lon="5.7628">
        <ele>546.6</ele>
        <time>2022-04-15T10:19:08Z</time>
      </trkpt>
      <trkpt lat="45.48009" lon="5.76285">
        <ele>546.4</ele>
        <time>2022-04-15T10:19:09Z</time>
      </trkpt>
      <trkpt lat="45.48012" lon="5.76292">
        <ele>546.3</ele>
        <time>2022-04-15T10:19:10Z</time>
      </trkpt>
      <trkpt lat="45.48014" lon="5.76299">
        <ele>546.1</ele>
        <time>2022-04-15T10:19:11Z</time>
      </trkpt>
      <trkpt lat="45.48017" lon="5.76307">
        <ele>546</ele>
        <time>2022-04-15T10:19:12Z</time>
      </trkpt>
      <trkpt lat="45.48019" lon="5.76314">
        <ele>545.8</ele>
        <time>2022-04-15T10:19:13Z</time>
      </trkpt>
      <trkpt lat="45.48022" lon="5.76322">
        <ele>545.7</ele>
        <time>2022-04-15T10:19:14Z</time>
      </trkpt>
      <trkpt lat="45.48025" lon="5.76329">
        <ele>545.6</ele>
        <time>2022-04-15T10:19:15Z</time>
      </trkpt>
      <trkpt lat="45.48027" lon="5.76337">
        <ele>545.4</ele>
        <time>2022-04-15T10:19:16Z</time>
      </trkpt>
      <trkpt lat="45.4803" lon="5.76345">
        <ele>545.3</ele>
        <time>2022-04-15T10:19:17Z</time>
      </trkpt>
      <trkpt lat="45.48033" lon="5.76352">
        <ele>545.2</ele>
        <time>2022-04-15T10:19:18Z</time>
      </trkpt>
      <trkpt lat="45.48036" lon="5.7636">
        <ele>545.1</ele>
        <time>2022-04-15T10:19:19Z</time>
      </trkpt>
      <trkpt lat="45.48039" lon="5.76367">
        <ele>545</ele>
        <time>2022-04-15T10:19:20Z</time>
      </trkpt>
      <trkpt lat="45.48042" lon="5.76375">
        <ele>544.9</ele>
        <time>2022-04-15T10:19:21Z</time>
      </trkpt>
      <trkpt lat="45.48044" lon="5.76383">
        <ele>544.8</ele>
        <time>2022-04-15T10:19:22Z</time>
      </trkpt>
      <trkpt lat="45.48047" lon="5.7639">
        <ele>544.7</ele>
        <time>2022-04-15T10:19:23Z</time>
      </trkpt>
      <trkpt lat="45.48049" lon="5.76398">
        <ele>544.6</ele>
        <time>2022-04-15T10:19:24Z</time>
      </trkpt>
      <trkpt lat="45.48052" lon="5.76406">
        <ele>544.4</ele>
        <time>2022-04-15T10:19:25Z</time>
      </trkpt>
      <trkpt lat="45.48054" lon="5.76414">
        <ele>544.3</ele>
        <time>2022-04-15T10:19:26Z</time>
      </trkpt>
      <trkpt lat="45.48057" lon="5.76421">
        <ele>544.1</ele>
        <time>2022-04-15T10:19:27Z</time>
      </trkpt>
      <trkpt lat="45.4806" lon="5.76429">
        <ele>544</ele>
        <time>2022-04-15T10:19:28Z</time>
      </trkpt>
      <trkpt lat="45.48062" lon="5.76437">
        <ele>543.8</ele>
        <time>2022-04-15T10:19:29Z</time>
      </trkpt>
      <trkpt lat="45.48065" lon="5.76445">
        <ele>543.7</ele>
        <time>2022-04-15T10:19:30Z</time>
      </trkpt>
      <trkpt lat="45.48067" lon="5.76453">
        <ele>543.6</ele>
        <time>2022-04-15T10:19:31Z</time>
      </trkpt>
      <trkpt lat="45.4807" lon="5.76462">
        <ele>543.5</ele>
        <time>2022-04-15T10:19:32Z</time>
      </trkpt>
      <trkpt lat="45.48072" lon="5.76471">
        <ele>543.4</ele>
        <time>2022-04-15T10:19:33Z</time>
      </trkpt>
      <trkpt lat="45.48075" lon="5.76479">
        <ele>543.4</ele>
        <time>2022-04-15T10:19:34Z</time>
      </trkpt>
      <trkpt lat="45.48078" lon="5.76486">
        <ele>543.3</ele>
        <time>2022-04-15T10:19:35Z</time>
      </trkpt>
      <trkpt lat="45.48081" lon="5.76494">
        <ele>543.2</ele>
        <time>2022-04-15T10:19:36Z</time>
      </trkpt>
      <trkpt lat="45.48084" lon="5.765">
        <ele>543.2</ele>
        <time>2022-04-15T10:19:37Z</time>
      </trkpt>
      <trkpt lat="45.48088" lon="5.76506">
        <ele>543.2</ele>
        <time>2022-04-15T10:19:38Z</time>
      </trkpt>
      <trkpt lat="45.48092" lon="5.76512">
        <ele>543.1</ele>
        <time>2022-04-15T10:19:39Z</time>
      </trkpt>
      <trkpt lat="45.48096" lon="5.76518">
        <ele>543.1</ele>
        <time>2022-04-15T10:19:40Z</time>
      </trkpt>
      <trkpt lat="45.48101" lon="5.76522">
        <ele>543.1</ele>
        <time>2022-04-15T10:19:41Z</time>
      </trkpt>
      <trkpt lat="45.48106" lon="5.76526">
        <ele>543</ele>
        <time>2022-04-15T10:19:42Z</time>
      </trkpt>
      <trkpt lat="45.48111" lon="5.76529">
        <ele>543</ele>
        <time>2022-04-15T10:19:43Z</time>
      </trkpt>
      <trkpt lat="45.48116" lon="5.76532">
        <ele>543</ele>
        <time>2022-04-15T10:19:44Z</time>
      </trkpt>
      <trkpt lat="45.48121" lon="5.76535">
        <ele>543</ele>
        <time>2022-04-15T10:19:45Z</time>
      </trkpt>
      <trkpt lat="45.48126" lon="5.76537">
        <ele>543</ele>
        <time>2022-04-15T10:19:46Z</time>
      </trkpt>
      <trkpt lat="45.4813" lon="5.76539">
        <ele>543</ele>
        <time>2022-04-15T10:19:47Z</time>
      </trkpt>
      <trkpt lat="45.48135" lon="5.76541">
        <ele>543</ele>
        <time>2022-04-15T10:19:48Z</time>
      </trkpt>
      <trkpt lat="45.4814" lon="5.76543">
        <ele>543</ele>
        <time>2022-04-15T10:19:49Z</time>
      </trkpt>
      <trkpt lat="45.48145" lon="5.76545">
        <ele>543.1</ele>
        <time>2022-04-15T10:19:50Z</time>
      </trkpt>
      <trkpt lat="45.4815" lon="5.76547">
        <ele>543.1</ele>
        <time>2022-04-15T10:19:51Z</time>
      </trkpt>
      <trkpt lat="45.48155" lon="5.76549">
        <ele>543.1</ele>
        <time>2022-04-15T10:19:52Z</time>
      </trkpt>
      <trkpt lat="45.48159" lon="5.7655">
        <ele>543.2</ele>
        <time>2022-04-15T10:19:53Z</time>
      </trkpt>
      <trkpt lat="45.48164" lon="5.76552">
        <ele>543.2</ele>
        <time>2022-04-15T10:19:54Z</time>
      </trkpt>
      <trkpt lat="45.48168" lon="5.76554">
        <ele>543.2</ele>
        <time>2022-04-15T10:19:55Z</time>
      </trkpt>
      <trkpt lat="45.48173" lon="5.76555">
        <ele>543.2</ele>
        <time>2022-04-15T10:19:56Z</time>
      </trkpt>
      <trkpt lat="45.48177" lon="5.76556">
        <ele>543.2</ele>
        <time>2022-04-15T10:19:57Z</time>
      </trkpt>
      <trkpt lat="45.48182" lon="5.76557">
        <ele>543.2</ele>
        <time>2022-04-15T10:19:58Z</time>
      </trkpt>
      <trkpt lat="45.48186" lon="5.76558">
        <ele>543.2</ele>
        <time>2022-04-15T10:19:59Z</time>
      </trkpt>
      <trkpt lat="45.48191" lon="5.7656">
        <ele>543.2</ele>
        <time>2022-04-15T10:20:00Z</time>
      </trkpt>
      <trkpt lat="45.48195" lon="5.76562">
        <ele>543.2</ele>
        <time>2022-04-15T10:20:01Z</time>
      </trkpt>
      <trkpt lat="45.48198" lon="5.76563">
        <ele>543.2</ele>
        <time>2022-04-15T10:20:02Z</time>
      </trkpt>
      <trkpt lat="45.48202" lon="5.76565">
        <ele>543.2</ele>
        <time>2022-04-15T10:20:03Z</time>
      </trkpt>
      <trkpt lat="45.48207" lon="5.76567">
        <ele>543.2</ele>
        <time>2022-04-15T10:20:04Z</time>
      </trkpt>
      <trkpt lat="45.48212" lon="5.76569">
        <ele>543.2</ele>
        <time>2022-04-15T10:20:05Z</time>
      </trkpt>
      <trkpt lat="45.48217" lon="5.76572">
        <ele>543.2</ele>
        <time>2022-04-15T10:20:06Z</time>
      </trkpt>
      <trkpt lat="45.48221" lon="5.76574">
        <ele>543.3</ele>
        <time>2022-04-15T10:20:07Z</time>
      </trkpt>
      <trkpt lat="45.48225" lon="5.76576">
        <ele>543.3</ele>
        <time>2022-04-15T10:20:08Z</time>
      </trkpt>
      <trkpt lat="45.48229" lon="5.76578">
        <ele>543.3</ele>
        <time>2022-04-15T10:20:09Z</time>
      </trkpt>
      <trkpt lat="45.48234" lon="5.7658">
        <ele>543.3</ele>
        <time>2022-04-15T10:20:10Z</time>
      </trkpt>
      <trkpt lat="45.48237" lon="5.76582">
        <ele>543.3</ele>
        <time>2022-04-15T10:20:11Z</time>
      </trkpt>
      <trkpt lat="45.48239" lon="5.76585">
        <ele>543.3</ele>
        <time>2022-04-15T10:20:12Z</time>
      </trkpt>
      <trkpt lat="45.48241" lon="5.76586">
        <ele>543.3</ele>
        <time>2022-04-15T10:20:13Z</time>
      </trkpt>
      <trkpt lat="45.48247" lon="5.76588">
        <ele>543.4</ele>
        <time>2022-04-15T10:20:14Z</time>
      </trkpt>
      <trkpt lat="45.48252" lon="5.76592">
        <ele>543.4</ele>
        <time>2022-04-15T10:20:15Z</time>
      </trkpt>
      <trkpt lat="45.4826" lon="5.76597">
        <ele>543.4</ele>
        <time>2022-04-15T10:20:17Z</time>
      </trkpt>
      <trkpt lat="45.48265" lon="5.76601">
        <ele>543.5</ele>
        <time>2022-04-15T10:20:18Z</time>
      </trkpt>
      <trkpt lat="45.48273" lon="5.76607">
        <ele>543.5</ele>
        <time>2022-04-15T10:20:20Z</time>
      </trkpt>
      <trkpt lat="45.48277" lon="5.76611">
        <ele>543.5</ele>
        <time>2022-04-15T10:20:21Z</time>
      </trkpt>
      <trkpt lat="45.48281" lon="5.76614">
        <ele>543.5</ele>
        <time>2022-04-15T10:20:22Z</time>
      </trkpt>
      <trkpt lat="45.48285" lon="5.76618">
        <ele>543.6</ele>
        <time>2022-04-15T10:20:23Z</time>
      </trkpt>
      <trkpt lat="45.48288" lon="5.76622">
        <ele>543.6</ele>
        <time>2022-04-15T10:20:24Z</time>
      </trkpt>
      <trkpt lat="45.48292" lon="5.76625">
        <ele>543.6</ele>
        <time>2022-04-15T10:20:25Z</time>
      </trkpt>
      <trkpt lat="45.48296" lon="5.76629">
        <ele>543.6</ele>
        <time>2022-04-15T10:20:26Z</time>
      </trkpt>
      <trkpt lat="45.483" lon="5.76633">
        <ele>543.7</ele>
        <time>2022-04-15T10:20:27Z</time>
      </trkpt>
      <trkpt lat="45.48303" lon="5.76637">
        <ele>543.7</ele>
        <time>2022-04-15T10:20:28Z</time>
      </trkpt>
      <trkpt lat="45.48308" lon="5.76642">
        <ele>543.7</ele>
        <time>2022-04-15T10:20:29Z</time>
      </trkpt>
      <trkpt lat="45.48314" lon="5.76647">
        <ele>543.7</ele>
        <time>2022-04-15T10:20:31Z</time>
      </trkpt>
      <trkpt lat="45.48318" lon="5.7665">
        <ele>543.7</ele>
        <time>2022-04-15T10:20:32Z</time>
      </trkpt>
      <trkpt lat="45.48322" lon="5.76653">
        <ele>543.7</ele>
        <time>2022-04-15T10:20:33Z</time>
      </trkpt>
      <trkpt lat="45.48326" lon="5.76657">
        <ele>543.7</ele>
        <time>2022-04-15T10:20:34Z</time>
      </trkpt>
      <trkpt lat="45.48329" lon="5.76661">
        <ele>543.7</ele>
        <time>2022-04-15T10:20:35Z</time>
      </trkpt>
      <trkpt lat="45.48333" lon="5.76665">
        <ele>543.7</ele>
        <time>2022-04-15T10:20:36Z</time>
      </trkpt>
      <trkpt lat="45.48337" lon="5.76669">
        <ele>543.8</ele>
        <time>2022-04-15T10:20:37Z</time>
      </trkpt>
      <trkpt lat="45.48341" lon="5.76673">
        <ele>543.8</ele>
        <time>2022-04-15T10:20:38Z</time>
      </trkpt>
      <trkpt lat="45.48345" lon="5.76676">
        <ele>543.8</ele>
        <time>2022-04-15T10:20:39Z</time>
      </trkpt>
      <trkpt lat="45.48348" lon="5.7668">
        <ele>543.8</ele>
        <time>2022-04-15T10:20:40Z</time>
      </trkpt>
      <trkpt lat="45.48352" lon="5.76683">
        <ele>543.8</ele>
        <time>2022-04-15T10:20:41Z</time>
      </trkpt>
      <trkpt lat="45.48356" lon="5.76687">
        <ele>543.9</ele>
        <time>2022-04-15T10:20:42Z</time>
      </trkpt>
      <trkpt lat="45.4836" lon="5.7669">
        <ele>543.9</ele>
        <time>2022-04-15T10:20:43Z</time>
      </trkpt>
      <trkpt lat="45.48364" lon="5.76693">
        <ele>543.9</ele>
        <time>2022-04-15T10:20:44Z</time>
      </trkpt>
      <trkpt lat="45.48366" lon="5.76695">
        <ele>544</ele>
        <time>2022-04-15T10:20:45Z</time>
      </trkpt>
      <trkpt lat="45.4837" lon="5.76698">
        <ele>544</ele>
        <time>2022-04-15T10:20:46Z</time>
      </trkpt>
      <trkpt lat="45.48375" lon="5.76702">
        <ele>544</ele>
        <time>2022-04-15T10:20:47Z</time>
      </trkpt>
      <trkpt lat="45.48378" lon="5.76704">
        <ele>544.1</ele>
        <time>2022-04-15T10:20:48Z</time>
      </trkpt>
      <trkpt lat="45.48382" lon="5.76708">
        <ele>544.1</ele>
        <time>2022-04-15T10:20:49Z</time>
      </trkpt>
      <trkpt lat="45.48384" lon="5.76709">
        <ele>544.1</ele>
        <time>2022-04-15T10:20:50Z</time>
      </trkpt>
      <trkpt lat="45.48388" lon="5.76713">
        <ele>544.2</ele>
        <time>2022-04-15T10:20:51Z</time>
      </trkpt>
      <trkpt lat="45.48392" lon="5.76715">
        <ele>544.2</ele>
        <time>2022-04-15T10:20:52Z</time>
      </trkpt>
      <trkpt lat="45.48397" lon="5.76717">
        <ele>544.3</ele>
        <time>2022-04-15T10:20:53Z</time>
      </trkpt>
      <trkpt lat="45.48401" lon="5.76717">
        <ele>544.4</ele>
        <time>2022-04-15T10:20:54Z</time>
      </trkpt>
      <trkpt lat="45.48406" lon="5.76718">
        <ele>544.4</ele>
        <time>2022-04-15T10:20:55Z</time>
      </trkpt>
      <trkpt lat="45.4841" lon="5.76719">
        <ele>544.5</ele>
        <time>2022-04-15T10:20:56Z</time>
      </trkpt>
      <trkpt lat="45.48414" lon="5.76718">
        <ele>544.6</ele>
        <time>2022-04-15T10:20:57Z</time>
      </trkpt>
      <trkpt lat="45.48417" lon="5.76718">
        <ele>544.7</ele>
        <time>2022-04-15T10:20:58Z</time>
      </trkpt>
      <trkpt lat="45.4842" lon="5.76718">
        <ele>544.7</ele>
        <time>2022-04-15T10:20:59Z</time>
      </trkpt>
      <trkpt lat="45.48424" lon="5.76717">
        <ele>544.8</ele>
        <time>2022-04-15T10:21:00Z</time>
      </trkpt>
      <trkpt lat="45.48428" lon="5.76717">
        <ele>544.9</ele>
        <time>2022-04-15T10:21:01Z</time>
      </trkpt>
      <trkpt lat="45.48434" lon="5.76716">
        <ele>545.1</ele>
        <time>2022-04-15T10:21:03Z</time>
      </trkpt>
      <trkpt lat="45.48441" lon="5.76714">
        <ele>545.3</ele>
        <time>2022-04-15T10:21:04Z</time>
      </trkpt>
      <trkpt lat="45.48445" lon="5.76712">
        <ele>545.4</ele>
        <time>2022-04-15T10:21:06Z</time>
      </trkpt>
      <trkpt lat="45.48448" lon="5.76709">
        <ele>545.5</ele>
        <time>2022-04-15T10:21:07Z</time>
      </trkpt>
      <trkpt lat="45.48456" lon="5.76707">
        <ele>545.7</ele>
        <time>2022-04-15T10:21:09Z</time>
      </trkpt>
      <trkpt lat="45.48462" lon="5.76705">
        <ele>545.9</ele>
        <time>2022-04-15T10:21:11Z</time>
      </trkpt>
      <trkpt lat="45.48466" lon="5.76704">
        <ele>546</ele>
        <time>2022-04-15T10:21:12Z</time>
      </trkpt>
      <trkpt lat="45.4847" lon="5.76703">
        <ele>546.2</ele>
        <time>2022-04-15T10:21:13Z</time>
      </trkpt>
      <trkpt lat="45.48475" lon="5.76703">
        <ele>546.3</ele>
        <time>2022-04-15T10:21:15Z</time>
      </trkpt>
      <trkpt lat="45.4848" lon="5.76703">
        <ele>546.5</ele>
        <time>2022-04-15T10:21:16Z</time>
      </trkpt>
      <trkpt lat="45.48483" lon="5.76703">
        <ele>546.5</ele>
        <time>2022-04-15T10:21:17Z</time>
      </trkpt>
      <trkpt lat="45.48487" lon="5.76705">
        <ele>546.7</ele>
        <time>2022-04-15T10:21:19Z</time>
      </trkpt>
      <trkpt lat="45.48494" lon="5.76707">
        <ele>546.8</ele>
        <time>2022-04-15T10:21:21Z</time>
      </trkpt>
      <trkpt lat="45.48497" lon="5.76708">
        <ele>546.9</ele>
        <time>2022-04-15T10:21:22Z</time>
      </trkpt>
      <trkpt lat="45.48499" lon="5.76709">
        <ele>547</ele>
        <time>2022-04-15T10:21:23Z</time>
      </trkpt>
      <trkpt lat="45.48503" lon="5.76711">
        <ele>547</ele>
        <time>2022-04-15T10:21:24Z</time>
      </trkpt>
      <trkpt lat="45.48505" lon="5.76711">
        <ele>547.1</ele>
        <time>2022-04-15T10:21:25Z</time>
      </trkpt>
      <trkpt lat="45.48509" lon="5.76713">
        <ele>547.2</ele>
        <time>2022-04-15T10:21:26Z</time>
      </trkpt>
      <trkpt lat="45.4851" lon="5.76714">
        <ele>547.2</ele>
        <time>2022-04-15T10:21:27Z</time>
      </trkpt>
      <trkpt lat="45.48513" lon="5.76715">
        <ele>547.3</ele>
        <time>2022-04-15T10:21:28Z</time>
      </trkpt>
      <trkpt lat="45.48516" lon="5.76717">
        <ele>547.3</ele>
        <time>2022-04-15T10:21:29Z</time>
      </trkpt>
      <trkpt lat="45.48519" lon="5.76719">
        <ele>547.4</ele>
        <time>2022-04-15T10:21:30Z</time>
      </trkpt>
      <trkpt lat="45.48522" lon="5.7672">
        <ele>547.5</ele>
        <time>2022-04-15T10:21:31Z</time>
      </trkpt>
      <trkpt lat="45.48527" lon="5.76723">
        <ele>547.6</ele>
        <time>2022-04-15T10:21:33Z</time>
      </trkpt>
      <trkpt lat="45.4853" lon="5.76725">
        <ele>547.7</ele>
        <time>2022-04-15T10:21:34Z</time>
      </trkpt>
      <trkpt lat="45.48535" lon="5.76727">
        <ele>547.9</ele>
        <time>2022-04-15T10:21:36Z</time>
      </trkpt>
      <trkpt lat="45.48541" lon="5.76729">
        <ele>548</ele>
        <time>2022-04-15T10:21:38Z</time>
      </trkpt>
      <trkpt lat="45.48544" lon="5.76731">
        <ele>548</ele>
        <time>2022-04-15T10:21:39Z</time>
      </trkpt>
      <trkpt lat="45.4855" lon="5.76733">
        <ele>548.1</ele>
        <time>2022-04-15T10:21:41Z</time>
      </trkpt>
      <trkpt lat="45.48553" lon="5.76735">
        <ele>548.2</ele>
        <time>2022-04-15T10:21:42Z</time>
      </trkpt>
      <trkpt lat="45.48556" lon="5.76736">
        <ele>548.2</ele>
        <time>2022-04-15T10:21:43Z</time>
      </trkpt>
      <trkpt lat="45.4856" lon="5.76738">
        <ele>548.3</ele>
        <time>2022-04-15T10:21:44Z</time>
      </trkpt>
      <trkpt lat="45.48566" lon="5.76741">
        <ele>548.4</ele>
        <time>2022-04-15T10:21:45Z</time>
      </trkpt>
      <trkpt lat="45.48569" lon="5.76742">
        <ele>548.5</ele>
        <time>2022-04-15T10:21:47Z</time>
      </trkpt>
      <trkpt lat="45.48573" lon="5.76744">
        <ele>548.5</ele>
        <time>2022-04-15T10:21:48Z</time>
      </trkpt>
      <trkpt lat="45.48576" lon="5.76745">
        <ele>548.6</ele>
        <time>2022-04-15T10:21:49Z</time>
      </trkpt>
      <trkpt lat="45.48579" lon="5.76746">
        <ele>548.7</ele>
        <time>2022-04-15T10:21:50Z</time>
      </trkpt>
      <trkpt lat="45.48582" lon="5.76748">
        <ele>548.7</ele>
        <time>2022-04-15T10:21:51Z</time>
      </trkpt>
      <trkpt lat="45.48584" lon="5.7675">
        <ele>548.8</ele>
        <time>2022-04-15T10:21:52Z</time>
      </trkpt>
      <trkpt lat="45.48587" lon="5.76752">
        <ele>548.8</ele>
        <time>2022-04-15T10:21:53Z</time>
      </trkpt>
      <trkpt lat="45.48591" lon="5.76754">
        <ele>548.9</ele>
        <time>2022-04-15T10:21:54Z</time>
      </trkpt>
      <trkpt lat="45.48594" lon="5.76756">
        <ele>548.9</ele>
        <time>2022-04-15T10:21:55Z</time>
      </trkpt>
      <trkpt lat="45.48598" lon="5.76758">
        <ele>549</ele>
        <time>2022-04-15T10:21:56Z</time>
      </trkpt>
      <trkpt lat="45.48602" lon="5.7676">
        <ele>549</ele>
        <time>2022-04-15T10:21:57Z</time>
      </trkpt>
      <trkpt lat="45.48606" lon="5.76764">
        <ele>549.1</ele>
        <time>2022-04-15T10:21:59Z</time>
      </trkpt>
      <trkpt lat="45.48609" lon="5.76767">
        <ele>549.1</ele>
        <time>2022-04-15T10:22:00Z</time>
      </trkpt>
      <trkpt lat="45.48613" lon="5.76771">
        <ele>549.2</ele>
        <time>2022-04-15T10:22:02Z</time>
      </trkpt>
      <trkpt lat="45.48616" lon="5.76773">
        <ele>549.2</ele>
        <time>2022-04-15T10:22:03Z</time>
      </trkpt>
      <trkpt lat="45.4862" lon="5.76777">
        <ele>549.2</ele>
        <time>2022-04-15T10:22:04Z</time>
      </trkpt>
      <trkpt lat="45.48623" lon="5.7678">
        <ele>549.2</ele>
        <time>2022-04-15T10:22:05Z</time>
      </trkpt>
      <trkpt lat="45.48627" lon="5.76785">
        <ele>549.3</ele>
        <time>2022-04-15T10:22:07Z</time>
      </trkpt>
      <trkpt lat="45.4863" lon="5.76788">
        <ele>549.3</ele>
        <time>2022-04-15T10:22:08Z</time>
      </trkpt>
      <trkpt lat="45.48635" lon="5.76794">
        <ele>549.3</ele>
        <time>2022-04-15T10:22:09Z</time>
      </trkpt>
      <trkpt lat="45.48638" lon="5.76798">
        <ele>549.3</ele>
        <time>2022-04-15T10:22:11Z</time>
      </trkpt>
      <trkpt lat="45.48643" lon="5.76803">
        <ele>549.4</ele>
        <time>2022-04-15T10:22:12Z</time>
      </trkpt>
      <trkpt lat="45.48647" lon="5.76808">
        <ele>549.4</ele>
        <time>2022-04-15T10:22:14Z</time>
      </trkpt>
      <trkpt lat="45.48651" lon="5.76812">
        <ele>549.4</ele>
        <time>2022-04-15T10:22:15Z</time>
      </trkpt>
      <trkpt lat="45.48654" lon="5.76816">
        <ele>549.5</ele>
        <time>2022-04-15T10:22:16Z</time>
      </trkpt>
      <trkpt lat="45.48658" lon="5.7682">
        <ele>549.5</ele>
        <time>2022-04-15T10:22:17Z</time>
      </trkpt>
      <trkpt lat="45.48663" lon="5.76826">
        <ele>549.6</ele>
        <time>2022-04-15T10:22:19Z</time>
      </trkpt>
      <trkpt lat="45.48665" lon="5.76829">
        <ele>549.6</ele>
        <time>2022-04-15T10:22:20Z</time>
      </trkpt>
      <trkpt lat="45.48669" lon="5.76834">
        <ele>549.7</ele>
        <time>2022-04-15T10:22:21Z</time>
      </trkpt>
      <trkpt lat="45.48674" lon="5.76839">
        <ele>549.8</ele>
        <time>2022-04-15T10:22:22Z</time>
      </trkpt>
      <trkpt lat="45.48678" lon="5.76843">
        <ele>549.9</ele>
        <time>2022-04-15T10:22:24Z</time>
      </trkpt>
      <trkpt lat="45.48682" lon="5.76846">
        <ele>549.9</ele>
        <time>2022-04-15T10:22:25Z</time>
      </trkpt>
      <trkpt lat="45.48687" lon="5.76853">
        <ele>550.1</ele>
        <time>2022-04-15T10:22:27Z</time>
      </trkpt>
      <trkpt lat="45.48689" lon="5.76856">
        <ele>550.1</ele>
        <time>2022-04-15T10:22:28Z</time>
      </trkpt>
      <trkpt lat="45.48695" lon="5.76862">
        <ele>550.3</ele>
        <time>2022-04-15T10:22:30Z</time>
      </trkpt>
      <trkpt lat="45.48698" lon="5.76868">
        <ele>550.4</ele>
        <time>2022-04-15T10:22:31Z</time>
      </trkpt>
      <trkpt lat="45.48701" lon="5.76872">
        <ele>550.4</ele>
        <time>2022-04-15T10:22:33Z</time>
      </trkpt>
      <trkpt lat="45.48704" lon="5.76876">
        <ele>550.5</ele>
        <time>2022-04-15T10:22:34Z</time>
      </trkpt>
      <trkpt lat="45.48708" lon="5.76883">
        <ele>550.6</ele>
        <time>2022-04-15T10:22:35Z</time>
      </trkpt>
      <trkpt lat="45.4871" lon="5.76887">
        <ele>550.7</ele>
        <time>2022-04-15T10:22:36Z</time>
      </trkpt>
      <trkpt lat="45.48713" lon="5.76893">
        <ele>550.8</ele>
        <time>2022-04-15T10:22:38Z</time>
      </trkpt>
      <trkpt lat="45.48716" lon="5.76899">
        <ele>550.9</ele>
        <time>2022-04-15T10:22:39Z</time>
      </trkpt>
      <trkpt lat="45.48718" lon="5.76903">
        <ele>551</ele>
        <time>2022-04-15T10:22:41Z</time>
      </trkpt>
      <trkpt lat="45.48721" lon="5.76908">
        <ele>551.1</ele>
        <time>2022-04-15T10:22:42Z</time>
      </trkpt>
      <trkpt lat="45.48723" lon="5.76911">
        <ele>551.1</ele>
        <time>2022-04-15T10:22:43Z</time>
      </trkpt>
      <trkpt lat="45.48726" lon="5.76916">
        <ele>551.2</ele>
        <time>2022-04-15T10:22:44Z</time>
      </trkpt>
      <trkpt lat="45.4873" lon="5.76921">
        <ele>551.4</ele>
        <time>2022-04-15T10:22:45Z</time>
      </trkpt>
      <trkpt lat="45.48732" lon="5.76924">
        <ele>551.4</ele>
        <time>2022-04-15T10:22:47Z</time>
      </trkpt>
      <trkpt lat="45.48734" lon="5.76927">
        <ele>551.5</ele>
        <time>2022-04-15T10:22:48Z</time>
      </trkpt>
      <trkpt lat="45.48737" lon="5.7693">
        <ele>551.6</ele>
        <time>2022-04-15T10:22:49Z</time>
      </trkpt>
      <trkpt lat="45.4874" lon="5.76932">
        <ele>551.6</ele>
        <time>2022-04-15T10:22:50Z</time>
      </trkpt>
      <trkpt lat="45.48743" lon="5.76934">
        <ele>551.7</ele>
        <time>2022-04-15T10:22:51Z</time>
      </trkpt>
      <trkpt lat="45.48746" lon="5.76936">
        <ele>551.8</ele>
        <time>2022-04-15T10:22:52Z</time>
      </trkpt>
      <trkpt lat="45.48753" lon="5.76938">
        <ele>552</ele>
        <time>2022-04-15T10:22:54Z</time>
      </trkpt>
      <trkpt lat="45.48757" lon="5.7694">
        <ele>552.1</ele>
        <time>2022-04-15T10:22:55Z</time>
      </trkpt>
      <trkpt lat="45.48762" lon="5.76941">
        <ele>552.2</ele>
        <time>2022-04-15T10:22:56Z</time>
      </trkpt>
      <trkpt lat="45.48767" lon="5.76943">
        <ele>552.4</ele>
        <time>2022-04-15T10:22:57Z</time>
      </trkpt>
      <trkpt lat="45.48772" lon="5.76945">
        <ele>552.5</ele>
        <time>2022-04-15T10:22:58Z</time>
      </trkpt>
      <trkpt lat="45.48776" lon="5.76948">
        <ele>552.6</ele>
        <time>2022-04-15T10:23:00Z</time>
      </trkpt>
      <trkpt lat="45.4878" lon="5.7695">
        <ele>552.7</ele>
        <time>2022-04-15T10:23:01Z</time>
      </trkpt>
      <trkpt lat="45.48785" lon="5.76952">
        <ele>552.9</ele>
        <time>2022-04-15T10:23:03Z</time>
      </trkpt>
      <trkpt lat="45.48789" lon="5.76954">
        <ele>553</ele>
        <time>2022-04-15T10:23:04Z</time>
      </trkpt>
      <trkpt lat="45.4879" lon="5.76954">
        <ele>553</ele>
        <time>2022-04-15T10:23:05Z</time>
      </trkpt>
      <trkpt lat="45.48794" lon="5.76956">
        <ele>553.1</ele>
        <time>2022-04-15T10:23:06Z</time>
      </trkpt>
      <trkpt lat="45.48797" lon="5.76958">
        <ele>553.2</ele>
        <time>2022-04-15T10:23:07Z</time>
      </trkpt>
      <trkpt lat="45.488" lon="5.7696">
        <ele>553.3</ele>
        <time>2022-04-15T10:23:09Z</time>
      </trkpt>
      <trkpt lat="45.48803" lon="5.76962">
        <ele>553.4</ele>
        <time>2022-04-15T10:23:10Z</time>
      </trkpt>
      <trkpt lat="45.48807" lon="5.76964">
        <ele>553.5</ele>
        <time>2022-04-15T10:23:11Z</time>
      </trkpt>
      <trkpt lat="45.48808" lon="5.76965">
        <ele>553.6</ele>
        <time>2022-04-15T10:23:12Z</time>
      </trkpt>
      <trkpt lat="45.48811" lon="5.76968">
        <ele>553.7</ele>
        <time>2022-04-15T10:23:13Z</time>
      </trkpt>
      <trkpt lat="45.48813" lon="5.76969">
        <ele>553.7</ele>
        <time>2022-04-15T10:23:14Z</time>
      </trkpt>
      <trkpt lat="45.48815" lon="5.76971">
        <ele>553.8</ele>
        <time>2022-04-15T10:23:15Z</time>
      </trkpt>
      <trkpt lat="45.48818" lon="5.76973">
        <ele>553.9</ele>
        <time>2022-04-15T10:23:16Z</time>
      </trkpt>
      <trkpt lat="45.48821" lon="5.76976">
        <ele>554</ele>
        <time>2022-04-15T10:23:17Z</time>
      </trkpt>
      <trkpt lat="45.48825" lon="5.76979">
        <ele>554.2</ele>
        <time>2022-04-15T10:23:18Z</time>
      </trkpt>
      <trkpt lat="45.48828" lon="5.76982">
        <ele>554.3</ele>
        <time>2022-04-15T10:23:20Z</time>
      </trkpt>
      <trkpt lat="45.48832" lon="5.76984">
        <ele>554.4</ele>
        <time>2022-04-15T10:23:21Z</time>
      </trkpt>
      <trkpt lat="45.48835" lon="5.76987">
        <ele>554.5</ele>
        <time>2022-04-15T10:23:22Z</time>
      </trkpt>
      <trkpt lat="45.48839" lon="5.7699">
        <ele>554.7</ele>
        <time>2022-04-15T10:23:24Z</time>
      </trkpt>
      <trkpt lat="45.48841" lon="5.76991">
        <ele>554.8</ele>
        <time>2022-04-15T10:23:25Z</time>
      </trkpt>
      <trkpt lat="45.48845" lon="5.76993">
        <ele>554.9</ele>
        <time>2022-04-15T10:23:26Z</time>
      </trkpt>
      <trkpt lat="45.48847" lon="5.76994">
        <ele>554.9</ele>
        <time>2022-04-15T10:23:27Z</time>
      </trkpt>
      <trkpt lat="45.48851" lon="5.76997">
        <ele>555.1</ele>
        <time>2022-04-15T10:23:29Z</time>
      </trkpt>
      <trkpt lat="45.48854" lon="5.76999">
        <ele>555.2</ele>
        <time>2022-04-15T10:23:30Z</time>
      </trkpt>
      <trkpt lat="45.48857" lon="5.77001">
        <ele>555.3</ele>
        <time>2022-04-15T10:23:31Z</time>
      </trkpt>
      <trkpt lat="45.48863" lon="5.77005">
        <ele>555.5</ele>
        <time>2022-04-15T10:23:33Z</time>
      </trkpt>
      <trkpt lat="45.48868" lon="5.77009">
        <ele>555.8</ele>
        <time>2022-04-15T10:23:35Z</time>
      </trkpt>
      <trkpt lat="45.48873" lon="5.77011">
        <ele>555.9</ele>
        <time>2022-04-15T10:23:36Z</time>
      </trkpt>
      <trkpt lat="45.48876" lon="5.77013">
        <ele>556</ele>
        <time>2022-04-15T10:23:38Z</time>
      </trkpt>
      <trkpt lat="45.48881" lon="5.77014">
        <ele>556.2</ele>
        <time>2022-04-15T10:23:39Z</time>
      </trkpt>
      <trkpt lat="45.48884" lon="5.77014">
        <ele>556.3</ele>
        <time>2022-04-15T10:23:41Z</time>
      </trkpt>
      <trkpt lat="45.48887" lon="5.77014">
        <ele>556.4</ele>
        <time>2022-04-15T10:23:42Z</time>
      </trkpt>
      <trkpt lat="45.4889" lon="5.77014">
        <ele>556.5</ele>
        <time>2022-04-15T10:23:43Z</time>
      </trkpt>
      <trkpt lat="45.48893" lon="5.77013">
        <ele>556.6</ele>
        <time>2022-04-15T10:23:44Z</time>
      </trkpt>
      <trkpt lat="45.48896" lon="5.77012">
        <ele>556.7</ele>
        <time>2022-04-15T10:23:45Z</time>
      </trkpt>
      <trkpt lat="45.48898" lon="5.77011">
        <ele>556.8</ele>
        <time>2022-04-15T10:23:46Z</time>
      </trkpt>
      <trkpt lat="45.48901" lon="5.77011">
        <ele>556.9</ele>
        <time>2022-04-15T10:23:47Z</time>
      </trkpt>
      <trkpt lat="45.48905" lon="5.7701">
        <ele>557</ele>
        <time>2022-04-15T10:23:48Z</time>
      </trkpt>
      <trkpt lat="45.48911" lon="5.77008">
        <ele>557.2</ele>
        <time>2022-04-15T10:23:50Z</time>
      </trkpt>
      <trkpt lat="45.48914" lon="5.77006">
        <ele>557.3</ele>
        <time>2022-04-15T10:23:51Z</time>
      </trkpt>
      <trkpt lat="45.48919" lon="5.77004">
        <ele>557.5</ele>
        <time>2022-04-15T10:23:53Z</time>
      </trkpt>
      <trkpt lat="45.48923" lon="5.77003">
        <ele>557.6</ele>
        <time>2022-04-15T10:23:54Z</time>
      </trkpt>
      <trkpt lat="45.48927" lon="5.77002">
        <ele>557.7</ele>
        <time>2022-04-15T10:23:56Z</time>
      </trkpt>
      <trkpt lat="45.4893" lon="5.77001">
        <ele>557.8</ele>
        <time>2022-04-15T10:23:57Z</time>
      </trkpt>
      <trkpt lat="45.48935" lon="5.77">
        <ele>558</ele>
        <time>2022-04-15T10:23:59Z</time>
      </trkpt>
      <trkpt lat="45.48939" lon="5.77">
        <ele>558.1</ele>
        <time>2022-04-15T10:24:00Z</time>
      </trkpt>
      <trkpt lat="45.48944" lon="5.77">
        <ele>558.2</ele>
        <time>2022-04-15T10:24:02Z</time>
      </trkpt>
      <trkpt lat="45.48946" lon="5.77">
        <ele>558.3</ele>
        <time>2022-04-15T10:24:03Z</time>
      </trkpt>
      <trkpt lat="45.48951" lon="5.76999">
        <ele>558.4</ele>
        <time>2022-04-15T10:24:05Z</time>
      </trkpt>
      <trkpt lat="45.48955" lon="5.76999">
        <ele>558.6</ele>
        <time>2022-04-15T10:24:07Z</time>
      </trkpt>
      <trkpt lat="45.48958" lon="5.76998">
        <ele>558.7</ele>
        <time>2022-04-15T10:24:08Z</time>
      </trkpt>
      <trkpt lat="45.4896" lon="5.76998">
        <ele>558.7</ele>
        <time>2022-04-15T10:24:09Z</time>
      </trkpt>
      <trkpt lat="45.48964" lon="5.76997">
        <ele>558.9</ele>
        <time>2022-04-15T10:24:10Z</time>
      </trkpt>
      <trkpt lat="45.48966" lon="5.76997">
        <ele>558.9</ele>
        <time>2022-04-15T10:24:11Z</time>
      </trkpt>
      <trkpt lat="45.4897" lon="5.76997">
        <ele>559.1</ele>
        <time>2022-04-15T10:24:12Z</time>
      </trkpt>
      <trkpt lat="45.48973" lon="5.76997">
        <ele>559.2</ele>
        <time>2022-04-15T10:24:13Z</time>
      </trkpt>
      <trkpt lat="45.48976" lon="5.76996">
        <ele>559.3</ele>
        <time>2022-04-15T10:24:15Z</time>
      </trkpt>
      <trkpt lat="45.48981" lon="5.76996">
        <ele>559.5</ele>
        <time>2022-04-15T10:24:17Z</time>
      </trkpt>
      <trkpt lat="45.48985" lon="5.76996">
        <ele>559.6</ele>
        <time>2022-04-15T10:24:18Z</time>
      </trkpt>
      <trkpt lat="45.48986" lon="5.76996">
        <ele>559.7</ele>
        <time>2022-04-15T10:24:19Z</time>
      </trkpt>
      <trkpt lat="45.48992" lon="5.76995">
        <ele>559.8</ele>
        <time>2022-04-15T10:24:21Z</time>
      </trkpt>
      <trkpt lat="45.48997" lon="5.76995">
        <ele>560</ele>
        <time>2022-04-15T10:24:23Z</time>
      </trkpt>
      <trkpt lat="45.49001" lon="5.76995">
        <ele>560.1</ele>
        <time>2022-04-15T10:24:24Z</time>
      </trkpt>
      <trkpt lat="45.49006" lon="5.76995">
        <ele>560.3</ele>
        <time>2022-04-15T10:24:26Z</time>
      </trkpt>
      <trkpt lat="45.49008" lon="5.76995">
        <ele>560.4</ele>
        <time>2022-04-15T10:24:27Z</time>
      </trkpt>
      <trkpt lat="45.4901" lon="5.76995">
        <ele>560.4</ele>
        <time>2022-04-15T10:24:28Z</time>
      </trkpt>
      <trkpt lat="45.49014" lon="5.76995">
        <ele>560.6</ele>
        <time>2022-04-15T10:24:30Z</time>
      </trkpt>
      <trkpt lat="45.49017" lon="5.76995">
        <ele>560.7</ele>
        <time>2022-04-15T10:24:31Z</time>
      </trkpt>
      <trkpt lat="45.49022" lon="5.76995">
        <ele>560.8</ele>
        <time>2022-04-15T10:24:33Z</time>
      </trkpt>
      <trkpt lat="45.49026" lon="5.76995">
        <ele>560.9</ele>
        <time>2022-04-15T10:24:34Z</time>
      </trkpt>
      <trkpt lat="45.49027" lon="5.76995">
        <ele>561</ele>
        <time>2022-04-15T10:24:35Z</time>
      </trkpt>
      <trkpt lat="45.4903" lon="5.76995">
        <ele>561.1</ele>
        <time>2022-04-15T10:24:36Z</time>
      </trkpt>
      <trkpt lat="45.49034" lon="5.76995">
        <ele>561.2</ele>
        <time>2022-04-15T10:24:37Z</time>
      </trkpt>
      <trkpt lat="45.49035" lon="5.76995">
        <ele>561.2</ele>
        <time>2022-04-15T10:24:38Z</time>
      </trkpt>
      <trkpt lat="45.49038" lon="5.76995">
        <ele>561.3</ele>
        <time>2022-04-15T10:24:39Z</time>
      </trkpt>
      <trkpt lat="45.49041" lon="5.76995">
        <ele>561.4</ele>
        <time>2022-04-15T10:24:40Z</time>
      </trkpt>
      <trkpt lat="45.49045" lon="5.76995">
        <ele>561.5</ele>
        <time>2022-04-15T10:24:42Z</time>
      </trkpt>
      <trkpt lat="45.49049" lon="5.76994">
        <ele>561.6</ele>
        <time>2022-04-15T10:24:43Z</time>
      </trkpt>
      <trkpt lat="45.4905" lon="5.76994">
        <ele>561.6</ele>
        <time>2022-04-15T10:24:44Z</time>
      </trkpt>
      <trkpt lat="45.49056" lon="5.76993">
        <ele>561.7</ele>
        <time>2022-04-15T10:24:45Z</time>
      </trkpt>
      <trkpt lat="45.49059" lon="5.76993">
        <ele>561.8</ele>
        <time>2022-04-15T10:24:47Z</time>
      </trkpt>
      <trkpt lat="45.49062" lon="5.76992">
        <ele>561.8</ele>
        <time>2022-04-15T10:24:48Z</time>
      </trkpt>
      <trkpt lat="45.49068" lon="5.76992">
        <ele>561.9</ele>
        <time>2022-04-15T10:24:50Z</time>
      </trkpt>
      <trkpt lat="45.49072" lon="5.76992">
        <ele>562</ele>
        <time>2022-04-15T10:24:51Z</time>
      </trkpt>
      <trkpt lat="45.49076" lon="5.76993">
        <ele>562</ele>
        <time>2022-04-15T10:24:52Z</time>
      </trkpt>
      <trkpt lat="45.49081" lon="5.76993">
        <ele>562.1</ele>
        <time>2022-04-15T10:24:53Z</time>
      </trkpt>
      <trkpt lat="45.49083" lon="5.76993">
        <ele>562.1</ele>
        <time>2022-04-15T10:24:54Z</time>
      </trkpt>
      <trkpt lat="45.49086" lon="5.76994">
        <ele>562.2</ele>
        <time>2022-04-15T10:24:56Z</time>
      </trkpt>
      <trkpt lat="45.49091" lon="5.76995">
        <ele>562.2</ele>
        <time>2022-04-15T10:24:57Z</time>
      </trkpt>
      <trkpt lat="45.49095" lon="5.76996">
        <ele>562.3</ele>
        <time>2022-04-15T10:24:58Z</time>
      </trkpt>
      <trkpt lat="45.491" lon="5.76997">
        <ele>562.4</ele>
        <time>2022-04-15T10:25:00Z</time>
      </trkpt>
      <trkpt lat="45.49106" lon="5.76999">
        <ele>562.4</ele>
        <time>2022-04-15T10:25:02Z</time>
      </trkpt>
      <trkpt lat="45.4911" lon="5.76999">
        <ele>562.5</ele>
        <time>2022-04-15T10:25:03Z</time>
      </trkpt>
      <trkpt lat="45.49115" lon="5.77">
        <ele>562.6</ele>
        <time>2022-04-15T10:25:04Z</time>
      </trkpt>
      <trkpt lat="45.4912" lon="5.77002">
        <ele>562.6</ele>
        <time>2022-04-15T10:25:06Z</time>
      </trkpt>
      <trkpt lat="45.49123" lon="5.77002">
        <ele>562.7</ele>
        <time>2022-04-15T10:25:07Z</time>
      </trkpt>
      <trkpt lat="45.49126" lon="5.77003">
        <ele>562.7</ele>
        <time>2022-04-15T10:25:08Z</time>
      </trkpt>
      <trkpt lat="45.4913" lon="5.77005">
        <ele>562.8</ele>
        <time>2022-04-15T10:25:09Z</time>
      </trkpt>
      <trkpt lat="45.49133" lon="5.77006">
        <ele>562.9</ele>
        <time>2022-04-15T10:25:10Z</time>
      </trkpt>
      <trkpt lat="45.49136" lon="5.77008">
        <ele>562.9</ele>
        <time>2022-04-15T10:25:11Z</time>
      </trkpt>
      <trkpt lat="45.49139" lon="5.7701">
        <ele>563</ele>
        <time>2022-04-15T10:25:12Z</time>
      </trkpt>
      <trkpt lat="45.49143" lon="5.77011">
        <ele>563</ele>
        <time>2022-04-15T10:25:13Z</time>
      </trkpt>
      <trkpt lat="45.49146" lon="5.77013">
        <ele>563.1</ele>
        <time>2022-04-15T10:25:14Z</time>
      </trkpt>
      <trkpt lat="45.49149" lon="5.77016">
        <ele>563.2</ele>
        <time>2022-04-15T10:25:15Z</time>
      </trkpt>
      <trkpt lat="45.49155" lon="5.77018">
        <ele>563.2</ele>
        <time>2022-04-15T10:25:17Z</time>
      </trkpt>
      <trkpt lat="45.49158" lon="5.7702">
        <ele>563.3</ele>
        <time>2022-04-15T10:25:18Z</time>
      </trkpt>
      <trkpt lat="45.49161" lon="5.77022">
        <ele>563.4</ele>
        <time>2022-04-15T10:25:19Z</time>
      </trkpt>
      <trkpt lat="45.49164" lon="5.77024">
        <ele>563.4</ele>
        <time>2022-04-15T10:25:20Z</time>
      </trkpt>
      <trkpt lat="45.49168" lon="5.77025">
        <ele>563.5</ele>
        <time>2022-04-15T10:25:21Z</time>
      </trkpt>
      <trkpt lat="45.49174" lon="5.7703">
        <ele>563.6</ele>
        <time>2022-04-15T10:25:22Z</time>
      </trkpt>
      <trkpt lat="45.49178" lon="5.77032">
        <ele>563.7</ele>
        <time>2022-04-15T10:25:24Z</time>
      </trkpt>
      <trkpt lat="45.49182" lon="5.77035">
        <ele>563.8</ele>
        <time>2022-04-15T10:25:25Z</time>
      </trkpt>
      <trkpt lat="45.49186" lon="5.77036">
        <ele>563.8</ele>
        <time>2022-04-15T10:25:26Z</time>
      </trkpt>
      <trkpt lat="45.4919" lon="5.77038">
        <ele>563.9</ele>
        <time>2022-04-15T10:25:27Z</time>
      </trkpt>
      <trkpt lat="45.49192" lon="5.77039">
        <ele>563.9</ele>
        <time>2022-04-15T10:25:28Z</time>
      </trkpt>
      <trkpt lat="45.49195" lon="5.77042">
        <ele>564</ele>
        <time>2022-04-15T10:25:29Z</time>
      </trkpt>
      <trkpt lat="45.49202" lon="5.77047">
        <ele>564.1</ele>
        <time>2022-04-15T10:25:31Z</time>
      </trkpt>
      <trkpt lat="45.49208" lon="5.77049">
        <ele>564.3</ele>
        <time>2022-04-15T10:25:33Z</time>
      </trkpt>
      <trkpt lat="45.4921" lon="5.7705">
        <ele>564.3</ele>
        <time>2022-04-15T10:25:34Z</time>
      </trkpt>
      <trkpt lat="45.49214" lon="5.77054">
        <ele>564.4</ele>
        <time>2022-04-15T10:25:35Z</time>
      </trkpt>
      <trkpt lat="45.49217" lon="5.77057">
        <ele>564.6</ele>
        <time>2022-04-15T10:25:36Z</time>
      </trkpt>
      <trkpt lat="45.49223" lon="5.7706">
        <ele>564.7</ele>
        <time>2022-04-15T10:25:38Z</time>
      </trkpt>
      <trkpt lat="45.49227" lon="5.77063">
        <ele>564.9</ele>
        <time>2022-04-15T10:25:39Z</time>
      </trkpt>
      <trkpt lat="45.4923" lon="5.77064">
        <ele>565</ele>
        <time>2022-04-15T10:25:40Z</time>
      </trkpt>
      <trkpt lat="45.49237" lon="5.77066">
        <ele>565.3</ele>
        <time>2022-04-15T10:25:42Z</time>
      </trkpt>
      <trkpt lat="45.49241" lon="5.77068">
        <ele>565.5</ele>
        <time>2022-04-15T10:25:44Z</time>
      </trkpt>
      <trkpt lat="45.49245" lon="5.7707">
        <ele>565.7</ele>
        <time>2022-04-15T10:25:46Z</time>
      </trkpt>
      <trkpt lat="45.49248" lon="5.77071">
        <ele>565.8</ele>
        <time>2022-04-15T10:25:47Z</time>
      </trkpt>
      <trkpt lat="45.49251" lon="5.77072">
        <ele>565.9</ele>
        <time>2022-04-15T10:25:48Z</time>
      </trkpt>
      <trkpt lat="45.49255" lon="5.77073">
        <ele>566.2</ele>
        <time>2022-04-15T10:25:50Z</time>
      </trkpt>
      <trkpt lat="45.49259" lon="5.77074">
        <ele>566.4</ele>
        <time>2022-04-15T10:25:51Z</time>
      </trkpt>
      <trkpt lat="45.49264" lon="5.77074">
        <ele>566.6</ele>
        <time>2022-04-15T10:25:53Z</time>
      </trkpt>
      <trkpt lat="45.49266" lon="5.77074">
        <ele>566.7</ele>
        <time>2022-04-15T10:25:54Z</time>
      </trkpt>
      <trkpt lat="45.49268" lon="5.77073">
        <ele>566.8</ele>
        <time>2022-04-15T10:25:55Z</time>
      </trkpt>
      <trkpt lat="45.49273" lon="5.77073">
        <ele>567.1</ele>
        <time>2022-04-15T10:25:57Z</time>
      </trkpt>
      <trkpt lat="45.49279" lon="5.77073">
        <ele>567.4</ele>
        <time>2022-04-15T10:25:59Z</time>
      </trkpt>
      <trkpt lat="45.49283" lon="5.77072">
        <ele>567.6</ele>
        <time>2022-04-15T10:26:01Z</time>
      </trkpt>
      <trkpt lat="45.49286" lon="5.7707">
        <ele>567.7</ele>
        <time>2022-04-15T10:26:02Z</time>
      </trkpt>
      <trkpt lat="45.49287" lon="5.7707">
        <ele>567.8</ele>
        <time>2022-04-15T10:26:03Z</time>
      </trkpt>
      <trkpt lat="45.4929" lon="5.77068">
        <ele>568</ele>
        <time>2022-04-15T10:26:04Z</time>
      </trkpt>
      <trkpt lat="45.49291" lon="5.77068">
        <ele>568</ele>
        <time>2022-04-15T10:26:05Z</time>
      </trkpt>
      <trkpt lat="45.49295" lon="5.77067">
        <ele>568.2</ele>
        <time>2022-04-15T10:26:07Z</time>
      </trkpt>
      <trkpt lat="45.49299" lon="5.77066">
        <ele>568.4</ele>
        <time>2022-04-15T10:26:08Z</time>
      </trkpt>
      <trkpt lat="45.493" lon="5.77065">
        <ele>568.5</ele>
        <time>2022-04-15T10:26:09Z</time>
      </trkpt>
      <trkpt lat="45.49304" lon="5.77064">
        <ele>568.7</ele>
        <time>2022-04-15T10:26:10Z</time>
      </trkpt>
      <trkpt lat="45.49306" lon="5.77063">
        <ele>568.8</ele>
        <time>2022-04-15T10:26:11Z</time>
      </trkpt>
      <trkpt lat="45.49309" lon="5.77063">
        <ele>568.9</ele>
        <time>2022-04-15T10:26:13Z</time>
      </trkpt>
      <trkpt lat="45.49312" lon="5.77062">
        <ele>569</ele>
        <time>2022-04-15T10:26:14Z</time>
      </trkpt>
      <trkpt lat="45.49317" lon="5.77061">
        <ele>569.2</ele>
        <time>2022-04-15T10:26:16Z</time>
      </trkpt>
      <trkpt lat="45.49321" lon="5.77059">
        <ele>569.4</ele>
        <time>2022-04-15T10:26:17Z</time>
      </trkpt>
      <trkpt lat="45.49324" lon="5.77059">
        <ele>569.5</ele>
        <time>2022-04-15T10:26:18Z</time>
      </trkpt>
      <trkpt lat="45.49326" lon="5.77058">
        <ele>569.7</ele>
        <time>2022-04-15T10:26:20Z</time>
      </trkpt>
      <trkpt lat="45.49329" lon="5.77057">
        <ele>569.8</ele>
        <time>2022-04-15T10:26:21Z</time>
      </trkpt>
      <trkpt lat="45.49334" lon="5.77056">
        <ele>570</ele>
        <time>2022-04-15T10:26:23Z</time>
      </trkpt>
      <trkpt lat="45.49337" lon="5.77055">
        <ele>570.1</ele>
        <time>2022-04-15T10:26:24Z</time>
      </trkpt>
      <trkpt lat="45.49339" lon="5.77054">
        <ele>570.3</ele>
        <time>2022-04-15T10:26:25Z</time>
      </trkpt>
      <trkpt lat="45.49341" lon="5.77053">
        <ele>570.4</ele>
        <time>2022-04-15T10:26:27Z</time>
      </trkpt>
      <trkpt lat="45.49344" lon="5.77052">
        <ele>570.5</ele>
        <time>2022-04-15T10:26:28Z</time>
      </trkpt>
      <trkpt lat="45.49347" lon="5.77052">
        <ele>570.7</ele>
        <time>2022-04-15T10:26:30Z</time>
      </trkpt>
      <trkpt lat="45.49351" lon="5.77051">
        <ele>570.9</ele>
        <time>2022-04-15T10:26:32Z</time>
      </trkpt>
      <trkpt lat="45.49355" lon="5.77049">
        <ele>571.1</ele>
        <time>2022-04-15T10:26:33Z</time>
      </trkpt>
      <trkpt lat="45.49356" lon="5.77049">
        <ele>571.1</ele>
        <time>2022-04-15T10:26:34Z</time>
      </trkpt>
      <trkpt lat="45.49359" lon="5.77047">
        <ele>571.3</ele>
        <time>2022-04-15T10:26:35Z</time>
      </trkpt>
      <trkpt lat="45.49362" lon="5.77046">
        <ele>571.5</ele>
        <time>2022-04-15T10:26:37Z</time>
      </trkpt>
      <trkpt lat="45.49365" lon="5.77046">
        <ele>571.7</ele>
        <time>2022-04-15T10:26:38Z</time>
      </trkpt>
      <trkpt lat="45.49368" lon="5.77045">
        <ele>571.9</ele>
        <time>2022-04-15T10:26:39Z</time>
      </trkpt>
      <trkpt lat="45.4937" lon="5.77044">
        <ele>572</ele>
        <time>2022-04-15T10:26:41Z</time>
      </trkpt>
      <trkpt lat="45.49375" lon="5.77042">
        <ele>572.3</ele>
        <time>2022-04-15T10:26:43Z</time>
      </trkpt>
      <trkpt lat="45.49377" lon="5.77041">
        <ele>572.4</ele>
        <time>2022-04-15T10:26:44Z</time>
      </trkpt>
      <trkpt lat="45.49382" lon="5.7704">
        <ele>572.6</ele>
        <time>2022-04-15T10:26:46Z</time>
      </trkpt>
      <trkpt lat="45.49385" lon="5.77039">
        <ele>572.8</ele>
        <time>2022-04-15T10:26:48Z</time>
      </trkpt>
      <trkpt lat="45.49389" lon="5.77036">
        <ele>573.1</ele>
        <time>2022-04-15T10:26:50Z</time>
      </trkpt>
      <trkpt lat="45.49393" lon="5.77035">
        <ele>573.3</ele>
        <time>2022-04-15T10:26:52Z</time>
      </trkpt>
      <trkpt lat="45.49399" lon="5.77034">
        <ele>573.6</ele>
        <time>2022-04-15T10:26:54Z</time>
      </trkpt>
      <trkpt lat="45.49402" lon="5.77033">
        <ele>573.8</ele>
        <time>2022-04-15T10:26:56Z</time>
      </trkpt>
      <trkpt lat="45.49405" lon="5.77033">
        <ele>574</ele>
        <time>2022-04-15T10:26:57Z</time>
      </trkpt>
      <trkpt lat="45.49408" lon="5.7703">
        <ele>574.2</ele>
        <time>2022-04-15T10:26:59Z</time>
      </trkpt>
      <trkpt lat="45.49411" lon="5.77029">
        <ele>574.3</ele>
        <time>2022-04-15T10:27:00Z</time>
      </trkpt>
      <trkpt lat="45.49412" lon="5.77029">
        <ele>574.4</ele>
        <time>2022-04-15T10:27:01Z</time>
      </trkpt>
      <trkpt lat="45.49416" lon="5.77027">
        <ele>574.5</ele>
        <time>2022-04-15T10:27:02Z</time>
      </trkpt>
      <trkpt lat="45.49417" lon="5.77027">
        <ele>574.6</ele>
        <time>2022-04-15T10:27:03Z</time>
      </trkpt>
      <trkpt lat="45.49421" lon="5.77025">
        <ele>574.8</ele>
        <time>2022-04-15T10:27:05Z</time>
      </trkpt>
      <trkpt lat="45.49425" lon="5.77024">
        <ele>575</ele>
        <time>2022-04-15T10:27:06Z</time>
      </trkpt>
      <trkpt lat="45.49426" lon="5.77023">
        <ele>575</ele>
        <time>2022-04-15T10:27:07Z</time>
      </trkpt>
      <trkpt lat="45.49429" lon="5.77023">
        <ele>575.2</ele>
        <time>2022-04-15T10:27:08Z</time>
      </trkpt>
      <trkpt lat="45.49433" lon="5.77022">
        <ele>575.3</ele>
        <time>2022-04-15T10:27:10Z</time>
      </trkpt>
      <trkpt lat="45.49434" lon="5.77021">
        <ele>575.4</ele>
        <time>2022-04-15T10:27:11Z</time>
      </trkpt>
      <trkpt lat="45.49437" lon="5.7702">
        <ele>575.5</ele>
        <time>2022-04-15T10:27:12Z</time>
      </trkpt>
      <trkpt lat="45.4944" lon="5.7702">
        <ele>575.7</ele>
        <time>2022-04-15T10:27:13Z</time>
      </trkpt>
      <trkpt lat="45.49444" lon="5.77019">
        <ele>575.9</ele>
        <time>2022-04-15T10:27:15Z</time>
      </trkpt>
      <trkpt lat="45.49447" lon="5.77017">
        <ele>576</ele>
        <time>2022-04-15T10:27:16Z</time>
      </trkpt>
      <trkpt lat="45.49449" lon="5.77016">
        <ele>576.1</ele>
        <time>2022-04-15T10:27:17Z</time>
      </trkpt>
      <trkpt lat="45.49452" lon="5.77016">
        <ele>576.2</ele>
        <time>2022-04-15T10:27:18Z</time>
      </trkpt>
      <trkpt lat="45.49456" lon="5.77015">
        <ele>576.4</ele>
        <time>2022-04-15T10:27:20Z</time>
      </trkpt>
      <trkpt lat="45.4946" lon="5.77013">
        <ele>576.6</ele>
        <time>2022-04-15T10:27:22Z</time>
      </trkpt>
      <trkpt lat="45.49462" lon="5.77013">
        <ele>576.7</ele>
        <time>2022-04-15T10:27:23Z</time>
      </trkpt>
      <trkpt lat="45.49463" lon="5.77012">
        <ele>576.7</ele>
        <time>2022-04-15T10:27:24Z</time>
      </trkpt>
      <trkpt lat="45.49467" lon="5.77011">
        <ele>576.9</ele>
        <time>2022-04-15T10:27:25Z</time>
      </trkpt>
      <trkpt lat="45.49468" lon="5.7701">
        <ele>576.9</ele>
        <time>2022-04-15T10:27:26Z</time>
      </trkpt>
      <trkpt lat="45.49472" lon="5.7701">
        <ele>577.1</ele>
        <time>2022-04-15T10:27:28Z</time>
      </trkpt>
      <trkpt lat="45.49476" lon="5.77009">
        <ele>577.2</ele>
        <time>2022-04-15T10:27:30Z</time>
      </trkpt>
      <trkpt lat="45.49479" lon="5.77008">
        <ele>577.3</ele>
        <time>2022-04-15T10:27:31Z</time>
      </trkpt>
      <trkpt lat="45.49482" lon="5.77007">
        <ele>577.4</ele>
        <time>2022-04-15T10:27:33Z</time>
      </trkpt>
      <trkpt lat="45.49485" lon="5.77006">
        <ele>577.5</ele>
        <time>2022-04-15T10:27:34Z</time>
      </trkpt>
      <trkpt lat="45.49486" lon="5.77005">
        <ele>577.5</ele>
        <time>2022-04-15T10:27:35Z</time>
      </trkpt>
      <trkpt lat="45.4949" lon="5.77004">
        <ele>577.5</ele>
        <time>2022-04-15T10:27:36Z</time>
      </trkpt>
      <trkpt lat="45.49492" lon="5.77004">
        <ele>577.6</ele>
        <time>2022-04-15T10:27:37Z</time>
      </trkpt>
      <trkpt lat="45.49496" lon="5.77002">
        <ele>577.6</ele>
        <time>2022-04-15T10:27:39Z</time>
      </trkpt>
      <trkpt lat="45.49499" lon="5.77001">
        <ele>577.6</ele>
        <time>2022-04-15T10:27:40Z</time>
      </trkpt>
      <trkpt lat="45.49502" lon="5.77001">
        <ele>577.6</ele>
        <time>2022-04-15T10:27:41Z</time>
      </trkpt>
      <trkpt lat="45.49507" lon="5.76999">
        <ele>577.6</ele>
        <time>2022-04-15T10:27:42Z</time>
      </trkpt>
      <trkpt lat="45.49511" lon="5.76998">
        <ele>577.5</ele>
        <time>2022-04-15T10:27:43Z</time>
      </trkpt>
      <trkpt lat="45.49514" lon="5.76997">
        <ele>577.5</ele>
        <time>2022-04-15T10:27:45Z</time>
      </trkpt>
      <trkpt lat="45.49518" lon="5.76996">
        <ele>577.4</ele>
        <time>2022-04-15T10:27:46Z</time>
      </trkpt>
      <trkpt lat="45.49522" lon="5.76994">
        <ele>577.4</ele>
        <time>2022-04-15T10:27:47Z</time>
      </trkpt>
      <trkpt lat="45.49527" lon="5.76993">
        <ele>577.3</ele>
        <time>2022-04-15T10:27:48Z</time>
      </trkpt>
      <trkpt lat="45.49533" lon="5.76991">
        <ele>577.2</ele>
        <time>2022-04-15T10:27:50Z</time>
      </trkpt>
      <trkpt lat="45.49537" lon="5.7699">
        <ele>577.1</ele>
        <time>2022-04-15T10:27:51Z</time>
      </trkpt>
      <trkpt lat="45.49542" lon="5.76989">
        <ele>577</ele>
        <time>2022-04-15T10:27:52Z</time>
      </trkpt>
      <trkpt lat="45.49546" lon="5.76987">
        <ele>576.8</ele>
        <time>2022-04-15T10:27:53Z</time>
      </trkpt>
      <trkpt lat="45.49556" lon="5.76984">
        <ele>576.6</ele>
        <time>2022-04-15T10:27:55Z</time>
      </trkpt>
      <trkpt lat="45.49561" lon="5.76983">
        <ele>576.4</ele>
        <time>2022-04-15T10:27:56Z</time>
      </trkpt>
      <trkpt lat="45.49566" lon="5.76981">
        <ele>576.3</ele>
        <time>2022-04-15T10:27:57Z</time>
      </trkpt>
      <trkpt lat="45.4957" lon="5.7698">
        <ele>576.2</ele>
        <time>2022-04-15T10:27:58Z</time>
      </trkpt>
      <trkpt lat="45.49575" lon="5.76979">
        <ele>576.1</ele>
        <time>2022-04-15T10:27:59Z</time>
      </trkpt>
      <trkpt lat="45.49579" lon="5.76977">
        <ele>576</ele>
        <time>2022-04-15T10:28:00Z</time>
      </trkpt>
      <trkpt lat="45.49584" lon="5.76976">
        <ele>575.9</ele>
        <time>2022-04-15T10:28:01Z</time>
      </trkpt>
      <trkpt lat="45.49589" lon="5.76975">
        <ele>575.8</ele>
        <time>2022-04-15T10:28:02Z</time>
      </trkpt>
      <trkpt lat="45.49593" lon="5.76974">
        <ele>575.7</ele>
        <time>2022-04-15T10:28:03Z</time>
      </trkpt>
      <trkpt lat="45.49598" lon="5.76974">
        <ele>575.6</ele>
        <time>2022-04-15T10:28:04Z</time>
      </trkpt>
      <trkpt lat="45.49601" lon="5.76973">
        <ele>575.5</ele>
        <time>2022-04-15T10:28:05Z</time>
      </trkpt>
      <trkpt lat="45.49606" lon="5.76974">
        <ele>575.4</ele>
        <time>2022-04-15T10:28:06Z</time>
      </trkpt>
      <trkpt lat="45.4961" lon="5.76974">
        <ele>575.3</ele>
        <time>2022-04-15T10:28:07Z</time>
      </trkpt>
      <trkpt lat="45.49617" lon="5.76975">
        <ele>575.2</ele>
        <time>2022-04-15T10:28:08Z</time>
      </trkpt>
      <trkpt lat="45.49624" lon="5.76976">
        <ele>575</ele>
        <time>2022-04-15T10:28:10Z</time>
      </trkpt>
      <trkpt lat="45.49628" lon="5.76977">
        <ele>574.9</ele>
        <time>2022-04-15T10:28:11Z</time>
      </trkpt>
      <trkpt lat="45.49634" lon="5.76978">
        <ele>574.8</ele>
        <time>2022-04-15T10:28:12Z</time>
      </trkpt>
      <trkpt lat="45.49639" lon="5.76979">
        <ele>574.7</ele>
        <time>2022-04-15T10:28:13Z</time>
      </trkpt>
      <trkpt lat="45.49644" lon="5.7698">
        <ele>574.6</ele>
        <time>2022-04-15T10:28:14Z</time>
      </trkpt>
      <trkpt lat="45.49649" lon="5.76981">
        <ele>574.5</ele>
        <time>2022-04-15T10:28:15Z</time>
      </trkpt>
      <trkpt lat="45.49654" lon="5.76982">
        <ele>574.4</ele>
        <time>2022-04-15T10:28:16Z</time>
      </trkpt>
      <trkpt lat="45.49659" lon="5.76983">
        <ele>574.3</ele>
        <time>2022-04-15T10:28:17Z</time>
      </trkpt>
      <trkpt lat="45.49664" lon="5.76984">
        <ele>574.2</ele>
        <time>2022-04-15T10:28:18Z</time>
      </trkpt>
      <trkpt lat="45.4967" lon="5.76985">
        <ele>574.1</ele>
        <time>2022-04-15T10:28:19Z</time>
      </trkpt>
      <trkpt lat="45.49675" lon="5.76986">
        <ele>574</ele>
        <time>2022-04-15T10:28:20Z</time>
      </trkpt>
      <trkpt lat="45.4968" lon="5.76986">
        <ele>573.9</ele>
        <time>2022-04-15T10:28:21Z</time>
      </trkpt>
      <trkpt lat="45.49686" lon="5.76987">
        <ele>573.8</ele>
        <time>2022-04-15T10:28:22Z</time>
      </trkpt>
      <trkpt lat="45.49691" lon="5.76988">
        <ele>573.7</ele>
        <time>2022-04-15T10:28:23Z</time>
      </trkpt>
      <trkpt lat="45.49697" lon="5.76989">
        <ele>573.6</ele>
        <time>2022-04-15T10:28:24Z</time>
      </trkpt>
      <trkpt lat="45.49703" lon="5.7699">
        <ele>573.5</ele>
        <time>2022-04-15T10:28:25Z</time>
      </trkpt>
      <trkpt lat="45.49709" lon="5.76991">
        <ele>573.3</ele>
        <time>2022-04-15T10:28:26Z</time>
      </trkpt>
      <trkpt lat="45.49715" lon="5.76992">
        <ele>573.2</ele>
        <time>2022-04-15T10:28:27Z</time>
      </trkpt>
      <trkpt lat="45.49721" lon="5.76993">
        <ele>573</ele>
        <time>2022-04-15T10:28:28Z</time>
      </trkpt>
      <trkpt lat="45.49727" lon="5.76994">
        <ele>572.9</ele>
        <time>2022-04-15T10:28:29Z</time>
      </trkpt>
      <trkpt lat="45.49733" lon="5.76995">
        <ele>572.7</ele>
        <time>2022-04-15T10:28:30Z</time>
      </trkpt>
      <trkpt lat="45.49739" lon="5.76995">
        <ele>572.6</ele>
        <time>2022-04-15T10:28:31Z</time>
      </trkpt>
      <trkpt lat="45.49746" lon="5.76995">
        <ele>572.5</ele>
        <time>2022-04-15T10:28:32Z</time>
      </trkpt>
      <trkpt lat="45.49751" lon="5.76997">
        <ele>572.4</ele>
        <time>2022-04-15T10:28:33Z</time>
      </trkpt>
      <trkpt lat="45.49757" lon="5.76998">
        <ele>572.3</ele>
        <time>2022-04-15T10:28:34Z</time>
      </trkpt>
      <trkpt lat="45.49763" lon="5.76999">
        <ele>572.2</ele>
        <time>2022-04-15T10:28:35Z</time>
      </trkpt>
      <trkpt lat="45.49769" lon="5.77">
        <ele>572.2</ele>
        <time>2022-04-15T10:28:36Z</time>
      </trkpt>
      <trkpt lat="45.49775" lon="5.77">
        <ele>572.1</ele>
        <time>2022-04-15T10:28:37Z</time>
      </trkpt>
      <trkpt lat="45.4978" lon="5.77001">
        <ele>572</ele>
        <time>2022-04-15T10:28:38Z</time>
      </trkpt>
      <trkpt lat="45.49786" lon="5.77001">
        <ele>572</ele>
        <time>2022-04-15T10:28:39Z</time>
      </trkpt>
      <trkpt lat="45.49792" lon="5.77">
        <ele>571.9</ele>
        <time>2022-04-15T10:28:40Z</time>
      </trkpt>
      <trkpt lat="45.49797" lon="5.76999">
        <ele>571.8</ele>
        <time>2022-04-15T10:28:41Z</time>
      </trkpt>
      <trkpt lat="45.49803" lon="5.76997">
        <ele>571.7</ele>
        <time>2022-04-15T10:28:42Z</time>
      </trkpt>
      <trkpt lat="45.49809" lon="5.76996">
        <ele>571.6</ele>
        <time>2022-04-15T10:28:43Z</time>
      </trkpt>
      <trkpt lat="45.49814" lon="5.76995">
        <ele>571.5</ele>
        <time>2022-04-15T10:28:44Z</time>
      </trkpt>
      <trkpt lat="45.4982" lon="5.76993">
        <ele>571.4</ele>
        <time>2022-04-15T10:28:45Z</time>
      </trkpt>
      <trkpt lat="45.49826" lon="5.76992">
        <ele>571.3</ele>
        <time>2022-04-15T10:28:46Z</time>
      </trkpt>
      <trkpt lat="45.49832" lon="5.7699">
        <ele>571.2</ele>
        <time>2022-04-15T10:28:47Z</time>
      </trkpt>
      <trkpt lat="45.49838" lon="5.76988">
        <ele>571</ele>
        <time>2022-04-15T10:28:48Z</time>
      </trkpt>
      <trkpt lat="45.49844" lon="5.76986">
        <ele>570.9</ele>
        <time>2022-04-15T10:28:49Z</time>
      </trkpt>
      <trkpt lat="45.4985" lon="5.76984">
        <ele>570.8</ele>
        <time>2022-04-15T10:28:50Z</time>
      </trkpt>
      <trkpt lat="45.49855" lon="5.76982">
        <ele>570.6</ele>
        <time>2022-04-15T10:28:51Z</time>
      </trkpt>
      <trkpt lat="45.49861" lon="5.7698">
        <ele>570.4</ele>
        <time>2022-04-15T10:28:52Z</time>
      </trkpt>
      <trkpt lat="45.49867" lon="5.76978">
        <ele>570.2</ele>
        <time>2022-04-15T10:28:53Z</time>
      </trkpt>
      <trkpt lat="45.49872" lon="5.76976">
        <ele>570</ele>
        <time>2022-04-15T10:28:54Z</time>
      </trkpt>
      <trkpt lat="45.49878" lon="5.76975">
        <ele>569.8</ele>
        <time>2022-04-15T10:28:55Z</time>
      </trkpt>
      <trkpt lat="45.49884" lon="5.76973">
        <ele>569.6</ele>
        <time>2022-04-15T10:28:56Z</time>
      </trkpt>
      <trkpt lat="45.49889" lon="5.76971">
        <ele>569.4</ele>
        <time>2022-04-15T10:28:57Z</time>
      </trkpt>
      <trkpt lat="45.49895" lon="5.76969">
        <ele>569.2</ele>
        <time>2022-04-15T10:28:58Z</time>
      </trkpt>
      <trkpt lat="45.49901" lon="5.76968">
        <ele>569</ele>
        <time>2022-04-15T10:28:59Z</time>
      </trkpt>
      <trkpt lat="45.49907" lon="5.76966">
        <ele>568.8</ele>
        <time>2022-04-15T10:29:00Z</time>
      </trkpt>
      <trkpt lat="45.49912" lon="5.76964">
        <ele>568.7</ele>
        <time>2022-04-15T10:29:01Z</time>
      </trkpt>
      <trkpt lat="45.49918" lon="5.76962">
        <ele>568.5</ele>
        <time>2022-04-15T10:29:02Z</time>
      </trkpt>
      <trkpt lat="45.49924" lon="5.7696">
        <ele>568.4</ele>
        <time>2022-04-15T10:29:03Z</time>
      </trkpt>
      <trkpt lat="45.4993" lon="5.76958">
        <ele>568.2</ele>
        <time>2022-04-15T10:29:04Z</time>
      </trkpt>
      <trkpt lat="45.49937" lon="5.76957">
        <ele>568</ele>
        <time>2022-04-15T10:29:05Z</time>
      </trkpt>
      <trkpt lat="45.49943" lon="5.76955">
        <ele>567.7</ele>
        <time>2022-04-15T10:29:06Z</time>
      </trkpt>
      <trkpt lat="45.49949" lon="5.76953">
        <ele>567.5</ele>
        <time>2022-04-15T10:29:07Z</time>
      </trkpt>
      <trkpt lat="45.49956" lon="5.76951">
        <ele>567.3</ele>
        <time>2022-04-15T10:29:08Z</time>
      </trkpt>
      <trkpt lat="45.49962" lon="5.7695">
        <ele>567</ele>
        <time>2022-04-15T10:29:09Z</time>
      </trkpt>
      <trkpt lat="45.49968" lon="5.76947">
        <ele>566.8</ele>
        <time>2022-04-15T10:29:10Z</time>
      </trkpt>
      <trkpt lat="45.49975" lon="5.76945">
        <ele>566.6</ele>
        <time>2022-04-15T10:29:11Z</time>
      </trkpt>
      <trkpt lat="45.49981" lon="5.76943">
        <ele>566.3</ele>
        <time>2022-04-15T10:29:12Z</time>
      </trkpt>
      <trkpt lat="45.49988" lon="5.76941">
        <ele>566.1</ele>
        <time>2022-04-15T10:29:13Z</time>
      </trkpt>
      <trkpt lat="45.49994" lon="5.76939">
        <ele>565.9</ele>
        <time>2022-04-15T10:29:14Z</time>
      </trkpt>
      <trkpt lat="45.50001" lon="5.76937">
        <ele>565.6</ele>
        <time>2022-04-15T10:29:15Z</time>
      </trkpt>
      <trkpt lat="45.50008" lon="5.76935">
        <ele>565.4</ele>
        <time>2022-04-15T10:29:16Z</time>
      </trkpt>
      <trkpt lat="45.50015" lon="5.76934">
        <ele>565.1</ele>
        <time>2022-04-15T10:29:17Z</time>
      </trkpt>
      <trkpt lat="45.50021" lon="5.76932">
        <ele>564.9</ele>
        <time>2022-04-15T10:29:18Z</time>
      </trkpt>
      <trkpt lat="45.50028" lon="5.7693">
        <ele>564.6</ele>
        <time>2022-04-15T10:29:19Z</time>
      </trkpt>
      <trkpt lat="45.50035" lon="5.76928">
        <ele>564.3</ele>
        <time>2022-04-15T10:29:20Z</time>
      </trkpt>
      <trkpt lat="45.50041" lon="5.76926">
        <ele>564.1</ele>
        <time>2022-04-15T10:29:21Z</time>
      </trkpt>
      <trkpt lat="45.50048" lon="5.76924">
        <ele>563.8</ele>
        <time>2022-04-15T10:29:22Z</time>
      </trkpt>
      <trkpt lat="45.50055" lon="5.76921">
        <ele>563.5</ele>
        <time>2022-04-15T10:29:23Z</time>
      </trkpt>
      <trkpt lat="45.50062" lon="5.76919">
        <ele>563.3</ele>
        <time>2022-04-15T10:29:24Z</time>
      </trkpt>
      <trkpt lat="45.50069" lon="5.76917">
        <ele>563</ele>
        <time>2022-04-15T10:29:25Z</time>
      </trkpt>
      <trkpt lat="45.50075" lon="5.76914">
        <ele>562.8</ele>
        <time>2022-04-15T10:29:26Z</time>
      </trkpt>
      <trkpt lat="45.50082" lon="5.76911">
        <ele>562.5</ele>
        <time>2022-04-15T10:29:27Z</time>
      </trkpt>
      <trkpt lat="45.50089" lon="5.76909">
        <ele>562.2</ele>
        <time>2022-04-15T10:29:28Z</time>
      </trkpt>
      <trkpt lat="45.50096" lon="5.76908">
        <ele>562</ele>
        <time>2022-04-15T10:29:29Z</time>
      </trkpt>
      <trkpt lat="45.50104" lon="5.76906">
        <ele>561.8</ele>
        <time>2022-04-15T10:29:30Z</time>
      </trkpt>
      <trkpt lat="45.50111" lon="5.76904">
        <ele>561.7</ele>
        <time>2022-04-15T10:29:31Z</time>
      </trkpt>
      <trkpt lat="45.50118" lon="5.76903">
        <ele>561.5</ele>
        <time>2022-04-15T10:29:32Z</time>
      </trkpt>
      <trkpt lat="45.50126" lon="5.76901">
        <ele>561.4</ele>
        <time>2022-04-15T10:29:33Z</time>
      </trkpt>
      <trkpt lat="45.50133" lon="5.76898">
        <ele>561.3</ele>
        <time>2022-04-15T10:29:34Z</time>
      </trkpt>
      <trkpt lat="45.5014" lon="5.76896">
        <ele>561.2</ele>
        <time>2022-04-15T10:29:35Z</time>
      </trkpt>
      <trkpt lat="45.50147" lon="5.76892">
        <ele>561.2</ele>
        <time>2022-04-15T10:29:36Z</time>
      </trkpt>
      <trkpt lat="45.50153" lon="5.76888">
        <ele>561.2</ele>
        <time>2022-04-15T10:29:37Z</time>
      </trkpt>
      <trkpt lat="45.50159" lon="5.76883">
        <ele>561.2</ele>
        <time>2022-04-15T10:29:38Z</time>
      </trkpt>
      <trkpt lat="45.50164" lon="5.76876">
        <ele>561.2</ele>
        <time>2022-04-15T10:29:39Z</time>
      </trkpt>
      <trkpt lat="45.50168" lon="5.76868">
        <ele>561.2</ele>
        <time>2022-04-15T10:29:40Z</time>
      </trkpt>
      <trkpt lat="45.50171" lon="5.7686">
        <ele>561.2</ele>
        <time>2022-04-15T10:29:41Z</time>
      </trkpt>
      <trkpt lat="45.50173" lon="5.76851">
        <ele>561.2</ele>
        <time>2022-04-15T10:29:42Z</time>
      </trkpt>
      <trkpt lat="45.50174" lon="5.76842">
        <ele>561.1</ele>
        <time>2022-04-15T10:29:43Z</time>
      </trkpt>
      <trkpt lat="45.50175" lon="5.76833">
        <ele>561.1</ele>
        <time>2022-04-15T10:29:44Z</time>
      </trkpt>
      <trkpt lat="45.50174" lon="5.76825">
        <ele>561.1</ele>
        <time>2022-04-15T10:29:45Z</time>
      </trkpt>
      <trkpt lat="45.50174" lon="5.76817">
        <ele>561.1</ele>
        <time>2022-04-15T10:29:46Z</time>
      </trkpt>
      <trkpt lat="45.50174" lon="5.76808">
        <ele>561.1</ele>
        <time>2022-04-15T10:29:47Z</time>
      </trkpt>
      <trkpt lat="45.50174" lon="5.768">
        <ele>561.1</ele>
        <time>2022-04-15T10:29:48Z</time>
      </trkpt>
      <trkpt lat="45.50174" lon="5.76793">
        <ele>561.1</ele>
        <time>2022-04-15T10:29:49Z</time>
      </trkpt>
      <trkpt lat="45.50175" lon="5.76785">
        <ele>561.2</ele>
        <time>2022-04-15T10:29:50Z</time>
      </trkpt>
      <trkpt lat="45.50175" lon="5.76777">
        <ele>561.2</ele>
        <time>2022-04-15T10:29:51Z</time>
      </trkpt>
      <trkpt lat="45.50176" lon="5.7677">
        <ele>561.2</ele>
        <time>2022-04-15T10:29:52Z</time>
      </trkpt>
      <trkpt lat="45.50178" lon="5.76763">
        <ele>561.2</ele>
        <time>2022-04-15T10:29:53Z</time>
      </trkpt>
      <trkpt lat="45.5018" lon="5.76756">
        <ele>561.1</ele>
        <time>2022-04-15T10:29:54Z</time>
      </trkpt>
      <trkpt lat="45.50182" lon="5.76749">
        <ele>561.1</ele>
        <time>2022-04-15T10:29:55Z</time>
      </trkpt>
      <trkpt lat="45.50185" lon="5.76743">
        <ele>561.1</ele>
        <time>2022-04-15T10:29:56Z</time>
      </trkpt>
      <trkpt lat="45.50188" lon="5.76737">
        <ele>561.1</ele>
        <time>2022-04-15T10:29:57Z</time>
      </trkpt>
      <trkpt lat="45.50192" lon="5.76731">
        <ele>561.1</ele>
        <time>2022-04-15T10:29:58Z</time>
      </trkpt>
      <trkpt lat="45.50196" lon="5.76726">
        <ele>561</ele>
        <time>2022-04-15T10:29:59Z</time>
      </trkpt>
      <trkpt lat="45.50199" lon="5.76722">
        <ele>561</ele>
        <time>2022-04-15T10:30:00Z</time>
      </trkpt>
      <trkpt lat="45.50204" lon="5.76718">
        <ele>561</ele>
        <time>2022-04-15T10:30:01Z</time>
      </trkpt>
      <trkpt lat="45.50208" lon="5.76714">
        <ele>561</ele>
        <time>2022-04-15T10:30:02Z</time>
      </trkpt>
      <trkpt lat="45.50212" lon="5.76711">
        <ele>560.9</ele>
        <time>2022-04-15T10:30:03Z</time>
      </trkpt>
      <trkpt lat="45.50217" lon="5.76708">
        <ele>560.9</ele>
        <time>2022-04-15T10:30:04Z</time>
      </trkpt>
      <trkpt lat="45.50222" lon="5.76706">
        <ele>560.8</ele>
        <time>2022-04-15T10:30:05Z</time>
      </trkpt>
      <trkpt lat="45.50227" lon="5.76704">
        <ele>560.8</ele>
        <time>2022-04-15T10:30:06Z</time>
      </trkpt>
      <trkpt lat="45.50232" lon="5.76703">
        <ele>560.8</ele>
        <time>2022-04-15T10:30:07Z</time>
      </trkpt>
      <trkpt lat="45.50237" lon="5.76702">
        <ele>560.7</ele>
        <time>2022-04-15T10:30:08Z</time>
      </trkpt>
      <trkpt lat="45.50242" lon="5.76703">
        <ele>560.7</ele>
        <time>2022-04-15T10:30:09Z</time>
      </trkpt>
      <trkpt lat="45.50247" lon="5.76703">
        <ele>560.6</ele>
        <time>2022-04-15T10:30:10Z</time>
      </trkpt>
      <trkpt lat="45.50252" lon="5.76704">
        <ele>560.6</ele>
        <time>2022-04-15T10:30:11Z</time>
      </trkpt>
      <trkpt lat="45.50257" lon="5.76705">
        <ele>560.6</ele>
        <time>2022-04-15T10:30:12Z</time>
      </trkpt>
      <trkpt lat="45.50262" lon="5.76707">
        <ele>560.5</ele>
        <time>2022-04-15T10:30:13Z</time>
      </trkpt>
      <trkpt lat="45.50267" lon="5.76708">
        <ele>560.5</ele>
        <time>2022-04-15T10:30:14Z</time>
      </trkpt>
      <trkpt lat="45.50271" lon="5.7671">
        <ele>560.4</ele>
        <time>2022-04-15T10:30:15Z</time>
      </trkpt>
      <trkpt lat="45.50277" lon="5.76712">
        <ele>560.4</ele>
        <time>2022-04-15T10:30:16Z</time>
      </trkpt>
      <trkpt lat="45.50282" lon="5.76713">
        <ele>560.3</ele>
        <time>2022-04-15T10:30:17Z</time>
      </trkpt>
      <trkpt lat="45.50287" lon="5.76715">
        <ele>560.3</ele>
        <time>2022-04-15T10:30:18Z</time>
      </trkpt>
      <trkpt lat="45.50293" lon="5.76716">
        <ele>560.2</ele>
        <time>2022-04-15T10:30:19Z</time>
      </trkpt>
      <trkpt lat="45.50298" lon="5.76717">
        <ele>560.1</ele>
        <time>2022-04-15T10:30:20Z</time>
      </trkpt>
      <trkpt lat="45.50304" lon="5.76719">
        <ele>560.1</ele>
        <time>2022-04-15T10:30:21Z</time>
      </trkpt>
      <trkpt lat="45.50309" lon="5.76721">
        <ele>560</ele>
        <time>2022-04-15T10:30:22Z</time>
      </trkpt>
      <trkpt lat="45.50314" lon="5.76723">
        <ele>560</ele>
        <time>2022-04-15T10:30:23Z</time>
      </trkpt>
      <trkpt lat="45.5032" lon="5.76725">
        <ele>560</ele>
        <time>2022-04-15T10:30:24Z</time>
      </trkpt>
      <trkpt lat="45.50325" lon="5.76726">
        <ele>560</ele>
        <time>2022-04-15T10:30:25Z</time>
      </trkpt>
      <trkpt lat="45.5033" lon="5.76728">
        <ele>560</ele>
        <time>2022-04-15T10:30:26Z</time>
      </trkpt>
      <trkpt lat="45.50336" lon="5.7673">
        <ele>560</ele>
        <time>2022-04-15T10:30:27Z</time>
      </trkpt>
      <trkpt lat="45.50341" lon="5.76731">
        <ele>559.9</ele>
        <time>2022-04-15T10:30:28Z</time>
      </trkpt>
      <trkpt lat="45.50346" lon="5.76733">
        <ele>559.9</ele>
        <time>2022-04-15T10:30:29Z</time>
      </trkpt>
      <trkpt lat="45.50352" lon="5.76735">
        <ele>559.9</ele>
        <time>2022-04-15T10:30:30Z</time>
      </trkpt>
      <trkpt lat="45.50357" lon="5.76737">
        <ele>559.8</ele>
        <time>2022-04-15T10:30:31Z</time>
      </trkpt>
      <trkpt lat="45.50362" lon="5.76739">
        <ele>559.8</ele>
        <time>2022-04-15T10:30:32Z</time>
      </trkpt>
      <trkpt lat="45.50367" lon="5.76741">
        <ele>559.8</ele>
        <time>2022-04-15T10:30:33Z</time>
      </trkpt>
      <trkpt lat="45.50372" lon="5.76742">
        <ele>559.7</ele>
        <time>2022-04-15T10:30:34Z</time>
      </trkpt>
      <trkpt lat="45.50378" lon="5.76744">
        <ele>559.7</ele>
        <time>2022-04-15T10:30:35Z</time>
      </trkpt>
      <trkpt lat="45.50383" lon="5.76745">
        <ele>559.7</ele>
        <time>2022-04-15T10:30:36Z</time>
      </trkpt>
      <trkpt lat="45.50388" lon="5.76746">
        <ele>559.7</ele>
        <time>2022-04-15T10:30:37Z</time>
      </trkpt>
      <trkpt lat="45.50394" lon="5.76747">
        <ele>559.7</ele>
        <time>2022-04-15T10:30:38Z</time>
      </trkpt>
      <trkpt lat="45.50399" lon="5.76747">
        <ele>559.7</ele>
        <time>2022-04-15T10:30:39Z</time>
      </trkpt>
      <trkpt lat="45.50403" lon="5.76748">
        <ele>559.7</ele>
        <time>2022-04-15T10:30:40Z</time>
      </trkpt>
      <trkpt lat="45.50408" lon="5.76749">
        <ele>559.7</ele>
        <time>2022-04-15T10:30:41Z</time>
      </trkpt>
      <trkpt lat="45.50413" lon="5.7675">
        <ele>559.7</ele>
        <time>2022-04-15T10:30:42Z</time>
      </trkpt>
      <trkpt lat="45.50418" lon="5.7675">
        <ele>559.7</ele>
        <time>2022-04-15T10:30:43Z</time>
      </trkpt>
      <trkpt lat="45.50422" lon="5.76751">
        <ele>559.7</ele>
        <time>2022-04-15T10:30:44Z</time>
      </trkpt>
      <trkpt lat="45.50427" lon="5.76753">
        <ele>559.6</ele>
        <time>2022-04-15T10:30:45Z</time>
      </trkpt>
      <trkpt lat="45.50431" lon="5.76754">
        <ele>559.6</ele>
        <time>2022-04-15T10:30:46Z</time>
      </trkpt>
      <trkpt lat="45.50436" lon="5.76754">
        <ele>559.6</ele>
        <time>2022-04-15T10:30:47Z</time>
      </trkpt>
      <trkpt lat="45.5044" lon="5.76755">
        <ele>559.6</ele>
        <time>2022-04-15T10:30:48Z</time>
      </trkpt>
      <trkpt lat="45.50445" lon="5.76755">
        <ele>559.6</ele>
        <time>2022-04-15T10:30:49Z</time>
      </trkpt>
      <trkpt lat="45.50449" lon="5.76756">
        <ele>559.6</ele>
        <time>2022-04-15T10:30:50Z</time>
      </trkpt>
      <trkpt lat="45.50453" lon="5.76757">
        <ele>559.5</ele>
        <time>2022-04-15T10:30:51Z</time>
      </trkpt>
      <trkpt lat="45.50456" lon="5.76757">
        <ele>559.5</ele>
        <time>2022-04-15T10:30:52Z</time>
      </trkpt>
      <trkpt lat="45.50462" lon="5.76758">
        <ele>559.5</ele>
        <time>2022-04-15T10:30:53Z</time>
      </trkpt>
      <trkpt lat="45.50467" lon="5.76759">
        <ele>559.5</ele>
        <time>2022-04-15T10:30:54Z</time>
      </trkpt>
      <trkpt lat="45.50472" lon="5.7676">
        <ele>559.4</ele>
        <time>2022-04-15T10:30:55Z</time>
      </trkpt>
      <trkpt lat="45.50477" lon="5.76761">
        <ele>559.4</ele>
        <time>2022-04-15T10:30:56Z</time>
      </trkpt>
      <trkpt lat="45.50482" lon="5.76762">
        <ele>559.4</ele>
        <time>2022-04-15T10:30:57Z</time>
      </trkpt>
      <trkpt lat="45.50487" lon="5.76763">
        <ele>559.4</ele>
        <time>2022-04-15T10:30:58Z</time>
      </trkpt>
      <trkpt lat="45.50492" lon="5.76764">
        <ele>559.4</ele>
        <time>2022-04-15T10:30:59Z</time>
      </trkpt>
      <trkpt lat="45.50497" lon="5.76765">
        <ele>559.4</ele>
        <time>2022-04-15T10:31:00Z</time>
      </trkpt>
      <trkpt lat="45.50502" lon="5.76767">
        <ele>559.3</ele>
        <time>2022-04-15T10:31:01Z</time>
      </trkpt>
      <trkpt lat="45.50506" lon="5.76768">
        <ele>559.3</ele>
        <time>2022-04-15T10:31:02Z</time>
      </trkpt>
      <trkpt lat="45.50511" lon="5.7677">
        <ele>559.3</ele>
        <time>2022-04-15T10:31:03Z</time>
      </trkpt>
      <trkpt lat="45.50516" lon="5.76772">
        <ele>559.3</ele>
        <time>2022-04-15T10:31:04Z</time>
      </trkpt>
      <trkpt lat="45.5052" lon="5.76774">
        <ele>559.3</ele>
        <time>2022-04-15T10:31:05Z</time>
      </trkpt>
      <trkpt lat="45.50525" lon="5.76776">
        <ele>559.3</ele>
        <time>2022-04-15T10:31:06Z</time>
      </trkpt>
      <trkpt lat="45.5053" lon="5.76778">
        <ele>559.3</ele>
        <time>2022-04-15T10:31:07Z</time>
      </trkpt>
      <trkpt lat="45.50534" lon="5.76781">
        <ele>559.3</ele>
        <time>2022-04-15T10:31:08Z</time>
      </trkpt>
      <trkpt lat="45.50539" lon="5.76785">
        <ele>559.3</ele>
        <time>2022-04-15T10:31:09Z</time>
      </trkpt>
      <trkpt lat="45.50543" lon="5.76788">
        <ele>559.2</ele>
        <time>2022-04-15T10:31:10Z</time>
      </trkpt>
      <trkpt lat="45.50548" lon="5.76791">
        <ele>559.2</ele>
        <time>2022-04-15T10:31:11Z</time>
      </trkpt>
      <trkpt lat="45.50552" lon="5.76795">
        <ele>559.1</ele>
        <time>2022-04-15T10:31:12Z</time>
      </trkpt>
      <trkpt lat="45.50556" lon="5.76799">
        <ele>559.1</ele>
        <time>2022-04-15T10:31:13Z</time>
      </trkpt>
      <trkpt lat="45.50559" lon="5.76803">
        <ele>559.1</ele>
        <time>2022-04-15T10:31:14Z</time>
      </trkpt>
      <trkpt lat="45.50564" lon="5.76807">
        <ele>559</ele>
        <time>2022-04-15T10:31:15Z</time>
      </trkpt>
      <trkpt lat="45.50568" lon="5.76812">
        <ele>559</ele>
        <time>2022-04-15T10:31:16Z</time>
      </trkpt>
      <trkpt lat="45.50571" lon="5.76817">
        <ele>559</ele>
        <time>2022-04-15T10:31:17Z</time>
      </trkpt>
      <trkpt lat="45.50575" lon="5.76821">
        <ele>559</ele>
        <time>2022-04-15T10:31:18Z</time>
      </trkpt>
      <trkpt lat="45.5058" lon="5.76825">
        <ele>559</ele>
        <time>2022-04-15T10:31:19Z</time>
      </trkpt>
      <trkpt lat="45.50584" lon="5.76829">
        <ele>559</ele>
        <time>2022-04-15T10:31:20Z</time>
      </trkpt>
      <trkpt lat="45.50588" lon="5.76833">
        <ele>559</ele>
        <time>2022-04-15T10:31:21Z</time>
      </trkpt>
      <trkpt lat="45.50592" lon="5.76837">
        <ele>559</ele>
        <time>2022-04-15T10:31:22Z</time>
      </trkpt>
      <trkpt lat="45.50596" lon="5.7684">
        <ele>559</ele>
        <time>2022-04-15T10:31:23Z</time>
      </trkpt>
      <trkpt lat="45.506" lon="5.76844">
        <ele>559</ele>
        <time>2022-04-15T10:31:24Z</time>
      </trkpt>
      <trkpt lat="45.50604" lon="5.76847">
        <ele>559.1</ele>
        <time>2022-04-15T10:31:25Z</time>
      </trkpt>
      <trkpt lat="45.50607" lon="5.76849">
        <ele>559.1</ele>
        <time>2022-04-15T10:31:26Z</time>
      </trkpt>
      <trkpt lat="45.50612" lon="5.76852">
        <ele>559.1</ele>
        <time>2022-04-15T10:31:27Z</time>
      </trkpt>
      <trkpt lat="45.50616" lon="5.76855">
        <ele>559.1</ele>
        <time>2022-04-15T10:31:28Z</time>
      </trkpt>
      <trkpt lat="45.5062" lon="5.76857">
        <ele>559.1</ele>
        <time>2022-04-15T10:31:29Z</time>
      </trkpt>
      <trkpt lat="45.50625" lon="5.76859">
        <ele>559</ele>
        <time>2022-04-15T10:31:30Z</time>
      </trkpt>
      <trkpt lat="45.5063" lon="5.76861">
        <ele>559</ele>
        <time>2022-04-15T10:31:31Z</time>
      </trkpt>
      <trkpt lat="45.50634" lon="5.76861">
        <ele>559</ele>
        <time>2022-04-15T10:31:32Z</time>
      </trkpt>
      <trkpt lat="45.5064" lon="5.76862">
        <ele>558.9</ele>
        <time>2022-04-15T10:31:33Z</time>
      </trkpt>
      <trkpt lat="45.50645" lon="5.76862">
        <ele>558.8</ele>
        <time>2022-04-15T10:31:34Z</time>
      </trkpt>
      <trkpt lat="45.5065" lon="5.76861">
        <ele>558.8</ele>
        <time>2022-04-15T10:31:35Z</time>
      </trkpt>
      <trkpt lat="45.50656" lon="5.76858">
        <ele>558.7</ele>
        <time>2022-04-15T10:31:36Z</time>
      </trkpt>
      <trkpt lat="45.50661" lon="5.76855">
        <ele>558.7</ele>
        <time>2022-04-15T10:31:37Z</time>
      </trkpt>
      <trkpt lat="45.50665" lon="5.76852">
        <ele>558.7</ele>
        <time>2022-04-15T10:31:38Z</time>
      </trkpt>
      <trkpt lat="45.5067" lon="5.76848">
        <ele>558.6</ele>
        <time>2022-04-15T10:31:39Z</time>
      </trkpt>
      <trkpt lat="45.50674" lon="5.76844">
        <ele>558.6</ele>
        <time>2022-04-15T10:31:40Z</time>
      </trkpt>
      <trkpt lat="45.50679" lon="5.7684">
        <ele>558.5</ele>
        <time>2022-04-15T10:31:41Z</time>
      </trkpt>
      <trkpt lat="45.50683" lon="5.76836">
        <ele>558.5</ele>
        <time>2022-04-15T10:31:42Z</time>
      </trkpt>
      <trkpt lat="45.50688" lon="5.76833">
        <ele>558.4</ele>
        <time>2022-04-15T10:31:43Z</time>
      </trkpt>
      <trkpt lat="45.50693" lon="5.76831">
        <ele>558.4</ele>
        <time>2022-04-15T10:31:44Z</time>
      </trkpt>
      <trkpt lat="45.50699" lon="5.76828">
        <ele>558.3</ele>
        <time>2022-04-15T10:31:45Z</time>
      </trkpt>
      <trkpt lat="45.50704" lon="5.76826">
        <ele>558.2</ele>
        <time>2022-04-15T10:31:46Z</time>
      </trkpt>
      <trkpt lat="45.5071" lon="5.76825">
        <ele>558.2</ele>
        <time>2022-04-15T10:31:47Z</time>
      </trkpt>
      <trkpt lat="45.50716" lon="5.76825">
        <ele>558.1</ele>
        <time>2022-04-15T10:31:48Z</time>
      </trkpt>
      <trkpt lat="45.50721" lon="5.76825">
        <ele>558</ele>
        <time>2022-04-15T10:31:49Z</time>
      </trkpt>
      <trkpt lat="45.50727" lon="5.76826">
        <ele>557.9</ele>
        <time>2022-04-15T10:31:50Z</time>
      </trkpt>
      <trkpt lat="45.50732" lon="5.76827">
        <ele>557.8</ele>
        <time>2022-04-15T10:31:51Z</time>
      </trkpt>
      <trkpt lat="45.50738" lon="5.76829">
        <ele>557.7</ele>
        <time>2022-04-15T10:31:52Z</time>
      </trkpt>
      <trkpt lat="45.50743" lon="5.76832">
        <ele>557.7</ele>
        <time>2022-04-15T10:31:53Z</time>
      </trkpt>
      <trkpt lat="45.50748" lon="5.76835">
        <ele>557.6</ele>
        <time>2022-04-15T10:31:54Z</time>
      </trkpt>
      <trkpt lat="45.50754" lon="5.76839">
        <ele>557.4</ele>
        <time>2022-04-15T10:31:55Z</time>
      </trkpt>
      <trkpt lat="45.50759" lon="5.76843">
        <ele>557.3</ele>
        <time>2022-04-15T10:31:56Z</time>
      </trkpt>
      <trkpt lat="45.50764" lon="5.76847">
        <ele>557.2</ele>
        <time>2022-04-15T10:31:57Z</time>
      </trkpt>
      <trkpt lat="45.50769" lon="5.76852">
        <ele>557.1</ele>
        <time>2022-04-15T10:31:58Z</time>
      </trkpt>
      <trkpt lat="45.50774" lon="5.76857">
        <ele>556.9</ele>
        <time>2022-04-15T10:31:59Z</time>
      </trkpt>
      <trkpt lat="45.50778" lon="5.76862">
        <ele>556.8</ele>
        <time>2022-04-15T10:32:00Z</time>
      </trkpt>
      <trkpt lat="45.50783" lon="5.76868">
        <ele>556.7</ele>
        <time>2022-04-15T10:32:01Z</time>
      </trkpt>
      <trkpt lat="45.50787" lon="5.76873">
        <ele>556.6</ele>
        <time>2022-04-15T10:32:02Z</time>
      </trkpt>
      <trkpt lat="45.50791" lon="5.7688">
        <ele>556.4</ele>
        <time>2022-04-15T10:32:03Z</time>
      </trkpt>
      <trkpt lat="45.50795" lon="5.76887">
        <ele>556.2</ele>
        <time>2022-04-15T10:32:04Z</time>
      </trkpt>
      <trkpt lat="45.50799" lon="5.76893">
        <ele>556</ele>
        <time>2022-04-15T10:32:05Z</time>
      </trkpt>
      <trkpt lat="45.50802" lon="5.769">
        <ele>555.8</ele>
        <time>2022-04-15T10:32:06Z</time>
      </trkpt>
      <trkpt lat="45.50806" lon="5.76906">
        <ele>555.6</ele>
        <time>2022-04-15T10:32:07Z</time>
      </trkpt>
      <trkpt lat="45.5081" lon="5.76913">
        <ele>555.3</ele>
        <time>2022-04-15T10:32:08Z</time>
      </trkpt>
      <trkpt lat="45.50814" lon="5.76921">
        <ele>555.1</ele>
        <time>2022-04-15T10:32:09Z</time>
      </trkpt>
      <trkpt lat="45.50818" lon="5.76928">
        <ele>554.8</ele>
        <time>2022-04-15T10:32:10Z</time>
      </trkpt>
      <trkpt lat="45.50821" lon="5.76935">
        <ele>554.6</ele>
        <time>2022-04-15T10:32:11Z</time>
      </trkpt>
      <trkpt lat="45.50825" lon="5.76942">
        <ele>554.3</ele>
        <time>2022-04-15T10:32:12Z</time>
      </trkpt>
      <trkpt lat="45.50829" lon="5.76949">
        <ele>554</ele>
        <time>2022-04-15T10:32:13Z</time>
      </trkpt>
      <trkpt lat="45.50833" lon="5.76956">
        <ele>553.7</ele>
        <time>2022-04-15T10:32:14Z</time>
      </trkpt>
      <trkpt lat="45.50837" lon="5.76964">
        <ele>553.3</ele>
        <time>2022-04-15T10:32:15Z</time>
      </trkpt>
      <trkpt lat="45.50841" lon="5.76971">
        <ele>553</ele>
        <time>2022-04-15T10:32:16Z</time>
      </trkpt>
      <trkpt lat="45.50846" lon="5.76977">
        <ele>552.7</ele>
        <time>2022-04-15T10:32:17Z</time>
      </trkpt>
      <trkpt lat="45.50851" lon="5.76984">
        <ele>552.3</ele>
        <time>2022-04-15T10:32:18Z</time>
      </trkpt>
      <trkpt lat="45.50856" lon="5.76989">
        <ele>552</ele>
        <time>2022-04-15T10:32:19Z</time>
      </trkpt>
      <trkpt lat="45.50862" lon="5.76994">
        <ele>551.7</ele>
        <time>2022-04-15T10:32:20Z</time>
      </trkpt>
      <trkpt lat="45.50868" lon="5.76998">
        <ele>551.3</ele>
        <time>2022-04-15T10:32:21Z</time>
      </trkpt>
      <trkpt lat="45.50875" lon="5.77002">
        <ele>551</ele>
        <time>2022-04-15T10:32:22Z</time>
      </trkpt>
      <trkpt lat="45.50881" lon="5.77005">
        <ele>550.6</ele>
        <time>2022-04-15T10:32:23Z</time>
      </trkpt>
      <trkpt lat="45.50888" lon="5.77007">
        <ele>550.3</ele>
        <time>2022-04-15T10:32:24Z</time>
      </trkpt>
      <trkpt lat="45.50895" lon="5.7701">
        <ele>549.9</ele>
        <time>2022-04-15T10:32:25Z</time>
      </trkpt>
      <trkpt lat="45.50903" lon="5.77012">
        <ele>549.6</ele>
        <time>2022-04-15T10:32:26Z</time>
      </trkpt>
      <trkpt lat="45.5091" lon="5.77013">
        <ele>549.3</ele>
        <time>2022-04-15T10:32:27Z</time>
      </trkpt>
      <trkpt lat="45.50917" lon="5.77015">
        <ele>549</ele>
        <time>2022-04-15T10:32:28Z</time>
      </trkpt>
      <trkpt lat="45.50925" lon="5.77017">
        <ele>548.7</ele>
        <time>2022-04-15T10:32:29Z</time>
      </trkpt>
      <trkpt lat="45.50932" lon="5.77019">
        <ele>548.4</ele>
        <time>2022-04-15T10:32:30Z</time>
      </trkpt>
      <trkpt lat="45.50937" lon="5.77023">
        <ele>548.3</ele>
        <time>2022-04-15T10:32:31Z</time>
      </trkpt>
      <trkpt lat="45.5094" lon="5.77025">
        <ele>548.2</ele>
        <time>2022-04-15T10:32:32Z</time>
      </trkpt>
      <trkpt lat="45.50941" lon="5.77026">
        <ele>548.1</ele>
        <time>2022-04-15T10:32:33Z</time>
      </trkpt>
      <trkpt lat="45.50941" lon="5.77026">
        <ele>548.1</ele>
        <time>2022-04-15T10:32:34Z</time>
      </trkpt>
      <trkpt lat="45.50941" lon="5.77026">
        <ele>548.1</ele>
        <time>2022-04-15T10:32:35Z</time>
      </trkpt>
      <trkpt lat="45.50941" lon="5.77026">
        <ele>548.1</ele>
        <time>2022-04-15T10:32:36Z</time>
      </trkpt>
      <trkpt lat="45.50941" lon="5.77026">
        <ele>548.1</ele>
        <time>2022-04-15T10:32:37Z</time>
      </trkpt>
      <trkpt lat="45.50941" lon="5.77026">
        <ele>548.1</ele>
        <time>2022-04-15T10:32:38Z</time>
      </trkpt>
      <trkpt lat="45.50941" lon="5.77026">
        <ele>548.1</ele>
        <time>2022-04-15T10:32:39Z</time>
      </trkpt>
      <trkpt lat="45.50942" lon="5.77026">
        <ele>548.1</ele>
        <time>2022-04-15T10:32:40Z</time>
      </trkpt>
      <trkpt lat="45.50942" lon="5.77026">
        <ele>548.1</ele>
        <time>2022-04-15T10:32:41Z</time>
      </trkpt>
      <trkpt lat="45.50942" lon="5.77026">
        <ele>548.1</ele>
        <time>2022-04-15T10:32:42Z</time>
      </trkpt>
      <trkpt lat="45.50942" lon="5.77026">
        <ele>548.1</ele>
        <time>2022-04-15T10:32:43Z</time>
      </trkpt>
      <trkpt lat="45.50942" lon="5.77026">
        <ele>548.1</ele>
        <time>2022-04-15T10:32:44Z</time>
      </trkpt>
      <trkpt lat="45.50942" lon="5.77026">
        <ele>548.1</ele>
        <time>2022-04-15T10:32:45Z</time>
      </trkpt>
      <trkpt lat="45.50942" lon="5.77026">
        <ele>548.1</ele>
        <time>2022-04-15T10:32:46Z</time>
      </trkpt>
      <trkpt lat="45.50942" lon="5.77026">
        <ele>548.1</ele>
        <time>2022-04-15T10:32:47Z</time>
      </trkpt>
      <trkpt lat="45.50942" lon="5.77026">
        <ele>548.1</ele>
        <time>2022-04-15T10:32:49Z</time>
      </trkpt>
      <trkpt lat="45.50942" lon="5.77026">
        <ele>548.1</ele>
        <time>2022-04-15T10:32:50Z</time>
      </trkpt>
      <trkpt lat="45.50942" lon="5.77026">
        <ele>548.1</ele>
        <time>2022-04-15T10:32:51Z</time>
      </trkpt>
      <trkpt lat="45.50942" lon="5.77026">
        <ele>548.1</ele>
        <time>2022-04-15T10:32:52Z</time>
      </trkpt>
      <trkpt lat="45.50942" lon="5.77026">
        <ele>548.1</ele>
        <time>2022-04-15T10:32:53Z</time>
      </trkpt>
      <trkpt lat="45.50942" lon="5.77026">
        <ele>548.1</ele>
        <time>2022-04-15T10:32:54Z</time>
      </trkpt>
      <trkpt lat="45.50942" lon="5.77027">
        <ele>548.1</ele>
        <time>2022-04-15T10:32:55Z</time>
      </trkpt>
      <trkpt lat="45.50942" lon="5.77027">
        <ele>548.1</ele>
        <time>2022-04-15T10:32:57Z</time>
      </trkpt>
      <trkpt lat="45.50942" lon="5.77027">
        <ele>548.1</ele>
        <time>2022-04-15T10:32:58Z</time>
      </trkpt>
      <trkpt lat="45.50942" lon="5.77027">
        <ele>548.1</ele>
        <time>2022-04-15T10:32:59Z</time>
      </trkpt>
      <trkpt lat="45.50942" lon="5.77027">
        <ele>548.1</ele>
        <time>2022-04-15T10:33:00Z</time>
      </trkpt>
      <trkpt lat="45.50942" lon="5.77027">
        <ele>548.1</ele>
        <time>2022-04-15T10:33:01Z</time>
      </trkpt>
      <trkpt lat="45.50942" lon="5.77027">
        <ele>548.1</ele>
        <time>2022-04-15T10:33:02Z</time>
      </trkpt>
      <trkpt lat="45.50942" lon="5.77027">
        <ele>548.1</ele>
        <time>2022-04-15T10:33:03Z</time>
      </trkpt>
      <trkpt lat="45.50942" lon="5.77027">
        <ele>548.1</ele>
        <time>2022-04-15T10:33:04Z</time>
      </trkpt>
      <trkpt lat="45.50943" lon="5.77027">
        <ele>548.1</ele>
        <time>2022-04-15T10:33:05Z</time>
      </trkpt>
      <trkpt lat="45.50943" lon="5.77027">
        <ele>548.1</ele>
        <time>2022-04-15T10:33:06Z</time>
      </trkpt>
      <trkpt lat="45.50943" lon="5.77027">
        <ele>548.1</ele>
        <time>2022-04-15T10:33:07Z</time>
      </trkpt>
      <trkpt lat="45.50943" lon="5.77027">
        <ele>548.1</ele>
        <time>2022-04-15T10:33:08Z</time>
      </trkpt>
      <trkpt lat="45.50943" lon="5.77027">
        <ele>548.1</ele>
        <time>2022-04-15T10:33:09Z</time>
      </trkpt>
      <trkpt lat="45.50943" lon="5.77027">
        <ele>548.1</ele>
        <time>2022-04-15T10:33:10Z</time>
      </trkpt>
      <trkpt lat="45.50943" lon="5.77027">
        <ele>548.1</ele>
        <time>2022-04-15T10:33:11Z</time>
      </trkpt>
      <trkpt lat="45.50943" lon="5.77027">
        <ele>548.1</ele>
        <time>2022-04-15T10:33:12Z</time>
      </trkpt>
      <trkpt lat="45.50943" lon="5.77027">
        <ele>548.1</ele>
        <time>2022-04-15T10:33:13Z</time>
      </trkpt>
      <trkpt lat="45.50943" lon="5.77027">
        <ele>548.1</ele>
        <time>2022-04-15T10:33:14Z</time>
      </trkpt>
      <trkpt lat="45.50943" lon="5.77027">
        <ele>548.1</ele>
        <time>2022-04-15T10:33:15Z</time>
      </trkpt>
      <trkpt lat="45.50943" lon="5.77027">
        <ele>548.1</ele>
        <time>2022-04-15T10:33:17Z</time>
      </trkpt>
      <trkpt lat="45.50943" lon="5.77027">
        <ele>548.1</ele>
        <time>2022-04-15T10:33:18Z</time>
      </trkpt>
      <trkpt lat="45.50943" lon="5.77027">
        <ele>548.1</ele>
        <time>2022-04-15T10:33:19Z</time>
      </trkpt>
      <trkpt lat="45.50943" lon="5.77027">
        <ele>548.1</ele>
        <time>2022-04-15T10:33:20Z</time>
      </trkpt>
      <trkpt lat="45.50943" lon="5.77027">
        <ele>548.1</ele>
        <time>2022-04-15T10:33:22Z</time>
      </trkpt>
      <trkpt lat="45.50943" lon="5.77027">
        <ele>548.1</ele>
        <time>2022-04-15T10:33:23Z</time>
      </trkpt>
      <trkpt lat="45.50943" lon="5.77027">
        <ele>548.1</ele>
        <time>2022-04-15T10:33:24Z</time>
      </trkpt>
      <trkpt lat="45.50943" lon="5.77027">
        <ele>548.1</ele>
        <time>2022-04-15T10:33:25Z</time>
      </trkpt>
      <trkpt lat="45.50943" lon="5.77027">
        <ele>548.1</ele>
        <time>2022-04-15T10:33:26Z</time>
      </trkpt>
      <trkpt lat="45.50943" lon="5.77027">
        <ele>548.1</ele>
        <time>2022-04-15T10:33:27Z</time>
      </trkpt>
      <trkpt lat="45.50943" lon="5.77027">
        <ele>548.1</ele>
        <time>2022-04-15T10:33:28Z</time>
      </trkpt>
      <trkpt lat="45.50943" lon="5.77027">
        <ele>548.1</ele>
        <time>2022-04-15T10:33:29Z</time>
      </trkpt>
      <trkpt lat="45.50947" lon="5.77028">
        <ele>548</ele>
        <time>2022-04-15T10:33:30Z</time>
      </trkpt>
      <trkpt lat="45.50948" lon="5.77028">
        <ele>547.9</ele>
        <time>2022-04-15T10:33:31Z</time>
      </trkpt>
      <trkpt lat="45.50952" lon="5.77029">
        <ele>547.8</ele>
        <time>2022-04-15T10:33:33Z</time>
      </trkpt>
      <trkpt lat="45.50954" lon="5.77029">
        <ele>547.8</ele>
        <time>2022-04-15T10:33:34Z</time>
      </trkpt>
      <trkpt lat="45.50958" lon="5.7703">
        <ele>547.7</ele>
        <time>2022-04-15T10:33:35Z</time>
      </trkpt>
      <trkpt lat="45.50961" lon="5.77031">
        <ele>547.6</ele>
        <time>2022-04-15T10:33:36Z</time>
      </trkpt>
      <trkpt lat="45.50962" lon="5.77031">
        <ele>547.5</ele>
        <time>2022-04-15T10:33:37Z</time>
      </trkpt>
      <trkpt lat="45.50966" lon="5.77033">
        <ele>547.5</ele>
        <time>2022-04-15T10:33:38Z</time>
      </trkpt>
      <trkpt lat="45.50967" lon="5.77033">
        <ele>547.4</ele>
        <time>2022-04-15T10:33:39Z</time>
      </trkpt>
      <trkpt lat="45.50968" lon="5.77035">
        <ele>547.4</ele>
        <time>2022-04-15T10:33:41Z</time>
      </trkpt>
      <trkpt lat="45.50968" lon="5.77038">
        <ele>547.3</ele>
        <time>2022-04-15T10:33:43Z</time>
      </trkpt>
      <trkpt lat="45.50968" lon="5.77038">
        <ele>547.3</ele>
        <time>2022-04-15T10:33:44Z</time>
      </trkpt>
      <trkpt lat="45.50968" lon="5.77038">
        <ele>547.3</ele>
        <time>2022-04-15T10:33:45Z</time>
      </trkpt>
      <trkpt lat="45.50968" lon="5.77038">
        <ele>547.3</ele>
        <time>2022-04-15T10:33:46Z</time>
      </trkpt>
      <trkpt lat="45.50968" lon="5.77038">
        <ele>547.3</ele>
        <time>2022-04-15T10:33:47Z</time>
      </trkpt>
      <trkpt lat="45.50968" lon="5.77038">
        <ele>547.3</ele>
        <time>2022-04-15T10:33:48Z</time>
      </trkpt>
      <trkpt lat="45.50968" lon="5.77038">
        <ele>547.3</ele>
        <time>2022-04-15T10:33:49Z</time>
      </trkpt>
      <trkpt lat="45.50968" lon="5.77038">
        <ele>547.3</ele>
        <time>2022-04-15T10:33:50Z</time>
      </trkpt>
      <trkpt lat="45.50968" lon="5.77038">
        <ele>547.3</ele>
        <time>2022-04-15T10:33:51Z</time>
      </trkpt>
      <trkpt lat="45.50968" lon="5.77038">
        <ele>547.3</ele>
        <time>2022-04-15T10:33:52Z</time>
      </trkpt>
      <trkpt lat="45.50968" lon="5.77038">
        <ele>547.3</ele>
        <time>2022-04-15T10:33:53Z</time>
      </trkpt>
      <trkpt lat="45.50969" lon="5.77038">
        <ele>547.3</ele>
        <time>2022-04-15T10:33:54Z</time>
      </trkpt>
      <trkpt lat="45.50969" lon="5.77037">
        <ele>547.3</ele>
        <time>2022-04-15T10:33:56Z</time>
      </trkpt>
      <trkpt lat="45.50969" lon="5.77037">
        <ele>547.3</ele>
        <time>2022-04-15T10:33:57Z</time>
      </trkpt>
      <trkpt lat="45.50969" lon="5.77037">
        <ele>547.3</ele>
        <time>2022-04-15T10:33:58Z</time>
      </trkpt>
      <trkpt lat="45.50969" lon="5.77037">
        <ele>547.3</ele>
        <time>2022-04-15T10:33:59Z</time>
      </trkpt>
      <trkpt lat="45.50969" lon="5.77037">
        <ele>547.3</ele>
        <time>2022-04-15T10:34:00Z</time>
      </trkpt>
      <trkpt lat="45.50969" lon="5.77037">
        <ele>547.3</ele>
        <time>2022-04-15T10:34:01Z</time>
      </trkpt>
      <trkpt lat="45.50969" lon="5.77037">
        <ele>547.3</ele>
        <time>2022-04-15T10:34:02Z</time>
      </trkpt>
      <trkpt lat="45.50969" lon="5.77037">
        <ele>547.3</ele>
        <time>2022-04-15T10:34:03Z</time>
      </trkpt>
      <trkpt lat="45.50969" lon="5.77036">
        <ele>547.3</ele>
        <time>2022-04-15T10:34:04Z</time>
      </trkpt>
      <trkpt lat="45.50969" lon="5.77036">
        <ele>547.3</ele>
        <time>2022-04-15T10:34:05Z</time>
      </trkpt>
      <trkpt lat="45.50969" lon="5.77036">
        <ele>547.3</ele>
        <time>2022-04-15T10:34:06Z</time>
      </trkpt>
      <trkpt lat="45.50968" lon="5.77036">
        <ele>547.3</ele>
        <time>2022-04-15T10:34:07Z</time>
      </trkpt>
      <trkpt lat="45.50968" lon="5.77036">
        <ele>547.3</ele>
        <time>2022-04-15T10:34:08Z</time>
      </trkpt>
      <trkpt lat="45.50968" lon="5.77036">
        <ele>547.3</ele>
        <time>2022-04-15T10:34:09Z</time>
      </trkpt>
      <trkpt lat="45.50968" lon="5.77037">
        <ele>547.3</ele>
        <time>2022-04-15T10:34:10Z</time>
      </trkpt>
      <trkpt lat="45.50969" lon="5.77036">
        <ele>547.2</ele>
        <time>2022-04-15T10:34:11Z</time>
      </trkpt>
      <trkpt lat="45.50969" lon="5.77036">
        <ele>547.2</ele>
        <time>2022-04-15T10:34:12Z</time>
      </trkpt>
      <trkpt lat="45.50969" lon="5.77036">
        <ele>547.2</ele>
        <time>2022-04-15T10:34:13Z</time>
      </trkpt>
      <trkpt lat="45.50969" lon="5.77036">
        <ele>547.2</ele>
        <time>2022-04-15T10:34:14Z</time>
      </trkpt>
      <trkpt lat="45.50969" lon="5.77036">
        <ele>547.2</ele>
        <time>2022-04-15T10:34:15Z</time>
      </trkpt>
      <trkpt lat="45.50968" lon="5.77036">
        <ele>547.2</ele>
        <time>2022-04-15T10:34:16Z</time>
      </trkpt>
      <trkpt lat="45.50968" lon="5.77036">
        <ele>547.2</ele>
        <time>2022-04-15T10:34:17Z</time>
      </trkpt>
      <trkpt lat="45.50968" lon="5.77036">
        <ele>547.2</ele>
        <time>2022-04-15T10:34:18Z</time>
      </trkpt>
      <trkpt lat="45.50968" lon="5.77036">
        <ele>547.2</ele>
        <time>2022-04-15T10:34:19Z</time>
      </trkpt>
      <trkpt lat="45.50968" lon="5.77036">
        <ele>547.2</ele>
        <time>2022-04-15T10:34:20Z</time>
      </trkpt>
      <trkpt lat="45.50968" lon="5.77036">
        <ele>547.2</ele>
        <time>2022-04-15T10:34:21Z</time>
      </trkpt>
      <trkpt lat="45.50968" lon="5.77036">
        <ele>547.2</ele>
        <time>2022-04-15T10:34:22Z</time>
      </trkpt>
      <trkpt lat="45.50968" lon="5.77036">
        <ele>547.2</ele>
        <time>2022-04-15T10:34:23Z</time>
      </trkpt>
      <trkpt lat="45.50968" lon="5.77035">
        <ele>547.2</ele>
        <time>2022-04-15T10:34:24Z</time>
      </trkpt>
      <trkpt lat="45.50968" lon="5.77036">
        <ele>547.2</ele>
        <time>2022-04-15T10:34:25Z</time>
      </trkpt>
      <trkpt lat="45.50968" lon="5.77036">
        <ele>547.2</ele>
        <time>2022-04-15T10:34:26Z</time>
      </trkpt>
      <trkpt lat="45.50968" lon="5.77036">
        <ele>547.2</ele>
        <time>2022-04-15T10:34:27Z</time>
      </trkpt>
      <trkpt lat="45.50968" lon="5.77036">
        <ele>547.2</ele>
        <time>2022-04-15T10:34:28Z</time>
      </trkpt>
      <trkpt lat="45.50968" lon="5.77036">
        <ele>547.2</ele>
        <time>2022-04-15T10:34:29Z</time>
      </trkpt>
      <trkpt lat="45.50969" lon="5.77036">
        <ele>547.2</ele>
        <time>2022-04-15T10:34:30Z</time>
      </trkpt>
      <trkpt lat="45.50969" lon="5.77037">
        <ele>547.1</ele>
        <time>2022-04-15T10:34:31Z</time>
      </trkpt>
      <trkpt lat="45.5097" lon="5.77037">
        <ele>547.1</ele>
        <time>2022-04-15T10:34:32Z</time>
      </trkpt>
      <trkpt lat="45.50971" lon="5.77038">
        <ele>547.1</ele>
        <time>2022-04-15T10:34:33Z</time>
      </trkpt>
      <trkpt lat="45.50975" lon="5.77038">
        <ele>547</ele>
        <time>2022-04-15T10:34:34Z</time>
      </trkpt>
      <trkpt lat="45.50976" lon="5.77039">
        <ele>546.9</ele>
        <time>2022-04-15T10:34:35Z</time>
      </trkpt>
      <trkpt lat="45.5098" lon="5.7704">
        <ele>546.8</ele>
        <time>2022-04-15T10:34:37Z</time>
      </trkpt>
      <trkpt lat="45.50982" lon="5.7704">
        <ele>546.7</ele>
        <time>2022-04-15T10:34:38Z</time>
      </trkpt>
      <trkpt lat="45.50985" lon="5.7704">
        <ele>546.5</ele>
        <time>2022-04-15T10:34:39Z</time>
      </trkpt>
      <trkpt lat="45.50989" lon="5.7704">
        <ele>546.4</ele>
        <time>2022-04-15T10:34:40Z</time>
      </trkpt>
      <trkpt lat="45.50993" lon="5.77039">
        <ele>546.1</ele>
        <time>2022-04-15T10:34:41Z</time>
      </trkpt>
      <trkpt lat="45.51" lon="5.77041">
        <ele>545.8</ele>
        <time>2022-04-15T10:34:42Z</time>
      </trkpt>
      <trkpt lat="45.51007" lon="5.77045">
        <ele>545.4</ele>
        <time>2022-04-15T10:34:44Z</time>
      </trkpt>
      <trkpt lat="45.51012" lon="5.77046">
        <ele>545.2</ele>
        <time>2022-04-15T10:34:45Z</time>
      </trkpt>
      <trkpt lat="45.51017" lon="5.77048">
        <ele>545</ele>
        <time>2022-04-15T10:34:46Z</time>
      </trkpt>
      <trkpt lat="45.51022" lon="5.77049">
        <ele>544.7</ele>
        <time>2022-04-15T10:34:47Z</time>
      </trkpt>
      <trkpt lat="45.51033" lon="5.77052">
        <ele>544.2</ele>
        <time>2022-04-15T10:34:49Z</time>
      </trkpt>
      <trkpt lat="45.51039" lon="5.77054">
        <ele>543.9</ele>
        <time>2022-04-15T10:34:50Z</time>
      </trkpt>
      <trkpt lat="45.51045" lon="5.77056">
        <ele>543.6</ele>
        <time>2022-04-15T10:34:51Z</time>
      </trkpt>
      <trkpt lat="45.51052" lon="5.77057">
        <ele>543.3</ele>
        <time>2022-04-15T10:34:52Z</time>
      </trkpt>
      <trkpt lat="45.51058" lon="5.77059">
        <ele>543</ele>
        <time>2022-04-15T10:34:53Z</time>
      </trkpt>
      <trkpt lat="45.51064" lon="5.7706">
        <ele>542.8</ele>
        <time>2022-04-15T10:34:54Z</time>
      </trkpt>
      <trkpt lat="45.51071" lon="5.77061">
        <ele>542.5</ele>
        <time>2022-04-15T10:34:55Z</time>
      </trkpt>
      <trkpt lat="45.51077" lon="5.77063">
        <ele>542.2</ele>
        <time>2022-04-15T10:34:56Z</time>
      </trkpt>
      <trkpt lat="45.51083" lon="5.77065">
        <ele>541.9</ele>
        <time>2022-04-15T10:34:57Z</time>
      </trkpt>
      <trkpt lat="45.51089" lon="5.77069">
        <ele>541.7</ele>
        <time>2022-04-15T10:34:58Z</time>
      </trkpt>
      <trkpt lat="45.51096" lon="5.77072">
        <ele>541.3</ele>
        <time>2022-04-15T10:34:59Z</time>
      </trkpt>
      <trkpt lat="45.51102" lon="5.77074">
        <ele>541</ele>
        <time>2022-04-15T10:35:00Z</time>
      </trkpt>
      <trkpt lat="45.51109" lon="5.77077">
        <ele>540.7</ele>
        <time>2022-04-15T10:35:01Z</time>
      </trkpt>
      <trkpt lat="45.51116" lon="5.77079">
        <ele>540.4</ele>
        <time>2022-04-15T10:35:02Z</time>
      </trkpt>
      <trkpt lat="45.51123" lon="5.77081">
        <ele>540</ele>
        <time>2022-04-15T10:35:03Z</time>
      </trkpt>
      <trkpt lat="45.51129" lon="5.77083">
        <ele>539.7</ele>
        <time>2022-04-15T10:35:04Z</time>
      </trkpt>
      <trkpt lat="45.51136" lon="5.77085">
        <ele>539.4</ele>
        <time>2022-04-15T10:35:05Z</time>
      </trkpt>
      <trkpt lat="45.51143" lon="5.77087">
        <ele>539</ele>
        <time>2022-04-15T10:35:06Z</time>
      </trkpt>
      <trkpt lat="45.51151" lon="5.77089">
        <ele>538.6</ele>
        <time>2022-04-15T10:35:07Z</time>
      </trkpt>
      <trkpt lat="45.51158" lon="5.77091">
        <ele>538.4</ele>
        <time>2022-04-15T10:35:08Z</time>
      </trkpt>
      <trkpt lat="45.51165" lon="5.77092">
        <ele>538.2</ele>
        <time>2022-04-15T10:35:09Z</time>
      </trkpt>
      <trkpt lat="45.51173" lon="5.77094">
        <ele>537.8</ele>
        <time>2022-04-15T10:35:10Z</time>
      </trkpt>
      <trkpt lat="45.5118" lon="5.77095">
        <ele>537.4</ele>
        <time>2022-04-15T10:35:11Z</time>
      </trkpt>
      <trkpt lat="45.51187" lon="5.77096">
        <ele>536.9</ele>
        <time>2022-04-15T10:35:12Z</time>
      </trkpt>
      <trkpt lat="45.51195" lon="5.77097">
        <ele>536.5</ele>
        <time>2022-04-15T10:35:13Z</time>
      </trkpt>
      <trkpt lat="45.51202" lon="5.77096">
        <ele>536</ele>
        <time>2022-04-15T10:35:14Z</time>
      </trkpt>
      <trkpt lat="45.5121" lon="5.77095">
        <ele>535.5</ele>
        <time>2022-04-15T10:35:15Z</time>
      </trkpt>
      <trkpt lat="45.51217" lon="5.77095">
        <ele>535.1</ele>
        <time>2022-04-15T10:35:16Z</time>
      </trkpt>
      <trkpt lat="45.51224" lon="5.77093">
        <ele>534.6</ele>
        <time>2022-04-15T10:35:17Z</time>
      </trkpt>
      <trkpt lat="45.51231" lon="5.7709">
        <ele>534.1</ele>
        <time>2022-04-15T10:35:18Z</time>
      </trkpt>
      <trkpt lat="45.51238" lon="5.77088">
        <ele>533.6</ele>
        <time>2022-04-15T10:35:19Z</time>
      </trkpt>
      <trkpt lat="45.51245" lon="5.77084">
        <ele>533.2</ele>
        <time>2022-04-15T10:35:20Z</time>
      </trkpt>
      <trkpt lat="45.51251" lon="5.77081">
        <ele>532.7</ele>
        <time>2022-04-15T10:35:21Z</time>
      </trkpt>
      <trkpt lat="45.51258" lon="5.77077">
        <ele>532.2</ele>
        <time>2022-04-15T10:35:22Z</time>
      </trkpt>
      <trkpt lat="45.51265" lon="5.77072">
        <ele>531.7</ele>
        <time>2022-04-15T10:35:23Z</time>
      </trkpt>
      <trkpt lat="45.51271" lon="5.77067">
        <ele>531.4</ele>
        <time>2022-04-15T10:35:24Z</time>
      </trkpt>
      <trkpt lat="45.51277" lon="5.77061">
        <ele>531.3</ele>
        <time>2022-04-15T10:35:25Z</time>
      </trkpt>
      <trkpt lat="45.51283" lon="5.77054">
        <ele>531.2</ele>
        <time>2022-04-15T10:35:26Z</time>
      </trkpt>
      <trkpt lat="45.51287" lon="5.77045">
        <ele>530.8</ele>
        <time>2022-04-15T10:35:27Z</time>
      </trkpt>
      <trkpt lat="45.5129" lon="5.77034">
        <ele>530.4</ele>
        <time>2022-04-15T10:35:28Z</time>
      </trkpt>
      <trkpt lat="45.51291" lon="5.77023">
        <ele>529.9</ele>
        <time>2022-04-15T10:35:29Z</time>
      </trkpt>
      <trkpt lat="45.51292" lon="5.77011">
        <ele>529.4</ele>
        <time>2022-04-15T10:35:30Z</time>
      </trkpt>
      <trkpt lat="45.51291" lon="5.76999">
        <ele>528.9</ele>
        <time>2022-04-15T10:35:31Z</time>
      </trkpt>
      <trkpt lat="45.51289" lon="5.76988">
        <ele>528.4</ele>
        <time>2022-04-15T10:35:32Z</time>
      </trkpt>
      <trkpt lat="45.51288" lon="5.76975">
        <ele>527.9</ele>
        <time>2022-04-15T10:35:33Z</time>
      </trkpt>
      <trkpt lat="45.51287" lon="5.76963">
        <ele>527.3</ele>
        <time>2022-04-15T10:35:34Z</time>
      </trkpt>
      <trkpt lat="45.51288" lon="5.7695">
        <ele>526.7</ele>
        <time>2022-04-15T10:35:35Z</time>
      </trkpt>
      <trkpt lat="45.51291" lon="5.76938">
        <ele>526.1</ele>
        <time>2022-04-15T10:35:36Z</time>
      </trkpt>
      <trkpt lat="45.51295" lon="5.76925">
        <ele>525.5</ele>
        <time>2022-04-15T10:35:37Z</time>
      </trkpt>
      <trkpt lat="45.51299" lon="5.76913">
        <ele>525</ele>
        <time>2022-04-15T10:35:38Z</time>
      </trkpt>
      <trkpt lat="45.51303" lon="5.76901">
        <ele>524.5</ele>
        <time>2022-04-15T10:35:39Z</time>
      </trkpt>
      <trkpt lat="45.51307" lon="5.76889">
        <ele>524</ele>
        <time>2022-04-15T10:35:40Z</time>
      </trkpt>
      <trkpt lat="45.51311" lon="5.76876">
        <ele>523.4</ele>
        <time>2022-04-15T10:35:41Z</time>
      </trkpt>
      <trkpt lat="45.51315" lon="5.76864">
        <ele>522.9</ele>
        <time>2022-04-15T10:35:42Z</time>
      </trkpt>
      <trkpt lat="45.51322" lon="5.76855">
        <ele>522.2</ele>
        <time>2022-04-15T10:35:43Z</time>
      </trkpt>
      <trkpt lat="45.51331" lon="5.76849">
        <ele>521.6</ele>
        <time>2022-04-15T10:35:44Z</time>
      </trkpt>
      <trkpt lat="45.5134" lon="5.76846">
        <ele>520.9</ele>
        <time>2022-04-15T10:35:45Z</time>
      </trkpt>
      <trkpt lat="45.5135" lon="5.76845">
        <ele>520.1</ele>
        <time>2022-04-15T10:35:46Z</time>
      </trkpt>
      <trkpt lat="45.5136" lon="5.76846">
        <ele>519.4</ele>
        <time>2022-04-15T10:35:47Z</time>
      </trkpt>
      <trkpt lat="45.5137" lon="5.76846">
        <ele>518.7</ele>
        <time>2022-04-15T10:35:48Z</time>
      </trkpt>
      <trkpt lat="45.51379" lon="5.76848">
        <ele>518</ele>
        <time>2022-04-15T10:35:49Z</time>
      </trkpt>
      <trkpt lat="45.51388" lon="5.7685">
        <ele>517.3</ele>
        <time>2022-04-15T10:35:50Z</time>
      </trkpt>
      <trkpt lat="45.51397" lon="5.76853">
        <ele>516.7</ele>
        <time>2022-04-15T10:35:51Z</time>
      </trkpt>
      <trkpt lat="45.51406" lon="5.76857">
        <ele>516</ele>
        <time>2022-04-15T10:35:52Z</time>
      </trkpt>
      <trkpt lat="45.51415" lon="5.76861">
        <ele>515.4</ele>
        <time>2022-04-15T10:35:53Z</time>
      </trkpt>
      <trkpt lat="45.51424" lon="5.76864">
        <ele>514.8</ele>
        <time>2022-04-15T10:35:54Z</time>
      </trkpt>
      <trkpt lat="45.51434" lon="5.76867">
        <ele>514.2</ele>
        <time>2022-04-15T10:35:55Z</time>
      </trkpt>
      <trkpt lat="45.51443" lon="5.7687">
        <ele>513.6</ele>
        <time>2022-04-15T10:35:56Z</time>
      </trkpt>
      <trkpt lat="45.51453" lon="5.76873">
        <ele>513</ele>
        <time>2022-04-15T10:35:57Z</time>
      </trkpt>
      <trkpt lat="45.51462" lon="5.76876">
        <ele>512.3</ele>
        <time>2022-04-15T10:35:58Z</time>
      </trkpt>
      <trkpt lat="45.51472" lon="5.76878">
        <ele>511.7</ele>
        <time>2022-04-15T10:35:59Z</time>
      </trkpt>
      <trkpt lat="45.51481" lon="5.76879">
        <ele>511.1</ele>
        <time>2022-04-15T10:36:00Z</time>
      </trkpt>
      <trkpt lat="45.51491" lon="5.76881">
        <ele>510.4</ele>
        <time>2022-04-15T10:36:01Z</time>
      </trkpt>
      <trkpt lat="45.51501" lon="5.76883">
        <ele>509.8</ele>
        <time>2022-04-15T10:36:02Z</time>
      </trkpt>
      <trkpt lat="45.51511" lon="5.76884">
        <ele>509.1</ele>
        <time>2022-04-15T10:36:03Z</time>
      </trkpt>
      <trkpt lat="45.51521" lon="5.76884">
        <ele>508.5</ele>
        <time>2022-04-15T10:36:04Z</time>
      </trkpt>
      <trkpt lat="45.51532" lon="5.76885">
        <ele>507.9</ele>
        <time>2022-04-15T10:36:05Z</time>
      </trkpt>
      <trkpt lat="45.51541" lon="5.76886">
        <ele>507.3</ele>
        <time>2022-04-15T10:36:06Z</time>
      </trkpt>
      <trkpt lat="45.51551" lon="5.76887">
        <ele>506.7</ele>
        <time>2022-04-15T10:36:07Z</time>
      </trkpt>
      <trkpt lat="45.51561" lon="5.76889">
        <ele>506.2</ele>
        <time>2022-04-15T10:36:08Z</time>
      </trkpt>
      <trkpt lat="45.5157" lon="5.76891">
        <ele>505.6</ele>
        <time>2022-04-15T10:36:09Z</time>
      </trkpt>
      <trkpt lat="45.5158" lon="5.76891">
        <ele>505.1</ele>
        <time>2022-04-15T10:36:10Z</time>
      </trkpt>
      <trkpt lat="45.51589" lon="5.76892">
        <ele>504.5</ele>
        <time>2022-04-15T10:36:11Z</time>
      </trkpt>
      <trkpt lat="45.51599" lon="5.76891">
        <ele>503.9</ele>
        <time>2022-04-15T10:36:12Z</time>
      </trkpt>
      <trkpt lat="45.51609" lon="5.76888">
        <ele>503.3</ele>
        <time>2022-04-15T10:36:13Z</time>
      </trkpt>
      <trkpt lat="45.51618" lon="5.76884">
        <ele>502.7</ele>
        <time>2022-04-15T10:36:14Z</time>
      </trkpt>
      <trkpt lat="45.51626" lon="5.76876">
        <ele>502.2</ele>
        <time>2022-04-15T10:36:15Z</time>
      </trkpt>
      <trkpt lat="45.51633" lon="5.76867">
        <ele>501.8</ele>
        <time>2022-04-15T10:36:16Z</time>
      </trkpt>
      <trkpt lat="45.5164" lon="5.76857">
        <ele>501.3</ele>
        <time>2022-04-15T10:36:17Z</time>
      </trkpt>
      <trkpt lat="45.51647" lon="5.76847">
        <ele>500.7</ele>
        <time>2022-04-15T10:36:18Z</time>
      </trkpt>
      <trkpt lat="45.51655" lon="5.76838">
        <ele>500.2</ele>
        <time>2022-04-15T10:36:19Z</time>
      </trkpt>
      <trkpt lat="45.51662" lon="5.7683">
        <ele>499.7</ele>
        <time>2022-04-15T10:36:20Z</time>
      </trkpt>
      <trkpt lat="45.5167" lon="5.76824">
        <ele>499.2</ele>
        <time>2022-04-15T10:36:21Z</time>
      </trkpt>
      <trkpt lat="45.51678" lon="5.76819">
        <ele>498.6</ele>
        <time>2022-04-15T10:36:22Z</time>
      </trkpt>
      <trkpt lat="45.51686" lon="5.76816">
        <ele>498.1</ele>
        <time>2022-04-15T10:36:23Z</time>
      </trkpt>
      <trkpt lat="45.51694" lon="5.76812">
        <ele>497.5</ele>
        <time>2022-04-15T10:36:24Z</time>
      </trkpt>
      <trkpt lat="45.51702" lon="5.76808">
        <ele>497</ele>
        <time>2022-04-15T10:36:25Z</time>
      </trkpt>
      <trkpt lat="45.5171" lon="5.76804">
        <ele>496.4</ele>
        <time>2022-04-15T10:36:26Z</time>
      </trkpt>
      <trkpt lat="45.51719" lon="5.768">
        <ele>495.9</ele>
        <time>2022-04-15T10:36:27Z</time>
      </trkpt>
      <trkpt lat="45.51729" lon="5.76797">
        <ele>495.2</ele>
        <time>2022-04-15T10:36:28Z</time>
      </trkpt>
      <trkpt lat="45.51739" lon="5.76791">
        <ele>494.4</ele>
        <time>2022-04-15T10:36:29Z</time>
      </trkpt>
      <trkpt lat="45.51748" lon="5.76786">
        <ele>493.7</ele>
        <time>2022-04-15T10:36:30Z</time>
      </trkpt>
      <trkpt lat="45.51756" lon="5.7678">
        <ele>493</ele>
        <time>2022-04-15T10:36:31Z</time>
      </trkpt>
      <trkpt lat="45.51764" lon="5.76775">
        <ele>492.4</ele>
        <time>2022-04-15T10:36:32Z</time>
      </trkpt>
      <trkpt lat="45.51772" lon="5.76768">
        <ele>491.9</ele>
        <time>2022-04-15T10:36:33Z</time>
      </trkpt>
      <trkpt lat="45.5178" lon="5.7676">
        <ele>491.3</ele>
        <time>2022-04-15T10:36:34Z</time>
      </trkpt>
      <trkpt lat="45.51787" lon="5.76752">
        <ele>490.7</ele>
        <time>2022-04-15T10:36:35Z</time>
      </trkpt>
      <trkpt lat="45.51794" lon="5.76743">
        <ele>490.2</ele>
        <time>2022-04-15T10:36:36Z</time>
      </trkpt>
      <trkpt lat="45.51801" lon="5.76734">
        <ele>489.6</ele>
        <time>2022-04-15T10:36:37Z</time>
      </trkpt>
      <trkpt lat="45.51807" lon="5.76723">
        <ele>489.1</ele>
        <time>2022-04-15T10:36:38Z</time>
      </trkpt>
      <trkpt lat="45.51812" lon="5.76712">
        <ele>488.6</ele>
        <time>2022-04-15T10:36:39Z</time>
      </trkpt>
      <trkpt lat="45.51817" lon="5.76701">
        <ele>488</ele>
        <time>2022-04-15T10:36:40Z</time>
      </trkpt>
      <trkpt lat="45.51823" lon="5.76691">
        <ele>487.5</ele>
        <time>2022-04-15T10:36:41Z</time>
      </trkpt>
      <trkpt lat="45.51831" lon="5.76683">
        <ele>486.9</ele>
        <time>2022-04-15T10:36:42Z</time>
      </trkpt>
      <trkpt lat="45.51839" lon="5.76676">
        <ele>486.3</ele>
        <time>2022-04-15T10:36:43Z</time>
      </trkpt>
      <trkpt lat="45.51848" lon="5.76671">
        <ele>485.7</ele>
        <time>2022-04-15T10:36:44Z</time>
      </trkpt>
      <trkpt lat="45.51857" lon="5.76668">
        <ele>485.2</ele>
        <time>2022-04-15T10:36:45Z</time>
      </trkpt>
      <trkpt lat="45.51866" lon="5.76667">
        <ele>484.7</ele>
        <time>2022-04-15T10:36:46Z</time>
      </trkpt>
      <trkpt lat="45.51875" lon="5.76669">
        <ele>484.2</ele>
        <time>2022-04-15T10:36:47Z</time>
      </trkpt>
      <trkpt lat="45.51884" lon="5.76672">
        <ele>483.6</ele>
        <time>2022-04-15T10:36:48Z</time>
      </trkpt>
      <trkpt lat="45.51892" lon="5.76677">
        <ele>483</ele>
        <time>2022-04-15T10:36:49Z</time>
      </trkpt>
      <trkpt lat="45.51901" lon="5.76683">
        <ele>482.4</ele>
        <time>2022-04-15T10:36:50Z</time>
      </trkpt>
      <trkpt lat="45.51909" lon="5.76689">
        <ele>481.8</ele>
        <time>2022-04-15T10:36:51Z</time>
      </trkpt>
      <trkpt lat="45.51917" lon="5.76694">
        <ele>481.2</ele>
        <time>2022-04-15T10:36:52Z</time>
      </trkpt>
      <trkpt lat="45.51926" lon="5.767">
        <ele>480.6</ele>
        <time>2022-04-15T10:36:53Z</time>
      </trkpt>
      <trkpt lat="45.51934" lon="5.76705">
        <ele>480</ele>
        <time>2022-04-15T10:36:54Z</time>
      </trkpt>
      <trkpt lat="45.51943" lon="5.7671">
        <ele>479.4</ele>
        <time>2022-04-15T10:36:55Z</time>
      </trkpt>
      <trkpt lat="45.51952" lon="5.76716">
        <ele>478.9</ele>
        <time>2022-04-15T10:36:56Z</time>
      </trkpt>
      <trkpt lat="45.51961" lon="5.76721">
        <ele>478.3</ele>
        <time>2022-04-15T10:36:57Z</time>
      </trkpt>
      <trkpt lat="45.5197" lon="5.76727">
        <ele>477.7</ele>
        <time>2022-04-15T10:36:58Z</time>
      </trkpt>
      <trkpt lat="45.51979" lon="5.76732">
        <ele>477.1</ele>
        <time>2022-04-15T10:36:59Z</time>
      </trkpt>
      <trkpt lat="45.51988" lon="5.76737">
        <ele>476.5</ele>
        <time>2022-04-15T10:37:00Z</time>
      </trkpt>
      <trkpt lat="45.51997" lon="5.76741">
        <ele>476</ele>
        <time>2022-04-15T10:37:01Z</time>
      </trkpt>
      <trkpt lat="45.52006" lon="5.76745">
        <ele>475.4</ele>
        <time>2022-04-15T10:37:02Z</time>
      </trkpt>
      <trkpt lat="45.52015" lon="5.76749">
        <ele>474.9</ele>
        <time>2022-04-15T10:37:03Z</time>
      </trkpt>
      <trkpt lat="45.52024" lon="5.76751">
        <ele>474.4</ele>
        <time>2022-04-15T10:37:04Z</time>
      </trkpt>
      <trkpt lat="45.52034" lon="5.76753">
        <ele>473.8</ele>
        <time>2022-04-15T10:37:05Z</time>
      </trkpt>
      <trkpt lat="45.52043" lon="5.76755">
        <ele>473.3</ele>
        <time>2022-04-15T10:37:06Z</time>
      </trkpt>
      <trkpt lat="45.52053" lon="5.76756">
        <ele>472.7</ele>
        <time>2022-04-15T10:37:07Z</time>
      </trkpt>
      <trkpt lat="45.52063" lon="5.76757">
        <ele>472.1</ele>
        <time>2022-04-15T10:37:08Z</time>
      </trkpt>
      <trkpt lat="45.52072" lon="5.76757">
        <ele>471.4</ele>
        <time>2022-04-15T10:37:09Z</time>
      </trkpt>
      <trkpt lat="45.52081" lon="5.76756">
        <ele>470.8</ele>
        <time>2022-04-15T10:37:10Z</time>
      </trkpt>
      <trkpt lat="45.52091" lon="5.76755">
        <ele>470.2</ele>
        <time>2022-04-15T10:37:11Z</time>
      </trkpt>
      <trkpt lat="45.52101" lon="5.76754">
        <ele>469.6</ele>
        <time>2022-04-15T10:37:12Z</time>
      </trkpt>
      <trkpt lat="45.52111" lon="5.76752">
        <ele>469</ele>
        <time>2022-04-15T10:37:13Z</time>
      </trkpt>
      <trkpt lat="45.5212" lon="5.76749">
        <ele>468.4</ele>
        <time>2022-04-15T10:37:14Z</time>
      </trkpt>
      <trkpt lat="45.52129" lon="5.76745">
        <ele>467.8</ele>
        <time>2022-04-15T10:37:15Z</time>
      </trkpt>
      <trkpt lat="45.52139" lon="5.76741">
        <ele>467.2</ele>
        <time>2022-04-15T10:37:16Z</time>
      </trkpt>
      <trkpt lat="45.52148" lon="5.76737">
        <ele>466.6</ele>
        <time>2022-04-15T10:37:17Z</time>
      </trkpt>
      <trkpt lat="45.52157" lon="5.76732">
        <ele>466</ele>
        <time>2022-04-15T10:37:18Z</time>
      </trkpt>
      <trkpt lat="45.52165" lon="5.76726">
        <ele>465.4</ele>
        <time>2022-04-15T10:37:19Z</time>
      </trkpt>
      <trkpt lat="45.52173" lon="5.7672">
        <ele>464.8</ele>
        <time>2022-04-15T10:37:20Z</time>
      </trkpt>
      <trkpt lat="45.52181" lon="5.76714">
        <ele>464.2</ele>
        <time>2022-04-15T10:37:21Z</time>
      </trkpt>
      <trkpt lat="45.52189" lon="5.76706">
        <ele>463.6</ele>
        <time>2022-04-15T10:37:22Z</time>
      </trkpt>
      <trkpt lat="45.52197" lon="5.76698">
        <ele>462.9</ele>
        <time>2022-04-15T10:37:23Z</time>
      </trkpt>
      <trkpt lat="45.52205" lon="5.7669">
        <ele>462.3</ele>
        <time>2022-04-15T10:37:24Z</time>
      </trkpt>
      <trkpt lat="45.52212" lon="5.76681">
        <ele>461.8</ele>
        <time>2022-04-15T10:37:25Z</time>
      </trkpt>
      <trkpt lat="45.52218" lon="5.76671">
        <ele>461.3</ele>
        <time>2022-04-15T10:37:26Z</time>
      </trkpt>
      <trkpt lat="45.52225" lon="5.76662">
        <ele>460.8</ele>
        <time>2022-04-15T10:37:27Z</time>
      </trkpt>
      <trkpt lat="45.52231" lon="5.76652">
        <ele>460.4</ele>
        <time>2022-04-15T10:37:28Z</time>
      </trkpt>
      <trkpt lat="45.52238" lon="5.76643">
        <ele>459.9</ele>
        <time>2022-04-15T10:37:29Z</time>
      </trkpt>
      <trkpt lat="45.52244" lon="5.76633">
        <ele>459.5</ele>
        <time>2022-04-15T10:37:30Z</time>
      </trkpt>
      <trkpt lat="45.52251" lon="5.76624">
        <ele>459.2</ele>
        <time>2022-04-15T10:37:31Z</time>
      </trkpt>
      <trkpt lat="45.52257" lon="5.76614">
        <ele>458.9</ele>
        <time>2022-04-15T10:37:32Z</time>
      </trkpt>
      <trkpt lat="45.52263" lon="5.76606">
        <ele>458.7</ele>
        <time>2022-04-15T10:37:33Z</time>
      </trkpt>
      <trkpt lat="45.52269" lon="5.76597">
        <ele>458.4</ele>
        <time>2022-04-15T10:37:34Z</time>
      </trkpt>
      <trkpt lat="45.52275" lon="5.76589">
        <ele>458.2</ele>
        <time>2022-04-15T10:37:35Z</time>
      </trkpt>
      <trkpt lat="45.52281" lon="5.76581">
        <ele>457.9</ele>
        <time>2022-04-15T10:37:36Z</time>
      </trkpt>
      <trkpt lat="45.52286" lon="5.76573">
        <ele>457.7</ele>
        <time>2022-04-15T10:37:37Z</time>
      </trkpt>
      <trkpt lat="45.52291" lon="5.76565">
        <ele>457.5</ele>
        <time>2022-04-15T10:37:38Z</time>
      </trkpt>
      <trkpt lat="45.52296" lon="5.76557">
        <ele>457.2</ele>
        <time>2022-04-15T10:37:39Z</time>
      </trkpt>
      <trkpt lat="45.52302" lon="5.76549">
        <ele>457</ele>
        <time>2022-04-15T10:37:40Z</time>
      </trkpt>
      <trkpt lat="45.52307" lon="5.76542">
        <ele>456.8</ele>
        <time>2022-04-15T10:37:41Z</time>
      </trkpt>
      <trkpt lat="45.52312" lon="5.76535">
        <ele>456.6</ele>
        <time>2022-04-15T10:37:42Z</time>
      </trkpt>
      <trkpt lat="45.52317" lon="5.76527">
        <ele>456.4</ele>
        <time>2022-04-15T10:37:43Z</time>
      </trkpt>
      <trkpt lat="45.52322" lon="5.7652">
        <ele>456.2</ele>
        <time>2022-04-15T10:37:44Z</time>
      </trkpt>
      <trkpt lat="45.52327" lon="5.76512">
        <ele>456</ele>
        <time>2022-04-15T10:37:45Z</time>
      </trkpt>
      <trkpt lat="45.52331" lon="5.76505">
        <ele>455.9</ele>
        <time>2022-04-15T10:37:46Z</time>
      </trkpt>
      <trkpt lat="45.52336" lon="5.76498">
        <ele>455.7</ele>
        <time>2022-04-15T10:37:47Z</time>
      </trkpt>
      <trkpt lat="45.52341" lon="5.7649">
        <ele>455.5</ele>
        <time>2022-04-15T10:37:48Z</time>
      </trkpt>
      <trkpt lat="45.52346" lon="5.76483">
        <ele>455.4</ele>
        <time>2022-04-15T10:37:49Z</time>
      </trkpt>
      <trkpt lat="45.52351" lon="5.76477">
        <ele>455.3</ele>
        <time>2022-04-15T10:37:50Z</time>
      </trkpt>
      <trkpt lat="45.52356" lon="5.7647">
        <ele>455.2</ele>
        <time>2022-04-15T10:37:51Z</time>
      </trkpt>
      <trkpt lat="45.52361" lon="5.76463">
        <ele>455.2</ele>
        <time>2022-04-15T10:37:52Z</time>
      </trkpt>
      <trkpt lat="45.52365" lon="5.76455">
        <ele>455.1</ele>
        <time>2022-04-15T10:37:53Z</time>
      </trkpt>
      <trkpt lat="45.5237" lon="5.76448">
        <ele>455.1</ele>
        <time>2022-04-15T10:37:54Z</time>
      </trkpt>
      <trkpt lat="45.52375" lon="5.76441">
        <ele>455</ele>
        <time>2022-04-15T10:37:55Z</time>
      </trkpt>
      <trkpt lat="45.52379" lon="5.76434">
        <ele>454.9</ele>
        <time>2022-04-15T10:37:56Z</time>
      </trkpt>
      <trkpt lat="45.52384" lon="5.76427">
        <ele>454.8</ele>
        <time>2022-04-15T10:37:57Z</time>
      </trkpt>
      <trkpt lat="45.52388" lon="5.76419">
        <ele>454.7</ele>
        <time>2022-04-15T10:37:58Z</time>
      </trkpt>
      <trkpt lat="45.52393" lon="5.76413">
        <ele>454.6</ele>
        <time>2022-04-15T10:37:59Z</time>
      </trkpt>
      <trkpt lat="45.52398" lon="5.76406">
        <ele>454.6</ele>
        <time>2022-04-15T10:38:00Z</time>
      </trkpt>
      <trkpt lat="45.52402" lon="5.76399">
        <ele>454.5</ele>
        <time>2022-04-15T10:38:01Z</time>
      </trkpt>
      <trkpt lat="45.52407" lon="5.76392">
        <ele>454.5</ele>
        <time>2022-04-15T10:38:02Z</time>
      </trkpt>
      <trkpt lat="45.52411" lon="5.76386">
        <ele>454.5</ele>
        <time>2022-04-15T10:38:03Z</time>
      </trkpt>
      <trkpt lat="45.52415" lon="5.7638">
        <ele>454.5</ele>
        <time>2022-04-15T10:38:04Z</time>
      </trkpt>
      <trkpt lat="45.52419" lon="5.76374">
        <ele>454.5</ele>
        <time>2022-04-15T10:38:05Z</time>
      </trkpt>
      <trkpt lat="45.52423" lon="5.76368">
        <ele>454.6</ele>
        <time>2022-04-15T10:38:06Z</time>
      </trkpt>
      <trkpt lat="45.52428" lon="5.76362">
        <ele>454.6</ele>
        <time>2022-04-15T10:38:07Z</time>
      </trkpt>
      <trkpt lat="45.52432" lon="5.76357">
        <ele>454.6</ele>
        <time>2022-04-15T10:38:08Z</time>
      </trkpt>
      <trkpt lat="45.52436" lon="5.76353">
        <ele>454.7</ele>
        <time>2022-04-15T10:38:09Z</time>
      </trkpt>
      <trkpt lat="45.5244" lon="5.76349">
        <ele>454.7</ele>
        <time>2022-04-15T10:38:10Z</time>
      </trkpt>
      <trkpt lat="45.52445" lon="5.76346">
        <ele>454.8</ele>
        <time>2022-04-15T10:38:11Z</time>
      </trkpt>
      <trkpt lat="45.52449" lon="5.76342">
        <ele>454.8</ele>
        <time>2022-04-15T10:38:12Z</time>
      </trkpt>
      <trkpt lat="45.52454" lon="5.76339">
        <ele>454.8</ele>
        <time>2022-04-15T10:38:13Z</time>
      </trkpt>
      <trkpt lat="45.52459" lon="5.76336">
        <ele>454.9</ele>
        <time>2022-04-15T10:38:14Z</time>
      </trkpt>
      <trkpt lat="45.52464" lon="5.76332">
        <ele>454.9</ele>
        <time>2022-04-15T10:38:15Z</time>
      </trkpt>
      <trkpt lat="45.52468" lon="5.76329">
        <ele>455</ele>
        <time>2022-04-15T10:38:16Z</time>
      </trkpt>
      <trkpt lat="45.52473" lon="5.76328">
        <ele>455</ele>
        <time>2022-04-15T10:38:17Z</time>
      </trkpt>
      <trkpt lat="45.52478" lon="5.76326">
        <ele>455.1</ele>
        <time>2022-04-15T10:38:18Z</time>
      </trkpt>
      <trkpt lat="45.52482" lon="5.76325">
        <ele>455.1</ele>
        <time>2022-04-15T10:38:19Z</time>
      </trkpt>
      <trkpt lat="45.52487" lon="5.76324">
        <ele>455.2</ele>
        <time>2022-04-15T10:38:20Z</time>
      </trkpt>
      <trkpt lat="45.52489" lon="5.76323">
        <ele>455.2</ele>
        <time>2022-04-15T10:38:21Z</time>
      </trkpt>
      <trkpt lat="45.52492" lon="5.76322">
        <ele>455.3</ele>
        <time>2022-04-15T10:38:22Z</time>
      </trkpt>
      <trkpt lat="45.52496" lon="5.76321">
        <ele>455.4</ele>
        <time>2022-04-15T10:38:23Z</time>
      </trkpt>
      <trkpt lat="45.525" lon="5.7632">
        <ele>455.4</ele>
        <time>2022-04-15T10:38:24Z</time>
      </trkpt>
      <trkpt lat="45.52504" lon="5.76319">
        <ele>455.5</ele>
        <time>2022-04-15T10:38:25Z</time>
      </trkpt>
      <trkpt lat="45.52508" lon="5.76318">
        <ele>455.6</ele>
        <time>2022-04-15T10:38:26Z</time>
      </trkpt>
      <trkpt lat="45.52511" lon="5.76315">
        <ele>455.7</ele>
        <time>2022-04-15T10:38:27Z</time>
      </trkpt>
      <trkpt lat="45.52518" lon="5.76314">
        <ele>455.8</ele>
        <time>2022-04-15T10:38:28Z</time>
      </trkpt>
      <trkpt lat="45.52523" lon="5.76314">
        <ele>455.9</ele>
        <time>2022-04-15T10:38:30Z</time>
      </trkpt>
      <trkpt lat="45.52529" lon="5.76312">
        <ele>456</ele>
        <time>2022-04-15T10:38:32Z</time>
      </trkpt>
      <trkpt lat="45.52538" lon="5.7631">
        <ele>456.2</ele>
        <time>2022-04-15T10:38:34Z</time>
      </trkpt>
      <trkpt lat="45.52542" lon="5.76309">
        <ele>456.3</ele>
        <time>2022-04-15T10:38:36Z</time>
      </trkpt>
      <trkpt lat="45.52548" lon="5.76308">
        <ele>456.3</ele>
        <time>2022-04-15T10:38:38Z</time>
      </trkpt>
      <trkpt lat="45.52551" lon="5.76308">
        <ele>456.4</ele>
        <time>2022-04-15T10:38:39Z</time>
      </trkpt>
      <trkpt lat="45.52556" lon="5.76306">
        <ele>456.4</ele>
        <time>2022-04-15T10:38:41Z</time>
      </trkpt>
      <trkpt lat="45.52559" lon="5.76305">
        <ele>456.6</ele>
        <time>2022-04-15T10:38:42Z</time>
      </trkpt>
      <trkpt lat="45.52564" lon="5.76302">
        <ele>456.7</ele>
        <time>2022-04-15T10:38:44Z</time>
      </trkpt>
      <trkpt lat="45.52568" lon="5.763">
        <ele>456.8</ele>
        <time>2022-04-15T10:38:45Z</time>
      </trkpt>
      <trkpt lat="45.52572" lon="5.763">
        <ele>457</ele>
        <time>2022-04-15T10:38:46Z</time>
      </trkpt>
      <trkpt lat="45.52576" lon="5.76299">
        <ele>457.1</ele>
        <time>2022-04-15T10:38:48Z</time>
      </trkpt>
      <trkpt lat="45.5258" lon="5.76297">
        <ele>457.3</ele>
        <time>2022-04-15T10:38:49Z</time>
      </trkpt>
      <trkpt lat="45.52581" lon="5.76297">
        <ele>457.3</ele>
        <time>2022-04-15T10:38:50Z</time>
      </trkpt>
      <trkpt lat="45.52584" lon="5.76297">
        <ele>457.4</ele>
        <time>2022-04-15T10:38:51Z</time>
      </trkpt>
      <trkpt lat="45.52588" lon="5.76296">
        <ele>457.6</ele>
        <time>2022-04-15T10:38:52Z</time>
      </trkpt>
      <trkpt lat="45.52593" lon="5.76295">
        <ele>457.8</ele>
        <time>2022-04-15T10:38:54Z</time>
      </trkpt>
      <trkpt lat="45.52597" lon="5.76294">
        <ele>458</ele>
        <time>2022-04-15T10:38:55Z</time>
      </trkpt>
      <trkpt lat="45.526" lon="5.76292">
        <ele>458.1</ele>
        <time>2022-04-15T10:38:57Z</time>
      </trkpt>
      <trkpt lat="45.52603" lon="5.76292">
        <ele>458.2</ele>
        <time>2022-04-15T10:38:58Z</time>
      </trkpt>
      <trkpt lat="45.52609" lon="5.7629">
        <ele>458.4</ele>
        <time>2022-04-15T10:39:00Z</time>
      </trkpt>
      <trkpt lat="45.52613" lon="5.76289">
        <ele>458.6</ele>
        <time>2022-04-15T10:39:02Z</time>
      </trkpt>
      <trkpt lat="45.52616" lon="5.76288">
        <ele>458.7</ele>
        <time>2022-04-15T10:39:03Z</time>
      </trkpt>
      <trkpt lat="45.52617" lon="5.76288">
        <ele>458.8</ele>
        <time>2022-04-15T10:39:04Z</time>
      </trkpt>
      <trkpt lat="45.5262" lon="5.76288">
        <ele>458.9</ele>
        <time>2022-04-15T10:39:05Z</time>
      </trkpt>
      <trkpt lat="45.52623" lon="5.76286">
        <ele>459.1</ele>
        <time>2022-04-15T10:39:07Z</time>
      </trkpt>
      <trkpt lat="45.52627" lon="5.76286">
        <ele>459.2</ele>
        <time>2022-04-15T10:39:08Z</time>
      </trkpt>
      <trkpt lat="45.5263" lon="5.76286">
        <ele>459.4</ele>
        <time>2022-04-15T10:39:10Z</time>
      </trkpt>
      <trkpt lat="45.52631" lon="5.76286">
        <ele>459.4</ele>
        <time>2022-04-15T10:39:11Z</time>
      </trkpt>
      <trkpt lat="45.52634" lon="5.76285">
        <ele>459.6</ele>
        <time>2022-04-15T10:39:12Z</time>
      </trkpt>
      <trkpt lat="45.52635" lon="5.76285">
        <ele>459.6</ele>
        <time>2022-04-15T10:39:13Z</time>
      </trkpt>
      <trkpt lat="45.52637" lon="5.76285">
        <ele>459.7</ele>
        <time>2022-04-15T10:39:14Z</time>
      </trkpt>
      <trkpt lat="45.52638" lon="5.76284">
        <ele>459.8</ele>
        <time>2022-04-15T10:39:15Z</time>
      </trkpt>
      <trkpt lat="45.52643" lon="5.76282">
        <ele>460</ele>
        <time>2022-04-15T10:39:17Z</time>
      </trkpt>
      <trkpt lat="45.52644" lon="5.76282">
        <ele>460.1</ele>
        <time>2022-04-15T10:39:18Z</time>
      </trkpt>
      <trkpt lat="45.52646" lon="5.76282">
        <ele>460.1</ele>
        <time>2022-04-15T10:39:19Z</time>
      </trkpt>
      <trkpt lat="45.52648" lon="5.76282">
        <ele>460.3</ele>
        <time>2022-04-15T10:39:20Z</time>
      </trkpt>
      <trkpt lat="45.52649" lon="5.76282">
        <ele>460.3</ele>
        <time>2022-04-15T10:39:21Z</time>
      </trkpt>
      <trkpt lat="45.52652" lon="5.76282">
        <ele>460.4</ele>
        <time>2022-04-15T10:39:22Z</time>
      </trkpt>
      <trkpt lat="45.52653" lon="5.76282">
        <ele>460.5</ele>
        <time>2022-04-15T10:39:23Z</time>
      </trkpt>
      <trkpt lat="45.52655" lon="5.76281">
        <ele>460.6</ele>
        <time>2022-04-15T10:39:25Z</time>
      </trkpt>
      <trkpt lat="45.52659" lon="5.76281">
        <ele>460.8</ele>
        <time>2022-04-15T10:39:27Z</time>
      </trkpt>
      <trkpt lat="45.52663" lon="5.7628">
        <ele>461</ele>
        <time>2022-04-15T10:39:28Z</time>
      </trkpt>
      <trkpt lat="45.52664" lon="5.76281">
        <ele>461</ele>
        <time>2022-04-15T10:39:29Z</time>
      </trkpt>
      <trkpt lat="45.52667" lon="5.7628">
        <ele>461.2</ele>
        <time>2022-04-15T10:39:31Z</time>
      </trkpt>
      <trkpt lat="45.52668" lon="5.7628">
        <ele>461.2</ele>
        <time>2022-04-15T10:39:32Z</time>
      </trkpt>
      <trkpt lat="45.5267" lon="5.76279">
        <ele>461.3</ele>
        <time>2022-04-15T10:39:33Z</time>
      </trkpt>
      <trkpt lat="45.52674" lon="5.7628">
        <ele>461.5</ele>
        <time>2022-04-15T10:39:34Z</time>
      </trkpt>
      <trkpt lat="45.52675" lon="5.7628">
        <ele>461.6</ele>
        <time>2022-04-15T10:39:35Z</time>
      </trkpt>
      <trkpt lat="45.52678" lon="5.7628">
        <ele>461.7</ele>
        <time>2022-04-15T10:39:36Z</time>
      </trkpt>
      <trkpt lat="45.5268" lon="5.76279">
        <ele>461.8</ele>
        <time>2022-04-15T10:39:37Z</time>
      </trkpt>
      <trkpt lat="45.52682" lon="5.76279">
        <ele>461.9</ele>
        <time>2022-04-15T10:39:39Z</time>
      </trkpt>
      <trkpt lat="45.52686" lon="5.76278">
        <ele>462.1</ele>
        <time>2022-04-15T10:39:40Z</time>
      </trkpt>
      <trkpt lat="45.5269" lon="5.76277">
        <ele>462.3</ele>
        <time>2022-04-15T10:39:42Z</time>
      </trkpt>
      <trkpt lat="45.52692" lon="5.76277">
        <ele>462.4</ele>
        <time>2022-04-15T10:39:43Z</time>
      </trkpt>
      <trkpt lat="45.52693" lon="5.76277">
        <ele>462.5</ele>
        <time>2022-04-15T10:39:44Z</time>
      </trkpt>
      <trkpt lat="45.52696" lon="5.76277">
        <ele>462.6</ele>
        <time>2022-04-15T10:39:45Z</time>
      </trkpt>
      <trkpt lat="45.52699" lon="5.76276">
        <ele>462.8</ele>
        <time>2022-04-15T10:39:47Z</time>
      </trkpt>
      <trkpt lat="45.527" lon="5.76276">
        <ele>462.9</ele>
        <time>2022-04-15T10:39:48Z</time>
      </trkpt>
      <trkpt lat="45.52704" lon="5.76276">
        <ele>463</ele>
        <time>2022-04-15T10:39:49Z</time>
      </trkpt>
      <trkpt lat="45.52705" lon="5.76276">
        <ele>463.1</ele>
        <time>2022-04-15T10:39:50Z</time>
      </trkpt>
      <trkpt lat="45.52707" lon="5.76276">
        <ele>463.2</ele>
        <time>2022-04-15T10:39:51Z</time>
      </trkpt>
      <trkpt lat="45.5271" lon="5.76275">
        <ele>463.4</ele>
        <time>2022-04-15T10:39:53Z</time>
      </trkpt>
      <trkpt lat="45.52714" lon="5.76274">
        <ele>463.6</ele>
        <time>2022-04-15T10:39:55Z</time>
      </trkpt>
      <trkpt lat="45.52715" lon="5.76273">
        <ele>463.6</ele>
        <time>2022-04-15T10:39:56Z</time>
      </trkpt>
      <trkpt lat="45.52717" lon="5.76273">
        <ele>463.7</ele>
        <time>2022-04-15T10:39:57Z</time>
      </trkpt>
      <trkpt lat="45.52721" lon="5.76272">
        <ele>463.9</ele>
        <time>2022-04-15T10:39:59Z</time>
      </trkpt>
      <trkpt lat="45.52725" lon="5.7627">
        <ele>464.1</ele>
        <time>2022-04-15T10:40:01Z</time>
      </trkpt>
      <trkpt lat="45.52728" lon="5.7627">
        <ele>464.3</ele>
        <time>2022-04-15T10:40:02Z</time>
      </trkpt>
      <trkpt lat="45.52729" lon="5.7627">
        <ele>464.4</ele>
        <time>2022-04-15T10:40:03Z</time>
      </trkpt>
      <trkpt lat="45.52733" lon="5.76269">
        <ele>464.5</ele>
        <time>2022-04-15T10:40:04Z</time>
      </trkpt>
      <trkpt lat="45.52736" lon="5.76268">
        <ele>464.7</ele>
        <time>2022-04-15T10:40:06Z</time>
      </trkpt>
      <trkpt lat="45.52737" lon="5.76268">
        <ele>464.7</ele>
        <time>2022-04-15T10:40:07Z</time>
      </trkpt>
      <trkpt lat="45.52741" lon="5.76268">
        <ele>464.9</ele>
        <time>2022-04-15T10:40:08Z</time>
      </trkpt>
      <trkpt lat="45.52744" lon="5.76266">
        <ele>465.1</ele>
        <time>2022-04-15T10:40:10Z</time>
      </trkpt>
      <trkpt lat="45.52745" lon="5.76266">
        <ele>465.1</ele>
        <time>2022-04-15T10:40:11Z</time>
      </trkpt>
      <trkpt lat="45.52748" lon="5.76266">
        <ele>465.3</ele>
        <time>2022-04-15T10:40:12Z</time>
      </trkpt>
      <trkpt lat="45.52752" lon="5.76266">
        <ele>465.5</ele>
        <time>2022-04-15T10:40:14Z</time>
      </trkpt>
      <trkpt lat="45.52753" lon="5.76265">
        <ele>465.5</ele>
        <time>2022-04-15T10:40:15Z</time>
      </trkpt>
      <trkpt lat="45.52756" lon="5.76265">
        <ele>465.7</ele>
        <time>2022-04-15T10:40:16Z</time>
      </trkpt>
      <trkpt lat="45.52759" lon="5.76265">
        <ele>465.8</ele>
        <time>2022-04-15T10:40:17Z</time>
      </trkpt>
      <trkpt lat="45.52762" lon="5.76265">
        <ele>466</ele>
        <time>2022-04-15T10:40:19Z</time>
      </trkpt>
      <trkpt lat="45.52765" lon="5.76264">
        <ele>466.1</ele>
        <time>2022-04-15T10:40:20Z</time>
      </trkpt>
      <trkpt lat="45.52769" lon="5.76263">
        <ele>466.3</ele>
        <time>2022-04-15T10:40:22Z</time>
      </trkpt>
      <trkpt lat="45.5277" lon="5.76263">
        <ele>466.3</ele>
        <time>2022-04-15T10:40:23Z</time>
      </trkpt>
      <trkpt lat="45.52771" lon="5.76263">
        <ele>466.4</ele>
        <time>2022-04-15T10:40:24Z</time>
      </trkpt>
      <trkpt lat="45.52774" lon="5.76262">
        <ele>466.5</ele>
        <time>2022-04-15T10:40:25Z</time>
      </trkpt>
      <trkpt lat="45.52775" lon="5.76262">
        <ele>466.6</ele>
        <time>2022-04-15T10:40:26Z</time>
      </trkpt>
      <trkpt lat="45.5278" lon="5.76262">
        <ele>466.8</ele>
        <time>2022-04-15T10:40:27Z</time>
      </trkpt>
      <trkpt lat="45.52782" lon="5.76261">
        <ele>466.9</ele>
        <time>2022-04-15T10:40:28Z</time>
      </trkpt>
      <trkpt lat="45.52786" lon="5.76261">
        <ele>467.1</ele>
        <time>2022-04-15T10:40:30Z</time>
      </trkpt>
      <trkpt lat="45.52787" lon="5.76261">
        <ele>467.1</ele>
        <time>2022-04-15T10:40:31Z</time>
      </trkpt>
      <trkpt lat="45.52789" lon="5.76261">
        <ele>467.2</ele>
        <time>2022-04-15T10:40:32Z</time>
      </trkpt>
      <trkpt lat="45.5279" lon="5.76261">
        <ele>467.3</ele>
        <time>2022-04-15T10:40:33Z</time>
      </trkpt>
      <trkpt lat="45.52794" lon="5.76261">
        <ele>467.5</ele>
        <time>2022-04-15T10:40:34Z</time>
      </trkpt>
      <trkpt lat="45.52795" lon="5.76262">
        <ele>467.5</ele>
        <time>2022-04-15T10:40:35Z</time>
      </trkpt>
      <trkpt lat="45.52799" lon="5.76261">
        <ele>467.7</ele>
        <time>2022-04-15T10:40:36Z</time>
      </trkpt>
      <trkpt lat="45.52801" lon="5.76261">
        <ele>467.8</ele>
        <time>2022-04-15T10:40:37Z</time>
      </trkpt>
      <trkpt lat="45.52804" lon="5.7626">
        <ele>467.9</ele>
        <time>2022-04-15T10:40:39Z</time>
      </trkpt>
      <trkpt lat="45.52806" lon="5.7626">
        <ele>468.1</ele>
        <time>2022-04-15T10:40:40Z</time>
      </trkpt>
      <trkpt lat="45.5281" lon="5.76259">
        <ele>468.3</ele>
        <time>2022-04-15T10:40:42Z</time>
      </trkpt>
      <trkpt lat="45.52814" lon="5.7626">
        <ele>468.4</ele>
        <time>2022-04-15T10:40:43Z</time>
      </trkpt>
      <trkpt lat="45.52816" lon="5.7626">
        <ele>468.5</ele>
        <time>2022-04-15T10:40:44Z</time>
      </trkpt>
      <trkpt lat="45.52819" lon="5.7626">
        <ele>468.7</ele>
        <time>2022-04-15T10:40:46Z</time>
      </trkpt>
      <trkpt lat="45.52822" lon="5.7626">
        <ele>468.8</ele>
        <time>2022-04-15T10:40:47Z</time>
      </trkpt>
      <trkpt lat="45.52823" lon="5.7626">
        <ele>468.9</ele>
        <time>2022-04-15T10:40:48Z</time>
      </trkpt>
      <trkpt lat="45.52825" lon="5.7626">
        <ele>469</ele>
        <time>2022-04-15T10:40:49Z</time>
      </trkpt>
      <trkpt lat="45.5283" lon="5.76259">
        <ele>469.2</ele>
        <time>2022-04-15T10:40:51Z</time>
      </trkpt>
      <trkpt lat="45.52833" lon="5.76259">
        <ele>469.3</ele>
        <time>2022-04-15T10:40:52Z</time>
      </trkpt>
      <trkpt lat="45.52838" lon="5.76259">
        <ele>469.5</ele>
        <time>2022-04-15T10:40:54Z</time>
      </trkpt>
      <trkpt lat="45.52842" lon="5.76259">
        <ele>469.8</ele>
        <time>2022-04-15T10:40:56Z</time>
      </trkpt>
      <trkpt lat="45.52843" lon="5.76258">
        <ele>469.8</ele>
        <time>2022-04-15T10:40:57Z</time>
      </trkpt>
      <trkpt lat="45.52845" lon="5.76258">
        <ele>469.9</ele>
        <time>2022-04-15T10:40:58Z</time>
      </trkpt>
      <trkpt lat="45.52849" lon="5.76258">
        <ele>470.1</ele>
        <time>2022-04-15T10:40:59Z</time>
      </trkpt>
      <trkpt lat="45.52851" lon="5.76257">
        <ele>470.2</ele>
        <time>2022-04-15T10:41:00Z</time>
      </trkpt>
      <trkpt lat="45.52855" lon="5.76257">
        <ele>470.4</ele>
        <time>2022-04-15T10:41:02Z</time>
      </trkpt>
      <trkpt lat="45.52856" lon="5.76257">
        <ele>470.4</ele>
        <time>2022-04-15T10:41:03Z</time>
      </trkpt>
      <trkpt lat="45.52859" lon="5.76257">
        <ele>470.6</ele>
        <time>2022-04-15T10:41:04Z</time>
      </trkpt>
      <trkpt lat="45.52859" lon="5.76257">
        <ele>470.6</ele>
        <time>2022-04-15T10:41:05Z</time>
      </trkpt>
      <trkpt lat="45.52863" lon="5.76256">
        <ele>470.7</ele>
        <time>2022-04-15T10:41:06Z</time>
      </trkpt>
      <trkpt lat="45.52863" lon="5.76256">
        <ele>470.8</ele>
        <time>2022-04-15T10:41:07Z</time>
      </trkpt>
      <trkpt lat="45.52867" lon="5.76255">
        <ele>470.9</ele>
        <time>2022-04-15T10:41:08Z</time>
      </trkpt>
      <trkpt lat="45.52868" lon="5.76255">
        <ele>471</ele>
        <time>2022-04-15T10:41:09Z</time>
      </trkpt>
      <trkpt lat="45.52872" lon="5.76255">
        <ele>471.2</ele>
        <time>2022-04-15T10:41:11Z</time>
      </trkpt>
      <trkpt lat="45.52873" lon="5.76255">
        <ele>471.2</ele>
        <time>2022-04-15T10:41:12Z</time>
      </trkpt>
      <trkpt lat="45.52877" lon="5.76254">
        <ele>471.4</ele>
        <time>2022-04-15T10:41:13Z</time>
      </trkpt>
      <trkpt lat="45.52878" lon="5.76253">
        <ele>471.4</ele>
        <time>2022-04-15T10:41:14Z</time>
      </trkpt>
      <trkpt lat="45.52883" lon="5.76254">
        <ele>471.6</ele>
        <time>2022-04-15T10:41:16Z</time>
      </trkpt>
      <trkpt lat="45.52885" lon="5.76253">
        <ele>471.7</ele>
        <time>2022-04-15T10:41:17Z</time>
      </trkpt>
      <trkpt lat="45.52889" lon="5.76253">
        <ele>471.9</ele>
        <time>2022-04-15T10:41:19Z</time>
      </trkpt>
      <trkpt lat="45.52893" lon="5.76252">
        <ele>472</ele>
        <time>2022-04-15T10:41:20Z</time>
      </trkpt>
      <trkpt lat="45.52894" lon="5.76252">
        <ele>472.1</ele>
        <time>2022-04-15T10:41:21Z</time>
      </trkpt>
      <trkpt lat="45.52898" lon="5.76251">
        <ele>472.3</ele>
        <time>2022-04-15T10:41:22Z</time>
      </trkpt>
      <trkpt lat="45.52903" lon="5.76251">
        <ele>472.5</ele>
        <time>2022-04-15T10:41:24Z</time>
      </trkpt>
      <trkpt lat="45.52904" lon="5.76251">
        <ele>472.5</ele>
        <time>2022-04-15T10:41:25Z</time>
      </trkpt>
      <trkpt lat="45.52906" lon="5.76251">
        <ele>472.6</ele>
        <time>2022-04-15T10:41:26Z</time>
      </trkpt>
      <trkpt lat="45.52909" lon="5.76251">
        <ele>472.7</ele>
        <time>2022-04-15T10:41:27Z</time>
      </trkpt>
      <trkpt lat="45.52912" lon="5.76249">
        <ele>472.9</ele>
        <time>2022-04-15T10:41:28Z</time>
      </trkpt>
      <trkpt lat="45.52917" lon="5.76249">
        <ele>473.1</ele>
        <time>2022-04-15T10:41:30Z</time>
      </trkpt>
      <trkpt lat="45.52919" lon="5.76249">
        <ele>473.2</ele>
        <time>2022-04-15T10:41:31Z</time>
      </trkpt>
      <trkpt lat="45.52921" lon="5.76248">
        <ele>473.3</ele>
        <time>2022-04-15T10:41:32Z</time>
      </trkpt>
      <trkpt lat="45.52927" lon="5.76248">
        <ele>473.6</ele>
        <time>2022-04-15T10:41:34Z</time>
      </trkpt>
      <trkpt lat="45.5293" lon="5.76248">
        <ele>473.7</ele>
        <time>2022-04-15T10:41:35Z</time>
      </trkpt>
      <trkpt lat="45.52936" lon="5.76249">
        <ele>474</ele>
        <time>2022-04-15T10:41:37Z</time>
      </trkpt>
      <trkpt lat="45.52941" lon="5.76248">
        <ele>474.3</ele>
        <time>2022-04-15T10:41:39Z</time>
      </trkpt>
      <trkpt lat="45.52945" lon="5.76248">
        <ele>474.4</ele>
        <time>2022-04-15T10:41:40Z</time>
      </trkpt>
      <trkpt lat="45.5295" lon="5.76248">
        <ele>474.6</ele>
        <time>2022-04-15T10:41:42Z</time>
      </trkpt>
      <trkpt lat="45.52951" lon="5.76248">
        <ele>474.7</ele>
        <time>2022-04-15T10:41:43Z</time>
      </trkpt>
      <trkpt lat="45.52953" lon="5.76248">
        <ele>474.8</ele>
        <time>2022-04-15T10:41:44Z</time>
      </trkpt>
      <trkpt lat="45.52956" lon="5.76248">
        <ele>474.9</ele>
        <time>2022-04-15T10:41:45Z</time>
      </trkpt>
      <trkpt lat="45.5296" lon="5.76246">
        <ele>475.1</ele>
        <time>2022-04-15T10:41:47Z</time>
      </trkpt>
      <trkpt lat="45.52965" lon="5.76246">
        <ele>475.3</ele>
        <time>2022-04-15T10:41:48Z</time>
      </trkpt>
      <trkpt lat="45.52967" lon="5.76247">
        <ele>475.4</ele>
        <time>2022-04-15T10:41:49Z</time>
      </trkpt>
      <trkpt lat="45.5297" lon="5.76247">
        <ele>475.5</ele>
        <time>2022-04-15T10:41:51Z</time>
      </trkpt>
      <trkpt lat="45.52973" lon="5.76247">
        <ele>475.6</ele>
        <time>2022-04-15T10:41:52Z</time>
      </trkpt>
      <trkpt lat="45.52976" lon="5.76246">
        <ele>475.7</ele>
        <time>2022-04-15T10:41:53Z</time>
      </trkpt>
      <trkpt lat="45.52979" lon="5.76246">
        <ele>475.8</ele>
        <time>2022-04-15T10:41:54Z</time>
      </trkpt>
      <trkpt lat="45.52984" lon="5.76246">
        <ele>475.9</ele>
        <time>2022-04-15T10:41:56Z</time>
      </trkpt>
      <trkpt lat="45.52989" lon="5.76246">
        <ele>476</ele>
        <time>2022-04-15T10:41:57Z</time>
      </trkpt>
      <trkpt lat="45.52991" lon="5.76245">
        <ele>476</ele>
        <time>2022-04-15T10:41:58Z</time>
      </trkpt>
      <trkpt lat="45.52994" lon="5.76245">
        <ele>476.1</ele>
        <time>2022-04-15T10:42:00Z</time>
      </trkpt>
      <trkpt lat="45.52997" lon="5.76244">
        <ele>476.1</ele>
        <time>2022-04-15T10:42:01Z</time>
      </trkpt>
      <trkpt lat="45.53002" lon="5.76242">
        <ele>476.1</ele>
        <time>2022-04-15T10:42:03Z</time>
      </trkpt>
      <trkpt lat="45.53005" lon="5.76241">
        <ele>476.1</ele>
        <time>2022-04-15T10:42:04Z</time>
      </trkpt>
      <trkpt lat="45.53009" lon="5.76241">
        <ele>476.1</ele>
        <time>2022-04-15T10:42:05Z</time>
      </trkpt>
      <trkpt lat="45.53012" lon="5.7624">
        <ele>476.1</ele>
        <time>2022-04-15T10:42:06Z</time>
      </trkpt>
      <trkpt lat="45.53016" lon="5.76239">
        <ele>476</ele>
        <time>2022-04-15T10:42:07Z</time>
      </trkpt>
      <trkpt lat="45.53022" lon="5.76238">
        <ele>476</ele>
        <time>2022-04-15T10:42:09Z</time>
      </trkpt>
      <trkpt lat="45.53027" lon="5.76237">
        <ele>475.9</ele>
        <time>2022-04-15T10:42:10Z</time>
      </trkpt>
      <trkpt lat="45.53034" lon="5.76236">
        <ele>475.7</ele>
        <time>2022-04-15T10:42:11Z</time>
      </trkpt>
      <trkpt lat="45.53043" lon="5.76233">
        <ele>475.1</ele>
        <time>2022-04-15T10:42:13Z</time>
      </trkpt>
      <trkpt lat="45.53049" lon="5.76231">
        <ele>474.8</ele>
        <time>2022-04-15T10:42:14Z</time>
      </trkpt>
      <trkpt lat="45.53055" lon="5.76228">
        <ele>474.4</ele>
        <time>2022-04-15T10:42:15Z</time>
      </trkpt>
      <trkpt lat="45.53061" lon="5.76226">
        <ele>474</ele>
        <time>2022-04-15T10:42:16Z</time>
      </trkpt>
      <trkpt lat="45.53067" lon="5.76224">
        <ele>473.5</ele>
        <time>2022-04-15T10:42:17Z</time>
      </trkpt>
      <trkpt lat="45.53074" lon="5.76222">
        <ele>473.1</ele>
        <time>2022-04-15T10:42:18Z</time>
      </trkpt>
      <trkpt lat="45.53081" lon="5.7622">
        <ele>472.6</ele>
        <time>2022-04-15T10:42:19Z</time>
      </trkpt>
      <trkpt lat="45.53088" lon="5.76218">
        <ele>472.1</ele>
        <time>2022-04-15T10:42:20Z</time>
      </trkpt>
      <trkpt lat="45.53096" lon="5.76215">
        <ele>471.6</ele>
        <time>2022-04-15T10:42:21Z</time>
      </trkpt>
      <trkpt lat="45.53103" lon="5.76213">
        <ele>471.1</ele>
        <time>2022-04-15T10:42:22Z</time>
      </trkpt>
      <trkpt lat="45.53111" lon="5.76211">
        <ele>470.6</ele>
        <time>2022-04-15T10:42:23Z</time>
      </trkpt>
      <trkpt lat="45.53118" lon="5.76209">
        <ele>470.1</ele>
        <time>2022-04-15T10:42:24Z</time>
      </trkpt>
      <trkpt lat="45.53127" lon="5.76208">
        <ele>469.6</ele>
        <time>2022-04-15T10:42:25Z</time>
      </trkpt>
      <trkpt lat="45.53135" lon="5.76206">
        <ele>469</ele>
        <time>2022-04-15T10:42:26Z</time>
      </trkpt>
      <trkpt lat="45.53143" lon="5.76206">
        <ele>468.5</ele>
        <time>2022-04-15T10:42:27Z</time>
      </trkpt>
      <trkpt lat="45.53152" lon="5.76206">
        <ele>467.9</ele>
        <time>2022-04-15T10:42:28Z</time>
      </trkpt>
      <trkpt lat="45.53162" lon="5.76205">
        <ele>467.3</ele>
        <time>2022-04-15T10:42:29Z</time>
      </trkpt>
      <trkpt lat="45.53171" lon="5.76204">
        <ele>466.7</ele>
        <time>2022-04-15T10:42:30Z</time>
      </trkpt>
      <trkpt lat="45.5318" lon="5.76203">
        <ele>466</ele>
        <time>2022-04-15T10:42:31Z</time>
      </trkpt>
      <trkpt lat="45.53189" lon="5.76202">
        <ele>465.4</ele>
        <time>2022-04-15T10:42:32Z</time>
      </trkpt>
      <trkpt lat="45.53199" lon="5.76201">
        <ele>464.7</ele>
        <time>2022-04-15T10:42:33Z</time>
      </trkpt>
      <trkpt lat="45.53208" lon="5.76199">
        <ele>464.1</ele>
        <time>2022-04-15T10:42:34Z</time>
      </trkpt>
      <trkpt lat="45.53218" lon="5.76196">
        <ele>463.4</ele>
        <time>2022-04-15T10:42:35Z</time>
      </trkpt>
      <trkpt lat="45.53227" lon="5.76193">
        <ele>462.8</ele>
        <time>2022-04-15T10:42:36Z</time>
      </trkpt>
      <trkpt lat="45.53237" lon="5.7619">
        <ele>462.2</ele>
        <time>2022-04-15T10:42:37Z</time>
      </trkpt>
      <trkpt lat="45.53246" lon="5.76186">
        <ele>461.5</ele>
        <time>2022-04-15T10:42:38Z</time>
      </trkpt>
      <trkpt lat="45.53256" lon="5.76181">
        <ele>460.8</ele>
        <time>2022-04-15T10:42:39Z</time>
      </trkpt>
      <trkpt lat="45.53266" lon="5.76176">
        <ele>460.1</ele>
        <time>2022-04-15T10:42:40Z</time>
      </trkpt>
      <trkpt lat="45.53276" lon="5.76172">
        <ele>459.4</ele>
        <time>2022-04-15T10:42:41Z</time>
      </trkpt>
      <trkpt lat="45.53286" lon="5.76168">
        <ele>458.7</ele>
        <time>2022-04-15T10:42:42Z</time>
      </trkpt>
      <trkpt lat="45.53295" lon="5.76165">
        <ele>458</ele>
        <time>2022-04-15T10:42:43Z</time>
      </trkpt>
      <trkpt lat="45.53305" lon="5.76161">
        <ele>457.3</ele>
        <time>2022-04-15T10:42:44Z</time>
      </trkpt>
      <trkpt lat="45.53315" lon="5.76158">
        <ele>456.6</ele>
        <time>2022-04-15T10:42:45Z</time>
      </trkpt>
      <trkpt lat="45.53324" lon="5.76154">
        <ele>456</ele>
        <time>2022-04-15T10:42:46Z</time>
      </trkpt>
      <trkpt lat="45.53334" lon="5.76151">
        <ele>455.3</ele>
        <time>2022-04-15T10:42:47Z</time>
      </trkpt>
      <trkpt lat="45.53343" lon="5.76147">
        <ele>454.6</ele>
        <time>2022-04-15T10:42:48Z</time>
      </trkpt>
      <trkpt lat="45.53353" lon="5.76143">
        <ele>454</ele>
        <time>2022-04-15T10:42:49Z</time>
      </trkpt>
      <trkpt lat="45.53362" lon="5.76139">
        <ele>453.3</ele>
        <time>2022-04-15T10:42:50Z</time>
      </trkpt>
      <trkpt lat="45.53372" lon="5.76135">
        <ele>452.7</ele>
        <time>2022-04-15T10:42:51Z</time>
      </trkpt>
      <trkpt lat="45.53382" lon="5.76132">
        <ele>452.1</ele>
        <time>2022-04-15T10:42:52Z</time>
      </trkpt>
      <trkpt lat="45.53392" lon="5.76131">
        <ele>451.4</ele>
        <time>2022-04-15T10:42:53Z</time>
      </trkpt>
      <trkpt lat="45.53402" lon="5.7613">
        <ele>450.9</ele>
        <time>2022-04-15T10:42:54Z</time>
      </trkpt>
      <trkpt lat="45.53412" lon="5.76131">
        <ele>450.6</ele>
        <time>2022-04-15T10:42:55Z</time>
      </trkpt>
      <trkpt lat="45.53422" lon="5.76132">
        <ele>450.3</ele>
        <time>2022-04-15T10:42:56Z</time>
      </trkpt>
      <trkpt lat="45.53432" lon="5.76135">
        <ele>449.9</ele>
        <time>2022-04-15T10:42:57Z</time>
      </trkpt>
      <trkpt lat="45.53442" lon="5.76139">
        <ele>449.5</ele>
        <time>2022-04-15T10:42:58Z</time>
      </trkpt>
      <trkpt lat="45.53451" lon="5.76143">
        <ele>449</ele>
        <time>2022-04-15T10:42:59Z</time>
      </trkpt>
      <trkpt lat="45.5346" lon="5.76146">
        <ele>448.5</ele>
        <time>2022-04-15T10:43:00Z</time>
      </trkpt>
      <trkpt lat="45.5347" lon="5.76149">
        <ele>448</ele>
        <time>2022-04-15T10:43:01Z</time>
      </trkpt>
      <trkpt lat="45.53479" lon="5.76151">
        <ele>447.5</ele>
        <time>2022-04-15T10:43:02Z</time>
      </trkpt>
      <trkpt lat="45.53489" lon="5.76153">
        <ele>446.9</ele>
        <time>2022-04-15T10:43:03Z</time>
      </trkpt>
      <trkpt lat="45.53499" lon="5.76153">
        <ele>446.2</ele>
        <time>2022-04-15T10:43:04Z</time>
      </trkpt>
      <trkpt lat="45.53509" lon="5.76154">
        <ele>445.5</ele>
        <time>2022-04-15T10:43:05Z</time>
      </trkpt>
      <trkpt lat="45.53519" lon="5.76155">
        <ele>444.9</ele>
        <time>2022-04-15T10:43:06Z</time>
      </trkpt>
      <trkpt lat="45.53529" lon="5.76155">
        <ele>444.2</ele>
        <time>2022-04-15T10:43:07Z</time>
      </trkpt>
      <trkpt lat="45.5354" lon="5.76155">
        <ele>443.6</ele>
        <time>2022-04-15T10:43:08Z</time>
      </trkpt>
      <trkpt lat="45.5355" lon="5.76156">
        <ele>442.9</ele>
        <time>2022-04-15T10:43:09Z</time>
      </trkpt>
      <trkpt lat="45.53561" lon="5.76156">
        <ele>442.3</ele>
        <time>2022-04-15T10:43:10Z</time>
      </trkpt>
      <trkpt lat="45.53572" lon="5.76156">
        <ele>441.6</ele>
        <time>2022-04-15T10:43:11Z</time>
      </trkpt>
      <trkpt lat="45.53582" lon="5.76156">
        <ele>440.9</ele>
        <time>2022-04-15T10:43:12Z</time>
      </trkpt>
      <trkpt lat="45.53593" lon="5.76155">
        <ele>440.3</ele>
        <time>2022-04-15T10:43:13Z</time>
      </trkpt>
      <trkpt lat="45.53604" lon="5.76155">
        <ele>439.5</ele>
        <time>2022-04-15T10:43:14Z</time>
      </trkpt>
      <trkpt lat="45.53615" lon="5.76154">
        <ele>438.7</ele>
        <time>2022-04-15T10:43:15Z</time>
      </trkpt>
      <trkpt lat="45.53626" lon="5.76154">
        <ele>438</ele>
        <time>2022-04-15T10:43:16Z</time>
      </trkpt>
      <trkpt lat="45.53638" lon="5.76154">
        <ele>437.3</ele>
        <time>2022-04-15T10:43:17Z</time>
      </trkpt>
      <trkpt lat="45.53649" lon="5.76155">
        <ele>436.5</ele>
        <time>2022-04-15T10:43:18Z</time>
      </trkpt>
      <trkpt lat="45.5366" lon="5.76155">
        <ele>435.8</ele>
        <time>2022-04-15T10:43:19Z</time>
      </trkpt>
      <trkpt lat="45.53672" lon="5.76155">
        <ele>435</ele>
        <time>2022-04-15T10:43:20Z</time>
      </trkpt>
      <trkpt lat="45.53683" lon="5.76155">
        <ele>434.3</ele>
        <time>2022-04-15T10:43:21Z</time>
      </trkpt>
      <trkpt lat="45.53695" lon="5.76156">
        <ele>433.6</ele>
        <time>2022-04-15T10:43:22Z</time>
      </trkpt>
      <trkpt lat="45.53706" lon="5.76157">
        <ele>432.9</ele>
        <time>2022-04-15T10:43:23Z</time>
      </trkpt>
      <trkpt lat="45.53717" lon="5.76157">
        <ele>432.2</ele>
        <time>2022-04-15T10:43:24Z</time>
      </trkpt>
      <trkpt lat="45.53728" lon="5.76155">
        <ele>431.5</ele>
        <time>2022-04-15T10:43:25Z</time>
      </trkpt>
      <trkpt lat="45.53739" lon="5.76154">
        <ele>430.8</ele>
        <time>2022-04-15T10:43:26Z</time>
      </trkpt>
      <trkpt lat="45.5375" lon="5.76153">
        <ele>430.1</ele>
        <time>2022-04-15T10:43:27Z</time>
      </trkpt>
      <trkpt lat="45.53761" lon="5.76151">
        <ele>429.4</ele>
        <time>2022-04-15T10:43:28Z</time>
      </trkpt>
      <trkpt lat="45.53772" lon="5.76148">
        <ele>428.8</ele>
        <time>2022-04-15T10:43:29Z</time>
      </trkpt>
      <trkpt lat="45.53783" lon="5.76147">
        <ele>428.1</ele>
        <time>2022-04-15T10:43:30Z</time>
      </trkpt>
      <trkpt lat="45.53794" lon="5.76144">
        <ele>427.4</ele>
        <time>2022-04-15T10:43:31Z</time>
      </trkpt>
      <trkpt lat="45.53805" lon="5.76142">
        <ele>426.7</ele>
        <time>2022-04-15T10:43:32Z</time>
      </trkpt>
      <trkpt lat="45.53815" lon="5.7614">
        <ele>426.1</ele>
        <time>2022-04-15T10:43:33Z</time>
      </trkpt>
      <trkpt lat="45.53826" lon="5.76137">
        <ele>425.5</ele>
        <time>2022-04-15T10:43:34Z</time>
      </trkpt>
      <trkpt lat="45.53837" lon="5.76135">
        <ele>424.9</ele>
        <time>2022-04-15T10:43:35Z</time>
      </trkpt>
      <trkpt lat="45.53847" lon="5.76134">
        <ele>424.3</ele>
        <time>2022-04-15T10:43:36Z</time>
      </trkpt>
      <trkpt lat="45.53858" lon="5.76132">
        <ele>423.7</ele>
        <time>2022-04-15T10:43:37Z</time>
      </trkpt>
      <trkpt lat="45.53868" lon="5.7613">
        <ele>423.1</ele>
        <time>2022-04-15T10:43:38Z</time>
      </trkpt>
      <trkpt lat="45.53879" lon="5.76129">
        <ele>422.6</ele>
        <time>2022-04-15T10:43:39Z</time>
      </trkpt>
      <trkpt lat="45.53889" lon="5.76127">
        <ele>422</ele>
        <time>2022-04-15T10:43:40Z</time>
      </trkpt>
      <trkpt lat="45.539" lon="5.76126">
        <ele>421.5</ele>
        <time>2022-04-15T10:43:41Z</time>
      </trkpt>
      <trkpt lat="45.5391" lon="5.76126">
        <ele>421</ele>
        <time>2022-04-15T10:43:42Z</time>
      </trkpt>
      <trkpt lat="45.53921" lon="5.76127">
        <ele>420.6</ele>
        <time>2022-04-15T10:43:43Z</time>
      </trkpt>
      <trkpt lat="45.5393" lon="5.76128">
        <ele>420.2</ele>
        <time>2022-04-15T10:43:44Z</time>
      </trkpt>
      <trkpt lat="45.53939" lon="5.76129">
        <ele>419.9</ele>
        <time>2022-04-15T10:43:45Z</time>
      </trkpt>
      <trkpt lat="45.53947" lon="5.76131">
        <ele>419.6</ele>
        <time>2022-04-15T10:43:46Z</time>
      </trkpt>
      <trkpt lat="45.53951" lon="5.76133">
        <ele>419.4</ele>
        <time>2022-04-15T10:43:47Z</time>
      </trkpt>
      <trkpt lat="45.53952" lon="5.76133">
        <ele>419.4</ele>
        <time>2022-04-15T10:43:48Z</time>
      </trkpt>
      <trkpt lat="45.53953" lon="5.76134">
        <ele>419.4</ele>
        <time>2022-04-15T10:43:49Z</time>
      </trkpt>
      <trkpt lat="45.53953" lon="5.76134">
        <ele>419.3</ele>
        <time>2022-04-15T10:43:50Z</time>
      </trkpt>
      <trkpt lat="45.53953" lon="5.76135">
        <ele>419.3</ele>
        <time>2022-04-15T10:43:51Z</time>
      </trkpt>
      <trkpt lat="45.53953" lon="5.76134">
        <ele>419.3</ele>
        <time>2022-04-15T10:43:52Z</time>
      </trkpt>
      <trkpt lat="45.53953" lon="5.76134">
        <ele>419.3</ele>
        <time>2022-04-15T10:43:53Z</time>
      </trkpt>
      <trkpt lat="45.53953" lon="5.76134">
        <ele>419.3</ele>
        <time>2022-04-15T10:43:54Z</time>
      </trkpt>
      <trkpt lat="45.53953" lon="5.76134">
        <ele>419.3</ele>
        <time>2022-04-15T10:43:55Z</time>
      </trkpt>
      <trkpt lat="45.53953" lon="5.76133">
        <ele>419.3</ele>
        <time>2022-04-15T10:43:56Z</time>
      </trkpt>
      <trkpt lat="45.53953" lon="5.76133">
        <ele>419.3</ele>
        <time>2022-04-15T10:43:57Z</time>
      </trkpt>
      <trkpt lat="45.53953" lon="5.76133">
        <ele>419.3</ele>
        <time>2022-04-15T10:43:58Z</time>
      </trkpt>
      <trkpt lat="45.53953" lon="5.76133">
        <ele>419.3</ele>
        <time>2022-04-15T10:43:59Z</time>
      </trkpt>
      <trkpt lat="45.53953" lon="5.76133">
        <ele>419.3</ele>
        <time>2022-04-15T10:44:00Z</time>
      </trkpt>
      <trkpt lat="45.53953" lon="5.76133">
        <ele>419.3</ele>
        <time>2022-04-15T10:44:01Z</time>
      </trkpt>
      <trkpt lat="45.53953" lon="5.76133">
        <ele>419.3</ele>
        <time>2022-04-15T10:44:02Z</time>
      </trkpt>
      <trkpt lat="45.53953" lon="5.76133">
        <ele>419.3</ele>
        <time>2022-04-15T10:44:03Z</time>
      </trkpt>
      <trkpt lat="45.53953" lon="5.76132">
        <ele>419.3</ele>
        <time>2022-04-15T10:44:04Z</time>
      </trkpt>
      <trkpt lat="45.53953" lon="5.76132">
        <ele>419.3</ele>
        <time>2022-04-15T10:44:05Z</time>
      </trkpt>
      <trkpt lat="45.53953" lon="5.76132">
        <ele>419.2</ele>
        <time>2022-04-15T10:44:06Z</time>
      </trkpt>
      <trkpt lat="45.53953" lon="5.76132">
        <ele>419.2</ele>
        <time>2022-04-15T10:44:07Z</time>
      </trkpt>
      <trkpt lat="45.53953" lon="5.76132">
        <ele>419.2</ele>
        <time>2022-04-15T10:44:08Z</time>
      </trkpt>
      <trkpt lat="45.53953" lon="5.76132">
        <ele>419.2</ele>
        <time>2022-04-15T10:44:09Z</time>
      </trkpt>
      <trkpt lat="45.53953" lon="5.76132">
        <ele>419.2</ele>
        <time>2022-04-15T10:44:10Z</time>
      </trkpt>
      <trkpt lat="45.53953" lon="5.76132">
        <ele>419.2</ele>
        <time>2022-04-15T10:44:11Z</time>
      </trkpt>
      <trkpt lat="45.53953" lon="5.76132">
        <ele>419.2</ele>
        <time>2022-04-15T10:44:12Z</time>
      </trkpt>
      <trkpt lat="45.53953" lon="5.76132">
        <ele>419.2</ele>
        <time>2022-04-15T10:44:14Z</time>
      </trkpt>
      <trkpt lat="45.53953" lon="5.76132">
        <ele>419.2</ele>
        <time>2022-04-15T10:44:15Z</time>
      </trkpt>
      <trkpt lat="45.53953" lon="5.76132">
        <ele>419.2</ele>
        <time>2022-04-15T10:44:16Z</time>
      </trkpt>
      <trkpt lat="45.53953" lon="5.76132">
        <ele>419.2</ele>
        <time>2022-04-15T10:44:17Z</time>
      </trkpt>
      <trkpt lat="45.53953" lon="5.76132">
        <ele>419.2</ele>
        <time>2022-04-15T10:44:18Z</time>
      </trkpt>
      <trkpt lat="45.53953" lon="5.76132">
        <ele>419.2</ele>
        <time>2022-04-15T10:44:19Z</time>
      </trkpt>
      <trkpt lat="45.53953" lon="5.76132">
        <ele>419.2</ele>
        <time>2022-04-15T10:44:20Z</time>
      </trkpt>
      <trkpt lat="45.53953" lon="5.76132">
        <ele>419.2</ele>
        <time>2022-04-15T10:44:21Z</time>
      </trkpt>
      <trkpt lat="45.53952" lon="5.76132">
        <ele>419.2</ele>
        <time>2022-04-15T10:44:22Z</time>
      </trkpt>
      <trkpt lat="45.53955" lon="5.76132">
        <ele>419.1</ele>
        <time>2022-04-15T10:44:24Z</time>
      </trkpt>
      <trkpt lat="45.53958" lon="5.76132">
        <ele>419</ele>
        <time>2022-04-15T10:44:25Z</time>
      </trkpt>
      <trkpt lat="45.53963" lon="5.76132">
        <ele>418.7</ele>
        <time>2022-04-15T10:44:26Z</time>
      </trkpt>
      <trkpt lat="45.53975" lon="5.76126">
        <ele>418.1</ele>
        <time>2022-04-15T10:44:28Z</time>
      </trkpt>
      <trkpt lat="45.5398" lon="5.76122">
        <ele>417.7</ele>
        <time>2022-04-15T10:44:29Z</time>
      </trkpt>
      <trkpt lat="45.53985" lon="5.76117">
        <ele>417.3</ele>
        <time>2022-04-15T10:44:30Z</time>
      </trkpt>
      <trkpt lat="45.53989" lon="5.76113">
        <ele>416.8</ele>
        <time>2022-04-15T10:44:31Z</time>
      </trkpt>
      <trkpt lat="45.53994" lon="5.76108">
        <ele>416.3</ele>
        <time>2022-04-15T10:44:32Z</time>
      </trkpt>
      <trkpt lat="45.53999" lon="5.76103">
        <ele>415.8</ele>
        <time>2022-04-15T10:44:33Z</time>
      </trkpt>
      <trkpt lat="45.54006" lon="5.76096">
        <ele>415.2</ele>
        <time>2022-04-15T10:44:34Z</time>
      </trkpt>
      <trkpt lat="45.54005" lon="5.76094">
        <ele>415.1</ele>
        <time>2022-04-15T10:44:36Z</time>
      </trkpt>
      <trkpt lat="45.54006" lon="5.76093">
        <ele>415</ele>
        <time>2022-04-15T10:44:37Z</time>
      </trkpt>
      <trkpt lat="45.54006" lon="5.76094">
        <ele>414.9</ele>
        <time>2022-04-15T10:44:38Z</time>
      </trkpt>
      <trkpt lat="45.54006" lon="5.76097">
        <ele>414.7</ele>
        <time>2022-04-15T10:44:39Z</time>
      </trkpt>
      <trkpt lat="45.54006" lon="5.76098">
        <ele>414.7</ele>
        <time>2022-04-15T10:44:40Z</time>
      </trkpt>
      <trkpt lat="45.54006" lon="5.76098">
        <ele>414.7</ele>
        <time>2022-04-15T10:44:41Z</time>
      </trkpt>
      <trkpt lat="45.54005" lon="5.76098">
        <ele>414.7</ele>
        <time>2022-04-15T10:44:42Z</time>
      </trkpt>
      <trkpt lat="45.54005" lon="5.76098">
        <ele>414.7</ele>
        <time>2022-04-15T10:44:43Z</time>
      </trkpt>
      <trkpt lat="45.54005" lon="5.76098">
        <ele>414.7</ele>
        <time>2022-04-15T10:44:44Z</time>
      </trkpt>
      <trkpt lat="45.54005" lon="5.76099">
        <ele>414.6</ele>
        <time>2022-04-15T10:44:45Z</time>
      </trkpt>
      <trkpt lat="45.54006" lon="5.76099">
        <ele>414.6</ele>
        <time>2022-04-15T10:44:46Z</time>
      </trkpt>
      <trkpt lat="45.54006" lon="5.761">
        <ele>414.6</ele>
        <time>2022-04-15T10:44:47Z</time>
      </trkpt>
      <trkpt lat="45.54006" lon="5.76101">
        <ele>414.5</ele>
        <time>2022-04-15T10:44:48Z</time>
      </trkpt>
      <trkpt lat="45.54005" lon="5.76101">
        <ele>414.5</ele>
        <time>2022-04-15T10:44:49Z</time>
      </trkpt>
      <trkpt lat="45.54005" lon="5.76102">
        <ele>414.5</ele>
        <time>2022-04-15T10:44:50Z</time>
      </trkpt>
      <trkpt lat="45.54005" lon="5.76102">
        <ele>414.5</ele>
        <time>2022-04-15T10:44:51Z</time>
      </trkpt>
      <trkpt lat="45.54005" lon="5.76102">
        <ele>414.5</ele>
        <time>2022-04-15T10:44:52Z</time>
      </trkpt>
      <trkpt lat="45.54005" lon="5.76102">
        <ele>414.5</ele>
        <time>2022-04-15T10:44:53Z</time>
      </trkpt>
      <trkpt lat="45.54005" lon="5.76102">
        <ele>414.5</ele>
        <time>2022-04-15T10:44:54Z</time>
      </trkpt>
      <trkpt lat="45.54005" lon="5.76102">
        <ele>414.5</ele>
        <time>2022-04-15T10:44:55Z</time>
      </trkpt>
      <trkpt lat="45.54005" lon="5.76102">
        <ele>414.5</ele>
        <time>2022-04-15T10:44:56Z</time>
      </trkpt>
      <trkpt lat="45.54005" lon="5.76102">
        <ele>414.5</ele>
        <time>2022-04-15T10:44:57Z</time>
      </trkpt>
      <trkpt lat="45.54005" lon="5.76102">
        <ele>414.5</ele>
        <time>2022-04-15T10:44:58Z</time>
      </trkpt>
      <trkpt lat="45.54005" lon="5.76102">
        <ele>414.5</ele>
        <time>2022-04-15T10:44:59Z</time>
      </trkpt>
      <trkpt lat="45.54005" lon="5.76102">
        <ele>414.5</ele>
        <time>2022-04-15T10:45:00Z</time>
      </trkpt>
      <trkpt lat="45.54005" lon="5.76102">
        <ele>414.5</ele>
        <time>2022-04-15T10:45:01Z</time>
      </trkpt>
      <trkpt lat="45.54005" lon="5.76102">
        <ele>414.5</ele>
        <time>2022-04-15T10:45:02Z</time>
      </trkpt>
      <trkpt lat="45.54005" lon="5.76102">
        <ele>414.5</ele>
        <time>2022-04-15T10:45:03Z</time>
      </trkpt>
      <trkpt lat="45.54005" lon="5.76102">
        <ele>414.5</ele>
        <time>2022-04-15T10:45:04Z</time>
      </trkpt>
      <trkpt lat="45.54005" lon="5.76102">
        <ele>414.5</ele>
        <time>2022-04-15T10:45:05Z</time>
      </trkpt>
      <trkpt lat="45.54005" lon="5.76102">
        <ele>414.5</ele>
        <time>2022-04-15T10:45:06Z</time>
      </trkpt>
      <trkpt lat="45.54005" lon="5.76102">
        <ele>414.5</ele>
        <time>2022-04-15T10:45:07Z</time>
      </trkpt>
      <trkpt lat="45.54005" lon="5.76102">
        <ele>414.5</ele>
        <time>2022-04-15T10:45:08Z</time>
      </trkpt>
      <trkpt lat="45.54005" lon="5.76101">
        <ele>414.5</ele>
        <time>2022-04-15T10:45:09Z</time>
      </trkpt>
      <trkpt lat="45.54005" lon="5.76101">
        <ele>414.5</ele>
        <time>2022-04-15T10:45:10Z</time>
      </trkpt>
      <trkpt lat="45.54005" lon="5.76101">
        <ele>414.5</ele>
        <time>2022-04-15T10:45:11Z</time>
      </trkpt>
      <trkpt lat="45.54005" lon="5.76101">
        <ele>414.5</ele>
        <time>2022-04-15T10:45:12Z</time>
      </trkpt>
      <trkpt lat="45.54005" lon="5.76102">
        <ele>414.5</ele>
        <time>2022-04-15T10:45:13Z</time>
      </trkpt>
      <trkpt lat="45.54005" lon="5.76102">
        <ele>414.5</ele>
        <time>2022-04-15T10:45:14Z</time>
      </trkpt>
      <trkpt lat="45.54005" lon="5.76102">
        <ele>414.5</ele>
        <time>2022-04-15T10:45:15Z</time>
      </trkpt>
      <trkpt lat="45.54005" lon="5.76102">
        <ele>414.5</ele>
        <time>2022-04-15T10:45:16Z</time>
      </trkpt>
      <trkpt lat="45.54005" lon="5.76101">
        <ele>414.5</ele>
        <time>2022-04-15T10:45:17Z</time>
      </trkpt>
      <trkpt lat="45.54005" lon="5.76101">
        <ele>414.5</ele>
        <time>2022-04-15T10:45:18Z</time>
      </trkpt>
      <trkpt lat="45.54005" lon="5.76102">
        <ele>414.5</ele>
        <time>2022-04-15T10:45:19Z</time>
      </trkpt>
      <trkpt lat="45.54005" lon="5.76102">
        <ele>414.5</ele>
        <time>2022-04-15T10:45:20Z</time>
      </trkpt>
      <trkpt lat="45.54005" lon="5.76102">
        <ele>414.5</ele>
        <time>2022-04-15T10:45:21Z</time>
      </trkpt>
      <trkpt lat="45.54005" lon="5.76102">
        <ele>414.5</ele>
        <time>2022-04-15T10:45:22Z</time>
      </trkpt>
      <trkpt lat="45.54005" lon="5.76102">
        <ele>414.5</ele>
        <time>2022-04-15T10:45:23Z</time>
      </trkpt>
      <trkpt lat="45.54005" lon="5.76102">
        <ele>414.5</ele>
        <time>2022-04-15T10:45:24Z</time>
      </trkpt>
      <trkpt lat="45.54005" lon="5.76102">
        <ele>414.5</ele>
        <time>2022-04-15T10:45:25Z</time>
      </trkpt>
      <trkpt lat="45.54005" lon="5.76101">
        <ele>414.4</ele>
        <time>2022-04-15T10:45:26Z</time>
      </trkpt>
      <trkpt lat="45.54005" lon="5.76101">
        <ele>414.4</ele>
        <time>2022-04-15T10:45:27Z</time>
      </trkpt>
      <trkpt lat="45.54005" lon="5.76101">
        <ele>414.4</ele>
        <time>2022-04-15T10:45:28Z</time>
      </trkpt>
      <trkpt lat="45.54005" lon="5.76101">
        <ele>414.4</ele>
        <time>2022-04-15T10:45:29Z</time>
      </trkpt>
      <trkpt lat="45.54005" lon="5.76101">
        <ele>414.4</ele>
        <time>2022-04-15T10:45:30Z</time>
      </trkpt>
      <trkpt lat="45.54005" lon="5.76101">
        <ele>414.4</ele>
        <time>2022-04-15T10:45:31Z</time>
      </trkpt>
      <trkpt lat="45.54005" lon="5.76101">
        <ele>414.4</ele>
        <time>2022-04-15T10:45:32Z</time>
      </trkpt>
      <trkpt lat="45.54005" lon="5.76101">
        <ele>414.4</ele>
        <time>2022-04-15T10:45:33Z</time>
      </trkpt>
      <trkpt lat="45.54005" lon="5.76101">
        <ele>414.4</ele>
        <time>2022-04-15T10:45:34Z</time>
      </trkpt>
      <trkpt lat="45.54005" lon="5.76101">
        <ele>414.4</ele>
        <time>2022-04-15T10:45:35Z</time>
      </trkpt>
      <trkpt lat="45.54005" lon="5.76101">
        <ele>414.4</ele>
        <time>2022-04-15T10:45:36Z</time>
      </trkpt>
      <trkpt lat="45.54005" lon="5.76101">
        <ele>414.4</ele>
        <time>2022-04-15T10:45:37Z</time>
      </trkpt>
      <trkpt lat="45.54005" lon="5.76101">
        <ele>414.4</ele>
        <time>2022-04-15T10:45:38Z</time>
      </trkpt>
      <trkpt lat="45.54005" lon="5.76101">
        <ele>414.4</ele>
        <time>2022-04-15T10:45:39Z</time>
      </trkpt>
      <trkpt lat="45.54005" lon="5.76101">
        <ele>414.4</ele>
        <time>2022-04-15T10:45:40Z</time>
      </trkpt>
      <trkpt lat="45.54005" lon="5.76101">
        <ele>414.4</ele>
        <time>2022-04-15T10:45:41Z</time>
      </trkpt>
      <trkpt lat="45.54005" lon="5.76101">
        <ele>414.4</ele>
        <time>2022-04-15T10:45:42Z</time>
      </trkpt>
      <trkpt lat="45.54005" lon="5.76101">
        <ele>414.4</ele>
        <time>2022-04-15T10:45:43Z</time>
      </trkpt>
      <trkpt lat="45.54005" lon="5.76101">
        <ele>414.4</ele>
        <time>2022-04-15T10:45:44Z</time>
      </trkpt>
      <trkpt lat="45.54005" lon="5.76101">
        <ele>414.4</ele>
        <time>2022-04-15T10:45:45Z</time>
      </trkpt>
      <trkpt lat="45.54005" lon="5.76101">
        <ele>414.4</ele>
        <time>2022-04-15T10:45:46Z</time>
      </trkpt>
      <trkpt lat="45.54005" lon="5.76101">
        <ele>414.4</ele>
        <time>2022-04-15T10:45:47Z</time>
      </trkpt>
      <trkpt lat="45.54005" lon="5.76101">
        <ele>414.4</ele>
        <time>2022-04-15T10:45:48Z</time>
      </trkpt>
      <trkpt lat="45.54005" lon="5.76101">
        <ele>414.4</ele>
        <time>2022-04-15T10:45:49Z</time>
      </trkpt>
      <trkpt lat="45.54005" lon="5.76101">
        <ele>414.4</ele>
        <time>2022-04-15T10:45:50Z</time>
      </trkpt>
      <trkpt lat="45.54005" lon="5.76101">
        <ele>414.4</ele>
        <time>2022-04-15T10:45:51Z</time>
      </trkpt>
      <trkpt lat="45.54005" lon="5.76101">
        <ele>414.4</ele>
        <time>2022-04-15T10:45:52Z</time>
      </trkpt>
      <trkpt lat="45.54005" lon="5.76101">
        <ele>414.4</ele>
        <time>2022-04-15T10:45:53Z</time>
      </trkpt>
      <trkpt lat="45.54005" lon="5.76101">
        <ele>414.4</ele>
        <time>2022-04-15T10:45:54Z</time>
      </trkpt>
      <trkpt lat="45.54005" lon="5.76101">
        <ele>414.4</ele>
        <time>2022-04-15T10:45:55Z</time>
      </trkpt>
      <trkpt lat="45.54005" lon="5.76101">
        <ele>414.4</ele>
        <time>2022-04-15T10:45:56Z</time>
      </trkpt>
      <trkpt lat="45.54005" lon="5.761">
        <ele>414.4</ele>
        <time>2022-04-15T10:45:57Z</time>
      </trkpt>
      <trkpt lat="45.54005" lon="5.761">
        <ele>414.4</ele>
        <time>2022-04-15T10:45:58Z</time>
      </trkpt>
      <trkpt lat="45.54005" lon="5.76099">
        <ele>414.3</ele>
        <time>2022-04-15T10:45:59Z</time>
      </trkpt>
      <trkpt lat="45.54007" lon="5.76097">
        <ele>414.2</ele>
        <time>2022-04-15T10:46:00Z</time>
      </trkpt>
      <trkpt lat="45.54009" lon="5.76094">
        <ele>414</ele>
        <time>2022-04-15T10:46:01Z</time>
      </trkpt>
      <trkpt lat="45.5401" lon="5.76093">
        <ele>413.9</ele>
        <time>2022-04-15T10:46:02Z</time>
      </trkpt>
      <trkpt lat="45.54013" lon="5.7609">
        <ele>413.7</ele>
        <time>2022-04-15T10:46:03Z</time>
      </trkpt>
      <trkpt lat="45.54014" lon="5.76088">
        <ele>413.6</ele>
        <time>2022-04-15T10:46:04Z</time>
      </trkpt>
      <trkpt lat="45.54017" lon="5.76086">
        <ele>413.3</ele>
        <time>2022-04-15T10:46:05Z</time>
      </trkpt>
      <trkpt lat="45.54018" lon="5.76085">
        <ele>413.3</ele>
        <time>2022-04-15T10:46:06Z</time>
      </trkpt>
      <trkpt lat="45.54024" lon="5.76077">
        <ele>412.8</ele>
        <time>2022-04-15T10:46:07Z</time>
      </trkpt>
      <trkpt lat="45.54034" lon="5.76069">
        <ele>412</ele>
        <time>2022-04-15T10:46:09Z</time>
      </trkpt>
      <trkpt lat="45.54039" lon="5.76065">
        <ele>411.6</ele>
        <time>2022-04-15T10:46:10Z</time>
      </trkpt>
      <trkpt lat="45.54044" lon="5.76061">
        <ele>411.3</ele>
        <time>2022-04-15T10:46:11Z</time>
      </trkpt>
      <trkpt lat="45.54049" lon="5.76057">
        <ele>410.9</ele>
        <time>2022-04-15T10:46:12Z</time>
      </trkpt>
      <trkpt lat="45.54055" lon="5.76052">
        <ele>410.5</ele>
        <time>2022-04-15T10:46:13Z</time>
      </trkpt>
      <trkpt lat="45.5406" lon="5.76047">
        <ele>410.1</ele>
        <time>2022-04-15T10:46:14Z</time>
      </trkpt>
      <trkpt lat="45.54066" lon="5.76042">
        <ele>409.6</ele>
        <time>2022-04-15T10:46:15Z</time>
      </trkpt>
      <trkpt lat="45.54072" lon="5.76037">
        <ele>409.2</ele>
        <time>2022-04-15T10:46:16Z</time>
      </trkpt>
      <trkpt lat="45.54079" lon="5.76032">
        <ele>408.8</ele>
        <time>2022-04-15T10:46:17Z</time>
      </trkpt>
      <trkpt lat="45.54085" lon="5.76026">
        <ele>408.3</ele>
        <time>2022-04-15T10:46:18Z</time>
      </trkpt>
      <trkpt lat="45.54091" lon="5.7602">
        <ele>407.8</ele>
        <time>2022-04-15T10:46:19Z</time>
      </trkpt>
      <trkpt lat="45.54096" lon="5.76012">
        <ele>407.2</ele>
        <time>2022-04-15T10:46:20Z</time>
      </trkpt>
      <trkpt lat="45.54101" lon="5.76003">
        <ele>406.6</ele>
        <time>2022-04-15T10:46:21Z</time>
      </trkpt>
      <trkpt lat="45.54105" lon="5.75992">
        <ele>405.9</ele>
        <time>2022-04-15T10:46:22Z</time>
      </trkpt>
      <trkpt lat="45.54109" lon="5.75981">
        <ele>405.2</ele>
        <time>2022-04-15T10:46:23Z</time>
      </trkpt>
      <trkpt lat="45.54111" lon="5.75969">
        <ele>404.4</ele>
        <time>2022-04-15T10:46:24Z</time>
      </trkpt>
      <trkpt lat="45.54114" lon="5.75957">
        <ele>403.7</ele>
        <time>2022-04-15T10:46:25Z</time>
      </trkpt>
      <trkpt lat="45.54117" lon="5.75944">
        <ele>402.9</ele>
        <time>2022-04-15T10:46:26Z</time>
      </trkpt>
      <trkpt lat="45.54121" lon="5.75931">
        <ele>402.2</ele>
        <time>2022-04-15T10:46:27Z</time>
      </trkpt>
      <trkpt lat="45.54125" lon="5.75918">
        <ele>401.4</ele>
        <time>2022-04-15T10:46:28Z</time>
      </trkpt>
      <trkpt lat="45.54131" lon="5.75906">
        <ele>400.7</ele>
        <time>2022-04-15T10:46:29Z</time>
      </trkpt>
      <trkpt lat="45.54137" lon="5.75895">
        <ele>400</ele>
        <time>2022-04-15T10:46:30Z</time>
      </trkpt>
      <trkpt lat="45.54143" lon="5.75883">
        <ele>399.4</ele>
        <time>2022-04-15T10:46:31Z</time>
      </trkpt>
      <trkpt lat="45.54148" lon="5.75871">
        <ele>398.9</ele>
        <time>2022-04-15T10:46:32Z</time>
      </trkpt>
      <trkpt lat="45.54154" lon="5.7586">
        <ele>398.4</ele>
        <time>2022-04-15T10:46:33Z</time>
      </trkpt>
      <trkpt lat="45.54159" lon="5.75849">
        <ele>397.9</ele>
        <time>2022-04-15T10:46:34Z</time>
      </trkpt>
      <trkpt lat="45.54163" lon="5.75836">
        <ele>397.4</ele>
        <time>2022-04-15T10:46:35Z</time>
      </trkpt>
      <trkpt lat="45.54165" lon="5.75824">
        <ele>396.8</ele>
        <time>2022-04-15T10:46:36Z</time>
      </trkpt>
      <trkpt lat="45.54164" lon="5.75811">
        <ele>396.3</ele>
        <time>2022-04-15T10:46:37Z</time>
      </trkpt>
      <trkpt lat="45.54162" lon="5.75798">
        <ele>395.7</ele>
        <time>2022-04-15T10:46:38Z</time>
      </trkpt>
      <trkpt lat="45.54158" lon="5.75787">
        <ele>395.2</ele>
        <time>2022-04-15T10:46:39Z</time>
      </trkpt>
      <trkpt lat="45.54153" lon="5.75776">
        <ele>394.8</ele>
        <time>2022-04-15T10:46:40Z</time>
      </trkpt>
      <trkpt lat="45.54149" lon="5.75765">
        <ele>394.4</ele>
        <time>2022-04-15T10:46:41Z</time>
      </trkpt>
      <trkpt lat="45.54145" lon="5.75754">
        <ele>394.1</ele>
        <time>2022-04-15T10:46:42Z</time>
      </trkpt>
      <trkpt lat="45.54142" lon="5.75743">
        <ele>393.9</ele>
        <time>2022-04-15T10:46:43Z</time>
      </trkpt>
      <trkpt lat="45.54139" lon="5.75731">
        <ele>393.7</ele>
        <time>2022-04-15T10:46:44Z</time>
      </trkpt>
      <trkpt lat="45.54138" lon="5.7572">
        <ele>393.5</ele>
        <time>2022-04-15T10:46:45Z</time>
      </trkpt>
      <trkpt lat="45.54139" lon="5.75709">
        <ele>393.3</ele>
        <time>2022-04-15T10:46:46Z</time>
      </trkpt>
      <trkpt lat="45.5414" lon="5.75697">
        <ele>393.1</ele>
        <time>2022-04-15T10:46:47Z</time>
      </trkpt>
      <trkpt lat="45.54143" lon="5.75687">
        <ele>392.9</ele>
        <time>2022-04-15T10:46:48Z</time>
      </trkpt>
      <trkpt lat="45.54146" lon="5.75676">
        <ele>392.8</ele>
        <time>2022-04-15T10:46:49Z</time>
      </trkpt>
      <trkpt lat="45.5415" lon="5.75667">
        <ele>392.6</ele>
        <time>2022-04-15T10:46:50Z</time>
      </trkpt>
      <trkpt lat="45.54154" lon="5.75658">
        <ele>392.4</ele>
        <time>2022-04-15T10:46:51Z</time>
      </trkpt>
      <trkpt lat="45.54158" lon="5.7565">
        <ele>392.2</ele>
        <time>2022-04-15T10:46:52Z</time>
      </trkpt>
      <trkpt lat="45.54164" lon="5.75648">
        <ele>392</ele>
        <time>2022-04-15T10:46:53Z</time>
      </trkpt>
      <trkpt lat="45.54171" lon="5.75649">
        <ele>391.8</ele>
        <time>2022-04-15T10:46:54Z</time>
      </trkpt>
      <trkpt lat="45.54177" lon="5.75653">
        <ele>391.6</ele>
        <time>2022-04-15T10:46:55Z</time>
      </trkpt>
      <trkpt lat="45.54184" lon="5.7566">
        <ele>391.4</ele>
        <time>2022-04-15T10:46:56Z</time>
      </trkpt>
      <trkpt lat="45.54186" lon="5.7567">
        <ele>391.1</ele>
        <time>2022-04-15T10:46:57Z</time>
      </trkpt>
      <trkpt lat="45.54186" lon="5.7568">
        <ele>390.9</ele>
        <time>2022-04-15T10:46:58Z</time>
      </trkpt>
      <trkpt lat="45.54185" lon="5.75691">
        <ele>390.7</ele>
        <time>2022-04-15T10:46:59Z</time>
      </trkpt>
      <trkpt lat="45.54183" lon="5.75701">
        <ele>390.5</ele>
        <time>2022-04-15T10:47:00Z</time>
      </trkpt>
      <trkpt lat="45.54181" lon="5.75711">
        <ele>390.3</ele>
        <time>2022-04-15T10:47:01Z</time>
      </trkpt>
      <trkpt lat="45.54179" lon="5.7572">
        <ele>390.1</ele>
        <time>2022-04-15T10:47:02Z</time>
      </trkpt>
      <trkpt lat="45.54177" lon="5.75729">
        <ele>390</ele>
        <time>2022-04-15T10:47:03Z</time>
      </trkpt>
      <trkpt lat="45.54175" lon="5.75739">
        <ele>389.8</ele>
        <time>2022-04-15T10:47:04Z</time>
      </trkpt>
      <trkpt lat="45.54175" lon="5.75748">
        <ele>389.7</ele>
        <time>2022-04-15T10:47:05Z</time>
      </trkpt>
      <trkpt lat="45.54175" lon="5.75758">
        <ele>389.5</ele>
        <time>2022-04-15T10:47:06Z</time>
      </trkpt>
      <trkpt lat="45.54177" lon="5.75768">
        <ele>389.4</ele>
        <time>2022-04-15T10:47:07Z</time>
      </trkpt>
      <trkpt lat="45.54179" lon="5.75777">
        <ele>389.2</ele>
        <time>2022-04-15T10:47:08Z</time>
      </trkpt>
      <trkpt lat="45.54182" lon="5.75786">
        <ele>389</ele>
        <time>2022-04-15T10:47:09Z</time>
      </trkpt>
      <trkpt lat="45.54184" lon="5.75795">
        <ele>388.8</ele>
        <time>2022-04-15T10:47:10Z</time>
      </trkpt>
      <trkpt lat="45.54187" lon="5.75804">
        <ele>388.6</ele>
        <time>2022-04-15T10:47:11Z</time>
      </trkpt>
      <trkpt lat="45.54191" lon="5.75813">
        <ele>388.4</ele>
        <time>2022-04-15T10:47:12Z</time>
      </trkpt>
      <trkpt lat="45.54194" lon="5.75823">
        <ele>388.2</ele>
        <time>2022-04-15T10:47:13Z</time>
      </trkpt>
      <trkpt lat="45.54197" lon="5.75832">
        <ele>387.9</ele>
        <time>2022-04-15T10:47:14Z</time>
      </trkpt>
      <trkpt lat="45.542" lon="5.75842">
        <ele>387.7</ele>
        <time>2022-04-15T10:47:15Z</time>
      </trkpt>
      <trkpt lat="45.54203" lon="5.75852">
        <ele>387.4</ele>
        <time>2022-04-15T10:47:16Z</time>
      </trkpt>
      <trkpt lat="45.54205" lon="5.75862">
        <ele>387.1</ele>
        <time>2022-04-15T10:47:17Z</time>
      </trkpt>
      <trkpt lat="45.54208" lon="5.75872">
        <ele>386.7</ele>
        <time>2022-04-15T10:47:18Z</time>
      </trkpt>
      <trkpt lat="45.54211" lon="5.75883">
        <ele>386.4</ele>
        <time>2022-04-15T10:47:19Z</time>
      </trkpt>
      <trkpt lat="45.54213" lon="5.75894">
        <ele>386.1</ele>
        <time>2022-04-15T10:47:20Z</time>
      </trkpt>
      <trkpt lat="45.54215" lon="5.75905">
        <ele>385.7</ele>
        <time>2022-04-15T10:47:21Z</time>
      </trkpt>
      <trkpt lat="45.54217" lon="5.75916">
        <ele>385.4</ele>
        <time>2022-04-15T10:47:22Z</time>
      </trkpt>
      <trkpt lat="45.54218" lon="5.75928">
        <ele>385</ele>
        <time>2022-04-15T10:47:23Z</time>
      </trkpt>
      <trkpt lat="45.54219" lon="5.75939">
        <ele>384.6</ele>
        <time>2022-04-15T10:47:24Z</time>
      </trkpt>
      <trkpt lat="45.5422" lon="5.7595">
        <ele>384.3</ele>
        <time>2022-04-15T10:47:25Z</time>
      </trkpt>
      <trkpt lat="45.5422" lon="5.75961">
        <ele>383.9</ele>
        <time>2022-04-15T10:47:26Z</time>
      </trkpt>
      <trkpt lat="45.54222" lon="5.75973">
        <ele>383.6</ele>
        <time>2022-04-15T10:47:27Z</time>
      </trkpt>
      <trkpt lat="45.54222" lon="5.75985">
        <ele>383.3</ele>
        <time>2022-04-15T10:47:28Z</time>
      </trkpt>
      <trkpt lat="45.54223" lon="5.75996">
        <ele>383</ele>
        <time>2022-04-15T10:47:29Z</time>
      </trkpt>
      <trkpt lat="45.54223" lon="5.76006">
        <ele>382.8</ele>
        <time>2022-04-15T10:47:30Z</time>
      </trkpt>
      <trkpt lat="45.54223" lon="5.76014">
        <ele>382.6</ele>
        <time>2022-04-15T10:47:31Z</time>
      </trkpt>
      <trkpt lat="45.54222" lon="5.76021">
        <ele>382.5</ele>
        <time>2022-04-15T10:47:32Z</time>
      </trkpt>
      <trkpt lat="45.54222" lon="5.76027">
        <ele>382.4</ele>
        <time>2022-04-15T10:47:33Z</time>
      </trkpt>
      <trkpt lat="45.54222" lon="5.76031">
        <ele>382.3</ele>
        <time>2022-04-15T10:47:34Z</time>
      </trkpt>
      <trkpt lat="45.54222" lon="5.76033">
        <ele>382.3</ele>
        <time>2022-04-15T10:47:35Z</time>
      </trkpt>
      <trkpt lat="45.54222" lon="5.76036">
        <ele>382.2</ele>
        <time>2022-04-15T10:47:36Z</time>
      </trkpt>
      <trkpt lat="45.54222" lon="5.76037">
        <ele>382.2</ele>
        <time>2022-04-15T10:47:37Z</time>
      </trkpt>
      <trkpt lat="45.54222" lon="5.76039">
        <ele>382.2</ele>
        <time>2022-04-15T10:47:38Z</time>
      </trkpt>
      <trkpt lat="45.54221" lon="5.7604">
        <ele>382.1</ele>
        <time>2022-04-15T10:47:39Z</time>
      </trkpt>
      <trkpt lat="45.54221" lon="5.7604">
        <ele>382.1</ele>
        <time>2022-04-15T10:47:40Z</time>
      </trkpt>
      <trkpt lat="45.54221" lon="5.7604">
        <ele>382.1</ele>
        <time>2022-04-15T10:47:41Z</time>
      </trkpt>
      <trkpt lat="45.54221" lon="5.7604">
        <ele>382.1</ele>
        <time>2022-04-15T10:47:42Z</time>
      </trkpt>
      <trkpt lat="45.54221" lon="5.7604">
        <ele>382.1</ele>
        <time>2022-04-15T10:47:43Z</time>
      </trkpt>
      <trkpt lat="45.54221" lon="5.7604">
        <ele>382.1</ele>
        <time>2022-04-15T10:47:44Z</time>
      </trkpt>
      <trkpt lat="45.54221" lon="5.7604">
        <ele>382.1</ele>
        <time>2022-04-15T10:47:45Z</time>
      </trkpt>
      <trkpt lat="45.54221" lon="5.7604">
        <ele>382.1</ele>
        <time>2022-04-15T10:47:46Z</time>
      </trkpt>
      <trkpt lat="45.54221" lon="5.7604">
        <ele>382.1</ele>
        <time>2022-04-15T10:47:47Z</time>
      </trkpt>
      <trkpt lat="45.54221" lon="5.7604">
        <ele>382.1</ele>
        <time>2022-04-15T10:47:48Z</time>
      </trkpt>
      <trkpt lat="45.54221" lon="5.76041">
        <ele>382.1</ele>
        <time>2022-04-15T10:47:49Z</time>
      </trkpt>
      <trkpt lat="45.54221" lon="5.76041">
        <ele>382.1</ele>
        <time>2022-04-15T10:47:50Z</time>
      </trkpt>
      <trkpt lat="45.54221" lon="5.76041">
        <ele>382.1</ele>
        <time>2022-04-15T10:47:51Z</time>
      </trkpt>
      <trkpt lat="45.54221" lon="5.76041">
        <ele>382.1</ele>
        <time>2022-04-15T10:47:52Z</time>
      </trkpt>
      <trkpt lat="45.54221" lon="5.76041">
        <ele>382.1</ele>
        <time>2022-04-15T10:47:53Z</time>
      </trkpt>
      <trkpt lat="45.54221" lon="5.76041">
        <ele>382.1</ele>
        <time>2022-04-15T10:47:54Z</time>
      </trkpt>
      <trkpt lat="45.54221" lon="5.76041">
        <ele>382.1</ele>
        <time>2022-04-15T10:47:56Z</time>
      </trkpt>
      <trkpt lat="45.54221" lon="5.76041">
        <ele>382.1</ele>
        <time>2022-04-15T10:47:58Z</time>
      </trkpt>
      <trkpt lat="45.54221" lon="5.76041">
        <ele>382.1</ele>
        <time>2022-04-15T10:47:59Z</time>
      </trkpt>
      <trkpt lat="45.54221" lon="5.76041">
        <ele>382.1</ele>
        <time>2022-04-15T10:48:00Z</time>
      </trkpt>
      <trkpt lat="45.54221" lon="5.76041">
        <ele>382.1</ele>
        <time>2022-04-15T10:48:01Z</time>
      </trkpt>
      <trkpt lat="45.54221" lon="5.76041">
        <ele>382.1</ele>
        <time>2022-04-15T10:48:02Z</time>
      </trkpt>
      <trkpt lat="45.54221" lon="5.76041">
        <ele>382.1</ele>
        <time>2022-04-15T10:48:03Z</time>
      </trkpt>
      <trkpt lat="45.54221" lon="5.76041">
        <ele>382.1</ele>
        <time>2022-04-15T10:48:04Z</time>
      </trkpt>
      <trkpt lat="45.54221" lon="5.76041">
        <ele>382.1</ele>
        <time>2022-04-15T10:48:05Z</time>
      </trkpt>
      <trkpt lat="45.54221" lon="5.76042">
        <ele>382.1</ele>
        <time>2022-04-15T10:48:06Z</time>
      </trkpt>
      <trkpt lat="45.54221" lon="5.76042">
        <ele>382.1</ele>
        <time>2022-04-15T10:48:07Z</time>
      </trkpt>
      <trkpt lat="45.54221" lon="5.76042">
        <ele>382.1</ele>
        <time>2022-04-15T10:48:08Z</time>
      </trkpt>
      <trkpt lat="45.54221" lon="5.76042">
        <ele>382.1</ele>
        <time>2022-04-15T10:48:09Z</time>
      </trkpt>
      <trkpt lat="45.54221" lon="5.76042">
        <ele>382.1</ele>
        <time>2022-04-15T10:48:10Z</time>
      </trkpt>
      <trkpt lat="45.54221" lon="5.76042">
        <ele>382.1</ele>
        <time>2022-04-15T10:48:11Z</time>
      </trkpt>
      <trkpt lat="45.54221" lon="5.76042">
        <ele>382.1</ele>
        <time>2022-04-15T10:48:12Z</time>
      </trkpt>
      <trkpt lat="45.54221" lon="5.76042">
        <ele>382.1</ele>
        <time>2022-04-15T10:48:13Z</time>
      </trkpt>
      <trkpt lat="45.54221" lon="5.76042">
        <ele>382.1</ele>
        <time>2022-04-15T10:48:14Z</time>
      </trkpt>
      <trkpt lat="45.54221" lon="5.76042">
        <ele>382.1</ele>
        <time>2022-04-15T10:48:15Z</time>
      </trkpt>
      <trkpt lat="45.54221" lon="5.76042">
        <ele>382.1</ele>
        <time>2022-04-15T10:48:16Z</time>
      </trkpt>
      <trkpt lat="45.54221" lon="5.76042">
        <ele>382.1</ele>
        <time>2022-04-15T10:48:17Z</time>
      </trkpt>
      <trkpt lat="45.54221" lon="5.76042">
        <ele>382.1</ele>
        <time>2022-04-15T10:48:18Z</time>
      </trkpt>
      <trkpt lat="45.54221" lon="5.76042">
        <ele>382.1</ele>
        <time>2022-04-15T10:48:19Z</time>
      </trkpt>
      <trkpt lat="45.54221" lon="5.76042">
        <ele>382.1</ele>
        <time>2022-04-15T10:48:20Z</time>
      </trkpt>
      <trkpt lat="45.54221" lon="5.76042">
        <ele>382.1</ele>
        <time>2022-04-15T10:48:21Z</time>
      </trkpt>
      <trkpt lat="45.54221" lon="5.76043">
        <ele>382.1</ele>
        <time>2022-04-15T10:48:22Z</time>
      </trkpt>
      <trkpt lat="45.54221" lon="5.76043">
        <ele>382.1</ele>
        <time>2022-04-15T10:48:23Z</time>
      </trkpt>
      <trkpt lat="45.54221" lon="5.76043">
        <ele>382.1</ele>
        <time>2022-04-15T10:48:24Z</time>
      </trkpt>
      <trkpt lat="45.54221" lon="5.76043">
        <ele>382.1</ele>
        <time>2022-04-15T10:48:25Z</time>
      </trkpt>
      <trkpt lat="45.54221" lon="5.76043">
        <ele>382.1</ele>
        <time>2022-04-15T10:48:26Z</time>
      </trkpt>
      <trkpt lat="45.54221" lon="5.76043">
        <ele>382.1</ele>
        <time>2022-04-15T10:48:27Z</time>
      </trkpt>
      <trkpt lat="45.54221" lon="5.76043">
        <ele>382.1</ele>
        <time>2022-04-15T10:48:28Z</time>
      </trkpt>
      <trkpt lat="45.54221" lon="5.76043">
        <ele>382.1</ele>
        <time>2022-04-15T10:48:29Z</time>
      </trkpt>
      <trkpt lat="45.54221" lon="5.76043">
        <ele>382.1</ele>
        <time>2022-04-15T10:48:30Z</time>
      </trkpt>
      <trkpt lat="45.54221" lon="5.76043">
        <ele>382.1</ele>
        <time>2022-04-15T10:48:31Z</time>
      </trkpt>
      <trkpt lat="45.54221" lon="5.76043">
        <ele>382.1</ele>
        <time>2022-04-15T10:48:32Z</time>
      </trkpt>
      <trkpt lat="45.54221" lon="5.76043">
        <ele>382.1</ele>
        <time>2022-04-15T10:48:33Z</time>
      </trkpt>
      <trkpt lat="45.54221" lon="5.76043">
        <ele>382.1</ele>
        <time>2022-04-15T10:48:34Z</time>
      </trkpt>
      <trkpt lat="45.54221" lon="5.76043">
        <ele>382.1</ele>
        <time>2022-04-15T10:48:35Z</time>
      </trkpt>
      <trkpt lat="45.54221" lon="5.76043">
        <ele>382.1</ele>
        <time>2022-04-15T10:48:36Z</time>
      </trkpt>
      <trkpt lat="45.54221" lon="5.76043">
        <ele>382.1</ele>
        <time>2022-04-15T10:48:37Z</time>
      </trkpt>
      <trkpt lat="45.54221" lon="5.76044">
        <ele>382.1</ele>
        <time>2022-04-15T10:48:38Z</time>
      </trkpt>
      <trkpt lat="45.54221" lon="5.76044">
        <ele>382.1</ele>
        <time>2022-04-15T10:48:39Z</time>
      </trkpt>
      <trkpt lat="45.54221" lon="5.76044">
        <ele>382.1</ele>
        <time>2022-04-15T10:48:40Z</time>
      </trkpt>
      <trkpt lat="45.54221" lon="5.76044">
        <ele>382.1</ele>
        <time>2022-04-15T10:48:41Z</time>
      </trkpt>
      <trkpt lat="45.54221" lon="5.76044">
        <ele>382.1</ele>
        <time>2022-04-15T10:48:42Z</time>
      </trkpt>
      <trkpt lat="45.54221" lon="5.76044">
        <ele>382.1</ele>
        <time>2022-04-15T10:48:43Z</time>
      </trkpt>
      <trkpt lat="45.54221" lon="5.76044">
        <ele>382</ele>
        <time>2022-04-15T10:48:44Z</time>
      </trkpt>
      <trkpt lat="45.54221" lon="5.76044">
        <ele>382</ele>
        <time>2022-04-15T10:48:45Z</time>
      </trkpt>
      <trkpt lat="45.54221" lon="5.76044">
        <ele>382</ele>
        <time>2022-04-15T10:48:46Z</time>
      </trkpt>
      <trkpt lat="45.54221" lon="5.76044">
        <ele>382</ele>
        <time>2022-04-15T10:48:47Z</time>
      </trkpt>
      <trkpt lat="45.54221" lon="5.76044">
        <ele>382</ele>
        <time>2022-04-15T10:48:48Z</time>
      </trkpt>
      <trkpt lat="45.54221" lon="5.76044">
        <ele>382</ele>
        <time>2022-04-15T10:48:49Z</time>
      </trkpt>
      <trkpt lat="45.5422" lon="5.76047">
        <ele>382</ele>
        <time>2022-04-15T10:48:50Z</time>
      </trkpt>
      <trkpt lat="45.5422" lon="5.76049">
        <ele>381.9</ele>
        <time>2022-04-15T10:48:51Z</time>
      </trkpt>
      <trkpt lat="45.54221" lon="5.76051">
        <ele>381.9</ele>
        <time>2022-04-15T10:48:52Z</time>
      </trkpt>
      <trkpt lat="45.54222" lon="5.76053">
        <ele>381.9</ele>
        <time>2022-04-15T10:48:53Z</time>
      </trkpt>
      <trkpt lat="45.54224" lon="5.76055">
        <ele>381.9</ele>
        <time>2022-04-15T10:48:54Z</time>
      </trkpt>
      <trkpt lat="45.54225" lon="5.76056">
        <ele>381.9</ele>
        <time>2022-04-15T10:48:55Z</time>
      </trkpt>
      <trkpt lat="45.54226" lon="5.76056">
        <ele>381.9</ele>
        <time>2022-04-15T10:48:56Z</time>
      </trkpt>
      <trkpt lat="45.54228" lon="5.76057">
        <ele>381.9</ele>
        <time>2022-04-15T10:48:57Z</time>
      </trkpt>
      <trkpt lat="45.54229" lon="5.76057">
        <ele>381.9</ele>
        <time>2022-04-15T10:48:58Z</time>
      </trkpt>
      <trkpt lat="45.54231" lon="5.76057">
        <ele>381.9</ele>
        <time>2022-04-15T10:48:59Z</time>
      </trkpt>
      <trkpt lat="45.54232" lon="5.76056">
        <ele>381.9</ele>
        <time>2022-04-15T10:49:00Z</time>
      </trkpt>
      <trkpt lat="45.54232" lon="5.76055">
        <ele>381.9</ele>
        <time>2022-04-15T10:49:01Z</time>
      </trkpt>
      <trkpt lat="45.54231" lon="5.76057">
        <ele>381.9</ele>
        <time>2022-04-15T10:49:02Z</time>
      </trkpt>
      <trkpt lat="45.54231" lon="5.76057">
        <ele>381.9</ele>
        <time>2022-04-15T10:49:03Z</time>
      </trkpt>
      <trkpt lat="45.54232" lon="5.76057">
        <ele>381.9</ele>
        <time>2022-04-15T10:49:04Z</time>
      </trkpt>
      <trkpt lat="45.54232" lon="5.76056">
        <ele>381.9</ele>
        <time>2022-04-15T10:49:05Z</time>
      </trkpt>
      <trkpt lat="45.54233" lon="5.76056">
        <ele>381.9</ele>
        <time>2022-04-15T10:49:06Z</time>
      </trkpt>
      <trkpt lat="45.54234" lon="5.76056">
        <ele>381.9</ele>
        <time>2022-04-15T10:49:07Z</time>
      </trkpt>
      <trkpt lat="45.54234" lon="5.76055">
        <ele>381.9</ele>
        <time>2022-04-15T10:49:08Z</time>
      </trkpt>
      <trkpt lat="45.54234" lon="5.76055">
        <ele>381.9</ele>
        <time>2022-04-15T10:49:09Z</time>
      </trkpt>
      <trkpt lat="45.54235" lon="5.76055">
        <ele>381.9</ele>
        <time>2022-04-15T10:49:10Z</time>
      </trkpt>
      <trkpt lat="45.54235" lon="5.76055">
        <ele>381.9</ele>
        <time>2022-04-15T10:49:11Z</time>
      </trkpt>
      <trkpt lat="45.54235" lon="5.76055">
        <ele>381.9</ele>
        <time>2022-04-15T10:49:12Z</time>
      </trkpt>
      <trkpt lat="45.54236" lon="5.76055">
        <ele>381.9</ele>
        <time>2022-04-15T10:49:13Z</time>
      </trkpt>
      <trkpt lat="45.54236" lon="5.76055">
        <ele>381.9</ele>
        <time>2022-04-15T10:49:14Z</time>
      </trkpt>
      <trkpt lat="45.54236" lon="5.76055">
        <ele>381.9</ele>
        <time>2022-04-15T10:49:15Z</time>
      </trkpt>
      <trkpt lat="45.54236" lon="5.76055">
        <ele>381.9</ele>
        <time>2022-04-15T10:49:16Z</time>
      </trkpt>
      <trkpt lat="45.54236" lon="5.76055">
        <ele>381.9</ele>
        <time>2022-04-15T10:49:17Z</time>
      </trkpt>
      <trkpt lat="45.54236" lon="5.76055">
        <ele>381.9</ele>
        <time>2022-04-15T10:49:18Z</time>
      </trkpt>
      <trkpt lat="45.54236" lon="5.76055">
        <ele>381.9</ele>
        <time>2022-04-15T10:49:19Z</time>
      </trkpt>
      <trkpt lat="45.54236" lon="5.76055">
        <ele>381.9</ele>
        <time>2022-04-15T10:49:20Z</time>
      </trkpt>
      <trkpt lat="45.54236" lon="5.76055">
        <ele>381.9</ele>
        <time>2022-04-15T10:49:21Z</time>
      </trkpt>
      <trkpt lat="45.54236" lon="5.76055">
        <ele>381.9</ele>
        <time>2022-04-15T10:49:22Z</time>
      </trkpt>
      <trkpt lat="45.54236" lon="5.76055">
        <ele>381.9</ele>
        <time>2022-04-15T10:49:23Z</time>
      </trkpt>
      <trkpt lat="45.54236" lon="5.76055">
        <ele>381.9</ele>
        <time>2022-04-15T10:49:24Z</time>
      </trkpt>
      <trkpt lat="45.54236" lon="5.76055">
        <ele>381.9</ele>
        <time>2022-04-15T10:49:25Z</time>
      </trkpt>
      <trkpt lat="45.54236" lon="5.76055">
        <ele>381.9</ele>
        <time>2022-04-15T10:49:26Z</time>
      </trkpt>
      <trkpt lat="45.54236" lon="5.76055">
        <ele>381.9</ele>
        <time>2022-04-15T10:49:27Z</time>
      </trkpt>
      <trkpt lat="45.54236" lon="5.76055">
        <ele>381.9</ele>
        <time>2022-04-15T10:49:28Z</time>
      </trkpt>
      <trkpt lat="45.54236" lon="5.76055">
        <ele>381.9</ele>
        <time>2022-04-15T10:49:29Z</time>
      </trkpt>
      <trkpt lat="45.54236" lon="5.76055">
        <ele>381.9</ele>
        <time>2022-04-15T10:49:30Z</time>
      </trkpt>
      <trkpt lat="45.54236" lon="5.76055">
        <ele>381.9</ele>
        <time>2022-04-15T10:49:31Z</time>
      </trkpt>
      <trkpt lat="45.54236" lon="5.76055">
        <ele>381.9</ele>
        <time>2022-04-15T10:49:32Z</time>
      </trkpt>
      <trkpt lat="45.54236" lon="5.76055">
        <ele>381.9</ele>
        <time>2022-04-15T10:49:33Z</time>
      </trkpt>
      <trkpt lat="45.54236" lon="5.76055">
        <ele>381.9</ele>
        <time>2022-04-15T10:49:34Z</time>
      </trkpt>
      <trkpt lat="45.54236" lon="5.76055">
        <ele>381.9</ele>
        <time>2022-04-15T10:49:35Z</time>
      </trkpt>
      <trkpt lat="45.54236" lon="5.76055">
        <ele>381.9</ele>
        <time>2022-04-15T10:49:36Z</time>
      </trkpt>
      <trkpt lat="45.54236" lon="5.76055">
        <ele>381.9</ele>
        <time>2022-04-15T10:49:37Z</time>
      </trkpt>
      <trkpt lat="45.54236" lon="5.76055">
        <ele>381.9</ele>
        <time>2022-04-15T10:49:38Z</time>
      </trkpt>
      <trkpt lat="45.54236" lon="5.76055">
        <ele>381.9</ele>
        <time>2022-04-15T10:49:39Z</time>
      </trkpt>
      <trkpt lat="45.54236" lon="5.76055">
        <ele>381.9</ele>
        <time>2022-04-15T10:49:40Z</time>
      </trkpt>
      <trkpt lat="45.54236" lon="5.76055">
        <ele>381.9</ele>
        <time>2022-04-15T10:49:41Z</time>
      </trkpt>
      <trkpt lat="45.54236" lon="5.76055">
        <ele>381.9</ele>
        <time>2022-04-15T10:49:42Z</time>
      </trkpt>
      <trkpt lat="45.54236" lon="5.76055">
        <ele>381.9</ele>
        <time>2022-04-15T10:49:43Z</time>
      </trkpt>
      <trkpt lat="45.54236" lon="5.76055">
        <ele>381.9</ele>
        <time>2022-04-15T10:49:44Z</time>
      </trkpt>
      <trkpt lat="45.54236" lon="5.76055">
        <ele>381.9</ele>
        <time>2022-04-15T10:49:45Z</time>
      </trkpt>
      <trkpt lat="45.54236" lon="5.76055">
        <ele>381.9</ele>
        <time>2022-04-15T10:49:46Z</time>
      </trkpt>
      <trkpt lat="45.54236" lon="5.76055">
        <ele>381.9</ele>
        <time>2022-04-15T10:49:47Z</time>
      </trkpt>
      <trkpt lat="45.54236" lon="5.76055">
        <ele>381.9</ele>
        <time>2022-04-15T10:49:48Z</time>
      </trkpt>
      <trkpt lat="45.54236" lon="5.76055">
        <ele>381.9</ele>
        <time>2022-04-15T10:49:49Z</time>
      </trkpt>
      <trkpt lat="45.54236" lon="5.76055">
        <ele>381.9</ele>
        <time>2022-04-15T10:49:50Z</time>
      </trkpt>
      <trkpt lat="45.54236" lon="5.76055">
        <ele>381.9</ele>
        <time>2022-04-15T10:49:51Z</time>
      </trkpt>
      <trkpt lat="45.54236" lon="5.76055">
        <ele>381.9</ele>
        <time>2022-04-15T10:49:52Z</time>
      </trkpt>
      <trkpt lat="45.54236" lon="5.76055">
        <ele>381.9</ele>
        <time>2022-04-15T10:49:53Z</time>
      </trkpt>
      <trkpt lat="45.54236" lon="5.76055">
        <ele>381.9</ele>
        <time>2022-04-15T10:49:54Z</time>
      </trkpt>
      <trkpt lat="45.54236" lon="5.76055">
        <ele>381.9</ele>
        <time>2022-04-15T10:49:55Z</time>
      </trkpt>
      <trkpt lat="45.54236" lon="5.76055">
        <ele>381.9</ele>
        <time>2022-04-15T10:49:56Z</time>
      </trkpt>
      <trkpt lat="45.54236" lon="5.76055">
        <ele>381.9</ele>
        <time>2022-04-15T10:49:57Z</time>
      </trkpt>
      <trkpt lat="45.54236" lon="5.76055">
        <ele>381.9</ele>
        <time>2022-04-15T10:49:58Z</time>
      </trkpt>
      <trkpt lat="45.54236" lon="5.76055">
        <ele>381.9</ele>
        <time>2022-04-15T10:49:59Z</time>
      </trkpt>
      <trkpt lat="45.54236" lon="5.76055">
        <ele>381.9</ele>
        <time>2022-04-15T10:50:00Z</time>
      </trkpt>
      <trkpt lat="45.54236" lon="5.76055">
        <ele>381.9</ele>
        <time>2022-04-15T10:50:01Z</time>
      </trkpt>
      <trkpt lat="45.54236" lon="5.76055">
        <ele>381.9</ele>
        <time>2022-04-15T10:50:02Z</time>
      </trkpt>
      <trkpt lat="45.54236" lon="5.76055">
        <ele>381.9</ele>
        <time>2022-04-15T10:50:03Z</time>
      </trkpt>
      <trkpt lat="45.54236" lon="5.76055">
        <ele>381.9</ele>
        <time>2022-04-15T10:50:04Z</time>
      </trkpt>
      <trkpt lat="45.54236" lon="5.76055">
        <ele>381.9</ele>
        <time>2022-04-15T10:50:05Z</time>
      </trkpt>
      <trkpt lat="45.54236" lon="5.76055">
        <ele>381.9</ele>
        <time>2022-04-15T10:50:06Z</time>
      </trkpt>
      <trkpt lat="45.54236" lon="5.76055">
        <ele>381.9</ele>
        <time>2022-04-15T10:50:07Z</time>
      </trkpt>
      <trkpt lat="45.54236" lon="5.76055">
        <ele>381.9</ele>
        <time>2022-04-15T10:50:08Z</time>
      </trkpt>
      <trkpt lat="45.54236" lon="5.76055">
        <ele>381.9</ele>
        <time>2022-04-15T10:50:09Z</time>
      </trkpt>
      <trkpt lat="45.54236" lon="5.76055">
        <ele>381.9</ele>
        <time>2022-04-15T10:50:10Z</time>
      </trkpt>
      <trkpt lat="45.54236" lon="5.76055">
        <ele>381.9</ele>
        <time>2022-04-15T10:50:11Z</time>
      </trkpt>
      <trkpt lat="45.54236" lon="5.76055">
        <ele>381.9</ele>
        <time>2022-04-15T10:50:12Z</time>
      </trkpt>
      <trkpt lat="45.54236" lon="5.76055">
        <ele>381.9</ele>
        <time>2022-04-15T10:50:13Z</time>
      </trkpt>
      <trkpt lat="45.54236" lon="5.76055">
        <ele>381.9</ele>
        <time>2022-04-15T10:50:14Z</time>
      </trkpt>
      <trkpt lat="45.54236" lon="5.76055">
        <ele>381.9</ele>
        <time>2022-04-15T10:50:15Z</time>
      </trkpt>
      <trkpt lat="45.54236" lon="5.76055">
        <ele>381.9</ele>
        <time>2022-04-15T10:50:16Z</time>
      </trkpt>
      <trkpt lat="45.54236" lon="5.76055">
        <ele>381.9</ele>
        <time>2022-04-15T10:50:17Z</time>
      </trkpt>
      <trkpt lat="45.54236" lon="5.76055">
        <ele>381.9</ele>
        <time>2022-04-15T10:50:18Z</time>
      </trkpt>
      <trkpt lat="45.54236" lon="5.76055">
        <ele>381.9</ele>
        <time>2022-04-15T10:50:19Z</time>
      </trkpt>
      <trkpt lat="45.54236" lon="5.76055">
        <ele>381.9</ele>
        <time>2022-04-15T10:50:20Z</time>
      </trkpt>
      <trkpt lat="45.54236" lon="5.76055">
        <ele>381.9</ele>
        <time>2022-04-15T10:50:21Z</time>
      </trkpt>
      <trkpt lat="45.54236" lon="5.76055">
        <ele>381.9</ele>
        <time>2022-04-15T10:50:22Z</time>
      </trkpt>
      <trkpt lat="45.54236" lon="5.76055">
        <ele>381.9</ele>
        <time>2022-04-15T10:50:23Z</time>
      </trkpt>
      <trkpt lat="45.54236" lon="5.76055">
        <ele>381.9</ele>
        <time>2022-04-15T10:50:24Z</time>
      </trkpt>
      <trkpt lat="45.54236" lon="5.76055">
        <ele>381.9</ele>
        <time>2022-04-15T10:50:25Z</time>
      </trkpt>
      <trkpt lat="45.54236" lon="5.76055">
        <ele>381.9</ele>
        <time>2022-04-15T10:50:26Z</time>
      </trkpt>
      <trkpt lat="45.54236" lon="5.76055">
        <ele>381.9</ele>
        <time>2022-04-15T10:50:27Z</time>
      </trkpt>
      <trkpt lat="45.54236" lon="5.76055">
        <ele>381.9</ele>
        <time>2022-04-15T10:50:28Z</time>
      </trkpt>
      <trkpt lat="45.54236" lon="5.76055">
        <ele>381.9</ele>
        <time>2022-04-15T10:50:29Z</time>
      </trkpt>
      <trkpt lat="45.54236" lon="5.76055">
        <ele>381.9</ele>
        <time>2022-04-15T10:50:30Z</time>
      </trkpt>
      <trkpt lat="45.54236" lon="5.76055">
        <ele>381.9</ele>
        <time>2022-04-15T10:50:31Z</time>
      </trkpt>
      <trkpt lat="45.54236" lon="5.76055">
        <ele>381.9</ele>
        <time>2022-04-15T10:50:32Z</time>
      </trkpt>
      <trkpt lat="45.54236" lon="5.76055">
        <ele>381.9</ele>
        <time>2022-04-15T10:50:33Z</time>
      </trkpt>
      <trkpt lat="45.54236" lon="5.76055">
        <ele>381.9</ele>
        <time>2022-04-15T10:50:34Z</time>
      </trkpt>
      <trkpt lat="45.54236" lon="5.76055">
        <ele>381.9</ele>
        <time>2022-04-15T10:50:35Z</time>
      </trkpt>
      <trkpt lat="45.54236" lon="5.76055">
        <ele>381.9</ele>
        <time>2022-04-15T10:50:36Z</time>
      </trkpt>
      <trkpt lat="45.54236" lon="5.76055">
        <ele>381.9</ele>
        <time>2022-04-15T10:50:37Z</time>
      </trkpt>
      <trkpt lat="45.54236" lon="5.76055">
        <ele>381.9</ele>
        <time>2022-04-15T10:50:38Z</time>
      </trkpt>
      <trkpt lat="45.54236" lon="5.76055">
        <ele>381.9</ele>
        <time>2022-04-15T10:50:39Z</time>
      </trkpt>
      <trkpt lat="45.54236" lon="5.76055">
        <ele>381.9</ele>
        <time>2022-04-15T10:50:40Z</time>
      </trkpt>
      <trkpt lat="45.54236" lon="5.76055">
        <ele>381.9</ele>
        <time>2022-04-15T10:50:41Z</time>
      </trkpt>
      <trkpt lat="45.54236" lon="5.76055">
        <ele>381.9</ele>
        <time>2022-04-15T10:50:42Z</time>
      </trkpt>
      <trkpt lat="45.54236" lon="5.76055">
        <ele>381.9</ele>
        <time>2022-04-15T10:50:43Z</time>
      </trkpt>
      <trkpt lat="45.54236" lon="5.76055">
        <ele>381.9</ele>
        <time>2022-04-15T10:50:44Z</time>
      </trkpt>
      <trkpt lat="45.54236" lon="5.76055">
        <ele>381.9</ele>
        <time>2022-04-15T10:50:45Z</time>
      </trkpt>
      <trkpt lat="45.54236" lon="5.76055">
        <ele>381.9</ele>
        <time>2022-04-15T10:50:46Z</time>
      </trkpt>
      <trkpt lat="45.54236" lon="5.76055">
        <ele>381.9</ele>
        <time>2022-04-15T10:50:47Z</time>
      </trkpt>
      <trkpt lat="45.54236" lon="5.76055">
        <ele>381.9</ele>
        <time>2022-04-15T10:50:48Z</time>
      </trkpt>
      <trkpt lat="45.54236" lon="5.76055">
        <ele>381.9</ele>
        <time>2022-04-15T10:50:49Z</time>
      </trkpt>
      <trkpt lat="45.54236" lon="5.76055">
        <ele>381.9</ele>
        <time>2022-04-15T10:50:50Z</time>
      </trkpt>
      <trkpt lat="45.54236" lon="5.76055">
        <ele>381.9</ele>
        <time>2022-04-15T10:50:51Z</time>
      </trkpt>
      <trkpt lat="45.54236" lon="5.76055">
        <ele>381.9</ele>
        <time>2022-04-15T10:50:52Z</time>
      </trkpt>
      <trkpt lat="45.54236" lon="5.76055">
        <ele>381.9</ele>
        <time>2022-04-15T10:50:53Z</time>
      </trkpt>
      <trkpt lat="45.54236" lon="5.76055">
        <ele>381.9</ele>
        <time>2022-04-15T10:50:54Z</time>
      </trkpt>
      <trkpt lat="45.54236" lon="5.76055">
        <ele>381.9</ele>
        <time>2022-04-15T10:50:55Z</time>
      </trkpt>
      <trkpt lat="45.54236" lon="5.76055">
        <ele>381.9</ele>
        <time>2022-04-15T10:50:56Z</time>
      </trkpt>
      <trkpt lat="45.54236" lon="5.76055">
        <ele>381.9</ele>
        <time>2022-04-15T10:50:57Z</time>
      </trkpt>
      <trkpt lat="45.54236" lon="5.76055">
        <ele>381.9</ele>
        <time>2022-04-15T10:50:58Z</time>
      </trkpt>
      <trkpt lat="45.54236" lon="5.76055">
        <ele>381.9</ele>
        <time>2022-04-15T10:50:59Z</time>
      </trkpt>
      <trkpt lat="45.54236" lon="5.76055">
        <ele>381.9</ele>
        <time>2022-04-15T10:51:00Z</time>
      </trkpt>
      <trkpt lat="45.54236" lon="5.76055">
        <ele>381.9</ele>
        <time>2022-04-15T10:51:01Z</time>
      </trkpt>
      <trkpt lat="45.54236" lon="5.76055">
        <ele>381.9</ele>
        <time>2022-04-15T10:51:02Z</time>
      </trkpt>
      <trkpt lat="45.54236" lon="5.76055">
        <ele>381.9</ele>
        <time>2022-04-15T10:51:03Z</time>
      </trkpt>
      <trkpt lat="45.54236" lon="5.76055">
        <ele>381.9</ele>
        <time>2022-04-15T10:51:04Z</time>
      </trkpt>
      <trkpt lat="45.54236" lon="5.76055">
        <ele>381.9</ele>
        <time>2022-04-15T10:51:05Z</time>
      </trkpt>
      <trkpt lat="45.54236" lon="5.76055">
        <ele>381.9</ele>
        <time>2022-04-15T10:51:06Z</time>
      </trkpt>
      <trkpt lat="45.54236" lon="5.76055">
        <ele>381.9</ele>
        <time>2022-04-15T10:51:07Z</time>
      </trkpt>
      <trkpt lat="45.54236" lon="5.76055">
        <ele>381.9</ele>
        <time>2022-04-15T10:51:08Z</time>
      </trkpt>
      <trkpt lat="45.54236" lon="5.76055">
        <ele>381.9</ele>
        <time>2022-04-15T10:51:09Z</time>
      </trkpt>
      <trkpt lat="45.54236" lon="5.76055">
        <ele>381.9</ele>
        <time>2022-04-15T10:51:10Z</time>
      </trkpt>
      <trkpt lat="45.54236" lon="5.76055">
        <ele>381.9</ele>
        <time>2022-04-15T10:51:11Z</time>
      </trkpt>
      <trkpt lat="45.54236" lon="5.76055">
        <ele>381.9</ele>
        <time>2022-04-15T10:51:12Z</time>
      </trkpt>
      <trkpt lat="45.54236" lon="5.76055">
        <ele>381.9</ele>
        <time>2022-04-15T10:51:13Z</time>
      </trkpt>
      <trkpt lat="45.54236" lon="5.76055">
        <ele>381.9</ele>
        <time>2022-04-15T10:51:14Z</time>
      </trkpt>
      <trkpt lat="45.54236" lon="5.76055">
        <ele>381.9</ele>
        <time>2022-04-15T10:51:15Z</time>
      </trkpt>
      <trkpt lat="45.54236" lon="5.76055">
        <ele>381.9</ele>
        <time>2022-04-15T10:51:16Z</time>
      </trkpt>
      <trkpt lat="45.54236" lon="5.76055">
        <ele>381.9</ele>
        <time>2022-04-15T10:51:17Z</time>
      </trkpt>
      <trkpt lat="45.54236" lon="5.76055">
        <ele>381.9</ele>
        <time>2022-04-15T10:51:18Z</time>
      </trkpt>
      <trkpt lat="45.54236" lon="5.76055">
        <ele>381.9</ele>
        <time>2022-04-15T10:51:19Z</time>
      </trkpt>
      <trkpt lat="45.54236" lon="5.76055">
        <ele>381.9</ele>
        <time>2022-04-15T10:51:20Z</time>
      </trkpt>
      <trkpt lat="45.54236" lon="5.76055">
        <ele>381.9</ele>
        <time>2022-04-15T10:51:21Z</time>
      </trkpt>
      <trkpt lat="45.54236" lon="5.76055">
        <ele>381.9</ele>
        <time>2022-04-15T10:51:22Z</time>
      </trkpt>
      <trkpt lat="45.54236" lon="5.76055">
        <ele>381.9</ele>
        <time>2022-04-15T10:51:23Z</time>
      </trkpt>
      <trkpt lat="45.54236" lon="5.76055">
        <ele>381.9</ele>
        <time>2022-04-15T10:51:24Z</time>
      </trkpt>
      <trkpt lat="45.54236" lon="5.76055">
        <ele>381.9</ele>
        <time>2022-04-15T10:51:25Z</time>
      </trkpt>
      <trkpt lat="45.54236" lon="5.76055">
        <ele>381.9</ele>
        <time>2022-04-15T10:51:26Z</time>
      </trkpt>
      <trkpt lat="45.54236" lon="5.76055">
        <ele>381.9</ele>
        <time>2022-04-15T10:51:27Z</time>
      </trkpt>
      <trkpt lat="45.54236" lon="5.76055">
        <ele>381.9</ele>
        <time>2022-04-15T10:51:28Z</time>
      </trkpt>
      <trkpt lat="45.54236" lon="5.76055">
        <ele>381.9</ele>
        <time>2022-04-15T10:51:29Z</time>
      </trkpt>
      <trkpt lat="45.54236" lon="5.76055">
        <ele>381.9</ele>
        <time>2022-04-15T10:51:30Z</time>
      </trkpt>
      <trkpt lat="45.54236" lon="5.76055">
        <ele>381.9</ele>
        <time>2022-04-15T10:51:31Z</time>
      </trkpt>
      <trkpt lat="45.54236" lon="5.76055">
        <ele>381.9</ele>
        <time>2022-04-15T10:51:32Z</time>
      </trkpt>
      <trkpt lat="45.54236" lon="5.76055">
        <ele>381.9</ele>
        <time>2022-04-15T10:51:33Z</time>
      </trkpt>
      <trkpt lat="45.54236" lon="5.76055">
        <ele>381.9</ele>
        <time>2022-04-15T10:51:34Z</time>
      </trkpt>
      <trkpt lat="45.54236" lon="5.76055">
        <ele>381.9</ele>
        <time>2022-04-15T10:51:35Z</time>
      </trkpt>
      <trkpt lat="45.54236" lon="5.76055">
        <ele>381.9</ele>
        <time>2022-04-15T10:51:36Z</time>
      </trkpt>
      <trkpt lat="45.54236" lon="5.76055">
        <ele>381.9</ele>
        <time>2022-04-15T10:51:37Z</time>
      </trkpt>
      <trkpt lat="45.54236" lon="5.76055">
        <ele>381.9</ele>
        <time>2022-04-15T10:51:38Z</time>
      </trkpt>
      <trkpt lat="45.54236" lon="5.76055">
        <ele>381.9</ele>
        <time>2022-04-15T10:51:39Z</time>
      </trkpt>
      <trkpt lat="45.54236" lon="5.76055">
        <ele>381.9</ele>
        <time>2022-04-15T10:51:40Z</time>
      </trkpt>
      <trkpt lat="45.54236" lon="5.76055">
        <ele>381.9</ele>
        <time>2022-04-15T10:51:41Z</time>
      </trkpt>
      <trkpt lat="45.54236" lon="5.76055">
        <ele>381.9</ele>
        <time>2022-04-15T10:51:42Z</time>
      </trkpt>
      <trkpt lat="45.54236" lon="5.76055">
        <ele>381.9</ele>
        <time>2022-04-15T10:51:43Z</time>
      </trkpt>
      <trkpt lat="45.54236" lon="5.76055">
        <ele>381.9</ele>
        <time>2022-04-15T10:51:44Z</time>
      </trkpt>
      <trkpt lat="45.54236" lon="5.76055">
        <ele>381.9</ele>
        <time>2022-04-15T10:51:45Z</time>
      </trkpt>
      <trkpt lat="45.54236" lon="5.76055">
        <ele>381.9</ele>
        <time>2022-04-15T10:51:46Z</time>
      </trkpt>
      <trkpt lat="45.54236" lon="5.76055">
        <ele>381.9</ele>
        <time>2022-04-15T10:51:47Z</time>
      </trkpt>
      <trkpt lat="45.54236" lon="5.76055">
        <ele>381.9</ele>
        <time>2022-04-15T10:51:48Z</time>
      </trkpt>
      <trkpt lat="45.54236" lon="5.76055">
        <ele>381.9</ele>
        <time>2022-04-15T10:51:49Z</time>
      </trkpt>
      <trkpt lat="45.54236" lon="5.76055">
        <ele>381.9</ele>
        <time>2022-04-15T10:51:50Z</time>
      </trkpt>
      <trkpt lat="45.54236" lon="5.76055">
        <ele>381.9</ele>
        <time>2022-04-15T10:51:51Z</time>
      </trkpt>
      <trkpt lat="45.54236" lon="5.76055">
        <ele>381.9</ele>
        <time>2022-04-15T10:51:52Z</time>
      </trkpt>
      <trkpt lat="45.54236" lon="5.76055">
        <ele>381.9</ele>
        <time>2022-04-15T10:51:53Z</time>
      </trkpt>
      <trkpt lat="45.54236" lon="5.76055">
        <ele>381.9</ele>
        <time>2022-04-15T10:51:54Z</time>
      </trkpt>
      <trkpt lat="45.54236" lon="5.76055">
        <ele>381.9</ele>
        <time>2022-04-15T10:51:55Z</time>
      </trkpt>
      <trkpt lat="45.54236" lon="5.76055">
        <ele>381.9</ele>
        <time>2022-04-15T10:51:56Z</time>
      </trkpt>
      <trkpt lat="45.54236" lon="5.76055">
        <ele>381.9</ele>
        <time>2022-04-15T10:51:57Z</time>
      </trkpt>
      <trkpt lat="45.54236" lon="5.76055">
        <ele>381.9</ele>
        <time>2022-04-15T10:51:58Z</time>
      </trkpt>
      <trkpt lat="45.54236" lon="5.76055">
        <ele>381.9</ele>
        <time>2022-04-15T10:51:59Z</time>
      </trkpt>
      <trkpt lat="45.54236" lon="5.76055">
        <ele>381.9</ele>
        <time>2022-04-15T10:52:00Z</time>
      </trkpt>
      <trkpt lat="45.54236" lon="5.76055">
        <ele>381.9</ele>
        <time>2022-04-15T10:52:01Z</time>
      </trkpt>
      <trkpt lat="45.54236" lon="5.76055">
        <ele>381.9</ele>
        <time>2022-04-15T10:52:02Z</time>
      </trkpt>
      <trkpt lat="45.54236" lon="5.76055">
        <ele>381.9</ele>
        <time>2022-04-15T10:52:03Z</time>
      </trkpt>
      <trkpt lat="45.54236" lon="5.76055">
        <ele>381.9</ele>
        <time>2022-04-15T10:52:04Z</time>
      </trkpt>
      <trkpt lat="45.54236" lon="5.76055">
        <ele>381.9</ele>
        <time>2022-04-15T10:52:05Z</time>
      </trkpt>
      <trkpt lat="45.54236" lon="5.76055">
        <ele>381.9</ele>
        <time>2022-04-15T10:52:06Z</time>
      </trkpt>
      <trkpt lat="45.54237" lon="5.76055">
        <ele>381.9</ele>
        <time>2022-04-15T10:52:07Z</time>
      </trkpt>
      <trkpt lat="45.54239" lon="5.76056">
        <ele>381.9</ele>
        <time>2022-04-15T10:52:08Z</time>
      </trkpt>
      <trkpt lat="45.5424" lon="5.76057">
        <ele>381.9</ele>
        <time>2022-04-15T10:52:09Z</time>
      </trkpt>
      <trkpt lat="45.5424" lon="5.76057">
        <ele>381.9</ele>
        <time>2022-04-15T10:52:10Z</time>
      </trkpt>
      <trkpt lat="45.54241" lon="5.76058">
        <ele>381.9</ele>
        <time>2022-04-15T10:52:11Z</time>
      </trkpt>
      <trkpt lat="45.54243" lon="5.7606">
        <ele>381.9</ele>
        <time>2022-04-15T10:52:12Z</time>
      </trkpt>
      <trkpt lat="45.54245" lon="5.76062">
        <ele>381.9</ele>
        <time>2022-04-15T10:52:13Z</time>
      </trkpt>
      <trkpt lat="45.54246" lon="5.76064">
        <ele>381.9</ele>
        <time>2022-04-15T10:52:14Z</time>
      </trkpt>
      <trkpt lat="45.54247" lon="5.76065">
        <ele>381.9</ele>
        <time>2022-04-15T10:52:15Z</time>
      </trkpt>
      <trkpt lat="45.54248" lon="5.76066">
        <ele>381.9</ele>
        <time>2022-04-15T10:52:16Z</time>
      </trkpt>
      <trkpt lat="45.54251" lon="5.76072">
        <ele>381.9</ele>
        <time>2022-04-15T10:52:17Z</time>
      </trkpt>
      <trkpt lat="45.54252" lon="5.76074">
        <ele>381.7</ele>
        <time>2022-04-15T10:52:18Z</time>
      </trkpt>
      <trkpt lat="45.54252" lon="5.76076">
        <ele>381.7</ele>
        <time>2022-04-15T10:52:20Z</time>
      </trkpt>
      <trkpt lat="45.54251" lon="5.76079">
        <ele>381.6</ele>
        <time>2022-04-15T10:52:21Z</time>
      </trkpt>
      <trkpt lat="45.54251" lon="5.7608">
        <ele>381.5</ele>
        <time>2022-04-15T10:52:23Z</time>
      </trkpt>
      <trkpt lat="45.54251" lon="5.7608">
        <ele>381.5</ele>
        <time>2022-04-15T10:52:24Z</time>
      </trkpt>
      <trkpt lat="45.54251" lon="5.7608">
        <ele>381.5</ele>
        <time>2022-04-15T10:52:25Z</time>
      </trkpt>
      <trkpt lat="45.54251" lon="5.76079">
        <ele>381.5</ele>
        <time>2022-04-15T10:52:26Z</time>
      </trkpt>
      <trkpt lat="45.54251" lon="5.76079">
        <ele>381.5</ele>
        <time>2022-04-15T10:52:27Z</time>
      </trkpt>
      <trkpt lat="45.54251" lon="5.76079">
        <ele>381.5</ele>
        <time>2022-04-15T10:52:28Z</time>
      </trkpt>
      <trkpt lat="45.54251" lon="5.76079">
        <ele>381.5</ele>
        <time>2022-04-15T10:52:29Z</time>
      </trkpt>
      <trkpt lat="45.54251" lon="5.76082">
        <ele>381.4</ele>
        <time>2022-04-15T10:52:31Z</time>
      </trkpt>
      <trkpt lat="45.54251" lon="5.76087">
        <ele>381.2</ele>
        <time>2022-04-15T10:52:33Z</time>
      </trkpt>
      <trkpt lat="45.54251" lon="5.76093">
        <ele>381</ele>
        <time>2022-04-15T10:52:34Z</time>
      </trkpt>
      <trkpt lat="45.54251" lon="5.76095">
        <ele>380.9</ele>
        <time>2022-04-15T10:52:35Z</time>
      </trkpt>
      <trkpt lat="45.5425" lon="5.761">
        <ele>380.8</ele>
        <time>2022-04-15T10:52:36Z</time>
      </trkpt>
      <trkpt lat="45.54248" lon="5.76106">
        <ele>380.5</ele>
        <time>2022-04-15T10:52:37Z</time>
      </trkpt>
      <trkpt lat="45.54243" lon="5.76118">
        <ele>380.2</ele>
        <time>2022-04-15T10:52:39Z</time>
      </trkpt>
      <trkpt lat="45.54239" lon="5.76125">
        <ele>380</ele>
        <time>2022-04-15T10:52:40Z</time>
      </trkpt>
      <trkpt lat="45.54233" lon="5.76135">
        <ele>379.8</ele>
        <time>2022-04-15T10:52:41Z</time>
      </trkpt>
      <trkpt lat="45.5423" lon="5.76142">
        <ele>379.8</ele>
        <time>2022-04-15T10:52:43Z</time>
      </trkpt>
      <trkpt lat="45.54227" lon="5.76148">
        <ele>379.8</ele>
        <time>2022-04-15T10:52:44Z</time>
      </trkpt>
      <trkpt lat="45.54225" lon="5.76154">
        <ele>379.8</ele>
        <time>2022-04-15T10:52:45Z</time>
      </trkpt>
      <trkpt lat="45.5422" lon="5.76166">
        <ele>379.8</ele>
        <time>2022-04-15T10:52:47Z</time>
      </trkpt>
      <trkpt lat="45.54218" lon="5.76177">
        <ele>379.8</ele>
        <time>2022-04-15T10:52:49Z</time>
      </trkpt>
      <trkpt lat="45.54215" lon="5.76183">
        <ele>379.9</ele>
        <time>2022-04-15T10:52:50Z</time>
      </trkpt>
      <trkpt lat="45.54214" lon="5.76188">
        <ele>379.9</ele>
        <time>2022-04-15T10:52:51Z</time>
      </trkpt>
      <trkpt lat="45.54213" lon="5.76194">
        <ele>379.9</ele>
        <time>2022-04-15T10:52:52Z</time>
      </trkpt>
      <trkpt lat="45.54211" lon="5.76204">
        <ele>379.9</ele>
        <time>2022-04-15T10:52:54Z</time>
      </trkpt>
      <trkpt lat="45.54209" lon="5.7621">
        <ele>379.9</ele>
        <time>2022-04-15T10:52:56Z</time>
      </trkpt>
      <trkpt lat="45.54208" lon="5.76215">
        <ele>379.9</ele>
        <time>2022-04-15T10:52:57Z</time>
      </trkpt>
      <trkpt lat="45.54207" lon="5.76221">
        <ele>379.9</ele>
        <time>2022-04-15T10:52:58Z</time>
      </trkpt>
      <trkpt lat="45.54205" lon="5.76226">
        <ele>379.9</ele>
        <time>2022-04-15T10:52:59Z</time>
      </trkpt>
      <trkpt lat="45.54204" lon="5.76232">
        <ele>379.9</ele>
        <time>2022-04-15T10:53:00Z</time>
      </trkpt>
      <trkpt lat="45.54203" lon="5.76237">
        <ele>379.9</ele>
        <time>2022-04-15T10:53:01Z</time>
      </trkpt>
      <trkpt lat="45.542" lon="5.76244">
        <ele>379.9</ele>
        <time>2022-04-15T10:53:02Z</time>
      </trkpt>
      <trkpt lat="45.54198" lon="5.7625">
        <ele>380</ele>
        <time>2022-04-15T10:53:03Z</time>
      </trkpt>
      <trkpt lat="45.54197" lon="5.76258">
        <ele>380</ele>
        <time>2022-04-15T10:53:04Z</time>
      </trkpt>
      <trkpt lat="45.54196" lon="5.76265">
        <ele>380</ele>
        <time>2022-04-15T10:53:05Z</time>
      </trkpt>
      <trkpt lat="45.54193" lon="5.76272">
        <ele>380</ele>
        <time>2022-04-15T10:53:07Z</time>
      </trkpt>
      <trkpt lat="45.54191" lon="5.76278">
        <ele>380.1</ele>
        <time>2022-04-15T10:53:08Z</time>
      </trkpt>
      <trkpt lat="45.5419" lon="5.76287">
        <ele>380.2</ele>
        <time>2022-04-15T10:53:09Z</time>
      </trkpt>
      <trkpt lat="45.54189" lon="5.76293">
        <ele>380.2</ele>
        <time>2022-04-15T10:53:11Z</time>
      </trkpt>
      <trkpt lat="45.54188" lon="5.763">
        <ele>380.3</ele>
        <time>2022-04-15T10:53:12Z</time>
      </trkpt>
      <trkpt lat="45.54187" lon="5.7631">
        <ele>380.4</ele>
        <time>2022-04-15T10:53:14Z</time>
      </trkpt>
      <trkpt lat="45.54185" lon="5.76316">
        <ele>380.5</ele>
        <time>2022-04-15T10:53:15Z</time>
      </trkpt>
      <trkpt lat="45.54183" lon="5.76326">
        <ele>380.6</ele>
        <time>2022-04-15T10:53:17Z</time>
      </trkpt>
      <trkpt lat="45.54182" lon="5.76333">
        <ele>380.7</ele>
        <time>2022-04-15T10:53:18Z</time>
      </trkpt>
      <trkpt lat="45.54181" lon="5.76339">
        <ele>380.7</ele>
        <time>2022-04-15T10:53:20Z</time>
      </trkpt>
      <trkpt lat="45.5418" lon="5.76344">
        <ele>380.8</ele>
        <time>2022-04-15T10:53:21Z</time>
      </trkpt>
      <trkpt lat="45.54179" lon="5.76348">
        <ele>380.8</ele>
        <time>2022-04-15T10:53:22Z</time>
      </trkpt>
      <trkpt lat="45.54179" lon="5.76352">
        <ele>380.8</ele>
        <time>2022-04-15T10:53:23Z</time>
      </trkpt>
      <trkpt lat="45.54178" lon="5.76357">
        <ele>380.9</ele>
        <time>2022-04-15T10:53:24Z</time>
      </trkpt>
      <trkpt lat="45.54177" lon="5.76367">
        <ele>380.9</ele>
        <time>2022-04-15T10:53:26Z</time>
      </trkpt>
      <trkpt lat="45.54178" lon="5.76376">
        <ele>380.9</ele>
        <time>2022-04-15T10:53:28Z</time>
      </trkpt>
      <trkpt lat="45.54178" lon="5.76381">
        <ele>381</ele>
        <time>2022-04-15T10:53:29Z</time>
      </trkpt>
      <trkpt lat="45.54178" lon="5.76386">
        <ele>381</ele>
        <time>2022-04-15T10:53:30Z</time>
      </trkpt>
      <trkpt lat="45.54178" lon="5.76392">
        <ele>381</ele>
        <time>2022-04-15T10:53:31Z</time>
      </trkpt>
      <trkpt lat="45.54178" lon="5.76399">
        <ele>381</ele>
        <time>2022-04-15T10:53:32Z</time>
      </trkpt>
      <trkpt lat="45.54178" lon="5.76408">
        <ele>381</ele>
        <time>2022-04-15T10:53:34Z</time>
      </trkpt>
      <trkpt lat="45.54178" lon="5.76413">
        <ele>381</ele>
        <time>2022-04-15T10:53:35Z</time>
      </trkpt>
      <trkpt lat="45.54179" lon="5.76417">
        <ele>381</ele>
        <time>2022-04-15T10:53:36Z</time>
      </trkpt>
      <trkpt lat="45.54178" lon="5.76424">
        <ele>381</ele>
        <time>2022-04-15T10:53:37Z</time>
      </trkpt>
      <trkpt lat="45.54178" lon="5.76429">
        <ele>381</ele>
        <time>2022-04-15T10:53:38Z</time>
      </trkpt>
      <trkpt lat="45.54178" lon="5.76437">
        <ele>381</ele>
        <time>2022-04-15T10:53:39Z</time>
      </trkpt>
      <trkpt lat="45.54179" lon="5.76446">
        <ele>381</ele>
        <time>2022-04-15T10:53:41Z</time>
      </trkpt>
      <trkpt lat="45.54178" lon="5.76452">
        <ele>381</ele>
        <time>2022-04-15T10:53:42Z</time>
      </trkpt>
      <trkpt lat="45.54179" lon="5.76458">
        <ele>380.9</ele>
        <time>2022-04-15T10:53:43Z</time>
      </trkpt>
      <trkpt lat="45.5418" lon="5.76469">
        <ele>380.9</ele>
        <time>2022-04-15T10:53:45Z</time>
      </trkpt>
      <trkpt lat="45.5418" lon="5.76476">
        <ele>380.9</ele>
        <time>2022-04-15T10:53:46Z</time>
      </trkpt>
      <trkpt lat="45.54181" lon="5.76483">
        <ele>380.9</ele>
        <time>2022-04-15T10:53:47Z</time>
      </trkpt>
      <trkpt lat="45.54181" lon="5.76492">
        <ele>380.8</ele>
        <time>2022-04-15T10:53:48Z</time>
      </trkpt>
      <trkpt lat="45.54179" lon="5.76503">
        <ele>380.7</ele>
        <time>2022-04-15T10:53:50Z</time>
      </trkpt>
      <trkpt lat="45.54179" lon="5.7651">
        <ele>380.7</ele>
        <time>2022-04-15T10:53:51Z</time>
      </trkpt>
      <trkpt lat="45.54179" lon="5.76517">
        <ele>380.7</ele>
        <time>2022-04-15T10:53:52Z</time>
      </trkpt>
      <trkpt lat="45.54179" lon="5.76524">
        <ele>380.7</ele>
        <time>2022-04-15T10:53:53Z</time>
      </trkpt>
      <trkpt lat="45.54179" lon="5.76531">
        <ele>380.7</ele>
        <time>2022-04-15T10:53:54Z</time>
      </trkpt>
      <trkpt lat="45.54179" lon="5.76537">
        <ele>380.7</ele>
        <time>2022-04-15T10:53:55Z</time>
      </trkpt>
      <trkpt lat="45.54178" lon="5.76544">
        <ele>380.7</ele>
        <time>2022-04-15T10:53:56Z</time>
      </trkpt>
      <trkpt lat="45.54178" lon="5.76551">
        <ele>380.7</ele>
        <time>2022-04-15T10:53:57Z</time>
      </trkpt>
      <trkpt lat="45.54178" lon="5.76557">
        <ele>380.8</ele>
        <time>2022-04-15T10:53:58Z</time>
      </trkpt>
      <trkpt lat="45.54178" lon="5.76564">
        <ele>380.8</ele>
        <time>2022-04-15T10:53:59Z</time>
      </trkpt>
      <trkpt lat="45.54178" lon="5.76572">
        <ele>380.9</ele>
        <time>2022-04-15T10:54:00Z</time>
      </trkpt>
      <trkpt lat="45.54179" lon="5.76578">
        <ele>380.9</ele>
        <time>2022-04-15T10:54:01Z</time>
      </trkpt>
      <trkpt lat="45.54178" lon="5.76588">
        <ele>381.1</ele>
        <time>2022-04-15T10:54:03Z</time>
      </trkpt>
      <trkpt lat="45.54178" lon="5.76594">
        <ele>381.2</ele>
        <time>2022-04-15T10:54:04Z</time>
      </trkpt>
      <trkpt lat="45.54178" lon="5.76601">
        <ele>381.3</ele>
        <time>2022-04-15T10:54:05Z</time>
      </trkpt>
      <trkpt lat="45.54179" lon="5.76611">
        <ele>381.4</ele>
        <time>2022-04-15T10:54:07Z</time>
      </trkpt>
      <trkpt lat="45.5418" lon="5.76616">
        <ele>381.5</ele>
        <time>2022-04-15T10:54:08Z</time>
      </trkpt>
      <trkpt lat="45.54181" lon="5.76625">
        <ele>381.6</ele>
        <time>2022-04-15T10:54:09Z</time>
      </trkpt>
      <trkpt lat="45.54182" lon="5.7663">
        <ele>381.6</ele>
        <time>2022-04-15T10:54:11Z</time>
      </trkpt>
      <trkpt lat="45.54184" lon="5.76641">
        <ele>381.8</ele>
        <time>2022-04-15T10:54:13Z</time>
      </trkpt>
      <trkpt lat="45.54186" lon="5.7665">
        <ele>381.9</ele>
        <time>2022-04-15T10:54:15Z</time>
      </trkpt>
      <trkpt lat="45.54187" lon="5.76657">
        <ele>382</ele>
        <time>2022-04-15T10:54:16Z</time>
      </trkpt>
      <trkpt lat="45.54189" lon="5.76664">
        <ele>382.1</ele>
        <time>2022-04-15T10:54:17Z</time>
      </trkpt>
      <trkpt lat="45.54192" lon="5.76672">
        <ele>382.2</ele>
        <time>2022-04-15T10:54:19Z</time>
      </trkpt>
      <trkpt lat="45.54192" lon="5.76679">
        <ele>382.3</ele>
        <time>2022-04-15T10:54:20Z</time>
      </trkpt>
      <trkpt lat="45.54193" lon="5.76684">
        <ele>382.4</ele>
        <time>2022-04-15T10:54:21Z</time>
      </trkpt>
      <trkpt lat="45.54195" lon="5.76693">
        <ele>382.5</ele>
        <time>2022-04-15T10:54:23Z</time>
      </trkpt>
      <trkpt lat="45.54195" lon="5.76697">
        <ele>382.6</ele>
        <time>2022-04-15T10:54:24Z</time>
      </trkpt>
      <trkpt lat="45.54195" lon="5.76701">
        <ele>382.7</ele>
        <time>2022-04-15T10:54:25Z</time>
      </trkpt>
      <trkpt lat="45.54196" lon="5.76706">
        <ele>382.7</ele>
        <time>2022-04-15T10:54:26Z</time>
      </trkpt>
      <trkpt lat="45.54197" lon="5.76713">
        <ele>382.7</ele>
        <time>2022-04-15T10:54:27Z</time>
      </trkpt>
      <trkpt lat="45.54198" lon="5.76719">
        <ele>382.8</ele>
        <time>2022-04-15T10:54:28Z</time>
      </trkpt>
      <trkpt lat="45.542" lon="5.76726">
        <ele>382.9</ele>
        <time>2022-04-15T10:54:30Z</time>
      </trkpt>
      <trkpt lat="45.54201" lon="5.76733">
        <ele>382.9</ele>
        <time>2022-04-15T10:54:31Z</time>
      </trkpt>
      <trkpt lat="45.54202" lon="5.7674">
        <ele>382.9</ele>
        <time>2022-04-15T10:54:32Z</time>
      </trkpt>
      <trkpt lat="45.54202" lon="5.76746">
        <ele>382.9</ele>
        <time>2022-04-15T10:54:34Z</time>
      </trkpt>
      <trkpt lat="45.54202" lon="5.76756">
        <ele>382.9</ele>
        <time>2022-04-15T10:54:35Z</time>
      </trkpt>
      <trkpt lat="45.54203" lon="5.76763">
        <ele>382.9</ele>
        <time>2022-04-15T10:54:37Z</time>
      </trkpt>
      <trkpt lat="45.54204" lon="5.76769">
        <ele>382.8</ele>
        <time>2022-04-15T10:54:38Z</time>
      </trkpt>
      <trkpt lat="45.54205" lon="5.76775">
        <ele>382.8</ele>
        <time>2022-04-15T10:54:39Z</time>
      </trkpt>
      <trkpt lat="45.54206" lon="5.76785">
        <ele>382.6</ele>
        <time>2022-04-15T10:54:40Z</time>
      </trkpt>
      <trkpt lat="45.54207" lon="5.76791">
        <ele>382.5</ele>
        <time>2022-04-15T10:54:42Z</time>
      </trkpt>
      <trkpt lat="45.54209" lon="5.768">
        <ele>382.4</ele>
        <time>2022-04-15T10:54:43Z</time>
      </trkpt>
      <trkpt lat="45.5421" lon="5.76807">
        <ele>382.3</ele>
        <time>2022-04-15T10:54:44Z</time>
      </trkpt>
      <trkpt lat="45.54211" lon="5.76813">
        <ele>382.3</ele>
        <time>2022-04-15T10:54:45Z</time>
      </trkpt>
      <trkpt lat="45.54212" lon="5.7682">
        <ele>382.2</ele>
        <time>2022-04-15T10:54:46Z</time>
      </trkpt>
      <trkpt lat="45.54213" lon="5.76827">
        <ele>382.1</ele>
        <time>2022-04-15T10:54:47Z</time>
      </trkpt>
      <trkpt lat="45.54215" lon="5.76833">
        <ele>382</ele>
        <time>2022-04-15T10:54:48Z</time>
      </trkpt>
      <trkpt lat="45.54216" lon="5.7684">
        <ele>382</ele>
        <time>2022-04-15T10:54:49Z</time>
      </trkpt>
      <trkpt lat="45.54218" lon="5.76846">
        <ele>381.9</ele>
        <time>2022-04-15T10:54:50Z</time>
      </trkpt>
      <trkpt lat="45.54219" lon="5.76853">
        <ele>381.8</ele>
        <time>2022-04-15T10:54:51Z</time>
      </trkpt>
      <trkpt lat="45.54221" lon="5.7686">
        <ele>381.7</ele>
        <time>2022-04-15T10:54:52Z</time>
      </trkpt>
      <trkpt lat="45.54222" lon="5.76867">
        <ele>381.6</ele>
        <time>2022-04-15T10:54:53Z</time>
      </trkpt>
      <trkpt lat="45.54223" lon="5.76874">
        <ele>381.6</ele>
        <time>2022-04-15T10:54:54Z</time>
      </trkpt>
      <trkpt lat="45.54224" lon="5.76881">
        <ele>381.5</ele>
        <time>2022-04-15T10:54:55Z</time>
      </trkpt>
      <trkpt lat="45.54224" lon="5.76888">
        <ele>381.5</ele>
        <time>2022-04-15T10:54:56Z</time>
      </trkpt>
      <trkpt lat="45.54225" lon="5.76895">
        <ele>381.4</ele>
        <time>2022-04-15T10:54:57Z</time>
      </trkpt>
      <trkpt lat="45.54225" lon="5.76902">
        <ele>381.4</ele>
        <time>2022-04-15T10:54:58Z</time>
      </trkpt>
      <trkpt lat="45.54225" lon="5.76909">
        <ele>381.3</ele>
        <time>2022-04-15T10:54:59Z</time>
      </trkpt>
      <trkpt lat="45.54226" lon="5.76917">
        <ele>381.2</ele>
        <time>2022-04-15T10:55:00Z</time>
      </trkpt>
      <trkpt lat="45.54227" lon="5.76923">
        <ele>381.1</ele>
        <time>2022-04-15T10:55:01Z</time>
      </trkpt>
      <trkpt lat="45.54228" lon="5.7693">
        <ele>381.1</ele>
        <time>2022-04-15T10:55:02Z</time>
      </trkpt>
      <trkpt lat="45.54229" lon="5.76938">
        <ele>381</ele>
        <time>2022-04-15T10:55:03Z</time>
      </trkpt>
      <trkpt lat="45.54231" lon="5.76945">
        <ele>380.9</ele>
        <time>2022-04-15T10:55:04Z</time>
      </trkpt>
      <trkpt lat="45.54232" lon="5.76953">
        <ele>380.9</ele>
        <time>2022-04-15T10:55:05Z</time>
      </trkpt>
      <trkpt lat="45.54234" lon="5.76961">
        <ele>380.9</ele>
        <time>2022-04-15T10:55:06Z</time>
      </trkpt>
      <trkpt lat="45.54235" lon="5.76968">
        <ele>381</ele>
        <time>2022-04-15T10:55:07Z</time>
      </trkpt>
      <trkpt lat="45.54236" lon="5.76975">
        <ele>381</ele>
        <time>2022-04-15T10:55:08Z</time>
      </trkpt>
      <trkpt lat="45.54236" lon="5.76982">
        <ele>381.1</ele>
        <time>2022-04-15T10:55:09Z</time>
      </trkpt>
      <trkpt lat="45.54237" lon="5.76986">
        <ele>381.1</ele>
        <time>2022-04-15T10:55:10Z</time>
      </trkpt>
      <trkpt lat="45.54237" lon="5.76991">
        <ele>381.1</ele>
        <time>2022-04-15T10:55:11Z</time>
      </trkpt>
      <trkpt lat="45.54238" lon="5.76997">
        <ele>381.2</ele>
        <time>2022-04-15T10:55:12Z</time>
      </trkpt>
      <trkpt lat="45.54238" lon="5.77002">
        <ele>381.2</ele>
        <time>2022-04-15T10:55:13Z</time>
      </trkpt>
      <trkpt lat="45.54238" lon="5.77008">
        <ele>381.2</ele>
        <time>2022-04-15T10:55:14Z</time>
      </trkpt>
      <trkpt lat="45.54239" lon="5.77012">
        <ele>381.2</ele>
        <time>2022-04-15T10:55:15Z</time>
      </trkpt>
      <trkpt lat="45.54239" lon="5.77013">
        <ele>381.2</ele>
        <time>2022-04-15T10:55:16Z</time>
      </trkpt>
      <trkpt lat="45.54238" lon="5.77013">
        <ele>381.2</ele>
        <time>2022-04-15T10:55:17Z</time>
      </trkpt>
      <trkpt lat="45.54239" lon="5.77014">
        <ele>381.2</ele>
        <time>2022-04-15T10:55:18Z</time>
      </trkpt>
      <trkpt lat="45.54239" lon="5.77014">
        <ele>381.2</ele>
        <time>2022-04-15T10:55:19Z</time>
      </trkpt>
      <trkpt lat="45.54239" lon="5.77016">
        <ele>381.2</ele>
        <time>2022-04-15T10:55:21Z</time>
      </trkpt>
      <trkpt lat="45.54239" lon="5.77017">
        <ele>381.2</ele>
        <time>2022-04-15T10:55:22Z</time>
      </trkpt>
      <trkpt lat="45.54238" lon="5.77022">
        <ele>381.2</ele>
        <time>2022-04-15T10:55:23Z</time>
      </trkpt>
      <trkpt lat="45.54239" lon="5.77024">
        <ele>381.2</ele>
        <time>2022-04-15T10:55:24Z</time>
      </trkpt>
      <trkpt lat="45.54239" lon="5.77031">
        <ele>381.2</ele>
        <time>2022-04-15T10:55:26Z</time>
      </trkpt>
      <trkpt lat="45.5424" lon="5.77034">
        <ele>381.2</ele>
        <time>2022-04-15T10:55:27Z</time>
      </trkpt>
      <trkpt lat="45.5424" lon="5.77037">
        <ele>381.2</ele>
        <time>2022-04-15T10:55:28Z</time>
      </trkpt>
      <trkpt lat="45.5424" lon="5.77043">
        <ele>381.1</ele>
        <time>2022-04-15T10:55:29Z</time>
      </trkpt>
      <trkpt lat="45.5424" lon="5.77045">
        <ele>381.1</ele>
        <time>2022-04-15T10:55:30Z</time>
      </trkpt>
      <trkpt lat="45.54241" lon="5.77052">
        <ele>381</ele>
        <time>2022-04-15T10:55:31Z</time>
      </trkpt>
      <trkpt lat="45.54241" lon="5.77061">
        <ele>380.9</ele>
        <time>2022-04-15T10:55:33Z</time>
      </trkpt>
      <trkpt lat="45.54242" lon="5.77067">
        <ele>380.9</ele>
        <time>2022-04-15T10:55:34Z</time>
      </trkpt>
      <trkpt lat="45.54242" lon="5.77074">
        <ele>380.8</ele>
        <time>2022-04-15T10:55:35Z</time>
      </trkpt>
      <trkpt lat="45.54242" lon="5.77086">
        <ele>380.7</ele>
        <time>2022-04-15T10:55:37Z</time>
      </trkpt>
      <trkpt lat="45.54241" lon="5.771">
        <ele>380.5</ele>
        <time>2022-04-15T10:55:39Z</time>
      </trkpt>
      <trkpt lat="45.54241" lon="5.77107">
        <ele>380.4</ele>
        <time>2022-04-15T10:55:40Z</time>
      </trkpt>
      <trkpt lat="45.54241" lon="5.77114">
        <ele>380.4</ele>
        <time>2022-04-15T10:55:41Z</time>
      </trkpt>
      <trkpt lat="45.5424" lon="5.7712">
        <ele>380.3</ele>
        <time>2022-04-15T10:55:42Z</time>
      </trkpt>
      <trkpt lat="45.5424" lon="5.77127">
        <ele>380.2</ele>
        <time>2022-04-15T10:55:43Z</time>
      </trkpt>
      <trkpt lat="45.5424" lon="5.77134">
        <ele>380.1</ele>
        <time>2022-04-15T10:55:44Z</time>
      </trkpt>
      <trkpt lat="45.54239" lon="5.77141">
        <ele>380</ele>
        <time>2022-04-15T10:55:45Z</time>
      </trkpt>
      <trkpt lat="45.54238" lon="5.77148">
        <ele>380</ele>
        <time>2022-04-15T10:55:46Z</time>
      </trkpt>
      <trkpt lat="45.54238" lon="5.77155">
        <ele>379.9</ele>
        <time>2022-04-15T10:55:47Z</time>
      </trkpt>
      <trkpt lat="45.54237" lon="5.77162">
        <ele>379.8</ele>
        <time>2022-04-15T10:55:48Z</time>
      </trkpt>
      <trkpt lat="45.54236" lon="5.7717">
        <ele>379.8</ele>
        <time>2022-04-15T10:55:49Z</time>
      </trkpt>
      <trkpt lat="45.54235" lon="5.77177">
        <ele>379.7</ele>
        <time>2022-04-15T10:55:50Z</time>
      </trkpt>
      <trkpt lat="45.54234" lon="5.77184">
        <ele>379.6</ele>
        <time>2022-04-15T10:55:51Z</time>
      </trkpt>
      <trkpt lat="45.54233" lon="5.77191">
        <ele>379.6</ele>
        <time>2022-04-15T10:55:52Z</time>
      </trkpt>
      <trkpt lat="45.54232" lon="5.77197">
        <ele>379.5</ele>
        <time>2022-04-15T10:55:53Z</time>
      </trkpt>
      <trkpt lat="45.5423" lon="5.77204">
        <ele>379.4</ele>
        <time>2022-04-15T10:55:54Z</time>
      </trkpt>
      <trkpt lat="45.54228" lon="5.77211">
        <ele>379.4</ele>
        <time>2022-04-15T10:55:55Z</time>
      </trkpt>
      <trkpt lat="45.54227" lon="5.77218">
        <ele>379.3</ele>
        <time>2022-04-15T10:55:56Z</time>
      </trkpt>
      <trkpt lat="45.54226" lon="5.77225">
        <ele>379.2</ele>
        <time>2022-04-15T10:55:57Z</time>
      </trkpt>
      <trkpt lat="45.54224" lon="5.77232">
        <ele>379.2</ele>
        <time>2022-04-15T10:55:58Z</time>
      </trkpt>
      <trkpt lat="45.54222" lon="5.77239">
        <ele>379.1</ele>
        <time>2022-04-15T10:55:59Z</time>
      </trkpt>
      <trkpt lat="45.54221" lon="5.77247">
        <ele>379</ele>
        <time>2022-04-15T10:56:00Z</time>
      </trkpt>
      <trkpt lat="45.54219" lon="5.77254">
        <ele>379</ele>
        <time>2022-04-15T10:56:01Z</time>
      </trkpt>
      <trkpt lat="45.54217" lon="5.77262">
        <ele>378.9</ele>
        <time>2022-04-15T10:56:02Z</time>
      </trkpt>
      <trkpt lat="45.54215" lon="5.77269">
        <ele>378.8</ele>
        <time>2022-04-15T10:56:03Z</time>
      </trkpt>
      <trkpt lat="45.54213" lon="5.77276">
        <ele>378.8</ele>
        <time>2022-04-15T10:56:04Z</time>
      </trkpt>
      <trkpt lat="45.5421" lon="5.77283">
        <ele>378.7</ele>
        <time>2022-04-15T10:56:05Z</time>
      </trkpt>
      <trkpt lat="45.54208" lon="5.7729">
        <ele>378.7</ele>
        <time>2022-04-15T10:56:06Z</time>
      </trkpt>
      <trkpt lat="45.54206" lon="5.77297">
        <ele>378.7</ele>
        <time>2022-04-15T10:56:07Z</time>
      </trkpt>
      <trkpt lat="45.54203" lon="5.77303">
        <ele>378.6</ele>
        <time>2022-04-15T10:56:08Z</time>
      </trkpt>
      <trkpt lat="45.54201" lon="5.7731">
        <ele>378.6</ele>
        <time>2022-04-15T10:56:09Z</time>
      </trkpt>
      <trkpt lat="45.54198" lon="5.77316">
        <ele>378.6</ele>
        <time>2022-04-15T10:56:10Z</time>
      </trkpt>
      <trkpt lat="45.54196" lon="5.77322">
        <ele>378.6</ele>
        <time>2022-04-15T10:56:11Z</time>
      </trkpt>
      <trkpt lat="45.54194" lon="5.77328">
        <ele>378.6</ele>
        <time>2022-04-15T10:56:12Z</time>
      </trkpt>
      <trkpt lat="45.54193" lon="5.77331">
        <ele>378.6</ele>
        <time>2022-04-15T10:56:13Z</time>
      </trkpt>
      <trkpt lat="45.54192" lon="5.77333">
        <ele>378.6</ele>
        <time>2022-04-15T10:56:14Z</time>
      </trkpt>
      <trkpt lat="45.54191" lon="5.77335">
        <ele>378.6</ele>
        <time>2022-04-15T10:56:15Z</time>
      </trkpt>
      <trkpt lat="45.54191" lon="5.77336">
        <ele>378.7</ele>
        <time>2022-04-15T10:56:16Z</time>
      </trkpt>
      <trkpt lat="45.5419" lon="5.77338">
        <ele>378.7</ele>
        <time>2022-04-15T10:56:17Z</time>
      </trkpt>
      <trkpt lat="45.5419" lon="5.7734">
        <ele>378.7</ele>
        <time>2022-04-15T10:56:18Z</time>
      </trkpt>
      <trkpt lat="45.54188" lon="5.77345">
        <ele>378.7</ele>
        <time>2022-04-15T10:56:19Z</time>
      </trkpt>
      <trkpt lat="45.54187" lon="5.77346">
        <ele>378.7</ele>
        <time>2022-04-15T10:56:20Z</time>
      </trkpt>
      <trkpt lat="45.54186" lon="5.77353">
        <ele>378.7</ele>
        <time>2022-04-15T10:56:22Z</time>
      </trkpt>
      <trkpt lat="45.54184" lon="5.77357">
        <ele>378.7</ele>
        <time>2022-04-15T10:56:23Z</time>
      </trkpt>
      <trkpt lat="45.54183" lon="5.77361">
        <ele>378.7</ele>
        <time>2022-04-15T10:56:24Z</time>
      </trkpt>
      <trkpt lat="45.54181" lon="5.77366">
        <ele>378.8</ele>
        <time>2022-04-15T10:56:25Z</time>
      </trkpt>
      <trkpt lat="45.54179" lon="5.77373">
        <ele>378.8</ele>
        <time>2022-04-15T10:56:26Z</time>
      </trkpt>
      <trkpt lat="45.54177" lon="5.77379">
        <ele>378.8</ele>
        <time>2022-04-15T10:56:28Z</time>
      </trkpt>
      <trkpt lat="45.54175" lon="5.77383">
        <ele>378.9</ele>
        <time>2022-04-15T10:56:29Z</time>
      </trkpt>
      <trkpt lat="45.54172" lon="5.77388">
        <ele>378.9</ele>
        <time>2022-04-15T10:56:30Z</time>
      </trkpt>
      <trkpt lat="45.54171" lon="5.77394">
        <ele>378.9</ele>
        <time>2022-04-15T10:56:31Z</time>
      </trkpt>
      <trkpt lat="45.54169" lon="5.77399">
        <ele>379</ele>
        <time>2022-04-15T10:56:33Z</time>
      </trkpt>
      <trkpt lat="45.54167" lon="5.77403">
        <ele>379</ele>
        <time>2022-04-15T10:56:34Z</time>
      </trkpt>
      <trkpt lat="45.54165" lon="5.77409">
        <ele>379</ele>
        <time>2022-04-15T10:56:35Z</time>
      </trkpt>
      <trkpt lat="45.54163" lon="5.77414">
        <ele>379.1</ele>
        <time>2022-04-15T10:56:36Z</time>
      </trkpt>
      <trkpt lat="45.5416" lon="5.7742">
        <ele>379.1</ele>
        <time>2022-04-15T10:56:37Z</time>
      </trkpt>
      <trkpt lat="45.54158" lon="5.77427">
        <ele>379.2</ele>
        <time>2022-04-15T10:56:39Z</time>
      </trkpt>
      <trkpt lat="45.54154" lon="5.77434">
        <ele>379.2</ele>
        <time>2022-04-15T10:56:40Z</time>
      </trkpt>
      <trkpt lat="45.54152" lon="5.77441">
        <ele>379.3</ele>
        <time>2022-04-15T10:56:42Z</time>
      </trkpt>
      <trkpt lat="45.54149" lon="5.77448">
        <ele>379.4</ele>
        <time>2022-04-15T10:56:44Z</time>
      </trkpt>
      <trkpt lat="45.54147" lon="5.77453">
        <ele>379.4</ele>
        <time>2022-04-15T10:56:45Z</time>
      </trkpt>
      <trkpt lat="45.54145" lon="5.77457">
        <ele>379.4</ele>
        <time>2022-04-15T10:56:46Z</time>
      </trkpt>
      <trkpt lat="45.54143" lon="5.77462">
        <ele>379.5</ele>
        <time>2022-04-15T10:56:47Z</time>
      </trkpt>
      <trkpt lat="45.54141" lon="5.77466">
        <ele>379.5</ele>
        <time>2022-04-15T10:56:48Z</time>
      </trkpt>
      <trkpt lat="45.54139" lon="5.77471">
        <ele>379.6</ele>
        <time>2022-04-15T10:56:49Z</time>
      </trkpt>
      <trkpt lat="45.54136" lon="5.7748">
        <ele>379.7</ele>
        <time>2022-04-15T10:56:51Z</time>
      </trkpt>
      <trkpt lat="45.54134" lon="5.77484">
        <ele>379.8</ele>
        <time>2022-04-15T10:56:52Z</time>
      </trkpt>
      <trkpt lat="45.54133" lon="5.77488">
        <ele>379.8</ele>
        <time>2022-04-15T10:56:53Z</time>
      </trkpt>
      <trkpt lat="45.54131" lon="5.77492">
        <ele>379.9</ele>
        <time>2022-04-15T10:56:54Z</time>
      </trkpt>
      <trkpt lat="45.54128" lon="5.775">
        <ele>380</ele>
        <time>2022-04-15T10:56:56Z</time>
      </trkpt>
      <trkpt lat="45.54127" lon="5.77505">
        <ele>380.1</ele>
        <time>2022-04-15T10:56:57Z</time>
      </trkpt>
      <trkpt lat="45.54125" lon="5.77509">
        <ele>380.1</ele>
        <time>2022-04-15T10:56:58Z</time>
      </trkpt>
      <trkpt lat="45.54123" lon="5.77514">
        <ele>380.1</ele>
        <time>2022-04-15T10:56:59Z</time>
      </trkpt>
      <trkpt lat="45.54121" lon="5.77517">
        <ele>380.2</ele>
        <time>2022-04-15T10:57:01Z</time>
      </trkpt>
      <trkpt lat="45.54119" lon="5.77522">
        <ele>380.2</ele>
        <time>2022-04-15T10:57:02Z</time>
      </trkpt>
      <trkpt lat="45.54117" lon="5.77526">
        <ele>380.2</ele>
        <time>2022-04-15T10:57:03Z</time>
      </trkpt>
      <trkpt lat="45.54115" lon="5.7753">
        <ele>380.3</ele>
        <time>2022-04-15T10:57:04Z</time>
      </trkpt>
      <trkpt lat="45.54113" lon="5.77537">
        <ele>380.3</ele>
        <time>2022-04-15T10:57:06Z</time>
      </trkpt>
      <trkpt lat="45.54109" lon="5.77544">
        <ele>380.4</ele>
        <time>2022-04-15T10:57:08Z</time>
      </trkpt>
      <trkpt lat="45.54108" lon="5.77548">
        <ele>380.4</ele>
        <time>2022-04-15T10:57:09Z</time>
      </trkpt>
      <trkpt lat="45.54106" lon="5.77553">
        <ele>380.4</ele>
        <time>2022-04-15T10:57:10Z</time>
      </trkpt>
      <trkpt lat="45.54105" lon="5.77558">
        <ele>380.4</ele>
        <time>2022-04-15T10:57:11Z</time>
      </trkpt>
      <trkpt lat="45.54103" lon="5.77563">
        <ele>380.4</ele>
        <time>2022-04-15T10:57:13Z</time>
      </trkpt>
      <trkpt lat="45.541" lon="5.77569">
        <ele>380.4</ele>
        <time>2022-04-15T10:57:15Z</time>
      </trkpt>
      <trkpt lat="45.54099" lon="5.77574">
        <ele>380.4</ele>
        <time>2022-04-15T10:57:16Z</time>
      </trkpt>
      <trkpt lat="45.54098" lon="5.77576">
        <ele>380.4</ele>
        <time>2022-04-15T10:57:17Z</time>
      </trkpt>
      <trkpt lat="45.54098" lon="5.7758">
        <ele>380.4</ele>
        <time>2022-04-15T10:57:18Z</time>
      </trkpt>
      <trkpt lat="45.54098" lon="5.77584">
        <ele>380.5</ele>
        <time>2022-04-15T10:57:19Z</time>
      </trkpt>
      <trkpt lat="45.54097" lon="5.77588">
        <ele>380.5</ele>
        <time>2022-04-15T10:57:20Z</time>
      </trkpt>
      <trkpt lat="45.54097" lon="5.77593">
        <ele>380.5</ele>
        <time>2022-04-15T10:57:21Z</time>
      </trkpt>
      <trkpt lat="45.54097" lon="5.77594">
        <ele>380.5</ele>
        <time>2022-04-15T10:57:22Z</time>
      </trkpt>
      <trkpt lat="45.54097" lon="5.77599">
        <ele>380.5</ele>
        <time>2022-04-15T10:57:24Z</time>
      </trkpt>
      <trkpt lat="45.54098" lon="5.77603">
        <ele>380.5</ele>
        <time>2022-04-15T10:57:25Z</time>
      </trkpt>
      <trkpt lat="45.54095" lon="5.77606">
        <ele>380.6</ele>
        <time>2022-04-15T10:57:27Z</time>
      </trkpt>
      <trkpt lat="45.54093" lon="5.77607">
        <ele>380.6</ele>
        <time>2022-04-15T10:57:28Z</time>
      </trkpt>
      <trkpt lat="45.54089" lon="5.7761">
        <ele>380.6</ele>
        <time>2022-04-15T10:57:30Z</time>
      </trkpt>
      <trkpt lat="45.54087" lon="5.77611">
        <ele>380.7</ele>
        <time>2022-04-15T10:57:31Z</time>
      </trkpt>
      <trkpt lat="45.54086" lon="5.77611">
        <ele>380.7</ele>
        <time>2022-04-15T10:57:32Z</time>
      </trkpt>
      <trkpt lat="45.54084" lon="5.77612">
        <ele>380.7</ele>
        <time>2022-04-15T10:57:33Z</time>
      </trkpt>
      <trkpt lat="45.54081" lon="5.77613">
        <ele>380.7</ele>
        <time>2022-04-15T10:57:35Z</time>
      </trkpt>
      <trkpt lat="45.5408" lon="5.77614">
        <ele>380.7</ele>
        <time>2022-04-15T10:57:36Z</time>
      </trkpt>
      <trkpt lat="45.54079" lon="5.77616">
        <ele>380.8</ele>
        <time>2022-04-15T10:57:37Z</time>
      </trkpt>
      <trkpt lat="45.54078" lon="5.7762">
        <ele>380.8</ele>
        <time>2022-04-15T10:57:38Z</time>
      </trkpt>
      <trkpt lat="45.54078" lon="5.77622">
        <ele>380.8</ele>
        <time>2022-04-15T10:57:39Z</time>
      </trkpt>
      <trkpt lat="45.54077" lon="5.77626">
        <ele>380.8</ele>
        <time>2022-04-15T10:57:40Z</time>
      </trkpt>
      <trkpt lat="45.54074" lon="5.77632">
        <ele>380.9</ele>
        <time>2022-04-15T10:57:42Z</time>
      </trkpt>
      <trkpt lat="45.54072" lon="5.77638">
        <ele>381</ele>
        <time>2022-04-15T10:57:43Z</time>
      </trkpt>
      <trkpt lat="45.5407" lon="5.77642">
        <ele>381</ele>
        <time>2022-04-15T10:57:44Z</time>
      </trkpt>
      <trkpt lat="45.54068" lon="5.77646">
        <ele>381.1</ele>
        <time>2022-04-15T10:57:46Z</time>
      </trkpt>
      <trkpt lat="45.54067" lon="5.77651">
        <ele>381.2</ele>
        <time>2022-04-15T10:57:47Z</time>
      </trkpt>
      <trkpt lat="45.54065" lon="5.77655">
        <ele>381.3</ele>
        <time>2022-04-15T10:57:48Z</time>
      </trkpt>
      <trkpt lat="45.54064" lon="5.77657">
        <ele>381.3</ele>
        <time>2022-04-15T10:57:49Z</time>
      </trkpt>
      <trkpt lat="45.54063" lon="5.77661">
        <ele>381.4</ele>
        <time>2022-04-15T10:57:50Z</time>
      </trkpt>
      <trkpt lat="45.54061" lon="5.77666">
        <ele>381.4</ele>
        <time>2022-04-15T10:57:51Z</time>
      </trkpt>
      <trkpt lat="45.54059" lon="5.77672">
        <ele>381.6</ele>
        <time>2022-04-15T10:57:52Z</time>
      </trkpt>
      <trkpt lat="45.54057" lon="5.77678">
        <ele>381.7</ele>
        <time>2022-04-15T10:57:53Z</time>
      </trkpt>
      <trkpt lat="45.54055" lon="5.77686">
        <ele>381.8</ele>
        <time>2022-04-15T10:57:55Z</time>
      </trkpt>
      <trkpt lat="45.54054" lon="5.77688">
        <ele>381.8</ele>
        <time>2022-04-15T10:57:56Z</time>
      </trkpt>
      <trkpt lat="45.54053" lon="5.77691">
        <ele>381.9</ele>
        <time>2022-04-15T10:57:57Z</time>
      </trkpt>
      <trkpt lat="45.5405" lon="5.77698">
        <ele>382</ele>
        <time>2022-04-15T10:57:58Z</time>
      </trkpt>
      <trkpt lat="45.54049" lon="5.77703">
        <ele>382.1</ele>
        <time>2022-04-15T10:58:00Z</time>
      </trkpt>
      <trkpt lat="45.54047" lon="5.7771">
        <ele>382.3</ele>
        <time>2022-04-15T10:58:01Z</time>
      </trkpt>
      <trkpt lat="45.54046" lon="5.77715">
        <ele>382.3</ele>
        <time>2022-04-15T10:58:03Z</time>
      </trkpt>
      <trkpt lat="45.54045" lon="5.77719">
        <ele>382.4</ele>
        <time>2022-04-15T10:58:04Z</time>
      </trkpt>
      <trkpt lat="45.54044" lon="5.77723">
        <ele>382.5</ele>
        <time>2022-04-15T10:58:05Z</time>
      </trkpt>
      <trkpt lat="45.54043" lon="5.77727">
        <ele>382.6</ele>
        <time>2022-04-15T10:58:06Z</time>
      </trkpt>
      <trkpt lat="45.54041" lon="5.77736">
        <ele>382.7</ele>
        <time>2022-04-15T10:58:08Z</time>
      </trkpt>
      <trkpt lat="45.54038" lon="5.77744">
        <ele>382.9</ele>
        <time>2022-04-15T10:58:10Z</time>
      </trkpt>
      <trkpt lat="45.54037" lon="5.77747">
        <ele>382.9</ele>
        <time>2022-04-15T10:58:11Z</time>
      </trkpt>
      <trkpt lat="45.54036" lon="5.7775">
        <ele>382.9</ele>
        <time>2022-04-15T10:58:12Z</time>
      </trkpt>
      <trkpt lat="45.54035" lon="5.77753">
        <ele>382.9</ele>
        <time>2022-04-15T10:58:14Z</time>
      </trkpt>
      <trkpt lat="45.54034" lon="5.77755">
        <ele>382.9</ele>
        <time>2022-04-15T10:58:15Z</time>
      </trkpt>
      <trkpt lat="45.54033" lon="5.77757">
        <ele>382.9</ele>
        <time>2022-04-15T10:58:16Z</time>
      </trkpt>
      <trkpt lat="45.54035" lon="5.77759">
        <ele>382.9</ele>
        <time>2022-04-15T10:58:17Z</time>
      </trkpt>
      <trkpt lat="45.54037" lon="5.77759">
        <ele>382.9</ele>
        <time>2022-04-15T10:58:18Z</time>
      </trkpt>
      <trkpt lat="45.5404" lon="5.77757">
        <ele>382.9</ele>
        <time>2022-04-15T10:58:20Z</time>
      </trkpt>
      <trkpt lat="45.54043" lon="5.77752">
        <ele>382.9</ele>
        <time>2022-04-15T10:58:22Z</time>
      </trkpt>
      <trkpt lat="45.54044" lon="5.77747">
        <ele>382.8</ele>
        <time>2022-04-15T10:58:23Z</time>
      </trkpt>
      <trkpt lat="45.54046" lon="5.77744">
        <ele>382.8</ele>
        <time>2022-04-15T10:58:25Z</time>
      </trkpt>
      <trkpt lat="45.54046" lon="5.77743">
        <ele>382.8</ele>
        <time>2022-04-15T10:58:26Z</time>
      </trkpt>
      <trkpt lat="45.54046" lon="5.77743">
        <ele>382.8</ele>
        <time>2022-04-15T10:58:27Z</time>
      </trkpt>
      <trkpt lat="45.54046" lon="5.77741">
        <ele>382.8</ele>
        <time>2022-04-15T10:58:29Z</time>
      </trkpt>
      <trkpt lat="45.54047" lon="5.77739">
        <ele>382.7</ele>
        <time>2022-04-15T10:58:30Z</time>
      </trkpt>
      <trkpt lat="45.54049" lon="5.77735">
        <ele>382.7</ele>
        <time>2022-04-15T10:58:31Z</time>
      </trkpt>
      <trkpt lat="45.54049" lon="5.77734">
        <ele>382.6</ele>
        <time>2022-04-15T10:58:32Z</time>
      </trkpt>
      <trkpt lat="45.54051" lon="5.7773">
        <ele>382.5</ele>
        <time>2022-04-15T10:58:33Z</time>
      </trkpt>
      <trkpt lat="45.54054" lon="5.77726">
        <ele>382.4</ele>
        <time>2022-04-15T10:58:34Z</time>
      </trkpt>
      <trkpt lat="45.54056" lon="5.77721">
        <ele>382.3</ele>
        <time>2022-04-15T10:58:35Z</time>
      </trkpt>
      <trkpt lat="45.54059" lon="5.77716">
        <ele>382.2</ele>
        <time>2022-04-15T10:58:36Z</time>
      </trkpt>
      <trkpt lat="45.54062" lon="5.77711">
        <ele>382.1</ele>
        <time>2022-04-15T10:58:37Z</time>
      </trkpt>
      <trkpt lat="45.54064" lon="5.777">
        <ele>381.9</ele>
        <time>2022-04-15T10:58:38Z</time>
      </trkpt>
      <trkpt lat="45.54065" lon="5.77693">
        <ele>381.8</ele>
        <time>2022-04-15T10:58:40Z</time>
      </trkpt>
      <trkpt lat="45.54064" lon="5.77682">
        <ele>381.6</ele>
        <time>2022-04-15T10:58:41Z</time>
      </trkpt>
      <trkpt lat="45.54066" lon="5.77674">
        <ele>381.5</ele>
        <time>2022-04-15T10:58:42Z</time>
      </trkpt>
      <trkpt lat="45.54068" lon="5.77668">
        <ele>381.3</ele>
        <time>2022-04-15T10:58:43Z</time>
      </trkpt>
      <trkpt lat="45.5407" lon="5.77662">
        <ele>381.2</ele>
        <time>2022-04-15T10:58:44Z</time>
      </trkpt>
      <trkpt lat="45.54071" lon="5.77655">
        <ele>381.1</ele>
        <time>2022-04-15T10:58:45Z</time>
      </trkpt>
      <trkpt lat="45.54073" lon="5.77649">
        <ele>381</ele>
        <time>2022-04-15T10:58:46Z</time>
      </trkpt>
      <trkpt lat="45.54075" lon="5.77644">
        <ele>381</ele>
        <time>2022-04-15T10:58:47Z</time>
      </trkpt>
      <trkpt lat="45.54077" lon="5.77638">
        <ele>380.9</ele>
        <time>2022-04-15T10:58:48Z</time>
      </trkpt>
      <trkpt lat="45.54081" lon="5.77629">
        <ele>380.8</ele>
        <time>2022-04-15T10:58:49Z</time>
      </trkpt>
      <trkpt lat="45.54086" lon="5.77625">
        <ele>380.7</ele>
        <time>2022-04-15T10:58:51Z</time>
      </trkpt>
      <trkpt lat="45.54087" lon="5.77621">
        <ele>380.7</ele>
        <time>2022-04-15T10:58:52Z</time>
      </trkpt>
      <trkpt lat="45.5409" lon="5.77615">
        <ele>380.6</ele>
        <time>2022-04-15T10:58:53Z</time>
      </trkpt>
      <trkpt lat="45.54096" lon="5.7761">
        <ele>380.6</ele>
        <time>2022-04-15T10:58:55Z</time>
      </trkpt>
      <trkpt lat="45.54099" lon="5.77608">
        <ele>380.4</ele>
        <time>2022-04-15T10:58:56Z</time>
      </trkpt>
      <trkpt lat="45.54103" lon="5.77605">
        <ele>380.4</ele>
        <time>2022-04-15T10:58:57Z</time>
      </trkpt>
      <trkpt lat="45.54106" lon="5.77604">
        <ele>380.3</ele>
        <time>2022-04-15T10:58:59Z</time>
      </trkpt>
      <trkpt lat="45.54108" lon="5.77603">
        <ele>380.2</ele>
        <time>2022-04-15T10:59:00Z</time>
      </trkpt>
      <trkpt lat="45.54111" lon="5.77601">
        <ele>380</ele>
        <time>2022-04-15T10:59:01Z</time>
      </trkpt>
      <trkpt lat="45.54114" lon="5.77599">
        <ele>379.8</ele>
        <time>2022-04-15T10:59:02Z</time>
      </trkpt>
      <trkpt lat="45.54119" lon="5.77597">
        <ele>379.6</ele>
        <time>2022-04-15T10:59:03Z</time>
      </trkpt>
      <trkpt lat="45.54125" lon="5.77596">
        <ele>379.3</ele>
        <time>2022-04-15T10:59:05Z</time>
      </trkpt>
      <trkpt lat="45.54129" lon="5.77596">
        <ele>379.1</ele>
        <time>2022-04-15T10:59:06Z</time>
      </trkpt>
      <trkpt lat="45.54134" lon="5.77597">
        <ele>378.8</ele>
        <time>2022-04-15T10:59:08Z</time>
      </trkpt>
      <trkpt lat="45.54137" lon="5.77597">
        <ele>378.7</ele>
        <time>2022-04-15T10:59:09Z</time>
      </trkpt>
      <trkpt lat="45.54141" lon="5.77596">
        <ele>378.6</ele>
        <time>2022-04-15T10:59:10Z</time>
      </trkpt>
      <trkpt lat="45.54142" lon="5.77596">
        <ele>378.5</ele>
        <time>2022-04-15T10:59:11Z</time>
      </trkpt>
      <trkpt lat="45.54146" lon="5.77598">
        <ele>378.4</ele>
        <time>2022-04-15T10:59:13Z</time>
      </trkpt>
      <trkpt lat="45.54147" lon="5.77599">
        <ele>378.3</ele>
        <time>2022-04-15T10:59:14Z</time>
      </trkpt>
      <trkpt lat="45.54148" lon="5.776">
        <ele>378.3</ele>
        <time>2022-04-15T10:59:15Z</time>
      </trkpt>
      <trkpt lat="45.5415" lon="5.77602">
        <ele>378.2</ele>
        <time>2022-04-15T10:59:17Z</time>
      </trkpt>
      <trkpt lat="45.54151" lon="5.77603">
        <ele>378.2</ele>
        <time>2022-04-15T10:59:18Z</time>
      </trkpt>
      <trkpt lat="45.54151" lon="5.77604">
        <ele>378.3</ele>
        <time>2022-04-15T10:59:19Z</time>
      </trkpt>
      <trkpt lat="45.54152" lon="5.77604">
        <ele>378.3</ele>
        <time>2022-04-15T10:59:20Z</time>
      </trkpt>
      <trkpt lat="45.54153" lon="5.77604">
        <ele>378.2</ele>
        <time>2022-04-15T10:59:21Z</time>
      </trkpt>
      <trkpt lat="45.54154" lon="5.77603">
        <ele>378.3</ele>
        <time>2022-04-15T10:59:22Z</time>
      </trkpt>
      <trkpt lat="45.54156" lon="5.776">
        <ele>378.2</ele>
        <time>2022-04-15T10:59:23Z</time>
      </trkpt>
      <trkpt lat="45.54157" lon="5.77599">
        <ele>378.2</ele>
        <time>2022-04-15T10:59:24Z</time>
      </trkpt>
      <trkpt lat="45.54157" lon="5.77598">
        <ele>378.2</ele>
        <time>2022-04-15T10:59:25Z</time>
      </trkpt>
      <trkpt lat="45.54157" lon="5.77596">
        <ele>378.2</ele>
        <time>2022-04-15T10:59:27Z</time>
      </trkpt>
      <trkpt lat="45.54157" lon="5.77594">
        <ele>378.2</ele>
        <time>2022-04-15T10:59:28Z</time>
      </trkpt>
      <trkpt lat="45.54157" lon="5.7759">
        <ele>378.2</ele>
        <time>2022-04-15T10:59:29Z</time>
      </trkpt>
      <trkpt lat="45.54157" lon="5.77588">
        <ele>378.2</ele>
        <time>2022-04-15T10:59:30Z</time>
      </trkpt>
      <trkpt lat="45.54157" lon="5.77585">
        <ele>378.2</ele>
        <time>2022-04-15T10:59:32Z</time>
      </trkpt>
      <trkpt lat="45.54157" lon="5.7758">
        <ele>378.2</ele>
        <time>2022-04-15T10:59:34Z</time>
      </trkpt>
      <trkpt lat="45.54157" lon="5.77576">
        <ele>378.2</ele>
        <time>2022-04-15T10:59:35Z</time>
      </trkpt>
      <trkpt lat="45.54157" lon="5.7757">
        <ele>378.2</ele>
        <time>2022-04-15T10:59:37Z</time>
      </trkpt>
      <trkpt lat="45.54158" lon="5.77566">
        <ele>378.2</ele>
        <time>2022-04-15T10:59:38Z</time>
      </trkpt>
      <trkpt lat="45.54158" lon="5.77562">
        <ele>378.2</ele>
        <time>2022-04-15T10:59:39Z</time>
      </trkpt>
      <trkpt lat="45.54159" lon="5.77558">
        <ele>378</ele>
        <time>2022-04-15T10:59:40Z</time>
      </trkpt>
      <trkpt lat="45.54161" lon="5.77549">
        <ele>378</ele>
        <time>2022-04-15T10:59:41Z</time>
      </trkpt>
      <trkpt lat="45.54162" lon="5.77543">
        <ele>377.9</ele>
        <time>2022-04-15T10:59:43Z</time>
      </trkpt>
      <trkpt lat="45.54164" lon="5.77537">
        <ele>377.9</ele>
        <time>2022-04-15T10:59:44Z</time>
      </trkpt>
      <trkpt lat="45.54166" lon="5.77525">
        <ele>377.9</ele>
        <time>2022-04-15T10:59:46Z</time>
      </trkpt>
      <trkpt lat="45.54168" lon="5.77516">
        <ele>378</ele>
        <time>2022-04-15T10:59:48Z</time>
      </trkpt>
      <trkpt lat="45.54171" lon="5.77511">
        <ele>378</ele>
        <time>2022-04-15T10:59:49Z</time>
      </trkpt>
      <trkpt lat="45.54178" lon="5.77512">
        <ele>378</ele>
        <time>2022-04-15T10:59:51Z</time>
      </trkpt>
      <trkpt lat="45.54184" lon="5.7751">
        <ele>377.9</ele>
        <time>2022-04-15T10:59:53Z</time>
      </trkpt>
      <trkpt lat="45.54188" lon="5.7751">
        <ele>377.9</ele>
        <time>2022-04-15T10:59:54Z</time>
      </trkpt>
      <trkpt lat="45.54191" lon="5.77511">
        <ele>377.9</ele>
        <time>2022-04-15T10:59:55Z</time>
      </trkpt>
      <trkpt lat="45.54196" lon="5.7751">
        <ele>377.9</ele>
        <time>2022-04-15T10:59:56Z</time>
      </trkpt>
      <trkpt lat="45.54201" lon="5.7751">
        <ele>377.8</ele>
        <time>2022-04-15T10:59:57Z</time>
      </trkpt>
      <trkpt lat="45.54204" lon="5.7751">
        <ele>377.8</ele>
        <time>2022-04-15T10:59:59Z</time>
      </trkpt>
      <trkpt lat="45.54208" lon="5.77509">
        <ele>377.8</ele>
        <time>2022-04-15T11:00:00Z</time>
      </trkpt>
      <trkpt lat="45.54212" lon="5.77509">
        <ele>377.9</ele>
        <time>2022-04-15T11:00:01Z</time>
      </trkpt>
      <trkpt lat="45.54215" lon="5.7751">
        <ele>377.9</ele>
        <time>2022-04-15T11:00:02Z</time>
      </trkpt>
      <trkpt lat="45.5422" lon="5.77511">
        <ele>377.9</ele>
        <time>2022-04-15T11:00:03Z</time>
      </trkpt>
      <trkpt lat="45.54224" lon="5.7751">
        <ele>377.9</ele>
        <time>2022-04-15T11:00:04Z</time>
      </trkpt>
      <trkpt lat="45.54228" lon="5.7751">
        <ele>378</ele>
        <time>2022-04-15T11:00:05Z</time>
      </trkpt>
      <trkpt lat="45.54232" lon="5.77511">
        <ele>378</ele>
        <time>2022-04-15T11:00:07Z</time>
      </trkpt>
      <trkpt lat="45.54236" lon="5.77511">
        <ele>378</ele>
        <time>2022-04-15T11:00:08Z</time>
      </trkpt>
      <trkpt lat="45.54242" lon="5.77512">
        <ele>378</ele>
        <time>2022-04-15T11:00:09Z</time>
      </trkpt>
      <trkpt lat="45.54245" lon="5.77512">
        <ele>378</ele>
        <time>2022-04-15T11:00:10Z</time>
      </trkpt>
      <trkpt lat="45.54249" lon="5.77512">
        <ele>378</ele>
        <time>2022-04-15T11:00:12Z</time>
      </trkpt>
      <trkpt lat="45.54254" lon="5.77512">
        <ele>378.1</ele>
        <time>2022-04-15T11:00:14Z</time>
      </trkpt>
      <trkpt lat="45.54258" lon="5.77512">
        <ele>378.1</ele>
        <time>2022-04-15T11:00:15Z</time>
      </trkpt>
      <trkpt lat="45.54264" lon="5.77513">
        <ele>378.1</ele>
        <time>2022-04-15T11:00:17Z</time>
      </trkpt>
      <trkpt lat="45.54267" lon="5.77514">
        <ele>378.1</ele>
        <time>2022-04-15T11:00:18Z</time>
      </trkpt>
      <trkpt lat="45.54271" lon="5.77515">
        <ele>378.1</ele>
        <time>2022-04-15T11:00:20Z</time>
      </trkpt>
      <trkpt lat="45.54275" lon="5.77516">
        <ele>378.1</ele>
        <time>2022-04-15T11:00:21Z</time>
      </trkpt>
      <trkpt lat="45.54276" lon="5.77517">
        <ele>378.1</ele>
        <time>2022-04-15T11:00:22Z</time>
      </trkpt>
      <trkpt lat="45.54279" lon="5.77518">
        <ele>378.1</ele>
        <time>2022-04-15T11:00:23Z</time>
      </trkpt>
      <trkpt lat="45.5428" lon="5.77517">
        <ele>378.1</ele>
        <time>2022-04-15T11:00:24Z</time>
      </trkpt>
      <trkpt lat="45.54281" lon="5.77516">
        <ele>378.1</ele>
        <time>2022-04-15T11:00:26Z</time>
      </trkpt>
      <trkpt lat="45.54281" lon="5.77516">
        <ele>378.1</ele>
        <time>2022-04-15T11:00:27Z</time>
      </trkpt>
      <trkpt lat="45.54281" lon="5.77516">
        <ele>378.1</ele>
        <time>2022-04-15T11:00:28Z</time>
      </trkpt>
      <trkpt lat="45.54281" lon="5.77515">
        <ele>378.1</ele>
        <time>2022-04-15T11:00:29Z</time>
      </trkpt>
      <trkpt lat="45.54281" lon="5.77515">
        <ele>378.1</ele>
        <time>2022-04-15T11:00:30Z</time>
      </trkpt>
      <trkpt lat="45.54281" lon="5.77515">
        <ele>378.1</ele>
        <time>2022-04-15T11:00:31Z</time>
      </trkpt>
      <trkpt lat="45.54281" lon="5.77515">
        <ele>378.1</ele>
        <time>2022-04-15T11:00:32Z</time>
      </trkpt>
      <trkpt lat="45.54281" lon="5.77515">
        <ele>378.1</ele>
        <time>2022-04-15T11:00:33Z</time>
      </trkpt>
      <trkpt lat="45.54281" lon="5.77515">
        <ele>378.1</ele>
        <time>2022-04-15T11:00:34Z</time>
      </trkpt>
      <trkpt lat="45.54281" lon="5.77515">
        <ele>378.1</ele>
        <time>2022-04-15T11:00:35Z</time>
      </trkpt>
      <trkpt lat="45.54281" lon="5.77514">
        <ele>378.1</ele>
        <time>2022-04-15T11:00:36Z</time>
      </trkpt>
      <trkpt lat="45.54281" lon="5.77514">
        <ele>378.1</ele>
        <time>2022-04-15T11:00:37Z</time>
      </trkpt>
      <trkpt lat="45.54281" lon="5.77514">
        <ele>378.1</ele>
        <time>2022-04-15T11:00:38Z</time>
      </trkpt>
      <trkpt lat="45.54281" lon="5.77514">
        <ele>378.1</ele>
        <time>2022-04-15T11:00:39Z</time>
      </trkpt>
      <trkpt lat="45.54281" lon="5.77514">
        <ele>378.1</ele>
        <time>2022-04-15T11:00:40Z</time>
      </trkpt>
      <trkpt lat="45.54281" lon="5.77514">
        <ele>378.1</ele>
        <time>2022-04-15T11:00:41Z</time>
      </trkpt>
      <trkpt lat="45.54281" lon="5.77514">
        <ele>378.1</ele>
        <time>2022-04-15T11:00:42Z</time>
      </trkpt>
      <trkpt lat="45.54281" lon="5.77513">
        <ele>378.1</ele>
        <time>2022-04-15T11:00:43Z</time>
      </trkpt>
      <trkpt lat="45.54281" lon="5.77513">
        <ele>378.1</ele>
        <time>2022-04-15T11:00:44Z</time>
      </trkpt>
      <trkpt lat="45.54281" lon="5.77513">
        <ele>378.1</ele>
        <time>2022-04-15T11:00:45Z</time>
      </trkpt>
      <trkpt lat="45.54281" lon="5.77513">
        <ele>378.1</ele>
        <time>2022-04-15T11:00:46Z</time>
      </trkpt>
      <trkpt lat="45.54281" lon="5.77513">
        <ele>378.1</ele>
        <time>2022-04-15T11:00:47Z</time>
      </trkpt>
      <trkpt lat="45.54281" lon="5.77513">
        <ele>378.1</ele>
        <time>2022-04-15T11:00:48Z</time>
      </trkpt>
      <trkpt lat="45.54281" lon="5.77513">
        <ele>378.1</ele>
        <time>2022-04-15T11:00:49Z</time>
      </trkpt>
      <trkpt lat="45.54281" lon="5.77512">
        <ele>378.1</ele>
        <time>2022-04-15T11:00:50Z</time>
      </trkpt>
      <trkpt lat="45.54281" lon="5.77512">
        <ele>378.1</ele>
        <time>2022-04-15T11:00:51Z</time>
      </trkpt>
      <trkpt lat="45.54281" lon="5.77512">
        <ele>378.1</ele>
        <time>2022-04-15T11:00:52Z</time>
      </trkpt>
      <trkpt lat="45.54281" lon="5.77512">
        <ele>378.1</ele>
        <time>2022-04-15T11:00:53Z</time>
      </trkpt>
      <trkpt lat="45.54281" lon="5.77512">
        <ele>378.2</ele>
        <time>2022-04-15T11:00:54Z</time>
      </trkpt>
      <trkpt lat="45.54281" lon="5.77512">
        <ele>378.2</ele>
        <time>2022-04-15T11:00:55Z</time>
      </trkpt>
      <trkpt lat="45.54281" lon="5.77512">
        <ele>378.2</ele>
        <time>2022-04-15T11:00:56Z</time>
      </trkpt>
      <trkpt lat="45.54281" lon="5.77511">
        <ele>378.2</ele>
        <time>2022-04-15T11:00:57Z</time>
      </trkpt>
      <trkpt lat="45.54281" lon="5.77511">
        <ele>378.2</ele>
        <time>2022-04-15T11:00:58Z</time>
      </trkpt>
      <trkpt lat="45.54281" lon="5.77511">
        <ele>378.2</ele>
        <time>2022-04-15T11:00:59Z</time>
      </trkpt>
      <trkpt lat="45.54281" lon="5.77511">
        <ele>378.2</ele>
        <time>2022-04-15T11:01:00Z</time>
      </trkpt>
      <trkpt lat="45.54281" lon="5.77511">
        <ele>378.2</ele>
        <time>2022-04-15T11:01:01Z</time>
      </trkpt>
      <trkpt lat="45.54281" lon="5.77511">
        <ele>378.2</ele>
        <time>2022-04-15T11:01:02Z</time>
      </trkpt>
      <trkpt lat="45.54281" lon="5.77511">
        <ele>378.2</ele>
        <time>2022-04-15T11:01:03Z</time>
      </trkpt>
      <trkpt lat="45.54281" lon="5.7751">
        <ele>378.2</ele>
        <time>2022-04-15T11:01:04Z</time>
      </trkpt>
      <trkpt lat="45.54282" lon="5.7751">
        <ele>378.2</ele>
        <time>2022-04-15T11:01:05Z</time>
      </trkpt>
      <trkpt lat="45.54282" lon="5.7751">
        <ele>378.2</ele>
        <time>2022-04-15T11:01:06Z</time>
      </trkpt>
      <trkpt lat="45.54282" lon="5.7751">
        <ele>378.2</ele>
        <time>2022-04-15T11:01:07Z</time>
      </trkpt>
      <trkpt lat="45.54282" lon="5.7751">
        <ele>378.2</ele>
        <time>2022-04-15T11:01:08Z</time>
      </trkpt>
      <trkpt lat="45.54282" lon="5.7751">
        <ele>378.2</ele>
        <time>2022-04-15T11:01:09Z</time>
      </trkpt>
      <trkpt lat="45.54282" lon="5.7751">
        <ele>378.2</ele>
        <time>2022-04-15T11:01:10Z</time>
      </trkpt>
      <trkpt lat="45.54282" lon="5.77509">
        <ele>378.2</ele>
        <time>2022-04-15T11:01:11Z</time>
      </trkpt>
      <trkpt lat="45.54282" lon="5.77509">
        <ele>378.2</ele>
        <time>2022-04-15T11:01:12Z</time>
      </trkpt>
      <trkpt lat="45.54282" lon="5.77509">
        <ele>378.2</ele>
        <time>2022-04-15T11:01:13Z</time>
      </trkpt>
      <trkpt lat="45.54282" lon="5.77509">
        <ele>378.2</ele>
        <time>2022-04-15T11:01:14Z</time>
      </trkpt>
      <trkpt lat="45.54282" lon="5.77509">
        <ele>378.2</ele>
        <time>2022-04-15T11:01:15Z</time>
      </trkpt>
      <trkpt lat="45.54282" lon="5.77509">
        <ele>378.2</ele>
        <time>2022-04-15T11:01:16Z</time>
      </trkpt>
      <trkpt lat="45.54282" lon="5.77509">
        <ele>378.2</ele>
        <time>2022-04-15T11:01:17Z</time>
      </trkpt>
      <trkpt lat="45.54282" lon="5.77508">
        <ele>378.2</ele>
        <time>2022-04-15T11:01:18Z</time>
      </trkpt>
      <trkpt lat="45.54282" lon="5.77508">
        <ele>378.2</ele>
        <time>2022-04-15T11:01:19Z</time>
      </trkpt>
      <trkpt lat="45.54282" lon="5.77508">
        <ele>378.2</ele>
        <time>2022-04-15T11:01:20Z</time>
      </trkpt>
      <trkpt lat="45.54282" lon="5.77508">
        <ele>378.2</ele>
        <time>2022-04-15T11:01:21Z</time>
      </trkpt>
      <trkpt lat="45.54282" lon="5.77508">
        <ele>378.2</ele>
        <time>2022-04-15T11:01:22Z</time>
      </trkpt>
      <trkpt lat="45.54282" lon="5.77508">
        <ele>378.2</ele>
        <time>2022-04-15T11:01:23Z</time>
      </trkpt>
      <trkpt lat="45.54282" lon="5.77508">
        <ele>378.2</ele>
        <time>2022-04-15T11:01:24Z</time>
      </trkpt>
      <trkpt lat="45.54282" lon="5.77507">
        <ele>378.2</ele>
        <time>2022-04-15T11:01:25Z</time>
      </trkpt>
      <trkpt lat="45.54282" lon="5.77507">
        <ele>378.2</ele>
        <time>2022-04-15T11:01:26Z</time>
      </trkpt>
      <trkpt lat="45.54282" lon="5.77507">
        <ele>378.2</ele>
        <time>2022-04-15T11:01:27Z</time>
      </trkpt>
      <trkpt lat="45.54282" lon="5.77507">
        <ele>378.2</ele>
        <time>2022-04-15T11:01:28Z</time>
      </trkpt>
      <trkpt lat="45.54282" lon="5.77507">
        <ele>378.2</ele>
        <time>2022-04-15T11:01:30Z</time>
      </trkpt>
      <trkpt lat="45.54282" lon="5.77507">
        <ele>378.2</ele>
        <time>2022-04-15T11:01:31Z</time>
      </trkpt>
      <trkpt lat="45.54282" lon="5.77507">
        <ele>378.2</ele>
        <time>2022-04-15T11:01:32Z</time>
      </trkpt>
      <trkpt lat="45.54279" lon="5.77505">
        <ele>378.1</ele>
        <time>2022-04-15T11:01:34Z</time>
      </trkpt>
      <trkpt lat="45.54277" lon="5.77505">
        <ele>378.1</ele>
        <time>2022-04-15T11:01:35Z</time>
      </trkpt>
      <trkpt lat="45.54274" lon="5.77504">
        <ele>378.1</ele>
        <time>2022-04-15T11:01:36Z</time>
      </trkpt>
      <trkpt lat="45.54263" lon="5.77506">
        <ele>378.1</ele>
        <time>2022-04-15T11:01:38Z</time>
      </trkpt>
      <trkpt lat="45.54257" lon="5.77507">
        <ele>378.1</ele>
        <time>2022-04-15T11:01:39Z</time>
      </trkpt>
      <trkpt lat="45.54249" lon="5.7751">
        <ele>378.1</ele>
        <time>2022-04-15T11:01:41Z</time>
      </trkpt>
      <trkpt lat="45.54245" lon="5.77509">
        <ele>378</ele>
        <time>2022-04-15T11:01:42Z</time>
      </trkpt>
      <trkpt lat="45.54239" lon="5.7751">
        <ele>378</ele>
        <time>2022-04-15T11:01:44Z</time>
      </trkpt>
      <trkpt lat="45.54234" lon="5.7751">
        <ele>378</ele>
        <time>2022-04-15T11:01:45Z</time>
      </trkpt>
      <trkpt lat="45.54229" lon="5.77511">
        <ele>378</ele>
        <time>2022-04-15T11:01:47Z</time>
      </trkpt>
      <trkpt lat="45.54225" lon="5.77511">
        <ele>377.9</ele>
        <time>2022-04-15T11:01:48Z</time>
      </trkpt>
      <trkpt lat="45.54218" lon="5.77511">
        <ele>377.9</ele>
        <time>2022-04-15T11:01:50Z</time>
      </trkpt>
      <trkpt lat="45.54214" lon="5.77511">
        <ele>377.9</ele>
        <time>2022-04-15T11:01:51Z</time>
      </trkpt>
      <trkpt lat="45.5421" lon="5.77512">
        <ele>377.9</ele>
        <time>2022-04-15T11:01:52Z</time>
      </trkpt>
      <trkpt lat="45.54202" lon="5.77512">
        <ele>377.8</ele>
        <time>2022-04-15T11:01:54Z</time>
      </trkpt>
      <trkpt lat="45.54196" lon="5.77511">
        <ele>377.9</ele>
        <time>2022-04-15T11:01:56Z</time>
      </trkpt>
      <trkpt lat="45.54192" lon="5.77512">
        <ele>377.9</ele>
        <time>2022-04-15T11:01:57Z</time>
      </trkpt>
      <trkpt lat="45.54185" lon="5.77512">
        <ele>377.9</ele>
        <time>2022-04-15T11:01:58Z</time>
      </trkpt>
      <trkpt lat="45.5418" lon="5.77513">
        <ele>377.9</ele>
        <time>2022-04-15T11:02:00Z</time>
      </trkpt>
      <trkpt lat="45.54173" lon="5.77515">
        <ele>378</ele>
        <time>2022-04-15T11:02:02Z</time>
      </trkpt>
      <trkpt lat="45.54169" lon="5.77516">
        <ele>378</ele>
        <time>2022-04-15T11:02:03Z</time>
      </trkpt>
      <trkpt lat="45.54162" lon="5.7752">
        <ele>378</ele>
        <time>2022-04-15T11:02:05Z</time>
      </trkpt>
      <trkpt lat="45.54159" lon="5.77522">
        <ele>378.1</ele>
        <time>2022-04-15T11:02:06Z</time>
      </trkpt>
      <trkpt lat="45.54156" lon="5.77525">
        <ele>378.2</ele>
        <time>2022-04-15T11:02:07Z</time>
      </trkpt>
      <trkpt lat="45.54152" lon="5.77531">
        <ele>378.4</ele>
        <time>2022-04-15T11:02:09Z</time>
      </trkpt>
      <trkpt lat="45.5415" lon="5.77534">
        <ele>378.5</ele>
        <time>2022-04-15T11:02:10Z</time>
      </trkpt>
      <trkpt lat="45.54148" lon="5.77539">
        <ele>378.6</ele>
        <time>2022-04-15T11:02:11Z</time>
      </trkpt>
      <trkpt lat="45.54145" lon="5.77543">
        <ele>378.7</ele>
        <time>2022-04-15T11:02:12Z</time>
      </trkpt>
      <trkpt lat="45.54143" lon="5.77546">
        <ele>378.8</ele>
        <time>2022-04-15T11:02:13Z</time>
      </trkpt>
      <trkpt lat="45.54141" lon="5.7755">
        <ele>378.9</ele>
        <time>2022-04-15T11:02:15Z</time>
      </trkpt>
      <trkpt lat="45.54138" lon="5.77554">
        <ele>379.1</ele>
        <time>2022-04-15T11:02:16Z</time>
      </trkpt>
      <trkpt lat="45.54135" lon="5.77556">
        <ele>379.2</ele>
        <time>2022-04-15T11:02:17Z</time>
      </trkpt>
      <trkpt lat="45.54133" lon="5.77559">
        <ele>379.3</ele>
        <time>2022-04-15T11:02:19Z</time>
      </trkpt>
      <trkpt lat="45.54132" lon="5.77563">
        <ele>379.4</ele>
        <time>2022-04-15T11:02:20Z</time>
      </trkpt>
      <trkpt lat="45.54131" lon="5.77568">
        <ele>379.5</ele>
        <time>2022-04-15T11:02:21Z</time>
      </trkpt>
      <trkpt lat="45.5413" lon="5.77572">
        <ele>379.6</ele>
        <time>2022-04-15T11:02:22Z</time>
      </trkpt>
      <trkpt lat="45.54128" lon="5.77578">
        <ele>379.8</ele>
        <time>2022-04-15T11:02:23Z</time>
      </trkpt>
      <trkpt lat="45.54126" lon="5.77584">
        <ele>379.9</ele>
        <time>2022-04-15T11:02:25Z</time>
      </trkpt>
      <trkpt lat="45.54123" lon="5.77588">
        <ele>380</ele>
        <time>2022-04-15T11:02:27Z</time>
      </trkpt>
      <trkpt lat="45.5412" lon="5.77592">
        <ele>380.1</ele>
        <time>2022-04-15T11:02:28Z</time>
      </trkpt>
      <trkpt lat="45.54118" lon="5.77598">
        <ele>380.2</ele>
        <time>2022-04-15T11:02:29Z</time>
      </trkpt>
      <trkpt lat="45.54115" lon="5.77602">
        <ele>380.3</ele>
        <time>2022-04-15T11:02:31Z</time>
      </trkpt>
      <trkpt lat="45.5411" lon="5.77605">
        <ele>380.3</ele>
        <time>2022-04-15T11:02:33Z</time>
      </trkpt>
      <trkpt lat="45.54105" lon="5.77606">
        <ele>380.3</ele>
        <time>2022-04-15T11:02:34Z</time>
      </trkpt>
      <trkpt lat="45.54099" lon="5.77608">
        <ele>380.5</ele>
        <time>2022-04-15T11:02:35Z</time>
      </trkpt>
      <trkpt lat="45.54097" lon="5.7761">
        <ele>380.6</ele>
        <time>2022-04-15T11:02:36Z</time>
      </trkpt>
      <trkpt lat="45.54095" lon="5.77613">
        <ele>380.6</ele>
        <time>2022-04-15T11:02:38Z</time>
      </trkpt>
      <trkpt lat="45.54092" lon="5.77614">
        <ele>380.6</ele>
        <time>2022-04-15T11:02:39Z</time>
      </trkpt>
      <trkpt lat="45.54089" lon="5.77617">
        <ele>380.7</ele>
        <time>2022-04-15T11:02:40Z</time>
      </trkpt>
      <trkpt lat="45.54086" lon="5.77622">
        <ele>380.7</ele>
        <time>2022-04-15T11:02:42Z</time>
      </trkpt>
      <trkpt lat="45.54084" lon="5.77625">
        <ele>380.7</ele>
        <time>2022-04-15T11:02:43Z</time>
      </trkpt>
      <trkpt lat="45.54082" lon="5.77632">
        <ele>380.8</ele>
        <time>2022-04-15T11:02:45Z</time>
      </trkpt>
      <trkpt lat="45.54079" lon="5.77638">
        <ele>380.9</ele>
        <time>2022-04-15T11:02:46Z</time>
      </trkpt>
      <trkpt lat="45.54077" lon="5.7764">
        <ele>380.9</ele>
        <time>2022-04-15T11:02:47Z</time>
      </trkpt>
      <trkpt lat="45.54076" lon="5.77646">
        <ele>381</ele>
        <time>2022-04-15T11:02:49Z</time>
      </trkpt>
      <trkpt lat="45.54073" lon="5.77653">
        <ele>381.1</ele>
        <time>2022-04-15T11:02:51Z</time>
      </trkpt>
      <trkpt lat="45.54071" lon="5.77659">
        <ele>381.2</ele>
        <time>2022-04-15T11:02:52Z</time>
      </trkpt>
      <trkpt lat="45.54069" lon="5.77666">
        <ele>381.3</ele>
        <time>2022-04-15T11:02:53Z</time>
      </trkpt>
      <trkpt lat="45.54068" lon="5.77669">
        <ele>381.4</ele>
        <time>2022-04-15T11:02:54Z</time>
      </trkpt>
      <trkpt lat="45.54066" lon="5.77673">
        <ele>381.5</ele>
        <time>2022-04-15T11:02:55Z</time>
      </trkpt>
      <trkpt lat="45.54064" lon="5.77677">
        <ele>381.5</ele>
        <time>2022-04-15T11:02:56Z</time>
      </trkpt>
      <trkpt lat="45.54062" lon="5.77684">
        <ele>381.7</ele>
        <time>2022-04-15T11:02:58Z</time>
      </trkpt>
      <trkpt lat="45.54061" lon="5.77689">
        <ele>381.8</ele>
        <time>2022-04-15T11:02:59Z</time>
      </trkpt>
      <trkpt lat="45.54058" lon="5.77695">
        <ele>381.9</ele>
        <time>2022-04-15T11:03:00Z</time>
      </trkpt>
      <trkpt lat="45.54057" lon="5.77699">
        <ele>382</ele>
        <time>2022-04-15T11:03:02Z</time>
      </trkpt>
      <trkpt lat="45.54055" lon="5.77702">
        <ele>382</ele>
        <time>2022-04-15T11:03:03Z</time>
      </trkpt>
      <trkpt lat="45.54055" lon="5.77707">
        <ele>382.1</ele>
        <time>2022-04-15T11:03:04Z</time>
      </trkpt>
      <trkpt lat="45.54054" lon="5.77711">
        <ele>382.2</ele>
        <time>2022-04-15T11:03:05Z</time>
      </trkpt>
      <trkpt lat="45.54052" lon="5.77714">
        <ele>382.3</ele>
        <time>2022-04-15T11:03:06Z</time>
      </trkpt>
      <trkpt lat="45.5405" lon="5.77721">
        <ele>382.4</ele>
        <time>2022-04-15T11:03:08Z</time>
      </trkpt>
      <trkpt lat="45.54047" lon="5.77729">
        <ele>382.6</ele>
        <time>2022-04-15T11:03:09Z</time>
      </trkpt>
      <trkpt lat="45.54046" lon="5.77733">
        <ele>382.6</ele>
        <time>2022-04-15T11:03:11Z</time>
      </trkpt>
      <trkpt lat="45.54045" lon="5.77737">
        <ele>382.7</ele>
        <time>2022-04-15T11:03:12Z</time>
      </trkpt>
      <trkpt lat="45.54044" lon="5.77741">
        <ele>382.8</ele>
        <time>2022-04-15T11:03:13Z</time>
      </trkpt>
      <trkpt lat="45.54042" lon="5.77748">
        <ele>382.8</ele>
        <time>2022-04-15T11:03:15Z</time>
      </trkpt>
      <trkpt lat="45.54045" lon="5.77752">
        <ele>382.7</ele>
        <time>2022-04-15T11:03:17Z</time>
      </trkpt>
      <trkpt lat="45.54046" lon="5.77751">
        <ele>382.7</ele>
        <time>2022-04-15T11:03:19Z</time>
      </trkpt>
      <trkpt lat="45.54048" lon="5.77752">
        <ele>382.7</ele>
        <time>2022-04-15T11:03:20Z</time>
      </trkpt>
      <trkpt lat="45.54053" lon="5.77754">
        <ele>382.5</ele>
        <time>2022-04-15T11:03:22Z</time>
      </trkpt>
      <trkpt lat="45.54056" lon="5.77754">
        <ele>382.5</ele>
        <time>2022-04-15T11:03:23Z</time>
      </trkpt>
      <trkpt lat="45.5406" lon="5.77755">
        <ele>382.4</ele>
        <time>2022-04-15T11:03:24Z</time>
      </trkpt>
      <trkpt lat="45.54062" lon="5.77756">
        <ele>382.3</ele>
        <time>2022-04-15T11:03:25Z</time>
      </trkpt>
      <trkpt lat="45.54065" lon="5.77756">
        <ele>382.2</ele>
        <time>2022-04-15T11:03:26Z</time>
      </trkpt>
      <trkpt lat="45.54069" lon="5.77757">
        <ele>382.1</ele>
        <time>2022-04-15T11:03:28Z</time>
      </trkpt>
      <trkpt lat="45.54073" lon="5.77758">
        <ele>382</ele>
        <time>2022-04-15T11:03:29Z</time>
      </trkpt>
      <trkpt lat="45.54076" lon="5.77757">
        <ele>382</ele>
        <time>2022-04-15T11:03:30Z</time>
      </trkpt>
      <trkpt lat="45.5408" lon="5.77758">
        <ele>381.9</ele>
        <time>2022-04-15T11:03:31Z</time>
      </trkpt>
      <trkpt lat="45.54084" lon="5.77759">
        <ele>381.8</ele>
        <time>2022-04-15T11:03:32Z</time>
      </trkpt>
      <trkpt lat="45.54087" lon="5.77759">
        <ele>381.7</ele>
        <time>2022-04-15T11:03:34Z</time>
      </trkpt>
      <trkpt lat="45.54091" lon="5.77759">
        <ele>381.6</ele>
        <time>2022-04-15T11:03:35Z</time>
      </trkpt>
      <trkpt lat="45.54095" lon="5.7776">
        <ele>381.5</ele>
        <time>2022-04-15T11:03:36Z</time>
      </trkpt>
      <trkpt lat="45.54096" lon="5.7776">
        <ele>381.5</ele>
        <time>2022-04-15T11:03:37Z</time>
      </trkpt>
      <trkpt lat="45.541" lon="5.77761">
        <ele>381.4</ele>
        <time>2022-04-15T11:03:38Z</time>
      </trkpt>
      <trkpt lat="45.54104" lon="5.77762">
        <ele>381.3</ele>
        <time>2022-04-15T11:03:39Z</time>
      </trkpt>
      <trkpt lat="45.54108" lon="5.77762">
        <ele>381.2</ele>
        <time>2022-04-15T11:03:41Z</time>
      </trkpt>
      <trkpt lat="45.54109" lon="5.77762">
        <ele>381.2</ele>
        <time>2022-04-15T11:03:42Z</time>
      </trkpt>
      <trkpt lat="45.54114" lon="5.77763">
        <ele>381.3</ele>
        <time>2022-04-15T11:03:43Z</time>
      </trkpt>
      <trkpt lat="45.54116" lon="5.77763">
        <ele>381.3</ele>
        <time>2022-04-15T11:03:44Z</time>
      </trkpt>
      <trkpt lat="45.54117" lon="5.77763">
        <ele>381.3</ele>
        <time>2022-04-15T11:03:46Z</time>
      </trkpt>
      <trkpt lat="45.54117" lon="5.77763">
        <ele>381.4</ele>
        <time>2022-04-15T11:03:47Z</time>
      </trkpt>
      <trkpt lat="45.54116" lon="5.77763">
        <ele>381.4</ele>
        <time>2022-04-15T11:03:48Z</time>
      </trkpt>
      <trkpt lat="45.54115" lon="5.77762">
        <ele>381.4</ele>
        <time>2022-04-15T11:03:49Z</time>
      </trkpt>
      <trkpt lat="45.54114" lon="5.77762">
        <ele>381.4</ele>
        <time>2022-04-15T11:03:50Z</time>
      </trkpt>
      <trkpt lat="45.54114" lon="5.77762">
        <ele>381.4</ele>
        <time>2022-04-15T11:03:51Z</time>
      </trkpt>
      <trkpt lat="45.54113" lon="5.77761">
        <ele>381.4</ele>
        <time>2022-04-15T11:03:52Z</time>
      </trkpt>
      <trkpt lat="45.54112" lon="5.77761">
        <ele>381.5</ele>
        <time>2022-04-15T11:03:53Z</time>
      </trkpt>
      <trkpt lat="45.54111" lon="5.77761">
        <ele>381.5</ele>
        <time>2022-04-15T11:03:55Z</time>
      </trkpt>
      <trkpt lat="45.54111" lon="5.7776">
        <ele>381.5</ele>
        <time>2022-04-15T11:03:56Z</time>
      </trkpt>
      <trkpt lat="45.5411" lon="5.7776">
        <ele>381.5</ele>
        <time>2022-04-15T11:03:57Z</time>
      </trkpt>
      <trkpt lat="45.54109" lon="5.77759">
        <ele>381.5</ele>
        <time>2022-04-15T11:03:58Z</time>
      </trkpt>
      <trkpt lat="45.54106" lon="5.77759">
        <ele>381.6</ele>
        <time>2022-04-15T11:03:59Z</time>
      </trkpt>
      <trkpt lat="45.54102" lon="5.7776">
        <ele>381.6</ele>
        <time>2022-04-15T11:04:01Z</time>
      </trkpt>
      <trkpt lat="45.54101" lon="5.7776">
        <ele>381.7</ele>
        <time>2022-04-15T11:04:02Z</time>
      </trkpt>
      <trkpt lat="45.54099" lon="5.77759">
        <ele>381.7</ele>
        <time>2022-04-15T11:04:03Z</time>
      </trkpt>
      <trkpt lat="45.54095" lon="5.7776">
        <ele>381.8</ele>
        <time>2022-04-15T11:04:05Z</time>
      </trkpt>
      <trkpt lat="45.54093" lon="5.7776">
        <ele>381.8</ele>
        <time>2022-04-15T11:04:06Z</time>
      </trkpt>
      <trkpt lat="45.54088" lon="5.77759">
        <ele>381.9</ele>
        <time>2022-04-15T11:04:08Z</time>
      </trkpt>
      <trkpt lat="45.54083" lon="5.77758">
        <ele>382</ele>
        <time>2022-04-15T11:04:10Z</time>
      </trkpt>
      <trkpt lat="45.54077" lon="5.77756">
        <ele>382.1</ele>
        <time>2022-04-15T11:04:11Z</time>
      </trkpt>
      <trkpt lat="45.54074" lon="5.77756">
        <ele>382.2</ele>
        <time>2022-04-15T11:04:13Z</time>
      </trkpt>
      <trkpt lat="45.54071" lon="5.77756">
        <ele>382.2</ele>
        <time>2022-04-15T11:04:14Z</time>
      </trkpt>
      <trkpt lat="45.54067" lon="5.77756">
        <ele>382.3</ele>
        <time>2022-04-15T11:04:15Z</time>
      </trkpt>
      <trkpt lat="45.54064" lon="5.77755">
        <ele>382.4</ele>
        <time>2022-04-15T11:04:16Z</time>
      </trkpt>
      <trkpt lat="45.54063" lon="5.77754">
        <ele>382.4</ele>
        <time>2022-04-15T11:04:17Z</time>
      </trkpt>
      <trkpt lat="45.5406" lon="5.77754">
        <ele>382.4</ele>
        <time>2022-04-15T11:04:18Z</time>
      </trkpt>
      <trkpt lat="45.54057" lon="5.77753">
        <ele>382.5</ele>
        <time>2022-04-15T11:04:19Z</time>
      </trkpt>
      <trkpt lat="45.54053" lon="5.77751">
        <ele>382.6</ele>
        <time>2022-04-15T11:04:20Z</time>
      </trkpt>
      <trkpt lat="45.54052" lon="5.77751">
        <ele>382.6</ele>
        <time>2022-04-15T11:04:21Z</time>
      </trkpt>
      <trkpt lat="45.54049" lon="5.7775">
        <ele>382.7</ele>
        <time>2022-04-15T11:04:22Z</time>
      </trkpt>
      <trkpt lat="45.54045" lon="5.77751">
        <ele>382.7</ele>
        <time>2022-04-15T11:04:24Z</time>
      </trkpt>
      <trkpt lat="45.54042" lon="5.77754">
        <ele>383</ele>
        <time>2022-04-15T11:04:25Z</time>
      </trkpt>
      <trkpt lat="45.5404" lon="5.77757">
        <ele>383.1</ele>
        <time>2022-04-15T11:04:26Z</time>
      </trkpt>
      <trkpt lat="45.54038" lon="5.77761">
        <ele>383.1</ele>
        <time>2022-04-15T11:04:28Z</time>
      </trkpt>
      <trkpt lat="45.54036" lon="5.77765">
        <ele>383.2</ele>
        <time>2022-04-15T11:04:29Z</time>
      </trkpt>
      <trkpt lat="45.54035" lon="5.77769">
        <ele>383.3</ele>
        <time>2022-04-15T11:04:30Z</time>
      </trkpt>
      <trkpt lat="45.54033" lon="5.77773">
        <ele>383.4</ele>
        <time>2022-04-15T11:04:31Z</time>
      </trkpt>
      <trkpt lat="45.54029" lon="5.77779">
        <ele>383.3</ele>
        <time>2022-04-15T11:04:33Z</time>
      </trkpt>
      <trkpt lat="45.54027" lon="5.77782">
        <ele>383.3</ele>
        <time>2022-04-15T11:04:34Z</time>
      </trkpt>
      <trkpt lat="45.54025" lon="5.77786">
        <ele>383.3</ele>
        <time>2022-04-15T11:04:35Z</time>
      </trkpt>
      <trkpt lat="45.54022" lon="5.77791">
        <ele>383.3</ele>
        <time>2022-04-15T11:04:36Z</time>
      </trkpt>
      <trkpt lat="45.54019" lon="5.77797">
        <ele>383.2</ele>
        <time>2022-04-15T11:04:37Z</time>
      </trkpt>
      <trkpt lat="45.54016" lon="5.77804">
        <ele>383.2</ele>
        <time>2022-04-15T11:04:39Z</time>
      </trkpt>
      <trkpt lat="45.54013" lon="5.77811">
        <ele>383.2</ele>
        <time>2022-04-15T11:04:41Z</time>
      </trkpt>
      <trkpt lat="45.54011" lon="5.77816">
        <ele>383.2</ele>
        <time>2022-04-15T11:04:42Z</time>
      </trkpt>
      <trkpt lat="45.5401" lon="5.7782">
        <ele>383.2</ele>
        <time>2022-04-15T11:04:43Z</time>
      </trkpt>
      <trkpt lat="45.54008" lon="5.77825">
        <ele>383.2</ele>
        <time>2022-04-15T11:04:44Z</time>
      </trkpt>
      <trkpt lat="45.54006" lon="5.7783">
        <ele>383.2</ele>
        <time>2022-04-15T11:04:46Z</time>
      </trkpt>
      <trkpt lat="45.54004" lon="5.77834">
        <ele>383.1</ele>
        <time>2022-04-15T11:04:47Z</time>
      </trkpt>
      <trkpt lat="45.54003" lon="5.77838">
        <ele>383.1</ele>
        <time>2022-04-15T11:04:48Z</time>
      </trkpt>
      <trkpt lat="45.54002" lon="5.7784">
        <ele>383.1</ele>
        <time>2022-04-15T11:04:49Z</time>
      </trkpt>
      <trkpt lat="45.54" lon="5.77843">
        <ele>383.1</ele>
        <time>2022-04-15T11:04:51Z</time>
      </trkpt>
      <trkpt lat="45.53998" lon="5.77847">
        <ele>383.1</ele>
        <time>2022-04-15T11:04:52Z</time>
      </trkpt>
      <trkpt lat="45.53997" lon="5.77851">
        <ele>383</ele>
        <time>2022-04-15T11:04:53Z</time>
      </trkpt>
      <trkpt lat="45.53995" lon="5.77858">
        <ele>383</ele>
        <time>2022-04-15T11:04:55Z</time>
      </trkpt>
      <trkpt lat="45.53994" lon="5.77862">
        <ele>383</ele>
        <time>2022-04-15T11:04:56Z</time>
      </trkpt>
      <trkpt lat="45.53992" lon="5.77867">
        <ele>383</ele>
        <time>2022-04-15T11:04:57Z</time>
      </trkpt>
      <trkpt lat="45.53991" lon="5.7787">
        <ele>383</ele>
        <time>2022-04-15T11:04:58Z</time>
      </trkpt>
      <trkpt lat="45.53989" lon="5.77877">
        <ele>383</ele>
        <time>2022-04-15T11:05:00Z</time>
      </trkpt>
      <trkpt lat="45.53988" lon="5.77879">
        <ele>383</ele>
        <time>2022-04-15T11:05:01Z</time>
      </trkpt>
      <trkpt lat="45.53988" lon="5.77881">
        <ele>383</ele>
        <time>2022-04-15T11:05:02Z</time>
      </trkpt>
      <trkpt lat="45.53986" lon="5.77885">
        <ele>383</ele>
        <time>2022-04-15T11:05:03Z</time>
      </trkpt>
      <trkpt lat="45.53985" lon="5.7789">
        <ele>383</ele>
        <time>2022-04-15T11:05:04Z</time>
      </trkpt>
      <trkpt lat="45.53984" lon="5.77895">
        <ele>383</ele>
        <time>2022-04-15T11:05:05Z</time>
      </trkpt>
      <trkpt lat="45.53983" lon="5.77897">
        <ele>383</ele>
        <time>2022-04-15T11:05:06Z</time>
      </trkpt>
      <trkpt lat="45.53982" lon="5.77903">
        <ele>382.8</ele>
        <time>2022-04-15T11:05:08Z</time>
      </trkpt>
      <trkpt lat="45.53981" lon="5.77905">
        <ele>382.8</ele>
        <time>2022-04-15T11:05:09Z</time>
      </trkpt>
      <trkpt lat="45.53981" lon="5.77908">
        <ele>382.7</ele>
        <time>2022-04-15T11:05:10Z</time>
      </trkpt>
      <trkpt lat="45.5398" lon="5.7791">
        <ele>382.6</ele>
        <time>2022-04-15T11:05:12Z</time>
      </trkpt>
      <trkpt lat="45.53979" lon="5.77912">
        <ele>382.5</ele>
        <time>2022-04-15T11:05:13Z</time>
      </trkpt>
      <trkpt lat="45.53979" lon="5.77914">
        <ele>382.5</ele>
        <time>2022-04-15T11:05:14Z</time>
      </trkpt>
      <trkpt lat="45.53979" lon="5.77915">
        <ele>382.5</ele>
        <time>2022-04-15T11:05:15Z</time>
      </trkpt>
      <trkpt lat="45.53979" lon="5.77917">
        <ele>382.4</ele>
        <time>2022-04-15T11:05:16Z</time>
      </trkpt>
      <trkpt lat="45.53979" lon="5.77919">
        <ele>382.3</ele>
        <time>2022-04-15T11:05:17Z</time>
      </trkpt>
      <trkpt lat="45.53979" lon="5.77921">
        <ele>382.3</ele>
        <time>2022-04-15T11:05:18Z</time>
      </trkpt>
      <trkpt lat="45.53978" lon="5.77923">
        <ele>382.2</ele>
        <time>2022-04-15T11:05:19Z</time>
      </trkpt>
      <trkpt lat="45.53978" lon="5.77926">
        <ele>382.1</ele>
        <time>2022-04-15T11:05:21Z</time>
      </trkpt>
      <trkpt lat="45.53977" lon="5.77928">
        <ele>382</ele>
        <time>2022-04-15T11:05:23Z</time>
      </trkpt>
      <trkpt lat="45.53977" lon="5.77929">
        <ele>382</ele>
        <time>2022-04-15T11:05:24Z</time>
      </trkpt>
      <trkpt lat="45.53977" lon="5.77931">
        <ele>381.9</ele>
        <time>2022-04-15T11:05:25Z</time>
      </trkpt>
      <trkpt lat="45.53977" lon="5.77933">
        <ele>381.9</ele>
        <time>2022-04-15T11:05:26Z</time>
      </trkpt>
      <trkpt lat="45.53977" lon="5.77935">
        <ele>381.8</ele>
        <time>2022-04-15T11:05:27Z</time>
      </trkpt>
      <trkpt lat="45.53977" lon="5.77938">
        <ele>381.8</ele>
        <time>2022-04-15T11:05:28Z</time>
      </trkpt>
      <trkpt lat="45.53976" lon="5.7794">
        <ele>381.8</ele>
        <time>2022-04-15T11:05:30Z</time>
      </trkpt>
      <trkpt lat="45.53976" lon="5.77943">
        <ele>381.7</ele>
        <time>2022-04-15T11:05:31Z</time>
      </trkpt>
      <trkpt lat="45.53976" lon="5.77945">
        <ele>381.7</ele>
        <time>2022-04-15T11:05:32Z</time>
      </trkpt>
      <trkpt lat="45.53977" lon="5.77951">
        <ele>381.7</ele>
        <time>2022-04-15T11:05:33Z</time>
      </trkpt>
      <trkpt lat="45.53978" lon="5.77954">
        <ele>381.6</ele>
        <time>2022-04-15T11:05:34Z</time>
      </trkpt>
      <trkpt lat="45.53979" lon="5.77959">
        <ele>381.6</ele>
        <time>2022-04-15T11:05:36Z</time>
      </trkpt>
      <trkpt lat="45.53982" lon="5.77964">
        <ele>381.5</ele>
        <time>2022-04-15T11:05:37Z</time>
      </trkpt>
      <trkpt lat="45.53985" lon="5.77966">
        <ele>381.4</ele>
        <time>2022-04-15T11:05:39Z</time>
      </trkpt>
      <trkpt lat="45.53988" lon="5.77969">
        <ele>381.3</ele>
        <time>2022-04-15T11:05:40Z</time>
      </trkpt>
      <trkpt lat="45.5399" lon="5.7797">
        <ele>381.2</ele>
        <time>2022-04-15T11:05:41Z</time>
      </trkpt>
      <trkpt lat="45.53994" lon="5.77971">
        <ele>381.1</ele>
        <time>2022-04-15T11:05:42Z</time>
      </trkpt>
      <trkpt lat="45.53996" lon="5.77971">
        <ele>381.1</ele>
        <time>2022-04-15T11:05:43Z</time>
      </trkpt>
      <trkpt lat="45.54" lon="5.77972">
        <ele>381</ele>
        <time>2022-04-15T11:05:44Z</time>
      </trkpt>
      <trkpt lat="45.54001" lon="5.77972">
        <ele>380.9</ele>
        <time>2022-04-15T11:05:45Z</time>
      </trkpt>
      <trkpt lat="45.54004" lon="5.77973">
        <ele>380.8</ele>
        <time>2022-04-15T11:05:46Z</time>
      </trkpt>
      <trkpt lat="45.5401" lon="5.77974">
        <ele>380.7</ele>
        <time>2022-04-15T11:05:48Z</time>
      </trkpt>
      <trkpt lat="45.54013" lon="5.77975">
        <ele>380.6</ele>
        <time>2022-04-15T11:05:49Z</time>
      </trkpt>
      <trkpt lat="45.54017" lon="5.77976">
        <ele>380.5</ele>
        <time>2022-04-15T11:05:50Z</time>
      </trkpt>
      <trkpt lat="45.54022" lon="5.77977">
        <ele>380.4</ele>
        <time>2022-04-15T11:05:51Z</time>
      </trkpt>
      <trkpt lat="45.54027" lon="5.77978">
        <ele>380.3</ele>
        <time>2022-04-15T11:05:53Z</time>
      </trkpt>
      <trkpt lat="45.54028" lon="5.77978">
        <ele>380.3</ele>
        <time>2022-04-15T11:05:54Z</time>
      </trkpt>
      <trkpt lat="45.54032" lon="5.77979">
        <ele>380.2</ele>
        <time>2022-04-15T11:05:55Z</time>
      </trkpt>
      <trkpt lat="45.54035" lon="5.77979">
        <ele>380.1</ele>
        <time>2022-04-15T11:05:56Z</time>
      </trkpt>
      <trkpt lat="45.54039" lon="5.7798">
        <ele>380</ele>
        <time>2022-04-15T11:05:57Z</time>
      </trkpt>
      <trkpt lat="45.54042" lon="5.77981">
        <ele>379.9</ele>
        <time>2022-04-15T11:05:58Z</time>
      </trkpt>
      <trkpt lat="45.54046" lon="5.77982">
        <ele>379.8</ele>
        <time>2022-04-15T11:06:00Z</time>
      </trkpt>
      <trkpt lat="45.54049" lon="5.77982">
        <ele>379.7</ele>
        <time>2022-04-15T11:06:01Z</time>
      </trkpt>
      <trkpt lat="45.54052" lon="5.77983">
        <ele>379.6</ele>
        <time>2022-04-15T11:06:02Z</time>
      </trkpt>
      <trkpt lat="45.54057" lon="5.77985">
        <ele>379.5</ele>
        <time>2022-04-15T11:06:03Z</time>
      </trkpt>
      <trkpt lat="45.5406" lon="5.77986">
        <ele>379.4</ele>
        <time>2022-04-15T11:06:04Z</time>
      </trkpt>
      <trkpt lat="45.54063" lon="5.77987">
        <ele>379.3</ele>
        <time>2022-04-15T11:06:05Z</time>
      </trkpt>
      <trkpt lat="45.54067" lon="5.77989">
        <ele>379.2</ele>
        <time>2022-04-15T11:06:06Z</time>
      </trkpt>
      <trkpt lat="45.54073" lon="5.77991">
        <ele>379</ele>
        <time>2022-04-15T11:06:08Z</time>
      </trkpt>
      <trkpt lat="45.54077" lon="5.77992">
        <ele>378.9</ele>
        <time>2022-04-15T11:06:10Z</time>
      </trkpt>
      <trkpt lat="45.54082" lon="5.77994">
        <ele>378.7</ele>
        <time>2022-04-15T11:06:11Z</time>
      </trkpt>
      <trkpt lat="45.54087" lon="5.77995">
        <ele>378.6</ele>
        <time>2022-04-15T11:06:12Z</time>
      </trkpt>
      <trkpt lat="45.54091" lon="5.77996">
        <ele>378.5</ele>
        <time>2022-04-15T11:06:13Z</time>
      </trkpt>
      <trkpt lat="45.54095" lon="5.77998">
        <ele>378.3</ele>
        <time>2022-04-15T11:06:15Z</time>
      </trkpt>
      <trkpt lat="45.54099" lon="5.77999">
        <ele>378.2</ele>
        <time>2022-04-15T11:06:16Z</time>
      </trkpt>
      <trkpt lat="45.54102" lon="5.78">
        <ele>378.1</ele>
        <time>2022-04-15T11:06:17Z</time>
      </trkpt>
      <trkpt lat="45.54107" lon="5.78002">
        <ele>378</ele>
        <time>2022-04-15T11:06:19Z</time>
      </trkpt>
      <trkpt lat="45.5411" lon="5.78003">
        <ele>377.9</ele>
        <time>2022-04-15T11:06:20Z</time>
      </trkpt>
      <trkpt lat="45.54114" lon="5.78004">
        <ele>377.7</ele>
        <time>2022-04-15T11:06:22Z</time>
      </trkpt>
      <trkpt lat="45.54117" lon="5.78005">
        <ele>377.6</ele>
        <time>2022-04-15T11:06:23Z</time>
      </trkpt>
      <trkpt lat="45.54123" lon="5.78008">
        <ele>377.5</ele>
        <time>2022-04-15T11:06:25Z</time>
      </trkpt>
      <trkpt lat="45.54127" lon="5.7801">
        <ele>377.4</ele>
        <time>2022-04-15T11:06:27Z</time>
      </trkpt>
      <trkpt lat="45.5413" lon="5.78012">
        <ele>377.3</ele>
        <time>2022-04-15T11:06:28Z</time>
      </trkpt>
      <trkpt lat="45.54132" lon="5.78012">
        <ele>377.2</ele>
        <time>2022-04-15T11:06:29Z</time>
      </trkpt>
      <trkpt lat="45.54135" lon="5.78014">
        <ele>376.8</ele>
        <time>2022-04-15T11:06:30Z</time>
      </trkpt>
      <trkpt lat="45.54136" lon="5.78014">
        <ele>376.6</ele>
        <time>2022-04-15T11:06:31Z</time>
      </trkpt>
      <trkpt lat="45.54139" lon="5.78016">
        <ele>376.3</ele>
        <time>2022-04-15T11:06:32Z</time>
      </trkpt>
      <trkpt lat="45.54144" lon="5.7802">
        <ele>375.7</ele>
        <time>2022-04-15T11:06:33Z</time>
      </trkpt>
      <trkpt lat="45.54147" lon="5.78023">
        <ele>375.3</ele>
        <time>2022-04-15T11:06:35Z</time>
      </trkpt>
      <trkpt lat="45.54148" lon="5.78024">
        <ele>375.1</ele>
        <time>2022-04-15T11:06:36Z</time>
      </trkpt>
      <trkpt lat="45.54151" lon="5.78028">
        <ele>374.7</ele>
        <time>2022-04-15T11:06:37Z</time>
      </trkpt>
      <trkpt lat="45.54155" lon="5.78032">
        <ele>374.3</ele>
        <time>2022-04-15T11:06:39Z</time>
      </trkpt>
      <trkpt lat="45.54157" lon="5.78034">
        <ele>374</ele>
        <time>2022-04-15T11:06:40Z</time>
      </trkpt>
      <trkpt lat="45.54159" lon="5.78037">
        <ele>373.8</ele>
        <time>2022-04-15T11:06:41Z</time>
      </trkpt>
      <trkpt lat="45.5416" lon="5.78038">
        <ele>373.6</ele>
        <time>2022-04-15T11:06:42Z</time>
      </trkpt>
      <trkpt lat="45.54162" lon="5.78039">
        <ele>373.5</ele>
        <time>2022-04-15T11:06:44Z</time>
      </trkpt>
      <trkpt lat="45.54164" lon="5.78039">
        <ele>373.3</ele>
        <time>2022-04-15T11:06:45Z</time>
      </trkpt>
      <trkpt lat="45.54165" lon="5.78039">
        <ele>373.4</ele>
        <time>2022-04-15T11:06:46Z</time>
      </trkpt>
      <trkpt lat="45.54167" lon="5.78038">
        <ele>373.5</ele>
        <time>2022-04-15T11:06:48Z</time>
      </trkpt>
      <trkpt lat="45.54168" lon="5.78038">
        <ele>373.6</ele>
        <time>2022-04-15T11:06:49Z</time>
      </trkpt>
      <trkpt lat="45.54168" lon="5.78038">
        <ele>373.6</ele>
        <time>2022-04-15T11:06:50Z</time>
      </trkpt>
      <trkpt lat="45.5417" lon="5.78037">
        <ele>373.7</ele>
        <time>2022-04-15T11:06:51Z</time>
      </trkpt>
      <trkpt lat="45.5417" lon="5.78037">
        <ele>373.7</ele>
        <time>2022-04-15T11:06:52Z</time>
      </trkpt>
      <trkpt lat="45.5417" lon="5.78037">
        <ele>373.7</ele>
        <time>2022-04-15T11:06:53Z</time>
      </trkpt>
      <trkpt lat="45.5417" lon="5.78037">
        <ele>373.7</ele>
        <time>2022-04-15T11:06:54Z</time>
      </trkpt>
      <trkpt lat="45.5417" lon="5.78037">
        <ele>373.7</ele>
        <time>2022-04-15T11:06:55Z</time>
      </trkpt>
      <trkpt lat="45.54169" lon="5.78037">
        <ele>373.8</ele>
        <time>2022-04-15T11:06:56Z</time>
      </trkpt>
      <trkpt lat="45.54169" lon="5.78037">
        <ele>373.8</ele>
        <time>2022-04-15T11:06:57Z</time>
      </trkpt>
      <trkpt lat="45.54169" lon="5.78037">
        <ele>373.8</ele>
        <time>2022-04-15T11:06:58Z</time>
      </trkpt>
      <trkpt lat="45.54169" lon="5.78037">
        <ele>373.8</ele>
        <time>2022-04-15T11:06:59Z</time>
      </trkpt>
      <trkpt lat="45.54169" lon="5.78037">
        <ele>373.8</ele>
        <time>2022-04-15T11:07:00Z</time>
      </trkpt>
      <trkpt lat="45.54169" lon="5.78037">
        <ele>373.8</ele>
        <time>2022-04-15T11:07:01Z</time>
      </trkpt>
      <trkpt lat="45.54169" lon="5.78036">
        <ele>373.8</ele>
        <time>2022-04-15T11:07:02Z</time>
      </trkpt>
      <trkpt lat="45.54169" lon="5.78036">
        <ele>373.8</ele>
        <time>2022-04-15T11:07:03Z</time>
      </trkpt>
      <trkpt lat="45.54169" lon="5.78036">
        <ele>373.8</ele>
        <time>2022-04-15T11:07:04Z</time>
      </trkpt>
      <trkpt lat="45.54169" lon="5.78036">
        <ele>373.8</ele>
        <time>2022-04-15T11:07:05Z</time>
      </trkpt>
      <trkpt lat="45.54169" lon="5.78036">
        <ele>373.8</ele>
        <time>2022-04-15T11:07:06Z</time>
      </trkpt>
      <trkpt lat="45.54169" lon="5.78036">
        <ele>373.8</ele>
        <time>2022-04-15T11:07:07Z</time>
      </trkpt>
      <trkpt lat="45.54169" lon="5.78036">
        <ele>373.8</ele>
        <time>2022-04-15T11:07:08Z</time>
      </trkpt>
      <trkpt lat="45.54169" lon="5.78036">
        <ele>373.8</ele>
        <time>2022-04-15T11:07:09Z</time>
      </trkpt>
      <trkpt lat="45.54168" lon="5.78036">
        <ele>373.8</ele>
        <time>2022-04-15T11:07:10Z</time>
      </trkpt>
      <trkpt lat="45.54168" lon="5.78037">
        <ele>373.8</ele>
        <time>2022-04-15T11:07:11Z</time>
      </trkpt>
      <trkpt lat="45.54168" lon="5.78037">
        <ele>373.8</ele>
        <time>2022-04-15T11:07:12Z</time>
      </trkpt>
      <trkpt lat="45.54168" lon="5.78037">
        <ele>373.8</ele>
        <time>2022-04-15T11:07:13Z</time>
      </trkpt>
      <trkpt lat="45.54168" lon="5.78037">
        <ele>373.8</ele>
        <time>2022-04-15T11:07:14Z</time>
      </trkpt>
      <trkpt lat="45.54168" lon="5.78037">
        <ele>373.8</ele>
        <time>2022-04-15T11:07:15Z</time>
      </trkpt>
      <trkpt lat="45.54168" lon="5.78037">
        <ele>373.8</ele>
        <time>2022-04-15T11:07:16Z</time>
      </trkpt>
      <trkpt lat="45.54168" lon="5.78037">
        <ele>373.8</ele>
        <time>2022-04-15T11:07:17Z</time>
      </trkpt>
      <trkpt lat="45.54168" lon="5.78037">
        <ele>373.8</ele>
        <time>2022-04-15T11:07:18Z</time>
      </trkpt>
      <trkpt lat="45.54169" lon="5.78037">
        <ele>373.9</ele>
        <time>2022-04-15T11:07:19Z</time>
      </trkpt>
      <trkpt lat="45.54169" lon="5.78037">
        <ele>373.9</ele>
        <time>2022-04-15T11:07:20Z</time>
      </trkpt>
      <trkpt lat="45.54169" lon="5.78038">
        <ele>373.9</ele>
        <time>2022-04-15T11:07:21Z</time>
      </trkpt>
      <trkpt lat="45.5417" lon="5.78039">
        <ele>374</ele>
        <time>2022-04-15T11:07:22Z</time>
      </trkpt>
      <trkpt lat="45.5417" lon="5.78041">
        <ele>374</ele>
        <time>2022-04-15T11:07:23Z</time>
      </trkpt>
      <trkpt lat="45.54171" lon="5.78041">
        <ele>374.1</ele>
        <time>2022-04-15T11:07:24Z</time>
      </trkpt>
      <trkpt lat="45.54171" lon="5.78042">
        <ele>374.1</ele>
        <time>2022-04-15T11:07:25Z</time>
      </trkpt>
      <trkpt lat="45.5417" lon="5.78044">
        <ele>374.2</ele>
        <time>2022-04-15T11:07:26Z</time>
      </trkpt>
      <trkpt lat="45.54168" lon="5.78047">
        <ele>374.4</ele>
        <time>2022-04-15T11:07:28Z</time>
      </trkpt>
      <trkpt lat="45.54167" lon="5.78046">
        <ele>374.4</ele>
        <time>2022-04-15T11:07:29Z</time>
      </trkpt>
      <trkpt lat="45.54165" lon="5.78045">
        <ele>374.6</ele>
        <time>2022-04-15T11:07:30Z</time>
      </trkpt>
      <trkpt lat="45.54163" lon="5.78045">
        <ele>374.7</ele>
        <time>2022-04-15T11:07:31Z</time>
      </trkpt>
      <trkpt lat="45.54161" lon="5.78043">
        <ele>374.8</ele>
        <time>2022-04-15T11:07:33Z</time>
      </trkpt>
      <trkpt lat="45.54158" lon="5.78041">
        <ele>375</ele>
        <time>2022-04-15T11:07:34Z</time>
      </trkpt>
      <trkpt lat="45.54157" lon="5.7804">
        <ele>375.1</ele>
        <time>2022-04-15T11:07:35Z</time>
      </trkpt>
      <trkpt lat="45.54155" lon="5.78037">
        <ele>375.2</ele>
        <time>2022-04-15T11:07:36Z</time>
      </trkpt>
      <trkpt lat="45.54153" lon="5.78034">
        <ele>375.4</ele>
        <time>2022-04-15T11:07:37Z</time>
      </trkpt>
      <trkpt lat="45.54148" lon="5.78026">
        <ele>375.8</ele>
        <time>2022-04-15T11:07:39Z</time>
      </trkpt>
      <trkpt lat="45.54147" lon="5.78024">
        <ele>376</ele>
        <time>2022-04-15T11:07:41Z</time>
      </trkpt>
      <trkpt lat="45.54144" lon="5.7802">
        <ele>376.3</ele>
        <time>2022-04-15T11:07:42Z</time>
      </trkpt>
      <trkpt lat="45.54142" lon="5.78018">
        <ele>376.4</ele>
        <time>2022-04-15T11:07:43Z</time>
      </trkpt>
      <trkpt lat="45.5414" lon="5.78016">
        <ele>376.6</ele>
        <time>2022-04-15T11:07:45Z</time>
      </trkpt>
      <trkpt lat="45.54135" lon="5.78011">
        <ele>376.9</ele>
        <time>2022-04-15T11:07:47Z</time>
      </trkpt>
      <trkpt lat="45.54131" lon="5.78009">
        <ele>377.3</ele>
        <time>2022-04-15T11:07:48Z</time>
      </trkpt>
      <trkpt lat="45.54129" lon="5.78008">
        <ele>377.4</ele>
        <time>2022-04-15T11:07:49Z</time>
      </trkpt>
      <trkpt lat="45.54123" lon="5.78004">
        <ele>377.5</ele>
        <time>2022-04-15T11:07:51Z</time>
      </trkpt>
      <trkpt lat="45.54122" lon="5.78004">
        <ele>377.6</ele>
        <time>2022-04-15T11:07:52Z</time>
      </trkpt>
      <trkpt lat="45.54118" lon="5.78002">
        <ele>377.6</ele>
        <time>2022-04-15T11:07:54Z</time>
      </trkpt>
      <trkpt lat="45.54115" lon="5.78001">
        <ele>377.7</ele>
        <time>2022-04-15T11:07:55Z</time>
      </trkpt>
      <trkpt lat="45.54111" lon="5.78">
        <ele>377.9</ele>
        <time>2022-04-15T11:07:57Z</time>
      </trkpt>
      <trkpt lat="45.54109" lon="5.77999">
        <ele>377.9</ele>
        <time>2022-04-15T11:07:58Z</time>
      </trkpt>
      <trkpt lat="45.54105" lon="5.77997">
        <ele>378.1</ele>
        <time>2022-04-15T11:08:00Z</time>
      </trkpt>
      <trkpt lat="45.54102" lon="5.77996">
        <ele>378.2</ele>
        <time>2022-04-15T11:08:01Z</time>
      </trkpt>
      <trkpt lat="45.54097" lon="5.77995">
        <ele>378.3</ele>
        <time>2022-04-15T11:08:03Z</time>
      </trkpt>
      <trkpt lat="45.54092" lon="5.77993">
        <ele>378.5</ele>
        <time>2022-04-15T11:08:05Z</time>
      </trkpt>
      <trkpt lat="45.54089" lon="5.77992">
        <ele>378.6</ele>
        <time>2022-04-15T11:08:07Z</time>
      </trkpt>
      <trkpt lat="45.54084" lon="5.7799">
        <ele>378.7</ele>
        <time>2022-04-15T11:08:09Z</time>
      </trkpt>
      <trkpt lat="45.54082" lon="5.77989">
        <ele>378.8</ele>
        <time>2022-04-15T11:08:10Z</time>
      </trkpt>
      <trkpt lat="45.54077" lon="5.77988">
        <ele>378.9</ele>
        <time>2022-04-15T11:08:12Z</time>
      </trkpt>
      <trkpt lat="45.54073" lon="5.77986">
        <ele>379.1</ele>
        <time>2022-04-15T11:08:14Z</time>
      </trkpt>
      <trkpt lat="45.5407" lon="5.77985">
        <ele>379.2</ele>
        <time>2022-04-15T11:08:15Z</time>
      </trkpt>
      <trkpt lat="45.54066" lon="5.77984">
        <ele>379.3</ele>
        <time>2022-04-15T11:08:17Z</time>
      </trkpt>
      <trkpt lat="45.54063" lon="5.77983">
        <ele>379.4</ele>
        <time>2022-04-15T11:08:18Z</time>
      </trkpt>
      <trkpt lat="45.54061" lon="5.77982">
        <ele>379.4</ele>
        <time>2022-04-15T11:08:19Z</time>
      </trkpt>
      <trkpt lat="45.54058" lon="5.77982">
        <ele>379.5</ele>
        <time>2022-04-15T11:08:20Z</time>
      </trkpt>
      <trkpt lat="45.54057" lon="5.77981">
        <ele>379.6</ele>
        <time>2022-04-15T11:08:21Z</time>
      </trkpt>
      <trkpt lat="45.54052" lon="5.7798">
        <ele>379.7</ele>
        <time>2022-04-15T11:08:23Z</time>
      </trkpt>
      <trkpt lat="45.54048" lon="5.77979">
        <ele>379.8</ele>
        <time>2022-04-15T11:08:24Z</time>
      </trkpt>
      <trkpt lat="45.54047" lon="5.77979">
        <ele>379.9</ele>
        <time>2022-04-15T11:08:25Z</time>
      </trkpt>
      <trkpt lat="45.54044" lon="5.77977">
        <ele>379.9</ele>
        <time>2022-04-15T11:08:26Z</time>
      </trkpt>
      <trkpt lat="45.5404" lon="5.77976">
        <ele>380</ele>
        <time>2022-04-15T11:08:27Z</time>
      </trkpt>
      <trkpt lat="45.54035" lon="5.77974">
        <ele>380.2</ele>
        <time>2022-04-15T11:08:29Z</time>
      </trkpt>
      <trkpt lat="45.54034" lon="5.77974">
        <ele>380.2</ele>
        <time>2022-04-15T11:08:30Z</time>
      </trkpt>
      <trkpt lat="45.54032" lon="5.77974">
        <ele>380.3</ele>
        <time>2022-04-15T11:08:31Z</time>
      </trkpt>
      <trkpt lat="45.54028" lon="5.77972">
        <ele>380.4</ele>
        <time>2022-04-15T11:08:32Z</time>
      </trkpt>
      <trkpt lat="45.54025" lon="5.77972">
        <ele>380.4</ele>
        <time>2022-04-15T11:08:33Z</time>
      </trkpt>
      <trkpt lat="45.54022" lon="5.77972">
        <ele>380.5</ele>
        <time>2022-04-15T11:08:35Z</time>
      </trkpt>
      <trkpt lat="45.54019" lon="5.77971">
        <ele>380.6</ele>
        <time>2022-04-15T11:08:36Z</time>
      </trkpt>
      <trkpt lat="45.54015" lon="5.77971">
        <ele>380.7</ele>
        <time>2022-04-15T11:08:37Z</time>
      </trkpt>
      <trkpt lat="45.54014" lon="5.77971">
        <ele>380.7</ele>
        <time>2022-04-15T11:08:38Z</time>
      </trkpt>
      <trkpt lat="45.54011" lon="5.7797">
        <ele>380.8</ele>
        <time>2022-04-15T11:08:39Z</time>
      </trkpt>
      <trkpt lat="45.54007" lon="5.77968">
        <ele>380.9</ele>
        <time>2022-04-15T11:08:40Z</time>
      </trkpt>
      <trkpt lat="45.54004" lon="5.77968">
        <ele>381</ele>
        <time>2022-04-15T11:08:42Z</time>
      </trkpt>
      <trkpt lat="45.54001" lon="5.77967">
        <ele>381.1</ele>
        <time>2022-04-15T11:08:43Z</time>
      </trkpt>
      <trkpt lat="45.53996" lon="5.77966">
        <ele>381.3</ele>
        <time>2022-04-15T11:08:45Z</time>
      </trkpt>
      <trkpt lat="45.53991" lon="5.77964">
        <ele>381.4</ele>
        <time>2022-04-15T11:08:47Z</time>
      </trkpt>
      <trkpt lat="45.53987" lon="5.7796">
        <ele>381.5</ele>
        <time>2022-04-15T11:08:49Z</time>
      </trkpt>
      <trkpt lat="45.53984" lon="5.77956">
        <ele>381.6</ele>
        <time>2022-04-15T11:08:50Z</time>
      </trkpt>
      <trkpt lat="45.53983" lon="5.77951">
        <ele>381.7</ele>
        <time>2022-04-15T11:08:52Z</time>
      </trkpt>
      <trkpt lat="45.53981" lon="5.77947">
        <ele>381.7</ele>
        <time>2022-04-15T11:08:53Z</time>
      </trkpt>
      <trkpt lat="45.5398" lon="5.77941">
        <ele>381.8</ele>
        <time>2022-04-15T11:08:55Z</time>
      </trkpt>
      <trkpt lat="45.53979" lon="5.77936">
        <ele>381.8</ele>
        <time>2022-04-15T11:08:56Z</time>
      </trkpt>
      <trkpt lat="45.53979" lon="5.7793">
        <ele>382</ele>
        <time>2022-04-15T11:08:58Z</time>
      </trkpt>
      <trkpt lat="45.53979" lon="5.77924">
        <ele>382.2</ele>
        <time>2022-04-15T11:08:59Z</time>
      </trkpt>
      <trkpt lat="45.53979" lon="5.77921">
        <ele>382.3</ele>
        <time>2022-04-15T11:09:00Z</time>
      </trkpt>
      <trkpt lat="45.53982" lon="5.7791">
        <ele>382.6</ele>
        <time>2022-04-15T11:09:02Z</time>
      </trkpt>
      <trkpt lat="45.53984" lon="5.77906">
        <ele>382.8</ele>
        <time>2022-04-15T11:09:04Z</time>
      </trkpt>
      <trkpt lat="45.53984" lon="5.77901">
        <ele>382.9</ele>
        <time>2022-04-15T11:09:05Z</time>
      </trkpt>
      <trkpt lat="45.53987" lon="5.77893">
        <ele>383</ele>
        <time>2022-04-15T11:09:07Z</time>
      </trkpt>
      <trkpt lat="45.53988" lon="5.77888">
        <ele>383</ele>
        <time>2022-04-15T11:09:08Z</time>
      </trkpt>
      <trkpt lat="45.5399" lon="5.77881">
        <ele>383</ele>
        <time>2022-04-15T11:09:09Z</time>
      </trkpt>
      <trkpt lat="45.53991" lon="5.77875">
        <ele>383</ele>
        <time>2022-04-15T11:09:11Z</time>
      </trkpt>
      <trkpt lat="45.53993" lon="5.7787">
        <ele>383</ele>
        <time>2022-04-15T11:09:12Z</time>
      </trkpt>
      <trkpt lat="45.53994" lon="5.77866">
        <ele>383</ele>
        <time>2022-04-15T11:09:13Z</time>
      </trkpt>
      <trkpt lat="45.53995" lon="5.7786">
        <ele>383</ele>
        <time>2022-04-15T11:09:14Z</time>
      </trkpt>
      <trkpt lat="45.53998" lon="5.77851">
        <ele>383</ele>
        <time>2022-04-15T11:09:16Z</time>
      </trkpt>
      <trkpt lat="45.54001" lon="5.77845">
        <ele>383.1</ele>
        <time>2022-04-15T11:09:17Z</time>
      </trkpt>
      <trkpt lat="45.54003" lon="5.77837">
        <ele>383.1</ele>
        <time>2022-04-15T11:09:18Z</time>
      </trkpt>
      <trkpt lat="45.54005" lon="5.77831">
        <ele>383.2</ele>
        <time>2022-04-15T11:09:20Z</time>
      </trkpt>
      <trkpt lat="45.54007" lon="5.77824">
        <ele>383.2</ele>
        <time>2022-04-15T11:09:21Z</time>
      </trkpt>
      <trkpt lat="45.54008" lon="5.77822">
        <ele>383.2</ele>
        <time>2022-04-15T11:09:22Z</time>
      </trkpt>
      <trkpt lat="45.54009" lon="5.77819">
        <ele>383.2</ele>
        <time>2022-04-15T11:09:24Z</time>
      </trkpt>
      <trkpt lat="45.54011" lon="5.77819">
        <ele>383.2</ele>
        <time>2022-04-15T11:09:25Z</time>
      </trkpt>
      <trkpt lat="45.54013" lon="5.77824">
        <ele>383.2</ele>
        <time>2022-04-15T11:09:27Z</time>
      </trkpt>
      <trkpt lat="45.54014" lon="5.77828">
        <ele>383.2</ele>
        <time>2022-04-15T11:09:28Z</time>
      </trkpt>
      <trkpt lat="45.54014" lon="5.77831">
        <ele>383.2</ele>
        <time>2022-04-15T11:09:30Z</time>
      </trkpt>
      <trkpt lat="45.54014" lon="5.77831">
        <ele>383.2</ele>
        <time>2022-04-15T11:09:31Z</time>
      </trkpt>
      <trkpt lat="45.54014" lon="5.7783">
        <ele>383.2</ele>
        <time>2022-04-15T11:09:33Z</time>
      </trkpt>
      <trkpt lat="45.54014" lon="5.7783">
        <ele>383.2</ele>
        <time>2022-04-15T11:09:35Z</time>
      </trkpt>
      <trkpt lat="45.54014" lon="5.7783">
        <ele>383.2</ele>
        <time>2022-04-15T11:09:36Z</time>
      </trkpt>
      <trkpt lat="45.54014" lon="5.7783">
        <ele>383.2</ele>
        <time>2022-04-15T11:09:37Z</time>
      </trkpt>
      <trkpt lat="45.54014" lon="5.77829">
        <ele>383.2</ele>
        <time>2022-04-15T11:09:38Z</time>
      </trkpt>
      <trkpt lat="45.54014" lon="5.77829">
        <ele>383.2</ele>
        <time>2022-04-15T11:09:39Z</time>
      </trkpt>
      <trkpt lat="45.54014" lon="5.77829">
        <ele>383.2</ele>
        <time>2022-04-15T11:09:40Z</time>
      </trkpt>
      <trkpt lat="45.54014" lon="5.77829">
        <ele>383.2</ele>
        <time>2022-04-15T11:09:41Z</time>
      </trkpt>
      <trkpt lat="45.54014" lon="5.77828">
        <ele>383.2</ele>
        <time>2022-04-15T11:09:42Z</time>
      </trkpt>
      <trkpt lat="45.54014" lon="5.77828">
        <ele>383.2</ele>
        <time>2022-04-15T11:09:43Z</time>
      </trkpt>
      <trkpt lat="45.54014" lon="5.77828">
        <ele>383.2</ele>
        <time>2022-04-15T11:09:44Z</time>
      </trkpt>
      <trkpt lat="45.54014" lon="5.77827">
        <ele>383.2</ele>
        <time>2022-04-15T11:09:45Z</time>
      </trkpt>
      <trkpt lat="45.54014" lon="5.77827">
        <ele>383.2</ele>
        <time>2022-04-15T11:09:46Z</time>
      </trkpt>
      <trkpt lat="45.54014" lon="5.77827">
        <ele>383.2</ele>
        <time>2022-04-15T11:09:47Z</time>
      </trkpt>
      <trkpt lat="45.54014" lon="5.77827">
        <ele>383.2</ele>
        <time>2022-04-15T11:09:48Z</time>
      </trkpt>
      <trkpt lat="45.54014" lon="5.77826">
        <ele>383.2</ele>
        <time>2022-04-15T11:09:49Z</time>
      </trkpt>
      <trkpt lat="45.54014" lon="5.77826">
        <ele>383.2</ele>
        <time>2022-04-15T11:09:51Z</time>
      </trkpt>
      <trkpt lat="45.54014" lon="5.77826">
        <ele>383.2</ele>
        <time>2022-04-15T11:09:53Z</time>
      </trkpt>
      <trkpt lat="45.54014" lon="5.77825">
        <ele>383.2</ele>
        <time>2022-04-15T11:09:54Z</time>
      </trkpt>
      <trkpt lat="45.54014" lon="5.77825">
        <ele>383.2</ele>
        <time>2022-04-15T11:09:55Z</time>
      </trkpt>
      <trkpt lat="45.54014" lon="5.77825">
        <ele>383.2</ele>
        <time>2022-04-15T11:09:56Z</time>
      </trkpt>
      <trkpt lat="45.54014" lon="5.77825">
        <ele>383.2</ele>
        <time>2022-04-15T11:09:57Z</time>
      </trkpt>
      <trkpt lat="45.54013" lon="5.77819">
        <ele>383.2</ele>
        <time>2022-04-15T11:09:58Z</time>
      </trkpt>
      <trkpt lat="45.54014" lon="5.77815">
        <ele>383.2</ele>
        <time>2022-04-15T11:09:59Z</time>
      </trkpt>
      <trkpt lat="45.54014" lon="5.77811">
        <ele>383.2</ele>
        <time>2022-04-15T11:10:00Z</time>
      </trkpt>
      <trkpt lat="45.54015" lon="5.77805">
        <ele>383.2</ele>
        <time>2022-04-15T11:10:02Z</time>
      </trkpt>
      <trkpt lat="45.54018" lon="5.77801">
        <ele>383.3</ele>
        <time>2022-04-15T11:10:03Z</time>
      </trkpt>
      <trkpt lat="45.5402" lon="5.77798">
        <ele>383.3</ele>
        <time>2022-04-15T11:10:04Z</time>
      </trkpt>
      <trkpt lat="45.54022" lon="5.77794">
        <ele>383.3</ele>
        <time>2022-04-15T11:10:05Z</time>
      </trkpt>
      <trkpt lat="45.54025" lon="5.77789">
        <ele>383.3</ele>
        <time>2022-04-15T11:10:07Z</time>
      </trkpt>
      <trkpt lat="45.54028" lon="5.77785">
        <ele>383.3</ele>
        <time>2022-04-15T11:10:08Z</time>
      </trkpt>
      <trkpt lat="45.54031" lon="5.7778">
        <ele>383.3</ele>
        <time>2022-04-15T11:10:10Z</time>
      </trkpt>
      <trkpt lat="45.54033" lon="5.77776">
        <ele>383.4</ele>
        <time>2022-04-15T11:10:11Z</time>
      </trkpt>
      <trkpt lat="45.54034" lon="5.77768">
        <ele>383.3</ele>
        <time>2022-04-15T11:10:13Z</time>
      </trkpt>
      <trkpt lat="45.54036" lon="5.77764">
        <ele>383.2</ele>
        <time>2022-04-15T11:10:14Z</time>
      </trkpt>
      <trkpt lat="45.54039" lon="5.77758">
        <ele>383.1</ele>
        <time>2022-04-15T11:10:16Z</time>
      </trkpt>
      <trkpt lat="45.5404" lon="5.77756">
        <ele>383</ele>
        <time>2022-04-15T11:10:17Z</time>
      </trkpt>
      <trkpt lat="45.54042" lon="5.77752">
        <ele>383</ele>
        <time>2022-04-15T11:10:19Z</time>
      </trkpt>
      <trkpt lat="45.54044" lon="5.7775">
        <ele>382.9</ele>
        <time>2022-04-15T11:10:20Z</time>
      </trkpt>
      <trkpt lat="45.54047" lon="5.77744">
        <ele>382.8</ele>
        <time>2022-04-15T11:10:22Z</time>
      </trkpt>
      <trkpt lat="45.54047" lon="5.77743">
        <ele>382.8</ele>
        <time>2022-04-15T11:10:23Z</time>
      </trkpt>
      <trkpt lat="45.54048" lon="5.77741">
        <ele>382.8</ele>
        <time>2022-04-15T11:10:24Z</time>
      </trkpt>
      <trkpt lat="45.54049" lon="5.77737">
        <ele>382.7</ele>
        <time>2022-04-15T11:10:26Z</time>
      </trkpt>
      <trkpt lat="45.54049" lon="5.77735">
        <ele>382.7</ele>
        <time>2022-04-15T11:10:27Z</time>
      </trkpt>
      <trkpt lat="45.5405" lon="5.77738">
        <ele>382.6</ele>
        <time>2022-04-15T11:10:29Z</time>
      </trkpt>
      <trkpt lat="45.5405" lon="5.77738">
        <ele>382.6</ele>
        <time>2022-04-15T11:10:30Z</time>
      </trkpt>
      <trkpt lat="45.5405" lon="5.77738">
        <ele>382.6</ele>
        <time>2022-04-15T11:10:31Z</time>
      </trkpt>
      <trkpt lat="45.5405" lon="5.77739">
        <ele>382.6</ele>
        <time>2022-04-15T11:10:32Z</time>
      </trkpt>
      <trkpt lat="45.5405" lon="5.77739">
        <ele>382.6</ele>
        <time>2022-04-15T11:10:33Z</time>
      </trkpt>
      <trkpt lat="45.5405" lon="5.77739">
        <ele>382.6</ele>
        <time>2022-04-15T11:10:34Z</time>
      </trkpt>
      <trkpt lat="45.54051" lon="5.77739">
        <ele>382.6</ele>
        <time>2022-04-15T11:10:35Z</time>
      </trkpt>
      <trkpt lat="45.54051" lon="5.77739">
        <ele>382.6</ele>
        <time>2022-04-15T11:10:36Z</time>
      </trkpt>
      <trkpt lat="45.54051" lon="5.77739">
        <ele>382.6</ele>
        <time>2022-04-15T11:10:37Z</time>
      </trkpt>
      <trkpt lat="45.54051" lon="5.77739">
        <ele>382.6</ele>
        <time>2022-04-15T11:10:38Z</time>
      </trkpt>
      <trkpt lat="45.54051" lon="5.77739">
        <ele>382.6</ele>
        <time>2022-04-15T11:10:39Z</time>
      </trkpt>
      <trkpt lat="45.54051" lon="5.77739">
        <ele>382.6</ele>
        <time>2022-04-15T11:10:40Z</time>
      </trkpt>
      <trkpt lat="45.54051" lon="5.77739">
        <ele>382.6</ele>
        <time>2022-04-15T11:10:41Z</time>
      </trkpt>
      <trkpt lat="45.54051" lon="5.77739">
        <ele>382.6</ele>
        <time>2022-04-15T11:10:42Z</time>
      </trkpt>
      <trkpt lat="45.54051" lon="5.77739">
        <ele>382.6</ele>
        <time>2022-04-15T11:10:43Z</time>
      </trkpt>
      <trkpt lat="45.54051" lon="5.77739">
        <ele>382.6</ele>
        <time>2022-04-15T11:10:44Z</time>
      </trkpt>
      <trkpt lat="45.54051" lon="5.77739">
        <ele>382.6</ele>
        <time>2022-04-15T11:10:45Z</time>
      </trkpt>
      <trkpt lat="45.54051" lon="5.77739">
        <ele>382.6</ele>
        <time>2022-04-15T11:10:46Z</time>
      </trkpt>
      <trkpt lat="45.54051" lon="5.77739">
        <ele>382.6</ele>
        <time>2022-04-15T11:10:47Z</time>
      </trkpt>
      <trkpt lat="45.54051" lon="5.77739">
        <ele>382.6</ele>
        <time>2022-04-15T11:10:48Z</time>
      </trkpt>
      <trkpt lat="45.54051" lon="5.77739">
        <ele>382.6</ele>
        <time>2022-04-15T11:10:49Z</time>
      </trkpt>
      <trkpt lat="45.54051" lon="5.77739">
        <ele>382.6</ele>
        <time>2022-04-15T11:10:50Z</time>
      </trkpt>
      <trkpt lat="45.54051" lon="5.77738">
        <ele>382.6</ele>
        <time>2022-04-15T11:10:51Z</time>
      </trkpt>
      <trkpt lat="45.54051" lon="5.77738">
        <ele>382.6</ele>
        <time>2022-04-15T11:10:52Z</time>
      </trkpt>
      <trkpt lat="45.54051" lon="5.77738">
        <ele>382.6</ele>
        <time>2022-04-15T11:10:53Z</time>
      </trkpt>
      <trkpt lat="45.54051" lon="5.77738">
        <ele>382.6</ele>
        <time>2022-04-15T11:10:54Z</time>
      </trkpt>
      <trkpt lat="45.54051" lon="5.77738">
        <ele>382.6</ele>
        <time>2022-04-15T11:10:55Z</time>
      </trkpt>
      <trkpt lat="45.54051" lon="5.77738">
        <ele>382.6</ele>
        <time>2022-04-15T11:10:56Z</time>
      </trkpt>
      <trkpt lat="45.54051" lon="5.77738">
        <ele>382.6</ele>
        <time>2022-04-15T11:10:57Z</time>
      </trkpt>
      <trkpt lat="45.54051" lon="5.77738">
        <ele>382.6</ele>
        <time>2022-04-15T11:10:58Z</time>
      </trkpt>
      <trkpt lat="45.54051" lon="5.77738">
        <ele>382.6</ele>
        <time>2022-04-15T11:10:59Z</time>
      </trkpt>
      <trkpt lat="45.54051" lon="5.77738">
        <ele>382.6</ele>
        <time>2022-04-15T11:11:00Z</time>
      </trkpt>
      <trkpt lat="45.54051" lon="5.77738">
        <ele>382.6</ele>
        <time>2022-04-15T11:11:01Z</time>
      </trkpt>
      <trkpt lat="45.54051" lon="5.77738">
        <ele>382.6</ele>
        <time>2022-04-15T11:11:02Z</time>
      </trkpt>
      <trkpt lat="45.54051" lon="5.77738">
        <ele>382.6</ele>
        <time>2022-04-15T11:11:03Z</time>
      </trkpt>
      <trkpt lat="45.54051" lon="5.77738">
        <ele>382.6</ele>
        <time>2022-04-15T11:11:04Z</time>
      </trkpt>
      <trkpt lat="45.54051" lon="5.77738">
        <ele>382.6</ele>
        <time>2022-04-15T11:11:05Z</time>
      </trkpt>
      <trkpt lat="45.54051" lon="5.77738">
        <ele>382.6</ele>
        <time>2022-04-15T11:11:06Z</time>
      </trkpt>
      <trkpt lat="45.54051" lon="5.77738">
        <ele>382.6</ele>
        <time>2022-04-15T11:11:07Z</time>
      </trkpt>
      <trkpt lat="45.54051" lon="5.77738">
        <ele>382.6</ele>
        <time>2022-04-15T11:11:08Z</time>
      </trkpt>
      <trkpt lat="45.54051" lon="5.77738">
        <ele>382.6</ele>
        <time>2022-04-15T11:11:09Z</time>
      </trkpt>
      <trkpt lat="45.54051" lon="5.77738">
        <ele>382.6</ele>
        <time>2022-04-15T11:11:10Z</time>
      </trkpt>
      <trkpt lat="45.54051" lon="5.77738">
        <ele>382.6</ele>
        <time>2022-04-15T11:11:11Z</time>
      </trkpt>
      <trkpt lat="45.54051" lon="5.77737">
        <ele>382.6</ele>
        <time>2022-04-15T11:11:12Z</time>
      </trkpt>
      <trkpt lat="45.54051" lon="5.77737">
        <ele>382.6</ele>
        <time>2022-04-15T11:11:13Z</time>
      </trkpt>
      <trkpt lat="45.54051" lon="5.77737">
        <ele>382.6</ele>
        <time>2022-04-15T11:11:14Z</time>
      </trkpt>
      <trkpt lat="45.54051" lon="5.77737">
        <ele>382.6</ele>
        <time>2022-04-15T11:11:15Z</time>
      </trkpt>
      <trkpt lat="45.54051" lon="5.77737">
        <ele>382.6</ele>
        <time>2022-04-15T11:11:16Z</time>
      </trkpt>
      <trkpt lat="45.54051" lon="5.77737">
        <ele>382.6</ele>
        <time>2022-04-15T11:11:17Z</time>
      </trkpt>
      <trkpt lat="45.54051" lon="5.77737">
        <ele>382.6</ele>
        <time>2022-04-15T11:11:18Z</time>
      </trkpt>
      <trkpt lat="45.54051" lon="5.77737">
        <ele>382.6</ele>
        <time>2022-04-15T11:11:19Z</time>
      </trkpt>
      <trkpt lat="45.54051" lon="5.77737">
        <ele>382.6</ele>
        <time>2022-04-15T11:11:20Z</time>
      </trkpt>
      <trkpt lat="45.54051" lon="5.77737">
        <ele>382.6</ele>
        <time>2022-04-15T11:11:21Z</time>
      </trkpt>
      <trkpt lat="45.54051" lon="5.77737">
        <ele>382.6</ele>
        <time>2022-04-15T11:11:22Z</time>
      </trkpt>
      <trkpt lat="45.54051" lon="5.77737">
        <ele>382.6</ele>
        <time>2022-04-15T11:11:23Z</time>
      </trkpt>
      <trkpt lat="45.54051" lon="5.77737">
        <ele>382.6</ele>
        <time>2022-04-15T11:11:24Z</time>
      </trkpt>
      <trkpt lat="45.54051" lon="5.77737">
        <ele>382.6</ele>
        <time>2022-04-15T11:11:25Z</time>
      </trkpt>
      <trkpt lat="45.54051" lon="5.77737">
        <ele>382.6</ele>
        <time>2022-04-15T11:11:26Z</time>
      </trkpt>
      <trkpt lat="45.54051" lon="5.77737">
        <ele>382.6</ele>
        <time>2022-04-15T11:11:27Z</time>
      </trkpt>
      <trkpt lat="45.54051" lon="5.77737">
        <ele>382.6</ele>
        <time>2022-04-15T11:11:28Z</time>
      </trkpt>
      <trkpt lat="45.54051" lon="5.77737">
        <ele>382.5</ele>
        <time>2022-04-15T11:11:29Z</time>
      </trkpt>
      <trkpt lat="45.54051" lon="5.77737">
        <ele>382.5</ele>
        <time>2022-04-15T11:11:30Z</time>
      </trkpt>
      <trkpt lat="45.54051" lon="5.77737">
        <ele>382.5</ele>
        <time>2022-04-15T11:11:31Z</time>
      </trkpt>
      <trkpt lat="45.54051" lon="5.77737">
        <ele>382.5</ele>
        <time>2022-04-15T11:11:32Z</time>
      </trkpt>
      <trkpt lat="45.54051" lon="5.77736">
        <ele>382.5</ele>
        <time>2022-04-15T11:11:33Z</time>
      </trkpt>
      <trkpt lat="45.54051" lon="5.77736">
        <ele>382.5</ele>
        <time>2022-04-15T11:11:34Z</time>
      </trkpt>
      <trkpt lat="45.54051" lon="5.77736">
        <ele>382.5</ele>
        <time>2022-04-15T11:11:35Z</time>
      </trkpt>
      <trkpt lat="45.54051" lon="5.77736">
        <ele>382.5</ele>
        <time>2022-04-15T11:11:36Z</time>
      </trkpt>
      <trkpt lat="45.54051" lon="5.77736">
        <ele>382.5</ele>
        <time>2022-04-15T11:11:37Z</time>
      </trkpt>
      <trkpt lat="45.5405" lon="5.77736">
        <ele>382.5</ele>
        <time>2022-04-15T11:11:38Z</time>
      </trkpt>
      <trkpt lat="45.5405" lon="5.77736">
        <ele>382.5</ele>
        <time>2022-04-15T11:11:39Z</time>
      </trkpt>
      <trkpt lat="45.5405" lon="5.77736">
        <ele>382.5</ele>
        <time>2022-04-15T11:11:40Z</time>
      </trkpt>
      <trkpt lat="45.5405" lon="5.77736">
        <ele>382.5</ele>
        <time>2022-04-15T11:11:41Z</time>
      </trkpt>
      <trkpt lat="45.5405" lon="5.77736">
        <ele>382.5</ele>
        <time>2022-04-15T11:11:42Z</time>
      </trkpt>
      <trkpt lat="45.5405" lon="5.77736">
        <ele>382.5</ele>
        <time>2022-04-15T11:11:43Z</time>
      </trkpt>
      <trkpt lat="45.5405" lon="5.77736">
        <ele>382.5</ele>
        <time>2022-04-15T11:11:44Z</time>
      </trkpt>
      <trkpt lat="45.5405" lon="5.77736">
        <ele>382.5</ele>
        <time>2022-04-15T11:11:45Z</time>
      </trkpt>
      <trkpt lat="45.5405" lon="5.77736">
        <ele>382.5</ele>
        <time>2022-04-15T11:11:46Z</time>
      </trkpt>
      <trkpt lat="45.5405" lon="5.77736">
        <ele>382.5</ele>
        <time>2022-04-15T11:11:47Z</time>
      </trkpt>
      <trkpt lat="45.5405" lon="5.77736">
        <ele>382.5</ele>
        <time>2022-04-15T11:11:48Z</time>
      </trkpt>
      <trkpt lat="45.5405" lon="5.77736">
        <ele>382.5</ele>
        <time>2022-04-15T11:11:49Z</time>
      </trkpt>
      <trkpt lat="45.5405" lon="5.77736">
        <ele>382.5</ele>
        <time>2022-04-15T11:11:50Z</time>
      </trkpt>
      <trkpt lat="45.5405" lon="5.77736">
        <ele>382.5</ele>
        <time>2022-04-15T11:11:51Z</time>
      </trkpt>
      <trkpt lat="45.5405" lon="5.77736">
        <ele>382.5</ele>
        <time>2022-04-15T11:11:52Z</time>
      </trkpt>
      <trkpt lat="45.5405" lon="5.77736">
        <ele>382.5</ele>
        <time>2022-04-15T11:11:53Z</time>
      </trkpt>
      <trkpt lat="45.5405" lon="5.77735">
        <ele>382.5</ele>
        <time>2022-04-15T11:11:54Z</time>
      </trkpt>
      <trkpt lat="45.5405" lon="5.77735">
        <ele>382.5</ele>
        <time>2022-04-15T11:11:55Z</time>
      </trkpt>
      <trkpt lat="45.5405" lon="5.77735">
        <ele>382.5</ele>
        <time>2022-04-15T11:11:56Z</time>
      </trkpt>
      <trkpt lat="45.5405" lon="5.77735">
        <ele>382.5</ele>
        <time>2022-04-15T11:11:57Z</time>
      </trkpt>
      <trkpt lat="45.5405" lon="5.77735">
        <ele>382.5</ele>
        <time>2022-04-15T11:11:58Z</time>
      </trkpt>
      <trkpt lat="45.5405" lon="5.77735">
        <ele>382.5</ele>
        <time>2022-04-15T11:11:59Z</time>
      </trkpt>
      <trkpt lat="45.5405" lon="5.77735">
        <ele>382.5</ele>
        <time>2022-04-15T11:12:00Z</time>
      </trkpt>
      <trkpt lat="45.5405" lon="5.77735">
        <ele>382.5</ele>
        <time>2022-04-15T11:12:01Z</time>
      </trkpt>
      <trkpt lat="45.5405" lon="5.77735">
        <ele>382.5</ele>
        <time>2022-04-15T11:12:02Z</time>
      </trkpt>
      <trkpt lat="45.5405" lon="5.77735">
        <ele>382.5</ele>
        <time>2022-04-15T11:12:03Z</time>
      </trkpt>
      <trkpt lat="45.5405" lon="5.77735">
        <ele>382.5</ele>
        <time>2022-04-15T11:12:04Z</time>
      </trkpt>
      <trkpt lat="45.5405" lon="5.77735">
        <ele>382.5</ele>
        <time>2022-04-15T11:12:05Z</time>
      </trkpt>
      <trkpt lat="45.5405" lon="5.77735">
        <ele>382.5</ele>
        <time>2022-04-15T11:12:06Z</time>
      </trkpt>
      <trkpt lat="45.5405" lon="5.77735">
        <ele>382.5</ele>
        <time>2022-04-15T11:12:07Z</time>
      </trkpt>
      <trkpt lat="45.5405" lon="5.77735">
        <ele>382.5</ele>
        <time>2022-04-15T11:12:08Z</time>
      </trkpt>
      <trkpt lat="45.5405" lon="5.77735">
        <ele>382.5</ele>
        <time>2022-04-15T11:12:09Z</time>
      </trkpt>
      <trkpt lat="45.5405" lon="5.77735">
        <ele>382.5</ele>
        <time>2022-04-15T11:12:10Z</time>
      </trkpt>
      <trkpt lat="45.5405" lon="5.77735">
        <ele>382.5</ele>
        <time>2022-04-15T11:12:11Z</time>
      </trkpt>
      <trkpt lat="45.5405" lon="5.77735">
        <ele>382.5</ele>
        <time>2022-04-15T11:12:12Z</time>
      </trkpt>
      <trkpt lat="45.5405" lon="5.77735">
        <ele>382.5</ele>
        <time>2022-04-15T11:12:13Z</time>
      </trkpt>
      <trkpt lat="45.5405" lon="5.77735">
        <ele>382.5</ele>
        <time>2022-04-15T11:12:14Z</time>
      </trkpt>
      <trkpt lat="45.5405" lon="5.77734">
        <ele>382.5</ele>
        <time>2022-04-15T11:12:15Z</time>
      </trkpt>
      <trkpt lat="45.5405" lon="5.77734">
        <ele>382.5</ele>
        <time>2022-04-15T11:12:16Z</time>
      </trkpt>
      <trkpt lat="45.5405" lon="5.77734">
        <ele>382.5</ele>
        <time>2022-04-15T11:12:17Z</time>
      </trkpt>
      <trkpt lat="45.5405" lon="5.77734">
        <ele>382.5</ele>
        <time>2022-04-15T11:12:18Z</time>
      </trkpt>
      <trkpt lat="45.5405" lon="5.77734">
        <ele>382.5</ele>
        <time>2022-04-15T11:12:19Z</time>
      </trkpt>
      <trkpt lat="45.5405" lon="5.77734">
        <ele>382.5</ele>
        <time>2022-04-15T11:12:20Z</time>
      </trkpt>
      <trkpt lat="45.5405" lon="5.77734">
        <ele>382.5</ele>
        <time>2022-04-15T11:12:21Z</time>
      </trkpt>
      <trkpt lat="45.5405" lon="5.77734">
        <ele>382.5</ele>
        <time>2022-04-15T11:12:22Z</time>
      </trkpt>
      <trkpt lat="45.5405" lon="5.77734">
        <ele>382.5</ele>
        <time>2022-04-15T11:12:23Z</time>
      </trkpt>
      <trkpt lat="45.5405" lon="5.77734">
        <ele>382.5</ele>
        <time>2022-04-15T11:12:24Z</time>
      </trkpt>
      <trkpt lat="45.5405" lon="5.77734">
        <ele>382.5</ele>
        <time>2022-04-15T11:12:25Z</time>
      </trkpt>
      <trkpt lat="45.5405" lon="5.77734">
        <ele>382.5</ele>
        <time>2022-04-15T11:12:26Z</time>
      </trkpt>
      <trkpt lat="45.54051" lon="5.77729">
        <ele>382.4</ele>
        <time>2022-04-15T11:12:27Z</time>
      </trkpt>
      <trkpt lat="45.54052" lon="5.77728">
        <ele>382.4</ele>
        <time>2022-04-15T11:12:28Z</time>
      </trkpt>
      <trkpt lat="45.54052" lon="5.77726">
        <ele>382.4</ele>
        <time>2022-04-15T11:12:29Z</time>
      </trkpt>
      <trkpt lat="45.54053" lon="5.77724">
        <ele>382.3</ele>
        <time>2022-04-15T11:12:30Z</time>
      </trkpt>
      <trkpt lat="45.54054" lon="5.77719">
        <ele>382.2</ele>
        <time>2022-04-15T11:12:31Z</time>
      </trkpt>
      <trkpt lat="45.54055" lon="5.77716">
        <ele>382.2</ele>
        <time>2022-04-15T11:12:32Z</time>
      </trkpt>
      <trkpt lat="45.54056" lon="5.7771">
        <ele>382.1</ele>
        <time>2022-04-15T11:12:34Z</time>
      </trkpt>
      <trkpt lat="45.54058" lon="5.77705">
        <ele>382</ele>
        <time>2022-04-15T11:12:35Z</time>
      </trkpt>
      <trkpt lat="45.54059" lon="5.77703">
        <ele>381.9</ele>
        <time>2022-04-15T11:12:36Z</time>
      </trkpt>
      <trkpt lat="45.5406" lon="5.77698">
        <ele>381.8</ele>
        <time>2022-04-15T11:12:37Z</time>
      </trkpt>
      <trkpt lat="45.54063" lon="5.77689">
        <ele>381.7</ele>
        <time>2022-04-15T11:12:38Z</time>
      </trkpt>
      <trkpt lat="45.54064" lon="5.77682">
        <ele>381.5</ele>
        <time>2022-04-15T11:12:40Z</time>
      </trkpt>
      <trkpt lat="45.54066" lon="5.77677">
        <ele>381.5</ele>
        <time>2022-04-15T11:12:41Z</time>
      </trkpt>
      <trkpt lat="45.54068" lon="5.7767">
        <ele>381.3</ele>
        <time>2022-04-15T11:12:42Z</time>
      </trkpt>
      <trkpt lat="45.54072" lon="5.7766">
        <ele>381.2</ele>
        <time>2022-04-15T11:12:43Z</time>
      </trkpt>
      <trkpt lat="45.54074" lon="5.77654">
        <ele>381.1</ele>
        <time>2022-04-15T11:12:44Z</time>
      </trkpt>
      <trkpt lat="45.54077" lon="5.77646">
        <ele>380.9</ele>
        <time>2022-04-15T11:12:46Z</time>
      </trkpt>
      <trkpt lat="45.54079" lon="5.7764">
        <ele>380.9</ele>
        <time>2022-04-15T11:12:47Z</time>
      </trkpt>
      <trkpt lat="45.54081" lon="5.77634">
        <ele>380.8</ele>
        <time>2022-04-15T11:12:48Z</time>
      </trkpt>
      <trkpt lat="45.54084" lon="5.77628">
        <ele>380.8</ele>
        <time>2022-04-15T11:12:49Z</time>
      </trkpt>
      <trkpt lat="45.54087" lon="5.77623">
        <ele>380.7</ele>
        <time>2022-04-15T11:12:50Z</time>
      </trkpt>
      <trkpt lat="45.54091" lon="5.77616">
        <ele>380.6</ele>
        <time>2022-04-15T11:12:52Z</time>
      </trkpt>
      <trkpt lat="45.54094" lon="5.77613">
        <ele>380.6</ele>
        <time>2022-04-15T11:12:53Z</time>
      </trkpt>
      <trkpt lat="45.54097" lon="5.77609">
        <ele>380.6</ele>
        <time>2022-04-15T11:12:54Z</time>
      </trkpt>
      <trkpt lat="45.54099" lon="5.77605">
        <ele>380.5</ele>
        <time>2022-04-15T11:12:55Z</time>
      </trkpt>
      <trkpt lat="45.54102" lon="5.77599">
        <ele>380.5</ele>
        <time>2022-04-15T11:12:56Z</time>
      </trkpt>
      <trkpt lat="45.54103" lon="5.77593">
        <ele>380.5</ele>
        <time>2022-04-15T11:12:57Z</time>
      </trkpt>
      <trkpt lat="45.54103" lon="5.77587">
        <ele>380.5</ele>
        <time>2022-04-15T11:12:58Z</time>
      </trkpt>
      <trkpt lat="45.54105" lon="5.7758">
        <ele>380.4</ele>
        <time>2022-04-15T11:13:00Z</time>
      </trkpt>
      <trkpt lat="45.54106" lon="5.77575">
        <ele>380.4</ele>
        <time>2022-04-15T11:13:01Z</time>
      </trkpt>
      <trkpt lat="45.54107" lon="5.77567">
        <ele>380.4</ele>
        <time>2022-04-15T11:13:02Z</time>
      </trkpt>
      <trkpt lat="45.54107" lon="5.77562">
        <ele>380.4</ele>
        <time>2022-04-15T11:13:03Z</time>
      </trkpt>
      <trkpt lat="45.54109" lon="5.77555">
        <ele>380.4</ele>
        <time>2022-04-15T11:13:05Z</time>
      </trkpt>
      <trkpt lat="45.54111" lon="5.7755">
        <ele>380.4</ele>
        <time>2022-04-15T11:13:06Z</time>
      </trkpt>
      <trkpt lat="45.54112" lon="5.77546">
        <ele>380.4</ele>
        <time>2022-04-15T11:13:07Z</time>
      </trkpt>
      <trkpt lat="45.54114" lon="5.77541">
        <ele>380.3</ele>
        <time>2022-04-15T11:13:08Z</time>
      </trkpt>
      <trkpt lat="45.54116" lon="5.77536">
        <ele>380.3</ele>
        <time>2022-04-15T11:13:09Z</time>
      </trkpt>
      <trkpt lat="45.54117" lon="5.77532">
        <ele>380.3</ele>
        <time>2022-04-15T11:13:10Z</time>
      </trkpt>
      <trkpt lat="45.54119" lon="5.77526">
        <ele>380.2</ele>
        <time>2022-04-15T11:13:12Z</time>
      </trkpt>
      <trkpt lat="45.54122" lon="5.77519">
        <ele>380.2</ele>
        <time>2022-04-15T11:13:13Z</time>
      </trkpt>
      <trkpt lat="45.54125" lon="5.77511">
        <ele>380.1</ele>
        <time>2022-04-15T11:13:14Z</time>
      </trkpt>
      <trkpt lat="45.54127" lon="5.77507">
        <ele>380.1</ele>
        <time>2022-04-15T11:13:15Z</time>
      </trkpt>
      <trkpt lat="45.5413" lon="5.77499">
        <ele>380</ele>
        <time>2022-04-15T11:13:17Z</time>
      </trkpt>
      <trkpt lat="45.54134" lon="5.77489">
        <ele>379.9</ele>
        <time>2022-04-15T11:13:18Z</time>
      </trkpt>
      <trkpt lat="45.54137" lon="5.77482">
        <ele>379.8</ele>
        <time>2022-04-15T11:13:20Z</time>
      </trkpt>
      <trkpt lat="45.5414" lon="5.77475">
        <ele>379.7</ele>
        <time>2022-04-15T11:13:21Z</time>
      </trkpt>
      <trkpt lat="45.54142" lon="5.7747">
        <ele>379.6</ele>
        <time>2022-04-15T11:13:22Z</time>
      </trkpt>
      <trkpt lat="45.54145" lon="5.77461">
        <ele>379.5</ele>
        <time>2022-04-15T11:13:24Z</time>
      </trkpt>
      <trkpt lat="45.54149" lon="5.77452">
        <ele>379.4</ele>
        <time>2022-04-15T11:13:26Z</time>
      </trkpt>
      <trkpt lat="45.54151" lon="5.77447">
        <ele>379.3</ele>
        <time>2022-04-15T11:13:27Z</time>
      </trkpt>
      <trkpt lat="45.54153" lon="5.77441">
        <ele>379.3</ele>
        <time>2022-04-15T11:13:28Z</time>
      </trkpt>
      <trkpt lat="45.54156" lon="5.77432">
        <ele>379.2</ele>
        <time>2022-04-15T11:13:30Z</time>
      </trkpt>
      <trkpt lat="45.5416" lon="5.77426">
        <ele>379.2</ele>
        <time>2022-04-15T11:13:31Z</time>
      </trkpt>
      <trkpt lat="45.54162" lon="5.7742">
        <ele>379.1</ele>
        <time>2022-04-15T11:13:32Z</time>
      </trkpt>
      <trkpt lat="45.54164" lon="5.77413">
        <ele>379.1</ele>
        <time>2022-04-15T11:13:33Z</time>
      </trkpt>
      <trkpt lat="45.54166" lon="5.77408">
        <ele>379</ele>
        <time>2022-04-15T11:13:34Z</time>
      </trkpt>
      <trkpt lat="45.5417" lon="5.77398">
        <ele>379</ele>
        <time>2022-04-15T11:13:35Z</time>
      </trkpt>
      <trkpt lat="45.54174" lon="5.7739">
        <ele>378.9</ele>
        <time>2022-04-15T11:13:37Z</time>
      </trkpt>
      <trkpt lat="45.54176" lon="5.77385">
        <ele>378.9</ele>
        <time>2022-04-15T11:13:38Z</time>
      </trkpt>
      <trkpt lat="45.54179" lon="5.77379">
        <ele>378.8</ele>
        <time>2022-04-15T11:13:39Z</time>
      </trkpt>
      <trkpt lat="45.54181" lon="5.77374">
        <ele>378.8</ele>
        <time>2022-04-15T11:13:40Z</time>
      </trkpt>
      <trkpt lat="45.54184" lon="5.77368">
        <ele>378.8</ele>
        <time>2022-04-15T11:13:41Z</time>
      </trkpt>
      <trkpt lat="45.54186" lon="5.77363">
        <ele>378.7</ele>
        <time>2022-04-15T11:13:42Z</time>
      </trkpt>
      <trkpt lat="45.54188" lon="5.77357">
        <ele>378.7</ele>
        <time>2022-04-15T11:13:43Z</time>
      </trkpt>
      <trkpt lat="45.5419" lon="5.77351">
        <ele>378.7</ele>
        <time>2022-04-15T11:13:44Z</time>
      </trkpt>
      <trkpt lat="45.54192" lon="5.77344">
        <ele>378.7</ele>
        <time>2022-04-15T11:13:45Z</time>
      </trkpt>
      <trkpt lat="45.54194" lon="5.77333">
        <ele>378.6</ele>
        <time>2022-04-15T11:13:47Z</time>
      </trkpt>
      <trkpt lat="45.54197" lon="5.77325">
        <ele>378.6</ele>
        <time>2022-04-15T11:13:48Z</time>
      </trkpt>
      <trkpt lat="45.542" lon="5.7732">
        <ele>378.6</ele>
        <time>2022-04-15T11:13:50Z</time>
      </trkpt>
      <trkpt lat="45.54202" lon="5.77313">
        <ele>378.6</ele>
        <time>2022-04-15T11:13:51Z</time>
      </trkpt>
      <trkpt lat="45.54206" lon="5.77305">
        <ele>378.6</ele>
        <time>2022-04-15T11:13:53Z</time>
      </trkpt>
      <trkpt lat="45.54208" lon="5.77298">
        <ele>378.6</ele>
        <time>2022-04-15T11:13:54Z</time>
      </trkpt>
      <trkpt lat="45.54211" lon="5.77289">
        <ele>378.7</ele>
        <time>2022-04-15T11:13:56Z</time>
      </trkpt>
      <trkpt lat="45.54215" lon="5.7728">
        <ele>378.8</ele>
        <time>2022-04-15T11:13:57Z</time>
      </trkpt>
      <trkpt lat="45.54217" lon="5.77275">
        <ele>378.8</ele>
        <time>2022-04-15T11:13:59Z</time>
      </trkpt>
      <trkpt lat="45.54219" lon="5.77264">
        <ele>378.9</ele>
        <time>2022-04-15T11:14:01Z</time>
      </trkpt>
      <trkpt lat="45.54221" lon="5.77259">
        <ele>378.9</ele>
        <time>2022-04-15T11:14:02Z</time>
      </trkpt>
      <trkpt lat="45.54224" lon="5.77253">
        <ele>379</ele>
        <time>2022-04-15T11:14:03Z</time>
      </trkpt>
      <trkpt lat="45.54226" lon="5.77247">
        <ele>379</ele>
        <time>2022-04-15T11:14:04Z</time>
      </trkpt>
      <trkpt lat="45.54229" lon="5.77239">
        <ele>379.1</ele>
        <time>2022-04-15T11:14:06Z</time>
      </trkpt>
      <trkpt lat="45.5423" lon="5.77234">
        <ele>379.1</ele>
        <time>2022-04-15T11:14:07Z</time>
      </trkpt>
      <trkpt lat="45.54231" lon="5.77229">
        <ele>379.2</ele>
        <time>2022-04-15T11:14:08Z</time>
      </trkpt>
      <trkpt lat="45.54231" lon="5.77222">
        <ele>379.2</ele>
        <time>2022-04-15T11:14:09Z</time>
      </trkpt>
      <trkpt lat="45.54232" lon="5.77214">
        <ele>379.3</ele>
        <time>2022-04-15T11:14:11Z</time>
      </trkpt>
      <trkpt lat="45.54233" lon="5.77208">
        <ele>379.4</ele>
        <time>2022-04-15T11:14:12Z</time>
      </trkpt>
      <trkpt lat="45.54234" lon="5.77206">
        <ele>379.4</ele>
        <time>2022-04-15T11:14:13Z</time>
      </trkpt>
      <trkpt lat="45.54236" lon="5.77201">
        <ele>379.5</ele>
        <time>2022-04-15T11:14:14Z</time>
      </trkpt>
      <trkpt lat="45.54238" lon="5.77197">
        <ele>379.5</ele>
        <time>2022-04-15T11:14:15Z</time>
      </trkpt>
      <trkpt lat="45.54239" lon="5.77191">
        <ele>379.6</ele>
        <time>2022-04-15T11:14:16Z</time>
      </trkpt>
      <trkpt lat="45.5424" lon="5.77183">
        <ele>379.6</ele>
        <time>2022-04-15T11:14:18Z</time>
      </trkpt>
      <trkpt lat="45.54242" lon="5.77175">
        <ele>379.7</ele>
        <time>2022-04-15T11:14:19Z</time>
      </trkpt>
      <trkpt lat="45.54243" lon="5.77166">
        <ele>379.8</ele>
        <time>2022-04-15T11:14:21Z</time>
      </trkpt>
      <trkpt lat="45.54244" lon="5.77158">
        <ele>379.9</ele>
        <time>2022-04-15T11:14:22Z</time>
      </trkpt>
      <trkpt lat="45.54245" lon="5.77151">
        <ele>380</ele>
        <time>2022-04-15T11:14:24Z</time>
      </trkpt>
      <trkpt lat="45.54245" lon="5.77141">
        <ele>380</ele>
        <time>2022-04-15T11:14:26Z</time>
      </trkpt>
      <trkpt lat="45.54246" lon="5.77134">
        <ele>380.1</ele>
        <time>2022-04-15T11:14:27Z</time>
      </trkpt>
      <trkpt lat="45.54245" lon="5.77124">
        <ele>380.2</ele>
        <time>2022-04-15T11:14:29Z</time>
      </trkpt>
      <trkpt lat="45.54246" lon="5.77116">
        <ele>380.3</ele>
        <time>2022-04-15T11:14:30Z</time>
      </trkpt>
      <trkpt lat="45.54246" lon="5.7711">
        <ele>380.4</ele>
        <time>2022-04-15T11:14:32Z</time>
      </trkpt>
      <trkpt lat="45.54247" lon="5.77104">
        <ele>380.5</ele>
        <time>2022-04-15T11:14:33Z</time>
      </trkpt>
      <trkpt lat="45.54247" lon="5.77099">
        <ele>380.5</ele>
        <time>2022-04-15T11:14:34Z</time>
      </trkpt>
      <trkpt lat="45.54247" lon="5.77092">
        <ele>380.6</ele>
        <time>2022-04-15T11:14:35Z</time>
      </trkpt>
      <trkpt lat="45.54247" lon="5.77087">
        <ele>380.7</ele>
        <time>2022-04-15T11:14:37Z</time>
      </trkpt>
      <trkpt lat="45.54247" lon="5.77082">
        <ele>380.7</ele>
        <time>2022-04-15T11:14:38Z</time>
      </trkpt>
      <trkpt lat="45.54247" lon="5.77077">
        <ele>380.8</ele>
        <time>2022-04-15T11:14:39Z</time>
      </trkpt>
      <trkpt lat="45.54247" lon="5.77071">
        <ele>380.8</ele>
        <time>2022-04-15T11:14:40Z</time>
      </trkpt>
      <trkpt lat="45.54246" lon="5.77065">
        <ele>380.9</ele>
        <time>2022-04-15T11:14:41Z</time>
      </trkpt>
      <trkpt lat="45.54246" lon="5.77062">
        <ele>380.9</ele>
        <time>2022-04-15T11:14:42Z</time>
      </trkpt>
      <trkpt lat="45.54246" lon="5.77058">
        <ele>381</ele>
        <time>2022-04-15T11:14:43Z</time>
      </trkpt>
      <trkpt lat="45.54246" lon="5.77052">
        <ele>381</ele>
        <time>2022-04-15T11:14:44Z</time>
      </trkpt>
      <trkpt lat="45.54245" lon="5.77046">
        <ele>381.1</ele>
        <time>2022-04-15T11:14:45Z</time>
      </trkpt>
      <trkpt lat="45.54245" lon="5.77041">
        <ele>381.1</ele>
        <time>2022-04-15T11:14:46Z</time>
      </trkpt>
      <trkpt lat="45.54244" lon="5.77036">
        <ele>381.2</ele>
        <time>2022-04-15T11:14:47Z</time>
      </trkpt>
      <trkpt lat="45.54244" lon="5.77032">
        <ele>381.2</ele>
        <time>2022-04-15T11:14:48Z</time>
      </trkpt>
      <trkpt lat="45.54243" lon="5.77028">
        <ele>381.2</ele>
        <time>2022-04-15T11:14:50Z</time>
      </trkpt>
      <trkpt lat="45.54243" lon="5.77023">
        <ele>381.2</ele>
        <time>2022-04-15T11:14:51Z</time>
      </trkpt>
      <trkpt lat="45.54243" lon="5.77018">
        <ele>381.2</ele>
        <time>2022-04-15T11:14:52Z</time>
      </trkpt>
      <trkpt lat="45.54243" lon="5.77014">
        <ele>381.2</ele>
        <time>2022-04-15T11:14:53Z</time>
      </trkpt>
      <trkpt lat="45.54242" lon="5.77008">
        <ele>381.2</ele>
        <time>2022-04-15T11:14:54Z</time>
      </trkpt>
      <trkpt lat="45.54242" lon="5.76998">
        <ele>381.2</ele>
        <time>2022-04-15T11:14:55Z</time>
      </trkpt>
      <trkpt lat="45.54241" lon="5.76993">
        <ele>381.2</ele>
        <time>2022-04-15T11:14:56Z</time>
      </trkpt>
      <trkpt lat="45.54241" lon="5.76986">
        <ele>381.1</ele>
        <time>2022-04-15T11:14:58Z</time>
      </trkpt>
      <trkpt lat="45.54241" lon="5.7698">
        <ele>381.1</ele>
        <time>2022-04-15T11:14:59Z</time>
      </trkpt>
      <trkpt lat="45.5424" lon="5.76974">
        <ele>381</ele>
        <time>2022-04-15T11:15:00Z</time>
      </trkpt>
      <trkpt lat="45.54239" lon="5.76966">
        <ele>381</ele>
        <time>2022-04-15T11:15:01Z</time>
      </trkpt>
      <trkpt lat="45.54238" lon="5.76951">
        <ele>380.9</ele>
        <time>2022-04-15T11:15:03Z</time>
      </trkpt>
      <trkpt lat="45.54236" lon="5.76945">
        <ele>380.9</ele>
        <time>2022-04-15T11:15:04Z</time>
      </trkpt>
      <trkpt lat="45.54235" lon="5.76938">
        <ele>381</ele>
        <time>2022-04-15T11:15:05Z</time>
      </trkpt>
      <trkpt lat="45.54233" lon="5.76934">
        <ele>381</ele>
        <time>2022-04-15T11:15:06Z</time>
      </trkpt>
      <trkpt lat="45.54231" lon="5.76929">
        <ele>381.1</ele>
        <time>2022-04-15T11:15:07Z</time>
      </trkpt>
      <trkpt lat="45.54231" lon="5.76923">
        <ele>381.1</ele>
        <time>2022-04-15T11:15:08Z</time>
      </trkpt>
      <trkpt lat="45.5423" lon="5.76917">
        <ele>381.2</ele>
        <time>2022-04-15T11:15:09Z</time>
      </trkpt>
      <trkpt lat="45.54229" lon="5.76912">
        <ele>381.2</ele>
        <time>2022-04-15T11:15:10Z</time>
      </trkpt>
      <trkpt lat="45.54229" lon="5.76904">
        <ele>381.3</ele>
        <time>2022-04-15T11:15:11Z</time>
      </trkpt>
      <trkpt lat="45.54228" lon="5.76897">
        <ele>381.4</ele>
        <time>2022-04-15T11:15:12Z</time>
      </trkpt>
      <trkpt lat="45.54228" lon="5.76892">
        <ele>381.4</ele>
        <time>2022-04-15T11:15:14Z</time>
      </trkpt>
      <trkpt lat="45.54228" lon="5.76886">
        <ele>381.5</ele>
        <time>2022-04-15T11:15:15Z</time>
      </trkpt>
      <trkpt lat="45.54228" lon="5.76881">
        <ele>381.5</ele>
        <time>2022-04-15T11:15:16Z</time>
      </trkpt>
      <trkpt lat="45.54228" lon="5.76872">
        <ele>381.6</ele>
        <time>2022-04-15T11:15:17Z</time>
      </trkpt>
      <trkpt lat="45.54227" lon="5.76866">
        <ele>381.6</ele>
        <time>2022-04-15T11:15:19Z</time>
      </trkpt>
      <trkpt lat="45.54226" lon="5.7686">
        <ele>381.7</ele>
        <time>2022-04-15T11:15:20Z</time>
      </trkpt>
      <trkpt lat="45.54224" lon="5.76851">
        <ele>381.8</ele>
        <time>2022-04-15T11:15:22Z</time>
      </trkpt>
      <trkpt lat="45.54222" lon="5.76842">
        <ele>381.9</ele>
        <time>2022-04-15T11:15:23Z</time>
      </trkpt>
      <trkpt lat="45.5422" lon="5.76836">
        <ele>382</ele>
        <time>2022-04-15T11:15:24Z</time>
      </trkpt>
      <trkpt lat="45.54217" lon="5.76829">
        <ele>382.1</ele>
        <time>2022-04-15T11:15:26Z</time>
      </trkpt>
      <trkpt lat="45.54215" lon="5.76823">
        <ele>382.2</ele>
        <time>2022-04-15T11:15:28Z</time>
      </trkpt>
      <trkpt lat="45.54214" lon="5.76818">
        <ele>382.2</ele>
        <time>2022-04-15T11:15:29Z</time>
      </trkpt>
      <trkpt lat="45.54213" lon="5.76811">
        <ele>382.3</ele>
        <time>2022-04-15T11:15:30Z</time>
      </trkpt>
      <trkpt lat="45.54212" lon="5.76805">
        <ele>382.4</ele>
        <time>2022-04-15T11:15:31Z</time>
      </trkpt>
      <trkpt lat="45.54211" lon="5.768">
        <ele>382.4</ele>
        <time>2022-04-15T11:15:32Z</time>
      </trkpt>
      <trkpt lat="45.5421" lon="5.76794">
        <ele>382.5</ele>
        <time>2022-04-15T11:15:34Z</time>
      </trkpt>
      <trkpt lat="45.5421" lon="5.76789">
        <ele>382.6</ele>
        <time>2022-04-15T11:15:35Z</time>
      </trkpt>
      <trkpt lat="45.54209" lon="5.76785">
        <ele>382.6</ele>
        <time>2022-04-15T11:15:36Z</time>
      </trkpt>
      <trkpt lat="45.54207" lon="5.76773">
        <ele>382.8</ele>
        <time>2022-04-15T11:15:38Z</time>
      </trkpt>
      <trkpt lat="45.54207" lon="5.76769">
        <ele>382.8</ele>
        <time>2022-04-15T11:15:39Z</time>
      </trkpt>
      <trkpt lat="45.54206" lon="5.76764">
        <ele>382.9</ele>
        <time>2022-04-15T11:15:40Z</time>
      </trkpt>
      <trkpt lat="45.54204" lon="5.76755">
        <ele>382.9</ele>
        <time>2022-04-15T11:15:42Z</time>
      </trkpt>
      <trkpt lat="45.54203" lon="5.7675">
        <ele>382.9</ele>
        <time>2022-04-15T11:15:43Z</time>
      </trkpt>
      <trkpt lat="45.54203" lon="5.76744">
        <ele>382.9</ele>
        <time>2022-04-15T11:15:44Z</time>
      </trkpt>
      <trkpt lat="45.54202" lon="5.76739">
        <ele>382.9</ele>
        <time>2022-04-15T11:15:45Z</time>
      </trkpt>
      <trkpt lat="45.54202" lon="5.76733">
        <ele>382.9</ele>
        <time>2022-04-15T11:15:46Z</time>
      </trkpt>
      <trkpt lat="45.542" lon="5.76726">
        <ele>382.8</ele>
        <time>2022-04-15T11:15:47Z</time>
      </trkpt>
      <trkpt lat="45.542" lon="5.76718">
        <ele>382.8</ele>
        <time>2022-04-15T11:15:48Z</time>
      </trkpt>
      <trkpt lat="45.54197" lon="5.76705">
        <ele>382.7</ele>
        <time>2022-04-15T11:15:50Z</time>
      </trkpt>
      <trkpt lat="45.54196" lon="5.76695">
        <ele>382.6</ele>
        <time>2022-04-15T11:15:52Z</time>
      </trkpt>
      <trkpt lat="45.54195" lon="5.76687">
        <ele>382.4</ele>
        <time>2022-04-15T11:15:53Z</time>
      </trkpt>
      <trkpt lat="45.54192" lon="5.76673">
        <ele>382.2</ele>
        <time>2022-04-15T11:15:55Z</time>
      </trkpt>
      <trkpt lat="45.54191" lon="5.76666">
        <ele>382.1</ele>
        <time>2022-04-15T11:15:56Z</time>
      </trkpt>
      <trkpt lat="45.5419" lon="5.76659">
        <ele>382</ele>
        <time>2022-04-15T11:15:57Z</time>
      </trkpt>
      <trkpt lat="45.54188" lon="5.76652">
        <ele>381.9</ele>
        <time>2022-04-15T11:15:58Z</time>
      </trkpt>
      <trkpt lat="45.54187" lon="5.76645">
        <ele>381.8</ele>
        <time>2022-04-15T11:15:59Z</time>
      </trkpt>
      <trkpt lat="45.54186" lon="5.76638">
        <ele>381.7</ele>
        <time>2022-04-15T11:16:00Z</time>
      </trkpt>
      <trkpt lat="45.54184" lon="5.76631">
        <ele>381.6</ele>
        <time>2022-04-15T11:16:01Z</time>
      </trkpt>
      <trkpt lat="45.54183" lon="5.76623">
        <ele>381.6</ele>
        <time>2022-04-15T11:16:02Z</time>
      </trkpt>
      <trkpt lat="45.54182" lon="5.76616">
        <ele>381.5</ele>
        <time>2022-04-15T11:16:03Z</time>
      </trkpt>
      <trkpt lat="45.54181" lon="5.76609">
        <ele>381.4</ele>
        <time>2022-04-15T11:16:04Z</time>
      </trkpt>
      <trkpt lat="45.54181" lon="5.76601">
        <ele>381.3</ele>
        <time>2022-04-15T11:16:05Z</time>
      </trkpt>
      <trkpt lat="45.5418" lon="5.76593">
        <ele>381.2</ele>
        <time>2022-04-15T11:16:06Z</time>
      </trkpt>
      <trkpt lat="45.5418" lon="5.76586">
        <ele>381</ele>
        <time>2022-04-15T11:16:07Z</time>
      </trkpt>
      <trkpt lat="45.5418" lon="5.76578">
        <ele>380.9</ele>
        <time>2022-04-15T11:16:08Z</time>
      </trkpt>
      <trkpt lat="45.5418" lon="5.76569">
        <ele>380.9</ele>
        <time>2022-04-15T11:16:09Z</time>
      </trkpt>
      <trkpt lat="45.5418" lon="5.76562">
        <ele>380.8</ele>
        <time>2022-04-15T11:16:10Z</time>
      </trkpt>
      <trkpt lat="45.5418" lon="5.76554">
        <ele>380.7</ele>
        <time>2022-04-15T11:16:11Z</time>
      </trkpt>
      <trkpt lat="45.54179" lon="5.76546">
        <ele>380.7</ele>
        <time>2022-04-15T11:16:12Z</time>
      </trkpt>
      <trkpt lat="45.54179" lon="5.76538">
        <ele>380.7</ele>
        <time>2022-04-15T11:16:13Z</time>
      </trkpt>
      <trkpt lat="45.54179" lon="5.7653">
        <ele>380.7</ele>
        <time>2022-04-15T11:16:14Z</time>
      </trkpt>
      <trkpt lat="45.5418" lon="5.76522">
        <ele>380.7</ele>
        <time>2022-04-15T11:16:15Z</time>
      </trkpt>
      <trkpt lat="45.54181" lon="5.76515">
        <ele>380.7</ele>
        <time>2022-04-15T11:16:16Z</time>
      </trkpt>
      <trkpt lat="45.54181" lon="5.76507">
        <ele>380.7</ele>
        <time>2022-04-15T11:16:17Z</time>
      </trkpt>
      <trkpt lat="45.54181" lon="5.76499">
        <ele>380.8</ele>
        <time>2022-04-15T11:16:18Z</time>
      </trkpt>
      <trkpt lat="45.5418" lon="5.76492">
        <ele>380.8</ele>
        <time>2022-04-15T11:16:19Z</time>
      </trkpt>
      <trkpt lat="45.54181" lon="5.76485">
        <ele>380.9</ele>
        <time>2022-04-15T11:16:20Z</time>
      </trkpt>
      <trkpt lat="45.5418" lon="5.76478">
        <ele>380.9</ele>
        <time>2022-04-15T11:16:21Z</time>
      </trkpt>
      <trkpt lat="45.5418" lon="5.76471">
        <ele>380.9</ele>
        <time>2022-04-15T11:16:22Z</time>
      </trkpt>
      <trkpt lat="45.5418" lon="5.76465">
        <ele>380.9</ele>
        <time>2022-04-15T11:16:23Z</time>
      </trkpt>
      <trkpt lat="45.5418" lon="5.76458">
        <ele>380.9</ele>
        <time>2022-04-15T11:16:24Z</time>
      </trkpt>
      <trkpt lat="45.5418" lon="5.76451">
        <ele>381</ele>
        <time>2022-04-15T11:16:25Z</time>
      </trkpt>
      <trkpt lat="45.54179" lon="5.76445">
        <ele>381</ele>
        <time>2022-04-15T11:16:26Z</time>
      </trkpt>
      <trkpt lat="45.54179" lon="5.76438">
        <ele>381</ele>
        <time>2022-04-15T11:16:27Z</time>
      </trkpt>
      <trkpt lat="45.54179" lon="5.76435">
        <ele>381</ele>
        <time>2022-04-15T11:16:28Z</time>
      </trkpt>
      <trkpt lat="45.54179" lon="5.76426">
        <ele>381</ele>
        <time>2022-04-15T11:16:29Z</time>
      </trkpt>
      <trkpt lat="45.54179" lon="5.76418">
        <ele>381</ele>
        <time>2022-04-15T11:16:30Z</time>
      </trkpt>
      <trkpt lat="45.54179" lon="5.76411">
        <ele>381</ele>
        <time>2022-04-15T11:16:31Z</time>
      </trkpt>
      <trkpt lat="45.54179" lon="5.76404">
        <ele>381</ele>
        <time>2022-04-15T11:16:32Z</time>
      </trkpt>
      <trkpt lat="45.54179" lon="5.76398">
        <ele>381</ele>
        <time>2022-04-15T11:16:33Z</time>
      </trkpt>
      <trkpt lat="45.54179" lon="5.76391">
        <ele>381</ele>
        <time>2022-04-15T11:16:34Z</time>
      </trkpt>
      <trkpt lat="45.54179" lon="5.76385">
        <ele>381</ele>
        <time>2022-04-15T11:16:35Z</time>
      </trkpt>
      <trkpt lat="45.54177" lon="5.7638">
        <ele>380.9</ele>
        <time>2022-04-15T11:16:36Z</time>
      </trkpt>
      <trkpt lat="45.54178" lon="5.76365">
        <ele>380.9</ele>
        <time>2022-04-15T11:16:38Z</time>
      </trkpt>
      <trkpt lat="45.54179" lon="5.76358">
        <ele>380.8</ele>
        <time>2022-04-15T11:16:39Z</time>
      </trkpt>
      <trkpt lat="45.5418" lon="5.76352">
        <ele>380.8</ele>
        <time>2022-04-15T11:16:40Z</time>
      </trkpt>
      <trkpt lat="45.54181" lon="5.76349">
        <ele>380.8</ele>
        <time>2022-04-15T11:16:41Z</time>
      </trkpt>
      <trkpt lat="45.54183" lon="5.7634">
        <ele>380.7</ele>
        <time>2022-04-15T11:16:42Z</time>
      </trkpt>
      <trkpt lat="45.54185" lon="5.76331">
        <ele>380.6</ele>
        <time>2022-04-15T11:16:43Z</time>
      </trkpt>
      <trkpt lat="45.54186" lon="5.76324">
        <ele>380.6</ele>
        <time>2022-04-15T11:16:44Z</time>
      </trkpt>
      <trkpt lat="45.54187" lon="5.76317">
        <ele>380.5</ele>
        <time>2022-04-15T11:16:45Z</time>
      </trkpt>
      <trkpt lat="45.54189" lon="5.76309">
        <ele>380.4</ele>
        <time>2022-04-15T11:16:46Z</time>
      </trkpt>
      <trkpt lat="45.54191" lon="5.76301">
        <ele>380.3</ele>
        <time>2022-04-15T11:16:47Z</time>
      </trkpt>
      <trkpt lat="45.54192" lon="5.76294">
        <ele>380.2</ele>
        <time>2022-04-15T11:16:48Z</time>
      </trkpt>
      <trkpt lat="45.54194" lon="5.76287">
        <ele>380.1</ele>
        <time>2022-04-15T11:16:49Z</time>
      </trkpt>
      <trkpt lat="45.54195" lon="5.76279">
        <ele>380.1</ele>
        <time>2022-04-15T11:16:50Z</time>
      </trkpt>
      <trkpt lat="45.54197" lon="5.76271">
        <ele>380</ele>
        <time>2022-04-15T11:16:51Z</time>
      </trkpt>
      <trkpt lat="45.54198" lon="5.76264">
        <ele>380</ele>
        <time>2022-04-15T11:16:52Z</time>
      </trkpt>
      <trkpt lat="45.542" lon="5.76257">
        <ele>380</ele>
        <time>2022-04-15T11:16:53Z</time>
      </trkpt>
      <trkpt lat="45.54201" lon="5.7625">
        <ele>379.9</ele>
        <time>2022-04-15T11:16:54Z</time>
      </trkpt>
      <trkpt lat="45.54202" lon="5.76242">
        <ele>379.9</ele>
        <time>2022-04-15T11:16:55Z</time>
      </trkpt>
      <trkpt lat="45.54205" lon="5.76235">
        <ele>379.9</ele>
        <time>2022-04-15T11:16:56Z</time>
      </trkpt>
      <trkpt lat="45.54207" lon="5.76229">
        <ele>379.9</ele>
        <time>2022-04-15T11:16:57Z</time>
      </trkpt>
      <trkpt lat="45.54209" lon="5.76222">
        <ele>379.9</ele>
        <time>2022-04-15T11:16:58Z</time>
      </trkpt>
      <trkpt lat="45.54211" lon="5.76215">
        <ele>379.9</ele>
        <time>2022-04-15T11:16:59Z</time>
      </trkpt>
      <trkpt lat="45.54212" lon="5.76208">
        <ele>379.9</ele>
        <time>2022-04-15T11:17:00Z</time>
      </trkpt>
      <trkpt lat="45.54214" lon="5.762">
        <ele>379.9</ele>
        <time>2022-04-15T11:17:01Z</time>
      </trkpt>
      <trkpt lat="45.54215" lon="5.76193">
        <ele>379.9</ele>
        <time>2022-04-15T11:17:02Z</time>
      </trkpt>
      <trkpt lat="45.54217" lon="5.76187">
        <ele>379.9</ele>
        <time>2022-04-15T11:17:03Z</time>
      </trkpt>
      <trkpt lat="45.54218" lon="5.7618">
        <ele>379.8</ele>
        <time>2022-04-15T11:17:04Z</time>
      </trkpt>
      <trkpt lat="45.5422" lon="5.76173">
        <ele>379.8</ele>
        <time>2022-04-15T11:17:05Z</time>
      </trkpt>
      <trkpt lat="45.54221" lon="5.76166">
        <ele>379.8</ele>
        <time>2022-04-15T11:17:06Z</time>
      </trkpt>
      <trkpt lat="45.54223" lon="5.76159">
        <ele>379.8</ele>
        <time>2022-04-15T11:17:07Z</time>
      </trkpt>
      <trkpt lat="45.54225" lon="5.76152">
        <ele>379.8</ele>
        <time>2022-04-15T11:17:08Z</time>
      </trkpt>
      <trkpt lat="45.54227" lon="5.76146">
        <ele>379.8</ele>
        <time>2022-04-15T11:17:09Z</time>
      </trkpt>
      <trkpt lat="45.54228" lon="5.7614">
        <ele>379.8</ele>
        <time>2022-04-15T11:17:10Z</time>
      </trkpt>
      <trkpt lat="45.54231" lon="5.76135">
        <ele>379.9</ele>
        <time>2022-04-15T11:17:11Z</time>
      </trkpt>
      <trkpt lat="45.54232" lon="5.76132">
        <ele>379.9</ele>
        <time>2022-04-15T11:17:12Z</time>
      </trkpt>
      <trkpt lat="45.54234" lon="5.76127">
        <ele>380</ele>
        <time>2022-04-15T11:17:13Z</time>
      </trkpt>
      <trkpt lat="45.54236" lon="5.76122">
        <ele>380.1</ele>
        <time>2022-04-15T11:17:14Z</time>
      </trkpt>
      <trkpt lat="45.54238" lon="5.76117">
        <ele>380.2</ele>
        <time>2022-04-15T11:17:15Z</time>
      </trkpt>
      <trkpt lat="45.5424" lon="5.76112">
        <ele>380.4</ele>
        <time>2022-04-15T11:17:16Z</time>
      </trkpt>
      <trkpt lat="45.54242" lon="5.76107">
        <ele>380.5</ele>
        <time>2022-04-15T11:17:17Z</time>
      </trkpt>
      <trkpt lat="45.54245" lon="5.761">
        <ele>380.8</ele>
        <time>2022-04-15T11:17:19Z</time>
      </trkpt>
      <trkpt lat="45.54247" lon="5.76091">
        <ele>381.1</ele>
        <time>2022-04-15T11:17:21Z</time>
      </trkpt>
      <trkpt lat="45.54249" lon="5.76086">
        <ele>381.3</ele>
        <time>2022-04-15T11:17:22Z</time>
      </trkpt>
      <trkpt lat="45.54249" lon="5.76084">
        <ele>381.4</ele>
        <time>2022-04-15T11:17:23Z</time>
      </trkpt>
      <trkpt lat="45.54252" lon="5.76078">
        <ele>381.7</ele>
        <time>2022-04-15T11:17:25Z</time>
      </trkpt>
      <trkpt lat="45.54256" lon="5.76078">
        <ele>381.8</ele>
        <time>2022-04-15T11:17:26Z</time>
      </trkpt>
      <trkpt lat="45.54259" lon="5.7608">
        <ele>381.8</ele>
        <time>2022-04-15T11:17:28Z</time>
      </trkpt>
      <trkpt lat="45.54262" lon="5.76083">
        <ele>381.8</ele>
        <time>2022-04-15T11:17:29Z</time>
      </trkpt>
      <trkpt lat="45.54264" lon="5.76086">
        <ele>381.8</ele>
        <time>2022-04-15T11:17:30Z</time>
      </trkpt>
      <trkpt lat="45.54267" lon="5.76089">
        <ele>381.8</ele>
        <time>2022-04-15T11:17:31Z</time>
      </trkpt>
      <trkpt lat="45.54272" lon="5.76095">
        <ele>381.8</ele>
        <time>2022-04-15T11:17:32Z</time>
      </trkpt>
      <trkpt lat="45.54276" lon="5.76099">
        <ele>381.7</ele>
        <time>2022-04-15T11:17:34Z</time>
      </trkpt>
      <trkpt lat="45.54279" lon="5.76102">
        <ele>381.7</ele>
        <time>2022-04-15T11:17:35Z</time>
      </trkpt>
      <trkpt lat="45.54284" lon="5.76109">
        <ele>381.7</ele>
        <time>2022-04-15T11:17:37Z</time>
      </trkpt>
      <trkpt lat="45.54289" lon="5.76116">
        <ele>381.7</ele>
        <time>2022-04-15T11:17:38Z</time>
      </trkpt>
      <trkpt lat="45.54292" lon="5.7612">
        <ele>381.7</ele>
        <time>2022-04-15T11:17:39Z</time>
      </trkpt>
      <trkpt lat="45.54296" lon="5.76125">
        <ele>381.7</ele>
        <time>2022-04-15T11:17:41Z</time>
      </trkpt>
      <trkpt lat="45.54301" lon="5.76132">
        <ele>381.7</ele>
        <time>2022-04-15T11:17:42Z</time>
      </trkpt>
      <trkpt lat="45.54304" lon="5.76137">
        <ele>381.7</ele>
        <time>2022-04-15T11:17:43Z</time>
      </trkpt>
      <trkpt lat="45.54308" lon="5.76142">
        <ele>381.8</ele>
        <time>2022-04-15T11:17:44Z</time>
      </trkpt>
      <trkpt lat="45.54311" lon="5.76147">
        <ele>381.8</ele>
        <time>2022-04-15T11:17:45Z</time>
      </trkpt>
      <trkpt lat="45.54314" lon="5.76153">
        <ele>381.8</ele>
        <time>2022-04-15T11:17:46Z</time>
      </trkpt>
      <trkpt lat="45.54317" lon="5.76159">
        <ele>381.8</ele>
        <time>2022-04-15T11:17:47Z</time>
      </trkpt>
      <trkpt lat="45.5432" lon="5.76165">
        <ele>381.9</ele>
        <time>2022-04-15T11:17:48Z</time>
      </trkpt>
      <trkpt lat="45.54323" lon="5.7617">
        <ele>381.9</ele>
        <time>2022-04-15T11:17:49Z</time>
      </trkpt>
      <trkpt lat="45.54325" lon="5.76177">
        <ele>381.9</ele>
        <time>2022-04-15T11:17:50Z</time>
      </trkpt>
      <trkpt lat="45.54327" lon="5.76183">
        <ele>382</ele>
        <time>2022-04-15T11:17:51Z</time>
      </trkpt>
      <trkpt lat="45.54329" lon="5.7619">
        <ele>382</ele>
        <time>2022-04-15T11:17:52Z</time>
      </trkpt>
      <trkpt lat="45.54331" lon="5.76197">
        <ele>382</ele>
        <time>2022-04-15T11:17:53Z</time>
      </trkpt>
      <trkpt lat="45.54332" lon="5.76203">
        <ele>382</ele>
        <time>2022-04-15T11:17:54Z</time>
      </trkpt>
      <trkpt lat="45.54334" lon="5.76209">
        <ele>382.1</ele>
        <time>2022-04-15T11:17:55Z</time>
      </trkpt>
      <trkpt lat="45.54336" lon="5.76215">
        <ele>382.1</ele>
        <time>2022-04-15T11:17:56Z</time>
      </trkpt>
      <trkpt lat="45.54337" lon="5.76221">
        <ele>382.1</ele>
        <time>2022-04-15T11:17:57Z</time>
      </trkpt>
      <trkpt lat="45.54339" lon="5.76227">
        <ele>382.2</ele>
        <time>2022-04-15T11:17:58Z</time>
      </trkpt>
      <trkpt lat="45.5434" lon="5.76234">
        <ele>382.2</ele>
        <time>2022-04-15T11:17:59Z</time>
      </trkpt>
      <trkpt lat="45.54342" lon="5.7624">
        <ele>382.2</ele>
        <time>2022-04-15T11:18:00Z</time>
      </trkpt>
      <trkpt lat="45.54343" lon="5.76246">
        <ele>382.2</ele>
        <time>2022-04-15T11:18:01Z</time>
      </trkpt>
      <trkpt lat="45.54345" lon="5.76252">
        <ele>382.2</ele>
        <time>2022-04-15T11:18:02Z</time>
      </trkpt>
      <trkpt lat="45.54347" lon="5.76258">
        <ele>382.3</ele>
        <time>2022-04-15T11:18:03Z</time>
      </trkpt>
      <trkpt lat="45.54349" lon="5.76264">
        <ele>382.3</ele>
        <time>2022-04-15T11:18:04Z</time>
      </trkpt>
      <trkpt lat="45.5435" lon="5.76271">
        <ele>382.3</ele>
        <time>2022-04-15T11:18:05Z</time>
      </trkpt>
      <trkpt lat="45.54352" lon="5.76278">
        <ele>382.3</ele>
        <time>2022-04-15T11:18:06Z</time>
      </trkpt>
      <trkpt lat="45.54354" lon="5.76284">
        <ele>382.3</ele>
        <time>2022-04-15T11:18:07Z</time>
      </trkpt>
      <trkpt lat="45.54356" lon="5.76291">
        <ele>382.3</ele>
        <time>2022-04-15T11:18:08Z</time>
      </trkpt>
      <trkpt lat="45.54358" lon="5.76298">
        <ele>382.4</ele>
        <time>2022-04-15T11:18:09Z</time>
      </trkpt>
      <trkpt lat="45.54359" lon="5.76304">
        <ele>382.4</ele>
        <time>2022-04-15T11:18:10Z</time>
      </trkpt>
      <trkpt lat="45.54361" lon="5.76311">
        <ele>382.4</ele>
        <time>2022-04-15T11:18:11Z</time>
      </trkpt>
      <trkpt lat="45.54363" lon="5.76318">
        <ele>382.4</ele>
        <time>2022-04-15T11:18:12Z</time>
      </trkpt>
      <trkpt lat="45.54364" lon="5.76324">
        <ele>382.4</ele>
        <time>2022-04-15T11:18:13Z</time>
      </trkpt>
      <trkpt lat="45.54366" lon="5.7633">
        <ele>382.4</ele>
        <time>2022-04-15T11:18:14Z</time>
      </trkpt>
      <trkpt lat="45.54368" lon="5.76337">
        <ele>382.4</ele>
        <time>2022-04-15T11:18:15Z</time>
      </trkpt>
      <trkpt lat="45.54369" lon="5.76344">
        <ele>382.4</ele>
        <time>2022-04-15T11:18:16Z</time>
      </trkpt>
      <trkpt lat="45.54371" lon="5.76351">
        <ele>382.4</ele>
        <time>2022-04-15T11:18:17Z</time>
      </trkpt>
      <trkpt lat="45.54373" lon="5.76357">
        <ele>382.4</ele>
        <time>2022-04-15T11:18:18Z</time>
      </trkpt>
      <trkpt lat="45.54375" lon="5.76364">
        <ele>382.4</ele>
        <time>2022-04-15T11:18:19Z</time>
      </trkpt>
      <trkpt lat="45.54377" lon="5.7637">
        <ele>382.4</ele>
        <time>2022-04-15T11:18:20Z</time>
      </trkpt>
      <trkpt lat="45.54379" lon="5.76378">
        <ele>382.4</ele>
        <time>2022-04-15T11:18:21Z</time>
      </trkpt>
      <trkpt lat="45.54381" lon="5.76385">
        <ele>382.4</ele>
        <time>2022-04-15T11:18:22Z</time>
      </trkpt>
      <trkpt lat="45.54383" lon="5.76392">
        <ele>382.3</ele>
        <time>2022-04-15T11:18:23Z</time>
      </trkpt>
      <trkpt lat="45.54385" lon="5.76399">
        <ele>382.3</ele>
        <time>2022-04-15T11:18:24Z</time>
      </trkpt>
      <trkpt lat="45.54387" lon="5.76406">
        <ele>382.3</ele>
        <time>2022-04-15T11:18:25Z</time>
      </trkpt>
      <trkpt lat="45.54388" lon="5.76413">
        <ele>382.3</ele>
        <time>2022-04-15T11:18:26Z</time>
      </trkpt>
      <trkpt lat="45.5439" lon="5.76421">
        <ele>382.3</ele>
        <time>2022-04-15T11:18:27Z</time>
      </trkpt>
      <trkpt lat="45.54392" lon="5.76428">
        <ele>382.3</ele>
        <time>2022-04-15T11:18:28Z</time>
      </trkpt>
      <trkpt lat="45.54394" lon="5.76436">
        <ele>382.3</ele>
        <time>2022-04-15T11:18:29Z</time>
      </trkpt>
      <trkpt lat="45.54395" lon="5.76444">
        <ele>382.3</ele>
        <time>2022-04-15T11:18:30Z</time>
      </trkpt>
      <trkpt lat="45.54397" lon="5.76451">
        <ele>382.3</ele>
        <time>2022-04-15T11:18:31Z</time>
      </trkpt>
      <trkpt lat="45.544" lon="5.76459">
        <ele>382.3</ele>
        <time>2022-04-15T11:18:32Z</time>
      </trkpt>
      <trkpt lat="45.54402" lon="5.76466">
        <ele>382.3</ele>
        <time>2022-04-15T11:18:33Z</time>
      </trkpt>
      <trkpt lat="45.54404" lon="5.76474">
        <ele>382.3</ele>
        <time>2022-04-15T11:18:34Z</time>
      </trkpt>
      <trkpt lat="45.54406" lon="5.76482">
        <ele>382.3</ele>
        <time>2022-04-15T11:18:35Z</time>
      </trkpt>
      <trkpt lat="45.54408" lon="5.7649">
        <ele>382.3</ele>
        <time>2022-04-15T11:18:36Z</time>
      </trkpt>
      <trkpt lat="45.5441" lon="5.76498">
        <ele>382.3</ele>
        <time>2022-04-15T11:18:37Z</time>
      </trkpt>
      <trkpt lat="45.54412" lon="5.76505">
        <ele>382.3</ele>
        <time>2022-04-15T11:18:38Z</time>
      </trkpt>
      <trkpt lat="45.54414" lon="5.76513">
        <ele>382.3</ele>
        <time>2022-04-15T11:18:39Z</time>
      </trkpt>
      <trkpt lat="45.54416" lon="5.76521">
        <ele>382.3</ele>
        <time>2022-04-15T11:18:40Z</time>
      </trkpt>
      <trkpt lat="45.54418" lon="5.7653">
        <ele>382.3</ele>
        <time>2022-04-15T11:18:41Z</time>
      </trkpt>
      <trkpt lat="45.5442" lon="5.76538">
        <ele>382.3</ele>
        <time>2022-04-15T11:18:42Z</time>
      </trkpt>
      <trkpt lat="45.54423" lon="5.76546">
        <ele>382.3</ele>
        <time>2022-04-15T11:18:43Z</time>
      </trkpt>
      <trkpt lat="45.54425" lon="5.76554">
        <ele>382.3</ele>
        <time>2022-04-15T11:18:44Z</time>
      </trkpt>
      <trkpt lat="45.54427" lon="5.76562">
        <ele>382.3</ele>
        <time>2022-04-15T11:18:45Z</time>
      </trkpt>
      <trkpt lat="45.54429" lon="5.76569">
        <ele>382.2</ele>
        <time>2022-04-15T11:18:46Z</time>
      </trkpt>
      <trkpt lat="45.54431" lon="5.76577">
        <ele>382.2</ele>
        <time>2022-04-15T11:18:47Z</time>
      </trkpt>
      <trkpt lat="45.54433" lon="5.76585">
        <ele>382.2</ele>
        <time>2022-04-15T11:18:48Z</time>
      </trkpt>
      <trkpt lat="45.54435" lon="5.76593">
        <ele>382.2</ele>
        <time>2022-04-15T11:18:49Z</time>
      </trkpt>
      <trkpt lat="45.54437" lon="5.76601">
        <ele>382.2</ele>
        <time>2022-04-15T11:18:50Z</time>
      </trkpt>
      <trkpt lat="45.54439" lon="5.76608">
        <ele>382.2</ele>
        <time>2022-04-15T11:18:51Z</time>
      </trkpt>
      <trkpt lat="45.54441" lon="5.76616">
        <ele>382.2</ele>
        <time>2022-04-15T11:18:52Z</time>
      </trkpt>
      <trkpt lat="45.54443" lon="5.76623">
        <ele>382.2</ele>
        <time>2022-04-15T11:18:53Z</time>
      </trkpt>
      <trkpt lat="45.54445" lon="5.76631">
        <ele>382.2</ele>
        <time>2022-04-15T11:18:54Z</time>
      </trkpt>
      <trkpt lat="45.54447" lon="5.76638">
        <ele>382.2</ele>
        <time>2022-04-15T11:18:55Z</time>
      </trkpt>
      <trkpt lat="45.5445" lon="5.76646">
        <ele>382.1</ele>
        <time>2022-04-15T11:18:56Z</time>
      </trkpt>
      <trkpt lat="45.54452" lon="5.76654">
        <ele>382.1</ele>
        <time>2022-04-15T11:18:57Z</time>
      </trkpt>
      <trkpt lat="45.54454" lon="5.76661">
        <ele>382.1</ele>
        <time>2022-04-15T11:18:58Z</time>
      </trkpt>
      <trkpt lat="45.54457" lon="5.76669">
        <ele>382.2</ele>
        <time>2022-04-15T11:18:59Z</time>
      </trkpt>
      <trkpt lat="45.5446" lon="5.76676">
        <ele>382.2</ele>
        <time>2022-04-15T11:19:00Z</time>
      </trkpt>
      <trkpt lat="45.54463" lon="5.76684">
        <ele>382.2</ele>
        <time>2022-04-15T11:19:01Z</time>
      </trkpt>
      <trkpt lat="45.54466" lon="5.76691">
        <ele>382.3</ele>
        <time>2022-04-15T11:19:02Z</time>
      </trkpt>
      <trkpt lat="45.54469" lon="5.76698">
        <ele>382.3</ele>
        <time>2022-04-15T11:19:03Z</time>
      </trkpt>
      <trkpt lat="45.54472" lon="5.76705">
        <ele>382.3</ele>
        <time>2022-04-15T11:19:04Z</time>
      </trkpt>
      <trkpt lat="45.54476" lon="5.76712">
        <ele>382.4</ele>
        <time>2022-04-15T11:19:05Z</time>
      </trkpt>
      <trkpt lat="45.54479" lon="5.76719">
        <ele>382.4</ele>
        <time>2022-04-15T11:19:06Z</time>
      </trkpt>
      <trkpt lat="45.54482" lon="5.76726">
        <ele>382.4</ele>
        <time>2022-04-15T11:19:07Z</time>
      </trkpt>
      <trkpt lat="45.54486" lon="5.76732">
        <ele>382.5</ele>
        <time>2022-04-15T11:19:08Z</time>
      </trkpt>
      <trkpt lat="45.54489" lon="5.76739">
        <ele>382.5</ele>
        <time>2022-04-15T11:19:09Z</time>
      </trkpt>
      <trkpt lat="45.54493" lon="5.76745">
        <ele>382.5</ele>
        <time>2022-04-15T11:19:10Z</time>
      </trkpt>
      <trkpt lat="45.54497" lon="5.76751">
        <ele>382.5</ele>
        <time>2022-04-15T11:19:11Z</time>
      </trkpt>
      <trkpt lat="45.54501" lon="5.76757">
        <ele>382.6</ele>
        <time>2022-04-15T11:19:12Z</time>
      </trkpt>
      <trkpt lat="45.54505" lon="5.76763">
        <ele>382.6</ele>
        <time>2022-04-15T11:19:13Z</time>
      </trkpt>
      <trkpt lat="45.54508" lon="5.76769">
        <ele>382.6</ele>
        <time>2022-04-15T11:19:14Z</time>
      </trkpt>
      <trkpt lat="45.54512" lon="5.76775">
        <ele>382.7</ele>
        <time>2022-04-15T11:19:15Z</time>
      </trkpt>
      <trkpt lat="45.54516" lon="5.76781">
        <ele>382.7</ele>
        <time>2022-04-15T11:19:16Z</time>
      </trkpt>
      <trkpt lat="45.5452" lon="5.76786">
        <ele>382.8</ele>
        <time>2022-04-15T11:19:17Z</time>
      </trkpt>
      <trkpt lat="45.54524" lon="5.76792">
        <ele>382.9</ele>
        <time>2022-04-15T11:19:18Z</time>
      </trkpt>
      <trkpt lat="45.54527" lon="5.76798">
        <ele>382.9</ele>
        <time>2022-04-15T11:19:19Z</time>
      </trkpt>
      <trkpt lat="45.54531" lon="5.76803">
        <ele>383</ele>
        <time>2022-04-15T11:19:20Z</time>
      </trkpt>
      <trkpt lat="45.54534" lon="5.76809">
        <ele>383</ele>
        <time>2022-04-15T11:19:21Z</time>
      </trkpt>
      <trkpt lat="45.54538" lon="5.76815">
        <ele>383.1</ele>
        <time>2022-04-15T11:19:22Z</time>
      </trkpt>
      <trkpt lat="45.54541" lon="5.7682">
        <ele>383.1</ele>
        <time>2022-04-15T11:19:23Z</time>
      </trkpt>
      <trkpt lat="45.54545" lon="5.76826">
        <ele>383.2</ele>
        <time>2022-04-15T11:19:24Z</time>
      </trkpt>
      <trkpt lat="45.54549" lon="5.76831">
        <ele>383.2</ele>
        <time>2022-04-15T11:19:25Z</time>
      </trkpt>
      <trkpt lat="45.54552" lon="5.76837">
        <ele>383.3</ele>
        <time>2022-04-15T11:19:26Z</time>
      </trkpt>
      <trkpt lat="45.54556" lon="5.76842">
        <ele>383.4</ele>
        <time>2022-04-15T11:19:27Z</time>
      </trkpt>
      <trkpt lat="45.54559" lon="5.76847">
        <ele>383.5</ele>
        <time>2022-04-15T11:19:28Z</time>
      </trkpt>
      <trkpt lat="45.54563" lon="5.76852">
        <ele>383.6</ele>
        <time>2022-04-15T11:19:29Z</time>
      </trkpt>
      <trkpt lat="45.54566" lon="5.76857">
        <ele>383.7</ele>
        <time>2022-04-15T11:19:30Z</time>
      </trkpt>
      <trkpt lat="45.5457" lon="5.76861">
        <ele>383.9</ele>
        <time>2022-04-15T11:19:31Z</time>
      </trkpt>
      <trkpt lat="45.54573" lon="5.76866">
        <ele>384</ele>
        <time>2022-04-15T11:19:32Z</time>
      </trkpt>
      <trkpt lat="45.54576" lon="5.76871">
        <ele>384.1</ele>
        <time>2022-04-15T11:19:33Z</time>
      </trkpt>
      <trkpt lat="45.54579" lon="5.76876">
        <ele>384.2</ele>
        <time>2022-04-15T11:19:34Z</time>
      </trkpt>
      <trkpt lat="45.54582" lon="5.7688">
        <ele>384.3</ele>
        <time>2022-04-15T11:19:35Z</time>
      </trkpt>
      <trkpt lat="45.54583" lon="5.76883">
        <ele>384.3</ele>
        <time>2022-04-15T11:19:36Z</time>
      </trkpt>
      <trkpt lat="45.54586" lon="5.76887">
        <ele>384.4</ele>
        <time>2022-04-15T11:19:37Z</time>
      </trkpt>
      <trkpt lat="45.54589" lon="5.76892">
        <ele>384.5</ele>
        <time>2022-04-15T11:19:38Z</time>
      </trkpt>
      <trkpt lat="45.54592" lon="5.76896">
        <ele>384.5</ele>
        <time>2022-04-15T11:19:39Z</time>
      </trkpt>
      <trkpt lat="45.54595" lon="5.769">
        <ele>384.6</ele>
        <time>2022-04-15T11:19:40Z</time>
      </trkpt>
      <trkpt lat="45.54598" lon="5.76905">
        <ele>384.7</ele>
        <time>2022-04-15T11:19:41Z</time>
      </trkpt>
      <trkpt lat="45.54601" lon="5.76912">
        <ele>384.8</ele>
        <time>2022-04-15T11:19:43Z</time>
      </trkpt>
      <trkpt lat="45.54606" lon="5.76918">
        <ele>384.9</ele>
        <time>2022-04-15T11:19:44Z</time>
      </trkpt>
      <trkpt lat="45.5461" lon="5.76923">
        <ele>385</ele>
        <time>2022-04-15T11:19:45Z</time>
      </trkpt>
      <trkpt lat="45.54616" lon="5.7693">
        <ele>385.1</ele>
        <time>2022-04-15T11:19:46Z</time>
      </trkpt>
      <trkpt lat="45.5462" lon="5.76937">
        <ele>385.2</ele>
        <time>2022-04-15T11:19:48Z</time>
      </trkpt>
      <trkpt lat="45.54623" lon="5.76943">
        <ele>385.3</ele>
        <time>2022-04-15T11:19:49Z</time>
      </trkpt>
      <trkpt lat="45.54629" lon="5.7695">
        <ele>385.5</ele>
        <time>2022-04-15T11:19:50Z</time>
      </trkpt>
      <trkpt lat="45.54633" lon="5.76956">
        <ele>385.6</ele>
        <time>2022-04-15T11:19:52Z</time>
      </trkpt>
      <trkpt lat="45.54635" lon="5.7696">
        <ele>385.7</ele>
        <time>2022-04-15T11:19:53Z</time>
      </trkpt>
      <trkpt lat="45.54641" lon="5.7697">
        <ele>385.9</ele>
        <time>2022-04-15T11:19:55Z</time>
      </trkpt>
      <trkpt lat="45.54646" lon="5.76978">
        <ele>386.1</ele>
        <time>2022-04-15T11:19:57Z</time>
      </trkpt>
      <trkpt lat="45.54649" lon="5.76982">
        <ele>386.2</ele>
        <time>2022-04-15T11:19:58Z</time>
      </trkpt>
      <trkpt lat="45.54652" lon="5.76986">
        <ele>386.3</ele>
        <time>2022-04-15T11:19:59Z</time>
      </trkpt>
      <trkpt lat="45.54655" lon="5.7699">
        <ele>386.4</ele>
        <time>2022-04-15T11:20:00Z</time>
      </trkpt>
      <trkpt lat="45.54658" lon="5.76994">
        <ele>386.4</ele>
        <time>2022-04-15T11:20:01Z</time>
      </trkpt>
      <trkpt lat="45.54661" lon="5.76996">
        <ele>386.5</ele>
        <time>2022-04-15T11:20:02Z</time>
      </trkpt>
      <trkpt lat="45.54664" lon="5.77">
        <ele>386.6</ele>
        <time>2022-04-15T11:20:03Z</time>
      </trkpt>
      <trkpt lat="45.54667" lon="5.77005">
        <ele>386.7</ele>
        <time>2022-04-15T11:20:04Z</time>
      </trkpt>
      <trkpt lat="45.54671" lon="5.77011">
        <ele>386.9</ele>
        <time>2022-04-15T11:20:05Z</time>
      </trkpt>
      <trkpt lat="45.54674" lon="5.77016">
        <ele>386.9</ele>
        <time>2022-04-15T11:20:06Z</time>
      </trkpt>
      <trkpt lat="45.54678" lon="5.77022">
        <ele>387</ele>
        <time>2022-04-15T11:20:08Z</time>
      </trkpt>
      <trkpt lat="45.5468" lon="5.77025">
        <ele>387.1</ele>
        <time>2022-04-15T11:20:09Z</time>
      </trkpt>
      <trkpt lat="45.54684" lon="5.7703">
        <ele>387.1</ele>
        <time>2022-04-15T11:20:10Z</time>
      </trkpt>
      <trkpt lat="45.54688" lon="5.77035">
        <ele>387.2</ele>
        <time>2022-04-15T11:20:11Z</time>
      </trkpt>
      <trkpt lat="45.54693" lon="5.7704">
        <ele>387.3</ele>
        <time>2022-04-15T11:20:12Z</time>
      </trkpt>
      <trkpt lat="45.54697" lon="5.77045">
        <ele>387.3</ele>
        <time>2022-04-15T11:20:14Z</time>
      </trkpt>
      <trkpt lat="45.54703" lon="5.77053">
        <ele>387.4</ele>
        <time>2022-04-15T11:20:16Z</time>
      </trkpt>
      <trkpt lat="45.54707" lon="5.77058">
        <ele>387.5</ele>
        <time>2022-04-15T11:20:17Z</time>
      </trkpt>
      <trkpt lat="45.54711" lon="5.77064">
        <ele>387.5</ele>
        <time>2022-04-15T11:20:18Z</time>
      </trkpt>
      <trkpt lat="45.54715" lon="5.77069">
        <ele>387.5</ele>
        <time>2022-04-15T11:20:19Z</time>
      </trkpt>
      <trkpt lat="45.5472" lon="5.77075">
        <ele>387.6</ele>
        <time>2022-04-15T11:20:21Z</time>
      </trkpt>
      <trkpt lat="45.54724" lon="5.77079">
        <ele>387.6</ele>
        <time>2022-04-15T11:20:22Z</time>
      </trkpt>
      <trkpt lat="45.54728" lon="5.77084">
        <ele>387.6</ele>
        <time>2022-04-15T11:20:23Z</time>
      </trkpt>
      <trkpt lat="45.54731" lon="5.77088">
        <ele>387.6</ele>
        <time>2022-04-15T11:20:24Z</time>
      </trkpt>
      <trkpt lat="45.54735" lon="5.77093">
        <ele>387.6</ele>
        <time>2022-04-15T11:20:25Z</time>
      </trkpt>
      <trkpt lat="45.54739" lon="5.77097">
        <ele>387.6</ele>
        <time>2022-04-15T11:20:26Z</time>
      </trkpt>
      <trkpt lat="45.54743" lon="5.77102">
        <ele>387.6</ele>
        <time>2022-04-15T11:20:27Z</time>
      </trkpt>
      <trkpt lat="45.54747" lon="5.77106">
        <ele>387.6</ele>
        <time>2022-04-15T11:20:28Z</time>
      </trkpt>
      <trkpt lat="45.54751" lon="5.77111">
        <ele>387.6</ele>
        <time>2022-04-15T11:20:29Z</time>
      </trkpt>
      <trkpt lat="45.54755" lon="5.77116">
        <ele>387.6</ele>
        <time>2022-04-15T11:20:30Z</time>
      </trkpt>
      <trkpt lat="45.54758" lon="5.7712">
        <ele>387.7</ele>
        <time>2022-04-15T11:20:31Z</time>
      </trkpt>
      <trkpt lat="45.54762" lon="5.77125">
        <ele>387.7</ele>
        <time>2022-04-15T11:20:32Z</time>
      </trkpt>
      <trkpt lat="45.54766" lon="5.77129">
        <ele>387.7</ele>
        <time>2022-04-15T11:20:33Z</time>
      </trkpt>
      <trkpt lat="45.5477" lon="5.77134">
        <ele>387.7</ele>
        <time>2022-04-15T11:20:34Z</time>
      </trkpt>
      <trkpt lat="45.54774" lon="5.77138">
        <ele>387.8</ele>
        <time>2022-04-15T11:20:35Z</time>
      </trkpt>
      <trkpt lat="45.54778" lon="5.77143">
        <ele>387.8</ele>
        <time>2022-04-15T11:20:36Z</time>
      </trkpt>
      <trkpt lat="45.54782" lon="5.77148">
        <ele>387.8</ele>
        <time>2022-04-15T11:20:37Z</time>
      </trkpt>
      <trkpt lat="45.54786" lon="5.77153">
        <ele>387.8</ele>
        <time>2022-04-15T11:20:38Z</time>
      </trkpt>
      <trkpt lat="45.54791" lon="5.77158">
        <ele>387.8</ele>
        <time>2022-04-15T11:20:39Z</time>
      </trkpt>
      <trkpt lat="45.54795" lon="5.77163">
        <ele>387.9</ele>
        <time>2022-04-15T11:20:40Z</time>
      </trkpt>
      <trkpt lat="45.54799" lon="5.77168">
        <ele>387.9</ele>
        <time>2022-04-15T11:20:41Z</time>
      </trkpt>
      <trkpt lat="45.54803" lon="5.77173">
        <ele>387.9</ele>
        <time>2022-04-15T11:20:42Z</time>
      </trkpt>
      <trkpt lat="45.54808" lon="5.77178">
        <ele>388</ele>
        <time>2022-04-15T11:20:43Z</time>
      </trkpt>
      <trkpt lat="45.54812" lon="5.77182">
        <ele>388</ele>
        <time>2022-04-15T11:20:44Z</time>
      </trkpt>
      <trkpt lat="45.54816" lon="5.77187">
        <ele>388</ele>
        <time>2022-04-15T11:20:45Z</time>
      </trkpt>
      <trkpt lat="45.5482" lon="5.77192">
        <ele>388.1</ele>
        <time>2022-04-15T11:20:46Z</time>
      </trkpt>
      <trkpt lat="45.54824" lon="5.77197">
        <ele>388.1</ele>
        <time>2022-04-15T11:20:47Z</time>
      </trkpt>
      <trkpt lat="45.54829" lon="5.77202">
        <ele>388.2</ele>
        <time>2022-04-15T11:20:48Z</time>
      </trkpt>
      <trkpt lat="45.54833" lon="5.77207">
        <ele>388.2</ele>
        <time>2022-04-15T11:20:49Z</time>
      </trkpt>
      <trkpt lat="45.54837" lon="5.77212">
        <ele>388.2</ele>
        <time>2022-04-15T11:20:50Z</time>
      </trkpt>
      <trkpt lat="45.54841" lon="5.77216">
        <ele>388.3</ele>
        <time>2022-04-15T11:20:51Z</time>
      </trkpt>
      <trkpt lat="45.54845" lon="5.77221">
        <ele>388.3</ele>
        <time>2022-04-15T11:20:52Z</time>
      </trkpt>
      <trkpt lat="45.54849" lon="5.77226">
        <ele>388.4</ele>
        <time>2022-04-15T11:20:53Z</time>
      </trkpt>
      <trkpt lat="45.54853" lon="5.77231">
        <ele>388.4</ele>
        <time>2022-04-15T11:20:54Z</time>
      </trkpt>
      <trkpt lat="45.54857" lon="5.77236">
        <ele>388.5</ele>
        <time>2022-04-15T11:20:55Z</time>
      </trkpt>
      <trkpt lat="45.5486" lon="5.77242">
        <ele>388.5</ele>
        <time>2022-04-15T11:20:56Z</time>
      </trkpt>
      <trkpt lat="45.54864" lon="5.77247">
        <ele>388.5</ele>
        <time>2022-04-15T11:20:57Z</time>
      </trkpt>
      <trkpt lat="45.54867" lon="5.77252">
        <ele>388.6</ele>
        <time>2022-04-15T11:20:58Z</time>
      </trkpt>
      <trkpt lat="45.5487" lon="5.77258">
        <ele>388.6</ele>
        <time>2022-04-15T11:20:59Z</time>
      </trkpt>
      <trkpt lat="45.54873" lon="5.77263">
        <ele>388.6</ele>
        <time>2022-04-15T11:21:00Z</time>
      </trkpt>
      <trkpt lat="45.54877" lon="5.77269">
        <ele>388.6</ele>
        <time>2022-04-15T11:21:01Z</time>
      </trkpt>
      <trkpt lat="45.5488" lon="5.77275">
        <ele>388.6</ele>
        <time>2022-04-15T11:21:02Z</time>
      </trkpt>
      <trkpt lat="45.54883" lon="5.77281">
        <ele>388.7</ele>
        <time>2022-04-15T11:21:03Z</time>
      </trkpt>
      <trkpt lat="45.54886" lon="5.77287">
        <ele>388.7</ele>
        <time>2022-04-15T11:21:04Z</time>
      </trkpt>
      <trkpt lat="45.5489" lon="5.77293">
        <ele>388.7</ele>
        <time>2022-04-15T11:21:05Z</time>
      </trkpt>
      <trkpt lat="45.54893" lon="5.773">
        <ele>388.8</ele>
        <time>2022-04-15T11:21:06Z</time>
      </trkpt>
      <trkpt lat="45.54895" lon="5.77307">
        <ele>388.8</ele>
        <time>2022-04-15T11:21:07Z</time>
      </trkpt>
      <trkpt lat="45.54898" lon="5.77313">
        <ele>388.8</ele>
        <time>2022-04-15T11:21:08Z</time>
      </trkpt>
      <trkpt lat="45.549" lon="5.7732">
        <ele>388.9</ele>
        <time>2022-04-15T11:21:09Z</time>
      </trkpt>
      <trkpt lat="45.54903" lon="5.77327">
        <ele>388.9</ele>
        <time>2022-04-15T11:21:10Z</time>
      </trkpt>
      <trkpt lat="45.54905" lon="5.77334">
        <ele>389</ele>
        <time>2022-04-15T11:21:11Z</time>
      </trkpt>
      <trkpt lat="45.54907" lon="5.77341">
        <ele>389</ele>
        <time>2022-04-15T11:21:12Z</time>
      </trkpt>
      <trkpt lat="45.54909" lon="5.77348">
        <ele>389.1</ele>
        <time>2022-04-15T11:21:13Z</time>
      </trkpt>
      <trkpt lat="45.54911" lon="5.77355">
        <ele>389.2</ele>
        <time>2022-04-15T11:21:14Z</time>
      </trkpt>
      <trkpt lat="45.54913" lon="5.77361">
        <ele>389.4</ele>
        <time>2022-04-15T11:21:15Z</time>
      </trkpt>
      <trkpt lat="45.54914" lon="5.77368">
        <ele>389.5</ele>
        <time>2022-04-15T11:21:16Z</time>
      </trkpt>
      <trkpt lat="45.54915" lon="5.77374">
        <ele>389.6</ele>
        <time>2022-04-15T11:21:17Z</time>
      </trkpt>
      <trkpt lat="45.54917" lon="5.7738">
        <ele>389.8</ele>
        <time>2022-04-15T11:21:18Z</time>
      </trkpt>
      <trkpt lat="45.54918" lon="5.77386">
        <ele>389.9</ele>
        <time>2022-04-15T11:21:19Z</time>
      </trkpt>
      <trkpt lat="45.54919" lon="5.77389">
        <ele>390</ele>
        <time>2022-04-15T11:21:20Z</time>
      </trkpt>
      <trkpt lat="45.5492" lon="5.77395">
        <ele>390.2</ele>
        <time>2022-04-15T11:21:21Z</time>
      </trkpt>
      <trkpt lat="45.54921" lon="5.77402">
        <ele>390.3</ele>
        <time>2022-04-15T11:21:22Z</time>
      </trkpt>
      <trkpt lat="45.54922" lon="5.77407">
        <ele>390.5</ele>
        <time>2022-04-15T11:21:23Z</time>
      </trkpt>
      <trkpt lat="45.54923" lon="5.77411">
        <ele>390.6</ele>
        <time>2022-04-15T11:21:24Z</time>
      </trkpt>
      <trkpt lat="45.54924" lon="5.77416">
        <ele>390.8</ele>
        <time>2022-04-15T11:21:25Z</time>
      </trkpt>
      <trkpt lat="45.54925" lon="5.77421">
        <ele>390.9</ele>
        <time>2022-04-15T11:21:26Z</time>
      </trkpt>
      <trkpt lat="45.54926" lon="5.77426">
        <ele>391</ele>
        <time>2022-04-15T11:21:27Z</time>
      </trkpt>
      <trkpt lat="45.54927" lon="5.77432">
        <ele>391.2</ele>
        <time>2022-04-15T11:21:28Z</time>
      </trkpt>
      <trkpt lat="45.54929" lon="5.77441">
        <ele>391.4</ele>
        <time>2022-04-15T11:21:29Z</time>
      </trkpt>
      <trkpt lat="45.5493" lon="5.77447">
        <ele>391.6</ele>
        <time>2022-04-15T11:21:31Z</time>
      </trkpt>
      <trkpt lat="45.54931" lon="5.77454">
        <ele>391.8</ele>
        <time>2022-04-15T11:21:32Z</time>
      </trkpt>
      <trkpt lat="45.54932" lon="5.77462">
        <ele>392</ele>
        <time>2022-04-15T11:21:34Z</time>
      </trkpt>
      <trkpt lat="45.54933" lon="5.77467">
        <ele>392.1</ele>
        <time>2022-04-15T11:21:35Z</time>
      </trkpt>
      <trkpt lat="45.54934" lon="5.77472">
        <ele>392.2</ele>
        <time>2022-04-15T11:21:36Z</time>
      </trkpt>
      <trkpt lat="45.54935" lon="5.77476">
        <ele>392.4</ele>
        <time>2022-04-15T11:21:37Z</time>
      </trkpt>
      <trkpt lat="45.54936" lon="5.77481">
        <ele>392.5</ele>
        <time>2022-04-15T11:21:38Z</time>
      </trkpt>
      <trkpt lat="45.54937" lon="5.77485">
        <ele>392.6</ele>
        <time>2022-04-15T11:21:39Z</time>
      </trkpt>
      <trkpt lat="45.54937" lon="5.77491">
        <ele>392.7</ele>
        <time>2022-04-15T11:21:40Z</time>
      </trkpt>
      <trkpt lat="45.54939" lon="5.77496">
        <ele>392.9</ele>
        <time>2022-04-15T11:21:41Z</time>
      </trkpt>
      <trkpt lat="45.5494" lon="5.775">
        <ele>393</ele>
        <time>2022-04-15T11:21:42Z</time>
      </trkpt>
      <trkpt lat="45.54941" lon="5.77506">
        <ele>393.1</ele>
        <time>2022-04-15T11:21:43Z</time>
      </trkpt>
      <trkpt lat="45.54941" lon="5.77511">
        <ele>393.3</ele>
        <time>2022-04-15T11:21:44Z</time>
      </trkpt>
      <trkpt lat="45.54942" lon="5.77516">
        <ele>393.4</ele>
        <time>2022-04-15T11:21:45Z</time>
      </trkpt>
      <trkpt lat="45.54943" lon="5.77521">
        <ele>393.5</ele>
        <time>2022-04-15T11:21:46Z</time>
      </trkpt>
      <trkpt lat="45.54944" lon="5.77526">
        <ele>393.6</ele>
        <time>2022-04-15T11:21:47Z</time>
      </trkpt>
      <trkpt lat="45.54947" lon="5.77537">
        <ele>393.9</ele>
        <time>2022-04-15T11:21:49Z</time>
      </trkpt>
      <trkpt lat="45.54949" lon="5.77545">
        <ele>394.1</ele>
        <time>2022-04-15T11:21:50Z</time>
      </trkpt>
      <trkpt lat="45.5495" lon="5.7755">
        <ele>394.2</ele>
        <time>2022-04-15T11:21:52Z</time>
      </trkpt>
      <trkpt lat="45.54951" lon="5.77555">
        <ele>394.3</ele>
        <time>2022-04-15T11:21:53Z</time>
      </trkpt>
      <trkpt lat="45.54952" lon="5.77559">
        <ele>394.4</ele>
        <time>2022-04-15T11:21:54Z</time>
      </trkpt>
      <trkpt lat="45.54954" lon="5.77564">
        <ele>394.5</ele>
        <time>2022-04-15T11:21:55Z</time>
      </trkpt>
      <trkpt lat="45.54956" lon="5.77573">
        <ele>394.6</ele>
        <time>2022-04-15T11:21:57Z</time>
      </trkpt>
      <trkpt lat="45.54957" lon="5.7758">
        <ele>394.7</ele>
        <time>2022-04-15T11:21:58Z</time>
      </trkpt>
      <trkpt lat="45.54958" lon="5.77589">
        <ele>394.9</ele>
        <time>2022-04-15T11:22:00Z</time>
      </trkpt>
      <trkpt lat="45.54959" lon="5.77594">
        <ele>394.9</ele>
        <time>2022-04-15T11:22:01Z</time>
      </trkpt>
      <trkpt lat="45.54961" lon="5.77604">
        <ele>395</ele>
        <time>2022-04-15T11:22:03Z</time>
      </trkpt>
      <trkpt lat="45.54961" lon="5.7761">
        <ele>395.1</ele>
        <time>2022-04-15T11:22:04Z</time>
      </trkpt>
      <trkpt lat="45.54963" lon="5.77622">
        <ele>395.2</ele>
        <time>2022-04-15T11:22:06Z</time>
      </trkpt>
      <trkpt lat="45.54964" lon="5.77628">
        <ele>395.3</ele>
        <time>2022-04-15T11:22:07Z</time>
      </trkpt>
      <trkpt lat="45.54965" lon="5.77633">
        <ele>395.3</ele>
        <time>2022-04-15T11:22:08Z</time>
      </trkpt>
      <trkpt lat="45.54966" lon="5.77639">
        <ele>395.4</ele>
        <time>2022-04-15T11:22:09Z</time>
      </trkpt>
      <trkpt lat="45.54968" lon="5.77649">
        <ele>395.5</ele>
        <time>2022-04-15T11:22:11Z</time>
      </trkpt>
      <trkpt lat="45.54969" lon="5.77657">
        <ele>395.5</ele>
        <time>2022-04-15T11:22:12Z</time>
      </trkpt>
      <trkpt lat="45.5497" lon="5.77665">
        <ele>395.6</ele>
        <time>2022-04-15T11:22:13Z</time>
      </trkpt>
      <trkpt lat="45.54972" lon="5.77672">
        <ele>395.6</ele>
        <time>2022-04-15T11:22:15Z</time>
      </trkpt>
      <trkpt lat="45.54973" lon="5.77679">
        <ele>395.7</ele>
        <time>2022-04-15T11:22:16Z</time>
      </trkpt>
      <trkpt lat="45.54975" lon="5.77689">
        <ele>395.7</ele>
        <time>2022-04-15T11:22:18Z</time>
      </trkpt>
      <trkpt lat="45.54976" lon="5.77695">
        <ele>395.8</ele>
        <time>2022-04-15T11:22:19Z</time>
      </trkpt>
      <trkpt lat="45.54978" lon="5.77702">
        <ele>395.8</ele>
        <time>2022-04-15T11:22:20Z</time>
      </trkpt>
      <trkpt lat="45.54979" lon="5.7771">
        <ele>395.9</ele>
        <time>2022-04-15T11:22:21Z</time>
      </trkpt>
      <trkpt lat="45.5498" lon="5.7772">
        <ele>395.9</ele>
        <time>2022-04-15T11:22:23Z</time>
      </trkpt>
      <trkpt lat="45.54982" lon="5.77728">
        <ele>396</ele>
        <time>2022-04-15T11:22:24Z</time>
      </trkpt>
      <trkpt lat="45.54984" lon="5.77737">
        <ele>396</ele>
        <time>2022-04-15T11:22:26Z</time>
      </trkpt>
      <trkpt lat="45.54987" lon="5.77749">
        <ele>396.2</ele>
        <time>2022-04-15T11:22:28Z</time>
      </trkpt>
      <trkpt lat="45.54988" lon="5.77759">
        <ele>396.2</ele>
        <time>2022-04-15T11:22:29Z</time>
      </trkpt>
      <trkpt lat="45.54989" lon="5.77765">
        <ele>396.3</ele>
        <time>2022-04-15T11:22:31Z</time>
      </trkpt>
      <trkpt lat="45.54991" lon="5.77776">
        <ele>396.4</ele>
        <time>2022-04-15T11:22:32Z</time>
      </trkpt>
      <trkpt lat="45.54992" lon="5.77783">
        <ele>396.4</ele>
        <time>2022-04-15T11:22:34Z</time>
      </trkpt>
      <trkpt lat="45.54993" lon="5.7779">
        <ele>396.5</ele>
        <time>2022-04-15T11:22:35Z</time>
      </trkpt>
      <trkpt lat="45.54994" lon="5.77795">
        <ele>396.5</ele>
        <time>2022-04-15T11:22:36Z</time>
      </trkpt>
      <trkpt lat="45.54996" lon="5.77803">
        <ele>396.6</ele>
        <time>2022-04-15T11:22:37Z</time>
      </trkpt>
      <trkpt lat="45.54998" lon="5.77814">
        <ele>396.7</ele>
        <time>2022-04-15T11:22:39Z</time>
      </trkpt>
      <trkpt lat="45.55" lon="5.7782">
        <ele>396.7</ele>
        <time>2022-04-15T11:22:40Z</time>
      </trkpt>
      <trkpt lat="45.55001" lon="5.77826">
        <ele>396.7</ele>
        <time>2022-04-15T11:22:41Z</time>
      </trkpt>
      <trkpt lat="45.55002" lon="5.77833">
        <ele>396.8</ele>
        <time>2022-04-15T11:22:42Z</time>
      </trkpt>
      <trkpt lat="45.55003" lon="5.7784">
        <ele>396.8</ele>
        <time>2022-04-15T11:22:43Z</time>
      </trkpt>
      <trkpt lat="45.55004" lon="5.77848">
        <ele>396.9</ele>
        <time>2022-04-15T11:22:45Z</time>
      </trkpt>
      <trkpt lat="45.55005" lon="5.77853">
        <ele>396.9</ele>
        <time>2022-04-15T11:22:46Z</time>
      </trkpt>
      <trkpt lat="45.55006" lon="5.77864">
        <ele>397</ele>
        <time>2022-04-15T11:22:48Z</time>
      </trkpt>
      <trkpt lat="45.55007" lon="5.77869">
        <ele>397</ele>
        <time>2022-04-15T11:22:49Z</time>
      </trkpt>
      <trkpt lat="45.55008" lon="5.77873">
        <ele>397</ele>
        <time>2022-04-15T11:22:50Z</time>
      </trkpt>
      <trkpt lat="45.5501" lon="5.77878">
        <ele>397.1</ele>
        <time>2022-04-15T11:22:51Z</time>
      </trkpt>
      <trkpt lat="45.55011" lon="5.77883">
        <ele>397.1</ele>
        <time>2022-04-15T11:22:53Z</time>
      </trkpt>
      <trkpt lat="45.55012" lon="5.77889">
        <ele>397.2</ele>
        <time>2022-04-15T11:22:54Z</time>
      </trkpt>
      <trkpt lat="45.55013" lon="5.77897">
        <ele>397.2</ele>
        <time>2022-04-15T11:22:55Z</time>
      </trkpt>
      <trkpt lat="45.55015" lon="5.77904">
        <ele>397.3</ele>
        <time>2022-04-15T11:22:57Z</time>
      </trkpt>
      <trkpt lat="45.55016" lon="5.7791">
        <ele>397.3</ele>
        <time>2022-04-15T11:22:58Z</time>
      </trkpt>
      <trkpt lat="45.55018" lon="5.77917">
        <ele>397.4</ele>
        <time>2022-04-15T11:22:59Z</time>
      </trkpt>
      <trkpt lat="45.55019" lon="5.77923">
        <ele>397.5</ele>
        <time>2022-04-15T11:23:00Z</time>
      </trkpt>
      <trkpt lat="45.5502" lon="5.77929">
        <ele>397.5</ele>
        <time>2022-04-15T11:23:02Z</time>
      </trkpt>
      <trkpt lat="45.55021" lon="5.77935">
        <ele>397.6</ele>
        <time>2022-04-15T11:23:03Z</time>
      </trkpt>
      <trkpt lat="45.55022" lon="5.77942">
        <ele>397.7</ele>
        <time>2022-04-15T11:23:04Z</time>
      </trkpt>
      <trkpt lat="45.55023" lon="5.77947">
        <ele>397.7</ele>
        <time>2022-04-15T11:23:05Z</time>
      </trkpt>
      <trkpt lat="45.55024" lon="5.77952">
        <ele>397.7</ele>
        <time>2022-04-15T11:23:06Z</time>
      </trkpt>
      <trkpt lat="45.55025" lon="5.77958">
        <ele>397.8</ele>
        <time>2022-04-15T11:23:07Z</time>
      </trkpt>
      <trkpt lat="45.55026" lon="5.77965">
        <ele>397.9</ele>
        <time>2022-04-15T11:23:08Z</time>
      </trkpt>
      <trkpt lat="45.55028" lon="5.77971">
        <ele>398</ele>
        <time>2022-04-15T11:23:10Z</time>
      </trkpt>
      <trkpt lat="45.55028" lon="5.77977">
        <ele>398</ele>
        <time>2022-04-15T11:23:11Z</time>
      </trkpt>
      <trkpt lat="45.55029" lon="5.77983">
        <ele>398.1</ele>
        <time>2022-04-15T11:23:12Z</time>
      </trkpt>
      <trkpt lat="45.55031" lon="5.77988">
        <ele>398.1</ele>
        <time>2022-04-15T11:23:13Z</time>
      </trkpt>
      <trkpt lat="45.55033" lon="5.77996">
        <ele>398.2</ele>
        <time>2022-04-15T11:23:15Z</time>
      </trkpt>
      <trkpt lat="45.55036" lon="5.78001">
        <ele>398.3</ele>
        <time>2022-04-15T11:23:16Z</time>
      </trkpt>
      <trkpt lat="45.55038" lon="5.78005">
        <ele>398.3</ele>
        <time>2022-04-15T11:23:17Z</time>
      </trkpt>
      <trkpt lat="45.55041" lon="5.78008">
        <ele>398.4</ele>
        <time>2022-04-15T11:23:18Z</time>
      </trkpt>
      <trkpt lat="45.55044" lon="5.78011">
        <ele>398.5</ele>
        <time>2022-04-15T11:23:19Z</time>
      </trkpt>
      <trkpt lat="45.5505" lon="5.78017">
        <ele>398.6</ele>
        <time>2022-04-15T11:23:21Z</time>
      </trkpt>
      <trkpt lat="45.55053" lon="5.7802">
        <ele>398.6</ele>
        <time>2022-04-15T11:23:22Z</time>
      </trkpt>
      <trkpt lat="45.55058" lon="5.78027">
        <ele>398.7</ele>
        <time>2022-04-15T11:23:24Z</time>
      </trkpt>
      <trkpt lat="45.55062" lon="5.78031">
        <ele>398.8</ele>
        <time>2022-04-15T11:23:25Z</time>
      </trkpt>
      <trkpt lat="45.55065" lon="5.78034">
        <ele>398.8</ele>
        <time>2022-04-15T11:23:26Z</time>
      </trkpt>
      <trkpt lat="45.55068" lon="5.78038">
        <ele>398.9</ele>
        <time>2022-04-15T11:23:27Z</time>
      </trkpt>
      <trkpt lat="45.55072" lon="5.78042">
        <ele>399</ele>
        <time>2022-04-15T11:23:28Z</time>
      </trkpt>
      <trkpt lat="45.55075" lon="5.78045">
        <ele>399</ele>
        <time>2022-04-15T11:23:29Z</time>
      </trkpt>
      <trkpt lat="45.5508" lon="5.78051">
        <ele>399.1</ele>
        <time>2022-04-15T11:23:30Z</time>
      </trkpt>
      <trkpt lat="45.55083" lon="5.78054">
        <ele>399.2</ele>
        <time>2022-04-15T11:23:32Z</time>
      </trkpt>
      <trkpt lat="45.55087" lon="5.78058">
        <ele>399.2</ele>
        <time>2022-04-15T11:23:33Z</time>
      </trkpt>
      <trkpt lat="45.55092" lon="5.78062">
        <ele>399.3</ele>
        <time>2022-04-15T11:23:34Z</time>
      </trkpt>
      <trkpt lat="45.55096" lon="5.78066">
        <ele>399.3</ele>
        <time>2022-04-15T11:23:36Z</time>
      </trkpt>
      <trkpt lat="45.551" lon="5.7807">
        <ele>399.3</ele>
        <time>2022-04-15T11:23:37Z</time>
      </trkpt>
      <trkpt lat="45.55104" lon="5.78073">
        <ele>399.4</ele>
        <time>2022-04-15T11:23:38Z</time>
      </trkpt>
      <trkpt lat="45.55107" lon="5.78075">
        <ele>399.4</ele>
        <time>2022-04-15T11:23:39Z</time>
      </trkpt>
      <trkpt lat="45.55111" lon="5.78078">
        <ele>399.4</ele>
        <time>2022-04-15T11:23:40Z</time>
      </trkpt>
      <trkpt lat="45.55114" lon="5.78082">
        <ele>399.4</ele>
        <time>2022-04-15T11:23:42Z</time>
      </trkpt>
      <trkpt lat="45.55116" lon="5.78084">
        <ele>399.4</ele>
        <time>2022-04-15T11:23:43Z</time>
      </trkpt>
      <trkpt lat="45.55118" lon="5.78088">
        <ele>399.4</ele>
        <time>2022-04-15T11:23:44Z</time>
      </trkpt>
      <trkpt lat="45.55119" lon="5.78089">
        <ele>399.4</ele>
        <time>2022-04-15T11:23:45Z</time>
      </trkpt>
      <trkpt lat="45.55119" lon="5.78091">
        <ele>399.4</ele>
        <time>2022-04-15T11:23:46Z</time>
      </trkpt>
      <trkpt lat="45.55119" lon="5.78094">
        <ele>399.4</ele>
        <time>2022-04-15T11:23:47Z</time>
      </trkpt>
      <trkpt lat="45.55119" lon="5.78096">
        <ele>399.4</ele>
        <time>2022-04-15T11:23:48Z</time>
      </trkpt>
      <trkpt lat="45.55119" lon="5.78096">
        <ele>399.4</ele>
        <time>2022-04-15T11:23:49Z</time>
      </trkpt>
      <trkpt lat="45.55118" lon="5.78095">
        <ele>399.4</ele>
        <time>2022-04-15T11:23:50Z</time>
      </trkpt>
      <trkpt lat="45.55118" lon="5.78094">
        <ele>399.4</ele>
        <time>2022-04-15T11:23:51Z</time>
      </trkpt>
      <trkpt lat="45.55118" lon="5.78094">
        <ele>399.4</ele>
        <time>2022-04-15T11:23:52Z</time>
      </trkpt>
      <trkpt lat="45.55118" lon="5.78094">
        <ele>399.4</ele>
        <time>2022-04-15T11:23:53Z</time>
      </trkpt>
      <trkpt lat="45.55118" lon="5.78094">
        <ele>399.4</ele>
        <time>2022-04-15T11:23:54Z</time>
      </trkpt>
      <trkpt lat="45.55118" lon="5.78093">
        <ele>399.4</ele>
        <time>2022-04-15T11:23:56Z</time>
      </trkpt>
      <trkpt lat="45.55118" lon="5.78093">
        <ele>399.4</ele>
        <time>2022-04-15T11:23:58Z</time>
      </trkpt>
      <trkpt lat="45.55118" lon="5.78093">
        <ele>399.4</ele>
        <time>2022-04-15T11:23:59Z</time>
      </trkpt>
      <trkpt lat="45.55118" lon="5.78093">
        <ele>399.4</ele>
        <time>2022-04-15T11:24:00Z</time>
      </trkpt>
      <trkpt lat="45.55117" lon="5.78093">
        <ele>399.4</ele>
        <time>2022-04-15T11:24:01Z</time>
      </trkpt>
      <trkpt lat="45.55118" lon="5.78093">
        <ele>399.4</ele>
        <time>2022-04-15T11:24:03Z</time>
      </trkpt>
      <trkpt lat="45.55118" lon="5.78093">
        <ele>399.4</ele>
        <time>2022-04-15T11:24:04Z</time>
      </trkpt>
      <trkpt lat="45.55118" lon="5.78093">
        <ele>399.4</ele>
        <time>2022-04-15T11:24:05Z</time>
      </trkpt>
      <trkpt lat="45.55118" lon="5.78093">
        <ele>399.4</ele>
        <time>2022-04-15T11:24:06Z</time>
      </trkpt>
      <trkpt lat="45.55118" lon="5.78093">
        <ele>399.4</ele>
        <time>2022-04-15T11:24:07Z</time>
      </trkpt>
      <trkpt lat="45.55118" lon="5.78094">
        <ele>399.4</ele>
        <time>2022-04-15T11:24:08Z</time>
      </trkpt>
      <trkpt lat="45.55118" lon="5.78094">
        <ele>399.4</ele>
        <time>2022-04-15T11:24:09Z</time>
      </trkpt>
      <trkpt lat="45.55118" lon="5.78094">
        <ele>399.4</ele>
        <time>2022-04-15T11:24:10Z</time>
      </trkpt>
      <trkpt lat="45.55118" lon="5.78094">
        <ele>399.4</ele>
        <time>2022-04-15T11:24:11Z</time>
      </trkpt>
      <trkpt lat="45.55118" lon="5.78094">
        <ele>399.4</ele>
        <time>2022-04-15T11:24:12Z</time>
      </trkpt>
      <trkpt lat="45.55118" lon="5.78094">
        <ele>399.4</ele>
        <time>2022-04-15T11:24:13Z</time>
      </trkpt>
      <trkpt lat="45.55118" lon="5.78094">
        <ele>399.4</ele>
        <time>2022-04-15T11:24:14Z</time>
      </trkpt>
      <trkpt lat="45.55118" lon="5.78094">
        <ele>399.4</ele>
        <time>2022-04-15T11:24:15Z</time>
      </trkpt>
      <trkpt lat="45.55118" lon="5.78094">
        <ele>399.4</ele>
        <time>2022-04-15T11:24:16Z</time>
      </trkpt>
      <trkpt lat="45.55118" lon="5.78094">
        <ele>399.4</ele>
        <time>2022-04-15T11:24:17Z</time>
      </trkpt>
      <trkpt lat="45.55118" lon="5.78094">
        <ele>399.4</ele>
        <time>2022-04-15T11:24:18Z</time>
      </trkpt>
      <trkpt lat="45.55118" lon="5.78094">
        <ele>399.4</ele>
        <time>2022-04-15T11:24:19Z</time>
      </trkpt>
      <trkpt lat="45.55118" lon="5.78094">
        <ele>399.4</ele>
        <time>2022-04-15T11:24:20Z</time>
      </trkpt>
      <trkpt lat="45.55118" lon="5.78094">
        <ele>399.4</ele>
        <time>2022-04-15T11:24:21Z</time>
      </trkpt>
      <trkpt lat="45.55118" lon="5.78094">
        <ele>399.4</ele>
        <time>2022-04-15T11:24:22Z</time>
      </trkpt>
      <trkpt lat="45.55118" lon="5.78094">
        <ele>399.4</ele>
        <time>2022-04-15T11:24:23Z</time>
      </trkpt>
      <trkpt lat="45.55118" lon="5.78094">
        <ele>399.4</ele>
        <time>2022-04-15T11:24:24Z</time>
      </trkpt>
      <trkpt lat="45.55118" lon="5.78094">
        <ele>399.4</ele>
        <time>2022-04-15T11:24:25Z</time>
      </trkpt>
      <trkpt lat="45.55118" lon="5.78094">
        <ele>399.4</ele>
        <time>2022-04-15T11:24:26Z</time>
      </trkpt>
      <trkpt lat="45.55118" lon="5.78094">
        <ele>399.4</ele>
        <time>2022-04-15T11:24:27Z</time>
      </trkpt>
      <trkpt lat="45.55118" lon="5.78094">
        <ele>399.4</ele>
        <time>2022-04-15T11:24:28Z</time>
      </trkpt>
      <trkpt lat="45.55118" lon="5.78094">
        <ele>399.4</ele>
        <time>2022-04-15T11:24:29Z</time>
      </trkpt>
      <trkpt lat="45.55118" lon="5.78094">
        <ele>399.4</ele>
        <time>2022-04-15T11:24:30Z</time>
      </trkpt>
      <trkpt lat="45.55118" lon="5.78094">
        <ele>399.4</ele>
        <time>2022-04-15T11:24:31Z</time>
      </trkpt>
      <trkpt lat="45.55118" lon="5.78094">
        <ele>399.4</ele>
        <time>2022-04-15T11:24:32Z</time>
      </trkpt>
      <trkpt lat="45.55118" lon="5.78094">
        <ele>399.4</ele>
        <time>2022-04-15T11:24:34Z</time>
      </trkpt>
      <trkpt lat="45.55118" lon="5.78094">
        <ele>399.4</ele>
        <time>2022-04-15T11:24:35Z</time>
      </trkpt>
      <trkpt lat="45.55118" lon="5.78094">
        <ele>399.4</ele>
        <time>2022-04-15T11:24:36Z</time>
      </trkpt>
      <trkpt lat="45.55118" lon="5.78094">
        <ele>399.4</ele>
        <time>2022-04-15T11:24:37Z</time>
      </trkpt>
      <trkpt lat="45.55118" lon="5.78094">
        <ele>399.4</ele>
        <time>2022-04-15T11:24:38Z</time>
      </trkpt>
      <trkpt lat="45.55118" lon="5.78095">
        <ele>399.4</ele>
        <time>2022-04-15T11:24:39Z</time>
      </trkpt>
      <trkpt lat="45.55122" lon="5.78097">
        <ele>399.4</ele>
        <time>2022-04-15T11:24:41Z</time>
      </trkpt>
      <trkpt lat="45.55125" lon="5.78095">
        <ele>399.5</ele>
        <time>2022-04-15T11:24:42Z</time>
      </trkpt>
      <trkpt lat="45.55126" lon="5.78094">
        <ele>399.5</ele>
        <time>2022-04-15T11:24:43Z</time>
      </trkpt>
      <trkpt lat="45.55128" lon="5.78094">
        <ele>399.5</ele>
        <time>2022-04-15T11:24:44Z</time>
      </trkpt>
      <trkpt lat="45.5513" lon="5.78095">
        <ele>399.5</ele>
        <time>2022-04-15T11:24:46Z</time>
      </trkpt>
      <trkpt lat="45.55133" lon="5.78096">
        <ele>399.5</ele>
        <time>2022-04-15T11:24:47Z</time>
      </trkpt>
      <trkpt lat="45.5514" lon="5.78101">
        <ele>399.4</ele>
        <time>2022-04-15T11:24:49Z</time>
      </trkpt>
      <trkpt lat="45.55144" lon="5.78104">
        <ele>399.4</ele>
        <time>2022-04-15T11:24:50Z</time>
      </trkpt>
      <trkpt lat="45.55149" lon="5.78107">
        <ele>399.4</ele>
        <time>2022-04-15T11:24:51Z</time>
      </trkpt>
      <trkpt lat="45.55154" lon="5.7811">
        <ele>399.3</ele>
        <time>2022-04-15T11:24:53Z</time>
      </trkpt>
      <trkpt lat="45.55162" lon="5.78116">
        <ele>399.2</ele>
        <time>2022-04-15T11:24:54Z</time>
      </trkpt>
      <trkpt lat="45.55168" lon="5.7812">
        <ele>399.1</ele>
        <time>2022-04-15T11:24:56Z</time>
      </trkpt>
      <trkpt lat="45.55173" lon="5.78124">
        <ele>399.1</ele>
        <time>2022-04-15T11:24:57Z</time>
      </trkpt>
      <trkpt lat="45.55178" lon="5.78128">
        <ele>399</ele>
        <time>2022-04-15T11:24:58Z</time>
      </trkpt>
      <trkpt lat="45.55183" lon="5.78131">
        <ele>398.9</ele>
        <time>2022-04-15T11:24:59Z</time>
      </trkpt>
      <trkpt lat="45.55188" lon="5.78135">
        <ele>398.8</ele>
        <time>2022-04-15T11:25:00Z</time>
      </trkpt>
      <trkpt lat="45.55193" lon="5.78138">
        <ele>398.7</ele>
        <time>2022-04-15T11:25:01Z</time>
      </trkpt>
      <trkpt lat="45.55198" lon="5.78142">
        <ele>398.6</ele>
        <time>2022-04-15T11:25:02Z</time>
      </trkpt>
      <trkpt lat="45.55204" lon="5.78145">
        <ele>398.5</ele>
        <time>2022-04-15T11:25:03Z</time>
      </trkpt>
      <trkpt lat="45.55209" lon="5.78149">
        <ele>398.4</ele>
        <time>2022-04-15T11:25:04Z</time>
      </trkpt>
      <trkpt lat="45.55214" lon="5.78153">
        <ele>398.3</ele>
        <time>2022-04-15T11:25:05Z</time>
      </trkpt>
      <trkpt lat="45.5522" lon="5.78157">
        <ele>398.2</ele>
        <time>2022-04-15T11:25:06Z</time>
      </trkpt>
      <trkpt lat="45.55226" lon="5.78161">
        <ele>398.1</ele>
        <time>2022-04-15T11:25:07Z</time>
      </trkpt>
      <trkpt lat="45.55232" lon="5.78165">
        <ele>398</ele>
        <time>2022-04-15T11:25:08Z</time>
      </trkpt>
      <trkpt lat="45.55238" lon="5.78169">
        <ele>398</ele>
        <time>2022-04-15T11:25:09Z</time>
      </trkpt>
      <trkpt lat="45.55243" lon="5.78173">
        <ele>397.8</ele>
        <time>2022-04-15T11:25:10Z</time>
      </trkpt>
      <trkpt lat="45.55249" lon="5.78177">
        <ele>397.7</ele>
        <time>2022-04-15T11:25:11Z</time>
      </trkpt>
      <trkpt lat="45.55255" lon="5.7818">
        <ele>397.5</ele>
        <time>2022-04-15T11:25:12Z</time>
      </trkpt>
      <trkpt lat="45.55261" lon="5.78185">
        <ele>397.4</ele>
        <time>2022-04-15T11:25:13Z</time>
      </trkpt>
      <trkpt lat="45.55267" lon="5.78189">
        <ele>397.2</ele>
        <time>2022-04-15T11:25:14Z</time>
      </trkpt>
      <trkpt lat="45.55273" lon="5.78193">
        <ele>397.1</ele>
        <time>2022-04-15T11:25:15Z</time>
      </trkpt>
      <trkpt lat="45.55279" lon="5.78197">
        <ele>397</ele>
        <time>2022-04-15T11:25:16Z</time>
      </trkpt>
      <trkpt lat="45.55285" lon="5.78201">
        <ele>396.9</ele>
        <time>2022-04-15T11:25:17Z</time>
      </trkpt>
      <trkpt lat="45.55291" lon="5.78205">
        <ele>396.7</ele>
        <time>2022-04-15T11:25:18Z</time>
      </trkpt>
      <trkpt lat="45.55297" lon="5.78209">
        <ele>396.6</ele>
        <time>2022-04-15T11:25:19Z</time>
      </trkpt>
      <trkpt lat="45.55303" lon="5.78213">
        <ele>396.5</ele>
        <time>2022-04-15T11:25:20Z</time>
      </trkpt>
      <trkpt lat="45.55309" lon="5.78217">
        <ele>396.5</ele>
        <time>2022-04-15T11:25:21Z</time>
      </trkpt>
      <trkpt lat="45.55316" lon="5.78221">
        <ele>396.4</ele>
        <time>2022-04-15T11:25:22Z</time>
      </trkpt>
      <trkpt lat="45.55321" lon="5.78226">
        <ele>396.3</ele>
        <time>2022-04-15T11:25:23Z</time>
      </trkpt>
      <trkpt lat="45.55327" lon="5.78232">
        <ele>396.3</ele>
        <time>2022-04-15T11:25:24Z</time>
      </trkpt>
      <trkpt lat="45.55332" lon="5.78238">
        <ele>396.3</ele>
        <time>2022-04-15T11:25:25Z</time>
      </trkpt>
      <trkpt lat="45.55337" lon="5.78245">
        <ele>396.3</ele>
        <time>2022-04-15T11:25:26Z</time>
      </trkpt>
      <trkpt lat="45.55341" lon="5.78252">
        <ele>396.3</ele>
        <time>2022-04-15T11:25:27Z</time>
      </trkpt>
      <trkpt lat="45.55345" lon="5.78259">
        <ele>396.3</ele>
        <time>2022-04-15T11:25:28Z</time>
      </trkpt>
      <trkpt lat="45.55348" lon="5.78266">
        <ele>396.3</ele>
        <time>2022-04-15T11:25:29Z</time>
      </trkpt>
      <trkpt lat="45.5535" lon="5.78274">
        <ele>396.3</ele>
        <time>2022-04-15T11:25:30Z</time>
      </trkpt>
      <trkpt lat="45.55352" lon="5.78282">
        <ele>396.3</ele>
        <time>2022-04-15T11:25:31Z</time>
      </trkpt>
      <trkpt lat="45.55355" lon="5.7829">
        <ele>396.3</ele>
        <time>2022-04-15T11:25:32Z</time>
      </trkpt>
      <trkpt lat="45.55358" lon="5.78298">
        <ele>396.3</ele>
        <time>2022-04-15T11:25:33Z</time>
      </trkpt>
      <trkpt lat="45.5536" lon="5.78306">
        <ele>396.2</ele>
        <time>2022-04-15T11:25:34Z</time>
      </trkpt>
      <trkpt lat="45.55363" lon="5.78314">
        <ele>396.2</ele>
        <time>2022-04-15T11:25:35Z</time>
      </trkpt>
      <trkpt lat="45.55365" lon="5.78322">
        <ele>396.2</ele>
        <time>2022-04-15T11:25:36Z</time>
      </trkpt>
      <trkpt lat="45.55368" lon="5.7833">
        <ele>396.1</ele>
        <time>2022-04-15T11:25:37Z</time>
      </trkpt>
      <trkpt lat="45.55371" lon="5.78338">
        <ele>396.1</ele>
        <time>2022-04-15T11:25:38Z</time>
      </trkpt>
      <trkpt lat="45.55373" lon="5.78346">
        <ele>396.1</ele>
        <time>2022-04-15T11:25:39Z</time>
      </trkpt>
      <trkpt lat="45.55376" lon="5.78354">
        <ele>396.1</ele>
        <time>2022-04-15T11:25:40Z</time>
      </trkpt>
      <trkpt lat="45.55378" lon="5.78362">
        <ele>396.1</ele>
        <time>2022-04-15T11:25:41Z</time>
      </trkpt>
      <trkpt lat="45.55381" lon="5.78369">
        <ele>396</ele>
        <time>2022-04-15T11:25:42Z</time>
      </trkpt>
      <trkpt lat="45.55383" lon="5.78377">
        <ele>396</ele>
        <time>2022-04-15T11:25:43Z</time>
      </trkpt>
      <trkpt lat="45.55386" lon="5.78385">
        <ele>396</ele>
        <time>2022-04-15T11:25:44Z</time>
      </trkpt>
      <trkpt lat="45.55388" lon="5.78394">
        <ele>396</ele>
        <time>2022-04-15T11:25:45Z</time>
      </trkpt>
      <trkpt lat="45.55391" lon="5.78402">
        <ele>396</ele>
        <time>2022-04-15T11:25:46Z</time>
      </trkpt>
      <trkpt lat="45.55393" lon="5.7841">
        <ele>395.9</ele>
        <time>2022-04-15T11:25:47Z</time>
      </trkpt>
      <trkpt lat="45.55396" lon="5.78418">
        <ele>395.9</ele>
        <time>2022-04-15T11:25:48Z</time>
      </trkpt>
      <trkpt lat="45.55399" lon="5.78426">
        <ele>395.9</ele>
        <time>2022-04-15T11:25:49Z</time>
      </trkpt>
      <trkpt lat="45.55402" lon="5.78434">
        <ele>395.9</ele>
        <time>2022-04-15T11:25:50Z</time>
      </trkpt>
      <trkpt lat="45.55405" lon="5.78442">
        <ele>395.9</ele>
        <time>2022-04-15T11:25:51Z</time>
      </trkpt>
      <trkpt lat="45.55407" lon="5.7845">
        <ele>395.9</ele>
        <time>2022-04-15T11:25:52Z</time>
      </trkpt>
      <trkpt lat="45.5541" lon="5.78458">
        <ele>395.9</ele>
        <time>2022-04-15T11:25:53Z</time>
      </trkpt>
      <trkpt lat="45.55412" lon="5.78466">
        <ele>395.9</ele>
        <time>2022-04-15T11:25:54Z</time>
      </trkpt>
      <trkpt lat="45.55415" lon="5.78474">
        <ele>395.9</ele>
        <time>2022-04-15T11:25:55Z</time>
      </trkpt>
      <trkpt lat="45.55417" lon="5.78482">
        <ele>395.9</ele>
        <time>2022-04-15T11:25:56Z</time>
      </trkpt>
      <trkpt lat="45.5542" lon="5.78489">
        <ele>395.9</ele>
        <time>2022-04-15T11:25:57Z</time>
      </trkpt>
      <trkpt lat="45.55422" lon="5.78497">
        <ele>395.9</ele>
        <time>2022-04-15T11:25:58Z</time>
      </trkpt>
      <trkpt lat="45.55425" lon="5.78504">
        <ele>395.9</ele>
        <time>2022-04-15T11:25:59Z</time>
      </trkpt>
      <trkpt lat="45.55427" lon="5.78512">
        <ele>395.9</ele>
        <time>2022-04-15T11:26:00Z</time>
      </trkpt>
      <trkpt lat="45.55429" lon="5.78519">
        <ele>395.9</ele>
        <time>2022-04-15T11:26:01Z</time>
      </trkpt>
      <trkpt lat="45.55432" lon="5.78526">
        <ele>395.9</ele>
        <time>2022-04-15T11:26:02Z</time>
      </trkpt>
      <trkpt lat="45.55434" lon="5.78533">
        <ele>395.9</ele>
        <time>2022-04-15T11:26:03Z</time>
      </trkpt>
      <trkpt lat="45.55437" lon="5.7854">
        <ele>395.9</ele>
        <time>2022-04-15T11:26:04Z</time>
      </trkpt>
      <trkpt lat="45.55441" lon="5.78546">
        <ele>395.9</ele>
        <time>2022-04-15T11:26:05Z</time>
      </trkpt>
      <trkpt lat="45.55445" lon="5.78552">
        <ele>395.9</ele>
        <time>2022-04-15T11:26:06Z</time>
      </trkpt>
      <trkpt lat="45.55449" lon="5.78557">
        <ele>395.8</ele>
        <time>2022-04-15T11:26:07Z</time>
      </trkpt>
      <trkpt lat="45.55454" lon="5.78561">
        <ele>395.8</ele>
        <time>2022-04-15T11:26:08Z</time>
      </trkpt>
      <trkpt lat="45.55459" lon="5.78565">
        <ele>395.8</ele>
        <time>2022-04-15T11:26:09Z</time>
      </trkpt>
      <trkpt lat="45.55465" lon="5.78567">
        <ele>395.7</ele>
        <time>2022-04-15T11:26:10Z</time>
      </trkpt>
      <trkpt lat="45.55471" lon="5.78569">
        <ele>395.7</ele>
        <time>2022-04-15T11:26:11Z</time>
      </trkpt>
      <trkpt lat="45.55477" lon="5.78571">
        <ele>395.7</ele>
        <time>2022-04-15T11:26:12Z</time>
      </trkpt>
      <trkpt lat="45.55483" lon="5.78573">
        <ele>395.6</ele>
        <time>2022-04-15T11:26:13Z</time>
      </trkpt>
      <trkpt lat="45.55489" lon="5.78575">
        <ele>395.5</ele>
        <time>2022-04-15T11:26:14Z</time>
      </trkpt>
      <trkpt lat="45.55495" lon="5.78576">
        <ele>395.4</ele>
        <time>2022-04-15T11:26:15Z</time>
      </trkpt>
      <trkpt lat="45.55501" lon="5.78578">
        <ele>395.3</ele>
        <time>2022-04-15T11:26:16Z</time>
      </trkpt>
      <trkpt lat="45.55508" lon="5.7858">
        <ele>395.2</ele>
        <time>2022-04-15T11:26:17Z</time>
      </trkpt>
      <trkpt lat="45.55515" lon="5.78583">
        <ele>395.1</ele>
        <time>2022-04-15T11:26:18Z</time>
      </trkpt>
      <trkpt lat="45.55521" lon="5.78586">
        <ele>395.1</ele>
        <time>2022-04-15T11:26:19Z</time>
      </trkpt>
      <trkpt lat="45.55528" lon="5.78589">
        <ele>395</ele>
        <time>2022-04-15T11:26:20Z</time>
      </trkpt>
      <trkpt lat="45.55534" lon="5.78593">
        <ele>394.8</ele>
        <time>2022-04-15T11:26:21Z</time>
      </trkpt>
      <trkpt lat="45.55539" lon="5.78599">
        <ele>394.7</ele>
        <time>2022-04-15T11:26:22Z</time>
      </trkpt>
      <trkpt lat="45.55544" lon="5.78605">
        <ele>394.7</ele>
        <time>2022-04-15T11:26:23Z</time>
      </trkpt>
      <trkpt lat="45.55549" lon="5.78612">
        <ele>394.6</ele>
        <time>2022-04-15T11:26:24Z</time>
      </trkpt>
      <trkpt lat="45.55554" lon="5.78619">
        <ele>394.5</ele>
        <time>2022-04-15T11:26:25Z</time>
      </trkpt>
      <trkpt lat="45.55558" lon="5.78626">
        <ele>394.4</ele>
        <time>2022-04-15T11:26:26Z</time>
      </trkpt>
      <trkpt lat="45.55562" lon="5.78633">
        <ele>394.3</ele>
        <time>2022-04-15T11:26:27Z</time>
      </trkpt>
      <trkpt lat="45.55567" lon="5.78641">
        <ele>394.2</ele>
        <time>2022-04-15T11:26:28Z</time>
      </trkpt>
      <trkpt lat="45.5557" lon="5.78647">
        <ele>394.2</ele>
        <time>2022-04-15T11:26:29Z</time>
      </trkpt>
      <trkpt lat="45.55574" lon="5.78654">
        <ele>394.1</ele>
        <time>2022-04-15T11:26:30Z</time>
      </trkpt>
      <trkpt lat="45.55578" lon="5.78661">
        <ele>394</ele>
        <time>2022-04-15T11:26:31Z</time>
      </trkpt>
      <trkpt lat="45.55581" lon="5.78668">
        <ele>393.9</ele>
        <time>2022-04-15T11:26:32Z</time>
      </trkpt>
      <trkpt lat="45.55585" lon="5.78676">
        <ele>393.9</ele>
        <time>2022-04-15T11:26:33Z</time>
      </trkpt>
      <trkpt lat="45.55589" lon="5.78683">
        <ele>393.8</ele>
        <time>2022-04-15T11:26:34Z</time>
      </trkpt>
      <trkpt lat="45.55593" lon="5.7869">
        <ele>393.8</ele>
        <time>2022-04-15T11:26:35Z</time>
      </trkpt>
      <trkpt lat="45.55596" lon="5.78697">
        <ele>393.8</ele>
        <time>2022-04-15T11:26:36Z</time>
      </trkpt>
      <trkpt lat="45.556" lon="5.78703">
        <ele>393.7</ele>
        <time>2022-04-15T11:26:37Z</time>
      </trkpt>
      <trkpt lat="45.55604" lon="5.7871">
        <ele>393.7</ele>
        <time>2022-04-15T11:26:38Z</time>
      </trkpt>
      <trkpt lat="45.55608" lon="5.78717">
        <ele>393.7</ele>
        <time>2022-04-15T11:26:39Z</time>
      </trkpt>
      <trkpt lat="45.55612" lon="5.78723">
        <ele>393.7</ele>
        <time>2022-04-15T11:26:40Z</time>
      </trkpt>
      <trkpt lat="45.55616" lon="5.78729">
        <ele>393.7</ele>
        <time>2022-04-15T11:26:41Z</time>
      </trkpt>
      <trkpt lat="45.5562" lon="5.78735">
        <ele>393.7</ele>
        <time>2022-04-15T11:26:42Z</time>
      </trkpt>
      <trkpt lat="45.55623" lon="5.78741">
        <ele>393.7</ele>
        <time>2022-04-15T11:26:43Z</time>
      </trkpt>
      <trkpt lat="45.55627" lon="5.78747">
        <ele>393.6</ele>
        <time>2022-04-15T11:26:44Z</time>
      </trkpt>
      <trkpt lat="45.55631" lon="5.78753">
        <ele>393.6</ele>
        <time>2022-04-15T11:26:45Z</time>
      </trkpt>
      <trkpt lat="45.55636" lon="5.78758">
        <ele>393.6</ele>
        <time>2022-04-15T11:26:46Z</time>
      </trkpt>
      <trkpt lat="45.5564" lon="5.78763">
        <ele>393.6</ele>
        <time>2022-04-15T11:26:47Z</time>
      </trkpt>
      <trkpt lat="45.55645" lon="5.78768">
        <ele>393.6</ele>
        <time>2022-04-15T11:26:48Z</time>
      </trkpt>
      <trkpt lat="45.55649" lon="5.78774">
        <ele>393.6</ele>
        <time>2022-04-15T11:26:49Z</time>
      </trkpt>
      <trkpt lat="45.55653" lon="5.78779">
        <ele>393.6</ele>
        <time>2022-04-15T11:26:50Z</time>
      </trkpt>
      <trkpt lat="45.55657" lon="5.78785">
        <ele>393.6</ele>
        <time>2022-04-15T11:26:51Z</time>
      </trkpt>
      <trkpt lat="45.55661" lon="5.78791">
        <ele>393.5</ele>
        <time>2022-04-15T11:26:52Z</time>
      </trkpt>
      <trkpt lat="45.55666" lon="5.78796">
        <ele>393.5</ele>
        <time>2022-04-15T11:26:53Z</time>
      </trkpt>
      <trkpt lat="45.5567" lon="5.788">
        <ele>393.5</ele>
        <time>2022-04-15T11:26:54Z</time>
      </trkpt>
      <trkpt lat="45.55675" lon="5.78804">
        <ele>393.4</ele>
        <time>2022-04-15T11:26:55Z</time>
      </trkpt>
      <trkpt lat="45.5568" lon="5.78808">
        <ele>393.3</ele>
        <time>2022-04-15T11:26:56Z</time>
      </trkpt>
      <trkpt lat="45.55685" lon="5.78811">
        <ele>393.3</ele>
        <time>2022-04-15T11:26:57Z</time>
      </trkpt>
      <trkpt lat="45.5569" lon="5.78815">
        <ele>393.2</ele>
        <time>2022-04-15T11:26:58Z</time>
      </trkpt>
      <trkpt lat="45.55695" lon="5.7882">
        <ele>393.1</ele>
        <time>2022-04-15T11:26:59Z</time>
      </trkpt>
      <trkpt lat="45.557" lon="5.78825">
        <ele>393</ele>
        <time>2022-04-15T11:27:00Z</time>
      </trkpt>
      <trkpt lat="45.55704" lon="5.78829">
        <ele>392.9</ele>
        <time>2022-04-15T11:27:01Z</time>
      </trkpt>
      <trkpt lat="45.5571" lon="5.78833">
        <ele>392.8</ele>
        <time>2022-04-15T11:27:02Z</time>
      </trkpt>
      <trkpt lat="45.55715" lon="5.78837">
        <ele>392.8</ele>
        <time>2022-04-15T11:27:03Z</time>
      </trkpt>
      <trkpt lat="45.5572" lon="5.78841">
        <ele>392.7</ele>
        <time>2022-04-15T11:27:04Z</time>
      </trkpt>
      <trkpt lat="45.55725" lon="5.78846">
        <ele>392.6</ele>
        <time>2022-04-15T11:27:05Z</time>
      </trkpt>
      <trkpt lat="45.5573" lon="5.78851">
        <ele>392.5</ele>
        <time>2022-04-15T11:27:06Z</time>
      </trkpt>
      <trkpt lat="45.55735" lon="5.78856">
        <ele>392.5</ele>
        <time>2022-04-15T11:27:07Z</time>
      </trkpt>
      <trkpt lat="45.55741" lon="5.78862">
        <ele>392.4</ele>
        <time>2022-04-15T11:27:08Z</time>
      </trkpt>
      <trkpt lat="45.55746" lon="5.78866">
        <ele>392.3</ele>
        <time>2022-04-15T11:27:09Z</time>
      </trkpt>
      <trkpt lat="45.55752" lon="5.78871">
        <ele>392.2</ele>
        <time>2022-04-15T11:27:10Z</time>
      </trkpt>
      <trkpt lat="45.55757" lon="5.78876">
        <ele>392.1</ele>
        <time>2022-04-15T11:27:11Z</time>
      </trkpt>
      <trkpt lat="45.55762" lon="5.7888">
        <ele>392</ele>
        <time>2022-04-15T11:27:12Z</time>
      </trkpt>
      <trkpt lat="45.55768" lon="5.78884">
        <ele>391.9</ele>
        <time>2022-04-15T11:27:13Z</time>
      </trkpt>
      <trkpt lat="45.55772" lon="5.78887">
        <ele>391.8</ele>
        <time>2022-04-15T11:27:14Z</time>
      </trkpt>
      <trkpt lat="45.55777" lon="5.78892">
        <ele>391.7</ele>
        <time>2022-04-15T11:27:15Z</time>
      </trkpt>
      <trkpt lat="45.55782" lon="5.78896">
        <ele>391.7</ele>
        <time>2022-04-15T11:27:16Z</time>
      </trkpt>
      <trkpt lat="45.55787" lon="5.78901">
        <ele>391.6</ele>
        <time>2022-04-15T11:27:17Z</time>
      </trkpt>
      <trkpt lat="45.55793" lon="5.78906">
        <ele>391.5</ele>
        <time>2022-04-15T11:27:18Z</time>
      </trkpt>
      <trkpt lat="45.55798" lon="5.78912">
        <ele>391.4</ele>
        <time>2022-04-15T11:27:19Z</time>
      </trkpt>
      <trkpt lat="45.55803" lon="5.78918">
        <ele>391.3</ele>
        <time>2022-04-15T11:27:20Z</time>
      </trkpt>
      <trkpt lat="45.55807" lon="5.78924">
        <ele>391.2</ele>
        <time>2022-04-15T11:27:21Z</time>
      </trkpt>
      <trkpt lat="45.55812" lon="5.78929">
        <ele>391.2</ele>
        <time>2022-04-15T11:27:22Z</time>
      </trkpt>
      <trkpt lat="45.55818" lon="5.78935">
        <ele>391.1</ele>
        <time>2022-04-15T11:27:23Z</time>
      </trkpt>
      <trkpt lat="45.55823" lon="5.7894">
        <ele>391.1</ele>
        <time>2022-04-15T11:27:24Z</time>
      </trkpt>
      <trkpt lat="45.55828" lon="5.78945">
        <ele>391</ele>
        <time>2022-04-15T11:27:25Z</time>
      </trkpt>
      <trkpt lat="45.55833" lon="5.78949">
        <ele>391</ele>
        <time>2022-04-15T11:27:26Z</time>
      </trkpt>
      <trkpt lat="45.55839" lon="5.78953">
        <ele>390.9</ele>
        <time>2022-04-15T11:27:27Z</time>
      </trkpt>
      <trkpt lat="45.55844" lon="5.78957">
        <ele>390.9</ele>
        <time>2022-04-15T11:27:28Z</time>
      </trkpt>
      <trkpt lat="45.55849" lon="5.78961">
        <ele>390.8</ele>
        <time>2022-04-15T11:27:29Z</time>
      </trkpt>
      <trkpt lat="45.55854" lon="5.78965">
        <ele>390.8</ele>
        <time>2022-04-15T11:27:30Z</time>
      </trkpt>
      <trkpt lat="45.5586" lon="5.78969">
        <ele>390.8</ele>
        <time>2022-04-15T11:27:31Z</time>
      </trkpt>
      <trkpt lat="45.55865" lon="5.78974">
        <ele>390.7</ele>
        <time>2022-04-15T11:27:32Z</time>
      </trkpt>
      <trkpt lat="45.5587" lon="5.78978">
        <ele>390.7</ele>
        <time>2022-04-15T11:27:33Z</time>
      </trkpt>
      <trkpt lat="45.55875" lon="5.78983">
        <ele>390.7</ele>
        <time>2022-04-15T11:27:34Z</time>
      </trkpt>
      <trkpt lat="45.5588" lon="5.78988">
        <ele>390.7</ele>
        <time>2022-04-15T11:27:35Z</time>
      </trkpt>
      <trkpt lat="45.55885" lon="5.78992">
        <ele>390.7</ele>
        <time>2022-04-15T11:27:36Z</time>
      </trkpt>
      <trkpt lat="45.5589" lon="5.78996">
        <ele>390.7</ele>
        <time>2022-04-15T11:27:37Z</time>
      </trkpt>
      <trkpt lat="45.55896" lon="5.79">
        <ele>390.7</ele>
        <time>2022-04-15T11:27:38Z</time>
      </trkpt>
      <trkpt lat="45.55901" lon="5.79005">
        <ele>390.6</ele>
        <time>2022-04-15T11:27:39Z</time>
      </trkpt>
      <trkpt lat="45.55906" lon="5.79009">
        <ele>390.6</ele>
        <time>2022-04-15T11:27:40Z</time>
      </trkpt>
      <trkpt lat="45.55911" lon="5.79014">
        <ele>390.6</ele>
        <time>2022-04-15T11:27:41Z</time>
      </trkpt>
      <trkpt lat="45.55916" lon="5.79018">
        <ele>390.5</ele>
        <time>2022-04-15T11:27:42Z</time>
      </trkpt>
      <trkpt lat="45.55921" lon="5.79023">
        <ele>390.5</ele>
        <time>2022-04-15T11:27:43Z</time>
      </trkpt>
      <trkpt lat="45.55926" lon="5.79028">
        <ele>390.4</ele>
        <time>2022-04-15T11:27:44Z</time>
      </trkpt>
      <trkpt lat="45.55932" lon="5.79033">
        <ele>390.3</ele>
        <time>2022-04-15T11:27:45Z</time>
      </trkpt>
      <trkpt lat="45.55937" lon="5.79038">
        <ele>390.3</ele>
        <time>2022-04-15T11:27:46Z</time>
      </trkpt>
      <trkpt lat="45.55942" lon="5.79043">
        <ele>390.3</ele>
        <time>2022-04-15T11:27:47Z</time>
      </trkpt>
      <trkpt lat="45.55947" lon="5.79048">
        <ele>390.2</ele>
        <time>2022-04-15T11:27:48Z</time>
      </trkpt>
      <trkpt lat="45.55952" lon="5.79053">
        <ele>390.1</ele>
        <time>2022-04-15T11:27:49Z</time>
      </trkpt>
      <trkpt lat="45.55958" lon="5.79058">
        <ele>390.1</ele>
        <time>2022-04-15T11:27:50Z</time>
      </trkpt>
      <trkpt lat="45.55963" lon="5.79062">
        <ele>390</ele>
        <time>2022-04-15T11:27:51Z</time>
      </trkpt>
      <trkpt lat="45.55968" lon="5.79067">
        <ele>389.9</ele>
        <time>2022-04-15T11:27:52Z</time>
      </trkpt>
      <trkpt lat="45.55974" lon="5.79072">
        <ele>389.9</ele>
        <time>2022-04-15T11:27:53Z</time>
      </trkpt>
      <trkpt lat="45.55979" lon="5.79077">
        <ele>389.8</ele>
        <time>2022-04-15T11:27:54Z</time>
      </trkpt>
      <trkpt lat="45.55984" lon="5.79083">
        <ele>389.8</ele>
        <time>2022-04-15T11:27:55Z</time>
      </trkpt>
      <trkpt lat="45.55989" lon="5.79088">
        <ele>389.7</ele>
        <time>2022-04-15T11:27:56Z</time>
      </trkpt>
      <trkpt lat="45.55995" lon="5.79093">
        <ele>389.7</ele>
        <time>2022-04-15T11:27:57Z</time>
      </trkpt>
      <trkpt lat="45.56" lon="5.79097">
        <ele>389.6</ele>
        <time>2022-04-15T11:27:58Z</time>
      </trkpt>
      <trkpt lat="45.56005" lon="5.79102">
        <ele>389.6</ele>
        <time>2022-04-15T11:27:59Z</time>
      </trkpt>
      <trkpt lat="45.5601" lon="5.79107">
        <ele>389.5</ele>
        <time>2022-04-15T11:28:00Z</time>
      </trkpt>
      <trkpt lat="45.56015" lon="5.79112">
        <ele>389.5</ele>
        <time>2022-04-15T11:28:01Z</time>
      </trkpt>
      <trkpt lat="45.5602" lon="5.79118">
        <ele>389.4</ele>
        <time>2022-04-15T11:28:02Z</time>
      </trkpt>
      <trkpt lat="45.56024" lon="5.79124">
        <ele>389.4</ele>
        <time>2022-04-15T11:28:03Z</time>
      </trkpt>
      <trkpt lat="45.56028" lon="5.79131">
        <ele>389.3</ele>
        <time>2022-04-15T11:28:04Z</time>
      </trkpt>
      <trkpt lat="45.56032" lon="5.79138">
        <ele>389.3</ele>
        <time>2022-04-15T11:28:05Z</time>
      </trkpt>
      <trkpt lat="45.56036" lon="5.79145">
        <ele>389.2</ele>
        <time>2022-04-15T11:28:06Z</time>
      </trkpt>
      <trkpt lat="45.5604" lon="5.79153">
        <ele>389.2</ele>
        <time>2022-04-15T11:28:07Z</time>
      </trkpt>
      <trkpt lat="45.56043" lon="5.7916">
        <ele>389.1</ele>
        <time>2022-04-15T11:28:08Z</time>
      </trkpt>
      <trkpt lat="45.56046" lon="5.79168">
        <ele>389.1</ele>
        <time>2022-04-15T11:28:09Z</time>
      </trkpt>
      <trkpt lat="45.56049" lon="5.79176">
        <ele>389</ele>
        <time>2022-04-15T11:28:10Z</time>
      </trkpt>
      <trkpt lat="45.56052" lon="5.79184">
        <ele>389</ele>
        <time>2022-04-15T11:28:11Z</time>
      </trkpt>
      <trkpt lat="45.56054" lon="5.79191">
        <ele>388.9</ele>
        <time>2022-04-15T11:28:12Z</time>
      </trkpt>
      <trkpt lat="45.56057" lon="5.79199">
        <ele>388.9</ele>
        <time>2022-04-15T11:28:13Z</time>
      </trkpt>
      <trkpt lat="45.56059" lon="5.79207">
        <ele>388.8</ele>
        <time>2022-04-15T11:28:14Z</time>
      </trkpt>
      <trkpt lat="45.56061" lon="5.79215">
        <ele>388.8</ele>
        <time>2022-04-15T11:28:15Z</time>
      </trkpt>
      <trkpt lat="45.56063" lon="5.79223">
        <ele>388.7</ele>
        <time>2022-04-15T11:28:16Z</time>
      </trkpt>
      <trkpt lat="45.56065" lon="5.79231">
        <ele>388.6</ele>
        <time>2022-04-15T11:28:17Z</time>
      </trkpt>
      <trkpt lat="45.56067" lon="5.79239">
        <ele>388.6</ele>
        <time>2022-04-15T11:28:18Z</time>
      </trkpt>
      <trkpt lat="45.56069" lon="5.79246">
        <ele>388.5</ele>
        <time>2022-04-15T11:28:19Z</time>
      </trkpt>
      <trkpt lat="45.5607" lon="5.79253">
        <ele>388.5</ele>
        <time>2022-04-15T11:28:20Z</time>
      </trkpt>
      <trkpt lat="45.56073" lon="5.7926">
        <ele>388.4</ele>
        <time>2022-04-15T11:28:21Z</time>
      </trkpt>
      <trkpt lat="45.56075" lon="5.79267">
        <ele>388.4</ele>
        <time>2022-04-15T11:28:22Z</time>
      </trkpt>
      <trkpt lat="45.56077" lon="5.79274">
        <ele>388.3</ele>
        <time>2022-04-15T11:28:23Z</time>
      </trkpt>
      <trkpt lat="45.56079" lon="5.79281">
        <ele>388.3</ele>
        <time>2022-04-15T11:28:24Z</time>
      </trkpt>
      <trkpt lat="45.56081" lon="5.79289">
        <ele>388.2</ele>
        <time>2022-04-15T11:28:25Z</time>
      </trkpt>
      <trkpt lat="45.56084" lon="5.79296">
        <ele>388.1</ele>
        <time>2022-04-15T11:28:26Z</time>
      </trkpt>
      <trkpt lat="45.56086" lon="5.79303">
        <ele>388.1</ele>
        <time>2022-04-15T11:28:27Z</time>
      </trkpt>
      <trkpt lat="45.56089" lon="5.7931">
        <ele>388</ele>
        <time>2022-04-15T11:28:28Z</time>
      </trkpt>
      <trkpt lat="45.56092" lon="5.79316">
        <ele>387.9</ele>
        <time>2022-04-15T11:28:29Z</time>
      </trkpt>
      <trkpt lat="45.56095" lon="5.79323">
        <ele>387.8</ele>
        <time>2022-04-15T11:28:30Z</time>
      </trkpt>
      <trkpt lat="45.56098" lon="5.79329">
        <ele>387.8</ele>
        <time>2022-04-15T11:28:31Z</time>
      </trkpt>
      <trkpt lat="45.56101" lon="5.79336">
        <ele>387.7</ele>
        <time>2022-04-15T11:28:32Z</time>
      </trkpt>
      <trkpt lat="45.56104" lon="5.79342">
        <ele>387.6</ele>
        <time>2022-04-15T11:28:33Z</time>
      </trkpt>
      <trkpt lat="45.56108" lon="5.79349">
        <ele>387.6</ele>
        <time>2022-04-15T11:28:34Z</time>
      </trkpt>
      <trkpt lat="45.56111" lon="5.79356">
        <ele>387.5</ele>
        <time>2022-04-15T11:28:35Z</time>
      </trkpt>
      <trkpt lat="45.56114" lon="5.79362">
        <ele>387.4</ele>
        <time>2022-04-15T11:28:36Z</time>
      </trkpt>
      <trkpt lat="45.56117" lon="5.79369">
        <ele>387.4</ele>
        <time>2022-04-15T11:28:37Z</time>
      </trkpt>
      <trkpt lat="45.56121" lon="5.79376">
        <ele>387.3</ele>
        <time>2022-04-15T11:28:38Z</time>
      </trkpt>
      <trkpt lat="45.56124" lon="5.79382">
        <ele>387.2</ele>
        <time>2022-04-15T11:28:39Z</time>
      </trkpt>
      <trkpt lat="45.56128" lon="5.79388">
        <ele>387.1</ele>
        <time>2022-04-15T11:28:40Z</time>
      </trkpt>
      <trkpt lat="45.56131" lon="5.79395">
        <ele>387.1</ele>
        <time>2022-04-15T11:28:41Z</time>
      </trkpt>
      <trkpt lat="45.56135" lon="5.79401">
        <ele>387</ele>
        <time>2022-04-15T11:28:42Z</time>
      </trkpt>
      <trkpt lat="45.56138" lon="5.79407">
        <ele>387</ele>
        <time>2022-04-15T11:28:43Z</time>
      </trkpt>
      <trkpt lat="45.56141" lon="5.79413">
        <ele>386.9</ele>
        <time>2022-04-15T11:28:44Z</time>
      </trkpt>
      <trkpt lat="45.56145" lon="5.79419">
        <ele>386.9</ele>
        <time>2022-04-15T11:28:45Z</time>
      </trkpt>
      <trkpt lat="45.56148" lon="5.79426">
        <ele>386.9</ele>
        <time>2022-04-15T11:28:46Z</time>
      </trkpt>
      <trkpt lat="45.56151" lon="5.79432">
        <ele>386.8</ele>
        <time>2022-04-15T11:28:47Z</time>
      </trkpt>
      <trkpt lat="45.56154" lon="5.79439">
        <ele>386.8</ele>
        <time>2022-04-15T11:28:48Z</time>
      </trkpt>
      <trkpt lat="45.56158" lon="5.79445">
        <ele>386.7</ele>
        <time>2022-04-15T11:28:49Z</time>
      </trkpt>
      <trkpt lat="45.56161" lon="5.7945">
        <ele>386.7</ele>
        <time>2022-04-15T11:28:50Z</time>
      </trkpt>
      <trkpt lat="45.56164" lon="5.79456">
        <ele>386.7</ele>
        <time>2022-04-15T11:28:51Z</time>
      </trkpt>
      <trkpt lat="45.56167" lon="5.7946">
        <ele>386.7</ele>
        <time>2022-04-15T11:28:52Z</time>
      </trkpt>
      <trkpt lat="45.56168" lon="5.79464">
        <ele>386.7</ele>
        <time>2022-04-15T11:28:53Z</time>
      </trkpt>
      <trkpt lat="45.56169" lon="5.79465">
        <ele>386.6</ele>
        <time>2022-04-15T11:28:54Z</time>
      </trkpt>
      <trkpt lat="45.56169" lon="5.79466">
        <ele>386.6</ele>
        <time>2022-04-15T11:28:55Z</time>
      </trkpt>
      <trkpt lat="45.5617" lon="5.79466">
        <ele>386.6</ele>
        <time>2022-04-15T11:28:56Z</time>
      </trkpt>
      <trkpt lat="45.5617" lon="5.79466">
        <ele>386.6</ele>
        <time>2022-04-15T11:28:57Z</time>
      </trkpt>
      <trkpt lat="45.5617" lon="5.79466">
        <ele>386.6</ele>
        <time>2022-04-15T11:28:58Z</time>
      </trkpt>
      <trkpt lat="45.5617" lon="5.79466">
        <ele>386.6</ele>
        <time>2022-04-15T11:28:59Z</time>
      </trkpt>
      <trkpt lat="45.5617" lon="5.79466">
        <ele>386.6</ele>
        <time>2022-04-15T11:29:00Z</time>
      </trkpt>
      <trkpt lat="45.5617" lon="5.79466">
        <ele>386.6</ele>
        <time>2022-04-15T11:29:01Z</time>
      </trkpt>
      <trkpt lat="45.5617" lon="5.79466">
        <ele>386.6</ele>
        <time>2022-04-15T11:29:02Z</time>
      </trkpt>
      <trkpt lat="45.5617" lon="5.79466">
        <ele>386.6</ele>
        <time>2022-04-15T11:29:03Z</time>
      </trkpt>
      <trkpt lat="45.5617" lon="5.79466">
        <ele>386.6</ele>
        <time>2022-04-15T11:29:04Z</time>
      </trkpt>
      <trkpt lat="45.5617" lon="5.79466">
        <ele>386.6</ele>
        <time>2022-04-15T11:29:05Z</time>
      </trkpt>
      <trkpt lat="45.5617" lon="5.79467">
        <ele>386.6</ele>
        <time>2022-04-15T11:29:06Z</time>
      </trkpt>
      <trkpt lat="45.56171" lon="5.79467">
        <ele>386.6</ele>
        <time>2022-04-15T11:29:07Z</time>
      </trkpt>
      <trkpt lat="45.56171" lon="5.79467">
        <ele>386.6</ele>
        <time>2022-04-15T11:29:08Z</time>
      </trkpt>
      <trkpt lat="45.56171" lon="5.79467">
        <ele>386.6</ele>
        <time>2022-04-15T11:29:09Z</time>
      </trkpt>
      <trkpt lat="45.56171" lon="5.79467">
        <ele>386.6</ele>
        <time>2022-04-15T11:29:10Z</time>
      </trkpt>
      <trkpt lat="45.56171" lon="5.79467">
        <ele>386.6</ele>
        <time>2022-04-15T11:29:11Z</time>
      </trkpt>
      <trkpt lat="45.56171" lon="5.79467">
        <ele>386.6</ele>
        <time>2022-04-15T11:29:13Z</time>
      </trkpt>
      <trkpt lat="45.56171" lon="5.79467">
        <ele>386.6</ele>
        <time>2022-04-15T11:29:14Z</time>
      </trkpt>
      <trkpt lat="45.56171" lon="5.79467">
        <ele>386.6</ele>
        <time>2022-04-15T11:29:15Z</time>
      </trkpt>
      <trkpt lat="45.56171" lon="5.79467">
        <ele>386.6</ele>
        <time>2022-04-15T11:29:16Z</time>
      </trkpt>
      <trkpt lat="45.56171" lon="5.79467">
        <ele>386.6</ele>
        <time>2022-04-15T11:29:17Z</time>
      </trkpt>
      <trkpt lat="45.56172" lon="5.79467">
        <ele>386.6</ele>
        <time>2022-04-15T11:29:18Z</time>
      </trkpt>
      <trkpt lat="45.56172" lon="5.79468">
        <ele>386.6</ele>
        <time>2022-04-15T11:29:19Z</time>
      </trkpt>
      <trkpt lat="45.56172" lon="5.79468">
        <ele>386.6</ele>
        <time>2022-04-15T11:29:20Z</time>
      </trkpt>
      <trkpt lat="45.56172" lon="5.79468">
        <ele>386.6</ele>
        <time>2022-04-15T11:29:21Z</time>
      </trkpt>
      <trkpt lat="45.56172" lon="5.79468">
        <ele>386.6</ele>
        <time>2022-04-15T11:29:22Z</time>
      </trkpt>
      <trkpt lat="45.56172" lon="5.79468">
        <ele>386.6</ele>
        <time>2022-04-15T11:29:23Z</time>
      </trkpt>
      <trkpt lat="45.56172" lon="5.79468">
        <ele>386.6</ele>
        <time>2022-04-15T11:29:24Z</time>
      </trkpt>
      <trkpt lat="45.56172" lon="5.79468">
        <ele>386.6</ele>
        <time>2022-04-15T11:29:25Z</time>
      </trkpt>
      <trkpt lat="45.56172" lon="5.79468">
        <ele>386.6</ele>
        <time>2022-04-15T11:29:26Z</time>
      </trkpt>
      <trkpt lat="45.56172" lon="5.79468">
        <ele>386.6</ele>
        <time>2022-04-15T11:29:27Z</time>
      </trkpt>
      <trkpt lat="45.56172" lon="5.79468">
        <ele>386.6</ele>
        <time>2022-04-15T11:29:28Z</time>
      </trkpt>
      <trkpt lat="45.56173" lon="5.79468">
        <ele>386.6</ele>
        <time>2022-04-15T11:29:29Z</time>
      </trkpt>
      <trkpt lat="45.56173" lon="5.79468">
        <ele>386.6</ele>
        <time>2022-04-15T11:29:30Z</time>
      </trkpt>
      <trkpt lat="45.56173" lon="5.79469">
        <ele>386.6</ele>
        <time>2022-04-15T11:29:31Z</time>
      </trkpt>
      <trkpt lat="45.56173" lon="5.79469">
        <ele>386.6</ele>
        <time>2022-04-15T11:29:32Z</time>
      </trkpt>
      <trkpt lat="45.56173" lon="5.79469">
        <ele>386.6</ele>
        <time>2022-04-15T11:29:33Z</time>
      </trkpt>
      <trkpt lat="45.56173" lon="5.79469">
        <ele>386.6</ele>
        <time>2022-04-15T11:29:34Z</time>
      </trkpt>
      <trkpt lat="45.56173" lon="5.79469">
        <ele>386.6</ele>
        <time>2022-04-15T11:29:35Z</time>
      </trkpt>
      <trkpt lat="45.56173" lon="5.79469">
        <ele>386.6</ele>
        <time>2022-04-15T11:29:36Z</time>
      </trkpt>
      <trkpt lat="45.56175" lon="5.79473">
        <ele>386.6</ele>
        <time>2022-04-15T11:29:37Z</time>
      </trkpt>
      <trkpt lat="45.56177" lon="5.79477">
        <ele>386.6</ele>
        <time>2022-04-15T11:29:38Z</time>
      </trkpt>
      <trkpt lat="45.56179" lon="5.79482">
        <ele>386.6</ele>
        <time>2022-04-15T11:29:39Z</time>
      </trkpt>
      <trkpt lat="45.56181" lon="5.79485">
        <ele>386.6</ele>
        <time>2022-04-15T11:29:40Z</time>
      </trkpt>
      <trkpt lat="45.56183" lon="5.7949">
        <ele>386.6</ele>
        <time>2022-04-15T11:29:41Z</time>
      </trkpt>
      <trkpt lat="45.56185" lon="5.79495">
        <ele>386.6</ele>
        <time>2022-04-15T11:29:42Z</time>
      </trkpt>
      <trkpt lat="45.56187" lon="5.79498">
        <ele>386.6</ele>
        <time>2022-04-15T11:29:43Z</time>
      </trkpt>
      <trkpt lat="45.56189" lon="5.79503">
        <ele>386.6</ele>
        <time>2022-04-15T11:29:44Z</time>
      </trkpt>
      <trkpt lat="45.56192" lon="5.79507">
        <ele>386.6</ele>
        <time>2022-04-15T11:29:45Z</time>
      </trkpt>
      <trkpt lat="45.56194" lon="5.7951">
        <ele>386.6</ele>
        <time>2022-04-15T11:29:46Z</time>
      </trkpt>
      <trkpt lat="45.56197" lon="5.79515">
        <ele>386.6</ele>
        <time>2022-04-15T11:29:47Z</time>
      </trkpt>
      <trkpt lat="45.56202" lon="5.79524">
        <ele>386.6</ele>
        <time>2022-04-15T11:29:49Z</time>
      </trkpt>
      <trkpt lat="45.56205" lon="5.7953">
        <ele>386.6</ele>
        <time>2022-04-15T11:29:50Z</time>
      </trkpt>
      <trkpt lat="45.5621" lon="5.79539">
        <ele>386.6</ele>
        <time>2022-04-15T11:29:52Z</time>
      </trkpt>
      <trkpt lat="45.56213" lon="5.79544">
        <ele>386.6</ele>
        <time>2022-04-15T11:29:54Z</time>
      </trkpt>
      <trkpt lat="45.56216" lon="5.79549">
        <ele>386.6</ele>
        <time>2022-04-15T11:29:55Z</time>
      </trkpt>
      <trkpt lat="45.56218" lon="5.79553">
        <ele>386.6</ele>
        <time>2022-04-15T11:29:56Z</time>
      </trkpt>
      <trkpt lat="45.5622" lon="5.79557">
        <ele>386.6</ele>
        <time>2022-04-15T11:29:57Z</time>
      </trkpt>
      <trkpt lat="45.56223" lon="5.79562">
        <ele>386.6</ele>
        <time>2022-04-15T11:29:58Z</time>
      </trkpt>
      <trkpt lat="45.56226" lon="5.79567">
        <ele>386.6</ele>
        <time>2022-04-15T11:29:59Z</time>
      </trkpt>
      <trkpt lat="45.56228" lon="5.79572">
        <ele>386.6</ele>
        <time>2022-04-15T11:30:00Z</time>
      </trkpt>
      <trkpt lat="45.56231" lon="5.79577">
        <ele>386.6</ele>
        <time>2022-04-15T11:30:01Z</time>
      </trkpt>
      <trkpt lat="45.56233" lon="5.79581">
        <ele>386.5</ele>
        <time>2022-04-15T11:30:02Z</time>
      </trkpt>
      <trkpt lat="45.56237" lon="5.79587">
        <ele>386.5</ele>
        <time>2022-04-15T11:30:03Z</time>
      </trkpt>
      <trkpt lat="45.5624" lon="5.79592">
        <ele>386.4</ele>
        <time>2022-04-15T11:30:04Z</time>
      </trkpt>
      <trkpt lat="45.56243" lon="5.79596">
        <ele>386.4</ele>
        <time>2022-04-15T11:30:05Z</time>
      </trkpt>
      <trkpt lat="45.56246" lon="5.796">
        <ele>386.4</ele>
        <time>2022-04-15T11:30:06Z</time>
      </trkpt>
      <trkpt lat="45.56249" lon="5.79604">
        <ele>386.3</ele>
        <time>2022-04-15T11:30:07Z</time>
      </trkpt>
      <trkpt lat="45.56252" lon="5.79608">
        <ele>386.3</ele>
        <time>2022-04-15T11:30:08Z</time>
      </trkpt>
      <trkpt lat="45.56257" lon="5.79612">
        <ele>386.3</ele>
        <time>2022-04-15T11:30:09Z</time>
      </trkpt>
      <trkpt lat="45.56261" lon="5.79615">
        <ele>386.3</ele>
        <time>2022-04-15T11:30:10Z</time>
      </trkpt>
      <trkpt lat="45.56265" lon="5.79619">
        <ele>386.3</ele>
        <time>2022-04-15T11:30:11Z</time>
      </trkpt>
      <trkpt lat="45.56269" lon="5.79622">
        <ele>386.3</ele>
        <time>2022-04-15T11:30:12Z</time>
      </trkpt>
      <trkpt lat="45.56274" lon="5.79624">
        <ele>386.3</ele>
        <time>2022-04-15T11:30:13Z</time>
      </trkpt>
      <trkpt lat="45.56278" lon="5.79625">
        <ele>386.3</ele>
        <time>2022-04-15T11:30:14Z</time>
      </trkpt>
      <trkpt lat="45.56282" lon="5.79626">
        <ele>386.3</ele>
        <time>2022-04-15T11:30:15Z</time>
      </trkpt>
      <trkpt lat="45.56287" lon="5.79626">
        <ele>386.3</ele>
        <time>2022-04-15T11:30:16Z</time>
      </trkpt>
      <trkpt lat="45.56291" lon="5.79626">
        <ele>386.3</ele>
        <time>2022-04-15T11:30:17Z</time>
      </trkpt>
      <trkpt lat="45.56296" lon="5.79625">
        <ele>386.3</ele>
        <time>2022-04-15T11:30:18Z</time>
      </trkpt>
      <trkpt lat="45.563" lon="5.79623">
        <ele>386.3</ele>
        <time>2022-04-15T11:30:19Z</time>
      </trkpt>
      <trkpt lat="45.56304" lon="5.79622">
        <ele>386.2</ele>
        <time>2022-04-15T11:30:20Z</time>
      </trkpt>
      <trkpt lat="45.56308" lon="5.79619">
        <ele>386.2</ele>
        <time>2022-04-15T11:30:21Z</time>
      </trkpt>
      <trkpt lat="45.56312" lon="5.79616">
        <ele>386.2</ele>
        <time>2022-04-15T11:30:22Z</time>
      </trkpt>
      <trkpt lat="45.56317" lon="5.79612">
        <ele>386.2</ele>
        <time>2022-04-15T11:30:23Z</time>
      </trkpt>
      <trkpt lat="45.56321" lon="5.79608">
        <ele>386.1</ele>
        <time>2022-04-15T11:30:24Z</time>
      </trkpt>
      <trkpt lat="45.56324" lon="5.79603">
        <ele>386.1</ele>
        <time>2022-04-15T11:30:25Z</time>
      </trkpt>
      <trkpt lat="45.56329" lon="5.79595">
        <ele>386.1</ele>
        <time>2022-04-15T11:30:26Z</time>
      </trkpt>
      <trkpt lat="45.56332" lon="5.79591">
        <ele>386</ele>
        <time>2022-04-15T11:30:28Z</time>
      </trkpt>
      <trkpt lat="45.56336" lon="5.79579">
        <ele>385.9</ele>
        <time>2022-04-15T11:30:30Z</time>
      </trkpt>
      <trkpt lat="45.5634" lon="5.79569">
        <ele>385.8</ele>
        <time>2022-04-15T11:30:32Z</time>
      </trkpt>
      <trkpt lat="45.56342" lon="5.79563">
        <ele>385.8</ele>
        <time>2022-04-15T11:30:33Z</time>
      </trkpt>
      <trkpt lat="45.56345" lon="5.79555">
        <ele>385.7</ele>
        <time>2022-04-15T11:30:34Z</time>
      </trkpt>
      <trkpt lat="45.56347" lon="5.7955">
        <ele>385.7</ele>
        <time>2022-04-15T11:30:35Z</time>
      </trkpt>
      <trkpt lat="45.5635" lon="5.79544">
        <ele>385.6</ele>
        <time>2022-04-15T11:30:37Z</time>
      </trkpt>
      <trkpt lat="45.56352" lon="5.79539">
        <ele>385.6</ele>
        <time>2022-04-15T11:30:38Z</time>
      </trkpt>
      <trkpt lat="45.56354" lon="5.79534">
        <ele>385.5</ele>
        <time>2022-04-15T11:30:39Z</time>
      </trkpt>
      <trkpt lat="45.56358" lon="5.79526">
        <ele>385.5</ele>
        <time>2022-04-15T11:30:40Z</time>
      </trkpt>
      <trkpt lat="45.56362" lon="5.7952">
        <ele>385.4</ele>
        <time>2022-04-15T11:30:41Z</time>
      </trkpt>
      <trkpt lat="45.56364" lon="5.79514">
        <ele>385.4</ele>
        <time>2022-04-15T11:30:42Z</time>
      </trkpt>
      <trkpt lat="45.56367" lon="5.79509">
        <ele>385.4</ele>
        <time>2022-04-15T11:30:43Z</time>
      </trkpt>
      <trkpt lat="45.56371" lon="5.79504">
        <ele>385.3</ele>
        <time>2022-04-15T11:30:44Z</time>
      </trkpt>
      <trkpt lat="45.56374" lon="5.79499">
        <ele>385.3</ele>
        <time>2022-04-15T11:30:45Z</time>
      </trkpt>
      <trkpt lat="45.56378" lon="5.79493">
        <ele>385.3</ele>
        <time>2022-04-15T11:30:46Z</time>
      </trkpt>
      <trkpt lat="45.56381" lon="5.79491">
        <ele>385.2</ele>
        <time>2022-04-15T11:30:47Z</time>
      </trkpt>
      <trkpt lat="45.56385" lon="5.79486">
        <ele>385.2</ele>
        <time>2022-04-15T11:30:48Z</time>
      </trkpt>
      <trkpt lat="45.56389" lon="5.79483">
        <ele>385.2</ele>
        <time>2022-04-15T11:30:49Z</time>
      </trkpt>
      <trkpt lat="45.56392" lon="5.79481">
        <ele>385.1</ele>
        <time>2022-04-15T11:30:50Z</time>
      </trkpt>
      <trkpt lat="45.56393" lon="5.7948">
        <ele>385.1</ele>
        <time>2022-04-15T11:30:51Z</time>
      </trkpt>
      <trkpt lat="45.56397" lon="5.79476">
        <ele>385.1</ele>
        <time>2022-04-15T11:30:52Z</time>
      </trkpt>
      <trkpt lat="45.56405" lon="5.79474">
        <ele>385</ele>
        <time>2022-04-15T11:30:54Z</time>
      </trkpt>
      <trkpt lat="45.56412" lon="5.79473">
        <ele>385</ele>
        <time>2022-04-15T11:30:55Z</time>
      </trkpt>
      <trkpt lat="45.56417" lon="5.79472">
        <ele>385</ele>
        <time>2022-04-15T11:30:57Z</time>
      </trkpt>
      <trkpt lat="45.56421" lon="5.79471">
        <ele>385</ele>
        <time>2022-04-15T11:30:58Z</time>
      </trkpt>
      <trkpt lat="45.56426" lon="5.79471">
        <ele>385</ele>
        <time>2022-04-15T11:30:59Z</time>
      </trkpt>
      <trkpt lat="45.56432" lon="5.79472">
        <ele>384.9</ele>
        <time>2022-04-15T11:31:00Z</time>
      </trkpt>
      <trkpt lat="45.5644" lon="5.79472">
        <ele>384.9</ele>
        <time>2022-04-15T11:31:02Z</time>
      </trkpt>
      <trkpt lat="45.56447" lon="5.79473">
        <ele>384.9</ele>
        <time>2022-04-15T11:31:03Z</time>
      </trkpt>
      <trkpt lat="45.56452" lon="5.79473">
        <ele>384.9</ele>
        <time>2022-04-15T11:31:05Z</time>
      </trkpt>
      <trkpt lat="45.56457" lon="5.79473">
        <ele>384.8</ele>
        <time>2022-04-15T11:31:06Z</time>
      </trkpt>
      <trkpt lat="45.56467" lon="5.79476">
        <ele>384.8</ele>
        <time>2022-04-15T11:31:08Z</time>
      </trkpt>
      <trkpt lat="45.5647" lon="5.79476">
        <ele>384.8</ele>
        <time>2022-04-15T11:31:09Z</time>
      </trkpt>
      <trkpt lat="45.56471" lon="5.79478">
        <ele>384.8</ele>
        <time>2022-04-15T11:31:10Z</time>
      </trkpt>
      <trkpt lat="45.56474" lon="5.79478">
        <ele>384.7</ele>
        <time>2022-04-15T11:31:11Z</time>
      </trkpt>
      <trkpt lat="45.56476" lon="5.79479">
        <ele>384.7</ele>
        <time>2022-04-15T11:31:12Z</time>
      </trkpt>
      <trkpt lat="45.5648" lon="5.79479">
        <ele>384.7</ele>
        <time>2022-04-15T11:31:13Z</time>
      </trkpt>
      <trkpt lat="45.56481" lon="5.79479">
        <ele>384.7</ele>
        <time>2022-04-15T11:31:14Z</time>
      </trkpt>
      <trkpt lat="45.56483" lon="5.79479">
        <ele>384.7</ele>
        <time>2022-04-15T11:31:15Z</time>
      </trkpt>
      <trkpt lat="45.56485" lon="5.79478">
        <ele>384.7</ele>
        <time>2022-04-15T11:31:16Z</time>
      </trkpt>
      <trkpt lat="45.56487" lon="5.79477">
        <ele>384.7</ele>
        <time>2022-04-15T11:31:17Z</time>
      </trkpt>
      <trkpt lat="45.56488" lon="5.79478">
        <ele>384.7</ele>
        <time>2022-04-15T11:31:18Z</time>
      </trkpt>
      <trkpt lat="45.56491" lon="5.79478">
        <ele>384.7</ele>
        <time>2022-04-15T11:31:19Z</time>
      </trkpt>
      <trkpt lat="45.56493" lon="5.79478">
        <ele>384.7</ele>
        <time>2022-04-15T11:31:20Z</time>
      </trkpt>
      <trkpt lat="45.56496" lon="5.79478">
        <ele>384.7</ele>
        <time>2022-04-15T11:31:21Z</time>
      </trkpt>
      <trkpt lat="45.56497" lon="5.79479">
        <ele>384.7</ele>
        <time>2022-04-15T11:31:22Z</time>
      </trkpt>
      <trkpt lat="45.56501" lon="5.79479">
        <ele>384.7</ele>
        <time>2022-04-15T11:31:23Z</time>
      </trkpt>
      <trkpt lat="45.56502" lon="5.79479">
        <ele>384.7</ele>
        <time>2022-04-15T11:31:24Z</time>
      </trkpt>
      <trkpt lat="45.56505" lon="5.7948">
        <ele>384.7</ele>
        <time>2022-04-15T11:31:25Z</time>
      </trkpt>
      <trkpt lat="45.56508" lon="5.79481">
        <ele>384.7</ele>
        <time>2022-04-15T11:31:26Z</time>
      </trkpt>
      <trkpt lat="45.56511" lon="5.7948">
        <ele>384.7</ele>
        <time>2022-04-15T11:31:27Z</time>
      </trkpt>
      <trkpt lat="45.56514" lon="5.7948">
        <ele>384.7</ele>
        <time>2022-04-15T11:31:28Z</time>
      </trkpt>
      <trkpt lat="45.56517" lon="5.7948">
        <ele>384.7</ele>
        <time>2022-04-15T11:31:29Z</time>
      </trkpt>
      <trkpt lat="45.56521" lon="5.7948">
        <ele>384.7</ele>
        <time>2022-04-15T11:31:30Z</time>
      </trkpt>
      <trkpt lat="45.56524" lon="5.7948">
        <ele>384.6</ele>
        <time>2022-04-15T11:31:31Z</time>
      </trkpt>
      <trkpt lat="45.5653" lon="5.79481">
        <ele>384.6</ele>
        <time>2022-04-15T11:31:32Z</time>
      </trkpt>
      <trkpt lat="45.56535" lon="5.7948">
        <ele>384.6</ele>
        <time>2022-04-15T11:31:33Z</time>
      </trkpt>
      <trkpt lat="45.56542" lon="5.7948">
        <ele>384.6</ele>
        <time>2022-04-15T11:31:35Z</time>
      </trkpt>
      <trkpt lat="45.56546" lon="5.79479">
        <ele>384.6</ele>
        <time>2022-04-15T11:31:36Z</time>
      </trkpt>
      <trkpt lat="45.56554" lon="5.79477">
        <ele>384.5</ele>
        <time>2022-04-15T11:31:38Z</time>
      </trkpt>
      <trkpt lat="45.56559" lon="5.79476">
        <ele>384.5</ele>
        <time>2022-04-15T11:31:39Z</time>
      </trkpt>
      <trkpt lat="45.56566" lon="5.79474">
        <ele>384.5</ele>
        <time>2022-04-15T11:31:41Z</time>
      </trkpt>
      <trkpt lat="45.56569" lon="5.79473">
        <ele>384.5</ele>
        <time>2022-04-15T11:31:42Z</time>
      </trkpt>
      <trkpt lat="45.5657" lon="5.79472">
        <ele>384.5</ele>
        <time>2022-04-15T11:31:43Z</time>
      </trkpt>
      <trkpt lat="45.56574" lon="5.79471">
        <ele>384.5</ele>
        <time>2022-04-15T11:31:44Z</time>
      </trkpt>
      <trkpt lat="45.56575" lon="5.79471">
        <ele>384.5</ele>
        <time>2022-04-15T11:31:45Z</time>
      </trkpt>
      <trkpt lat="45.56579" lon="5.7947">
        <ele>384.4</ele>
        <time>2022-04-15T11:31:46Z</time>
      </trkpt>
      <trkpt lat="45.56583" lon="5.79469">
        <ele>384.4</ele>
        <time>2022-04-15T11:31:47Z</time>
      </trkpt>
      <trkpt lat="45.56587" lon="5.79468">
        <ele>384.4</ele>
        <time>2022-04-15T11:31:48Z</time>
      </trkpt>
      <trkpt lat="45.56595" lon="5.79465">
        <ele>384.4</ele>
        <time>2022-04-15T11:31:50Z</time>
      </trkpt>
      <trkpt lat="45.56599" lon="5.79463">
        <ele>384.3</ele>
        <time>2022-04-15T11:31:51Z</time>
      </trkpt>
      <trkpt lat="45.56603" lon="5.79461">
        <ele>384.3</ele>
        <time>2022-04-15T11:31:52Z</time>
      </trkpt>
      <trkpt lat="45.56609" lon="5.79459">
        <ele>384.2</ele>
        <time>2022-04-15T11:31:53Z</time>
      </trkpt>
      <trkpt lat="45.56614" lon="5.79457">
        <ele>384.2</ele>
        <time>2022-04-15T11:31:54Z</time>
      </trkpt>
      <trkpt lat="45.56621" lon="5.79454">
        <ele>384.1</ele>
        <time>2022-04-15T11:31:56Z</time>
      </trkpt>
      <trkpt lat="45.56625" lon="5.79452">
        <ele>384.1</ele>
        <time>2022-04-15T11:31:57Z</time>
      </trkpt>
      <trkpt lat="45.56633" lon="5.79449">
        <ele>384</ele>
        <time>2022-04-15T11:31:59Z</time>
      </trkpt>
      <trkpt lat="45.56636" lon="5.79448">
        <ele>384</ele>
        <time>2022-04-15T11:32:00Z</time>
      </trkpt>
      <trkpt lat="45.5664" lon="5.79447">
        <ele>383.9</ele>
        <time>2022-04-15T11:32:01Z</time>
      </trkpt>
      <trkpt lat="45.56641" lon="5.79446">
        <ele>383.9</ele>
        <time>2022-04-15T11:32:02Z</time>
      </trkpt>
      <trkpt lat="45.56644" lon="5.79445">
        <ele>383.9</ele>
        <time>2022-04-15T11:32:03Z</time>
      </trkpt>
      <trkpt lat="45.56649" lon="5.79444">
        <ele>383.9</ele>
        <time>2022-04-15T11:32:04Z</time>
      </trkpt>
      <trkpt lat="45.56651" lon="5.79443">
        <ele>383.8</ele>
        <time>2022-04-15T11:32:06Z</time>
      </trkpt>
      <trkpt lat="45.56654" lon="5.79441">
        <ele>383.8</ele>
        <time>2022-04-15T11:32:07Z</time>
      </trkpt>
      <trkpt lat="45.56657" lon="5.7944">
        <ele>383.8</ele>
        <time>2022-04-15T11:32:08Z</time>
      </trkpt>
      <trkpt lat="45.56661" lon="5.79439">
        <ele>383.8</ele>
        <time>2022-04-15T11:32:09Z</time>
      </trkpt>
      <trkpt lat="45.56662" lon="5.79438">
        <ele>383.8</ele>
        <time>2022-04-15T11:32:10Z</time>
      </trkpt>
      <trkpt lat="45.56667" lon="5.79436">
        <ele>383.7</ele>
        <time>2022-04-15T11:32:11Z</time>
      </trkpt>
      <trkpt lat="45.56669" lon="5.79435">
        <ele>383.7</ele>
        <time>2022-04-15T11:32:12Z</time>
      </trkpt>
      <trkpt lat="45.56672" lon="5.79434">
        <ele>383.7</ele>
        <time>2022-04-15T11:32:14Z</time>
      </trkpt>
      <trkpt lat="45.56674" lon="5.79433">
        <ele>383.7</ele>
        <time>2022-04-15T11:32:15Z</time>
      </trkpt>
      <trkpt lat="45.56678" lon="5.79433">
        <ele>383.7</ele>
        <time>2022-04-15T11:32:16Z</time>
      </trkpt>
      <trkpt lat="45.5668" lon="5.79434">
        <ele>383.7</ele>
        <time>2022-04-15T11:32:17Z</time>
      </trkpt>
      <trkpt lat="45.56681" lon="5.79437">
        <ele>383.6</ele>
        <time>2022-04-15T11:32:18Z</time>
      </trkpt>
      <trkpt lat="45.56681" lon="5.79439">
        <ele>383.6</ele>
        <time>2022-04-15T11:32:20Z</time>
      </trkpt>
      <trkpt lat="45.56681" lon="5.79439">
        <ele>383.6</ele>
        <time>2022-04-15T11:32:21Z</time>
      </trkpt>
      <trkpt lat="45.5668" lon="5.79439">
        <ele>383.6</ele>
        <time>2022-04-15T11:32:22Z</time>
      </trkpt>
      <trkpt lat="45.56679" lon="5.79439">
        <ele>383.6</ele>
        <time>2022-04-15T11:32:23Z</time>
      </trkpt>
      <trkpt lat="45.56679" lon="5.79438">
        <ele>383.6</ele>
        <time>2022-04-15T11:32:25Z</time>
      </trkpt>
      <trkpt lat="45.5668" lon="5.79437">
        <ele>383.6</ele>
        <time>2022-04-15T11:32:26Z</time>
      </trkpt>
      <trkpt lat="45.56681" lon="5.79437">
        <ele>383.6</ele>
        <time>2022-04-15T11:32:27Z</time>
      </trkpt>
      <trkpt lat="45.56682" lon="5.79436">
        <ele>383.6</ele>
        <time>2022-04-15T11:32:28Z</time>
      </trkpt>
      <trkpt lat="45.56685" lon="5.79434">
        <ele>383.6</ele>
        <time>2022-04-15T11:32:30Z</time>
      </trkpt>
      <trkpt lat="45.56688" lon="5.79433">
        <ele>383.6</ele>
        <time>2022-04-15T11:32:31Z</time>
      </trkpt>
      <trkpt lat="45.56689" lon="5.79433">
        <ele>383.6</ele>
        <time>2022-04-15T11:32:32Z</time>
      </trkpt>
      <trkpt lat="45.56692" lon="5.79431">
        <ele>383.5</ele>
        <time>2022-04-15T11:32:33Z</time>
      </trkpt>
      <trkpt lat="45.56693" lon="5.7943">
        <ele>383.5</ele>
        <time>2022-04-15T11:32:34Z</time>
      </trkpt>
      <trkpt lat="45.56696" lon="5.79429">
        <ele>383.5</ele>
        <time>2022-04-15T11:32:35Z</time>
      </trkpt>
      <trkpt lat="45.56699" lon="5.79428">
        <ele>383.5</ele>
        <time>2022-04-15T11:32:36Z</time>
      </trkpt>
      <trkpt lat="45.56702" lon="5.79426">
        <ele>383.5</ele>
        <time>2022-04-15T11:32:37Z</time>
      </trkpt>
      <trkpt lat="45.56707" lon="5.79422">
        <ele>383.4</ele>
        <time>2022-04-15T11:32:39Z</time>
      </trkpt>
      <trkpt lat="45.5671" lon="5.79421">
        <ele>383.4</ele>
        <time>2022-04-15T11:32:40Z</time>
      </trkpt>
      <trkpt lat="45.56711" lon="5.7942">
        <ele>383.4</ele>
        <time>2022-04-15T11:32:41Z</time>
      </trkpt>
      <trkpt lat="45.56714" lon="5.7942">
        <ele>383.2</ele>
        <time>2022-04-15T11:32:42Z</time>
      </trkpt>
      <trkpt lat="45.56716" lon="5.79423">
        <ele>383</ele>
        <time>2022-04-15T11:32:44Z</time>
      </trkpt>
      <trkpt lat="45.56716" lon="5.79424">
        <ele>382.9</ele>
        <time>2022-04-15T11:32:45Z</time>
      </trkpt>
      <trkpt lat="45.56716" lon="5.7943">
        <ele>382.6</ele>
        <time>2022-04-15T11:32:47Z</time>
      </trkpt>
      <trkpt lat="45.56716" lon="5.79432">
        <ele>382.5</ele>
        <time>2022-04-15T11:32:48Z</time>
      </trkpt>
      <trkpt lat="45.56717" lon="5.79434">
        <ele>382.4</ele>
        <time>2022-04-15T11:32:49Z</time>
      </trkpt>
      <trkpt lat="45.56718" lon="5.79435">
        <ele>382.3</ele>
        <time>2022-04-15T11:32:50Z</time>
      </trkpt>
      <trkpt lat="45.56717" lon="5.79435">
        <ele>382.2</ele>
        <time>2022-04-15T11:32:51Z</time>
      </trkpt>
      <trkpt lat="45.56717" lon="5.79435">
        <ele>382.2</ele>
        <time>2022-04-15T11:32:52Z</time>
      </trkpt>
      <trkpt lat="45.56717" lon="5.79435">
        <ele>382.2</ele>
        <time>2022-04-15T11:32:53Z</time>
      </trkpt>
      <trkpt lat="45.56718" lon="5.79435">
        <ele>382.2</ele>
        <time>2022-04-15T11:32:54Z</time>
      </trkpt>
      <trkpt lat="45.56718" lon="5.79435">
        <ele>382.1</ele>
        <time>2022-04-15T11:32:55Z</time>
      </trkpt>
      <trkpt lat="45.56719" lon="5.79435">
        <ele>382.1</ele>
        <time>2022-04-15T11:32:56Z</time>
      </trkpt>
      <trkpt lat="45.56718" lon="5.79436">
        <ele>382</ele>
        <time>2022-04-15T11:32:57Z</time>
      </trkpt>
      <trkpt lat="45.56719" lon="5.79437">
        <ele>382</ele>
        <time>2022-04-15T11:32:58Z</time>
      </trkpt>
      <trkpt lat="45.56719" lon="5.79437">
        <ele>382</ele>
        <time>2022-04-15T11:33:00Z</time>
      </trkpt>
      <trkpt lat="45.56719" lon="5.79437">
        <ele>382</ele>
        <time>2022-04-15T11:33:01Z</time>
      </trkpt>
      <trkpt lat="45.56719" lon="5.79437">
        <ele>382</ele>
        <time>2022-04-15T11:33:02Z</time>
      </trkpt>
      <trkpt lat="45.56718" lon="5.79437">
        <ele>382</ele>
        <time>2022-04-15T11:33:03Z</time>
      </trkpt>
      <trkpt lat="45.56718" lon="5.79437">
        <ele>381.9</ele>
        <time>2022-04-15T11:33:04Z</time>
      </trkpt>
      <trkpt lat="45.56718" lon="5.79437">
        <ele>381.9</ele>
        <time>2022-04-15T11:33:05Z</time>
      </trkpt>
      <trkpt lat="45.56718" lon="5.79438">
        <ele>381.9</ele>
        <time>2022-04-15T11:33:07Z</time>
      </trkpt>
      <trkpt lat="45.56718" lon="5.79439">
        <ele>381.8</ele>
        <time>2022-04-15T11:33:08Z</time>
      </trkpt>
      <trkpt lat="45.56718" lon="5.79439">
        <ele>381.8</ele>
        <time>2022-04-15T11:33:09Z</time>
      </trkpt>
      <trkpt lat="45.56718" lon="5.79439">
        <ele>381.8</ele>
        <time>2022-04-15T11:33:10Z</time>
      </trkpt>
      <trkpt lat="45.56718" lon="5.79439">
        <ele>381.8</ele>
        <time>2022-04-15T11:33:11Z</time>
      </trkpt>
      <trkpt lat="45.56718" lon="5.79439">
        <ele>381.8</ele>
        <time>2022-04-15T11:33:12Z</time>
      </trkpt>
      <trkpt lat="45.56718" lon="5.79439">
        <ele>381.8</ele>
        <time>2022-04-15T11:33:13Z</time>
      </trkpt>
      <trkpt lat="45.56717" lon="5.79441">
        <ele>381.7</ele>
        <time>2022-04-15T11:33:14Z</time>
      </trkpt>
      <trkpt lat="45.56718" lon="5.79444">
        <ele>381.5</ele>
        <time>2022-04-15T11:33:15Z</time>
      </trkpt>
      <trkpt lat="45.56719" lon="5.79445">
        <ele>381.5</ele>
        <time>2022-04-15T11:33:16Z</time>
      </trkpt>
      <trkpt lat="45.56721" lon="5.7945">
        <ele>381.4</ele>
        <time>2022-04-15T11:33:17Z</time>
      </trkpt>
      <trkpt lat="45.56722" lon="5.79451">
        <ele>381.4</ele>
        <time>2022-04-15T11:33:18Z</time>
      </trkpt>
      <trkpt lat="45.56722" lon="5.79454">
        <ele>381.4</ele>
        <time>2022-04-15T11:33:19Z</time>
      </trkpt>
      <trkpt lat="45.5672" lon="5.79458">
        <ele>381.4</ele>
        <time>2022-04-15T11:33:21Z</time>
      </trkpt>
      <trkpt lat="45.5672" lon="5.79463">
        <ele>381.3</ele>
        <time>2022-04-15T11:33:22Z</time>
      </trkpt>
      <trkpt lat="45.56719" lon="5.79464">
        <ele>381.3</ele>
        <time>2022-04-15T11:33:23Z</time>
      </trkpt>
      <trkpt lat="45.56719" lon="5.79469">
        <ele>381.3</ele>
        <time>2022-04-15T11:33:24Z</time>
      </trkpt>
      <trkpt lat="45.56719" lon="5.79471">
        <ele>381.3</ele>
        <time>2022-04-15T11:33:25Z</time>
      </trkpt>
      <trkpt lat="45.5672" lon="5.79476">
        <ele>381.2</ele>
        <time>2022-04-15T11:33:26Z</time>
      </trkpt>
      <trkpt lat="45.56719" lon="5.79477">
        <ele>381.2</ele>
        <time>2022-04-15T11:33:27Z</time>
      </trkpt>
      <trkpt lat="45.5672" lon="5.79482">
        <ele>381.2</ele>
        <time>2022-04-15T11:33:29Z</time>
      </trkpt>
      <trkpt lat="45.5672" lon="5.79483">
        <ele>381.2</ele>
        <time>2022-04-15T11:33:30Z</time>
      </trkpt>
      <trkpt lat="45.56719" lon="5.79485">
        <ele>381.2</ele>
        <time>2022-04-15T11:33:31Z</time>
      </trkpt>
      <trkpt lat="45.56718" lon="5.79487">
        <ele>381.2</ele>
        <time>2022-04-15T11:33:32Z</time>
      </trkpt>
      <trkpt lat="45.56719" lon="5.79489">
        <ele>381.2</ele>
        <time>2022-04-15T11:33:33Z</time>
      </trkpt>
      <trkpt lat="45.5672" lon="5.79493">
        <ele>381.1</ele>
        <time>2022-04-15T11:33:35Z</time>
      </trkpt>
      <trkpt lat="45.56721" lon="5.79496">
        <ele>381.1</ele>
        <time>2022-04-15T11:33:36Z</time>
      </trkpt>
      <trkpt lat="45.56721" lon="5.79498">
        <ele>381.1</ele>
        <time>2022-04-15T11:33:37Z</time>
      </trkpt>
      <trkpt lat="45.56722" lon="5.79501">
        <ele>381.1</ele>
        <time>2022-04-15T11:33:38Z</time>
      </trkpt>
      <trkpt lat="45.56723" lon="5.79504">
        <ele>381.1</ele>
        <time>2022-04-15T11:33:40Z</time>
      </trkpt>
      <trkpt lat="45.56724" lon="5.79508">
        <ele>381.1</ele>
        <time>2022-04-15T11:33:41Z</time>
      </trkpt>
      <trkpt lat="45.56725" lon="5.7951">
        <ele>381</ele>
        <time>2022-04-15T11:33:42Z</time>
      </trkpt>
      <trkpt lat="45.56728" lon="5.79512">
        <ele>381</ele>
        <time>2022-04-15T11:33:43Z</time>
      </trkpt>
      <trkpt lat="45.56728" lon="5.79513">
        <ele>381</ele>
        <time>2022-04-15T11:33:44Z</time>
      </trkpt>
      <trkpt lat="45.5673" lon="5.79517">
        <ele>381</ele>
        <time>2022-04-15T11:33:46Z</time>
      </trkpt>
      <trkpt lat="45.56731" lon="5.79519">
        <ele>381</ele>
        <time>2022-04-15T11:33:47Z</time>
      </trkpt>
      <trkpt lat="45.56732" lon="5.79521">
        <ele>381</ele>
        <time>2022-04-15T11:33:48Z</time>
      </trkpt>
      <trkpt lat="45.56734" lon="5.79522">
        <ele>381</ele>
        <time>2022-04-15T11:33:49Z</time>
      </trkpt>
      <trkpt lat="45.56735" lon="5.79524">
        <ele>381</ele>
        <time>2022-04-15T11:33:51Z</time>
      </trkpt>
      <trkpt lat="45.56736" lon="5.79526">
        <ele>381</ele>
        <time>2022-04-15T11:33:52Z</time>
      </trkpt>
      <trkpt lat="45.56737" lon="5.79527">
        <ele>381</ele>
        <time>2022-04-15T11:33:54Z</time>
      </trkpt>
      <trkpt lat="45.56738" lon="5.7953">
        <ele>380.9</ele>
        <time>2022-04-15T11:33:55Z</time>
      </trkpt>
      <trkpt lat="45.56738" lon="5.79531">
        <ele>380.9</ele>
        <time>2022-04-15T11:33:56Z</time>
      </trkpt>
      <trkpt lat="45.56738" lon="5.79534">
        <ele>380.9</ele>
        <time>2022-04-15T11:33:57Z</time>
      </trkpt>
      <trkpt lat="45.56738" lon="5.79536">
        <ele>380.9</ele>
        <time>2022-04-15T11:33:58Z</time>
      </trkpt>
      <trkpt lat="45.56737" lon="5.79538">
        <ele>380.9</ele>
        <time>2022-04-15T11:34:00Z</time>
      </trkpt>
      <trkpt lat="45.56737" lon="5.79538">
        <ele>380.9</ele>
        <time>2022-04-15T11:34:01Z</time>
      </trkpt>
      <trkpt lat="45.56737" lon="5.79538">
        <ele>380.9</ele>
        <time>2022-04-15T11:34:02Z</time>
      </trkpt>
      <trkpt lat="45.56737" lon="5.79537">
        <ele>380.9</ele>
        <time>2022-04-15T11:34:03Z</time>
      </trkpt>
      <trkpt lat="45.56737" lon="5.79537">
        <ele>380.9</ele>
        <time>2022-04-15T11:34:04Z</time>
      </trkpt>
      <trkpt lat="45.56737" lon="5.79537">
        <ele>380.9</ele>
        <time>2022-04-15T11:34:05Z</time>
      </trkpt>
      <trkpt lat="45.56737" lon="5.79537">
        <ele>380.9</ele>
        <time>2022-04-15T11:34:06Z</time>
      </trkpt>
      <trkpt lat="45.56737" lon="5.79537">
        <ele>380.9</ele>
        <time>2022-04-15T11:34:07Z</time>
      </trkpt>
      <trkpt lat="45.56737" lon="5.79537">
        <ele>380.9</ele>
        <time>2022-04-15T11:34:08Z</time>
      </trkpt>
      <trkpt lat="45.56737" lon="5.79537">
        <ele>380.9</ele>
        <time>2022-04-15T11:34:09Z</time>
      </trkpt>
      <trkpt lat="45.56737" lon="5.79537">
        <ele>380.9</ele>
        <time>2022-04-15T11:34:10Z</time>
      </trkpt>
      <trkpt lat="45.56737" lon="5.79537">
        <ele>380.9</ele>
        <time>2022-04-15T11:34:11Z</time>
      </trkpt>
      <trkpt lat="45.56738" lon="5.79537">
        <ele>380.9</ele>
        <time>2022-04-15T11:34:12Z</time>
      </trkpt>
      <trkpt lat="45.56738" lon="5.79537">
        <ele>380.9</ele>
        <time>2022-04-15T11:34:13Z</time>
      </trkpt>
      <trkpt lat="45.56738" lon="5.79537">
        <ele>380.9</ele>
        <time>2022-04-15T11:34:14Z</time>
      </trkpt>
      <trkpt lat="45.56738" lon="5.79537">
        <ele>380.9</ele>
        <time>2022-04-15T11:34:15Z</time>
      </trkpt>
      <trkpt lat="45.56738" lon="5.79537">
        <ele>380.9</ele>
        <time>2022-04-15T11:34:16Z</time>
      </trkpt>
      <trkpt lat="45.56738" lon="5.79537">
        <ele>380.9</ele>
        <time>2022-04-15T11:34:17Z</time>
      </trkpt>
      <trkpt lat="45.56739" lon="5.79537">
        <ele>380.9</ele>
        <time>2022-04-15T11:34:18Z</time>
      </trkpt>
      <trkpt lat="45.56739" lon="5.79536">
        <ele>380.9</ele>
        <time>2022-04-15T11:34:19Z</time>
      </trkpt>
      <trkpt lat="45.56739" lon="5.79536">
        <ele>380.9</ele>
        <time>2022-04-15T11:34:20Z</time>
      </trkpt>
      <trkpt lat="45.56739" lon="5.79536">
        <ele>380.9</ele>
        <time>2022-04-15T11:34:21Z</time>
      </trkpt>
      <trkpt lat="45.56739" lon="5.79536">
        <ele>380.9</ele>
        <time>2022-04-15T11:34:22Z</time>
      </trkpt>
      <trkpt lat="45.56739" lon="5.79536">
        <ele>380.9</ele>
        <time>2022-04-15T11:34:23Z</time>
      </trkpt>
      <trkpt lat="45.56739" lon="5.79536">
        <ele>380.9</ele>
        <time>2022-04-15T11:34:24Z</time>
      </trkpt>
      <trkpt lat="45.56739" lon="5.79536">
        <ele>380.9</ele>
        <time>2022-04-15T11:34:25Z</time>
      </trkpt>
      <trkpt lat="45.56739" lon="5.79536">
        <ele>380.9</ele>
        <time>2022-04-15T11:34:26Z</time>
      </trkpt>
      <trkpt lat="45.56739" lon="5.79536">
        <ele>380.9</ele>
        <time>2022-04-15T11:34:27Z</time>
      </trkpt>
      <trkpt lat="45.56739" lon="5.79536">
        <ele>380.9</ele>
        <time>2022-04-15T11:34:28Z</time>
      </trkpt>
      <trkpt lat="45.56739" lon="5.79536">
        <ele>380.9</ele>
        <time>2022-04-15T11:34:29Z</time>
      </trkpt>
      <trkpt lat="45.56739" lon="5.79536">
        <ele>380.9</ele>
        <time>2022-04-15T11:34:30Z</time>
      </trkpt>
      <trkpt lat="45.56739" lon="5.79536">
        <ele>380.9</ele>
        <time>2022-04-15T11:34:31Z</time>
      </trkpt>
      <trkpt lat="45.56739" lon="5.79536">
        <ele>380.9</ele>
        <time>2022-04-15T11:34:32Z</time>
      </trkpt>
      <trkpt lat="45.56739" lon="5.79536">
        <ele>380.9</ele>
        <time>2022-04-15T11:34:33Z</time>
      </trkpt>
      <trkpt lat="45.56739" lon="5.79536">
        <ele>380.9</ele>
        <time>2022-04-15T11:34:34Z</time>
      </trkpt>
      <trkpt lat="45.56739" lon="5.79536">
        <ele>380.9</ele>
        <time>2022-04-15T11:34:35Z</time>
      </trkpt>
      <trkpt lat="45.56739" lon="5.79536">
        <ele>380.9</ele>
        <time>2022-04-15T11:34:36Z</time>
      </trkpt>
      <trkpt lat="45.56739" lon="5.79536">
        <ele>380.9</ele>
        <time>2022-04-15T11:34:37Z</time>
      </trkpt>
      <trkpt lat="45.56739" lon="5.79536">
        <ele>380.9</ele>
        <time>2022-04-15T11:34:38Z</time>
      </trkpt>
      <trkpt lat="45.56739" lon="5.79536">
        <ele>380.9</ele>
        <time>2022-04-15T11:34:39Z</time>
      </trkpt>
      <trkpt lat="45.56739" lon="5.79536">
        <ele>380.9</ele>
        <time>2022-04-15T11:34:40Z</time>
      </trkpt>
      <trkpt lat="45.56739" lon="5.79536">
        <ele>380.9</ele>
        <time>2022-04-15T11:34:41Z</time>
      </trkpt>
      <trkpt lat="45.56739" lon="5.79536">
        <ele>380.9</ele>
        <time>2022-04-15T11:34:42Z</time>
      </trkpt>
      <trkpt lat="45.56739" lon="5.79536">
        <ele>380.9</ele>
        <time>2022-04-15T11:34:43Z</time>
      </trkpt>
      <trkpt lat="45.56739" lon="5.79536">
        <ele>380.9</ele>
        <time>2022-04-15T11:34:44Z</time>
      </trkpt>
      <trkpt lat="45.56739" lon="5.79536">
        <ele>380.9</ele>
        <time>2022-04-15T11:34:45Z</time>
      </trkpt>
      <trkpt lat="45.56739" lon="5.79536">
        <ele>380.9</ele>
        <time>2022-04-15T11:34:46Z</time>
      </trkpt>
      <trkpt lat="45.56739" lon="5.79536">
        <ele>380.9</ele>
        <time>2022-04-15T11:34:47Z</time>
      </trkpt>
      <trkpt lat="45.56739" lon="5.79536">
        <ele>380.9</ele>
        <time>2022-04-15T11:34:48Z</time>
      </trkpt>
      <trkpt lat="45.56739" lon="5.79536">
        <ele>380.9</ele>
        <time>2022-04-15T11:34:49Z</time>
      </trkpt>
      <trkpt lat="45.56739" lon="5.79536">
        <ele>380.9</ele>
        <time>2022-04-15T11:34:50Z</time>
      </trkpt>
      <trkpt lat="45.56739" lon="5.79536">
        <ele>380.9</ele>
        <time>2022-04-15T11:34:51Z</time>
      </trkpt>
      <trkpt lat="45.56739" lon="5.79536">
        <ele>380.9</ele>
        <time>2022-04-15T11:34:52Z</time>
      </trkpt>
      <trkpt lat="45.56739" lon="5.79536">
        <ele>380.9</ele>
        <time>2022-04-15T11:34:53Z</time>
      </trkpt>
      <trkpt lat="45.56739" lon="5.79536">
        <ele>380.9</ele>
        <time>2022-04-15T11:34:54Z</time>
      </trkpt>
      <trkpt lat="45.56739" lon="5.79536">
        <ele>380.9</ele>
        <time>2022-04-15T11:34:55Z</time>
      </trkpt>
      <trkpt lat="45.56739" lon="5.79536">
        <ele>380.9</ele>
        <time>2022-04-15T11:34:56Z</time>
      </trkpt>
      <trkpt lat="45.56739" lon="5.79536">
        <ele>380.9</ele>
        <time>2022-04-15T11:34:57Z</time>
      </trkpt>
      <trkpt lat="45.56739" lon="5.79536">
        <ele>380.9</ele>
        <time>2022-04-15T11:34:58Z</time>
      </trkpt>
      <trkpt lat="45.56739" lon="5.79536">
        <ele>380.9</ele>
        <time>2022-04-15T11:34:59Z</time>
      </trkpt>
      <trkpt lat="45.56739" lon="5.79536">
        <ele>380.9</ele>
        <time>2022-04-15T11:35:00Z</time>
      </trkpt>
      <trkpt lat="45.56739" lon="5.79536">
        <ele>380.9</ele>
        <time>2022-04-15T11:35:01Z</time>
      </trkpt>
      <trkpt lat="45.56739" lon="5.79536">
        <ele>380.9</ele>
        <time>2022-04-15T11:35:02Z</time>
      </trkpt>
      <trkpt lat="45.56739" lon="5.79536">
        <ele>380.9</ele>
        <time>2022-04-15T11:35:03Z</time>
      </trkpt>
      <trkpt lat="45.56739" lon="5.79536">
        <ele>380.9</ele>
        <time>2022-04-15T11:35:04Z</time>
      </trkpt>
      <trkpt lat="45.56739" lon="5.79536">
        <ele>380.9</ele>
        <time>2022-04-15T11:35:05Z</time>
      </trkpt>
      <trkpt lat="45.56739" lon="5.79536">
        <ele>380.9</ele>
        <time>2022-04-15T11:35:06Z</time>
      </trkpt>
      <trkpt lat="45.56739" lon="5.79536">
        <ele>380.9</ele>
        <time>2022-04-15T11:35:07Z</time>
      </trkpt>
      <trkpt lat="45.56739" lon="5.79536">
        <ele>380.9</ele>
        <time>2022-04-15T11:35:08Z</time>
      </trkpt>
      <trkpt lat="45.56739" lon="5.79536">
        <ele>380.9</ele>
        <time>2022-04-15T11:35:09Z</time>
      </trkpt>
      <trkpt lat="45.56739" lon="5.79536">
        <ele>380.9</ele>
        <time>2022-04-15T11:35:10Z</time>
      </trkpt>
      <trkpt lat="45.56739" lon="5.79536">
        <ele>380.9</ele>
        <time>2022-04-15T11:35:11Z</time>
      </trkpt>
      <trkpt lat="45.56739" lon="5.79536">
        <ele>380.9</ele>
        <time>2022-04-15T11:35:12Z</time>
      </trkpt>
      <trkpt lat="45.56739" lon="5.79536">
        <ele>380.9</ele>
        <time>2022-04-15T11:35:13Z</time>
      </trkpt>
      <trkpt lat="45.56739" lon="5.79536">
        <ele>380.9</ele>
        <time>2022-04-15T11:35:14Z</time>
      </trkpt>
      <trkpt lat="45.56739" lon="5.79536">
        <ele>380.9</ele>
        <time>2022-04-15T11:35:15Z</time>
      </trkpt>
      <trkpt lat="45.56739" lon="5.79536">
        <ele>380.9</ele>
        <time>2022-04-15T11:35:16Z</time>
      </trkpt>
      <trkpt lat="45.56739" lon="5.79536">
        <ele>380.9</ele>
        <time>2022-04-15T11:35:17Z</time>
      </trkpt>
      <trkpt lat="45.56739" lon="5.79536">
        <ele>380.9</ele>
        <time>2022-04-15T11:35:18Z</time>
      </trkpt>
      <trkpt lat="45.56739" lon="5.79536">
        <ele>380.9</ele>
        <time>2022-04-15T11:35:19Z</time>
      </trkpt>
      <trkpt lat="45.56739" lon="5.79536">
        <ele>380.9</ele>
        <time>2022-04-15T11:35:20Z</time>
      </trkpt>
      <trkpt lat="45.56739" lon="5.79536">
        <ele>380.9</ele>
        <time>2022-04-15T11:35:21Z</time>
      </trkpt>
      <trkpt lat="45.56739" lon="5.79536">
        <ele>380.9</ele>
        <time>2022-04-15T11:35:22Z</time>
      </trkpt>
      <trkpt lat="45.56739" lon="5.79536">
        <ele>380.9</ele>
        <time>2022-04-15T11:35:23Z</time>
      </trkpt>
      <trkpt lat="45.56739" lon="5.79536">
        <ele>380.9</ele>
        <time>2022-04-15T11:35:24Z</time>
      </trkpt>
      <trkpt lat="45.56739" lon="5.79536">
        <ele>380.9</ele>
        <time>2022-04-15T11:35:25Z</time>
      </trkpt>
      <trkpt lat="45.56739" lon="5.79536">
        <ele>380.9</ele>
        <time>2022-04-15T11:35:26Z</time>
      </trkpt>
      <trkpt lat="45.56739" lon="5.79536">
        <ele>380.9</ele>
        <time>2022-04-15T11:35:27Z</time>
      </trkpt>
      <trkpt lat="45.56739" lon="5.79536">
        <ele>380.9</ele>
        <time>2022-04-15T11:35:28Z</time>
      </trkpt>
      <trkpt lat="45.56739" lon="5.79536">
        <ele>380.9</ele>
        <time>2022-04-15T11:35:29Z</time>
      </trkpt>
      <trkpt lat="45.56739" lon="5.79536">
        <ele>380.9</ele>
        <time>2022-04-15T11:35:30Z</time>
      </trkpt>
      <trkpt lat="45.56739" lon="5.79536">
        <ele>380.9</ele>
        <time>2022-04-15T11:35:31Z</time>
      </trkpt>
      <trkpt lat="45.56739" lon="5.79536">
        <ele>380.9</ele>
        <time>2022-04-15T11:35:32Z</time>
      </trkpt>
      <trkpt lat="45.56739" lon="5.79536">
        <ele>380.9</ele>
        <time>2022-04-15T11:35:33Z</time>
      </trkpt>
      <trkpt lat="45.56739" lon="5.79536">
        <ele>380.9</ele>
        <time>2022-04-15T11:35:34Z</time>
      </trkpt>
      <trkpt lat="45.56739" lon="5.79536">
        <ele>380.9</ele>
        <time>2022-04-15T11:35:35Z</time>
      </trkpt>
      <trkpt lat="45.56739" lon="5.79536">
        <ele>380.9</ele>
        <time>2022-04-15T11:35:36Z</time>
      </trkpt>
      <trkpt lat="45.56739" lon="5.79536">
        <ele>380.9</ele>
        <time>2022-04-15T11:35:37Z</time>
      </trkpt>
      <trkpt lat="45.56739" lon="5.79536">
        <ele>380.9</ele>
        <time>2022-04-15T11:35:38Z</time>
      </trkpt>
      <trkpt lat="45.56739" lon="5.79536">
        <ele>380.9</ele>
        <time>2022-04-15T11:35:39Z</time>
      </trkpt>
      <trkpt lat="45.56739" lon="5.79536">
        <ele>380.9</ele>
        <time>2022-04-15T11:35:40Z</time>
      </trkpt>
      <trkpt lat="45.56739" lon="5.79536">
        <ele>380.9</ele>
        <time>2022-04-15T11:35:41Z</time>
      </trkpt>
      <trkpt lat="45.56739" lon="5.79536">
        <ele>380.9</ele>
        <time>2022-04-15T11:35:42Z</time>
      </trkpt>
      <trkpt lat="45.56739" lon="5.79536">
        <ele>380.9</ele>
        <time>2022-04-15T11:35:43Z</time>
      </trkpt>
      <trkpt lat="45.56739" lon="5.79536">
        <ele>380.9</ele>
        <time>2022-04-15T11:35:44Z</time>
      </trkpt>
      <trkpt lat="45.56739" lon="5.79536">
        <ele>380.9</ele>
        <time>2022-04-15T11:35:45Z</time>
      </trkpt>
      <trkpt lat="45.56739" lon="5.79536">
        <ele>380.9</ele>
        <time>2022-04-15T11:35:46Z</time>
      </trkpt>
      <trkpt lat="45.56739" lon="5.79536">
        <ele>380.9</ele>
        <time>2022-04-15T11:35:47Z</time>
      </trkpt>
      <trkpt lat="45.56739" lon="5.79536">
        <ele>380.9</ele>
        <time>2022-04-15T11:35:48Z</time>
      </trkpt>
      <trkpt lat="45.56739" lon="5.79536">
        <ele>380.9</ele>
        <time>2022-04-15T11:35:49Z</time>
      </trkpt>
      <trkpt lat="45.56739" lon="5.79536">
        <ele>380.9</ele>
        <time>2022-04-15T11:35:50Z</time>
      </trkpt>
      <trkpt lat="45.56739" lon="5.79536">
        <ele>380.9</ele>
        <time>2022-04-15T11:35:51Z</time>
      </trkpt>
      <trkpt lat="45.56739" lon="5.79536">
        <ele>380.9</ele>
        <time>2022-04-15T11:35:52Z</time>
      </trkpt>
      <trkpt lat="45.56739" lon="5.79536">
        <ele>380.9</ele>
        <time>2022-04-15T11:35:53Z</time>
      </trkpt>
      <trkpt lat="45.56739" lon="5.79536">
        <ele>380.9</ele>
        <time>2022-04-15T11:35:54Z</time>
      </trkpt>
      <trkpt lat="45.56739" lon="5.79536">
        <ele>380.9</ele>
        <time>2022-04-15T11:35:55Z</time>
      </trkpt>
      <trkpt lat="45.56739" lon="5.79536">
        <ele>380.9</ele>
        <time>2022-04-15T11:35:56Z</time>
      </trkpt>
      <trkpt lat="45.56739" lon="5.79536">
        <ele>380.9</ele>
        <time>2022-04-15T11:35:57Z</time>
      </trkpt>
      <trkpt lat="45.56739" lon="5.79536">
        <ele>380.9</ele>
        <time>2022-04-15T11:35:58Z</time>
      </trkpt>
      <trkpt lat="45.56739" lon="5.79536">
        <ele>380.9</ele>
        <time>2022-04-15T11:35:59Z</time>
      </trkpt>
      <trkpt lat="45.56739" lon="5.79536">
        <ele>380.9</ele>
        <time>2022-04-15T11:36:00Z</time>
      </trkpt>
      <trkpt lat="45.56739" lon="5.79536">
        <ele>380.9</ele>
        <time>2022-04-15T11:36:01Z</time>
      </trkpt>
      <trkpt lat="45.56739" lon="5.79536">
        <ele>380.9</ele>
        <time>2022-04-15T11:36:02Z</time>
      </trkpt>
      <trkpt lat="45.56739" lon="5.79536">
        <ele>380.9</ele>
        <time>2022-04-15T11:36:03Z</time>
      </trkpt>
      <trkpt lat="45.56739" lon="5.79536">
        <ele>380.9</ele>
        <time>2022-04-15T11:36:04Z</time>
      </trkpt>
      <trkpt lat="45.56739" lon="5.79536">
        <ele>380.9</ele>
        <time>2022-04-15T11:36:05Z</time>
      </trkpt>
      <trkpt lat="45.56739" lon="5.79536">
        <ele>380.9</ele>
        <time>2022-04-15T11:36:06Z</time>
      </trkpt>
      <trkpt lat="45.56739" lon="5.79536">
        <ele>380.9</ele>
        <time>2022-04-15T11:36:07Z</time>
      </trkpt>
      <trkpt lat="45.56739" lon="5.79536">
        <ele>380.9</ele>
        <time>2022-04-15T11:36:08Z</time>
      </trkpt>
      <trkpt lat="45.56739" lon="5.79536">
        <ele>380.9</ele>
        <time>2022-04-15T11:36:09Z</time>
      </trkpt>
      <trkpt lat="45.56739" lon="5.79536">
        <ele>380.9</ele>
        <time>2022-04-15T11:36:10Z</time>
      </trkpt>
      <trkpt lat="45.56739" lon="5.79536">
        <ele>380.9</ele>
        <time>2022-04-15T11:36:11Z</time>
      </trkpt>
      <trkpt lat="45.56739" lon="5.79536">
        <ele>380.9</ele>
        <time>2022-04-15T11:36:12Z</time>
      </trkpt>
      <trkpt lat="45.56739" lon="5.79536">
        <ele>380.9</ele>
        <time>2022-04-15T11:36:13Z</time>
      </trkpt>
      <trkpt lat="45.56739" lon="5.79536">
        <ele>380.9</ele>
        <time>2022-04-15T11:36:14Z</time>
      </trkpt>
      <trkpt lat="45.56739" lon="5.79536">
        <ele>380.9</ele>
        <time>2022-04-15T11:36:15Z</time>
      </trkpt>
      <trkpt lat="45.56739" lon="5.79536">
        <ele>380.9</ele>
        <time>2022-04-15T11:36:16Z</time>
      </trkpt>
      <trkpt lat="45.56739" lon="5.79536">
        <ele>380.9</ele>
        <time>2022-04-15T11:36:17Z</time>
      </trkpt>
      <trkpt lat="45.56739" lon="5.79536">
        <ele>380.9</ele>
        <time>2022-04-15T11:36:18Z</time>
      </trkpt>
      <trkpt lat="45.56739" lon="5.79536">
        <ele>380.9</ele>
        <time>2022-04-15T11:36:19Z</time>
      </trkpt>
      <trkpt lat="45.56739" lon="5.79536">
        <ele>380.9</ele>
        <time>2022-04-15T11:36:20Z</time>
      </trkpt>
      <trkpt lat="45.56739" lon="5.79536">
        <ele>380.9</ele>
        <time>2022-04-15T11:36:21Z</time>
      </trkpt>
      <trkpt lat="45.56739" lon="5.79536">
        <ele>380.9</ele>
        <time>2022-04-15T11:36:22Z</time>
      </trkpt>
      <trkpt lat="45.56739" lon="5.79536">
        <ele>380.9</ele>
        <time>2022-04-15T11:36:23Z</time>
      </trkpt>
      <trkpt lat="45.56739" lon="5.79536">
        <ele>380.9</ele>
        <time>2022-04-15T11:36:24Z</time>
      </trkpt>
      <trkpt lat="45.56739" lon="5.79536">
        <ele>380.9</ele>
        <time>2022-04-15T11:36:25Z</time>
      </trkpt>
      <trkpt lat="45.56739" lon="5.79536">
        <ele>380.9</ele>
        <time>2022-04-15T11:36:26Z</time>
      </trkpt>
      <trkpt lat="45.56739" lon="5.79536">
        <ele>380.9</ele>
        <time>2022-04-15T11:36:27Z</time>
      </trkpt>
      <trkpt lat="45.56739" lon="5.79536">
        <ele>380.9</ele>
        <time>2022-04-15T11:36:28Z</time>
      </trkpt>
      <trkpt lat="45.56739" lon="5.79536">
        <ele>380.9</ele>
        <time>2022-04-15T11:36:29Z</time>
      </trkpt>
      <trkpt lat="45.56739" lon="5.79536">
        <ele>380.9</ele>
        <time>2022-04-15T11:36:30Z</time>
      </trkpt>
      <trkpt lat="45.56739" lon="5.79536">
        <ele>380.9</ele>
        <time>2022-04-15T11:36:31Z</time>
      </trkpt>
      <trkpt lat="45.56739" lon="5.79536">
        <ele>380.9</ele>
        <time>2022-04-15T11:36:32Z</time>
      </trkpt>
      <trkpt lat="45.56739" lon="5.79536">
        <ele>380.9</ele>
        <time>2022-04-15T11:36:33Z</time>
      </trkpt>
      <trkpt lat="45.56739" lon="5.79536">
        <ele>380.9</ele>
        <time>2022-04-15T11:36:34Z</time>
      </trkpt>
      <trkpt lat="45.56739" lon="5.79536">
        <ele>380.9</ele>
        <time>2022-04-15T11:36:35Z</time>
      </trkpt>
      <trkpt lat="45.56739" lon="5.79536">
        <ele>380.9</ele>
        <time>2022-04-15T11:36:36Z</time>
      </trkpt>
      <trkpt lat="45.56739" lon="5.79536">
        <ele>380.9</ele>
        <time>2022-04-15T11:36:37Z</time>
      </trkpt>
      <trkpt lat="45.56739" lon="5.79536">
        <ele>380.9</ele>
        <time>2022-04-15T11:36:38Z</time>
      </trkpt>
      <trkpt lat="45.56739" lon="5.79536">
        <ele>380.9</ele>
        <time>2022-04-15T11:36:39Z</time>
      </trkpt>
      <trkpt lat="45.56739" lon="5.79536">
        <ele>380.9</ele>
        <time>2022-04-15T11:36:40Z</time>
      </trkpt>
      <trkpt lat="45.56739" lon="5.79536">
        <ele>380.9</ele>
        <time>2022-04-15T11:36:41Z</time>
      </trkpt>
      <trkpt lat="45.56739" lon="5.79536">
        <ele>380.9</ele>
        <time>2022-04-15T11:36:42Z</time>
      </trkpt>
      <trkpt lat="45.56739" lon="5.79536">
        <ele>380.9</ele>
        <time>2022-04-15T11:36:43Z</time>
      </trkpt>
      <trkpt lat="45.56739" lon="5.79536">
        <ele>380.9</ele>
        <time>2022-04-15T11:36:44Z</time>
      </trkpt>
      <trkpt lat="45.56739" lon="5.79536">
        <ele>380.9</ele>
        <time>2022-04-15T11:36:45Z</time>
      </trkpt>
      <trkpt lat="45.56739" lon="5.79536">
        <ele>380.9</ele>
        <time>2022-04-15T11:36:46Z</time>
      </trkpt>
      <trkpt lat="45.56739" lon="5.79536">
        <ele>380.9</ele>
        <time>2022-04-15T11:36:47Z</time>
      </trkpt>
      <trkpt lat="45.56739" lon="5.79536">
        <ele>380.9</ele>
        <time>2022-04-15T11:36:48Z</time>
      </trkpt>
      <trkpt lat="45.56739" lon="5.79536">
        <ele>380.9</ele>
        <time>2022-04-15T11:36:49Z</time>
      </trkpt>
      <trkpt lat="45.56739" lon="5.79536">
        <ele>380.9</ele>
        <time>2022-04-15T11:36:50Z</time>
      </trkpt>
      <trkpt lat="45.56739" lon="5.79536">
        <ele>380.9</ele>
        <time>2022-04-15T11:36:51Z</time>
      </trkpt>
      <trkpt lat="45.56739" lon="5.79536">
        <ele>380.9</ele>
        <time>2022-04-15T11:36:52Z</time>
      </trkpt>
      <trkpt lat="45.56739" lon="5.79536">
        <ele>380.9</ele>
        <time>2022-04-15T11:36:53Z</time>
      </trkpt>
      <trkpt lat="45.56739" lon="5.79536">
        <ele>380.9</ele>
        <time>2022-04-15T11:36:54Z</time>
      </trkpt>
      <trkpt lat="45.56739" lon="5.79536">
        <ele>380.9</ele>
        <time>2022-04-15T11:36:55Z</time>
      </trkpt>
      <trkpt lat="45.56739" lon="5.79536">
        <ele>380.9</ele>
        <time>2022-04-15T11:36:56Z</time>
      </trkpt>
      <trkpt lat="45.56739" lon="5.79536">
        <ele>380.9</ele>
        <time>2022-04-15T11:36:57Z</time>
      </trkpt>
      <trkpt lat="45.56739" lon="5.79536">
        <ele>380.9</ele>
        <time>2022-04-15T11:36:58Z</time>
      </trkpt>
      <trkpt lat="45.56739" lon="5.79536">
        <ele>380.9</ele>
        <time>2022-04-15T11:36:59Z</time>
      </trkpt>
      <trkpt lat="45.56739" lon="5.79536">
        <ele>380.9</ele>
        <time>2022-04-15T11:37:00Z</time>
      </trkpt>
      <trkpt lat="45.56739" lon="5.79536">
        <ele>380.9</ele>
        <time>2022-04-15T11:37:01Z</time>
      </trkpt>
      <trkpt lat="45.56739" lon="5.79536">
        <ele>380.9</ele>
        <time>2022-04-15T11:37:02Z</time>
      </trkpt>
      <trkpt lat="45.56739" lon="5.79536">
        <ele>380.9</ele>
        <time>2022-04-15T11:37:03Z</time>
      </trkpt>
      <trkpt lat="45.56739" lon="5.79536">
        <ele>380.9</ele>
        <time>2022-04-15T11:37:04Z</time>
      </trkpt>
      <trkpt lat="45.56739" lon="5.79536">
        <ele>380.9</ele>
        <time>2022-04-15T11:37:05Z</time>
      </trkpt>
      <trkpt lat="45.56739" lon="5.79536">
        <ele>380.9</ele>
        <time>2022-04-15T11:37:06Z</time>
      </trkpt>
      <trkpt lat="45.56739" lon="5.79536">
        <ele>380.9</ele>
        <time>2022-04-15T11:37:07Z</time>
      </trkpt>
      <trkpt lat="45.56739" lon="5.79536">
        <ele>380.9</ele>
        <time>2022-04-15T11:37:08Z</time>
      </trkpt>
      <trkpt lat="45.56739" lon="5.79536">
        <ele>380.9</ele>
        <time>2022-04-15T11:37:09Z</time>
      </trkpt>
      <trkpt lat="45.56739" lon="5.79536">
        <ele>380.9</ele>
        <time>2022-04-15T11:37:10Z</time>
      </trkpt>
      <trkpt lat="45.56739" lon="5.79536">
        <ele>380.9</ele>
        <time>2022-04-15T11:37:11Z</time>
      </trkpt>
      <trkpt lat="45.56739" lon="5.79536">
        <ele>380.9</ele>
        <time>2022-04-15T11:37:12Z</time>
      </trkpt>
      <trkpt lat="45.56739" lon="5.79536">
        <ele>380.9</ele>
        <time>2022-04-15T11:37:13Z</time>
      </trkpt>
      <trkpt lat="45.56739" lon="5.79536">
        <ele>380.9</ele>
        <time>2022-04-15T11:37:14Z</time>
      </trkpt>
      <trkpt lat="45.56739" lon="5.79536">
        <ele>380.9</ele>
        <time>2022-04-15T11:37:15Z</time>
      </trkpt>
      <trkpt lat="45.56739" lon="5.79536">
        <ele>380.9</ele>
        <time>2022-04-15T11:37:16Z</time>
      </trkpt>
      <trkpt lat="45.56739" lon="5.79536">
        <ele>380.9</ele>
        <time>2022-04-15T11:37:17Z</time>
      </trkpt>
      <trkpt lat="45.56739" lon="5.79536">
        <ele>380.9</ele>
        <time>2022-04-15T11:37:18Z</time>
      </trkpt>
      <trkpt lat="45.56739" lon="5.79536">
        <ele>380.9</ele>
        <time>2022-04-15T11:37:19Z</time>
      </trkpt>
      <trkpt lat="45.56739" lon="5.79536">
        <ele>380.9</ele>
        <time>2022-04-15T11:37:20Z</time>
      </trkpt>
      <trkpt lat="45.56739" lon="5.79536">
        <ele>380.9</ele>
        <time>2022-04-15T11:37:21Z</time>
      </trkpt>
      <trkpt lat="45.56739" lon="5.79536">
        <ele>380.9</ele>
        <time>2022-04-15T11:37:22Z</time>
      </trkpt>
      <trkpt lat="45.56739" lon="5.79536">
        <ele>380.9</ele>
        <time>2022-04-15T11:37:23Z</time>
      </trkpt>
      <trkpt lat="45.56739" lon="5.79536">
        <ele>380.9</ele>
        <time>2022-04-15T11:37:24Z</time>
      </trkpt>
      <trkpt lat="45.56739" lon="5.79536">
        <ele>380.9</ele>
        <time>2022-04-15T11:37:25Z</time>
      </trkpt>
      <trkpt lat="45.56739" lon="5.79536">
        <ele>380.9</ele>
        <time>2022-04-15T11:37:26Z</time>
      </trkpt>
      <trkpt lat="45.56739" lon="5.79536">
        <ele>380.9</ele>
        <time>2022-04-15T11:37:27Z</time>
      </trkpt>
      <trkpt lat="45.56739" lon="5.79536">
        <ele>380.9</ele>
        <time>2022-04-15T11:37:28Z</time>
      </trkpt>
      <trkpt lat="45.56739" lon="5.79536">
        <ele>380.9</ele>
        <time>2022-04-15T11:37:29Z</time>
      </trkpt>
      <trkpt lat="45.56739" lon="5.79536">
        <ele>380.9</ele>
        <time>2022-04-15T11:37:30Z</time>
      </trkpt>
      <trkpt lat="45.56739" lon="5.79536">
        <ele>380.9</ele>
        <time>2022-04-15T11:37:31Z</time>
      </trkpt>
      <trkpt lat="45.56739" lon="5.79536">
        <ele>380.9</ele>
        <time>2022-04-15T11:37:32Z</time>
      </trkpt>
      <trkpt lat="45.56739" lon="5.79536">
        <ele>380.9</ele>
        <time>2022-04-15T11:37:33Z</time>
      </trkpt>
      <trkpt lat="45.56739" lon="5.79536">
        <ele>380.9</ele>
        <time>2022-04-15T11:37:34Z</time>
      </trkpt>
      <trkpt lat="45.56739" lon="5.79536">
        <ele>380.9</ele>
        <time>2022-04-15T11:37:35Z</time>
      </trkpt>
      <trkpt lat="45.56739" lon="5.79536">
        <ele>380.9</ele>
        <time>2022-04-15T11:37:36Z</time>
      </trkpt>
      <trkpt lat="45.56739" lon="5.79536">
        <ele>380.9</ele>
        <time>2022-04-15T11:37:37Z</time>
      </trkpt>
      <trkpt lat="45.56739" lon="5.79536">
        <ele>380.9</ele>
        <time>2022-04-15T11:37:38Z</time>
      </trkpt>
      <trkpt lat="45.56739" lon="5.79536">
        <ele>380.9</ele>
        <time>2022-04-15T11:37:39Z</time>
      </trkpt>
      <trkpt lat="45.56739" lon="5.79536">
        <ele>380.9</ele>
        <time>2022-04-15T11:37:40Z</time>
      </trkpt>
      <trkpt lat="45.56739" lon="5.79536">
        <ele>380.9</ele>
        <time>2022-04-15T11:37:41Z</time>
      </trkpt>
      <trkpt lat="45.56739" lon="5.79536">
        <ele>380.9</ele>
        <time>2022-04-15T11:37:42Z</time>
      </trkpt>
      <trkpt lat="45.56739" lon="5.79536">
        <ele>380.9</ele>
        <time>2022-04-15T11:37:43Z</time>
      </trkpt>
      <trkpt lat="45.56739" lon="5.79536">
        <ele>380.9</ele>
        <time>2022-04-15T11:37:44Z</time>
      </trkpt>
      <trkpt lat="45.56739" lon="5.79536">
        <ele>380.9</ele>
        <time>2022-04-15T11:37:45Z</time>
      </trkpt>
      <trkpt lat="45.56739" lon="5.79536">
        <ele>380.9</ele>
        <time>2022-04-15T11:37:46Z</time>
      </trkpt>
      <trkpt lat="45.56739" lon="5.79536">
        <ele>380.9</ele>
        <time>2022-04-15T11:37:47Z</time>
      </trkpt>
      <trkpt lat="45.56739" lon="5.79536">
        <ele>380.9</ele>
        <time>2022-04-15T11:37:48Z</time>
      </trkpt>
      <trkpt lat="45.56739" lon="5.79536">
        <ele>380.9</ele>
        <time>2022-04-15T11:37:49Z</time>
      </trkpt>
      <trkpt lat="45.56739" lon="5.79536">
        <ele>380.9</ele>
        <time>2022-04-15T11:37:50Z</time>
      </trkpt>
      <trkpt lat="45.56739" lon="5.79536">
        <ele>380.9</ele>
        <time>2022-04-15T11:37:51Z</time>
      </trkpt>
      <trkpt lat="45.56739" lon="5.79536">
        <ele>380.9</ele>
        <time>2022-04-15T11:37:52Z</time>
      </trkpt>
      <trkpt lat="45.56739" lon="5.79536">
        <ele>380.9</ele>
        <time>2022-04-15T11:37:53Z</time>
      </trkpt>
      <trkpt lat="45.56739" lon="5.79536">
        <ele>380.9</ele>
        <time>2022-04-15T11:37:54Z</time>
      </trkpt>
      <trkpt lat="45.56739" lon="5.79536">
        <ele>380.9</ele>
        <time>2022-04-15T11:37:55Z</time>
      </trkpt>
      <trkpt lat="45.56739" lon="5.79536">
        <ele>380.9</ele>
        <time>2022-04-15T11:37:56Z</time>
      </trkpt>
      <trkpt lat="45.56739" lon="5.79536">
        <ele>380.9</ele>
        <time>2022-04-15T11:37:57Z</time>
      </trkpt>
      <trkpt lat="45.56739" lon="5.79536">
        <ele>380.9</ele>
        <time>2022-04-15T11:37:58Z</time>
      </trkpt>
      <trkpt lat="45.56739" lon="5.79536">
        <ele>380.9</ele>
        <time>2022-04-15T11:37:59Z</time>
      </trkpt>
      <trkpt lat="45.56739" lon="5.79536">
        <ele>380.9</ele>
        <time>2022-04-15T11:38:00Z</time>
      </trkpt>
      <trkpt lat="45.56739" lon="5.79536">
        <ele>380.9</ele>
        <time>2022-04-15T11:38:01Z</time>
      </trkpt>
      <trkpt lat="45.56739" lon="5.79536">
        <ele>380.9</ele>
        <time>2022-04-15T11:38:02Z</time>
      </trkpt>
      <trkpt lat="45.56739" lon="5.79536">
        <ele>380.9</ele>
        <time>2022-04-15T11:38:03Z</time>
      </trkpt>
      <trkpt lat="45.56739" lon="5.79536">
        <ele>380.9</ele>
        <time>2022-04-15T11:38:04Z</time>
      </trkpt>
      <trkpt lat="45.56739" lon="5.79536">
        <ele>380.9</ele>
        <time>2022-04-15T11:38:05Z</time>
      </trkpt>
      <trkpt lat="45.56739" lon="5.79536">
        <ele>380.9</ele>
        <time>2022-04-15T11:38:06Z</time>
      </trkpt>
      <trkpt lat="45.56739" lon="5.79536">
        <ele>380.9</ele>
        <time>2022-04-15T11:38:07Z</time>
      </trkpt>
      <trkpt lat="45.56739" lon="5.79536">
        <ele>380.9</ele>
        <time>2022-04-15T11:38:08Z</time>
      </trkpt>
      <trkpt lat="45.56739" lon="5.79537">
        <ele>380.9</ele>
        <time>2022-04-15T11:38:09Z</time>
      </trkpt>
      <trkpt lat="45.56739" lon="5.79537">
        <ele>380.9</ele>
        <time>2022-04-15T11:38:10Z</time>
      </trkpt>
      <trkpt lat="45.56739" lon="5.79537">
        <ele>380.9</ele>
        <time>2022-04-15T11:38:11Z</time>
      </trkpt>
      <trkpt lat="45.56739" lon="5.79537">
        <ele>380.9</ele>
        <time>2022-04-15T11:38:12Z</time>
      </trkpt>
      <trkpt lat="45.56739" lon="5.79537">
        <ele>380.9</ele>
        <time>2022-04-15T11:38:13Z</time>
      </trkpt>
      <trkpt lat="45.56739" lon="5.79537">
        <ele>380.9</ele>
        <time>2022-04-15T11:38:14Z</time>
      </trkpt>
      <trkpt lat="45.56739" lon="5.79537">
        <ele>380.9</ele>
        <time>2022-04-15T11:38:15Z</time>
      </trkpt>
      <trkpt lat="45.56739" lon="5.79537">
        <ele>380.9</ele>
        <time>2022-04-15T11:38:16Z</time>
      </trkpt>
      <trkpt lat="45.56739" lon="5.79537">
        <ele>380.9</ele>
        <time>2022-04-15T11:38:17Z</time>
      </trkpt>
      <trkpt lat="45.56739" lon="5.79537">
        <ele>380.9</ele>
        <time>2022-04-15T11:38:18Z</time>
      </trkpt>
      <trkpt lat="45.56739" lon="5.79537">
        <ele>380.9</ele>
        <time>2022-04-15T11:38:19Z</time>
      </trkpt>
      <trkpt lat="45.56739" lon="5.79537">
        <ele>380.9</ele>
        <time>2022-04-15T11:38:20Z</time>
      </trkpt>
      <trkpt lat="45.56739" lon="5.79537">
        <ele>380.9</ele>
        <time>2022-04-15T11:38:21Z</time>
      </trkpt>
      <trkpt lat="45.56739" lon="5.79537">
        <ele>380.9</ele>
        <time>2022-04-15T11:38:22Z</time>
      </trkpt>
      <trkpt lat="45.56739" lon="5.79537">
        <ele>380.9</ele>
        <time>2022-04-15T11:38:23Z</time>
      </trkpt>
      <trkpt lat="45.56739" lon="5.79537">
        <ele>380.9</ele>
        <time>2022-04-15T11:38:24Z</time>
      </trkpt>
      <trkpt lat="45.56739" lon="5.79537">
        <ele>380.9</ele>
        <time>2022-04-15T11:38:25Z</time>
      </trkpt>
      <trkpt lat="45.56739" lon="5.79537">
        <ele>380.9</ele>
        <time>2022-04-15T11:38:26Z</time>
      </trkpt>
      <trkpt lat="45.56739" lon="5.79537">
        <ele>380.9</ele>
        <time>2022-04-15T11:38:27Z</time>
      </trkpt>
      <trkpt lat="45.56739" lon="5.79537">
        <ele>380.9</ele>
        <time>2022-04-15T11:38:28Z</time>
      </trkpt>
      <trkpt lat="45.56739" lon="5.79537">
        <ele>380.9</ele>
        <time>2022-04-15T11:38:29Z</time>
      </trkpt>
      <trkpt lat="45.56739" lon="5.79537">
        <ele>380.9</ele>
        <time>2022-04-15T11:38:30Z</time>
      </trkpt>
      <trkpt lat="45.56739" lon="5.79537">
        <ele>380.9</ele>
        <time>2022-04-15T11:38:31Z</time>
      </trkpt>
      <trkpt lat="45.56739" lon="5.79537">
        <ele>380.9</ele>
        <time>2022-04-15T11:38:32Z</time>
      </trkpt>
      <trkpt lat="45.56739" lon="5.79537">
        <ele>380.9</ele>
        <time>2022-04-15T11:38:33Z</time>
      </trkpt>
      <trkpt lat="45.56739" lon="5.79537">
        <ele>380.9</ele>
        <time>2022-04-15T11:38:34Z</time>
      </trkpt>
      <trkpt lat="45.56739" lon="5.79537">
        <ele>380.9</ele>
        <time>2022-04-15T11:38:35Z</time>
      </trkpt>
      <trkpt lat="45.56739" lon="5.79537">
        <ele>380.9</ele>
        <time>2022-04-15T11:38:36Z</time>
      </trkpt>
      <trkpt lat="45.56739" lon="5.79537">
        <ele>380.9</ele>
        <time>2022-04-15T11:38:37Z</time>
      </trkpt>
      <trkpt lat="45.56739" lon="5.79537">
        <ele>380.9</ele>
        <time>2022-04-15T11:38:38Z</time>
      </trkpt>
      <trkpt lat="45.56739" lon="5.79537">
        <ele>380.9</ele>
        <time>2022-04-15T11:38:39Z</time>
      </trkpt>
      <trkpt lat="45.56739" lon="5.79537">
        <ele>380.9</ele>
        <time>2022-04-15T11:38:40Z</time>
      </trkpt>
      <trkpt lat="45.56739" lon="5.79537">
        <ele>380.9</ele>
        <time>2022-04-15T11:38:41Z</time>
      </trkpt>
      <trkpt lat="45.56739" lon="5.79537">
        <ele>380.9</ele>
        <time>2022-04-15T11:38:42Z</time>
      </trkpt>
      <trkpt lat="45.56739" lon="5.79537">
        <ele>380.9</ele>
        <time>2022-04-15T11:38:43Z</time>
      </trkpt>
      <trkpt lat="45.56739" lon="5.79537">
        <ele>380.9</ele>
        <time>2022-04-15T11:38:44Z</time>
      </trkpt>
      <trkpt lat="45.56739" lon="5.79537">
        <ele>380.9</ele>
        <time>2022-04-15T11:38:45Z</time>
      </trkpt>
      <trkpt lat="45.56739" lon="5.79537">
        <ele>380.9</ele>
        <time>2022-04-15T11:38:46Z</time>
      </trkpt>
      <trkpt lat="45.56739" lon="5.79537">
        <ele>380.9</ele>
        <time>2022-04-15T11:38:47Z</time>
      </trkpt>
      <trkpt lat="45.56739" lon="5.79537">
        <ele>380.9</ele>
        <time>2022-04-15T11:38:48Z</time>
      </trkpt>
      <trkpt lat="45.56739" lon="5.79537">
        <ele>380.9</ele>
        <time>2022-04-15T11:38:49Z</time>
      </trkpt>
      <trkpt lat="45.56739" lon="5.79537">
        <ele>380.9</ele>
        <time>2022-04-15T11:38:50Z</time>
      </trkpt>
      <trkpt lat="45.56739" lon="5.79537">
        <ele>380.9</ele>
        <time>2022-04-15T11:38:51Z</time>
      </trkpt>
      <trkpt lat="45.56739" lon="5.79537">
        <ele>380.9</ele>
        <time>2022-04-15T11:38:52Z</time>
      </trkpt>
      <trkpt lat="45.56739" lon="5.79537">
        <ele>380.9</ele>
        <time>2022-04-15T11:38:53Z</time>
      </trkpt>
      <trkpt lat="45.56739" lon="5.79537">
        <ele>380.9</ele>
        <time>2022-04-15T11:38:54Z</time>
      </trkpt>
      <trkpt lat="45.56739" lon="5.79537">
        <ele>380.9</ele>
        <time>2022-04-15T11:38:55Z</time>
      </trkpt>
      <trkpt lat="45.56739" lon="5.79537">
        <ele>380.9</ele>
        <time>2022-04-15T11:38:56Z</time>
      </trkpt>
      <trkpt lat="45.56739" lon="5.79537">
        <ele>380.9</ele>
        <time>2022-04-15T11:38:57Z</time>
      </trkpt>
      <trkpt lat="45.56739" lon="5.79537">
        <ele>380.9</ele>
        <time>2022-04-15T11:38:58Z</time>
      </trkpt>
      <trkpt lat="45.56739" lon="5.79537">
        <ele>380.9</ele>
        <time>2022-04-15T11:38:59Z</time>
      </trkpt>
      <trkpt lat="45.56739" lon="5.79537">
        <ele>380.9</ele>
        <time>2022-04-15T11:39:00Z</time>
      </trkpt>
      <trkpt lat="45.56739" lon="5.79537">
        <ele>380.9</ele>
        <time>2022-04-15T11:39:01Z</time>
      </trkpt>
      <trkpt lat="45.56739" lon="5.79537">
        <ele>380.9</ele>
        <time>2022-04-15T11:39:02Z</time>
      </trkpt>
      <trkpt lat="45.56739" lon="5.79537">
        <ele>380.9</ele>
        <time>2022-04-15T11:39:03Z</time>
      </trkpt>
      <trkpt lat="45.56739" lon="5.79537">
        <ele>380.9</ele>
        <time>2022-04-15T11:39:04Z</time>
      </trkpt>
      <trkpt lat="45.56739" lon="5.79537">
        <ele>380.9</ele>
        <time>2022-04-15T11:39:05Z</time>
      </trkpt>
      <trkpt lat="45.56739" lon="5.79537">
        <ele>380.9</ele>
        <time>2022-04-15T11:39:06Z</time>
      </trkpt>
      <trkpt lat="45.56739" lon="5.79537">
        <ele>380.9</ele>
        <time>2022-04-15T11:39:07Z</time>
      </trkpt>
      <trkpt lat="45.56739" lon="5.79537">
        <ele>380.9</ele>
        <time>2022-04-15T11:39:08Z</time>
      </trkpt>
      <trkpt lat="45.56739" lon="5.79537">
        <ele>380.9</ele>
        <time>2022-04-15T11:39:09Z</time>
      </trkpt>
      <trkpt lat="45.56739" lon="5.79537">
        <ele>380.9</ele>
        <time>2022-04-15T11:39:10Z</time>
      </trkpt>
      <trkpt lat="45.56739" lon="5.79537">
        <ele>380.9</ele>
        <time>2022-04-15T11:39:11Z</time>
      </trkpt>
      <trkpt lat="45.56739" lon="5.79537">
        <ele>380.9</ele>
        <time>2022-04-15T11:39:12Z</time>
      </trkpt>
      <trkpt lat="45.56739" lon="5.79537">
        <ele>380.9</ele>
        <time>2022-04-15T11:39:13Z</time>
      </trkpt>
      <trkpt lat="45.56739" lon="5.79537">
        <ele>380.9</ele>
        <time>2022-04-15T11:39:14Z</time>
      </trkpt>
      <trkpt lat="45.56739" lon="5.79537">
        <ele>380.9</ele>
        <time>2022-04-15T11:39:15Z</time>
      </trkpt>
      <trkpt lat="45.56739" lon="5.79537">
        <ele>380.9</ele>
        <time>2022-04-15T11:39:16Z</time>
      </trkpt>
      <trkpt lat="45.56739" lon="5.79537">
        <ele>380.9</ele>
        <time>2022-04-15T11:39:17Z</time>
      </trkpt>
      <trkpt lat="45.56739" lon="5.79537">
        <ele>380.9</ele>
        <time>2022-04-15T11:39:18Z</time>
      </trkpt>
      <trkpt lat="45.56739" lon="5.79537">
        <ele>380.9</ele>
        <time>2022-04-15T11:39:19Z</time>
      </trkpt>
      <trkpt lat="45.56739" lon="5.79537">
        <ele>380.9</ele>
        <time>2022-04-15T11:39:20Z</time>
      </trkpt>
      <trkpt lat="45.56739" lon="5.79537">
        <ele>380.9</ele>
        <time>2022-04-15T11:39:21Z</time>
      </trkpt>
      <trkpt lat="45.56739" lon="5.79537">
        <ele>380.9</ele>
        <time>2022-04-15T11:39:22Z</time>
      </trkpt>
      <trkpt lat="45.56739" lon="5.79537">
        <ele>380.9</ele>
        <time>2022-04-15T11:39:23Z</time>
      </trkpt>
      <trkpt lat="45.56739" lon="5.79537">
        <ele>380.9</ele>
        <time>2022-04-15T11:39:24Z</time>
      </trkpt>
      <trkpt lat="45.56739" lon="5.79537">
        <ele>380.9</ele>
        <time>2022-04-15T11:39:25Z</time>
      </trkpt>
      <trkpt lat="45.56739" lon="5.79537">
        <ele>380.9</ele>
        <time>2022-04-15T11:39:26Z</time>
      </trkpt>
      <trkpt lat="45.56739" lon="5.79537">
        <ele>380.9</ele>
        <time>2022-04-15T11:39:27Z</time>
      </trkpt>
      <trkpt lat="45.56739" lon="5.79537">
        <ele>380.9</ele>
        <time>2022-04-15T11:39:28Z</time>
      </trkpt>
      <trkpt lat="45.56739" lon="5.79537">
        <ele>380.9</ele>
        <time>2022-04-15T11:39:29Z</time>
      </trkpt>
      <trkpt lat="45.56739" lon="5.79537">
        <ele>380.9</ele>
        <time>2022-04-15T11:39:30Z</time>
      </trkpt>
      <trkpt lat="45.56739" lon="5.79537">
        <ele>380.9</ele>
        <time>2022-04-15T11:39:31Z</time>
      </trkpt>
      <trkpt lat="45.56739" lon="5.79537">
        <ele>380.9</ele>
        <time>2022-04-15T11:39:32Z</time>
      </trkpt>
      <trkpt lat="45.56739" lon="5.79537">
        <ele>380.9</ele>
        <time>2022-04-15T11:39:33Z</time>
      </trkpt>
      <trkpt lat="45.56739" lon="5.79537">
        <ele>380.9</ele>
        <time>2022-04-15T11:39:34Z</time>
      </trkpt>
      <trkpt lat="45.56739" lon="5.79537">
        <ele>380.9</ele>
        <time>2022-04-15T11:39:35Z</time>
      </trkpt>
      <trkpt lat="45.56739" lon="5.79537">
        <ele>380.9</ele>
        <time>2022-04-15T11:39:36Z</time>
      </trkpt>
      <trkpt lat="45.56739" lon="5.79537">
        <ele>380.9</ele>
        <time>2022-04-15T11:39:37Z</time>
      </trkpt>
      <trkpt lat="45.56739" lon="5.79537">
        <ele>380.9</ele>
        <time>2022-04-15T11:39:38Z</time>
      </trkpt>
      <trkpt lat="45.56739" lon="5.79537">
        <ele>380.9</ele>
        <time>2022-04-15T11:39:39Z</time>
      </trkpt>
      <trkpt lat="45.56739" lon="5.79537">
        <ele>380.9</ele>
        <time>2022-04-15T11:39:40Z</time>
      </trkpt>
      <trkpt lat="45.56739" lon="5.79537">
        <ele>380.9</ele>
        <time>2022-04-15T11:39:41Z</time>
      </trkpt>
      <trkpt lat="45.56739" lon="5.79537">
        <ele>380.9</ele>
        <time>2022-04-15T11:39:42Z</time>
      </trkpt>
      <trkpt lat="45.56739" lon="5.79537">
        <ele>380.9</ele>
        <time>2022-04-15T11:39:43Z</time>
      </trkpt>
      <trkpt lat="45.56739" lon="5.79537">
        <ele>380.9</ele>
        <time>2022-04-15T11:39:44Z</time>
      </trkpt>
      <trkpt lat="45.56739" lon="5.79537">
        <ele>380.9</ele>
        <time>2022-04-15T11:39:45Z</time>
      </trkpt>
      <trkpt lat="45.56739" lon="5.79537">
        <ele>380.9</ele>
        <time>2022-04-15T11:39:46Z</time>
      </trkpt>
      <trkpt lat="45.56739" lon="5.79537">
        <ele>380.9</ele>
        <time>2022-04-15T11:39:47Z</time>
      </trkpt>
      <trkpt lat="45.56739" lon="5.79537">
        <ele>380.9</ele>
        <time>2022-04-15T11:39:48Z</time>
      </trkpt>
      <trkpt lat="45.56739" lon="5.79537">
        <ele>380.9</ele>
        <time>2022-04-15T11:39:49Z</time>
      </trkpt>
      <trkpt lat="45.56739" lon="5.79537">
        <ele>380.9</ele>
        <time>2022-04-15T11:39:50Z</time>
      </trkpt>
      <trkpt lat="45.56739" lon="5.79537">
        <ele>380.9</ele>
        <time>2022-04-15T11:39:51Z</time>
      </trkpt>
      <trkpt lat="45.56739" lon="5.79537">
        <ele>380.9</ele>
        <time>2022-04-15T11:39:52Z</time>
      </trkpt>
      <trkpt lat="45.56739" lon="5.79537">
        <ele>380.9</ele>
        <time>2022-04-15T11:39:53Z</time>
      </trkpt>
      <trkpt lat="45.56739" lon="5.79537">
        <ele>380.9</ele>
        <time>2022-04-15T11:39:54Z</time>
      </trkpt>
      <trkpt lat="45.56739" lon="5.79537">
        <ele>380.9</ele>
        <time>2022-04-15T11:39:55Z</time>
      </trkpt>
      <trkpt lat="45.56739" lon="5.79537">
        <ele>380.9</ele>
        <time>2022-04-15T11:39:56Z</time>
      </trkpt>
      <trkpt lat="45.56739" lon="5.79537">
        <ele>380.9</ele>
        <time>2022-04-15T11:39:57Z</time>
      </trkpt>
      <trkpt lat="45.56739" lon="5.79537">
        <ele>380.9</ele>
        <time>2022-04-15T11:39:58Z</time>
      </trkpt>
      <trkpt lat="45.56739" lon="5.79537">
        <ele>380.9</ele>
        <time>2022-04-15T11:39:59Z</time>
      </trkpt>
      <trkpt lat="45.56739" lon="5.79537">
        <ele>380.9</ele>
        <time>2022-04-15T11:40:00Z</time>
      </trkpt>
      <trkpt lat="45.56739" lon="5.79537">
        <ele>380.9</ele>
        <time>2022-04-15T11:40:01Z</time>
      </trkpt>
      <trkpt lat="45.56739" lon="5.79537">
        <ele>380.9</ele>
        <time>2022-04-15T11:40:02Z</time>
      </trkpt>
      <trkpt lat="45.56739" lon="5.79537">
        <ele>380.9</ele>
        <time>2022-04-15T11:40:03Z</time>
      </trkpt>
      <trkpt lat="45.56739" lon="5.79537">
        <ele>380.9</ele>
        <time>2022-04-15T11:40:04Z</time>
      </trkpt>
      <trkpt lat="45.56739" lon="5.79537">
        <ele>380.9</ele>
        <time>2022-04-15T11:40:05Z</time>
      </trkpt>
      <trkpt lat="45.56739" lon="5.79537">
        <ele>380.9</ele>
        <time>2022-04-15T11:40:06Z</time>
      </trkpt>
      <trkpt lat="45.56739" lon="5.79537">
        <ele>380.9</ele>
        <time>2022-04-15T11:40:07Z</time>
      </trkpt>
      <trkpt lat="45.56739" lon="5.79537">
        <ele>380.9</ele>
        <time>2022-04-15T11:40:08Z</time>
      </trkpt>
      <trkpt lat="45.56739" lon="5.79537">
        <ele>380.9</ele>
        <time>2022-04-15T11:40:09Z</time>
      </trkpt>
      <trkpt lat="45.56739" lon="5.79537">
        <ele>380.9</ele>
        <time>2022-04-15T11:40:10Z</time>
      </trkpt>
      <trkpt lat="45.56739" lon="5.79537">
        <ele>380.9</ele>
        <time>2022-04-15T11:40:11Z</time>
      </trkpt>
      <trkpt lat="45.56739" lon="5.79537">
        <ele>380.9</ele>
        <time>2022-04-15T11:40:12Z</time>
      </trkpt>
      <trkpt lat="45.56739" lon="5.79537">
        <ele>380.9</ele>
        <time>2022-04-15T11:40:13Z</time>
      </trkpt>
      <trkpt lat="45.56739" lon="5.79537">
        <ele>380.9</ele>
        <time>2022-04-15T11:40:14Z</time>
      </trkpt>
      <trkpt lat="45.56739" lon="5.79537">
        <ele>380.9</ele>
        <time>2022-04-15T11:40:15Z</time>
      </trkpt>
      <trkpt lat="45.56739" lon="5.79537">
        <ele>380.9</ele>
        <time>2022-04-15T11:40:16Z</time>
      </trkpt>
      <trkpt lat="45.56739" lon="5.79537">
        <ele>380.9</ele>
        <time>2022-04-15T11:40:17Z</time>
      </trkpt>
      <trkpt lat="45.56739" lon="5.79537">
        <ele>380.9</ele>
        <time>2022-04-15T11:40:18Z</time>
      </trkpt>
      <trkpt lat="45.56739" lon="5.79537">
        <ele>380.9</ele>
        <time>2022-04-15T11:40:19Z</time>
      </trkpt>
      <trkpt lat="45.56739" lon="5.79537">
        <ele>380.9</ele>
        <time>2022-04-15T11:40:20Z</time>
      </trkpt>
      <trkpt lat="45.56739" lon="5.79537">
        <ele>380.9</ele>
        <time>2022-04-15T11:40:21Z</time>
      </trkpt>
      <trkpt lat="45.56739" lon="5.79537">
        <ele>380.9</ele>
        <time>2022-04-15T11:40:22Z</time>
      </trkpt>
      <trkpt lat="45.56739" lon="5.79537">
        <ele>380.9</ele>
        <time>2022-04-15T11:40:23Z</time>
      </trkpt>
      <trkpt lat="45.56739" lon="5.79537">
        <ele>380.9</ele>
        <time>2022-04-15T11:40:24Z</time>
      </trkpt>
      <trkpt lat="45.56739" lon="5.79537">
        <ele>380.9</ele>
        <time>2022-04-15T11:40:25Z</time>
      </trkpt>
      <trkpt lat="45.56739" lon="5.79537">
        <ele>380.9</ele>
        <time>2022-04-15T11:40:26Z</time>
      </trkpt>
      <trkpt lat="45.56739" lon="5.79537">
        <ele>380.9</ele>
        <time>2022-04-15T11:40:27Z</time>
      </trkpt>
      <trkpt lat="45.56739" lon="5.79537">
        <ele>380.9</ele>
        <time>2022-04-15T11:40:28Z</time>
      </trkpt>
      <trkpt lat="45.56739" lon="5.79537">
        <ele>380.9</ele>
        <time>2022-04-15T11:40:29Z</time>
      </trkpt>
      <trkpt lat="45.56739" lon="5.79537">
        <ele>380.9</ele>
        <time>2022-04-15T11:40:30Z</time>
      </trkpt>
      <trkpt lat="45.56739" lon="5.79537">
        <ele>380.9</ele>
        <time>2022-04-15T11:40:31Z</time>
      </trkpt>
      <trkpt lat="45.56739" lon="5.79537">
        <ele>380.9</ele>
        <time>2022-04-15T11:40:32Z</time>
      </trkpt>
      <trkpt lat="45.56739" lon="5.79537">
        <ele>380.9</ele>
        <time>2022-04-15T11:40:33Z</time>
      </trkpt>
      <trkpt lat="45.56739" lon="5.79537">
        <ele>380.9</ele>
        <time>2022-04-15T11:40:34Z</time>
      </trkpt>
      <trkpt lat="45.56739" lon="5.79537">
        <ele>380.9</ele>
        <time>2022-04-15T11:40:35Z</time>
      </trkpt>
      <trkpt lat="45.56739" lon="5.79537">
        <ele>380.9</ele>
        <time>2022-04-15T11:40:36Z</time>
      </trkpt>
      <trkpt lat="45.56739" lon="5.79537">
        <ele>380.9</ele>
        <time>2022-04-15T11:40:37Z</time>
      </trkpt>
      <trkpt lat="45.56739" lon="5.79537">
        <ele>380.9</ele>
        <time>2022-04-15T11:40:38Z</time>
      </trkpt>
      <trkpt lat="45.56739" lon="5.79537">
        <ele>380.9</ele>
        <time>2022-04-15T11:40:39Z</time>
      </trkpt>
      <trkpt lat="45.56739" lon="5.79537">
        <ele>380.9</ele>
        <time>2022-04-15T11:40:40Z</time>
      </trkpt>
      <trkpt lat="45.56739" lon="5.79537">
        <ele>380.9</ele>
        <time>2022-04-15T11:40:41Z</time>
      </trkpt>
      <trkpt lat="45.56739" lon="5.79537">
        <ele>380.9</ele>
        <time>2022-04-15T11:40:42Z</time>
      </trkpt>
      <trkpt lat="45.56739" lon="5.79537">
        <ele>380.9</ele>
        <time>2022-04-15T11:40:43Z</time>
      </trkpt>
      <trkpt lat="45.56739" lon="5.79537">
        <ele>380.9</ele>
        <time>2022-04-15T11:40:44Z</time>
      </trkpt>
      <trkpt lat="45.56739" lon="5.79537">
        <ele>380.9</ele>
        <time>2022-04-15T11:40:45Z</time>
      </trkpt>
      <trkpt lat="45.56739" lon="5.79537">
        <ele>380.9</ele>
        <time>2022-04-15T11:40:46Z</time>
      </trkpt>
      <trkpt lat="45.56739" lon="5.79537">
        <ele>380.9</ele>
        <time>2022-04-15T11:40:47Z</time>
      </trkpt>
      <trkpt lat="45.56739" lon="5.79537">
        <ele>380.9</ele>
        <time>2022-04-15T11:40:48Z</time>
      </trkpt>
      <trkpt lat="45.56739" lon="5.79537">
        <ele>380.9</ele>
        <time>2022-04-15T11:40:49Z</time>
      </trkpt>
      <trkpt lat="45.56739" lon="5.79537">
        <ele>380.9</ele>
        <time>2022-04-15T11:40:50Z</time>
      </trkpt>
      <trkpt lat="45.56739" lon="5.79537">
        <ele>380.9</ele>
        <time>2022-04-15T11:40:51Z</time>
      </trkpt>
      <trkpt lat="45.56739" lon="5.79537">
        <ele>380.9</ele>
        <time>2022-04-15T11:40:52Z</time>
      </trkpt>
      <trkpt lat="45.56739" lon="5.79537">
        <ele>380.9</ele>
        <time>2022-04-15T11:40:53Z</time>
      </trkpt>
      <trkpt lat="45.56739" lon="5.79537">
        <ele>380.9</ele>
        <time>2022-04-15T11:40:54Z</time>
      </trkpt>
      <trkpt lat="45.56739" lon="5.79537">
        <ele>380.9</ele>
        <time>2022-04-15T11:40:55Z</time>
      </trkpt>
      <trkpt lat="45.56739" lon="5.79537">
        <ele>380.9</ele>
        <time>2022-04-15T11:40:56Z</time>
      </trkpt>
      <trkpt lat="45.56739" lon="5.79537">
        <ele>380.9</ele>
        <time>2022-04-15T11:40:57Z</time>
      </trkpt>
      <trkpt lat="45.56739" lon="5.79537">
        <ele>380.9</ele>
        <time>2022-04-15T11:40:58Z</time>
      </trkpt>
      <trkpt lat="45.56739" lon="5.79537">
        <ele>380.9</ele>
        <time>2022-04-15T11:40:59Z</time>
      </trkpt>
      <trkpt lat="45.56739" lon="5.79537">
        <ele>380.9</ele>
        <time>2022-04-15T11:41:00Z</time>
      </trkpt>
      <trkpt lat="45.56739" lon="5.79537">
        <ele>380.9</ele>
        <time>2022-04-15T11:41:01Z</time>
      </trkpt>
      <trkpt lat="45.56739" lon="5.79537">
        <ele>380.9</ele>
        <time>2022-04-15T11:41:02Z</time>
      </trkpt>
      <trkpt lat="45.56739" lon="5.79537">
        <ele>380.9</ele>
        <time>2022-04-15T11:41:03Z</time>
      </trkpt>
      <trkpt lat="45.56739" lon="5.79537">
        <ele>380.9</ele>
        <time>2022-04-15T11:41:04Z</time>
      </trkpt>
      <trkpt lat="45.56739" lon="5.79537">
        <ele>380.9</ele>
        <time>2022-04-15T11:41:05Z</time>
      </trkpt>
      <trkpt lat="45.56739" lon="5.79537">
        <ele>380.9</ele>
        <time>2022-04-15T11:41:06Z</time>
      </trkpt>
      <trkpt lat="45.56739" lon="5.79537">
        <ele>380.9</ele>
        <time>2022-04-15T11:41:07Z</time>
      </trkpt>
      <trkpt lat="45.56739" lon="5.79537">
        <ele>380.9</ele>
        <time>2022-04-15T11:41:08Z</time>
      </trkpt>
      <trkpt lat="45.56739" lon="5.79537">
        <ele>380.9</ele>
        <time>2022-04-15T11:41:09Z</time>
      </trkpt>
      <trkpt lat="45.56739" lon="5.79537">
        <ele>380.9</ele>
        <time>2022-04-15T11:41:10Z</time>
      </trkpt>
      <trkpt lat="45.56739" lon="5.79537">
        <ele>380.9</ele>
        <time>2022-04-15T11:41:11Z</time>
      </trkpt>
      <trkpt lat="45.56739" lon="5.79537">
        <ele>380.9</ele>
        <time>2022-04-15T11:41:12Z</time>
      </trkpt>
      <trkpt lat="45.56739" lon="5.79537">
        <ele>380.9</ele>
        <time>2022-04-15T11:41:13Z</time>
      </trkpt>
      <trkpt lat="45.56739" lon="5.79537">
        <ele>380.9</ele>
        <time>2022-04-15T11:41:14Z</time>
      </trkpt>
      <trkpt lat="45.56739" lon="5.79537">
        <ele>380.9</ele>
        <time>2022-04-15T11:41:15Z</time>
      </trkpt>
      <trkpt lat="45.56739" lon="5.79537">
        <ele>380.9</ele>
        <time>2022-04-15T11:41:16Z</time>
      </trkpt>
      <trkpt lat="45.56739" lon="5.79537">
        <ele>380.9</ele>
        <time>2022-04-15T11:41:17Z</time>
      </trkpt>
      <trkpt lat="45.56739" lon="5.79537">
        <ele>380.9</ele>
        <time>2022-04-15T11:41:18Z</time>
      </trkpt>
      <trkpt lat="45.56739" lon="5.79537">
        <ele>380.9</ele>
        <time>2022-04-15T11:41:19Z</time>
      </trkpt>
      <trkpt lat="45.56739" lon="5.79537">
        <ele>380.9</ele>
        <time>2022-04-15T11:41:20Z</time>
      </trkpt>
      <trkpt lat="45.56739" lon="5.79537">
        <ele>380.9</ele>
        <time>2022-04-15T11:41:21Z</time>
      </trkpt>
      <trkpt lat="45.56739" lon="5.79537">
        <ele>380.9</ele>
        <time>2022-04-15T11:41:22Z</time>
      </trkpt>
      <trkpt lat="45.56739" lon="5.79537">
        <ele>380.9</ele>
        <time>2022-04-15T11:41:23Z</time>
      </trkpt>
      <trkpt lat="45.56739" lon="5.79537">
        <ele>380.9</ele>
        <time>2022-04-15T11:41:24Z</time>
      </trkpt>
      <trkpt lat="45.56739" lon="5.79537">
        <ele>380.9</ele>
        <time>2022-04-15T11:41:25Z</time>
      </trkpt>
      <trkpt lat="45.56739" lon="5.79537">
        <ele>380.9</ele>
        <time>2022-04-15T11:41:26Z</time>
      </trkpt>
      <trkpt lat="45.56739" lon="5.79537">
        <ele>380.9</ele>
        <time>2022-04-15T11:41:27Z</time>
      </trkpt>
      <trkpt lat="45.56739" lon="5.79537">
        <ele>380.9</ele>
        <time>2022-04-15T11:41:28Z</time>
      </trkpt>
      <trkpt lat="45.56739" lon="5.79537">
        <ele>380.9</ele>
        <time>2022-04-15T11:41:29Z</time>
      </trkpt>
      <trkpt lat="45.56739" lon="5.79537">
        <ele>380.9</ele>
        <time>2022-04-15T11:41:30Z</time>
      </trkpt>
      <trkpt lat="45.56739" lon="5.79537">
        <ele>380.9</ele>
        <time>2022-04-15T11:41:31Z</time>
      </trkpt>
      <trkpt lat="45.56739" lon="5.79537">
        <ele>380.9</ele>
        <time>2022-04-15T11:41:32Z</time>
      </trkpt>
      <trkpt lat="45.56739" lon="5.79537">
        <ele>380.9</ele>
        <time>2022-04-15T11:41:33Z</time>
      </trkpt>
      <trkpt lat="45.56739" lon="5.79537">
        <ele>380.9</ele>
        <time>2022-04-15T11:41:34Z</time>
      </trkpt>
      <trkpt lat="45.56739" lon="5.79537">
        <ele>380.9</ele>
        <time>2022-04-15T11:41:35Z</time>
      </trkpt>
      <trkpt lat="45.56739" lon="5.79537">
        <ele>380.9</ele>
        <time>2022-04-15T11:41:36Z</time>
      </trkpt>
      <trkpt lat="45.56739" lon="5.79537">
        <ele>380.9</ele>
        <time>2022-04-15T11:41:37Z</time>
      </trkpt>
      <trkpt lat="45.56739" lon="5.79537">
        <ele>380.9</ele>
        <time>2022-04-15T11:41:38Z</time>
      </trkpt>
      <trkpt lat="45.56739" lon="5.79537">
        <ele>380.9</ele>
        <time>2022-04-15T11:41:39Z</time>
      </trkpt>
      <trkpt lat="45.56739" lon="5.79537">
        <ele>380.9</ele>
        <time>2022-04-15T11:41:40Z</time>
      </trkpt>
      <trkpt lat="45.56739" lon="5.79537">
        <ele>380.9</ele>
        <time>2022-04-15T11:41:41Z</time>
      </trkpt>
      <trkpt lat="45.56739" lon="5.79537">
        <ele>380.9</ele>
        <time>2022-04-15T11:41:42Z</time>
      </trkpt>
      <trkpt lat="45.56739" lon="5.79537">
        <ele>380.9</ele>
        <time>2022-04-15T11:41:43Z</time>
      </trkpt>
      <trkpt lat="45.56739" lon="5.79537">
        <ele>380.9</ele>
        <time>2022-04-15T11:41:44Z</time>
      </trkpt>
      <trkpt lat="45.56739" lon="5.79537">
        <ele>380.9</ele>
        <time>2022-04-15T11:41:45Z</time>
      </trkpt>
      <trkpt lat="45.56739" lon="5.79537">
        <ele>380.9</ele>
        <time>2022-04-15T11:41:46Z</time>
      </trkpt>
      <trkpt lat="45.56739" lon="5.79537">
        <ele>380.9</ele>
        <time>2022-04-15T11:41:47Z</time>
      </trkpt>
      <trkpt lat="45.56739" lon="5.79537">
        <ele>380.9</ele>
        <time>2022-04-15T11:41:48Z</time>
      </trkpt>
      <trkpt lat="45.56739" lon="5.79537">
        <ele>380.9</ele>
        <time>2022-04-15T11:41:49Z</time>
      </trkpt>
      <trkpt lat="45.56739" lon="5.79537">
        <ele>380.9</ele>
        <time>2022-04-15T11:41:50Z</time>
      </trkpt>
      <trkpt lat="45.56739" lon="5.79537">
        <ele>380.9</ele>
        <time>2022-04-15T11:41:51Z</time>
      </trkpt>
      <trkpt lat="45.56739" lon="5.79537">
        <ele>380.9</ele>
        <time>2022-04-15T11:41:52Z</time>
      </trkpt>
      <trkpt lat="45.56739" lon="5.79537">
        <ele>380.9</ele>
        <time>2022-04-15T11:41:53Z</time>
      </trkpt>
      <trkpt lat="45.56739" lon="5.79537">
        <ele>380.9</ele>
        <time>2022-04-15T11:41:54Z</time>
      </trkpt>
      <trkpt lat="45.56739" lon="5.79537">
        <ele>380.9</ele>
        <time>2022-04-15T11:41:55Z</time>
      </trkpt>
      <trkpt lat="45.56739" lon="5.79537">
        <ele>380.9</ele>
        <time>2022-04-15T11:41:56Z</time>
      </trkpt>
      <trkpt lat="45.56739" lon="5.79537">
        <ele>380.9</ele>
        <time>2022-04-15T11:41:57Z</time>
      </trkpt>
      <trkpt lat="45.56739" lon="5.79537">
        <ele>380.9</ele>
        <time>2022-04-15T11:41:58Z</time>
      </trkpt>
      <trkpt lat="45.56739" lon="5.79537">
        <ele>380.9</ele>
        <time>2022-04-15T11:41:59Z</time>
      </trkpt>
      <trkpt lat="45.56739" lon="5.79537">
        <ele>380.9</ele>
        <time>2022-04-15T11:42:00Z</time>
      </trkpt>
      <trkpt lat="45.56739" lon="5.79537">
        <ele>380.9</ele>
        <time>2022-04-15T11:42:01Z</time>
      </trkpt>
      <trkpt lat="45.56739" lon="5.79537">
        <ele>380.9</ele>
        <time>2022-04-15T11:42:02Z</time>
      </trkpt>
      <trkpt lat="45.56739" lon="5.79537">
        <ele>380.9</ele>
        <time>2022-04-15T11:42:03Z</time>
      </trkpt>
      <trkpt lat="45.56739" lon="5.79537">
        <ele>380.9</ele>
        <time>2022-04-15T11:42:04Z</time>
      </trkpt>
      <trkpt lat="45.56739" lon="5.79537">
        <ele>380.9</ele>
        <time>2022-04-15T11:42:05Z</time>
      </trkpt>
      <trkpt lat="45.56739" lon="5.79537">
        <ele>380.9</ele>
        <time>2022-04-15T11:42:06Z</time>
      </trkpt>
      <trkpt lat="45.56739" lon="5.79537">
        <ele>380.9</ele>
        <time>2022-04-15T11:42:07Z</time>
      </trkpt>
      <trkpt lat="45.56739" lon="5.79537">
        <ele>380.9</ele>
        <time>2022-04-15T11:42:08Z</time>
      </trkpt>
      <trkpt lat="45.56739" lon="5.79537">
        <ele>380.9</ele>
        <time>2022-04-15T11:42:09Z</time>
      </trkpt>
      <trkpt lat="45.56739" lon="5.79537">
        <ele>380.9</ele>
        <time>2022-04-15T11:42:10Z</time>
      </trkpt>
      <trkpt lat="45.56739" lon="5.79537">
        <ele>380.9</ele>
        <time>2022-04-15T11:42:11Z</time>
      </trkpt>
      <trkpt lat="45.56739" lon="5.79537">
        <ele>380.9</ele>
        <time>2022-04-15T11:42:12Z</time>
      </trkpt>
      <trkpt lat="45.56739" lon="5.79537">
        <ele>380.9</ele>
        <time>2022-04-15T11:42:13Z</time>
      </trkpt>
      <trkpt lat="45.56739" lon="5.79537">
        <ele>380.9</ele>
        <time>2022-04-15T11:42:14Z</time>
      </trkpt>
      <trkpt lat="45.56739" lon="5.79537">
        <ele>380.9</ele>
        <time>2022-04-15T11:42:15Z</time>
      </trkpt>
      <trkpt lat="45.56739" lon="5.79537">
        <ele>380.9</ele>
        <time>2022-04-15T11:42:16Z</time>
      </trkpt>
      <trkpt lat="45.56739" lon="5.79537">
        <ele>380.9</ele>
        <time>2022-04-15T11:42:17Z</time>
      </trkpt>
      <trkpt lat="45.56739" lon="5.79537">
        <ele>380.9</ele>
        <time>2022-04-15T11:42:18Z</time>
      </trkpt>
      <trkpt lat="45.56739" lon="5.79537">
        <ele>380.9</ele>
        <time>2022-04-15T11:42:19Z</time>
      </trkpt>
      <trkpt lat="45.56739" lon="5.79537">
        <ele>380.9</ele>
        <time>2022-04-15T11:42:20Z</time>
      </trkpt>
      <trkpt lat="45.56739" lon="5.79537">
        <ele>380.9</ele>
        <time>2022-04-15T11:42:21Z</time>
      </trkpt>
      <trkpt lat="45.56739" lon="5.79537">
        <ele>380.9</ele>
        <time>2022-04-15T11:42:22Z</time>
      </trkpt>
      <trkpt lat="45.56739" lon="5.79537">
        <ele>380.9</ele>
        <time>2022-04-15T11:42:23Z</time>
      </trkpt>
      <trkpt lat="45.56739" lon="5.79537">
        <ele>380.9</ele>
        <time>2022-04-15T11:42:24Z</time>
      </trkpt>
      <trkpt lat="45.56739" lon="5.79537">
        <ele>380.9</ele>
        <time>2022-04-15T11:42:25Z</time>
      </trkpt>
      <trkpt lat="45.56739" lon="5.79537">
        <ele>380.9</ele>
        <time>2022-04-15T11:42:26Z</time>
      </trkpt>
      <trkpt lat="45.56739" lon="5.79537">
        <ele>380.9</ele>
        <time>2022-04-15T11:42:27Z</time>
      </trkpt>
      <trkpt lat="45.56739" lon="5.79537">
        <ele>380.9</ele>
        <time>2022-04-15T11:42:28Z</time>
      </trkpt>
      <trkpt lat="45.56739" lon="5.79537">
        <ele>380.9</ele>
        <time>2022-04-15T11:42:29Z</time>
      </trkpt>
      <trkpt lat="45.56739" lon="5.79537">
        <ele>380.9</ele>
        <time>2022-04-15T11:42:30Z</time>
      </trkpt>
      <trkpt lat="45.56739" lon="5.79537">
        <ele>380.9</ele>
        <time>2022-04-15T11:42:31Z</time>
      </trkpt>
      <trkpt lat="45.56739" lon="5.79537">
        <ele>380.9</ele>
        <time>2022-04-15T11:42:32Z</time>
      </trkpt>
      <trkpt lat="45.56739" lon="5.79537">
        <ele>380.9</ele>
        <time>2022-04-15T11:42:33Z</time>
      </trkpt>
      <trkpt lat="45.56739" lon="5.79537">
        <ele>380.9</ele>
        <time>2022-04-15T11:42:34Z</time>
      </trkpt>
      <trkpt lat="45.56739" lon="5.79537">
        <ele>380.9</ele>
        <time>2022-04-15T11:42:35Z</time>
      </trkpt>
      <trkpt lat="45.56739" lon="5.79537">
        <ele>380.9</ele>
        <time>2022-04-15T11:42:36Z</time>
      </trkpt>
      <trkpt lat="45.56739" lon="5.79537">
        <ele>380.9</ele>
        <time>2022-04-15T11:42:37Z</time>
      </trkpt>
      <trkpt lat="45.56739" lon="5.79537">
        <ele>380.9</ele>
        <time>2022-04-15T11:42:38Z</time>
      </trkpt>
      <trkpt lat="45.56739" lon="5.79537">
        <ele>380.9</ele>
        <time>2022-04-15T11:42:39Z</time>
      </trkpt>
      <trkpt lat="45.56739" lon="5.79537">
        <ele>380.9</ele>
        <time>2022-04-15T11:42:40Z</time>
      </trkpt>
      <trkpt lat="45.56739" lon="5.79537">
        <ele>380.9</ele>
        <time>2022-04-15T11:42:41Z</time>
      </trkpt>
      <trkpt lat="45.56739" lon="5.79537">
        <ele>380.9</ele>
        <time>2022-04-15T11:42:42Z</time>
      </trkpt>
      <trkpt lat="45.56739" lon="5.79537">
        <ele>380.9</ele>
        <time>2022-04-15T11:42:43Z</time>
      </trkpt>
      <trkpt lat="45.56739" lon="5.79537">
        <ele>380.9</ele>
        <time>2022-04-15T11:42:44Z</time>
      </trkpt>
      <trkpt lat="45.56739" lon="5.79537">
        <ele>380.9</ele>
        <time>2022-04-15T11:42:45Z</time>
      </trkpt>
      <trkpt lat="45.56739" lon="5.79537">
        <ele>380.9</ele>
        <time>2022-04-15T11:42:46Z</time>
      </trkpt>
      <trkpt lat="45.56739" lon="5.79537">
        <ele>380.9</ele>
        <time>2022-04-15T11:42:47Z</time>
      </trkpt>
      <trkpt lat="45.56739" lon="5.79537">
        <ele>380.9</ele>
        <time>2022-04-15T11:42:48Z</time>
      </trkpt>
      <trkpt lat="45.56739" lon="5.79537">
        <ele>380.9</ele>
        <time>2022-04-15T11:42:49Z</time>
      </trkpt>
      <trkpt lat="45.56739" lon="5.79537">
        <ele>380.9</ele>
        <time>2022-04-15T11:42:50Z</time>
      </trkpt>
      <trkpt lat="45.56739" lon="5.79537">
        <ele>380.9</ele>
        <time>2022-04-15T11:42:51Z</time>
      </trkpt>
      <trkpt lat="45.56739" lon="5.79537">
        <ele>380.9</ele>
        <time>2022-04-15T11:42:52Z</time>
      </trkpt>
      <trkpt lat="45.56739" lon="5.79537">
        <ele>380.9</ele>
        <time>2022-04-15T11:42:53Z</time>
      </trkpt>
      <trkpt lat="45.56739" lon="5.79537">
        <ele>380.9</ele>
        <time>2022-04-15T11:42:54Z</time>
      </trkpt>
      <trkpt lat="45.56739" lon="5.79537">
        <ele>380.9</ele>
        <time>2022-04-15T11:42:55Z</time>
      </trkpt>
      <trkpt lat="45.56739" lon="5.79537">
        <ele>380.9</ele>
        <time>2022-04-15T11:42:56Z</time>
      </trkpt>
      <trkpt lat="45.56739" lon="5.79537">
        <ele>380.9</ele>
        <time>2022-04-15T11:42:57Z</time>
      </trkpt>
      <trkpt lat="45.56739" lon="5.79537">
        <ele>380.9</ele>
        <time>2022-04-15T11:42:58Z</time>
      </trkpt>
      <trkpt lat="45.56739" lon="5.79537">
        <ele>380.9</ele>
        <time>2022-04-15T11:42:59Z</time>
      </trkpt>
      <trkpt lat="45.56739" lon="5.79537">
        <ele>380.9</ele>
        <time>2022-04-15T11:43:00Z</time>
      </trkpt>
      <trkpt lat="45.56739" lon="5.79537">
        <ele>380.9</ele>
        <time>2022-04-15T11:43:01Z</time>
      </trkpt>
      <trkpt lat="45.56739" lon="5.79537">
        <ele>380.9</ele>
        <time>2022-04-15T11:43:02Z</time>
      </trkpt>
      <trkpt lat="45.56739" lon="5.79537">
        <ele>380.9</ele>
        <time>2022-04-15T11:43:03Z</time>
      </trkpt>
      <trkpt lat="45.56739" lon="5.79537">
        <ele>380.9</ele>
        <time>2022-04-15T11:43:04Z</time>
      </trkpt>
      <trkpt lat="45.56739" lon="5.79537">
        <ele>380.9</ele>
        <time>2022-04-15T11:43:05Z</time>
      </trkpt>
      <trkpt lat="45.56739" lon="5.79537">
        <ele>380.9</ele>
        <time>2022-04-15T11:43:06Z</time>
      </trkpt>
      <trkpt lat="45.56739" lon="5.79537">
        <ele>380.9</ele>
        <time>2022-04-15T11:43:07Z</time>
      </trkpt>
      <trkpt lat="45.56739" lon="5.79537">
        <ele>380.9</ele>
        <time>2022-04-15T11:43:08Z</time>
      </trkpt>
      <trkpt lat="45.56739" lon="5.79537">
        <ele>380.9</ele>
        <time>2022-04-15T11:43:09Z</time>
      </trkpt>
      <trkpt lat="45.56739" lon="5.79537">
        <ele>380.9</ele>
        <time>2022-04-15T11:43:10Z</time>
      </trkpt>
      <trkpt lat="45.56739" lon="5.79537">
        <ele>380.9</ele>
        <time>2022-04-15T11:43:11Z</time>
      </trkpt>
      <trkpt lat="45.56739" lon="5.79537">
        <ele>380.9</ele>
        <time>2022-04-15T11:43:12Z</time>
      </trkpt>
      <trkpt lat="45.56739" lon="5.79537">
        <ele>380.9</ele>
        <time>2022-04-15T11:43:13Z</time>
      </trkpt>
      <trkpt lat="45.56739" lon="5.79537">
        <ele>380.9</ele>
        <time>2022-04-15T11:43:14Z</time>
      </trkpt>
      <trkpt lat="45.56739" lon="5.79537">
        <ele>380.9</ele>
        <time>2022-04-15T11:43:15Z</time>
      </trkpt>
      <trkpt lat="45.56739" lon="5.79537">
        <ele>380.9</ele>
        <time>2022-04-15T11:43:16Z</time>
      </trkpt>
      <trkpt lat="45.56739" lon="5.79537">
        <ele>380.9</ele>
        <time>2022-04-15T11:43:17Z</time>
      </trkpt>
      <trkpt lat="45.56739" lon="5.79537">
        <ele>380.9</ele>
        <time>2022-04-15T11:43:18Z</time>
      </trkpt>
      <trkpt lat="45.56739" lon="5.79537">
        <ele>380.9</ele>
        <time>2022-04-15T11:43:19Z</time>
      </trkpt>
      <trkpt lat="45.56739" lon="5.79537">
        <ele>380.9</ele>
        <time>2022-04-15T11:43:20Z</time>
      </trkpt>
      <trkpt lat="45.56739" lon="5.79537">
        <ele>380.9</ele>
        <time>2022-04-15T11:43:21Z</time>
      </trkpt>
      <trkpt lat="45.56739" lon="5.79537">
        <ele>380.9</ele>
        <time>2022-04-15T11:43:22Z</time>
      </trkpt>
      <trkpt lat="45.56739" lon="5.79537">
        <ele>380.9</ele>
        <time>2022-04-15T11:43:23Z</time>
      </trkpt>
      <trkpt lat="45.56739" lon="5.79537">
        <ele>380.9</ele>
        <time>2022-04-15T11:43:24Z</time>
      </trkpt>
      <trkpt lat="45.56739" lon="5.79537">
        <ele>380.9</ele>
        <time>2022-04-15T11:43:25Z</time>
      </trkpt>
      <trkpt lat="45.56739" lon="5.79537">
        <ele>380.9</ele>
        <time>2022-04-15T11:43:26Z</time>
      </trkpt>
      <trkpt lat="45.56739" lon="5.79537">
        <ele>380.9</ele>
        <time>2022-04-15T11:43:27Z</time>
      </trkpt>
      <trkpt lat="45.56739" lon="5.79537">
        <ele>380.9</ele>
        <time>2022-04-15T11:43:28Z</time>
      </trkpt>
      <trkpt lat="45.56739" lon="5.79537">
        <ele>380.9</ele>
        <time>2022-04-15T11:43:29Z</time>
      </trkpt>
      <trkpt lat="45.56739" lon="5.79537">
        <ele>380.9</ele>
        <time>2022-04-15T11:43:30Z</time>
      </trkpt>
      <trkpt lat="45.56739" lon="5.79537">
        <ele>380.9</ele>
        <time>2022-04-15T11:43:31Z</time>
      </trkpt>
      <trkpt lat="45.56739" lon="5.79537">
        <ele>380.9</ele>
        <time>2022-04-15T11:43:32Z</time>
      </trkpt>
      <trkpt lat="45.56739" lon="5.79537">
        <ele>380.9</ele>
        <time>2022-04-15T11:43:33Z</time>
      </trkpt>
      <trkpt lat="45.56739" lon="5.79537">
        <ele>380.9</ele>
        <time>2022-04-15T11:43:34Z</time>
      </trkpt>
      <trkpt lat="45.56739" lon="5.79537">
        <ele>380.9</ele>
        <time>2022-04-15T11:43:35Z</time>
      </trkpt>
      <trkpt lat="45.56739" lon="5.79537">
        <ele>380.9</ele>
        <time>2022-04-15T11:43:36Z</time>
      </trkpt>
      <trkpt lat="45.56739" lon="5.79537">
        <ele>380.9</ele>
        <time>2022-04-15T11:43:37Z</time>
      </trkpt>
      <trkpt lat="45.56739" lon="5.79537">
        <ele>380.9</ele>
        <time>2022-04-15T11:43:38Z</time>
      </trkpt>
      <trkpt lat="45.56739" lon="5.79537">
        <ele>380.9</ele>
        <time>2022-04-15T11:43:39Z</time>
      </trkpt>
      <trkpt lat="45.56739" lon="5.79537">
        <ele>380.9</ele>
        <time>2022-04-15T11:43:40Z</time>
      </trkpt>
      <trkpt lat="45.56739" lon="5.79537">
        <ele>380.9</ele>
        <time>2022-04-15T11:43:41Z</time>
      </trkpt>
      <trkpt lat="45.56739" lon="5.79537">
        <ele>380.9</ele>
        <time>2022-04-15T11:43:42Z</time>
      </trkpt>
      <trkpt lat="45.56739" lon="5.79537">
        <ele>380.9</ele>
        <time>2022-04-15T11:43:43Z</time>
      </trkpt>
      <trkpt lat="45.56739" lon="5.79537">
        <ele>380.9</ele>
        <time>2022-04-15T11:43:44Z</time>
      </trkpt>
      <trkpt lat="45.56739" lon="5.79537">
        <ele>380.9</ele>
        <time>2022-04-15T11:43:45Z</time>
      </trkpt>
      <trkpt lat="45.56739" lon="5.79537">
        <ele>380.9</ele>
        <time>2022-04-15T11:43:46Z</time>
      </trkpt>
      <trkpt lat="45.56739" lon="5.79537">
        <ele>380.9</ele>
        <time>2022-04-15T11:43:47Z</time>
      </trkpt>
      <trkpt lat="45.56739" lon="5.79537">
        <ele>380.9</ele>
        <time>2022-04-15T11:43:48Z</time>
      </trkpt>
      <trkpt lat="45.56739" lon="5.79537">
        <ele>380.9</ele>
        <time>2022-04-15T11:43:49Z</time>
      </trkpt>
      <trkpt lat="45.56739" lon="5.79537">
        <ele>380.9</ele>
        <time>2022-04-15T11:43:50Z</time>
      </trkpt>
      <trkpt lat="45.56739" lon="5.79537">
        <ele>380.9</ele>
        <time>2022-04-15T11:43:51Z</time>
      </trkpt>
      <trkpt lat="45.56739" lon="5.79537">
        <ele>380.9</ele>
        <time>2022-04-15T11:43:52Z</time>
      </trkpt>
      <trkpt lat="45.56739" lon="5.79537">
        <ele>380.9</ele>
        <time>2022-04-15T11:43:53Z</time>
      </trkpt>
      <trkpt lat="45.56739" lon="5.79537">
        <ele>380.9</ele>
        <time>2022-04-15T11:43:54Z</time>
      </trkpt>
      <trkpt lat="45.56739" lon="5.79537">
        <ele>380.9</ele>
        <time>2022-04-15T11:43:55Z</time>
      </trkpt>
      <trkpt lat="45.56739" lon="5.79537">
        <ele>380.9</ele>
        <time>2022-04-15T11:43:56Z</time>
      </trkpt>
      <trkpt lat="45.56739" lon="5.79537">
        <ele>380.9</ele>
        <time>2022-04-15T11:43:57Z</time>
      </trkpt>
      <trkpt lat="45.56739" lon="5.79537">
        <ele>380.9</ele>
        <time>2022-04-15T11:43:58Z</time>
      </trkpt>
      <trkpt lat="45.56739" lon="5.79537">
        <ele>380.9</ele>
        <time>2022-04-15T11:43:59Z</time>
      </trkpt>
      <trkpt lat="45.56739" lon="5.79537">
        <ele>380.9</ele>
        <time>2022-04-15T11:44:00Z</time>
      </trkpt>
      <trkpt lat="45.56739" lon="5.79537">
        <ele>380.9</ele>
        <time>2022-04-15T11:44:01Z</time>
      </trkpt>
      <trkpt lat="45.56739" lon="5.79537">
        <ele>380.9</ele>
        <time>2022-04-15T11:44:02Z</time>
      </trkpt>
      <trkpt lat="45.56739" lon="5.79537">
        <ele>380.9</ele>
        <time>2022-04-15T11:44:03Z</time>
      </trkpt>
      <trkpt lat="45.56739" lon="5.79537">
        <ele>380.9</ele>
        <time>2022-04-15T11:44:04Z</time>
      </trkpt>
      <trkpt lat="45.56739" lon="5.79537">
        <ele>380.9</ele>
        <time>2022-04-15T11:44:05Z</time>
      </trkpt>
      <trkpt lat="45.56739" lon="5.79537">
        <ele>380.9</ele>
        <time>2022-04-15T11:44:06Z</time>
      </trkpt>
      <trkpt lat="45.56739" lon="5.79537">
        <ele>380.9</ele>
        <time>2022-04-15T11:44:07Z</time>
      </trkpt>
      <trkpt lat="45.56739" lon="5.79537">
        <ele>380.9</ele>
        <time>2022-04-15T11:44:08Z</time>
      </trkpt>
      <trkpt lat="45.56739" lon="5.79537">
        <ele>380.9</ele>
        <time>2022-04-15T11:44:09Z</time>
      </trkpt>
      <trkpt lat="45.56739" lon="5.79537">
        <ele>380.9</ele>
        <time>2022-04-15T11:44:10Z</time>
      </trkpt>
      <trkpt lat="45.56739" lon="5.79537">
        <ele>380.9</ele>
        <time>2022-04-15T11:44:11Z</time>
      </trkpt>
      <trkpt lat="45.56739" lon="5.79537">
        <ele>380.9</ele>
        <time>2022-04-15T11:44:12Z</time>
      </trkpt>
      <trkpt lat="45.56739" lon="5.79537">
        <ele>380.9</ele>
        <time>2022-04-15T11:44:13Z</time>
      </trkpt>
      <trkpt lat="45.56739" lon="5.79537">
        <ele>380.9</ele>
        <time>2022-04-15T11:44:14Z</time>
      </trkpt>
      <trkpt lat="45.56739" lon="5.79537">
        <ele>380.9</ele>
        <time>2022-04-15T11:44:15Z</time>
      </trkpt>
      <trkpt lat="45.56739" lon="5.79537">
        <ele>380.9</ele>
        <time>2022-04-15T11:44:16Z</time>
      </trkpt>
      <trkpt lat="45.56739" lon="5.79537">
        <ele>380.9</ele>
        <time>2022-04-15T11:44:17Z</time>
      </trkpt>
      <trkpt lat="45.56739" lon="5.79537">
        <ele>380.9</ele>
        <time>2022-04-15T11:44:18Z</time>
      </trkpt>
      <trkpt lat="45.56739" lon="5.79537">
        <ele>380.9</ele>
        <time>2022-04-15T11:44:19Z</time>
      </trkpt>
      <trkpt lat="45.56739" lon="5.79537">
        <ele>380.9</ele>
        <time>2022-04-15T11:44:20Z</time>
      </trkpt>
      <trkpt lat="45.56739" lon="5.79537">
        <ele>380.9</ele>
        <time>2022-04-15T11:44:21Z</time>
      </trkpt>
      <trkpt lat="45.56739" lon="5.79537">
        <ele>380.9</ele>
        <time>2022-04-15T11:44:22Z</time>
      </trkpt>
      <trkpt lat="45.56738" lon="5.79537">
        <ele>380.9</ele>
        <time>2022-04-15T11:44:23Z</time>
      </trkpt>
      <trkpt lat="45.56738" lon="5.79537">
        <ele>380.9</ele>
        <time>2022-04-15T11:44:24Z</time>
      </trkpt>
      <trkpt lat="45.56738" lon="5.79537">
        <ele>380.9</ele>
        <time>2022-04-15T11:44:25Z</time>
      </trkpt>
      <trkpt lat="45.56738" lon="5.79537">
        <ele>380.9</ele>
        <time>2022-04-15T11:44:26Z</time>
      </trkpt>
      <trkpt lat="45.56738" lon="5.79537">
        <ele>380.9</ele>
        <time>2022-04-15T11:44:27Z</time>
      </trkpt>
      <trkpt lat="45.56738" lon="5.79537">
        <ele>380.9</ele>
        <time>2022-04-15T11:44:28Z</time>
      </trkpt>
      <trkpt lat="45.56738" lon="5.79537">
        <ele>380.9</ele>
        <time>2022-04-15T11:44:29Z</time>
      </trkpt>
      <trkpt lat="45.56738" lon="5.79537">
        <ele>380.9</ele>
        <time>2022-04-15T11:44:30Z</time>
      </trkpt>
      <trkpt lat="45.56738" lon="5.79537">
        <ele>380.9</ele>
        <time>2022-04-15T11:44:31Z</time>
      </trkpt>
      <trkpt lat="45.56738" lon="5.79537">
        <ele>380.9</ele>
        <time>2022-04-15T11:44:32Z</time>
      </trkpt>
      <trkpt lat="45.56738" lon="5.79537">
        <ele>380.9</ele>
        <time>2022-04-15T11:44:33Z</time>
      </trkpt>
      <trkpt lat="45.56738" lon="5.79537">
        <ele>380.9</ele>
        <time>2022-04-15T11:44:34Z</time>
      </trkpt>
      <trkpt lat="45.56738" lon="5.79537">
        <ele>380.9</ele>
        <time>2022-04-15T11:44:35Z</time>
      </trkpt>
      <trkpt lat="45.56738" lon="5.79537">
        <ele>380.9</ele>
        <time>2022-04-15T11:44:36Z</time>
      </trkpt>
      <trkpt lat="45.56738" lon="5.79537">
        <ele>380.9</ele>
        <time>2022-04-15T11:44:37Z</time>
      </trkpt>
      <trkpt lat="45.56738" lon="5.79537">
        <ele>380.9</ele>
        <time>2022-04-15T11:44:38Z</time>
      </trkpt>
      <trkpt lat="45.56738" lon="5.79537">
        <ele>380.9</ele>
        <time>2022-04-15T11:44:39Z</time>
      </trkpt>
      <trkpt lat="45.56738" lon="5.79537">
        <ele>380.9</ele>
        <time>2022-04-15T11:44:40Z</time>
      </trkpt>
      <trkpt lat="45.56738" lon="5.79537">
        <ele>380.9</ele>
        <time>2022-04-15T11:44:41Z</time>
      </trkpt>
      <trkpt lat="45.56738" lon="5.79537">
        <ele>380.9</ele>
        <time>2022-04-15T11:44:42Z</time>
      </trkpt>
      <trkpt lat="45.56738" lon="5.79537">
        <ele>380.9</ele>
        <time>2022-04-15T11:44:43Z</time>
      </trkpt>
      <trkpt lat="45.56738" lon="5.79537">
        <ele>380.9</ele>
        <time>2022-04-15T11:44:44Z</time>
      </trkpt>
      <trkpt lat="45.56738" lon="5.79537">
        <ele>380.9</ele>
        <time>2022-04-15T11:44:45Z</time>
      </trkpt>
      <trkpt lat="45.56738" lon="5.79537">
        <ele>380.9</ele>
        <time>2022-04-15T11:44:46Z</time>
      </trkpt>
      <trkpt lat="45.56738" lon="5.79537">
        <ele>380.9</ele>
        <time>2022-04-15T11:44:47Z</time>
      </trkpt>
      <trkpt lat="45.56738" lon="5.79537">
        <ele>380.9</ele>
        <time>2022-04-15T11:44:48Z</time>
      </trkpt>
      <trkpt lat="45.56738" lon="5.79537">
        <ele>380.9</ele>
        <time>2022-04-15T11:44:49Z</time>
      </trkpt>
      <trkpt lat="45.56738" lon="5.79537">
        <ele>380.9</ele>
        <time>2022-04-15T11:44:50Z</time>
      </trkpt>
      <trkpt lat="45.56738" lon="5.79537">
        <ele>380.9</ele>
        <time>2022-04-15T11:44:51Z</time>
      </trkpt>
      <trkpt lat="45.56738" lon="5.79537">
        <ele>380.9</ele>
        <time>2022-04-15T11:44:52Z</time>
      </trkpt>
      <trkpt lat="45.56738" lon="5.79537">
        <ele>380.9</ele>
        <time>2022-04-15T11:44:53Z</time>
      </trkpt>
      <trkpt lat="45.56738" lon="5.79537">
        <ele>380.9</ele>
        <time>2022-04-15T11:44:54Z</time>
      </trkpt>
      <trkpt lat="45.56738" lon="5.79537">
        <ele>380.9</ele>
        <time>2022-04-15T11:44:55Z</time>
      </trkpt>
      <trkpt lat="45.56738" lon="5.79537">
        <ele>380.9</ele>
        <time>2022-04-15T11:44:56Z</time>
      </trkpt>
      <trkpt lat="45.56738" lon="5.79537">
        <ele>380.9</ele>
        <time>2022-04-15T11:44:57Z</time>
      </trkpt>
      <trkpt lat="45.56738" lon="5.79537">
        <ele>380.9</ele>
        <time>2022-04-15T11:44:58Z</time>
      </trkpt>
      <trkpt lat="45.56738" lon="5.79537">
        <ele>380.9</ele>
        <time>2022-04-15T11:44:59Z</time>
      </trkpt>
      <trkpt lat="45.56738" lon="5.79537">
        <ele>380.9</ele>
        <time>2022-04-15T11:45:00Z</time>
      </trkpt>
      <trkpt lat="45.56738" lon="5.79537">
        <ele>380.9</ele>
        <time>2022-04-15T11:45:01Z</time>
      </trkpt>
      <trkpt lat="45.56738" lon="5.79537">
        <ele>380.9</ele>
        <time>2022-04-15T11:45:02Z</time>
      </trkpt>
      <trkpt lat="45.56738" lon="5.79537">
        <ele>380.9</ele>
        <time>2022-04-15T11:45:03Z</time>
      </trkpt>
      <trkpt lat="45.56738" lon="5.79537">
        <ele>380.9</ele>
        <time>2022-04-15T11:45:04Z</time>
      </trkpt>
      <trkpt lat="45.56738" lon="5.79537">
        <ele>380.9</ele>
        <time>2022-04-15T11:45:05Z</time>
      </trkpt>
      <trkpt lat="45.56738" lon="5.79537">
        <ele>380.9</ele>
        <time>2022-04-15T11:45:06Z</time>
      </trkpt>
      <trkpt lat="45.56738" lon="5.79537">
        <ele>380.9</ele>
        <time>2022-04-15T11:45:07Z</time>
      </trkpt>
      <trkpt lat="45.56738" lon="5.79537">
        <ele>380.9</ele>
        <time>2022-04-15T11:45:08Z</time>
      </trkpt>
      <trkpt lat="45.56738" lon="5.79537">
        <ele>380.9</ele>
        <time>2022-04-15T11:45:09Z</time>
      </trkpt>
      <trkpt lat="45.56738" lon="5.79537">
        <ele>380.9</ele>
        <time>2022-04-15T11:45:10Z</time>
      </trkpt>
      <trkpt lat="45.56738" lon="5.79537">
        <ele>380.9</ele>
        <time>2022-04-15T11:45:11Z</time>
      </trkpt>
      <trkpt lat="45.56738" lon="5.79537">
        <ele>380.9</ele>
        <time>2022-04-15T11:45:12Z</time>
      </trkpt>
      <trkpt lat="45.56738" lon="5.79537">
        <ele>380.9</ele>
        <time>2022-04-15T11:45:13Z</time>
      </trkpt>
      <trkpt lat="45.56738" lon="5.79537">
        <ele>380.9</ele>
        <time>2022-04-15T11:45:14Z</time>
      </trkpt>
      <trkpt lat="45.56738" lon="5.79537">
        <ele>380.9</ele>
        <time>2022-04-15T11:45:15Z</time>
      </trkpt>
      <trkpt lat="45.56738" lon="5.79537">
        <ele>380.9</ele>
        <time>2022-04-15T11:45:16Z</time>
      </trkpt>
      <trkpt lat="45.56738" lon="5.79537">
        <ele>380.9</ele>
        <time>2022-04-15T11:45:17Z</time>
      </trkpt>
      <trkpt lat="45.56738" lon="5.79537">
        <ele>380.9</ele>
        <time>2022-04-15T11:45:18Z</time>
      </trkpt>
      <trkpt lat="45.56738" lon="5.79537">
        <ele>380.9</ele>
        <time>2022-04-15T11:45:19Z</time>
      </trkpt>
      <trkpt lat="45.56738" lon="5.79537">
        <ele>380.9</ele>
        <time>2022-04-15T11:45:20Z</time>
      </trkpt>
      <trkpt lat="45.56738" lon="5.79537">
        <ele>380.9</ele>
        <time>2022-04-15T11:45:21Z</time>
      </trkpt>
      <trkpt lat="45.56738" lon="5.79537">
        <ele>380.9</ele>
        <time>2022-04-15T11:45:22Z</time>
      </trkpt>
      <trkpt lat="45.56738" lon="5.79537">
        <ele>380.9</ele>
        <time>2022-04-15T11:45:23Z</time>
      </trkpt>
      <trkpt lat="45.56738" lon="5.79537">
        <ele>380.9</ele>
        <time>2022-04-15T11:45:24Z</time>
      </trkpt>
      <trkpt lat="45.56738" lon="5.79537">
        <ele>380.9</ele>
        <time>2022-04-15T11:45:25Z</time>
      </trkpt>
      <trkpt lat="45.56738" lon="5.79537">
        <ele>380.9</ele>
        <time>2022-04-15T11:45:26Z</time>
      </trkpt>
      <trkpt lat="45.56738" lon="5.79537">
        <ele>380.9</ele>
        <time>2022-04-15T11:45:27Z</time>
      </trkpt>
      <trkpt lat="45.56738" lon="5.79537">
        <ele>380.9</ele>
        <time>2022-04-15T11:45:28Z</time>
      </trkpt>
      <trkpt lat="45.56738" lon="5.79537">
        <ele>380.9</ele>
        <time>2022-04-15T11:45:29Z</time>
      </trkpt>
      <trkpt lat="45.56738" lon="5.79537">
        <ele>380.9</ele>
        <time>2022-04-15T11:45:30Z</time>
      </trkpt>
      <trkpt lat="45.56738" lon="5.79537">
        <ele>380.9</ele>
        <time>2022-04-15T11:45:31Z</time>
      </trkpt>
      <trkpt lat="45.56738" lon="5.79537">
        <ele>380.9</ele>
        <time>2022-04-15T11:45:32Z</time>
      </trkpt>
      <trkpt lat="45.56738" lon="5.79537">
        <ele>380.9</ele>
        <time>2022-04-15T11:45:33Z</time>
      </trkpt>
      <trkpt lat="45.56738" lon="5.79537">
        <ele>380.9</ele>
        <time>2022-04-15T11:45:34Z</time>
      </trkpt>
      <trkpt lat="45.56738" lon="5.79537">
        <ele>380.9</ele>
        <time>2022-04-15T11:45:35Z</time>
      </trkpt>
      <trkpt lat="45.56738" lon="5.79537">
        <ele>380.9</ele>
        <time>2022-04-15T11:45:36Z</time>
      </trkpt>
      <trkpt lat="45.56738" lon="5.79537">
        <ele>380.9</ele>
        <time>2022-04-15T11:45:37Z</time>
      </trkpt>
      <trkpt lat="45.56738" lon="5.79537">
        <ele>380.9</ele>
        <time>2022-04-15T11:45:38Z</time>
      </trkpt>
      <trkpt lat="45.56738" lon="5.79537">
        <ele>380.9</ele>
        <time>2022-04-15T11:45:39Z</time>
      </trkpt>
      <trkpt lat="45.56738" lon="5.79537">
        <ele>380.9</ele>
        <time>2022-04-15T11:45:40Z</time>
      </trkpt>
      <trkpt lat="45.56738" lon="5.79537">
        <ele>380.9</ele>
        <time>2022-04-15T11:45:41Z</time>
      </trkpt>
      <trkpt lat="45.56738" lon="5.79537">
        <ele>380.9</ele>
        <time>2022-04-15T11:45:42Z</time>
      </trkpt>
      <trkpt lat="45.56738" lon="5.79537">
        <ele>380.9</ele>
        <time>2022-04-15T11:45:43Z</time>
      </trkpt>
      <trkpt lat="45.56738" lon="5.79537">
        <ele>380.9</ele>
        <time>2022-04-15T11:45:44Z</time>
      </trkpt>
      <trkpt lat="45.56738" lon="5.79537">
        <ele>380.9</ele>
        <time>2022-04-15T11:45:45Z</time>
      </trkpt>
      <trkpt lat="45.56738" lon="5.79537">
        <ele>380.9</ele>
        <time>2022-04-15T11:45:46Z</time>
      </trkpt>
      <trkpt lat="45.56738" lon="5.79537">
        <ele>380.9</ele>
        <time>2022-04-15T11:45:47Z</time>
      </trkpt>
      <trkpt lat="45.56738" lon="5.79537">
        <ele>380.9</ele>
        <time>2022-04-15T11:45:48Z</time>
      </trkpt>
      <trkpt lat="45.56738" lon="5.79537">
        <ele>380.9</ele>
        <time>2022-04-15T11:45:49Z</time>
      </trkpt>
      <trkpt lat="45.56738" lon="5.79537">
        <ele>380.9</ele>
        <time>2022-04-15T11:45:50Z</time>
      </trkpt>
      <trkpt lat="45.56738" lon="5.79537">
        <ele>380.9</ele>
        <time>2022-04-15T11:45:51Z</time>
      </trkpt>
      <trkpt lat="45.56738" lon="5.79537">
        <ele>380.9</ele>
        <time>2022-04-15T11:45:52Z</time>
      </trkpt>
      <trkpt lat="45.56738" lon="5.79537">
        <ele>380.9</ele>
        <time>2022-04-15T11:45:53Z</time>
      </trkpt>
      <trkpt lat="45.56738" lon="5.79537">
        <ele>380.9</ele>
        <time>2022-04-15T11:45:54Z</time>
      </trkpt>
      <trkpt lat="45.56738" lon="5.79537">
        <ele>380.9</ele>
        <time>2022-04-15T11:45:55Z</time>
      </trkpt>
      <trkpt lat="45.56738" lon="5.79537">
        <ele>380.9</ele>
        <time>2022-04-15T11:45:56Z</time>
      </trkpt>
      <trkpt lat="45.56738" lon="5.79537">
        <ele>380.9</ele>
        <time>2022-04-15T11:45:57Z</time>
      </trkpt>
      <trkpt lat="45.56738" lon="5.79537">
        <ele>380.9</ele>
        <time>2022-04-15T11:45:58Z</time>
      </trkpt>
      <trkpt lat="45.56738" lon="5.79537">
        <ele>380.9</ele>
        <time>2022-04-15T11:45:59Z</time>
      </trkpt>
      <trkpt lat="45.56738" lon="5.79537">
        <ele>380.9</ele>
        <time>2022-04-15T11:46:00Z</time>
      </trkpt>
      <trkpt lat="45.56738" lon="5.79537">
        <ele>380.9</ele>
        <time>2022-04-15T11:46:01Z</time>
      </trkpt>
      <trkpt lat="45.56738" lon="5.79537">
        <ele>380.9</ele>
        <time>2022-04-15T11:46:02Z</time>
      </trkpt>
      <trkpt lat="45.56738" lon="5.79537">
        <ele>380.9</ele>
        <time>2022-04-15T11:46:03Z</time>
      </trkpt>
      <trkpt lat="45.56738" lon="5.79537">
        <ele>380.9</ele>
        <time>2022-04-15T11:46:04Z</time>
      </trkpt>
      <trkpt lat="45.56738" lon="5.79537">
        <ele>380.9</ele>
        <time>2022-04-15T11:46:05Z</time>
      </trkpt>
      <trkpt lat="45.56738" lon="5.79537">
        <ele>380.9</ele>
        <time>2022-04-15T11:46:06Z</time>
      </trkpt>
      <trkpt lat="45.56738" lon="5.79537">
        <ele>380.9</ele>
        <time>2022-04-15T11:46:07Z</time>
      </trkpt>
      <trkpt lat="45.56738" lon="5.79537">
        <ele>380.9</ele>
        <time>2022-04-15T11:46:08Z</time>
      </trkpt>
      <trkpt lat="45.56738" lon="5.79537">
        <ele>380.9</ele>
        <time>2022-04-15T11:46:09Z</time>
      </trkpt>
      <trkpt lat="45.56738" lon="5.79537">
        <ele>380.9</ele>
        <time>2022-04-15T11:46:10Z</time>
      </trkpt>
      <trkpt lat="45.56738" lon="5.79537">
        <ele>380.9</ele>
        <time>2022-04-15T11:46:11Z</time>
      </trkpt>
      <trkpt lat="45.56738" lon="5.79537">
        <ele>380.9</ele>
        <time>2022-04-15T11:46:12Z</time>
      </trkpt>
      <trkpt lat="45.56738" lon="5.79537">
        <ele>380.9</ele>
        <time>2022-04-15T11:46:13Z</time>
      </trkpt>
      <trkpt lat="45.56738" lon="5.79537">
        <ele>380.9</ele>
        <time>2022-04-15T11:46:14Z</time>
      </trkpt>
      <trkpt lat="45.56738" lon="5.79537">
        <ele>380.9</ele>
        <time>2022-04-15T11:46:15Z</time>
      </trkpt>
      <trkpt lat="45.56738" lon="5.79537">
        <ele>380.9</ele>
        <time>2022-04-15T11:46:16Z</time>
      </trkpt>
      <trkpt lat="45.56738" lon="5.79537">
        <ele>380.9</ele>
        <time>2022-04-15T11:46:17Z</time>
      </trkpt>
      <trkpt lat="45.56738" lon="5.79537">
        <ele>380.9</ele>
        <time>2022-04-15T11:46:18Z</time>
      </trkpt>
      <trkpt lat="45.56738" lon="5.79537">
        <ele>380.9</ele>
        <time>2022-04-15T11:46:19Z</time>
      </trkpt>
      <trkpt lat="45.56738" lon="5.79537">
        <ele>380.9</ele>
        <time>2022-04-15T11:46:20Z</time>
      </trkpt>
      <trkpt lat="45.56738" lon="5.79537">
        <ele>380.9</ele>
        <time>2022-04-15T11:46:21Z</time>
      </trkpt>
      <trkpt lat="45.56738" lon="5.79537">
        <ele>380.9</ele>
        <time>2022-04-15T11:46:22Z</time>
      </trkpt>
      <trkpt lat="45.56738" lon="5.79537">
        <ele>380.9</ele>
        <time>2022-04-15T11:46:23Z</time>
      </trkpt>
      <trkpt lat="45.56738" lon="5.79537">
        <ele>380.9</ele>
        <time>2022-04-15T11:46:24Z</time>
      </trkpt>
      <trkpt lat="45.56738" lon="5.79537">
        <ele>380.9</ele>
        <time>2022-04-15T11:46:25Z</time>
      </trkpt>
      <trkpt lat="45.56738" lon="5.79537">
        <ele>380.9</ele>
        <time>2022-04-15T11:46:26Z</time>
      </trkpt>
      <trkpt lat="45.56738" lon="5.79537">
        <ele>380.9</ele>
        <time>2022-04-15T11:46:27Z</time>
      </trkpt>
      <trkpt lat="45.56738" lon="5.79537">
        <ele>380.9</ele>
        <time>2022-04-15T11:46:28Z</time>
      </trkpt>
      <trkpt lat="45.56738" lon="5.79537">
        <ele>380.9</ele>
        <time>2022-04-15T11:46:29Z</time>
      </trkpt>
      <trkpt lat="45.56738" lon="5.79537">
        <ele>380.9</ele>
        <time>2022-04-15T11:46:30Z</time>
      </trkpt>
      <trkpt lat="45.56738" lon="5.79537">
        <ele>380.9</ele>
        <time>2022-04-15T11:46:31Z</time>
      </trkpt>
      <trkpt lat="45.56738" lon="5.79537">
        <ele>380.9</ele>
        <time>2022-04-15T11:46:32Z</time>
      </trkpt>
      <trkpt lat="45.56738" lon="5.79537">
        <ele>380.9</ele>
        <time>2022-04-15T11:46:33Z</time>
      </trkpt>
      <trkpt lat="45.56738" lon="5.79537">
        <ele>380.9</ele>
        <time>2022-04-15T11:46:34Z</time>
      </trkpt>
      <trkpt lat="45.56738" lon="5.79537">
        <ele>380.9</ele>
        <time>2022-04-15T11:46:35Z</time>
      </trkpt>
      <trkpt lat="45.56738" lon="5.79537">
        <ele>380.9</ele>
        <time>2022-04-15T11:46:36Z</time>
      </trkpt>
      <trkpt lat="45.56738" lon="5.79537">
        <ele>380.9</ele>
        <time>2022-04-15T11:46:37Z</time>
      </trkpt>
      <trkpt lat="45.56738" lon="5.79537">
        <ele>380.9</ele>
        <time>2022-04-15T11:46:38Z</time>
      </trkpt>
      <trkpt lat="45.56738" lon="5.79537">
        <ele>380.9</ele>
        <time>2022-04-15T11:46:39Z</time>
      </trkpt>
      <trkpt lat="45.56738" lon="5.79537">
        <ele>380.9</ele>
        <time>2022-04-15T11:46:40Z</time>
      </trkpt>
      <trkpt lat="45.56738" lon="5.79537">
        <ele>380.9</ele>
        <time>2022-04-15T11:46:41Z</time>
      </trkpt>
      <trkpt lat="45.56738" lon="5.79537">
        <ele>380.9</ele>
        <time>2022-04-15T11:46:42Z</time>
      </trkpt>
      <trkpt lat="45.56738" lon="5.79537">
        <ele>380.9</ele>
        <time>2022-04-15T11:46:43Z</time>
      </trkpt>
      <trkpt lat="45.56738" lon="5.79537">
        <ele>380.9</ele>
        <time>2022-04-15T11:46:44Z</time>
      </trkpt>
      <trkpt lat="45.56738" lon="5.79537">
        <ele>380.9</ele>
        <time>2022-04-15T11:46:45Z</time>
      </trkpt>
      <trkpt lat="45.56738" lon="5.79537">
        <ele>380.9</ele>
        <time>2022-04-15T11:46:46Z</time>
      </trkpt>
      <trkpt lat="45.56738" lon="5.79537">
        <ele>380.9</ele>
        <time>2022-04-15T11:46:47Z</time>
      </trkpt>
      <trkpt lat="45.56738" lon="5.79537">
        <ele>380.9</ele>
        <time>2022-04-15T11:46:48Z</time>
      </trkpt>
      <trkpt lat="45.56738" lon="5.79537">
        <ele>380.9</ele>
        <time>2022-04-15T11:46:49Z</time>
      </trkpt>
      <trkpt lat="45.56738" lon="5.79537">
        <ele>380.9</ele>
        <time>2022-04-15T11:46:50Z</time>
      </trkpt>
      <trkpt lat="45.56738" lon="5.79537">
        <ele>380.9</ele>
        <time>2022-04-15T11:46:51Z</time>
      </trkpt>
      <trkpt lat="45.56738" lon="5.79537">
        <ele>380.9</ele>
        <time>2022-04-15T11:46:52Z</time>
      </trkpt>
      <trkpt lat="45.56738" lon="5.79537">
        <ele>380.9</ele>
        <time>2022-04-15T11:46:53Z</time>
      </trkpt>
      <trkpt lat="45.56738" lon="5.79537">
        <ele>380.9</ele>
        <time>2022-04-15T11:46:54Z</time>
      </trkpt>
      <trkpt lat="45.56738" lon="5.79537">
        <ele>380.9</ele>
        <time>2022-04-15T11:46:55Z</time>
      </trkpt>
      <trkpt lat="45.56738" lon="5.79537">
        <ele>380.9</ele>
        <time>2022-04-15T11:46:56Z</time>
      </trkpt>
      <trkpt lat="45.56738" lon="5.79537">
        <ele>380.9</ele>
        <time>2022-04-15T11:46:57Z</time>
      </trkpt>
      <trkpt lat="45.56738" lon="5.79537">
        <ele>380.9</ele>
        <time>2022-04-15T11:46:58Z</time>
      </trkpt>
      <trkpt lat="45.56738" lon="5.79537">
        <ele>380.9</ele>
        <time>2022-04-15T11:46:59Z</time>
      </trkpt>
      <trkpt lat="45.56738" lon="5.79537">
        <ele>380.9</ele>
        <time>2022-04-15T11:47:00Z</time>
      </trkpt>
      <trkpt lat="45.56738" lon="5.79537">
        <ele>380.9</ele>
        <time>2022-04-15T11:47:01Z</time>
      </trkpt>
      <trkpt lat="45.56738" lon="5.79537">
        <ele>380.9</ele>
        <time>2022-04-15T11:47:02Z</time>
      </trkpt>
      <trkpt lat="45.56738" lon="5.79537">
        <ele>380.9</ele>
        <time>2022-04-15T11:47:03Z</time>
      </trkpt>
      <trkpt lat="45.56738" lon="5.79537">
        <ele>380.9</ele>
        <time>2022-04-15T11:47:04Z</time>
      </trkpt>
      <trkpt lat="45.56738" lon="5.79537">
        <ele>380.9</ele>
        <time>2022-04-15T11:47:05Z</time>
      </trkpt>
      <trkpt lat="45.56738" lon="5.79537">
        <ele>380.9</ele>
        <time>2022-04-15T11:47:06Z</time>
      </trkpt>
      <trkpt lat="45.56738" lon="5.79537">
        <ele>380.9</ele>
        <time>2022-04-15T11:47:07Z</time>
      </trkpt>
      <trkpt lat="45.56738" lon="5.79537">
        <ele>380.9</ele>
        <time>2022-04-15T11:47:08Z</time>
      </trkpt>
      <trkpt lat="45.56738" lon="5.79537">
        <ele>380.9</ele>
        <time>2022-04-15T11:47:09Z</time>
      </trkpt>
      <trkpt lat="45.56738" lon="5.79537">
        <ele>380.9</ele>
        <time>2022-04-15T11:47:10Z</time>
      </trkpt>
      <trkpt lat="45.56738" lon="5.79537">
        <ele>380.9</ele>
        <time>2022-04-15T11:47:11Z</time>
      </trkpt>
      <trkpt lat="45.56738" lon="5.79537">
        <ele>380.9</ele>
        <time>2022-04-15T11:47:12Z</time>
      </trkpt>
      <trkpt lat="45.56738" lon="5.79537">
        <ele>380.9</ele>
        <time>2022-04-15T11:47:13Z</time>
      </trkpt>
      <trkpt lat="45.56738" lon="5.79537">
        <ele>380.9</ele>
        <time>2022-04-15T11:47:14Z</time>
      </trkpt>
      <trkpt lat="45.56738" lon="5.79537">
        <ele>380.9</ele>
        <time>2022-04-15T11:47:15Z</time>
      </trkpt>
      <trkpt lat="45.56738" lon="5.79537">
        <ele>380.9</ele>
        <time>2022-04-15T11:47:16Z</time>
      </trkpt>
      <trkpt lat="45.56738" lon="5.79537">
        <ele>380.9</ele>
        <time>2022-04-15T11:47:17Z</time>
      </trkpt>
      <trkpt lat="45.56738" lon="5.79537">
        <ele>380.9</ele>
        <time>2022-04-15T11:47:18Z</time>
      </trkpt>
      <trkpt lat="45.56738" lon="5.79537">
        <ele>380.9</ele>
        <time>2022-04-15T11:47:19Z</time>
      </trkpt>
      <trkpt lat="45.56738" lon="5.79537">
        <ele>380.9</ele>
        <time>2022-04-15T11:47:20Z</time>
      </trkpt>
      <trkpt lat="45.56738" lon="5.79537">
        <ele>380.9</ele>
        <time>2022-04-15T11:47:21Z</time>
      </trkpt>
      <trkpt lat="45.56738" lon="5.79537">
        <ele>380.9</ele>
        <time>2022-04-15T11:47:22Z</time>
      </trkpt>
      <trkpt lat="45.56738" lon="5.79537">
        <ele>380.9</ele>
        <time>2022-04-15T11:47:23Z</time>
      </trkpt>
      <trkpt lat="45.56738" lon="5.79537">
        <ele>380.9</ele>
        <time>2022-04-15T11:47:24Z</time>
      </trkpt>
      <trkpt lat="45.56738" lon="5.79537">
        <ele>380.9</ele>
        <time>2022-04-15T11:47:25Z</time>
      </trkpt>
      <trkpt lat="45.56738" lon="5.79537">
        <ele>380.9</ele>
        <time>2022-04-15T11:47:26Z</time>
      </trkpt>
      <trkpt lat="45.56738" lon="5.79537">
        <ele>380.9</ele>
        <time>2022-04-15T11:47:27Z</time>
      </trkpt>
      <trkpt lat="45.56738" lon="5.79537">
        <ele>380.9</ele>
        <time>2022-04-15T11:47:28Z</time>
      </trkpt>
      <trkpt lat="45.56738" lon="5.79537">
        <ele>380.9</ele>
        <time>2022-04-15T11:47:29Z</time>
      </trkpt>
      <trkpt lat="45.56738" lon="5.79537">
        <ele>380.9</ele>
        <time>2022-04-15T11:47:30Z</time>
      </trkpt>
      <trkpt lat="45.56738" lon="5.79537">
        <ele>380.9</ele>
        <time>2022-04-15T11:47:31Z</time>
      </trkpt>
      <trkpt lat="45.56738" lon="5.79537">
        <ele>380.9</ele>
        <time>2022-04-15T11:47:32Z</time>
      </trkpt>
      <trkpt lat="45.56738" lon="5.79537">
        <ele>380.9</ele>
        <time>2022-04-15T11:47:33Z</time>
      </trkpt>
      <trkpt lat="45.56738" lon="5.79537">
        <ele>380.9</ele>
        <time>2022-04-15T11:47:34Z</time>
      </trkpt>
      <trkpt lat="45.56738" lon="5.79537">
        <ele>380.9</ele>
        <time>2022-04-15T11:47:35Z</time>
      </trkpt>
      <trkpt lat="45.56738" lon="5.79537">
        <ele>380.9</ele>
        <time>2022-04-15T11:47:36Z</time>
      </trkpt>
      <trkpt lat="45.56738" lon="5.79537">
        <ele>380.9</ele>
        <time>2022-04-15T11:47:37Z</time>
      </trkpt>
      <trkpt lat="45.56738" lon="5.79537">
        <ele>380.9</ele>
        <time>2022-04-15T11:47:38Z</time>
      </trkpt>
      <trkpt lat="45.56738" lon="5.79537">
        <ele>380.9</ele>
        <time>2022-04-15T11:47:39Z</time>
      </trkpt>
      <trkpt lat="45.56738" lon="5.79537">
        <ele>380.9</ele>
        <time>2022-04-15T11:47:40Z</time>
      </trkpt>
      <trkpt lat="45.56738" lon="5.79537">
        <ele>380.9</ele>
        <time>2022-04-15T11:47:41Z</time>
      </trkpt>
      <trkpt lat="45.56738" lon="5.79537">
        <ele>380.9</ele>
        <time>2022-04-15T11:47:42Z</time>
      </trkpt>
      <trkpt lat="45.56738" lon="5.79537">
        <ele>380.9</ele>
        <time>2022-04-15T11:47:43Z</time>
      </trkpt>
      <trkpt lat="45.56738" lon="5.79537">
        <ele>380.9</ele>
        <time>2022-04-15T11:47:44Z</time>
      </trkpt>
      <trkpt lat="45.56738" lon="5.79537">
        <ele>380.9</ele>
        <time>2022-04-15T11:47:45Z</time>
      </trkpt>
      <trkpt lat="45.56738" lon="5.79537">
        <ele>380.9</ele>
        <time>2022-04-15T11:47:46Z</time>
      </trkpt>
      <trkpt lat="45.56738" lon="5.79537">
        <ele>380.9</ele>
        <time>2022-04-15T11:47:47Z</time>
      </trkpt>
      <trkpt lat="45.56738" lon="5.79537">
        <ele>380.9</ele>
        <time>2022-04-15T11:47:48Z</time>
      </trkpt>
      <trkpt lat="45.56738" lon="5.79537">
        <ele>380.9</ele>
        <time>2022-04-15T11:47:49Z</time>
      </trkpt>
      <trkpt lat="45.56738" lon="5.79537">
        <ele>380.9</ele>
        <time>2022-04-15T11:47:50Z</time>
      </trkpt>
      <trkpt lat="45.56738" lon="5.79537">
        <ele>380.9</ele>
        <time>2022-04-15T11:47:51Z</time>
      </trkpt>
      <trkpt lat="45.56738" lon="5.79537">
        <ele>380.9</ele>
        <time>2022-04-15T11:47:52Z</time>
      </trkpt>
      <trkpt lat="45.56738" lon="5.79537">
        <ele>380.9</ele>
        <time>2022-04-15T11:47:53Z</time>
      </trkpt>
      <trkpt lat="45.56738" lon="5.79537">
        <ele>380.9</ele>
        <time>2022-04-15T11:47:54Z</time>
      </trkpt>
      <trkpt lat="45.56738" lon="5.79537">
        <ele>380.9</ele>
        <time>2022-04-15T11:47:55Z</time>
      </trkpt>
      <trkpt lat="45.56738" lon="5.79537">
        <ele>380.9</ele>
        <time>2022-04-15T11:47:56Z</time>
      </trkpt>
      <trkpt lat="45.56738" lon="5.79537">
        <ele>380.9</ele>
        <time>2022-04-15T11:47:57Z</time>
      </trkpt>
      <trkpt lat="45.56738" lon="5.79537">
        <ele>380.9</ele>
        <time>2022-04-15T11:47:58Z</time>
      </trkpt>
      <trkpt lat="45.56738" lon="5.79537">
        <ele>380.9</ele>
        <time>2022-04-15T11:47:59Z</time>
      </trkpt>
      <trkpt lat="45.56738" lon="5.79537">
        <ele>380.9</ele>
        <time>2022-04-15T11:48:00Z</time>
      </trkpt>
      <trkpt lat="45.56738" lon="5.79537">
        <ele>380.9</ele>
        <time>2022-04-15T11:48:01Z</time>
      </trkpt>
      <trkpt lat="45.56738" lon="5.79537">
        <ele>380.9</ele>
        <time>2022-04-15T11:48:02Z</time>
      </trkpt>
      <trkpt lat="45.56738" lon="5.79537">
        <ele>380.9</ele>
        <time>2022-04-15T11:48:03Z</time>
      </trkpt>
      <trkpt lat="45.56738" lon="5.79537">
        <ele>380.9</ele>
        <time>2022-04-15T11:48:04Z</time>
      </trkpt>
      <trkpt lat="45.56738" lon="5.79537">
        <ele>380.9</ele>
        <time>2022-04-15T11:48:05Z</time>
      </trkpt>
      <trkpt lat="45.56738" lon="5.79537">
        <ele>380.9</ele>
        <time>2022-04-15T11:48:06Z</time>
      </trkpt>
      <trkpt lat="45.56738" lon="5.79537">
        <ele>380.9</ele>
        <time>2022-04-15T11:48:07Z</time>
      </trkpt>
      <trkpt lat="45.56738" lon="5.79537">
        <ele>380.9</ele>
        <time>2022-04-15T11:48:08Z</time>
      </trkpt>
      <trkpt lat="45.56738" lon="5.79537">
        <ele>380.9</ele>
        <time>2022-04-15T11:48:09Z</time>
      </trkpt>
      <trkpt lat="45.56738" lon="5.79537">
        <ele>380.9</ele>
        <time>2022-04-15T11:48:10Z</time>
      </trkpt>
      <trkpt lat="45.56738" lon="5.79537">
        <ele>380.9</ele>
        <time>2022-04-15T11:48:11Z</time>
      </trkpt>
      <trkpt lat="45.56738" lon="5.79537">
        <ele>380.9</ele>
        <time>2022-04-15T11:48:12Z</time>
      </trkpt>
      <trkpt lat="45.56738" lon="5.79537">
        <ele>380.9</ele>
        <time>2022-04-15T11:48:13Z</time>
      </trkpt>
      <trkpt lat="45.56738" lon="5.79537">
        <ele>380.9</ele>
        <time>2022-04-15T11:48:14Z</time>
      </trkpt>
      <trkpt lat="45.56738" lon="5.79537">
        <ele>380.9</ele>
        <time>2022-04-15T11:48:15Z</time>
      </trkpt>
      <trkpt lat="45.56738" lon="5.79537">
        <ele>380.9</ele>
        <time>2022-04-15T11:48:16Z</time>
      </trkpt>
      <trkpt lat="45.56738" lon="5.79537">
        <ele>380.9</ele>
        <time>2022-04-15T11:48:17Z</time>
      </trkpt>
      <trkpt lat="45.56738" lon="5.79537">
        <ele>380.9</ele>
        <time>2022-04-15T11:48:18Z</time>
      </trkpt>
      <trkpt lat="45.56738" lon="5.79537">
        <ele>380.9</ele>
        <time>2022-04-15T11:48:19Z</time>
      </trkpt>
      <trkpt lat="45.56738" lon="5.79537">
        <ele>380.9</ele>
        <time>2022-04-15T11:48:20Z</time>
      </trkpt>
      <trkpt lat="45.56738" lon="5.79537">
        <ele>380.9</ele>
        <time>2022-04-15T11:48:21Z</time>
      </trkpt>
      <trkpt lat="45.56738" lon="5.79537">
        <ele>380.9</ele>
        <time>2022-04-15T11:48:22Z</time>
      </trkpt>
      <trkpt lat="45.56738" lon="5.79537">
        <ele>380.9</ele>
        <time>2022-04-15T11:48:23Z</time>
      </trkpt>
      <trkpt lat="45.56738" lon="5.79537">
        <ele>380.9</ele>
        <time>2022-04-15T11:48:24Z</time>
      </trkpt>
      <trkpt lat="45.56738" lon="5.79537">
        <ele>380.9</ele>
        <time>2022-04-15T11:48:25Z</time>
      </trkpt>
      <trkpt lat="45.56738" lon="5.79537">
        <ele>380.9</ele>
        <time>2022-04-15T11:48:26Z</time>
      </trkpt>
      <trkpt lat="45.56738" lon="5.79537">
        <ele>380.9</ele>
        <time>2022-04-15T11:48:27Z</time>
      </trkpt>
      <trkpt lat="45.56738" lon="5.79537">
        <ele>380.9</ele>
        <time>2022-04-15T11:48:28Z</time>
      </trkpt>
      <trkpt lat="45.56738" lon="5.79537">
        <ele>380.9</ele>
        <time>2022-04-15T11:48:29Z</time>
      </trkpt>
      <trkpt lat="45.56738" lon="5.79537">
        <ele>380.9</ele>
        <time>2022-04-15T11:48:30Z</time>
      </trkpt>
      <trkpt lat="45.56738" lon="5.79537">
        <ele>380.9</ele>
        <time>2022-04-15T11:48:31Z</time>
      </trkpt>
      <trkpt lat="45.56738" lon="5.79537">
        <ele>380.9</ele>
        <time>2022-04-15T11:48:32Z</time>
      </trkpt>
      <trkpt lat="45.56738" lon="5.79537">
        <ele>380.9</ele>
        <time>2022-04-15T11:48:33Z</time>
      </trkpt>
      <trkpt lat="45.56738" lon="5.79537">
        <ele>380.9</ele>
        <time>2022-04-15T11:48:34Z</time>
      </trkpt>
      <trkpt lat="45.56738" lon="5.79537">
        <ele>380.9</ele>
        <time>2022-04-15T11:48:35Z</time>
      </trkpt>
      <trkpt lat="45.56738" lon="5.79537">
        <ele>380.9</ele>
        <time>2022-04-15T11:48:36Z</time>
      </trkpt>
      <trkpt lat="45.56738" lon="5.79537">
        <ele>380.9</ele>
        <time>2022-04-15T11:48:37Z</time>
      </trkpt>
      <trkpt lat="45.56738" lon="5.79537">
        <ele>380.9</ele>
        <time>2022-04-15T11:48:38Z</time>
      </trkpt>
      <trkpt lat="45.56738" lon="5.79537">
        <ele>380.9</ele>
        <time>2022-04-15T11:48:39Z</time>
      </trkpt>
      <trkpt lat="45.56738" lon="5.79537">
        <ele>380.9</ele>
        <time>2022-04-15T11:48:40Z</time>
      </trkpt>
      <trkpt lat="45.56738" lon="5.79537">
        <ele>380.9</ele>
        <time>2022-04-15T11:48:41Z</time>
      </trkpt>
      <trkpt lat="45.56738" lon="5.79537">
        <ele>380.9</ele>
        <time>2022-04-15T11:48:42Z</time>
      </trkpt>
      <trkpt lat="45.56738" lon="5.79537">
        <ele>380.9</ele>
        <time>2022-04-15T11:48:43Z</time>
      </trkpt>
      <trkpt lat="45.56738" lon="5.79537">
        <ele>380.9</ele>
        <time>2022-04-15T11:48:44Z</time>
      </trkpt>
      <trkpt lat="45.56738" lon="5.79537">
        <ele>380.9</ele>
        <time>2022-04-15T11:48:45Z</time>
      </trkpt>
      <trkpt lat="45.56738" lon="5.79537">
        <ele>380.9</ele>
        <time>2022-04-15T11:48:46Z</time>
      </trkpt>
      <trkpt lat="45.56738" lon="5.79537">
        <ele>380.9</ele>
        <time>2022-04-15T11:48:47Z</time>
      </trkpt>
      <trkpt lat="45.56738" lon="5.79537">
        <ele>380.9</ele>
        <time>2022-04-15T11:48:48Z</time>
      </trkpt>
      <trkpt lat="45.56738" lon="5.79537">
        <ele>380.9</ele>
        <time>2022-04-15T11:48:49Z</time>
      </trkpt>
      <trkpt lat="45.56738" lon="5.79537">
        <ele>380.9</ele>
        <time>2022-04-15T11:48:50Z</time>
      </trkpt>
      <trkpt lat="45.56738" lon="5.79537">
        <ele>380.9</ele>
        <time>2022-04-15T11:48:51Z</time>
      </trkpt>
      <trkpt lat="45.56738" lon="5.79537">
        <ele>380.9</ele>
        <time>2022-04-15T11:48:52Z</time>
      </trkpt>
      <trkpt lat="45.56738" lon="5.79537">
        <ele>380.9</ele>
        <time>2022-04-15T11:48:53Z</time>
      </trkpt>
      <trkpt lat="45.56738" lon="5.79537">
        <ele>380.9</ele>
        <time>2022-04-15T11:48:54Z</time>
      </trkpt>
      <trkpt lat="45.56738" lon="5.79537">
        <ele>380.9</ele>
        <time>2022-04-15T11:48:55Z</time>
      </trkpt>
      <trkpt lat="45.56738" lon="5.79537">
        <ele>380.9</ele>
        <time>2022-04-15T11:48:56Z</time>
      </trkpt>
      <trkpt lat="45.56738" lon="5.79537">
        <ele>380.9</ele>
        <time>2022-04-15T11:48:57Z</time>
      </trkpt>
      <trkpt lat="45.56738" lon="5.79537">
        <ele>380.9</ele>
        <time>2022-04-15T11:48:58Z</time>
      </trkpt>
      <trkpt lat="45.56738" lon="5.79537">
        <ele>380.9</ele>
        <time>2022-04-15T11:48:59Z</time>
      </trkpt>
      <trkpt lat="45.56738" lon="5.79537">
        <ele>380.9</ele>
        <time>2022-04-15T11:49:00Z</time>
      </trkpt>
      <trkpt lat="45.56738" lon="5.79537">
        <ele>380.9</ele>
        <time>2022-04-15T11:49:01Z</time>
      </trkpt>
      <trkpt lat="45.56738" lon="5.79537">
        <ele>380.9</ele>
        <time>2022-04-15T11:49:02Z</time>
      </trkpt>
      <trkpt lat="45.56738" lon="5.79537">
        <ele>380.9</ele>
        <time>2022-04-15T11:49:03Z</time>
      </trkpt>
      <trkpt lat="45.56738" lon="5.79537">
        <ele>380.9</ele>
        <time>2022-04-15T11:49:04Z</time>
      </trkpt>
      <trkpt lat="45.56738" lon="5.79537">
        <ele>380.9</ele>
        <time>2022-04-15T11:49:05Z</time>
      </trkpt>
      <trkpt lat="45.56738" lon="5.79537">
        <ele>380.9</ele>
        <time>2022-04-15T11:49:06Z</time>
      </trkpt>
      <trkpt lat="45.56738" lon="5.79537">
        <ele>380.9</ele>
        <time>2022-04-15T11:49:07Z</time>
      </trkpt>
      <trkpt lat="45.56738" lon="5.79537">
        <ele>380.9</ele>
        <time>2022-04-15T11:49:08Z</time>
      </trkpt>
      <trkpt lat="45.56738" lon="5.79537">
        <ele>380.9</ele>
        <time>2022-04-15T11:49:09Z</time>
      </trkpt>
      <trkpt lat="45.56738" lon="5.79537">
        <ele>380.9</ele>
        <time>2022-04-15T11:49:10Z</time>
      </trkpt>
      <trkpt lat="45.56738" lon="5.79537">
        <ele>380.9</ele>
        <time>2022-04-15T11:49:11Z</time>
      </trkpt>
      <trkpt lat="45.56738" lon="5.79537">
        <ele>380.9</ele>
        <time>2022-04-15T11:49:12Z</time>
      </trkpt>
      <trkpt lat="45.56738" lon="5.79537">
        <ele>380.9</ele>
        <time>2022-04-15T11:49:13Z</time>
      </trkpt>
      <trkpt lat="45.56738" lon="5.79537">
        <ele>380.9</ele>
        <time>2022-04-15T11:49:14Z</time>
      </trkpt>
      <trkpt lat="45.56738" lon="5.79537">
        <ele>380.9</ele>
        <time>2022-04-15T11:49:15Z</time>
      </trkpt>
      <trkpt lat="45.56738" lon="5.79537">
        <ele>380.9</ele>
        <time>2022-04-15T11:49:16Z</time>
      </trkpt>
      <trkpt lat="45.56738" lon="5.79537">
        <ele>380.9</ele>
        <time>2022-04-15T11:49:17Z</time>
      </trkpt>
      <trkpt lat="45.56738" lon="5.79537">
        <ele>380.9</ele>
        <time>2022-04-15T11:49:18Z</time>
      </trkpt>
      <trkpt lat="45.56738" lon="5.79537">
        <ele>380.9</ele>
        <time>2022-04-15T11:49:19Z</time>
      </trkpt>
      <trkpt lat="45.56738" lon="5.79537">
        <ele>380.9</ele>
        <time>2022-04-15T11:49:20Z</time>
      </trkpt>
      <trkpt lat="45.56738" lon="5.79537">
        <ele>380.9</ele>
        <time>2022-04-15T11:49:21Z</time>
      </trkpt>
      <trkpt lat="45.56738" lon="5.79537">
        <ele>380.9</ele>
        <time>2022-04-15T11:49:22Z</time>
      </trkpt>
      <trkpt lat="45.56738" lon="5.79537">
        <ele>380.9</ele>
        <time>2022-04-15T11:49:23Z</time>
      </trkpt>
      <trkpt lat="45.56738" lon="5.79537">
        <ele>380.9</ele>
        <time>2022-04-15T11:49:24Z</time>
      </trkpt>
      <trkpt lat="45.56738" lon="5.79537">
        <ele>380.9</ele>
        <time>2022-04-15T11:49:25Z</time>
      </trkpt>
      <trkpt lat="45.56738" lon="5.79537">
        <ele>380.9</ele>
        <time>2022-04-15T11:49:26Z</time>
      </trkpt>
      <trkpt lat="45.56738" lon="5.79537">
        <ele>380.9</ele>
        <time>2022-04-15T11:49:27Z</time>
      </trkpt>
      <trkpt lat="45.56738" lon="5.79537">
        <ele>380.9</ele>
        <time>2022-04-15T11:49:28Z</time>
      </trkpt>
      <trkpt lat="45.56738" lon="5.79537">
        <ele>380.9</ele>
        <time>2022-04-15T11:49:29Z</time>
      </trkpt>
      <trkpt lat="45.56738" lon="5.79537">
        <ele>380.9</ele>
        <time>2022-04-15T11:49:30Z</time>
      </trkpt>
      <trkpt lat="45.56738" lon="5.79537">
        <ele>380.9</ele>
        <time>2022-04-15T11:49:31Z</time>
      </trkpt>
      <trkpt lat="45.56738" lon="5.79537">
        <ele>380.9</ele>
        <time>2022-04-15T11:49:32Z</time>
      </trkpt>
      <trkpt lat="45.56738" lon="5.79537">
        <ele>380.9</ele>
        <time>2022-04-15T11:49:33Z</time>
      </trkpt>
      <trkpt lat="45.56738" lon="5.79537">
        <ele>380.9</ele>
        <time>2022-04-15T11:49:34Z</time>
      </trkpt>
      <trkpt lat="45.56738" lon="5.79537">
        <ele>380.9</ele>
        <time>2022-04-15T11:49:35Z</time>
      </trkpt>
      <trkpt lat="45.56738" lon="5.79537">
        <ele>380.9</ele>
        <time>2022-04-15T11:49:36Z</time>
      </trkpt>
      <trkpt lat="45.56738" lon="5.79537">
        <ele>380.9</ele>
        <time>2022-04-15T11:49:37Z</time>
      </trkpt>
      <trkpt lat="45.56738" lon="5.79537">
        <ele>380.9</ele>
        <time>2022-04-15T11:49:38Z</time>
      </trkpt>
      <trkpt lat="45.56738" lon="5.79537">
        <ele>380.9</ele>
        <time>2022-04-15T11:49:39Z</time>
      </trkpt>
      <trkpt lat="45.56738" lon="5.79537">
        <ele>380.9</ele>
        <time>2022-04-15T11:49:40Z</time>
      </trkpt>
      <trkpt lat="45.56738" lon="5.79537">
        <ele>380.9</ele>
        <time>2022-04-15T11:49:41Z</time>
      </trkpt>
      <trkpt lat="45.56738" lon="5.79537">
        <ele>380.9</ele>
        <time>2022-04-15T11:49:42Z</time>
      </trkpt>
      <trkpt lat="45.56738" lon="5.79537">
        <ele>380.9</ele>
        <time>2022-04-15T11:49:43Z</time>
      </trkpt>
      <trkpt lat="45.56738" lon="5.79537">
        <ele>380.9</ele>
        <time>2022-04-15T11:49:44Z</time>
      </trkpt>
      <trkpt lat="45.56738" lon="5.79537">
        <ele>380.9</ele>
        <time>2022-04-15T11:49:45Z</time>
      </trkpt>
      <trkpt lat="45.56738" lon="5.79537">
        <ele>380.9</ele>
        <time>2022-04-15T11:49:46Z</time>
      </trkpt>
      <trkpt lat="45.56738" lon="5.79537">
        <ele>380.9</ele>
        <time>2022-04-15T11:49:47Z</time>
      </trkpt>
      <trkpt lat="45.56738" lon="5.79537">
        <ele>380.9</ele>
        <time>2022-04-15T11:49:48Z</time>
      </trkpt>
      <trkpt lat="45.56738" lon="5.79537">
        <ele>380.9</ele>
        <time>2022-04-15T11:49:49Z</time>
      </trkpt>
      <trkpt lat="45.56738" lon="5.79537">
        <ele>380.9</ele>
        <time>2022-04-15T11:49:50Z</time>
      </trkpt>
      <trkpt lat="45.56738" lon="5.79537">
        <ele>380.9</ele>
        <time>2022-04-15T11:49:51Z</time>
      </trkpt>
      <trkpt lat="45.56738" lon="5.79537">
        <ele>380.9</ele>
        <time>2022-04-15T11:49:52Z</time>
      </trkpt>
      <trkpt lat="45.56738" lon="5.79537">
        <ele>380.9</ele>
        <time>2022-04-15T11:49:53Z</time>
      </trkpt>
      <trkpt lat="45.56738" lon="5.79537">
        <ele>380.9</ele>
        <time>2022-04-15T11:49:54Z</time>
      </trkpt>
      <trkpt lat="45.56738" lon="5.79537">
        <ele>380.9</ele>
        <time>2022-04-15T11:49:55Z</time>
      </trkpt>
      <trkpt lat="45.56738" lon="5.79537">
        <ele>380.9</ele>
        <time>2022-04-15T11:49:56Z</time>
      </trkpt>
      <trkpt lat="45.56738" lon="5.79537">
        <ele>380.9</ele>
        <time>2022-04-15T11:49:57Z</time>
      </trkpt>
      <trkpt lat="45.56738" lon="5.79537">
        <ele>380.9</ele>
        <time>2022-04-15T11:49:58Z</time>
      </trkpt>
      <trkpt lat="45.56738" lon="5.79537">
        <ele>380.9</ele>
        <time>2022-04-15T11:49:59Z</time>
      </trkpt>
      <trkpt lat="45.56738" lon="5.79537">
        <ele>380.9</ele>
        <time>2022-04-15T11:50:00Z</time>
      </trkpt>
      <trkpt lat="45.56738" lon="5.79537">
        <ele>380.9</ele>
        <time>2022-04-15T11:50:01Z</time>
      </trkpt>
      <trkpt lat="45.56738" lon="5.79537">
        <ele>380.9</ele>
        <time>2022-04-15T11:50:02Z</time>
      </trkpt>
      <trkpt lat="45.56738" lon="5.79537">
        <ele>380.9</ele>
        <time>2022-04-15T11:50:03Z</time>
      </trkpt>
      <trkpt lat="45.56738" lon="5.79537">
        <ele>380.9</ele>
        <time>2022-04-15T11:50:04Z</time>
      </trkpt>
      <trkpt lat="45.56738" lon="5.79537">
        <ele>380.9</ele>
        <time>2022-04-15T11:50:05Z</time>
      </trkpt>
      <trkpt lat="45.56738" lon="5.79537">
        <ele>380.9</ele>
        <time>2022-04-15T11:50:06Z</time>
      </trkpt>
      <trkpt lat="45.56738" lon="5.79537">
        <ele>380.9</ele>
        <time>2022-04-15T11:50:07Z</time>
      </trkpt>
      <trkpt lat="45.56738" lon="5.79537">
        <ele>380.9</ele>
        <time>2022-04-15T11:50:08Z</time>
      </trkpt>
      <trkpt lat="45.56738" lon="5.79537">
        <ele>380.9</ele>
        <time>2022-04-15T11:50:09Z</time>
      </trkpt>
      <trkpt lat="45.56738" lon="5.79537">
        <ele>380.9</ele>
        <time>2022-04-15T11:50:10Z</time>
      </trkpt>
      <trkpt lat="45.56738" lon="5.79537">
        <ele>380.9</ele>
        <time>2022-04-15T11:50:11Z</time>
      </trkpt>
      <trkpt lat="45.56738" lon="5.79537">
        <ele>380.9</ele>
        <time>2022-04-15T11:50:12Z</time>
      </trkpt>
      <trkpt lat="45.56738" lon="5.79537">
        <ele>380.9</ele>
        <time>2022-04-15T11:50:13Z</time>
      </trkpt>
      <trkpt lat="45.56738" lon="5.79537">
        <ele>380.9</ele>
        <time>2022-04-15T11:50:14Z</time>
      </trkpt>
      <trkpt lat="45.56738" lon="5.79537">
        <ele>380.9</ele>
        <time>2022-04-15T11:50:15Z</time>
      </trkpt>
      <trkpt lat="45.56738" lon="5.79537">
        <ele>380.9</ele>
        <time>2022-04-15T11:50:16Z</time>
      </trkpt>
      <trkpt lat="45.56738" lon="5.79537">
        <ele>380.9</ele>
        <time>2022-04-15T11:50:17Z</time>
      </trkpt>
      <trkpt lat="45.56738" lon="5.79537">
        <ele>380.9</ele>
        <time>2022-04-15T11:50:18Z</time>
      </trkpt>
      <trkpt lat="45.56738" lon="5.79537">
        <ele>380.9</ele>
        <time>2022-04-15T11:50:19Z</time>
      </trkpt>
      <trkpt lat="45.56738" lon="5.79537">
        <ele>380.9</ele>
        <time>2022-04-15T11:50:20Z</time>
      </trkpt>
      <trkpt lat="45.56738" lon="5.79537">
        <ele>380.9</ele>
        <time>2022-04-15T11:50:21Z</time>
      </trkpt>
      <trkpt lat="45.56738" lon="5.79537">
        <ele>380.9</ele>
        <time>2022-04-15T11:50:22Z</time>
      </trkpt>
      <trkpt lat="45.56738" lon="5.79537">
        <ele>380.9</ele>
        <time>2022-04-15T11:50:23Z</time>
      </trkpt>
      <trkpt lat="45.56738" lon="5.79537">
        <ele>380.9</ele>
        <time>2022-04-15T11:50:24Z</time>
      </trkpt>
      <trkpt lat="45.56738" lon="5.79537">
        <ele>380.9</ele>
        <time>2022-04-15T11:50:25Z</time>
      </trkpt>
      <trkpt lat="45.56738" lon="5.79537">
        <ele>380.9</ele>
        <time>2022-04-15T11:50:26Z</time>
      </trkpt>
      <trkpt lat="45.56738" lon="5.79537">
        <ele>380.9</ele>
        <time>2022-04-15T11:50:27Z</time>
      </trkpt>
      <trkpt lat="45.56738" lon="5.79537">
        <ele>380.9</ele>
        <time>2022-04-15T11:50:28Z</time>
      </trkpt>
      <trkpt lat="45.56738" lon="5.79537">
        <ele>380.9</ele>
        <time>2022-04-15T11:50:29Z</time>
      </trkpt>
      <trkpt lat="45.56738" lon="5.79537">
        <ele>380.9</ele>
        <time>2022-04-15T11:50:30Z</time>
      </trkpt>
      <trkpt lat="45.56738" lon="5.79537">
        <ele>380.9</ele>
        <time>2022-04-15T11:50:31Z</time>
      </trkpt>
      <trkpt lat="45.56738" lon="5.79537">
        <ele>380.9</ele>
        <time>2022-04-15T11:50:32Z</time>
      </trkpt>
      <trkpt lat="45.56738" lon="5.79537">
        <ele>380.9</ele>
        <time>2022-04-15T11:50:33Z</time>
      </trkpt>
      <trkpt lat="45.56738" lon="5.79537">
        <ele>380.9</ele>
        <time>2022-04-15T11:50:34Z</time>
      </trkpt>
      <trkpt lat="45.56738" lon="5.79537">
        <ele>380.9</ele>
        <time>2022-04-15T11:50:35Z</time>
      </trkpt>
      <trkpt lat="45.56738" lon="5.79537">
        <ele>380.9</ele>
        <time>2022-04-15T11:50:36Z</time>
      </trkpt>
      <trkpt lat="45.56738" lon="5.79537">
        <ele>380.9</ele>
        <time>2022-04-15T11:50:37Z</time>
      </trkpt>
      <trkpt lat="45.56738" lon="5.79537">
        <ele>380.9</ele>
        <time>2022-04-15T11:50:38Z</time>
      </trkpt>
      <trkpt lat="45.56738" lon="5.79537">
        <ele>380.9</ele>
        <time>2022-04-15T11:50:39Z</time>
      </trkpt>
      <trkpt lat="45.56738" lon="5.79537">
        <ele>380.9</ele>
        <time>2022-04-15T11:50:40Z</time>
      </trkpt>
      <trkpt lat="45.56738" lon="5.79537">
        <ele>380.9</ele>
        <time>2022-04-15T11:50:41Z</time>
      </trkpt>
      <trkpt lat="45.56738" lon="5.79537">
        <ele>380.9</ele>
        <time>2022-04-15T11:50:42Z</time>
      </trkpt>
      <trkpt lat="45.56738" lon="5.79537">
        <ele>380.9</ele>
        <time>2022-04-15T11:50:43Z</time>
      </trkpt>
      <trkpt lat="45.56738" lon="5.79537">
        <ele>380.9</ele>
        <time>2022-04-15T11:50:44Z</time>
      </trkpt>
      <trkpt lat="45.56738" lon="5.79537">
        <ele>380.9</ele>
        <time>2022-04-15T11:50:45Z</time>
      </trkpt>
      <trkpt lat="45.56738" lon="5.79537">
        <ele>380.9</ele>
        <time>2022-04-15T11:50:46Z</time>
      </trkpt>
      <trkpt lat="45.56738" lon="5.79537">
        <ele>380.9</ele>
        <time>2022-04-15T11:50:47Z</time>
      </trkpt>
      <trkpt lat="45.56738" lon="5.79537">
        <ele>380.9</ele>
        <time>2022-04-15T11:50:48Z</time>
      </trkpt>
      <trkpt lat="45.56738" lon="5.79537">
        <ele>380.9</ele>
        <time>2022-04-15T11:50:49Z</time>
      </trkpt>
      <trkpt lat="45.56738" lon="5.79537">
        <ele>380.9</ele>
        <time>2022-04-15T11:50:50Z</time>
      </trkpt>
      <trkpt lat="45.56738" lon="5.79537">
        <ele>380.9</ele>
        <time>2022-04-15T11:50:51Z</time>
      </trkpt>
      <trkpt lat="45.56738" lon="5.79537">
        <ele>380.9</ele>
        <time>2022-04-15T11:50:52Z</time>
      </trkpt>
      <trkpt lat="45.56738" lon="5.79537">
        <ele>380.9</ele>
        <time>2022-04-15T11:50:53Z</time>
      </trkpt>
      <trkpt lat="45.56738" lon="5.79537">
        <ele>380.9</ele>
        <time>2022-04-15T11:50:54Z</time>
      </trkpt>
      <trkpt lat="45.56738" lon="5.79537">
        <ele>380.9</ele>
        <time>2022-04-15T11:50:55Z</time>
      </trkpt>
      <trkpt lat="45.56738" lon="5.79537">
        <ele>380.9</ele>
        <time>2022-04-15T11:50:56Z</time>
      </trkpt>
      <trkpt lat="45.56738" lon="5.79537">
        <ele>380.9</ele>
        <time>2022-04-15T11:50:57Z</time>
      </trkpt>
      <trkpt lat="45.56738" lon="5.79537">
        <ele>380.9</ele>
        <time>2022-04-15T11:50:58Z</time>
      </trkpt>
      <trkpt lat="45.56738" lon="5.79537">
        <ele>380.9</ele>
        <time>2022-04-15T11:50:59Z</time>
      </trkpt>
      <trkpt lat="45.56738" lon="5.79537">
        <ele>380.9</ele>
        <time>2022-04-15T11:51:00Z</time>
      </trkpt>
      <trkpt lat="45.56738" lon="5.79537">
        <ele>380.9</ele>
        <time>2022-04-15T11:51:01Z</time>
      </trkpt>
      <trkpt lat="45.56738" lon="5.79537">
        <ele>380.9</ele>
        <time>2022-04-15T11:51:02Z</time>
      </trkpt>
      <trkpt lat="45.56738" lon="5.79537">
        <ele>380.9</ele>
        <time>2022-04-15T11:51:03Z</time>
      </trkpt>
      <trkpt lat="45.56738" lon="5.79537">
        <ele>380.9</ele>
        <time>2022-04-15T11:51:04Z</time>
      </trkpt>
      <trkpt lat="45.56738" lon="5.79537">
        <ele>380.9</ele>
        <time>2022-04-15T11:51:05Z</time>
      </trkpt>
      <trkpt lat="45.56738" lon="5.79537">
        <ele>380.9</ele>
        <time>2022-04-15T11:51:06Z</time>
      </trkpt>
      <trkpt lat="45.56738" lon="5.79537">
        <ele>380.9</ele>
        <time>2022-04-15T11:51:07Z</time>
      </trkpt>
      <trkpt lat="45.56738" lon="5.79537">
        <ele>380.9</ele>
        <time>2022-04-15T11:51:08Z</time>
      </trkpt>
      <trkpt lat="45.56738" lon="5.79537">
        <ele>380.9</ele>
        <time>2022-04-15T11:51:09Z</time>
      </trkpt>
      <trkpt lat="45.56738" lon="5.79537">
        <ele>380.9</ele>
        <time>2022-04-15T11:51:10Z</time>
      </trkpt>
      <trkpt lat="45.56738" lon="5.79537">
        <ele>380.9</ele>
        <time>2022-04-15T11:51:11Z</time>
      </trkpt>
      <trkpt lat="45.56738" lon="5.79537">
        <ele>380.9</ele>
        <time>2022-04-15T11:51:12Z</time>
      </trkpt>
      <trkpt lat="45.56738" lon="5.79537">
        <ele>380.9</ele>
        <time>2022-04-15T11:51:13Z</time>
      </trkpt>
      <trkpt lat="45.56738" lon="5.79537">
        <ele>380.9</ele>
        <time>2022-04-15T11:51:14Z</time>
      </trkpt>
      <trkpt lat="45.56738" lon="5.79537">
        <ele>380.9</ele>
        <time>2022-04-15T11:51:15Z</time>
      </trkpt>
      <trkpt lat="45.56738" lon="5.79537">
        <ele>380.9</ele>
        <time>2022-04-15T11:51:16Z</time>
      </trkpt>
      <trkpt lat="45.56738" lon="5.79537">
        <ele>380.9</ele>
        <time>2022-04-15T11:51:17Z</time>
      </trkpt>
      <trkpt lat="45.56738" lon="5.79537">
        <ele>380.9</ele>
        <time>2022-04-15T11:51:18Z</time>
      </trkpt>
      <trkpt lat="45.56738" lon="5.79537">
        <ele>380.9</ele>
        <time>2022-04-15T11:51:19Z</time>
      </trkpt>
      <trkpt lat="45.56738" lon="5.79537">
        <ele>380.9</ele>
        <time>2022-04-15T11:51:20Z</time>
      </trkpt>
      <trkpt lat="45.56738" lon="5.79537">
        <ele>380.9</ele>
        <time>2022-04-15T11:51:21Z</time>
      </trkpt>
      <trkpt lat="45.56738" lon="5.79537">
        <ele>380.9</ele>
        <time>2022-04-15T11:51:22Z</time>
      </trkpt>
      <trkpt lat="45.56738" lon="5.79537">
        <ele>380.9</ele>
        <time>2022-04-15T11:51:23Z</time>
      </trkpt>
      <trkpt lat="45.56738" lon="5.79537">
        <ele>380.9</ele>
        <time>2022-04-15T11:51:24Z</time>
      </trkpt>
      <trkpt lat="45.56738" lon="5.79537">
        <ele>380.9</ele>
        <time>2022-04-15T11:51:25Z</time>
      </trkpt>
      <trkpt lat="45.56738" lon="5.79537">
        <ele>380.9</ele>
        <time>2022-04-15T11:51:26Z</time>
      </trkpt>
      <trkpt lat="45.56738" lon="5.79537">
        <ele>380.9</ele>
        <time>2022-04-15T11:51:27Z</time>
      </trkpt>
      <trkpt lat="45.56738" lon="5.79537">
        <ele>380.9</ele>
        <time>2022-04-15T11:51:28Z</time>
      </trkpt>
      <trkpt lat="45.56738" lon="5.79537">
        <ele>380.9</ele>
        <time>2022-04-15T11:51:29Z</time>
      </trkpt>
      <trkpt lat="45.56738" lon="5.79537">
        <ele>380.9</ele>
        <time>2022-04-15T11:51:30Z</time>
      </trkpt>
      <trkpt lat="45.56738" lon="5.79537">
        <ele>380.9</ele>
        <time>2022-04-15T11:51:31Z</time>
      </trkpt>
      <trkpt lat="45.56738" lon="5.79537">
        <ele>380.9</ele>
        <time>2022-04-15T11:51:32Z</time>
      </trkpt>
      <trkpt lat="45.56738" lon="5.79537">
        <ele>380.9</ele>
        <time>2022-04-15T11:51:33Z</time>
      </trkpt>
      <trkpt lat="45.56738" lon="5.79537">
        <ele>380.9</ele>
        <time>2022-04-15T11:51:34Z</time>
      </trkpt>
      <trkpt lat="45.56738" lon="5.79537">
        <ele>380.9</ele>
        <time>2022-04-15T11:51:35Z</time>
      </trkpt>
      <trkpt lat="45.56738" lon="5.79537">
        <ele>380.9</ele>
        <time>2022-04-15T11:51:36Z</time>
      </trkpt>
      <trkpt lat="45.56738" lon="5.79537">
        <ele>380.9</ele>
        <time>2022-04-15T11:51:37Z</time>
      </trkpt>
      <trkpt lat="45.56738" lon="5.79537">
        <ele>380.9</ele>
        <time>2022-04-15T11:51:38Z</time>
      </trkpt>
      <trkpt lat="45.56738" lon="5.79537">
        <ele>380.9</ele>
        <time>2022-04-15T11:51:39Z</time>
      </trkpt>
      <trkpt lat="45.56738" lon="5.79537">
        <ele>380.9</ele>
        <time>2022-04-15T11:51:40Z</time>
      </trkpt>
      <trkpt lat="45.56738" lon="5.79537">
        <ele>380.9</ele>
        <time>2022-04-15T11:51:41Z</time>
      </trkpt>
      <trkpt lat="45.56738" lon="5.79537">
        <ele>380.9</ele>
        <time>2022-04-15T11:51:42Z</time>
      </trkpt>
      <trkpt lat="45.56738" lon="5.79537">
        <ele>380.9</ele>
        <time>2022-04-15T11:51:43Z</time>
      </trkpt>
      <trkpt lat="45.56738" lon="5.79537">
        <ele>380.9</ele>
        <time>2022-04-15T11:51:44Z</time>
      </trkpt>
      <trkpt lat="45.56738" lon="5.79537">
        <ele>380.9</ele>
        <time>2022-04-15T11:51:45Z</time>
      </trkpt>
      <trkpt lat="45.56738" lon="5.79537">
        <ele>380.9</ele>
        <time>2022-04-15T11:51:46Z</time>
      </trkpt>
      <trkpt lat="45.56738" lon="5.79537">
        <ele>380.9</ele>
        <time>2022-04-15T11:51:47Z</time>
      </trkpt>
      <trkpt lat="45.56738" lon="5.79537">
        <ele>380.9</ele>
        <time>2022-04-15T11:51:48Z</time>
      </trkpt>
      <trkpt lat="45.56738" lon="5.79537">
        <ele>380.9</ele>
        <time>2022-04-15T11:51:49Z</time>
      </trkpt>
      <trkpt lat="45.56738" lon="5.79537">
        <ele>380.9</ele>
        <time>2022-04-15T11:51:50Z</time>
      </trkpt>
      <trkpt lat="45.56738" lon="5.79537">
        <ele>380.9</ele>
        <time>2022-04-15T11:51:51Z</time>
      </trkpt>
      <trkpt lat="45.56738" lon="5.79537">
        <ele>380.9</ele>
        <time>2022-04-15T11:51:52Z</time>
      </trkpt>
      <trkpt lat="45.56738" lon="5.79537">
        <ele>380.9</ele>
        <time>2022-04-15T11:51:53Z</time>
      </trkpt>
      <trkpt lat="45.56738" lon="5.79537">
        <ele>380.9</ele>
        <time>2022-04-15T11:51:54Z</time>
      </trkpt>
      <trkpt lat="45.56738" lon="5.79537">
        <ele>380.9</ele>
        <time>2022-04-15T11:51:55Z</time>
      </trkpt>
      <trkpt lat="45.56738" lon="5.79537">
        <ele>380.9</ele>
        <time>2022-04-15T11:51:56Z</time>
      </trkpt>
      <trkpt lat="45.56738" lon="5.79537">
        <ele>380.9</ele>
        <time>2022-04-15T11:51:57Z</time>
      </trkpt>
      <trkpt lat="45.56738" lon="5.79537">
        <ele>380.9</ele>
        <time>2022-04-15T11:51:58Z</time>
      </trkpt>
      <trkpt lat="45.56738" lon="5.79537">
        <ele>380.9</ele>
        <time>2022-04-15T11:51:59Z</time>
      </trkpt>
      <trkpt lat="45.56738" lon="5.79537">
        <ele>380.9</ele>
        <time>2022-04-15T11:52:00Z</time>
      </trkpt>
      <trkpt lat="45.56738" lon="5.79537">
        <ele>380.9</ele>
        <time>2022-04-15T11:52:01Z</time>
      </trkpt>
      <trkpt lat="45.56738" lon="5.79537">
        <ele>380.9</ele>
        <time>2022-04-15T11:52:02Z</time>
      </trkpt>
      <trkpt lat="45.56738" lon="5.79537">
        <ele>380.9</ele>
        <time>2022-04-15T11:52:03Z</time>
      </trkpt>
      <trkpt lat="45.56738" lon="5.79537">
        <ele>380.9</ele>
        <time>2022-04-15T11:52:04Z</time>
      </trkpt>
      <trkpt lat="45.56738" lon="5.79537">
        <ele>380.9</ele>
        <time>2022-04-15T11:52:05Z</time>
      </trkpt>
      <trkpt lat="45.56738" lon="5.79537">
        <ele>380.9</ele>
        <time>2022-04-15T11:52:06Z</time>
      </trkpt>
      <trkpt lat="45.56738" lon="5.79537">
        <ele>380.9</ele>
        <time>2022-04-15T11:52:07Z</time>
      </trkpt>
      <trkpt lat="45.56738" lon="5.79537">
        <ele>380.9</ele>
        <time>2022-04-15T11:52:08Z</time>
      </trkpt>
      <trkpt lat="45.56738" lon="5.79537">
        <ele>380.9</ele>
        <time>2022-04-15T11:52:09Z</time>
      </trkpt>
      <trkpt lat="45.56738" lon="5.79537">
        <ele>380.9</ele>
        <time>2022-04-15T11:52:10Z</time>
      </trkpt>
      <trkpt lat="45.56738" lon="5.79537">
        <ele>380.9</ele>
        <time>2022-04-15T11:52:11Z</time>
      </trkpt>
      <trkpt lat="45.56738" lon="5.79537">
        <ele>380.9</ele>
        <time>2022-04-15T11:52:12Z</time>
      </trkpt>
      <trkpt lat="45.56738" lon="5.79537">
        <ele>380.9</ele>
        <time>2022-04-15T11:52:13Z</time>
      </trkpt>
      <trkpt lat="45.56738" lon="5.79537">
        <ele>380.9</ele>
        <time>2022-04-15T11:52:14Z</time>
      </trkpt>
      <trkpt lat="45.56738" lon="5.79537">
        <ele>380.9</ele>
        <time>2022-04-15T11:52:15Z</time>
      </trkpt>
      <trkpt lat="45.56738" lon="5.79537">
        <ele>380.9</ele>
        <time>2022-04-15T11:52:16Z</time>
      </trkpt>
      <trkpt lat="45.56738" lon="5.79537">
        <ele>380.9</ele>
        <time>2022-04-15T11:52:17Z</time>
      </trkpt>
      <trkpt lat="45.56738" lon="5.79537">
        <ele>380.9</ele>
        <time>2022-04-15T11:52:18Z</time>
      </trkpt>
      <trkpt lat="45.56738" lon="5.79537">
        <ele>380.9</ele>
        <time>2022-04-15T11:52:19Z</time>
      </trkpt>
      <trkpt lat="45.56738" lon="5.79537">
        <ele>380.9</ele>
        <time>2022-04-15T11:52:20Z</time>
      </trkpt>
      <trkpt lat="45.56738" lon="5.79537">
        <ele>380.9</ele>
        <time>2022-04-15T11:52:21Z</time>
      </trkpt>
      <trkpt lat="45.56738" lon="5.79537">
        <ele>380.9</ele>
        <time>2022-04-15T11:52:22Z</time>
      </trkpt>
      <trkpt lat="45.56738" lon="5.79537">
        <ele>380.9</ele>
        <time>2022-04-15T11:52:23Z</time>
      </trkpt>
      <trkpt lat="45.56738" lon="5.79537">
        <ele>380.9</ele>
        <time>2022-04-15T11:52:24Z</time>
      </trkpt>
      <trkpt lat="45.56738" lon="5.79537">
        <ele>380.9</ele>
        <time>2022-04-15T11:52:25Z</time>
      </trkpt>
      <trkpt lat="45.56738" lon="5.79537">
        <ele>380.9</ele>
        <time>2022-04-15T11:52:26Z</time>
      </trkpt>
      <trkpt lat="45.56738" lon="5.79537">
        <ele>380.9</ele>
        <time>2022-04-15T11:52:27Z</time>
      </trkpt>
      <trkpt lat="45.56738" lon="5.79537">
        <ele>380.9</ele>
        <time>2022-04-15T11:52:28Z</time>
      </trkpt>
      <trkpt lat="45.56738" lon="5.79537">
        <ele>380.9</ele>
        <time>2022-04-15T11:52:29Z</time>
      </trkpt>
      <trkpt lat="45.56738" lon="5.79537">
        <ele>380.9</ele>
        <time>2022-04-15T11:52:30Z</time>
      </trkpt>
      <trkpt lat="45.56738" lon="5.79537">
        <ele>380.9</ele>
        <time>2022-04-15T11:52:31Z</time>
      </trkpt>
      <trkpt lat="45.56738" lon="5.79537">
        <ele>380.9</ele>
        <time>2022-04-15T11:52:32Z</time>
      </trkpt>
      <trkpt lat="45.56738" lon="5.79537">
        <ele>380.9</ele>
        <time>2022-04-15T11:52:33Z</time>
      </trkpt>
      <trkpt lat="45.56738" lon="5.79537">
        <ele>380.9</ele>
        <time>2022-04-15T11:52:34Z</time>
      </trkpt>
      <trkpt lat="45.56738" lon="5.79537">
        <ele>380.9</ele>
        <time>2022-04-15T11:52:35Z</time>
      </trkpt>
      <trkpt lat="45.56738" lon="5.79537">
        <ele>380.9</ele>
        <time>2022-04-15T11:52:36Z</time>
      </trkpt>
      <trkpt lat="45.56738" lon="5.79537">
        <ele>380.9</ele>
        <time>2022-04-15T11:52:37Z</time>
      </trkpt>
      <trkpt lat="45.56738" lon="5.79537">
        <ele>380.9</ele>
        <time>2022-04-15T11:52:38Z</time>
      </trkpt>
      <trkpt lat="45.56738" lon="5.79537">
        <ele>380.9</ele>
        <time>2022-04-15T11:52:39Z</time>
      </trkpt>
      <trkpt lat="45.56738" lon="5.79537">
        <ele>380.9</ele>
        <time>2022-04-15T11:52:40Z</time>
      </trkpt>
      <trkpt lat="45.56738" lon="5.79537">
        <ele>380.9</ele>
        <time>2022-04-15T11:52:41Z</time>
      </trkpt>
      <trkpt lat="45.56738" lon="5.79537">
        <ele>380.9</ele>
        <time>2022-04-15T11:52:42Z</time>
      </trkpt>
      <trkpt lat="45.56738" lon="5.79537">
        <ele>380.9</ele>
        <time>2022-04-15T11:52:43Z</time>
      </trkpt>
      <trkpt lat="45.56738" lon="5.79537">
        <ele>380.9</ele>
        <time>2022-04-15T11:52:44Z</time>
      </trkpt>
      <trkpt lat="45.56738" lon="5.79537">
        <ele>380.9</ele>
        <time>2022-04-15T11:52:45Z</time>
      </trkpt>
      <trkpt lat="45.56738" lon="5.79537">
        <ele>380.9</ele>
        <time>2022-04-15T11:52:46Z</time>
      </trkpt>
      <trkpt lat="45.56738" lon="5.79537">
        <ele>380.9</ele>
        <time>2022-04-15T11:52:47Z</time>
      </trkpt>
      <trkpt lat="45.56738" lon="5.79537">
        <ele>380.9</ele>
        <time>2022-04-15T11:52:48Z</time>
      </trkpt>
      <trkpt lat="45.56738" lon="5.79537">
        <ele>380.9</ele>
        <time>2022-04-15T11:52:49Z</time>
      </trkpt>
      <trkpt lat="45.56738" lon="5.79537">
        <ele>380.9</ele>
        <time>2022-04-15T11:52:50Z</time>
      </trkpt>
      <trkpt lat="45.56738" lon="5.79537">
        <ele>380.9</ele>
        <time>2022-04-15T11:52:51Z</time>
      </trkpt>
      <trkpt lat="45.56738" lon="5.79537">
        <ele>380.9</ele>
        <time>2022-04-15T11:52:52Z</time>
      </trkpt>
      <trkpt lat="45.56738" lon="5.79537">
        <ele>380.9</ele>
        <time>2022-04-15T11:52:53Z</time>
      </trkpt>
      <trkpt lat="45.56738" lon="5.79537">
        <ele>380.9</ele>
        <time>2022-04-15T11:52:54Z</time>
      </trkpt>
      <trkpt lat="45.56738" lon="5.79537">
        <ele>380.9</ele>
        <time>2022-04-15T11:52:55Z</time>
      </trkpt>
      <trkpt lat="45.56738" lon="5.79537">
        <ele>380.9</ele>
        <time>2022-04-15T11:52:56Z</time>
      </trkpt>
      <trkpt lat="45.56738" lon="5.79537">
        <ele>380.9</ele>
        <time>2022-04-15T11:52:57Z</time>
      </trkpt>
      <trkpt lat="45.56738" lon="5.79537">
        <ele>380.9</ele>
        <time>2022-04-15T11:52:58Z</time>
      </trkpt>
      <trkpt lat="45.56738" lon="5.79537">
        <ele>380.9</ele>
        <time>2022-04-15T11:52:59Z</time>
      </trkpt>
      <trkpt lat="45.56738" lon="5.79537">
        <ele>380.9</ele>
        <time>2022-04-15T11:53:00Z</time>
      </trkpt>
      <trkpt lat="45.56738" lon="5.79537">
        <ele>380.9</ele>
        <time>2022-04-15T11:53:01Z</time>
      </trkpt>
      <trkpt lat="45.56738" lon="5.79537">
        <ele>380.9</ele>
        <time>2022-04-15T11:53:02Z</time>
      </trkpt>
      <trkpt lat="45.56738" lon="5.79537">
        <ele>380.9</ele>
        <time>2022-04-15T11:53:03Z</time>
      </trkpt>
      <trkpt lat="45.56738" lon="5.79537">
        <ele>380.9</ele>
        <time>2022-04-15T11:53:04Z</time>
      </trkpt>
      <trkpt lat="45.56738" lon="5.79537">
        <ele>380.9</ele>
        <time>2022-04-15T11:53:05Z</time>
      </trkpt>
      <trkpt lat="45.56738" lon="5.79537">
        <ele>380.9</ele>
        <time>2022-04-15T11:53:06Z</time>
      </trkpt>
      <trkpt lat="45.56738" lon="5.79537">
        <ele>380.9</ele>
        <time>2022-04-15T11:53:07Z</time>
      </trkpt>
      <trkpt lat="45.56738" lon="5.79537">
        <ele>380.9</ele>
        <time>2022-04-15T11:53:08Z</time>
      </trkpt>
      <trkpt lat="45.56738" lon="5.79537">
        <ele>380.9</ele>
        <time>2022-04-15T11:53:09Z</time>
      </trkpt>
      <trkpt lat="45.56738" lon="5.79537">
        <ele>380.9</ele>
        <time>2022-04-15T11:53:10Z</time>
      </trkpt>
      <trkpt lat="45.56738" lon="5.79537">
        <ele>380.9</ele>
        <time>2022-04-15T11:53:11Z</time>
      </trkpt>
      <trkpt lat="45.56738" lon="5.79537">
        <ele>380.9</ele>
        <time>2022-04-15T11:53:12Z</time>
      </trkpt>
      <trkpt lat="45.56738" lon="5.79537">
        <ele>380.9</ele>
        <time>2022-04-15T11:53:13Z</time>
      </trkpt>
      <trkpt lat="45.56738" lon="5.79537">
        <ele>380.9</ele>
        <time>2022-04-15T11:53:14Z</time>
      </trkpt>
      <trkpt lat="45.56738" lon="5.79537">
        <ele>380.9</ele>
        <time>2022-04-15T11:53:15Z</time>
      </trkpt>
      <trkpt lat="45.56738" lon="5.79537">
        <ele>380.9</ele>
        <time>2022-04-15T11:53:16Z</time>
      </trkpt>
      <trkpt lat="45.56738" lon="5.79537">
        <ele>380.9</ele>
        <time>2022-04-15T11:53:17Z</time>
      </trkpt>
      <trkpt lat="45.56738" lon="5.79537">
        <ele>380.9</ele>
        <time>2022-04-15T11:53:18Z</time>
      </trkpt>
      <trkpt lat="45.56738" lon="5.79537">
        <ele>380.9</ele>
        <time>2022-04-15T11:53:19Z</time>
      </trkpt>
      <trkpt lat="45.56738" lon="5.79537">
        <ele>380.9</ele>
        <time>2022-04-15T11:53:20Z</time>
      </trkpt>
      <trkpt lat="45.56738" lon="5.79537">
        <ele>380.9</ele>
        <time>2022-04-15T11:53:21Z</time>
      </trkpt>
      <trkpt lat="45.56738" lon="5.79537">
        <ele>380.9</ele>
        <time>2022-04-15T11:53:22Z</time>
      </trkpt>
      <trkpt lat="45.56738" lon="5.79537">
        <ele>380.9</ele>
        <time>2022-04-15T11:53:23Z</time>
      </trkpt>
      <trkpt lat="45.56738" lon="5.79537">
        <ele>380.9</ele>
        <time>2022-04-15T11:53:24Z</time>
      </trkpt>
      <trkpt lat="45.56738" lon="5.79537">
        <ele>380.9</ele>
        <time>2022-04-15T11:53:25Z</time>
      </trkpt>
      <trkpt lat="45.56738" lon="5.79537">
        <ele>380.9</ele>
        <time>2022-04-15T11:53:26Z</time>
      </trkpt>
      <trkpt lat="45.56738" lon="5.79537">
        <ele>380.9</ele>
        <time>2022-04-15T11:53:27Z</time>
      </trkpt>
      <trkpt lat="45.56738" lon="5.79537">
        <ele>380.9</ele>
        <time>2022-04-15T11:53:28Z</time>
      </trkpt>
      <trkpt lat="45.56738" lon="5.79537">
        <ele>380.9</ele>
        <time>2022-04-15T11:53:29Z</time>
      </trkpt>
      <trkpt lat="45.56738" lon="5.79537">
        <ele>380.9</ele>
        <time>2022-04-15T11:53:30Z</time>
      </trkpt>
      <trkpt lat="45.56738" lon="5.79537">
        <ele>380.9</ele>
        <time>2022-04-15T11:53:31Z</time>
      </trkpt>
      <trkpt lat="45.56738" lon="5.79537">
        <ele>380.9</ele>
        <time>2022-04-15T11:53:32Z</time>
      </trkpt>
      <trkpt lat="45.56738" lon="5.79537">
        <ele>380.9</ele>
        <time>2022-04-15T11:53:33Z</time>
      </trkpt>
      <trkpt lat="45.56738" lon="5.79537">
        <ele>380.9</ele>
        <time>2022-04-15T11:53:34Z</time>
      </trkpt>
      <trkpt lat="45.56738" lon="5.79537">
        <ele>380.9</ele>
        <time>2022-04-15T11:53:35Z</time>
      </trkpt>
      <trkpt lat="45.56738" lon="5.79537">
        <ele>380.9</ele>
        <time>2022-04-15T11:53:36Z</time>
      </trkpt>
      <trkpt lat="45.56738" lon="5.79537">
        <ele>380.9</ele>
        <time>2022-04-15T11:53:37Z</time>
      </trkpt>
      <trkpt lat="45.56738" lon="5.79537">
        <ele>380.9</ele>
        <time>2022-04-15T11:53:38Z</time>
      </trkpt>
      <trkpt lat="45.56738" lon="5.79537">
        <ele>380.9</ele>
        <time>2022-04-15T11:53:39Z</time>
      </trkpt>
      <trkpt lat="45.56738" lon="5.79537">
        <ele>380.9</ele>
        <time>2022-04-15T11:53:40Z</time>
      </trkpt>
      <trkpt lat="45.56738" lon="5.79537">
        <ele>380.9</ele>
        <time>2022-04-15T11:53:41Z</time>
      </trkpt>
      <trkpt lat="45.56738" lon="5.79537">
        <ele>380.9</ele>
        <time>2022-04-15T11:53:42Z</time>
      </trkpt>
      <trkpt lat="45.56738" lon="5.79537">
        <ele>380.9</ele>
        <time>2022-04-15T11:53:43Z</time>
      </trkpt>
      <trkpt lat="45.56738" lon="5.79537">
        <ele>380.9</ele>
        <time>2022-04-15T11:53:44Z</time>
      </trkpt>
      <trkpt lat="45.56738" lon="5.79537">
        <ele>380.9</ele>
        <time>2022-04-15T11:53:45Z</time>
      </trkpt>
      <trkpt lat="45.56738" lon="5.79537">
        <ele>380.9</ele>
        <time>2022-04-15T11:53:46Z</time>
      </trkpt>
      <trkpt lat="45.56738" lon="5.79537">
        <ele>380.9</ele>
        <time>2022-04-15T11:53:47Z</time>
      </trkpt>
      <trkpt lat="45.56738" lon="5.79537">
        <ele>380.9</ele>
        <time>2022-04-15T11:53:48Z</time>
      </trkpt>
      <trkpt lat="45.56738" lon="5.79537">
        <ele>380.9</ele>
        <time>2022-04-15T11:53:49Z</time>
      </trkpt>
      <trkpt lat="45.56738" lon="5.79537">
        <ele>380.9</ele>
        <time>2022-04-15T11:53:50Z</time>
      </trkpt>
      <trkpt lat="45.56738" lon="5.79537">
        <ele>380.9</ele>
        <time>2022-04-15T11:53:51Z</time>
      </trkpt>
      <trkpt lat="45.56738" lon="5.79537">
        <ele>380.9</ele>
        <time>2022-04-15T11:53:52Z</time>
      </trkpt>
      <trkpt lat="45.56738" lon="5.79537">
        <ele>380.9</ele>
        <time>2022-04-15T11:53:53Z</time>
      </trkpt>
      <trkpt lat="45.56738" lon="5.79537">
        <ele>380.9</ele>
        <time>2022-04-15T11:53:54Z</time>
      </trkpt>
      <trkpt lat="45.56738" lon="5.79537">
        <ele>380.9</ele>
        <time>2022-04-15T11:53:55Z</time>
      </trkpt>
      <trkpt lat="45.56738" lon="5.79537">
        <ele>380.9</ele>
        <time>2022-04-15T11:53:56Z</time>
      </trkpt>
      <trkpt lat="45.56738" lon="5.79537">
        <ele>380.9</ele>
        <time>2022-04-15T11:53:57Z</time>
      </trkpt>
      <trkpt lat="45.56738" lon="5.79537">
        <ele>380.9</ele>
        <time>2022-04-15T11:53:58Z</time>
      </trkpt>
      <trkpt lat="45.56738" lon="5.79537">
        <ele>380.9</ele>
        <time>2022-04-15T11:53:59Z</time>
      </trkpt>
      <trkpt lat="45.56738" lon="5.79537">
        <ele>380.9</ele>
        <time>2022-04-15T11:54:00Z</time>
      </trkpt>
      <trkpt lat="45.56738" lon="5.79537">
        <ele>380.9</ele>
        <time>2022-04-15T11:54:01Z</time>
      </trkpt>
      <trkpt lat="45.56738" lon="5.79537">
        <ele>380.9</ele>
        <time>2022-04-15T11:54:02Z</time>
      </trkpt>
      <trkpt lat="45.56738" lon="5.79537">
        <ele>380.9</ele>
        <time>2022-04-15T11:54:03Z</time>
      </trkpt>
      <trkpt lat="45.56738" lon="5.79537">
        <ele>380.9</ele>
        <time>2022-04-15T11:54:04Z</time>
      </trkpt>
      <trkpt lat="45.56738" lon="5.79537">
        <ele>380.9</ele>
        <time>2022-04-15T11:54:05Z</time>
      </trkpt>
      <trkpt lat="45.56738" lon="5.79537">
        <ele>380.9</ele>
        <time>2022-04-15T11:54:06Z</time>
      </trkpt>
      <trkpt lat="45.56738" lon="5.79537">
        <ele>380.9</ele>
        <time>2022-04-15T11:54:07Z</time>
      </trkpt>
      <trkpt lat="45.56738" lon="5.79537">
        <ele>380.9</ele>
        <time>2022-04-15T11:54:08Z</time>
      </trkpt>
      <trkpt lat="45.56738" lon="5.79537">
        <ele>380.9</ele>
        <time>2022-04-15T11:54:09Z</time>
      </trkpt>
      <trkpt lat="45.56738" lon="5.79537">
        <ele>380.9</ele>
        <time>2022-04-15T11:54:10Z</time>
      </trkpt>
      <trkpt lat="45.56738" lon="5.79537">
        <ele>380.9</ele>
        <time>2022-04-15T11:54:11Z</time>
      </trkpt>
      <trkpt lat="45.56738" lon="5.79537">
        <ele>380.9</ele>
        <time>2022-04-15T11:54:12Z</time>
      </trkpt>
      <trkpt lat="45.56738" lon="5.79537">
        <ele>380.9</ele>
        <time>2022-04-15T11:54:13Z</time>
      </trkpt>
      <trkpt lat="45.56738" lon="5.79537">
        <ele>380.9</ele>
        <time>2022-04-15T11:54:14Z</time>
      </trkpt>
      <trkpt lat="45.56738" lon="5.79537">
        <ele>380.9</ele>
        <time>2022-04-15T11:54:15Z</time>
      </trkpt>
      <trkpt lat="45.56738" lon="5.79537">
        <ele>380.9</ele>
        <time>2022-04-15T11:54:16Z</time>
      </trkpt>
      <trkpt lat="45.56738" lon="5.79537">
        <ele>380.9</ele>
        <time>2022-04-15T11:54:17Z</time>
      </trkpt>
      <trkpt lat="45.56738" lon="5.79537">
        <ele>380.9</ele>
        <time>2022-04-15T11:54:18Z</time>
      </trkpt>
      <trkpt lat="45.56738" lon="5.79537">
        <ele>380.9</ele>
        <time>2022-04-15T11:54:19Z</time>
      </trkpt>
      <trkpt lat="45.56738" lon="5.79537">
        <ele>380.9</ele>
        <time>2022-04-15T11:54:20Z</time>
      </trkpt>
      <trkpt lat="45.56738" lon="5.79537">
        <ele>380.9</ele>
        <time>2022-04-15T11:54:21Z</time>
      </trkpt>
      <trkpt lat="45.56738" lon="5.79537">
        <ele>380.9</ele>
        <time>2022-04-15T11:54:22Z</time>
      </trkpt>
      <trkpt lat="45.56738" lon="5.79537">
        <ele>380.9</ele>
        <time>2022-04-15T11:54:23Z</time>
      </trkpt>
      <trkpt lat="45.56738" lon="5.79537">
        <ele>380.9</ele>
        <time>2022-04-15T11:54:24Z</time>
      </trkpt>
      <trkpt lat="45.56738" lon="5.79537">
        <ele>380.9</ele>
        <time>2022-04-15T11:54:25Z</time>
      </trkpt>
      <trkpt lat="45.56738" lon="5.79537">
        <ele>380.9</ele>
        <time>2022-04-15T11:54:26Z</time>
      </trkpt>
      <trkpt lat="45.56738" lon="5.79537">
        <ele>380.9</ele>
        <time>2022-04-15T11:54:27Z</time>
      </trkpt>
      <trkpt lat="45.56738" lon="5.79537">
        <ele>380.9</ele>
        <time>2022-04-15T11:54:28Z</time>
      </trkpt>
      <trkpt lat="45.56738" lon="5.79537">
        <ele>380.9</ele>
        <time>2022-04-15T11:54:29Z</time>
      </trkpt>
      <trkpt lat="45.56738" lon="5.79537">
        <ele>380.9</ele>
        <time>2022-04-15T11:54:30Z</time>
      </trkpt>
      <trkpt lat="45.56738" lon="5.79537">
        <ele>380.9</ele>
        <time>2022-04-15T11:54:31Z</time>
      </trkpt>
      <trkpt lat="45.56738" lon="5.79537">
        <ele>380.9</ele>
        <time>2022-04-15T11:54:32Z</time>
      </trkpt>
      <trkpt lat="45.56738" lon="5.79537">
        <ele>380.9</ele>
        <time>2022-04-15T11:54:33Z</time>
      </trkpt>
      <trkpt lat="45.56738" lon="5.79537">
        <ele>380.9</ele>
        <time>2022-04-15T11:54:34Z</time>
      </trkpt>
      <trkpt lat="45.56738" lon="5.79537">
        <ele>380.9</ele>
        <time>2022-04-15T11:54:35Z</time>
      </trkpt>
      <trkpt lat="45.56738" lon="5.79537">
        <ele>380.9</ele>
        <time>2022-04-15T11:54:36Z</time>
      </trkpt>
      <trkpt lat="45.56738" lon="5.79537">
        <ele>380.9</ele>
        <time>2022-04-15T11:54:37Z</time>
      </trkpt>
      <trkpt lat="45.56738" lon="5.79537">
        <ele>380.9</ele>
        <time>2022-04-15T11:54:38Z</time>
      </trkpt>
      <trkpt lat="45.56738" lon="5.79537">
        <ele>380.9</ele>
        <time>2022-04-15T11:54:39Z</time>
      </trkpt>
      <trkpt lat="45.56738" lon="5.79537">
        <ele>380.9</ele>
        <time>2022-04-15T11:54:40Z</time>
      </trkpt>
      <trkpt lat="45.56738" lon="5.79537">
        <ele>380.9</ele>
        <time>2022-04-15T11:54:41Z</time>
      </trkpt>
      <trkpt lat="45.56738" lon="5.79537">
        <ele>380.9</ele>
        <time>2022-04-15T11:54:42Z</time>
      </trkpt>
      <trkpt lat="45.56738" lon="5.79537">
        <ele>380.9</ele>
        <time>2022-04-15T11:54:43Z</time>
      </trkpt>
      <trkpt lat="45.56738" lon="5.79537">
        <ele>380.9</ele>
        <time>2022-04-15T11:54:44Z</time>
      </trkpt>
      <trkpt lat="45.56738" lon="5.79537">
        <ele>380.9</ele>
        <time>2022-04-15T11:54:45Z</time>
      </trkpt>
      <trkpt lat="45.56738" lon="5.79537">
        <ele>380.9</ele>
        <time>2022-04-15T11:54:46Z</time>
      </trkpt>
      <trkpt lat="45.56738" lon="5.79537">
        <ele>380.9</ele>
        <time>2022-04-15T11:54:47Z</time>
      </trkpt>
      <trkpt lat="45.56738" lon="5.79537">
        <ele>380.9</ele>
        <time>2022-04-15T11:54:48Z</time>
      </trkpt>
      <trkpt lat="45.56738" lon="5.79537">
        <ele>380.9</ele>
        <time>2022-04-15T11:54:49Z</time>
      </trkpt>
      <trkpt lat="45.56738" lon="5.79537">
        <ele>380.9</ele>
        <time>2022-04-15T11:54:50Z</time>
      </trkpt>
      <trkpt lat="45.56738" lon="5.79537">
        <ele>380.9</ele>
        <time>2022-04-15T11:54:51Z</time>
      </trkpt>
      <trkpt lat="45.56738" lon="5.79537">
        <ele>380.9</ele>
        <time>2022-04-15T11:54:52Z</time>
      </trkpt>
      <trkpt lat="45.56738" lon="5.79537">
        <ele>380.9</ele>
        <time>2022-04-15T11:54:53Z</time>
      </trkpt>
      <trkpt lat="45.56738" lon="5.79537">
        <ele>380.9</ele>
        <time>2022-04-15T11:54:54Z</time>
      </trkpt>
      <trkpt lat="45.56738" lon="5.79537">
        <ele>380.9</ele>
        <time>2022-04-15T11:54:55Z</time>
      </trkpt>
      <trkpt lat="45.56738" lon="5.79537">
        <ele>380.9</ele>
        <time>2022-04-15T11:54:56Z</time>
      </trkpt>
      <trkpt lat="45.56738" lon="5.79537">
        <ele>380.9</ele>
        <time>2022-04-15T11:54:57Z</time>
      </trkpt>
      <trkpt lat="45.56738" lon="5.79537">
        <ele>380.9</ele>
        <time>2022-04-15T11:54:58Z</time>
      </trkpt>
      <trkpt lat="45.56738" lon="5.79537">
        <ele>380.9</ele>
        <time>2022-04-15T11:54:59Z</time>
      </trkpt>
      <trkpt lat="45.56738" lon="5.79537">
        <ele>380.9</ele>
        <time>2022-04-15T11:55:00Z</time>
      </trkpt>
      <trkpt lat="45.56738" lon="5.79537">
        <ele>380.9</ele>
        <time>2022-04-15T11:55:01Z</time>
      </trkpt>
      <trkpt lat="45.56738" lon="5.79537">
        <ele>380.9</ele>
        <time>2022-04-15T11:55:02Z</time>
      </trkpt>
      <trkpt lat="45.56738" lon="5.79537">
        <ele>380.9</ele>
        <time>2022-04-15T11:55:03Z</time>
      </trkpt>
      <trkpt lat="45.56738" lon="5.79537">
        <ele>380.9</ele>
        <time>2022-04-15T11:55:04Z</time>
      </trkpt>
      <trkpt lat="45.56738" lon="5.79537">
        <ele>380.9</ele>
        <time>2022-04-15T11:55:05Z</time>
      </trkpt>
      <trkpt lat="45.56738" lon="5.79537">
        <ele>380.9</ele>
        <time>2022-04-15T11:55:06Z</time>
      </trkpt>
      <trkpt lat="45.56738" lon="5.79537">
        <ele>380.9</ele>
        <time>2022-04-15T11:55:07Z</time>
      </trkpt>
      <trkpt lat="45.56738" lon="5.79537">
        <ele>380.9</ele>
        <time>2022-04-15T11:55:08Z</time>
      </trkpt>
      <trkpt lat="45.56738" lon="5.79537">
        <ele>380.9</ele>
        <time>2022-04-15T11:55:09Z</time>
      </trkpt>
      <trkpt lat="45.56738" lon="5.79537">
        <ele>380.9</ele>
        <time>2022-04-15T11:55:10Z</time>
      </trkpt>
      <trkpt lat="45.56738" lon="5.79537">
        <ele>380.9</ele>
        <time>2022-04-15T11:55:11Z</time>
      </trkpt>
      <trkpt lat="45.56738" lon="5.79537">
        <ele>380.9</ele>
        <time>2022-04-15T11:55:12Z</time>
      </trkpt>
      <trkpt lat="45.56738" lon="5.79537">
        <ele>380.9</ele>
        <time>2022-04-15T11:55:13Z</time>
      </trkpt>
      <trkpt lat="45.56738" lon="5.79537">
        <ele>380.9</ele>
        <time>2022-04-15T11:55:14Z</time>
      </trkpt>
      <trkpt lat="45.56738" lon="5.79537">
        <ele>380.9</ele>
        <time>2022-04-15T11:55:15Z</time>
      </trkpt>
      <trkpt lat="45.56738" lon="5.79537">
        <ele>380.9</ele>
        <time>2022-04-15T11:55:16Z</time>
      </trkpt>
      <trkpt lat="45.56738" lon="5.79537">
        <ele>380.9</ele>
        <time>2022-04-15T11:55:17Z</time>
      </trkpt>
      <trkpt lat="45.56738" lon="5.79537">
        <ele>380.9</ele>
        <time>2022-04-15T11:55:18Z</time>
      </trkpt>
      <trkpt lat="45.56738" lon="5.79537">
        <ele>380.9</ele>
        <time>2022-04-15T11:55:19Z</time>
      </trkpt>
      <trkpt lat="45.56738" lon="5.79537">
        <ele>380.9</ele>
        <time>2022-04-15T11:55:20Z</time>
      </trkpt>
      <trkpt lat="45.56738" lon="5.79537">
        <ele>380.9</ele>
        <time>2022-04-15T11:55:21Z</time>
      </trkpt>
      <trkpt lat="45.56738" lon="5.79537">
        <ele>380.9</ele>
        <time>2022-04-15T11:55:22Z</time>
      </trkpt>
      <trkpt lat="45.56738" lon="5.79537">
        <ele>380.9</ele>
        <time>2022-04-15T11:55:23Z</time>
      </trkpt>
      <trkpt lat="45.56738" lon="5.79537">
        <ele>380.9</ele>
        <time>2022-04-15T11:55:24Z</time>
      </trkpt>
      <trkpt lat="45.56738" lon="5.79537">
        <ele>380.9</ele>
        <time>2022-04-15T11:55:25Z</time>
      </trkpt>
      <trkpt lat="45.56738" lon="5.79537">
        <ele>380.9</ele>
        <time>2022-04-15T11:55:26Z</time>
      </trkpt>
      <trkpt lat="45.56738" lon="5.79537">
        <ele>380.9</ele>
        <time>2022-04-15T11:55:27Z</time>
      </trkpt>
      <trkpt lat="45.56738" lon="5.79537">
        <ele>380.9</ele>
        <time>2022-04-15T11:55:28Z</time>
      </trkpt>
      <trkpt lat="45.56738" lon="5.79537">
        <ele>380.9</ele>
        <time>2022-04-15T11:55:29Z</time>
      </trkpt>
      <trkpt lat="45.56738" lon="5.79537">
        <ele>380.9</ele>
        <time>2022-04-15T11:55:30Z</time>
      </trkpt>
      <trkpt lat="45.56738" lon="5.79537">
        <ele>380.9</ele>
        <time>2022-04-15T11:55:31Z</time>
      </trkpt>
      <trkpt lat="45.56738" lon="5.79537">
        <ele>380.9</ele>
        <time>2022-04-15T11:55:32Z</time>
      </trkpt>
      <trkpt lat="45.56738" lon="5.79537">
        <ele>380.9</ele>
        <time>2022-04-15T11:55:33Z</time>
      </trkpt>
      <trkpt lat="45.56738" lon="5.79537">
        <ele>380.9</ele>
        <time>2022-04-15T11:55:34Z</time>
      </trkpt>
      <trkpt lat="45.56738" lon="5.79537">
        <ele>380.9</ele>
        <time>2022-04-15T11:55:35Z</time>
      </trkpt>
      <trkpt lat="45.56738" lon="5.79537">
        <ele>380.8</ele>
        <time>2022-04-15T11:55:36Z</time>
      </trkpt>
      <trkpt lat="45.56738" lon="5.79537">
        <ele>380.7</ele>
        <time>2022-04-15T11:55:37Z</time>
      </trkpt>
      <trkpt lat="45.56738" lon="5.79537">
        <ele>380.6</ele>
        <time>2022-04-15T11:55:38Z</time>
      </trkpt>
      <trkpt lat="45.56738" lon="5.79537">
        <ele>380.5</ele>
        <time>2022-04-15T11:55:39Z</time>
      </trkpt>
      <trkpt lat="45.56738" lon="5.79537">
        <ele>380.4</ele>
        <time>2022-04-15T11:55:40Z</time>
      </trkpt>
      <trkpt lat="45.56738" lon="5.79537">
        <ele>380.3</ele>
        <time>2022-04-15T11:55:41Z</time>
      </trkpt>
      <trkpt lat="45.56738" lon="5.79537">
        <ele>380.2</ele>
        <time>2022-04-15T11:55:42Z</time>
      </trkpt>
      <trkpt lat="45.56738" lon="5.79537">
        <ele>380.1</ele>
        <time>2022-04-15T11:55:43Z</time>
      </trkpt>
      <trkpt lat="45.56738" lon="5.79537">
        <ele>380</ele>
        <time>2022-04-15T11:55:44Z</time>
      </trkpt>
      <trkpt lat="45.56738" lon="5.79537">
        <ele>379.9</ele>
        <time>2022-04-15T11:55:45Z</time>
      </trkpt>
      <trkpt lat="45.56738" lon="5.79537">
        <ele>379.8</ele>
        <time>2022-04-15T11:55:46Z</time>
      </trkpt>
      <trkpt lat="45.56738" lon="5.79537">
        <ele>379.7</ele>
        <time>2022-04-15T11:55:47Z</time>
      </trkpt>
      <trkpt lat="45.56738" lon="5.79537">
        <ele>379.6</ele>
        <time>2022-04-15T11:55:48Z</time>
      </trkpt>
      <trkpt lat="45.56738" lon="5.79537">
        <ele>379.5</ele>
        <time>2022-04-15T11:55:49Z</time>
      </trkpt>
      <trkpt lat="45.56738" lon="5.79537">
        <ele>379.4</ele>
        <time>2022-04-15T11:55:50Z</time>
      </trkpt>
      <trkpt lat="45.56738" lon="5.79537">
        <ele>379.3</ele>
        <time>2022-04-15T11:55:51Z</time>
      </trkpt>
      <trkpt lat="45.56738" lon="5.79537">
        <ele>379.2</ele>
        <time>2022-04-15T11:55:52Z</time>
      </trkpt>
      <trkpt lat="45.56738" lon="5.79537">
        <ele>379.1</ele>
        <time>2022-04-15T11:55:53Z</time>
      </trkpt>
      <trkpt lat="45.56738" lon="5.79537">
        <ele>379</ele>
        <time>2022-04-15T11:55:54Z</time>
      </trkpt>
      <trkpt lat="45.56738" lon="5.79537">
        <ele>378.9</ele>
        <time>2022-04-15T11:55:55Z</time>
      </trkpt>
      <trkpt lat="45.56738" lon="5.79537">
        <ele>378.8</ele>
        <time>2022-04-15T11:55:56Z</time>
      </trkpt>
      <trkpt lat="45.56738" lon="5.79537">
        <ele>378.7</ele>
        <time>2022-04-15T11:55:57Z</time>
      </trkpt>
      <trkpt lat="45.56738" lon="5.79537">
        <ele>378.6</ele>
        <time>2022-04-15T11:55:58Z</time>
      </trkpt>
      <trkpt lat="45.56738" lon="5.79537">
        <ele>378.5</ele>
        <time>2022-04-15T11:55:59Z</time>
      </trkpt>
      <trkpt lat="45.56738" lon="5.79537">
        <ele>378.4</ele>
        <time>2022-04-15T11:56:00Z</time>
      </trkpt>
      <trkpt lat="45.56738" lon="5.79537">
        <ele>378.3</ele>
        <time>2022-04-15T11:56:01Z</time>
      </trkpt>
      <trkpt lat="45.56738" lon="5.79537">
        <ele>378.2</ele>
        <time>2022-04-15T11:56:02Z</time>
      </trkpt>
      <trkpt lat="45.56738" lon="5.79537">
        <ele>378.1</ele>
        <time>2022-04-15T11:56:03Z</time>
      </trkpt>
      <trkpt lat="45.56738" lon="5.79537">
        <ele>378</ele>
        <time>2022-04-15T11:56:04Z</time>
      </trkpt>
      <trkpt lat="45.56738" lon="5.79537">
        <ele>377.9</ele>
        <time>2022-04-15T11:56:05Z</time>
      </trkpt>
      <trkpt lat="45.56738" lon="5.79537">
        <ele>377.8</ele>
        <time>2022-04-15T11:56:06Z</time>
      </trkpt>
      <trkpt lat="45.56738" lon="5.79537">
        <ele>377.7</ele>
        <time>2022-04-15T11:56:07Z</time>
      </trkpt>
      <trkpt lat="45.56738" lon="5.79537">
        <ele>377.6</ele>
        <time>2022-04-15T11:56:08Z</time>
      </trkpt>
      <trkpt lat="45.56738" lon="5.79537">
        <ele>377.5</ele>
        <time>2022-04-15T11:56:09Z</time>
      </trkpt>
      <trkpt lat="45.56738" lon="5.79537">
        <ele>377.4</ele>
        <time>2022-04-15T11:56:10Z</time>
      </trkpt>
      <trkpt lat="45.56738" lon="5.79537">
        <ele>377.3</ele>
        <time>2022-04-15T11:56:11Z</time>
      </trkpt>
      <trkpt lat="45.56738" lon="5.79537">
        <ele>377.2</ele>
        <time>2022-04-15T11:56:12Z</time>
      </trkpt>
      <trkpt lat="45.56738" lon="5.79537">
        <ele>377.1</ele>
        <time>2022-04-15T11:56:13Z</time>
      </trkpt>
      <trkpt lat="45.56738" lon="5.79537">
        <ele>377</ele>
        <time>2022-04-15T11:56:14Z</time>
      </trkpt>
      <trkpt lat="45.56738" lon="5.79537">
        <ele>376.9</ele>
        <time>2022-04-15T11:56:15Z</time>
      </trkpt>
      <trkpt lat="45.56738" lon="5.79537">
        <ele>376.8</ele>
        <time>2022-04-15T11:56:16Z</time>
      </trkpt>
      <trkpt lat="45.56738" lon="5.79537">
        <ele>376.7</ele>
        <time>2022-04-15T11:56:17Z</time>
      </trkpt>
      <trkpt lat="45.56738" lon="5.79537">
        <ele>376.6</ele>
        <time>2022-04-15T11:56:18Z</time>
      </trkpt>
      <trkpt lat="45.56738" lon="5.79537">
        <ele>376.5</ele>
        <time>2022-04-15T11:56:19Z</time>
      </trkpt>
      <trkpt lat="45.56738" lon="5.79537">
        <ele>376.4</ele>
        <time>2022-04-15T11:56:20Z</time>
      </trkpt>
      <trkpt lat="45.56738" lon="5.79537">
        <ele>376.3</ele>
        <time>2022-04-15T11:56:21Z</time>
      </trkpt>
      <trkpt lat="45.56738" lon="5.79537">
        <ele>376.2</ele>
        <time>2022-04-15T11:56:22Z</time>
      </trkpt>
      <trkpt lat="45.56738" lon="5.79537">
        <ele>376.1</ele>
        <time>2022-04-15T11:56:23Z</time>
      </trkpt>
      <trkpt lat="45.56738" lon="5.79537">
        <ele>376</ele>
        <time>2022-04-15T11:56:24Z</time>
      </trkpt>
      <trkpt lat="45.56738" lon="5.79537">
        <ele>375.9</ele>
        <time>2022-04-15T11:56:25Z</time>
      </trkpt>
      <trkpt lat="45.56738" lon="5.79537">
        <ele>375.8</ele>
        <time>2022-04-15T11:56:26Z</time>
      </trkpt>
      <trkpt lat="45.56738" lon="5.79537">
        <ele>375.7</ele>
        <time>2022-04-15T11:56:27Z</time>
      </trkpt>
      <trkpt lat="45.56738" lon="5.79537">
        <ele>375.6</ele>
        <time>2022-04-15T11:56:28Z</time>
      </trkpt>
      <trkpt lat="45.56738" lon="5.79537">
        <ele>375.5</ele>
        <time>2022-04-15T11:56:29Z</time>
      </trkpt>
      <trkpt lat="45.56738" lon="5.79537">
        <ele>375.4</ele>
        <time>2022-04-15T11:56:30Z</time>
      </trkpt>
      <trkpt lat="45.56738" lon="5.79537">
        <ele>375.3</ele>
        <time>2022-04-15T11:56:31Z</time>
      </trkpt>
      <trkpt lat="45.56738" lon="5.79537">
        <ele>375.2</ele>
        <time>2022-04-15T11:56:32Z</time>
      </trkpt>
      <trkpt lat="45.56738" lon="5.79537">
        <ele>375.1</ele>
        <time>2022-04-15T11:56:33Z</time>
      </trkpt>
      <trkpt lat="45.56738" lon="5.79537">
        <ele>375</ele>
        <time>2022-04-15T11:56:34Z</time>
      </trkpt>
      <trkpt lat="45.56738" lon="5.79537">
        <ele>374.9</ele>
        <time>2022-04-15T11:56:35Z</time>
      </trkpt>
      <trkpt lat="45.56738" lon="5.79537">
        <ele>374.8</ele>
        <time>2022-04-15T11:56:36Z</time>
      </trkpt>
      <trkpt lat="45.56738" lon="5.79537">
        <ele>374.7</ele>
        <time>2022-04-15T11:56:37Z</time>
      </trkpt>
      <trkpt lat="45.56738" lon="5.79537">
        <ele>374.6</ele>
        <time>2022-04-15T11:56:38Z</time>
      </trkpt>
      <trkpt lat="45.56738" lon="5.79537">
        <ele>374.5</ele>
        <time>2022-04-15T11:56:39Z</time>
      </trkpt>
      <trkpt lat="45.56738" lon="5.79537">
        <ele>374.4</ele>
        <time>2022-04-15T11:56:40Z</time>
      </trkpt>
      <trkpt lat="45.56738" lon="5.79537">
        <ele>374.3</ele>
        <time>2022-04-15T11:56:41Z</time>
      </trkpt>
      <trkpt lat="45.56738" lon="5.79537">
        <ele>374.2</ele>
        <time>2022-04-15T11:56:42Z</time>
      </trkpt>
      <trkpt lat="45.56738" lon="5.79537">
        <ele>374.1</ele>
        <time>2022-04-15T11:56:43Z</time>
      </trkpt>
      <trkpt lat="45.56738" lon="5.79537">
        <ele>374</ele>
        <time>2022-04-15T11:56:44Z</time>
      </trkpt>
      <trkpt lat="45.56738" lon="5.79537">
        <ele>373.9</ele>
        <time>2022-04-15T11:56:45Z</time>
      </trkpt>
      <trkpt lat="45.56738" lon="5.79537">
        <ele>373.8</ele>
        <time>2022-04-15T11:56:46Z</time>
      </trkpt>
      <trkpt lat="45.56738" lon="5.79537">
        <ele>373.7</ele>
        <time>2022-04-15T11:56:47Z</time>
      </trkpt>
      <trkpt lat="45.56738" lon="5.79537">
        <ele>373.6</ele>
        <time>2022-04-15T11:56:48Z</time>
      </trkpt>
      <trkpt lat="45.56738" lon="5.79537">
        <ele>373.5</ele>
        <time>2022-04-15T11:56:49Z</time>
      </trkpt>
      <trkpt lat="45.56738" lon="5.79537">
        <ele>373.4</ele>
        <time>2022-04-15T11:56:50Z</time>
      </trkpt>
      <trkpt lat="45.56738" lon="5.79537">
        <ele>373.3</ele>
        <time>2022-04-15T11:56:51Z</time>
      </trkpt>
      <trkpt lat="45.56738" lon="5.79537">
        <ele>373.2</ele>
        <time>2022-04-15T11:56:52Z</time>
      </trkpt>
      <trkpt lat="45.56738" lon="5.79537">
        <ele>373.1</ele>
        <time>2022-04-15T11:56:53Z</time>
      </trkpt>
      <trkpt lat="45.56738" lon="5.79537">
        <ele>373</ele>
        <time>2022-04-15T11:56:54Z</time>
      </trkpt>
      <trkpt lat="45.56738" lon="5.79537">
        <ele>372.9</ele>
        <time>2022-04-15T11:56:55Z</time>
      </trkpt>
      <trkpt lat="45.56738" lon="5.79537">
        <ele>372.8</ele>
        <time>2022-04-15T11:56:56Z</time>
      </trkpt>
      <trkpt lat="45.56738" lon="5.79537">
        <ele>372.7</ele>
        <time>2022-04-15T11:56:57Z</time>
      </trkpt>
      <trkpt lat="45.56738" lon="5.79537">
        <ele>372.6</ele>
        <time>2022-04-15T11:56:58Z</time>
      </trkpt>
      <trkpt lat="45.56738" lon="5.79537">
        <ele>372.5</ele>
        <time>2022-04-15T11:56:59Z</time>
      </trkpt>
      <trkpt lat="45.56738" lon="5.79537">
        <ele>372.4</ele>
        <time>2022-04-15T11:57:00Z</time>
      </trkpt>
      <trkpt lat="45.56738" lon="5.79537">
        <ele>372.3</ele>
        <time>2022-04-15T11:57:01Z</time>
      </trkpt>
      <trkpt lat="45.56738" lon="5.79537">
        <ele>372.2</ele>
        <time>2022-04-15T11:57:02Z</time>
      </trkpt>
      <trkpt lat="45.56738" lon="5.79537">
        <ele>372.1</ele>
        <time>2022-04-15T11:57:03Z</time>
      </trkpt>
      <trkpt lat="45.56738" lon="5.79537">
        <ele>372</ele>
        <time>2022-04-15T11:57:04Z</time>
      </trkpt>
      <trkpt lat="45.56738" lon="5.79537">
        <ele>371.9</ele>
        <time>2022-04-15T11:57:05Z</time>
      </trkpt>
      <trkpt lat="45.56738" lon="5.79537">
        <ele>371.8</ele>
        <time>2022-04-15T11:57:06Z</time>
      </trkpt>
      <trkpt lat="45.56738" lon="5.79537">
        <ele>371.7</ele>
        <time>2022-04-15T11:57:07Z</time>
      </trkpt>
      <trkpt lat="45.56738" lon="5.79537">
        <ele>371.6</ele>
        <time>2022-04-15T11:57:08Z</time>
      </trkpt>
      <trkpt lat="45.56738" lon="5.79537">
        <ele>371.5</ele>
        <time>2022-04-15T11:57:09Z</time>
      </trkpt>
      <trkpt lat="45.56738" lon="5.79537">
        <ele>371.4</ele>
        <time>2022-04-15T11:57:10Z</time>
      </trkpt>
      <trkpt lat="45.56738" lon="5.79537">
        <ele>371.3</ele>
        <time>2022-04-15T11:57:11Z</time>
      </trkpt>
      <trkpt lat="45.56738" lon="5.79537">
        <ele>371.2</ele>
        <time>2022-04-15T11:57:12Z</time>
      </trkpt>
      <trkpt lat="45.56738" lon="5.79537">
        <ele>371.1</ele>
        <time>2022-04-15T11:57:13Z</time>
      </trkpt>
      <trkpt lat="45.56738" lon="5.79537">
        <ele>371</ele>
        <time>2022-04-15T11:57:14Z</time>
      </trkpt>
      <trkpt lat="45.56738" lon="5.79537">
        <ele>370.9</ele>
        <time>2022-04-15T11:57:15Z</time>
      </trkpt>
      <trkpt lat="45.56738" lon="5.79537">
        <ele>370.9</ele>
        <time>2022-04-15T11:57:16Z</time>
      </trkpt>
      <trkpt lat="45.56738" lon="5.79537">
        <ele>370.9</ele>
        <time>2022-04-15T11:57:17Z</time>
      </trkpt>
      <trkpt lat="45.56738" lon="5.79537">
        <ele>370.9</ele>
        <time>2022-04-15T11:57:18Z</time>
      </trkpt>
      <trkpt lat="45.56738" lon="5.79537">
        <ele>370.9</ele>
        <time>2022-04-15T11:57:19Z</time>
      </trkpt>
      <trkpt lat="45.56738" lon="5.79537">
        <ele>370.9</ele>
        <time>2022-04-15T11:57:20Z</time>
      </trkpt>
      <trkpt lat="45.56738" lon="5.79537">
        <ele>370.9</ele>
        <time>2022-04-15T11:57:21Z</time>
      </trkpt>
      <trkpt lat="45.56738" lon="5.79537">
        <ele>370.9</ele>
        <time>2022-04-15T11:57:22Z</time>
      </trkpt>
      <trkpt lat="45.56738" lon="5.79537">
        <ele>370.9</ele>
        <time>2022-04-15T11:57:23Z</time>
      </trkpt>
      <trkpt lat="45.56738" lon="5.79537">
        <ele>370.9</ele>
        <time>2022-04-15T11:57:24Z</time>
      </trkpt>
      <trkpt lat="45.56738" lon="5.79537">
        <ele>370.9</ele>
        <time>2022-04-15T11:57:25Z</time>
      </trkpt>
      <trkpt lat="45.56738" lon="5.79537">
        <ele>370.9</ele>
        <time>2022-04-15T11:57:26Z</time>
      </trkpt>
      <trkpt lat="45.56738" lon="5.79537">
        <ele>370.9</ele>
        <time>2022-04-15T11:57:27Z</time>
      </trkpt>
      <trkpt lat="45.56738" lon="5.79537">
        <ele>370.9</ele>
        <time>2022-04-15T11:57:28Z</time>
      </trkpt>
      <trkpt lat="45.56738" lon="5.79537">
        <ele>370.9</ele>
        <time>2022-04-15T11:57:29Z</time>
      </trkpt>
      <trkpt lat="45.56738" lon="5.79537">
        <ele>370.9</ele>
        <time>2022-04-15T11:57:30Z</time>
      </trkpt>
      <trkpt lat="45.56738" lon="5.79537">
        <ele>370.9</ele>
        <time>2022-04-15T11:57:31Z</time>
      </trkpt>
      <trkpt lat="45.56738" lon="5.79537">
        <ele>370.9</ele>
        <time>2022-04-15T11:57:32Z</time>
      </trkpt>
      <trkpt lat="45.56738" lon="5.79537">
        <ele>370.9</ele>
        <time>2022-04-15T11:57:33Z</time>
      </trkpt>
      <trkpt lat="45.56738" lon="5.79537">
        <ele>370.9</ele>
        <time>2022-04-15T11:57:34Z</time>
      </trkpt>
      <trkpt lat="45.56738" lon="5.79537">
        <ele>370.9</ele>
        <time>2022-04-15T11:57:35Z</time>
      </trkpt>
      <trkpt lat="45.56738" lon="5.79537">
        <ele>370.9</ele>
        <time>2022-04-15T11:57:36Z</time>
      </trkpt>
      <trkpt lat="45.56738" lon="5.79537">
        <ele>370.9</ele>
        <time>2022-04-15T11:57:37Z</time>
      </trkpt>
      <trkpt lat="45.56738" lon="5.79537">
        <ele>370.9</ele>
        <time>2022-04-15T11:57:38Z</time>
      </trkpt>
      <trkpt lat="45.56738" lon="5.79537">
        <ele>370.9</ele>
        <time>2022-04-15T11:57:39Z</time>
      </trkpt>
      <trkpt lat="45.56738" lon="5.79537">
        <ele>370.9</ele>
        <time>2022-04-15T11:57:40Z</time>
      </trkpt>
      <trkpt lat="45.56738" lon="5.79537">
        <ele>370.9</ele>
        <time>2022-04-15T11:57:41Z</time>
      </trkpt>
      <trkpt lat="45.56738" lon="5.79537">
        <ele>370.9</ele>
        <time>2022-04-15T11:57:42Z</time>
      </trkpt>
      <trkpt lat="45.56738" lon="5.79537">
        <ele>370.9</ele>
        <time>2022-04-15T11:57:43Z</time>
      </trkpt>
      <trkpt lat="45.56738" lon="5.79537">
        <ele>370.9</ele>
        <time>2022-04-15T11:57:44Z</time>
      </trkpt>
      <trkpt lat="45.56738" lon="5.79537">
        <ele>370.9</ele>
        <time>2022-04-15T11:57:45Z</time>
      </trkpt>
      <trkpt lat="45.56738" lon="5.79537">
        <ele>370.9</ele>
        <time>2022-04-15T11:57:46Z</time>
      </trkpt>
      <trkpt lat="45.56738" lon="5.79537">
        <ele>370.9</ele>
        <time>2022-04-15T11:57:47Z</time>
      </trkpt>
      <trkpt lat="45.56738" lon="5.79537">
        <ele>370.9</ele>
        <time>2022-04-15T11:57:48Z</time>
      </trkpt>
      <trkpt lat="45.56738" lon="5.79537">
        <ele>370.9</ele>
        <time>2022-04-15T11:57:49Z</time>
      </trkpt>
      <trkpt lat="45.56738" lon="5.79537">
        <ele>370.9</ele>
        <time>2022-04-15T11:57:50Z</time>
      </trkpt>
      <trkpt lat="45.56738" lon="5.79537">
        <ele>370.9</ele>
        <time>2022-04-15T11:57:51Z</time>
      </trkpt>
      <trkpt lat="45.56738" lon="5.79537">
        <ele>370.9</ele>
        <time>2022-04-15T11:57:52Z</time>
      </trkpt>
      <trkpt lat="45.56738" lon="5.79537">
        <ele>370.9</ele>
        <time>2022-04-15T11:57:53Z</time>
      </trkpt>
      <trkpt lat="45.56738" lon="5.79537">
        <ele>370.9</ele>
        <time>2022-04-15T11:57:54Z</time>
      </trkpt>
      <trkpt lat="45.56738" lon="5.79537">
        <ele>370.9</ele>
        <time>2022-04-15T11:57:55Z</time>
      </trkpt>
      <trkpt lat="45.56738" lon="5.79537">
        <ele>370.9</ele>
        <time>2022-04-15T11:57:56Z</time>
      </trkpt>
      <trkpt lat="45.56738" lon="5.79537">
        <ele>370.9</ele>
        <time>2022-04-15T11:57:57Z</time>
      </trkpt>
      <trkpt lat="45.56738" lon="5.79537">
        <ele>370.9</ele>
        <time>2022-04-15T11:57:58Z</time>
      </trkpt>
      <trkpt lat="45.56738" lon="5.79537">
        <ele>370.9</ele>
        <time>2022-04-15T11:57:59Z</time>
      </trkpt>
      <trkpt lat="45.56738" lon="5.79537">
        <ele>370.9</ele>
        <time>2022-04-15T11:58:00Z</time>
      </trkpt>
      <trkpt lat="45.56738" lon="5.79537">
        <ele>370.9</ele>
        <time>2022-04-15T11:58:01Z</time>
      </trkpt>
      <trkpt lat="45.56738" lon="5.79537">
        <ele>370.9</ele>
        <time>2022-04-15T11:58:02Z</time>
      </trkpt>
      <trkpt lat="45.56738" lon="5.79537">
        <ele>370.9</ele>
        <time>2022-04-15T11:58:03Z</time>
      </trkpt>
      <trkpt lat="45.56738" lon="5.79537">
        <ele>370.9</ele>
        <time>2022-04-15T11:58:04Z</time>
      </trkpt>
      <trkpt lat="45.56738" lon="5.79537">
        <ele>370.9</ele>
        <time>2022-04-15T11:58:05Z</time>
      </trkpt>
      <trkpt lat="45.56738" lon="5.79537">
        <ele>370.9</ele>
        <time>2022-04-15T11:58:06Z</time>
      </trkpt>
      <trkpt lat="45.56738" lon="5.79537">
        <ele>370.9</ele>
        <time>2022-04-15T11:58:07Z</time>
      </trkpt>
      <trkpt lat="45.56738" lon="5.79537">
        <ele>370.9</ele>
        <time>2022-04-15T11:58:08Z</time>
      </trkpt>
      <trkpt lat="45.56738" lon="5.79537">
        <ele>370.9</ele>
        <time>2022-04-15T11:58:09Z</time>
      </trkpt>
      <trkpt lat="45.56738" lon="5.79537">
        <ele>370.9</ele>
        <time>2022-04-15T11:58:10Z</time>
      </trkpt>
      <trkpt lat="45.56738" lon="5.79537">
        <ele>370.9</ele>
        <time>2022-04-15T11:58:11Z</time>
      </trkpt>
      <trkpt lat="45.56738" lon="5.79537">
        <ele>370.9</ele>
        <time>2022-04-15T11:58:12Z</time>
      </trkpt>
      <trkpt lat="45.56738" lon="5.79537">
        <ele>370.9</ele>
        <time>2022-04-15T11:58:13Z</time>
      </trkpt>
      <trkpt lat="45.56738" lon="5.79537">
        <ele>370.9</ele>
        <time>2022-04-15T11:58:14Z</time>
      </trkpt>
      <trkpt lat="45.56738" lon="5.79537">
        <ele>370.9</ele>
        <time>2022-04-15T11:58:15Z</time>
      </trkpt>
      <trkpt lat="45.56738" lon="5.79537">
        <ele>370.9</ele>
        <time>2022-04-15T11:58:16Z</time>
      </trkpt>
      <trkpt lat="45.56738" lon="5.79537">
        <ele>370.9</ele>
        <time>2022-04-15T11:58:17Z</time>
      </trkpt>
      <trkpt lat="45.56738" lon="5.79537">
        <ele>370.9</ele>
        <time>2022-04-15T11:58:18Z</time>
      </trkpt>
      <trkpt lat="45.56738" lon="5.79537">
        <ele>370.9</ele>
        <time>2022-04-15T11:58:19Z</time>
      </trkpt>
      <trkpt lat="45.56738" lon="5.79537">
        <ele>370.9</ele>
        <time>2022-04-15T11:58:20Z</time>
      </trkpt>
      <trkpt lat="45.56738" lon="5.79537">
        <ele>370.9</ele>
        <time>2022-04-15T11:58:21Z</time>
      </trkpt>
      <trkpt lat="45.56738" lon="5.79537">
        <ele>370.9</ele>
        <time>2022-04-15T11:58:22Z</time>
      </trkpt>
      <trkpt lat="45.56738" lon="5.79537">
        <ele>370.9</ele>
        <time>2022-04-15T11:58:23Z</time>
      </trkpt>
      <trkpt lat="45.56738" lon="5.79537">
        <ele>370.9</ele>
        <time>2022-04-15T11:58:24Z</time>
      </trkpt>
      <trkpt lat="45.56738" lon="5.79537">
        <ele>370.9</ele>
        <time>2022-04-15T11:58:25Z</time>
      </trkpt>
      <trkpt lat="45.56738" lon="5.79537">
        <ele>370.9</ele>
        <time>2022-04-15T11:58:26Z</time>
      </trkpt>
      <trkpt lat="45.56738" lon="5.79537">
        <ele>370.9</ele>
        <time>2022-04-15T11:58:27Z</time>
      </trkpt>
      <trkpt lat="45.56738" lon="5.79537">
        <ele>370.9</ele>
        <time>2022-04-15T11:58:28Z</time>
      </trkpt>
      <trkpt lat="45.56738" lon="5.79537">
        <ele>370.9</ele>
        <time>2022-04-15T11:58:29Z</time>
      </trkpt>
      <trkpt lat="45.56738" lon="5.79537">
        <ele>370.9</ele>
        <time>2022-04-15T11:58:30Z</time>
      </trkpt>
      <trkpt lat="45.56738" lon="5.79537">
        <ele>370.9</ele>
        <time>2022-04-15T11:58:31Z</time>
      </trkpt>
      <trkpt lat="45.56738" lon="5.79537">
        <ele>370.9</ele>
        <time>2022-04-15T11:58:32Z</time>
      </trkpt>
      <trkpt lat="45.56738" lon="5.79537">
        <ele>370.9</ele>
        <time>2022-04-15T11:58:33Z</time>
      </trkpt>
      <trkpt lat="45.56738" lon="5.79537">
        <ele>370.9</ele>
        <time>2022-04-15T11:58:34Z</time>
      </trkpt>
      <trkpt lat="45.56738" lon="5.79537">
        <ele>370.9</ele>
        <time>2022-04-15T11:58:35Z</time>
      </trkpt>
      <trkpt lat="45.56738" lon="5.79537">
        <ele>370.9</ele>
        <time>2022-04-15T11:58:36Z</time>
      </trkpt>
      <trkpt lat="45.56738" lon="5.79537">
        <ele>370.9</ele>
        <time>2022-04-15T11:58:37Z</time>
      </trkpt>
      <trkpt lat="45.56738" lon="5.79537">
        <ele>370.9</ele>
        <time>2022-04-15T11:58:38Z</time>
      </trkpt>
      <trkpt lat="45.56738" lon="5.79537">
        <ele>370.9</ele>
        <time>2022-04-15T11:58:39Z</time>
      </trkpt>
      <trkpt lat="45.56738" lon="5.79537">
        <ele>370.9</ele>
        <time>2022-04-15T11:58:40Z</time>
      </trkpt>
      <trkpt lat="45.56738" lon="5.79537">
        <ele>370.9</ele>
        <time>2022-04-15T11:58:41Z</time>
      </trkpt>
      <trkpt lat="45.56738" lon="5.79537">
        <ele>370.9</ele>
        <time>2022-04-15T11:58:42Z</time>
      </trkpt>
      <trkpt lat="45.56738" lon="5.79537">
        <ele>370.9</ele>
        <time>2022-04-15T11:58:43Z</time>
      </trkpt>
      <trkpt lat="45.56738" lon="5.79537">
        <ele>370.9</ele>
        <time>2022-04-15T11:58:44Z</time>
      </trkpt>
      <trkpt lat="45.56738" lon="5.79537">
        <ele>370.9</ele>
        <time>2022-04-15T11:58:45Z</time>
      </trkpt>
      <trkpt lat="45.56738" lon="5.79537">
        <ele>370.9</ele>
        <time>2022-04-15T11:58:46Z</time>
      </trkpt>
      <trkpt lat="45.56738" lon="5.79537">
        <ele>370.9</ele>
        <time>2022-04-15T11:58:47Z</time>
      </trkpt>
      <trkpt lat="45.56738" lon="5.79537">
        <ele>370.9</ele>
        <time>2022-04-15T11:58:48Z</time>
      </trkpt>
      <trkpt lat="45.56738" lon="5.79537">
        <ele>370.9</ele>
        <time>2022-04-15T11:58:49Z</time>
      </trkpt>
      <trkpt lat="45.56738" lon="5.79537">
        <ele>370.9</ele>
        <time>2022-04-15T11:58:50Z</time>
      </trkpt>
      <trkpt lat="45.56738" lon="5.79537">
        <ele>370.9</ele>
        <time>2022-04-15T11:58:51Z</time>
      </trkpt>
      <trkpt lat="45.56738" lon="5.79537">
        <ele>370.9</ele>
        <time>2022-04-15T11:58:52Z</time>
      </trkpt>
      <trkpt lat="45.56738" lon="5.79537">
        <ele>370.9</ele>
        <time>2022-04-15T11:58:53Z</time>
      </trkpt>
      <trkpt lat="45.56738" lon="5.79537">
        <ele>370.9</ele>
        <time>2022-04-15T11:58:54Z</time>
      </trkpt>
      <trkpt lat="45.56738" lon="5.79537">
        <ele>370.9</ele>
        <time>2022-04-15T11:58:55Z</time>
      </trkpt>
      <trkpt lat="45.56738" lon="5.79537">
        <ele>370.9</ele>
        <time>2022-04-15T11:58:56Z</time>
      </trkpt>
      <trkpt lat="45.56738" lon="5.79537">
        <ele>370.9</ele>
        <time>2022-04-15T11:58:57Z</time>
      </trkpt>
      <trkpt lat="45.56738" lon="5.79537">
        <ele>370.9</ele>
        <time>2022-04-15T11:58:58Z</time>
      </trkpt>
      <trkpt lat="45.56738" lon="5.79537">
        <ele>370.9</ele>
        <time>2022-04-15T11:58:59Z</time>
      </trkpt>
      <trkpt lat="45.56738" lon="5.79537">
        <ele>370.9</ele>
        <time>2022-04-15T11:59:00Z</time>
      </trkpt>
      <trkpt lat="45.56738" lon="5.79537">
        <ele>370.9</ele>
        <time>2022-04-15T11:59:01Z</time>
      </trkpt>
      <trkpt lat="45.56738" lon="5.79537">
        <ele>370.9</ele>
        <time>2022-04-15T11:59:02Z</time>
      </trkpt>
      <trkpt lat="45.56738" lon="5.79537">
        <ele>370.9</ele>
        <time>2022-04-15T11:59:03Z</time>
      </trkpt>
      <trkpt lat="45.56738" lon="5.79537">
        <ele>370.9</ele>
        <time>2022-04-15T11:59:04Z</time>
      </trkpt>
      <trkpt lat="45.56738" lon="5.79537">
        <ele>370.9</ele>
        <time>2022-04-15T11:59:05Z</time>
      </trkpt>
      <trkpt lat="45.56738" lon="5.79537">
        <ele>370.9</ele>
        <time>2022-04-15T11:59:06Z</time>
      </trkpt>
      <trkpt lat="45.56738" lon="5.79537">
        <ele>370.9</ele>
        <time>2022-04-15T11:59:07Z</time>
      </trkpt>
      <trkpt lat="45.56738" lon="5.79537">
        <ele>370.9</ele>
        <time>2022-04-15T11:59:08Z</time>
      </trkpt>
      <trkpt lat="45.56738" lon="5.79537">
        <ele>370.9</ele>
        <time>2022-04-15T11:59:09Z</time>
      </trkpt>
      <trkpt lat="45.56738" lon="5.79537">
        <ele>370.9</ele>
        <time>2022-04-15T11:59:10Z</time>
      </trkpt>
      <trkpt lat="45.56738" lon="5.79537">
        <ele>370.9</ele>
        <time>2022-04-15T11:59:11Z</time>
      </trkpt>
      <trkpt lat="45.56738" lon="5.79537">
        <ele>370.9</ele>
        <time>2022-04-15T11:59:12Z</time>
      </trkpt>
      <trkpt lat="45.56738" lon="5.79537">
        <ele>370.9</ele>
        <time>2022-04-15T11:59:13Z</time>
      </trkpt>
      <trkpt lat="45.56738" lon="5.79537">
        <ele>370.9</ele>
        <time>2022-04-15T11:59:14Z</time>
      </trkpt>
      <trkpt lat="45.56738" lon="5.79537">
        <ele>370.9</ele>
        <time>2022-04-15T11:59:15Z</time>
      </trkpt>
      <trkpt lat="45.56738" lon="5.79537">
        <ele>370.9</ele>
        <time>2022-04-15T11:59:16Z</time>
      </trkpt>
      <trkpt lat="45.56738" lon="5.79537">
        <ele>370.9</ele>
        <time>2022-04-15T11:59:17Z</time>
      </trkpt>
      <trkpt lat="45.56738" lon="5.79537">
        <ele>370.9</ele>
        <time>2022-04-15T11:59:18Z</time>
      </trkpt>
      <trkpt lat="45.56738" lon="5.79537">
        <ele>370.9</ele>
        <time>2022-04-15T11:59:19Z</time>
      </trkpt>
      <trkpt lat="45.56738" lon="5.79537">
        <ele>370.9</ele>
        <time>2022-04-15T11:59:20Z</time>
      </trkpt>
      <trkpt lat="45.56738" lon="5.79537">
        <ele>370.9</ele>
        <time>2022-04-15T11:59:21Z</time>
      </trkpt>
      <trkpt lat="45.56738" lon="5.79537">
        <ele>370.9</ele>
        <time>2022-04-15T11:59:22Z</time>
      </trkpt>
      <trkpt lat="45.56738" lon="5.79537">
        <ele>370.9</ele>
        <time>2022-04-15T11:59:23Z</time>
      </trkpt>
      <trkpt lat="45.56738" lon="5.79537">
        <ele>370.9</ele>
        <time>2022-04-15T11:59:24Z</time>
      </trkpt>
      <trkpt lat="45.56738" lon="5.79537">
        <ele>370.9</ele>
        <time>2022-04-15T11:59:25Z</time>
      </trkpt>
      <trkpt lat="45.56738" lon="5.79537">
        <ele>370.9</ele>
        <time>2022-04-15T11:59:26Z</time>
      </trkpt>
      <trkpt lat="45.56738" lon="5.79537">
        <ele>370.9</ele>
        <time>2022-04-15T11:59:27Z</time>
      </trkpt>
      <trkpt lat="45.56738" lon="5.79537">
        <ele>370.9</ele>
        <time>2022-04-15T11:59:28Z</time>
      </trkpt>
      <trkpt lat="45.56738" lon="5.79537">
        <ele>370.9</ele>
        <time>2022-04-15T11:59:29Z</time>
      </trkpt>
      <trkpt lat="45.56738" lon="5.79537">
        <ele>370.9</ele>
        <time>2022-04-15T11:59:30Z</time>
      </trkpt>
      <trkpt lat="45.56738" lon="5.79537">
        <ele>370.9</ele>
        <time>2022-04-15T11:59:31Z</time>
      </trkpt>
      <trkpt lat="45.56738" lon="5.79537">
        <ele>370.9</ele>
        <time>2022-04-15T11:59:32Z</time>
      </trkpt>
      <trkpt lat="45.56738" lon="5.79537">
        <ele>370.9</ele>
        <time>2022-04-15T11:59:33Z</time>
      </trkpt>
      <trkpt lat="45.56738" lon="5.79537">
        <ele>370.9</ele>
        <time>2022-04-15T11:59:34Z</time>
      </trkpt>
      <trkpt lat="45.56738" lon="5.79537">
        <ele>370.9</ele>
        <time>2022-04-15T11:59:35Z</time>
      </trkpt>
      <trkpt lat="45.56738" lon="5.79537">
        <ele>370.9</ele>
        <time>2022-04-15T11:59:36Z</time>
      </trkpt>
      <trkpt lat="45.56738" lon="5.79537">
        <ele>370.9</ele>
        <time>2022-04-15T11:59:37Z</time>
      </trkpt>
      <trkpt lat="45.56738" lon="5.79537">
        <ele>370.9</ele>
        <time>2022-04-15T11:59:38Z</time>
      </trkpt>
      <trkpt lat="45.56738" lon="5.79537">
        <ele>370.9</ele>
        <time>2022-04-15T11:59:39Z</time>
      </trkpt>
      <trkpt lat="45.56738" lon="5.79537">
        <ele>370.9</ele>
        <time>2022-04-15T11:59:40Z</time>
      </trkpt>
      <trkpt lat="45.56738" lon="5.79537">
        <ele>370.9</ele>
        <time>2022-04-15T11:59:41Z</time>
      </trkpt>
      <trkpt lat="45.56738" lon="5.79537">
        <ele>370.9</ele>
        <time>2022-04-15T11:59:42Z</time>
      </trkpt>
      <trkpt lat="45.56738" lon="5.79537">
        <ele>370.9</ele>
        <time>2022-04-15T11:59:43Z</time>
      </trkpt>
      <trkpt lat="45.56738" lon="5.79537">
        <ele>370.9</ele>
        <time>2022-04-15T11:59:44Z</time>
      </trkpt>
      <trkpt lat="45.56738" lon="5.79537">
        <ele>370.9</ele>
        <time>2022-04-15T11:59:45Z</time>
      </trkpt>
      <trkpt lat="45.56738" lon="5.79537">
        <ele>370.9</ele>
        <time>2022-04-15T11:59:46Z</time>
      </trkpt>
      <trkpt lat="45.56738" lon="5.79537">
        <ele>370.9</ele>
        <time>2022-04-15T11:59:47Z</time>
      </trkpt>
      <trkpt lat="45.56738" lon="5.79537">
        <ele>370.9</ele>
        <time>2022-04-15T11:59:48Z</time>
      </trkpt>
      <trkpt lat="45.56738" lon="5.79537">
        <ele>370.9</ele>
        <time>2022-04-15T11:59:49Z</time>
      </trkpt>
      <trkpt lat="45.56738" lon="5.79537">
        <ele>370.9</ele>
        <time>2022-04-15T11:59:50Z</time>
      </trkpt>
      <trkpt lat="45.56738" lon="5.79537">
        <ele>370.9</ele>
        <time>2022-04-15T11:59:51Z</time>
      </trkpt>
      <trkpt lat="45.56738" lon="5.79537">
        <ele>370.9</ele>
        <time>2022-04-15T11:59:52Z</time>
      </trkpt>
      <trkpt lat="45.56738" lon="5.79537">
        <ele>370.9</ele>
        <time>2022-04-15T11:59:53Z</time>
      </trkpt>
      <trkpt lat="45.56738" lon="5.79537">
        <ele>370.9</ele>
        <time>2022-04-15T11:59:54Z</time>
      </trkpt>
      <trkpt lat="45.56738" lon="5.79537">
        <ele>370.9</ele>
        <time>2022-04-15T11:59:55Z</time>
      </trkpt>
      <trkpt lat="45.56738" lon="5.79537">
        <ele>370.9</ele>
        <time>2022-04-15T11:59:56Z</time>
      </trkpt>
      <trkpt lat="45.56738" lon="5.79537">
        <ele>370.9</ele>
        <time>2022-04-15T11:59:57Z</time>
      </trkpt>
      <trkpt lat="45.56738" lon="5.79537">
        <ele>370.9</ele>
        <time>2022-04-15T11:59:58Z</time>
      </trkpt>
      <trkpt lat="45.56738" lon="5.79537">
        <ele>370.9</ele>
        <time>2022-04-15T11:59:59Z</time>
      </trkpt>
      <trkpt lat="45.56738" lon="5.79537">
        <ele>370.9</ele>
        <time>2022-04-15T12:00:00Z</time>
      </trkpt>
      <trkpt lat="45.56738" lon="5.79537">
        <ele>370.9</ele>
        <time>2022-04-15T12:00:01Z</time>
      </trkpt>
      <trkpt lat="45.56738" lon="5.79537">
        <ele>370.9</ele>
        <time>2022-04-15T12:00:02Z</time>
      </trkpt>
      <trkpt lat="45.56738" lon="5.79537">
        <ele>370.9</ele>
        <time>2022-04-15T12:00:03Z</time>
      </trkpt>
      <trkpt lat="45.56738" lon="5.79537">
        <ele>370.9</ele>
        <time>2022-04-15T12:00:04Z</time>
      </trkpt>
      <trkpt lat="45.56738" lon="5.79537">
        <ele>370.9</ele>
        <time>2022-04-15T12:00:05Z</time>
      </trkpt>
      <trkpt lat="45.56738" lon="5.79537">
        <ele>370.9</ele>
        <time>2022-04-15T12:00:06Z</time>
      </trkpt>
      <trkpt lat="45.56738" lon="5.79537">
        <ele>370.9</ele>
        <time>2022-04-15T12:00:07Z</time>
      </trkpt>
      <trkpt lat="45.56738" lon="5.79537">
        <ele>370.9</ele>
        <time>2022-04-15T12:00:08Z</time>
      </trkpt>
      <trkpt lat="45.56738" lon="5.79537">
        <ele>370.9</ele>
        <time>2022-04-15T12:00:09Z</time>
      </trkpt>
      <trkpt lat="45.56738" lon="5.79537">
        <ele>370.9</ele>
        <time>2022-04-15T12:00:10Z</time>
      </trkpt>
      <trkpt lat="45.56738" lon="5.79537">
        <ele>370.9</ele>
        <time>2022-04-15T12:00:11Z</time>
      </trkpt>
      <trkpt lat="45.56738" lon="5.79537">
        <ele>370.9</ele>
        <time>2022-04-15T12:00:12Z</time>
      </trkpt>
      <trkpt lat="45.56738" lon="5.79537">
        <ele>370.9</ele>
        <time>2022-04-15T12:00:13Z</time>
      </trkpt>
      <trkpt lat="45.56738" lon="5.79537">
        <ele>370.9</ele>
        <time>2022-04-15T12:00:14Z</time>
      </trkpt>
      <trkpt lat="45.56738" lon="5.79537">
        <ele>370.9</ele>
        <time>2022-04-15T12:00:15Z</time>
      </trkpt>
      <trkpt lat="45.56738" lon="5.79537">
        <ele>370.9</ele>
        <time>2022-04-15T12:00:16Z</time>
      </trkpt>
      <trkpt lat="45.56738" lon="5.79537">
        <ele>370.9</ele>
        <time>2022-04-15T12:00:17Z</time>
      </trkpt>
      <trkpt lat="45.56738" lon="5.79537">
        <ele>370.9</ele>
        <time>2022-04-15T12:00:18Z</time>
      </trkpt>
      <trkpt lat="45.56738" lon="5.79537">
        <ele>370.9</ele>
        <time>2022-04-15T12:00:19Z</time>
      </trkpt>
      <trkpt lat="45.56738" lon="5.79537">
        <ele>370.9</ele>
        <time>2022-04-15T12:00:20Z</time>
      </trkpt>
      <trkpt lat="45.56738" lon="5.79537">
        <ele>370.9</ele>
        <time>2022-04-15T12:00:21Z</time>
      </trkpt>
      <trkpt lat="45.56738" lon="5.79537">
        <ele>370.9</ele>
        <time>2022-04-15T12:00:22Z</time>
      </trkpt>
      <trkpt lat="45.56738" lon="5.79537">
        <ele>370.9</ele>
        <time>2022-04-15T12:00:23Z</time>
      </trkpt>
      <trkpt lat="45.56738" lon="5.79537">
        <ele>370.9</ele>
        <time>2022-04-15T12:00:24Z</time>
      </trkpt>
      <trkpt lat="45.56738" lon="5.79537">
        <ele>370.9</ele>
        <time>2022-04-15T12:00:25Z</time>
      </trkpt>
      <trkpt lat="45.56738" lon="5.79537">
        <ele>370.9</ele>
        <time>2022-04-15T12:00:26Z</time>
      </trkpt>
      <trkpt lat="45.56738" lon="5.79537">
        <ele>370.9</ele>
        <time>2022-04-15T12:00:27Z</time>
      </trkpt>
      <trkpt lat="45.56738" lon="5.79537">
        <ele>370.9</ele>
        <time>2022-04-15T12:00:28Z</time>
      </trkpt>
      <trkpt lat="45.56738" lon="5.79537">
        <ele>370.9</ele>
        <time>2022-04-15T12:00:29Z</time>
      </trkpt>
      <trkpt lat="45.56738" lon="5.79537">
        <ele>370.9</ele>
        <time>2022-04-15T12:00:30Z</time>
      </trkpt>
      <trkpt lat="45.56738" lon="5.79537">
        <ele>370.9</ele>
        <time>2022-04-15T12:00:31Z</time>
      </trkpt>
      <trkpt lat="45.56738" lon="5.79537">
        <ele>370.9</ele>
        <time>2022-04-15T12:00:32Z</time>
      </trkpt>
      <trkpt lat="45.56738" lon="5.79537">
        <ele>370.9</ele>
        <time>2022-04-15T12:00:33Z</time>
      </trkpt>
      <trkpt lat="45.56738" lon="5.79537">
        <ele>370.9</ele>
        <time>2022-04-15T12:00:34Z</time>
      </trkpt>
      <trkpt lat="45.56738" lon="5.79537">
        <ele>370.9</ele>
        <time>2022-04-15T12:00:35Z</time>
      </trkpt>
      <trkpt lat="45.56738" lon="5.79537">
        <ele>370.9</ele>
        <time>2022-04-15T12:00:36Z</time>
      </trkpt>
      <trkpt lat="45.56738" lon="5.79537">
        <ele>370.9</ele>
        <time>2022-04-15T12:00:37Z</time>
      </trkpt>
      <trkpt lat="45.56738" lon="5.79537">
        <ele>370.9</ele>
        <time>2022-04-15T12:00:38Z</time>
      </trkpt>
      <trkpt lat="45.56738" lon="5.79537">
        <ele>370.9</ele>
        <time>2022-04-15T12:00:39Z</time>
      </trkpt>
      <trkpt lat="45.56738" lon="5.79537">
        <ele>370.9</ele>
        <time>2022-04-15T12:00:40Z</time>
      </trkpt>
      <trkpt lat="45.56738" lon="5.79537">
        <ele>370.9</ele>
        <time>2022-04-15T12:00:41Z</time>
      </trkpt>
      <trkpt lat="45.56738" lon="5.79537">
        <ele>370.9</ele>
        <time>2022-04-15T12:00:42Z</time>
      </trkpt>
      <trkpt lat="45.56738" lon="5.79537">
        <ele>370.9</ele>
        <time>2022-04-15T12:00:43Z</time>
      </trkpt>
      <trkpt lat="45.56738" lon="5.79537">
        <ele>370.9</ele>
        <time>2022-04-15T12:00:44Z</time>
      </trkpt>
      <trkpt lat="45.56738" lon="5.79537">
        <ele>370.9</ele>
        <time>2022-04-15T12:00:45Z</time>
      </trkpt>
      <trkpt lat="45.56738" lon="5.79537">
        <ele>370.9</ele>
        <time>2022-04-15T12:00:46Z</time>
      </trkpt>
      <trkpt lat="45.56738" lon="5.79537">
        <ele>370.9</ele>
        <time>2022-04-15T12:00:47Z</time>
      </trkpt>
      <trkpt lat="45.56738" lon="5.79537">
        <ele>370.9</ele>
        <time>2022-04-15T12:00:48Z</time>
      </trkpt>
      <trkpt lat="45.56738" lon="5.79537">
        <ele>370.9</ele>
        <time>2022-04-15T12:00:49Z</time>
      </trkpt>
      <trkpt lat="45.56738" lon="5.79537">
        <ele>370.9</ele>
        <time>2022-04-15T12:00:50Z</time>
      </trkpt>
      <trkpt lat="45.56738" lon="5.79537">
        <ele>370.9</ele>
        <time>2022-04-15T12:00:51Z</time>
      </trkpt>
      <trkpt lat="45.56738" lon="5.79537">
        <ele>370.9</ele>
        <time>2022-04-15T12:00:52Z</time>
      </trkpt>
      <trkpt lat="45.56738" lon="5.79537">
        <ele>370.9</ele>
        <time>2022-04-15T12:00:53Z</time>
      </trkpt>
      <trkpt lat="45.56738" lon="5.79537">
        <ele>370.9</ele>
        <time>2022-04-15T12:00:54Z</time>
      </trkpt>
      <trkpt lat="45.56738" lon="5.79537">
        <ele>370.9</ele>
        <time>2022-04-15T12:00:55Z</time>
      </trkpt>
      <trkpt lat="45.56738" lon="5.79537">
        <ele>370.9</ele>
        <time>2022-04-15T12:00:56Z</time>
      </trkpt>
      <trkpt lat="45.56738" lon="5.79537">
        <ele>370.9</ele>
        <time>2022-04-15T12:00:57Z</time>
      </trkpt>
      <trkpt lat="45.56738" lon="5.79537">
        <ele>370.9</ele>
        <time>2022-04-15T12:00:58Z</time>
      </trkpt>
      <trkpt lat="45.56738" lon="5.79537">
        <ele>370.9</ele>
        <time>2022-04-15T12:00:59Z</time>
      </trkpt>
      <trkpt lat="45.56738" lon="5.79537">
        <ele>370.9</ele>
        <time>2022-04-15T12:01:00Z</time>
      </trkpt>
      <trkpt lat="45.56738" lon="5.79537">
        <ele>370.9</ele>
        <time>2022-04-15T12:01:01Z</time>
      </trkpt>
      <trkpt lat="45.56738" lon="5.79537">
        <ele>370.9</ele>
        <time>2022-04-15T12:01:02Z</time>
      </trkpt>
      <trkpt lat="45.56738" lon="5.79537">
        <ele>370.9</ele>
        <time>2022-04-15T12:01:03Z</time>
      </trkpt>
      <trkpt lat="45.56738" lon="5.79537">
        <ele>370.9</ele>
        <time>2022-04-15T12:01:04Z</time>
      </trkpt>
      <trkpt lat="45.56738" lon="5.79537">
        <ele>370.9</ele>
        <time>2022-04-15T12:01:05Z</time>
      </trkpt>
      <trkpt lat="45.56738" lon="5.79537">
        <ele>370.9</ele>
        <time>2022-04-15T12:01:06Z</time>
      </trkpt>
      <trkpt lat="45.56738" lon="5.79537">
        <ele>370.9</ele>
        <time>2022-04-15T12:01:07Z</time>
      </trkpt>
      <trkpt lat="45.56738" lon="5.79537">
        <ele>370.9</ele>
        <time>2022-04-15T12:01:08Z</time>
      </trkpt>
      <trkpt lat="45.56738" lon="5.79537">
        <ele>370.9</ele>
        <time>2022-04-15T12:01:09Z</time>
      </trkpt>
      <trkpt lat="45.56738" lon="5.79537">
        <ele>370.9</ele>
        <time>2022-04-15T12:01:10Z</time>
      </trkpt>
      <trkpt lat="45.56738" lon="5.79537">
        <ele>370.9</ele>
        <time>2022-04-15T12:01:11Z</time>
      </trkpt>
      <trkpt lat="45.56738" lon="5.79537">
        <ele>370.9</ele>
        <time>2022-04-15T12:01:12Z</time>
      </trkpt>
      <trkpt lat="45.56738" lon="5.79537">
        <ele>370.9</ele>
        <time>2022-04-15T12:01:13Z</time>
      </trkpt>
      <trkpt lat="45.56738" lon="5.79537">
        <ele>370.9</ele>
        <time>2022-04-15T12:01:14Z</time>
      </trkpt>
      <trkpt lat="45.56738" lon="5.79537">
        <ele>370.9</ele>
        <time>2022-04-15T12:01:15Z</time>
      </trkpt>
      <trkpt lat="45.56738" lon="5.79537">
        <ele>370.9</ele>
        <time>2022-04-15T12:01:16Z</time>
      </trkpt>
      <trkpt lat="45.56738" lon="5.79537">
        <ele>370.9</ele>
        <time>2022-04-15T12:01:17Z</time>
      </trkpt>
      <trkpt lat="45.56738" lon="5.79537">
        <ele>370.9</ele>
        <time>2022-04-15T12:01:18Z</time>
      </trkpt>
      <trkpt lat="45.56738" lon="5.79537">
        <ele>370.9</ele>
        <time>2022-04-15T12:01:19Z</time>
      </trkpt>
      <trkpt lat="45.56738" lon="5.79537">
        <ele>370.9</ele>
        <time>2022-04-15T12:01:20Z</time>
      </trkpt>
      <trkpt lat="45.56738" lon="5.79537">
        <ele>370.9</ele>
        <time>2022-04-15T12:01:21Z</time>
      </trkpt>
      <trkpt lat="45.56738" lon="5.79537">
        <ele>370.9</ele>
        <time>2022-04-15T12:01:22Z</time>
      </trkpt>
      <trkpt lat="45.56738" lon="5.79537">
        <ele>370.9</ele>
        <time>2022-04-15T12:01:23Z</time>
      </trkpt>
      <trkpt lat="45.56738" lon="5.79537">
        <ele>370.9</ele>
        <time>2022-04-15T12:01:24Z</time>
      </trkpt>
      <trkpt lat="45.56738" lon="5.79537">
        <ele>370.9</ele>
        <time>2022-04-15T12:01:25Z</time>
      </trkpt>
      <trkpt lat="45.56738" lon="5.79537">
        <ele>370.9</ele>
        <time>2022-04-15T12:01:26Z</time>
      </trkpt>
      <trkpt lat="45.56738" lon="5.79537">
        <ele>370.9</ele>
        <time>2022-04-15T12:01:27Z</time>
      </trkpt>
      <trkpt lat="45.56738" lon="5.79537">
        <ele>370.9</ele>
        <time>2022-04-15T12:01:28Z</time>
      </trkpt>
      <trkpt lat="45.56738" lon="5.79537">
        <ele>370.9</ele>
        <time>2022-04-15T12:01:29Z</time>
      </trkpt>
      <trkpt lat="45.56738" lon="5.79537">
        <ele>370.9</ele>
        <time>2022-04-15T12:01:30Z</time>
      </trkpt>
      <trkpt lat="45.56738" lon="5.79537">
        <ele>370.9</ele>
        <time>2022-04-15T12:01:31Z</time>
      </trkpt>
      <trkpt lat="45.56738" lon="5.79537">
        <ele>370.9</ele>
        <time>2022-04-15T12:01:32Z</time>
      </trkpt>
      <trkpt lat="45.56738" lon="5.79537">
        <ele>370.9</ele>
        <time>2022-04-15T12:01:33Z</time>
      </trkpt>
      <trkpt lat="45.56738" lon="5.79537">
        <ele>370.9</ele>
        <time>2022-04-15T12:01:34Z</time>
      </trkpt>
      <trkpt lat="45.56738" lon="5.79537">
        <ele>370.9</ele>
        <time>2022-04-15T12:01:35Z</time>
      </trkpt>
      <trkpt lat="45.56738" lon="5.79537">
        <ele>370.9</ele>
        <time>2022-04-15T12:01:36Z</time>
      </trkpt>
      <trkpt lat="45.56738" lon="5.79537">
        <ele>370.9</ele>
        <time>2022-04-15T12:01:37Z</time>
      </trkpt>
      <trkpt lat="45.56738" lon="5.79537">
        <ele>370.9</ele>
        <time>2022-04-15T12:01:38Z</time>
      </trkpt>
      <trkpt lat="45.56738" lon="5.79537">
        <ele>370.9</ele>
        <time>2022-04-15T12:01:39Z</time>
      </trkpt>
      <trkpt lat="45.56738" lon="5.79537">
        <ele>370.9</ele>
        <time>2022-04-15T12:01:40Z</time>
      </trkpt>
      <trkpt lat="45.56738" lon="5.79537">
        <ele>370.9</ele>
        <time>2022-04-15T12:01:41Z</time>
      </trkpt>
      <trkpt lat="45.56738" lon="5.79537">
        <ele>370.9</ele>
        <time>2022-04-15T12:01:42Z</time>
      </trkpt>
      <trkpt lat="45.56738" lon="5.79537">
        <ele>370.9</ele>
        <time>2022-04-15T12:01:43Z</time>
      </trkpt>
      <trkpt lat="45.56738" lon="5.79537">
        <ele>370.9</ele>
        <time>2022-04-15T12:01:44Z</time>
      </trkpt>
      <trkpt lat="45.56738" lon="5.79537">
        <ele>370.9</ele>
        <time>2022-04-15T12:01:45Z</time>
      </trkpt>
      <trkpt lat="45.56738" lon="5.79537">
        <ele>370.9</ele>
        <time>2022-04-15T12:01:46Z</time>
      </trkpt>
      <trkpt lat="45.56738" lon="5.79537">
        <ele>370.9</ele>
        <time>2022-04-15T12:01:47Z</time>
      </trkpt>
      <trkpt lat="45.56738" lon="5.79537">
        <ele>370.9</ele>
        <time>2022-04-15T12:01:48Z</time>
      </trkpt>
      <trkpt lat="45.56738" lon="5.79537">
        <ele>370.9</ele>
        <time>2022-04-15T12:01:49Z</time>
      </trkpt>
      <trkpt lat="45.56738" lon="5.79537">
        <ele>370.9</ele>
        <time>2022-04-15T12:01:50Z</time>
      </trkpt>
      <trkpt lat="45.56738" lon="5.79537">
        <ele>370.9</ele>
        <time>2022-04-15T12:01:51Z</time>
      </trkpt>
      <trkpt lat="45.56738" lon="5.79537">
        <ele>370.9</ele>
        <time>2022-04-15T12:01:52Z</time>
      </trkpt>
      <trkpt lat="45.56738" lon="5.79537">
        <ele>370.9</ele>
        <time>2022-04-15T12:01:53Z</time>
      </trkpt>
      <trkpt lat="45.56738" lon="5.79537">
        <ele>370.9</ele>
        <time>2022-04-15T12:01:54Z</time>
      </trkpt>
      <trkpt lat="45.56738" lon="5.79537">
        <ele>370.9</ele>
        <time>2022-04-15T12:01:55Z</time>
      </trkpt>
      <trkpt lat="45.56738" lon="5.79537">
        <ele>370.9</ele>
        <time>2022-04-15T12:01:56Z</time>
      </trkpt>
      <trkpt lat="45.56738" lon="5.79537">
        <ele>370.9</ele>
        <time>2022-04-15T12:01:57Z</time>
      </trkpt>
      <trkpt lat="45.56738" lon="5.79537">
        <ele>370.9</ele>
        <time>2022-04-15T12:01:58Z</time>
      </trkpt>
      <trkpt lat="45.56738" lon="5.79537">
        <ele>370.9</ele>
        <time>2022-04-15T12:01:59Z</time>
      </trkpt>
      <trkpt lat="45.56738" lon="5.79537">
        <ele>370.9</ele>
        <time>2022-04-15T12:02:00Z</time>
      </trkpt>
      <trkpt lat="45.56738" lon="5.79537">
        <ele>370.9</ele>
        <time>2022-04-15T12:02:01Z</time>
      </trkpt>
      <trkpt lat="45.56738" lon="5.79537">
        <ele>370.9</ele>
        <time>2022-04-15T12:02:02Z</time>
      </trkpt>
      <trkpt lat="45.56738" lon="5.79537">
        <ele>370.9</ele>
        <time>2022-04-15T12:02:03Z</time>
      </trkpt>
      <trkpt lat="45.56738" lon="5.79537">
        <ele>370.9</ele>
        <time>2022-04-15T12:02:04Z</time>
      </trkpt>
      <trkpt lat="45.56738" lon="5.79537">
        <ele>370.9</ele>
        <time>2022-04-15T12:02:05Z</time>
      </trkpt>
      <trkpt lat="45.56738" lon="5.79537">
        <ele>370.9</ele>
        <time>2022-04-15T12:02:06Z</time>
      </trkpt>
      <trkpt lat="45.56738" lon="5.79537">
        <ele>370.9</ele>
        <time>2022-04-15T12:02:07Z</time>
      </trkpt>
      <trkpt lat="45.56738" lon="5.79537">
        <ele>370.9</ele>
        <time>2022-04-15T12:02:08Z</time>
      </trkpt>
      <trkpt lat="45.56738" lon="5.79537">
        <ele>370.9</ele>
        <time>2022-04-15T12:02:09Z</time>
      </trkpt>
      <trkpt lat="45.56738" lon="5.79537">
        <ele>370.9</ele>
        <time>2022-04-15T12:02:10Z</time>
      </trkpt>
      <trkpt lat="45.56738" lon="5.79537">
        <ele>370.9</ele>
        <time>2022-04-15T12:02:11Z</time>
      </trkpt>
      <trkpt lat="45.56738" lon="5.79537">
        <ele>370.9</ele>
        <time>2022-04-15T12:02:12Z</time>
      </trkpt>
      <trkpt lat="45.56738" lon="5.79537">
        <ele>370.9</ele>
        <time>2022-04-15T12:02:13Z</time>
      </trkpt>
      <trkpt lat="45.56738" lon="5.79537">
        <ele>370.9</ele>
        <time>2022-04-15T12:02:14Z</time>
      </trkpt>
      <trkpt lat="45.56738" lon="5.79537">
        <ele>370.9</ele>
        <time>2022-04-15T12:02:15Z</time>
      </trkpt>
      <trkpt lat="45.56738" lon="5.79537">
        <ele>370.9</ele>
        <time>2022-04-15T12:02:16Z</time>
      </trkpt>
      <trkpt lat="45.56738" lon="5.79537">
        <ele>370.9</ele>
        <time>2022-04-15T12:02:17Z</time>
      </trkpt>
      <trkpt lat="45.56738" lon="5.79537">
        <ele>370.9</ele>
        <time>2022-04-15T12:02:18Z</time>
      </trkpt>
      <trkpt lat="45.56738" lon="5.79537">
        <ele>370.9</ele>
        <time>2022-04-15T12:02:19Z</time>
      </trkpt>
      <trkpt lat="45.56738" lon="5.79537">
        <ele>370.9</ele>
        <time>2022-04-15T12:02:20Z</time>
      </trkpt>
      <trkpt lat="45.56738" lon="5.79537">
        <ele>370.9</ele>
        <time>2022-04-15T12:02:21Z</time>
      </trkpt>
      <trkpt lat="45.56738" lon="5.79537">
        <ele>370.9</ele>
        <time>2022-04-15T12:02:22Z</time>
      </trkpt>
      <trkpt lat="45.56738" lon="5.79537">
        <ele>370.9</ele>
        <time>2022-04-15T12:02:23Z</time>
      </trkpt>
      <trkpt lat="45.56738" lon="5.79537">
        <ele>370.9</ele>
        <time>2022-04-15T12:02:24Z</time>
      </trkpt>
      <trkpt lat="45.56738" lon="5.79537">
        <ele>370.9</ele>
        <time>2022-04-15T12:02:25Z</time>
      </trkpt>
      <trkpt lat="45.56738" lon="5.79537">
        <ele>370.9</ele>
        <time>2022-04-15T12:02:26Z</time>
      </trkpt>
      <trkpt lat="45.56738" lon="5.79537">
        <ele>370.9</ele>
        <time>2022-04-15T12:02:27Z</time>
      </trkpt>
      <trkpt lat="45.56738" lon="5.79537">
        <ele>370.9</ele>
        <time>2022-04-15T12:02:28Z</time>
      </trkpt>
      <trkpt lat="45.56738" lon="5.79537">
        <ele>370.9</ele>
        <time>2022-04-15T12:02:29Z</time>
      </trkpt>
      <trkpt lat="45.56738" lon="5.79537">
        <ele>370.9</ele>
        <time>2022-04-15T12:02:30Z</time>
      </trkpt>
      <trkpt lat="45.56738" lon="5.79537">
        <ele>370.9</ele>
        <time>2022-04-15T12:02:31Z</time>
      </trkpt>
      <trkpt lat="45.56738" lon="5.79537">
        <ele>370.9</ele>
        <time>2022-04-15T12:02:32Z</time>
      </trkpt>
      <trkpt lat="45.56738" lon="5.79537">
        <ele>370.9</ele>
        <time>2022-04-15T12:02:33Z</time>
      </trkpt>
      <trkpt lat="45.56738" lon="5.79537">
        <ele>370.9</ele>
        <time>2022-04-15T12:02:34Z</time>
      </trkpt>
      <trkpt lat="45.56738" lon="5.79537">
        <ele>370.9</ele>
        <time>2022-04-15T12:02:35Z</time>
      </trkpt>
      <trkpt lat="45.56738" lon="5.79537">
        <ele>370.9</ele>
        <time>2022-04-15T12:02:36Z</time>
      </trkpt>
      <trkpt lat="45.56738" lon="5.79537">
        <ele>370.9</ele>
        <time>2022-04-15T12:02:37Z</time>
      </trkpt>
      <trkpt lat="45.56738" lon="5.79537">
        <ele>370.9</ele>
        <time>2022-04-15T12:02:38Z</time>
      </trkpt>
      <trkpt lat="45.56738" lon="5.79537">
        <ele>370.9</ele>
        <time>2022-04-15T12:02:39Z</time>
      </trkpt>
      <trkpt lat="45.56738" lon="5.79537">
        <ele>370.9</ele>
        <time>2022-04-15T12:02:40Z</time>
      </trkpt>
      <trkpt lat="45.56738" lon="5.79537">
        <ele>370.9</ele>
        <time>2022-04-15T12:02:41Z</time>
      </trkpt>
      <trkpt lat="45.56738" lon="5.79537">
        <ele>370.9</ele>
        <time>2022-04-15T12:02:42Z</time>
      </trkpt>
      <trkpt lat="45.56738" lon="5.79537">
        <ele>370.9</ele>
        <time>2022-04-15T12:02:43Z</time>
      </trkpt>
      <trkpt lat="45.56738" lon="5.79537">
        <ele>370.9</ele>
        <time>2022-04-15T12:02:44Z</time>
      </trkpt>
      <trkpt lat="45.56738" lon="5.79537">
        <ele>370.9</ele>
        <time>2022-04-15T12:02:45Z</time>
      </trkpt>
      <trkpt lat="45.56738" lon="5.79537">
        <ele>370.9</ele>
        <time>2022-04-15T12:02:46Z</time>
      </trkpt>
      <trkpt lat="45.56738" lon="5.79537">
        <ele>370.9</ele>
        <time>2022-04-15T12:02:47Z</time>
      </trkpt>
      <trkpt lat="45.56738" lon="5.79537">
        <ele>370.9</ele>
        <time>2022-04-15T12:02:48Z</time>
      </trkpt>
      <trkpt lat="45.56738" lon="5.79537">
        <ele>370.9</ele>
        <time>2022-04-15T12:02:49Z</time>
      </trkpt>
      <trkpt lat="45.56738" lon="5.79537">
        <ele>370.9</ele>
        <time>2022-04-15T12:02:50Z</time>
      </trkpt>
      <trkpt lat="45.56738" lon="5.79537">
        <ele>370.9</ele>
        <time>2022-04-15T12:02:51Z</time>
      </trkpt>
      <trkpt lat="45.56738" lon="5.79537">
        <ele>370.9</ele>
        <time>2022-04-15T12:02:52Z</time>
      </trkpt>
      <trkpt lat="45.56738" lon="5.79537">
        <ele>370.9</ele>
        <time>2022-04-15T12:02:53Z</time>
      </trkpt>
      <trkpt lat="45.56738" lon="5.79537">
        <ele>370.9</ele>
        <time>2022-04-15T12:02:54Z</time>
      </trkpt>
      <trkpt lat="45.56738" lon="5.79537">
        <ele>370.9</ele>
        <time>2022-04-15T12:02:55Z</time>
      </trkpt>
      <trkpt lat="45.56738" lon="5.79537">
        <ele>370.9</ele>
        <time>2022-04-15T12:02:56Z</time>
      </trkpt>
      <trkpt lat="45.56738" lon="5.79537">
        <ele>370.9</ele>
        <time>2022-04-15T12:02:57Z</time>
      </trkpt>
      <trkpt lat="45.56738" lon="5.79537">
        <ele>370.9</ele>
        <time>2022-04-15T12:02:58Z</time>
      </trkpt>
      <trkpt lat="45.56738" lon="5.79537">
        <ele>370.9</ele>
        <time>2022-04-15T12:02:59Z</time>
      </trkpt>
      <trkpt lat="45.56738" lon="5.79537">
        <ele>370.9</ele>
        <time>2022-04-15T12:03:00Z</time>
      </trkpt>
      <trkpt lat="45.56738" lon="5.79537">
        <ele>370.9</ele>
        <time>2022-04-15T12:03:01Z</time>
      </trkpt>
      <trkpt lat="45.56738" lon="5.79537">
        <ele>370.9</ele>
        <time>2022-04-15T12:03:02Z</time>
      </trkpt>
      <trkpt lat="45.56738" lon="5.79537">
        <ele>370.9</ele>
        <time>2022-04-15T12:03:03Z</time>
      </trkpt>
      <trkpt lat="45.56738" lon="5.79537">
        <ele>370.9</ele>
        <time>2022-04-15T12:03:04Z</time>
      </trkpt>
      <trkpt lat="45.56738" lon="5.79537">
        <ele>370.9</ele>
        <time>2022-04-15T12:03:05Z</time>
      </trkpt>
      <trkpt lat="45.56738" lon="5.79537">
        <ele>370.9</ele>
        <time>2022-04-15T12:03:06Z</time>
      </trkpt>
      <trkpt lat="45.56738" lon="5.79537">
        <ele>370.9</ele>
        <time>2022-04-15T12:03:07Z</time>
      </trkpt>
      <trkpt lat="45.56738" lon="5.79537">
        <ele>370.9</ele>
        <time>2022-04-15T12:03:08Z</time>
      </trkpt>
      <trkpt lat="45.56738" lon="5.79537">
        <ele>370.9</ele>
        <time>2022-04-15T12:03:09Z</time>
      </trkpt>
      <trkpt lat="45.56738" lon="5.79537">
        <ele>370.9</ele>
        <time>2022-04-15T12:03:10Z</time>
      </trkpt>
      <trkpt lat="45.56738" lon="5.79537">
        <ele>370.9</ele>
        <time>2022-04-15T12:03:11Z</time>
      </trkpt>
      <trkpt lat="45.56738" lon="5.79537">
        <ele>370.9</ele>
        <time>2022-04-15T12:03:12Z</time>
      </trkpt>
      <trkpt lat="45.56738" lon="5.79537">
        <ele>370.9</ele>
        <time>2022-04-15T12:03:13Z</time>
      </trkpt>
      <trkpt lat="45.56738" lon="5.79537">
        <ele>370.9</ele>
        <time>2022-04-15T12:03:14Z</time>
      </trkpt>
      <trkpt lat="45.56738" lon="5.79537">
        <ele>370.9</ele>
        <time>2022-04-15T12:03:15Z</time>
      </trkpt>
      <trkpt lat="45.56738" lon="5.79537">
        <ele>370.9</ele>
        <time>2022-04-15T12:03:16Z</time>
      </trkpt>
      <trkpt lat="45.56738" lon="5.79537">
        <ele>370.9</ele>
        <time>2022-04-15T12:03:17Z</time>
      </trkpt>
      <trkpt lat="45.56738" lon="5.79537">
        <ele>370.9</ele>
        <time>2022-04-15T12:03:18Z</time>
      </trkpt>
      <trkpt lat="45.56738" lon="5.79537">
        <ele>370.9</ele>
        <time>2022-04-15T12:03:19Z</time>
      </trkpt>
      <trkpt lat="45.56738" lon="5.79537">
        <ele>370.9</ele>
        <time>2022-04-15T12:03:20Z</time>
      </trkpt>
      <trkpt lat="45.56738" lon="5.79537">
        <ele>370.9</ele>
        <time>2022-04-15T12:03:21Z</time>
      </trkpt>
      <trkpt lat="45.56738" lon="5.79537">
        <ele>370.9</ele>
        <time>2022-04-15T12:03:22Z</time>
      </trkpt>
      <trkpt lat="45.56738" lon="5.79537">
        <ele>370.9</ele>
        <time>2022-04-15T12:03:23Z</time>
      </trkpt>
      <trkpt lat="45.56738" lon="5.79537">
        <ele>370.9</ele>
        <time>2022-04-15T12:03:24Z</time>
      </trkpt>
      <trkpt lat="45.56738" lon="5.79537">
        <ele>370.9</ele>
        <time>2022-04-15T12:03:25Z</time>
      </trkpt>
      <trkpt lat="45.56738" lon="5.79537">
        <ele>370.9</ele>
        <time>2022-04-15T12:03:26Z</time>
      </trkpt>
      <trkpt lat="45.56738" lon="5.79537">
        <ele>370.9</ele>
        <time>2022-04-15T12:03:27Z</time>
      </trkpt>
      <trkpt lat="45.56738" lon="5.79537">
        <ele>370.9</ele>
        <time>2022-04-15T12:03:28Z</time>
      </trkpt>
      <trkpt lat="45.56738" lon="5.79537">
        <ele>370.9</ele>
        <time>2022-04-15T12:03:29Z</time>
      </trkpt>
      <trkpt lat="45.56738" lon="5.79537">
        <ele>370.9</ele>
        <time>2022-04-15T12:03:30Z</time>
      </trkpt>
      <trkpt lat="45.56738" lon="5.79537">
        <ele>370.9</ele>
        <time>2022-04-15T12:03:31Z</time>
      </trkpt>
      <trkpt lat="45.56738" lon="5.79537">
        <ele>370.9</ele>
        <time>2022-04-15T12:03:32Z</time>
      </trkpt>
      <trkpt lat="45.56738" lon="5.79537">
        <ele>370.9</ele>
        <time>2022-04-15T12:03:33Z</time>
      </trkpt>
      <trkpt lat="45.56738" lon="5.79537">
        <ele>370.9</ele>
        <time>2022-04-15T12:03:34Z</time>
      </trkpt>
      <trkpt lat="45.56738" lon="5.79537">
        <ele>370.9</ele>
        <time>2022-04-15T12:03:35Z</time>
      </trkpt>
      <trkpt lat="45.56738" lon="5.79537">
        <ele>370.9</ele>
        <time>2022-04-15T12:03:36Z</time>
      </trkpt>
      <trkpt lat="45.56738" lon="5.79537">
        <ele>370.9</ele>
        <time>2022-04-15T12:03:37Z</time>
      </trkpt>
      <trkpt lat="45.56738" lon="5.79537">
        <ele>370.9</ele>
        <time>2022-04-15T12:03:38Z</time>
      </trkpt>
      <trkpt lat="45.56738" lon="5.79537">
        <ele>370.9</ele>
        <time>2022-04-15T12:03:39Z</time>
      </trkpt>
      <trkpt lat="45.56738" lon="5.79537">
        <ele>370.9</ele>
        <time>2022-04-15T12:03:40Z</time>
      </trkpt>
      <trkpt lat="45.56738" lon="5.79537">
        <ele>370.9</ele>
        <time>2022-04-15T12:03:41Z</time>
      </trkpt>
      <trkpt lat="45.56738" lon="5.79537">
        <ele>370.9</ele>
        <time>2022-04-15T12:03:42Z</time>
      </trkpt>
      <trkpt lat="45.56738" lon="5.79537">
        <ele>370.9</ele>
        <time>2022-04-15T12:03:43Z</time>
      </trkpt>
      <trkpt lat="45.56738" lon="5.79537">
        <ele>370.9</ele>
        <time>2022-04-15T12:03:44Z</time>
      </trkpt>
      <trkpt lat="45.56738" lon="5.79537">
        <ele>370.9</ele>
        <time>2022-04-15T12:03:45Z</time>
      </trkpt>
      <trkpt lat="45.56738" lon="5.79537">
        <ele>370.9</ele>
        <time>2022-04-15T12:03:46Z</time>
      </trkpt>
      <trkpt lat="45.56738" lon="5.79537">
        <ele>370.9</ele>
        <time>2022-04-15T12:03:47Z</time>
      </trkpt>
      <trkpt lat="45.56738" lon="5.79537">
        <ele>370.9</ele>
        <time>2022-04-15T12:03:48Z</time>
      </trkpt>
      <trkpt lat="45.56738" lon="5.79537">
        <ele>370.9</ele>
        <time>2022-04-15T12:03:49Z</time>
      </trkpt>
      <trkpt lat="45.56738" lon="5.79537">
        <ele>370.9</ele>
        <time>2022-04-15T12:03:50Z</time>
      </trkpt>
      <trkpt lat="45.56738" lon="5.79537">
        <ele>370.9</ele>
        <time>2022-04-15T12:03:51Z</time>
      </trkpt>
      <trkpt lat="45.56738" lon="5.79537">
        <ele>370.9</ele>
        <time>2022-04-15T12:03:52Z</time>
      </trkpt>
      <trkpt lat="45.56738" lon="5.79537">
        <ele>370.9</ele>
        <time>2022-04-15T12:03:53Z</time>
      </trkpt>
      <trkpt lat="45.56738" lon="5.79537">
        <ele>370.9</ele>
        <time>2022-04-15T12:03:54Z</time>
      </trkpt>
      <trkpt lat="45.56738" lon="5.79537">
        <ele>370.9</ele>
        <time>2022-04-15T12:03:55Z</time>
      </trkpt>
      <trkpt lat="45.56738" lon="5.79537">
        <ele>370.9</ele>
        <time>2022-04-15T12:03:56Z</time>
      </trkpt>
      <trkpt lat="45.56738" lon="5.79537">
        <ele>370.9</ele>
        <time>2022-04-15T12:03:57Z</time>
      </trkpt>
      <trkpt lat="45.56738" lon="5.79537">
        <ele>370.9</ele>
        <time>2022-04-15T12:03:58Z</time>
      </trkpt>
      <trkpt lat="45.56738" lon="5.79537">
        <ele>370.9</ele>
        <time>2022-04-15T12:03:59Z</time>
      </trkpt>
      <trkpt lat="45.56738" lon="5.79537">
        <ele>370.9</ele>
        <time>2022-04-15T12:04:00Z</time>
      </trkpt>
      <trkpt lat="45.56738" lon="5.79537">
        <ele>370.9</ele>
        <time>2022-04-15T12:04:01Z</time>
      </trkpt>
      <trkpt lat="45.56738" lon="5.79537">
        <ele>370.9</ele>
        <time>2022-04-15T12:04:02Z</time>
      </trkpt>
      <trkpt lat="45.56738" lon="5.79537">
        <ele>370.9</ele>
        <time>2022-04-15T12:04:03Z</time>
      </trkpt>
      <trkpt lat="45.56738" lon="5.79537">
        <ele>370.9</ele>
        <time>2022-04-15T12:04:04Z</time>
      </trkpt>
      <trkpt lat="45.56738" lon="5.79537">
        <ele>370.9</ele>
        <time>2022-04-15T12:04:05Z</time>
      </trkpt>
      <trkpt lat="45.56738" lon="5.79537">
        <ele>370.9</ele>
        <time>2022-04-15T12:04:06Z</time>
      </trkpt>
      <trkpt lat="45.56738" lon="5.79537">
        <ele>370.9</ele>
        <time>2022-04-15T12:04:07Z</time>
      </trkpt>
      <trkpt lat="45.56738" lon="5.79537">
        <ele>370.9</ele>
        <time>2022-04-15T12:04:08Z</time>
      </trkpt>
      <trkpt lat="45.56738" lon="5.79537">
        <ele>370.9</ele>
        <time>2022-04-15T12:04:09Z</time>
      </trkpt>
      <trkpt lat="45.56738" lon="5.79537">
        <ele>370.9</ele>
        <time>2022-04-15T12:04:10Z</time>
      </trkpt>
      <trkpt lat="45.56738" lon="5.79537">
        <ele>370.9</ele>
        <time>2022-04-15T12:04:11Z</time>
      </trkpt>
      <trkpt lat="45.56738" lon="5.79537">
        <ele>370.9</ele>
        <time>2022-04-15T12:04:12Z</time>
      </trkpt>
      <trkpt lat="45.56738" lon="5.79537">
        <ele>370.9</ele>
        <time>2022-04-15T12:04:13Z</time>
      </trkpt>
      <trkpt lat="45.56738" lon="5.79537">
        <ele>370.9</ele>
        <time>2022-04-15T12:04:14Z</time>
      </trkpt>
      <trkpt lat="45.56738" lon="5.79537">
        <ele>370.9</ele>
        <time>2022-04-15T12:04:15Z</time>
      </trkpt>
      <trkpt lat="45.56738" lon="5.79537">
        <ele>370.9</ele>
        <time>2022-04-15T12:04:16Z</time>
      </trkpt>
      <trkpt lat="45.56738" lon="5.79537">
        <ele>370.9</ele>
        <time>2022-04-15T12:04:17Z</time>
      </trkpt>
      <trkpt lat="45.56738" lon="5.79537">
        <ele>370.9</ele>
        <time>2022-04-15T12:04:18Z</time>
      </trkpt>
      <trkpt lat="45.56738" lon="5.79537">
        <ele>370.9</ele>
        <time>2022-04-15T12:04:19Z</time>
      </trkpt>
      <trkpt lat="45.56738" lon="5.79537">
        <ele>370.9</ele>
        <time>2022-04-15T12:04:20Z</time>
      </trkpt>
      <trkpt lat="45.56738" lon="5.79537">
        <ele>370.9</ele>
        <time>2022-04-15T12:04:21Z</time>
      </trkpt>
      <trkpt lat="45.56738" lon="5.79537">
        <ele>370.9</ele>
        <time>2022-04-15T12:04:22Z</time>
      </trkpt>
      <trkpt lat="45.56738" lon="5.79537">
        <ele>370.9</ele>
        <time>2022-04-15T12:04:23Z</time>
      </trkpt>
      <trkpt lat="45.56738" lon="5.79537">
        <ele>370.9</ele>
        <time>2022-04-15T12:04:24Z</time>
      </trkpt>
      <trkpt lat="45.56738" lon="5.79537">
        <ele>370.9</ele>
        <time>2022-04-15T12:04:25Z</time>
      </trkpt>
      <trkpt lat="45.56738" lon="5.79537">
        <ele>370.9</ele>
        <time>2022-04-15T12:04:26Z</time>
      </trkpt>
      <trkpt lat="45.56738" lon="5.79537">
        <ele>370.9</ele>
        <time>2022-04-15T12:04:27Z</time>
      </trkpt>
      <trkpt lat="45.56738" lon="5.79537">
        <ele>370.9</ele>
        <time>2022-04-15T12:04:28Z</time>
      </trkpt>
      <trkpt lat="45.56738" lon="5.79537">
        <ele>370.9</ele>
        <time>2022-04-15T12:04:29Z</time>
      </trkpt>
      <trkpt lat="45.56738" lon="5.79537">
        <ele>370.9</ele>
        <time>2022-04-15T12:04:30Z</time>
      </trkpt>
      <trkpt lat="45.56738" lon="5.79537">
        <ele>370.9</ele>
        <time>2022-04-15T12:04:31Z</time>
      </trkpt>
      <trkpt lat="45.56738" lon="5.79537">
        <ele>370.9</ele>
        <time>2022-04-15T12:04:32Z</time>
      </trkpt>
      <trkpt lat="45.56738" lon="5.79537">
        <ele>370.9</ele>
        <time>2022-04-15T12:04:33Z</time>
      </trkpt>
      <trkpt lat="45.56738" lon="5.79537">
        <ele>370.9</ele>
        <time>2022-04-15T12:04:34Z</time>
      </trkpt>
      <trkpt lat="45.56738" lon="5.79537">
        <ele>370.9</ele>
        <time>2022-04-15T12:04:35Z</time>
      </trkpt>
      <trkpt lat="45.56738" lon="5.79537">
        <ele>370.9</ele>
        <time>2022-04-15T12:04:36Z</time>
      </trkpt>
      <trkpt lat="45.56738" lon="5.79537">
        <ele>370.9</ele>
        <time>2022-04-15T12:04:37Z</time>
      </trkpt>
      <trkpt lat="45.56738" lon="5.79537">
        <ele>370.9</ele>
        <time>2022-04-15T12:04:38Z</time>
      </trkpt>
      <trkpt lat="45.56738" lon="5.79537">
        <ele>370.9</ele>
        <time>2022-04-15T12:04:39Z</time>
      </trkpt>
      <trkpt lat="45.56738" lon="5.79537">
        <ele>370.9</ele>
        <time>2022-04-15T12:04:40Z</time>
      </trkpt>
      <trkpt lat="45.56738" lon="5.79537">
        <ele>370.9</ele>
        <time>2022-04-15T12:04:41Z</time>
      </trkpt>
      <trkpt lat="45.56738" lon="5.79537">
        <ele>370.9</ele>
        <time>2022-04-15T12:04:42Z</time>
      </trkpt>
      <trkpt lat="45.56738" lon="5.79537">
        <ele>370.9</ele>
        <time>2022-04-15T12:04:43Z</time>
      </trkpt>
      <trkpt lat="45.56738" lon="5.79537">
        <ele>370.9</ele>
        <time>2022-04-15T12:04:44Z</time>
      </trkpt>
      <trkpt lat="45.56738" lon="5.79537">
        <ele>370.9</ele>
        <time>2022-04-15T12:04:45Z</time>
      </trkpt>
      <trkpt lat="45.56738" lon="5.79537">
        <ele>370.9</ele>
        <time>2022-04-15T12:04:46Z</time>
      </trkpt>
      <trkpt lat="45.56738" lon="5.79537">
        <ele>370.9</ele>
        <time>2022-04-15T12:04:47Z</time>
      </trkpt>
      <trkpt lat="45.56738" lon="5.79537">
        <ele>370.9</ele>
        <time>2022-04-15T12:04:48Z</time>
      </trkpt>
      <trkpt lat="45.56738" lon="5.79537">
        <ele>370.9</ele>
        <time>2022-04-15T12:04:49Z</time>
      </trkpt>
      <trkpt lat="45.56738" lon="5.79537">
        <ele>370.9</ele>
        <time>2022-04-15T12:04:50Z</time>
      </trkpt>
      <trkpt lat="45.56738" lon="5.79537">
        <ele>370.9</ele>
        <time>2022-04-15T12:04:51Z</time>
      </trkpt>
      <trkpt lat="45.56738" lon="5.79537">
        <ele>370.9</ele>
        <time>2022-04-15T12:04:52Z</time>
      </trkpt>
      <trkpt lat="45.56738" lon="5.79537">
        <ele>370.9</ele>
        <time>2022-04-15T12:04:53Z</time>
      </trkpt>
      <trkpt lat="45.56738" lon="5.79537">
        <ele>370.9</ele>
        <time>2022-04-15T12:04:54Z</time>
      </trkpt>
      <trkpt lat="45.56738" lon="5.79537">
        <ele>370.9</ele>
        <time>2022-04-15T12:04:55Z</time>
      </trkpt>
      <trkpt lat="45.56738" lon="5.79537">
        <ele>370.9</ele>
        <time>2022-04-15T12:04:56Z</time>
      </trkpt>
      <trkpt lat="45.56738" lon="5.79537">
        <ele>370.9</ele>
        <time>2022-04-15T12:04:57Z</time>
      </trkpt>
      <trkpt lat="45.56738" lon="5.79537">
        <ele>370.9</ele>
        <time>2022-04-15T12:04:58Z</time>
      </trkpt>
      <trkpt lat="45.56738" lon="5.79537">
        <ele>370.9</ele>
        <time>2022-04-15T12:04:59Z</time>
      </trkpt>
      <trkpt lat="45.56738" lon="5.79537">
        <ele>370.9</ele>
        <time>2022-04-15T12:05:00Z</time>
      </trkpt>
      <trkpt lat="45.56738" lon="5.79537">
        <ele>370.9</ele>
        <time>2022-04-15T12:05:01Z</time>
      </trkpt>
      <trkpt lat="45.56738" lon="5.79537">
        <ele>370.9</ele>
        <time>2022-04-15T12:05:02Z</time>
      </trkpt>
      <trkpt lat="45.56738" lon="5.79537">
        <ele>370.9</ele>
        <time>2022-04-15T12:05:03Z</time>
      </trkpt>
      <trkpt lat="45.56738" lon="5.79537">
        <ele>370.9</ele>
        <time>2022-04-15T12:05:04Z</time>
      </trkpt>
      <trkpt lat="45.56738" lon="5.79537">
        <ele>370.9</ele>
        <time>2022-04-15T12:05:05Z</time>
      </trkpt>
      <trkpt lat="45.56738" lon="5.79537">
        <ele>370.9</ele>
        <time>2022-04-15T12:05:06Z</time>
      </trkpt>
      <trkpt lat="45.56738" lon="5.79537">
        <ele>370.9</ele>
        <time>2022-04-15T12:05:07Z</time>
      </trkpt>
      <trkpt lat="45.56738" lon="5.79537">
        <ele>370.9</ele>
        <time>2022-04-15T12:05:08Z</time>
      </trkpt>
      <trkpt lat="45.56738" lon="5.79537">
        <ele>370.9</ele>
        <time>2022-04-15T12:05:09Z</time>
      </trkpt>
      <trkpt lat="45.56738" lon="5.79537">
        <ele>370.9</ele>
        <time>2022-04-15T12:05:10Z</time>
      </trkpt>
      <trkpt lat="45.56738" lon="5.79537">
        <ele>370.9</ele>
        <time>2022-04-15T12:05:11Z</time>
      </trkpt>
      <trkpt lat="45.56738" lon="5.79537">
        <ele>370.9</ele>
        <time>2022-04-15T12:05:12Z</time>
      </trkpt>
      <trkpt lat="45.56738" lon="5.79537">
        <ele>370.9</ele>
        <time>2022-04-15T12:05:13Z</time>
      </trkpt>
      <trkpt lat="45.56738" lon="5.79537">
        <ele>370.9</ele>
        <time>2022-04-15T12:05:14Z</time>
      </trkpt>
      <trkpt lat="45.56738" lon="5.79537">
        <ele>370.9</ele>
        <time>2022-04-15T12:05:15Z</time>
      </trkpt>
      <trkpt lat="45.56738" lon="5.79537">
        <ele>370.9</ele>
        <time>2022-04-15T12:05:16Z</time>
      </trkpt>
      <trkpt lat="45.56738" lon="5.79537">
        <ele>370.9</ele>
        <time>2022-04-15T12:05:17Z</time>
      </trkpt>
      <trkpt lat="45.56738" lon="5.79537">
        <ele>370.9</ele>
        <time>2022-04-15T12:05:18Z</time>
      </trkpt>
      <trkpt lat="45.56738" lon="5.79537">
        <ele>370.9</ele>
        <time>2022-04-15T12:05:19Z</time>
      </trkpt>
      <trkpt lat="45.56738" lon="5.79537">
        <ele>370.9</ele>
        <time>2022-04-15T12:05:20Z</time>
      </trkpt>
      <trkpt lat="45.56738" lon="5.79537">
        <ele>370.9</ele>
        <time>2022-04-15T12:05:21Z</time>
      </trkpt>
      <trkpt lat="45.56738" lon="5.79537">
        <ele>370.9</ele>
        <time>2022-04-15T12:05:22Z</time>
      </trkpt>
      <trkpt lat="45.56738" lon="5.79537">
        <ele>370.9</ele>
        <time>2022-04-15T12:05:23Z</time>
      </trkpt>
      <trkpt lat="45.56738" lon="5.79537">
        <ele>370.9</ele>
        <time>2022-04-15T12:05:24Z</time>
      </trkpt>
      <trkpt lat="45.56738" lon="5.79537">
        <ele>370.9</ele>
        <time>2022-04-15T12:05:25Z</time>
      </trkpt>
      <trkpt lat="45.56738" lon="5.79537">
        <ele>370.9</ele>
        <time>2022-04-15T12:05:26Z</time>
      </trkpt>
      <trkpt lat="45.56738" lon="5.79537">
        <ele>370.9</ele>
        <time>2022-04-15T12:05:27Z</time>
      </trkpt>
      <trkpt lat="45.56738" lon="5.79537">
        <ele>370.9</ele>
        <time>2022-04-15T12:05:28Z</time>
      </trkpt>
      <trkpt lat="45.56738" lon="5.79537">
        <ele>370.9</ele>
        <time>2022-04-15T12:05:29Z</time>
      </trkpt>
      <trkpt lat="45.56738" lon="5.79537">
        <ele>370.9</ele>
        <time>2022-04-15T12:05:30Z</time>
      </trkpt>
      <trkpt lat="45.56738" lon="5.79537">
        <ele>370.9</ele>
        <time>2022-04-15T12:05:31Z</time>
      </trkpt>
      <trkpt lat="45.56738" lon="5.79537">
        <ele>370.9</ele>
        <time>2022-04-15T12:05:32Z</time>
      </trkpt>
      <trkpt lat="45.56738" lon="5.79537">
        <ele>370.9</ele>
        <time>2022-04-15T12:05:33Z</time>
      </trkpt>
      <trkpt lat="45.56738" lon="5.79537">
        <ele>370.9</ele>
        <time>2022-04-15T12:05:34Z</time>
      </trkpt>
      <trkpt lat="45.56738" lon="5.79537">
        <ele>370.9</ele>
        <time>2022-04-15T12:05:35Z</time>
      </trkpt>
      <trkpt lat="45.56738" lon="5.79537">
        <ele>370.9</ele>
        <time>2022-04-15T12:05:36Z</time>
      </trkpt>
      <trkpt lat="45.56738" lon="5.79537">
        <ele>370.9</ele>
        <time>2022-04-15T12:05:37Z</time>
      </trkpt>
      <trkpt lat="45.56738" lon="5.79537">
        <ele>370.9</ele>
        <time>2022-04-15T12:05:38Z</time>
      </trkpt>
      <trkpt lat="45.56738" lon="5.79537">
        <ele>370.9</ele>
        <time>2022-04-15T12:05:39Z</time>
      </trkpt>
      <trkpt lat="45.56738" lon="5.79537">
        <ele>370.9</ele>
        <time>2022-04-15T12:05:40Z</time>
      </trkpt>
      <trkpt lat="45.56738" lon="5.79537">
        <ele>370.9</ele>
        <time>2022-04-15T12:05:41Z</time>
      </trkpt>
      <trkpt lat="45.56738" lon="5.79537">
        <ele>370.9</ele>
        <time>2022-04-15T12:05:42Z</time>
      </trkpt>
      <trkpt lat="45.56738" lon="5.79537">
        <ele>370.9</ele>
        <time>2022-04-15T12:05:43Z</time>
      </trkpt>
      <trkpt lat="45.56738" lon="5.79537">
        <ele>370.9</ele>
        <time>2022-04-15T12:05:44Z</time>
      </trkpt>
      <trkpt lat="45.56738" lon="5.79537">
        <ele>370.9</ele>
        <time>2022-04-15T12:05:45Z</time>
      </trkpt>
      <trkpt lat="45.56738" lon="5.79537">
        <ele>370.9</ele>
        <time>2022-04-15T12:05:46Z</time>
      </trkpt>
      <trkpt lat="45.56738" lon="5.79537">
        <ele>370.9</ele>
        <time>2022-04-15T12:05:47Z</time>
      </trkpt>
      <trkpt lat="45.56738" lon="5.79537">
        <ele>370.9</ele>
        <time>2022-04-15T12:05:48Z</time>
      </trkpt>
      <trkpt lat="45.56738" lon="5.79537">
        <ele>370.9</ele>
        <time>2022-04-15T12:05:49Z</time>
      </trkpt>
      <trkpt lat="45.56738" lon="5.79537">
        <ele>370.9</ele>
        <time>2022-04-15T12:05:50Z</time>
      </trkpt>
      <trkpt lat="45.56738" lon="5.79537">
        <ele>370.9</ele>
        <time>2022-04-15T12:05:51Z</time>
      </trkpt>
      <trkpt lat="45.56738" lon="5.79537">
        <ele>370.9</ele>
        <time>2022-04-15T12:05:52Z</time>
      </trkpt>
      <trkpt lat="45.56738" lon="5.79537">
        <ele>370.9</ele>
        <time>2022-04-15T12:05:53Z</time>
      </trkpt>
      <trkpt lat="45.56738" lon="5.79537">
        <ele>370.9</ele>
        <time>2022-04-15T12:05:54Z</time>
      </trkpt>
      <trkpt lat="45.56738" lon="5.79537">
        <ele>370.9</ele>
        <time>2022-04-15T12:05:55Z</time>
      </trkpt>
      <trkpt lat="45.56738" lon="5.79537">
        <ele>370.9</ele>
        <time>2022-04-15T12:05:56Z</time>
      </trkpt>
      <trkpt lat="45.56738" lon="5.79537">
        <ele>370.9</ele>
        <time>2022-04-15T12:05:57Z</time>
      </trkpt>
      <trkpt lat="45.56738" lon="5.79537">
        <ele>370.9</ele>
        <time>2022-04-15T12:05:58Z</time>
      </trkpt>
      <trkpt lat="45.56738" lon="5.79537">
        <ele>370.9</ele>
        <time>2022-04-15T12:05:59Z</time>
      </trkpt>
      <trkpt lat="45.56738" lon="5.79537">
        <ele>370.9</ele>
        <time>2022-04-15T12:06:00Z</time>
      </trkpt>
      <trkpt lat="45.56738" lon="5.79537">
        <ele>370.9</ele>
        <time>2022-04-15T12:06:01Z</time>
      </trkpt>
      <trkpt lat="45.56738" lon="5.79537">
        <ele>370.9</ele>
        <time>2022-04-15T12:06:02Z</time>
      </trkpt>
      <trkpt lat="45.56738" lon="5.79537">
        <ele>370.9</ele>
        <time>2022-04-15T12:06:03Z</time>
      </trkpt>
      <trkpt lat="45.56738" lon="5.79537">
        <ele>370.9</ele>
        <time>2022-04-15T12:06:04Z</time>
      </trkpt>
      <trkpt lat="45.56738" lon="5.79537">
        <ele>370.9</ele>
        <time>2022-04-15T12:06:05Z</time>
      </trkpt>
      <trkpt lat="45.56738" lon="5.79537">
        <ele>370.9</ele>
        <time>2022-04-15T12:06:06Z</time>
      </trkpt>
      <trkpt lat="45.56738" lon="5.79537">
        <ele>370.9</ele>
        <time>2022-04-15T12:06:07Z</time>
      </trkpt>
      <trkpt lat="45.56738" lon="5.79537">
        <ele>370.9</ele>
        <time>2022-04-15T12:06:08Z</time>
      </trkpt>
      <trkpt lat="45.56738" lon="5.79537">
        <ele>370.9</ele>
        <time>2022-04-15T12:06:09Z</time>
      </trkpt>
      <trkpt lat="45.56738" lon="5.79537">
        <ele>370.9</ele>
        <time>2022-04-15T12:06:10Z</time>
      </trkpt>
      <trkpt lat="45.56738" lon="5.79537">
        <ele>370.9</ele>
        <time>2022-04-15T12:06:11Z</time>
      </trkpt>
      <trkpt lat="45.56738" lon="5.79537">
        <ele>370.9</ele>
        <time>2022-04-15T12:06:12Z</time>
      </trkpt>
      <trkpt lat="45.56738" lon="5.79537">
        <ele>370.9</ele>
        <time>2022-04-15T12:06:13Z</time>
      </trkpt>
      <trkpt lat="45.56738" lon="5.79537">
        <ele>370.9</ele>
        <time>2022-04-15T12:06:14Z</time>
      </trkpt>
      <trkpt lat="45.56738" lon="5.79537">
        <ele>370.9</ele>
        <time>2022-04-15T12:06:15Z</time>
      </trkpt>
      <trkpt lat="45.56738" lon="5.79537">
        <ele>370.9</ele>
        <time>2022-04-15T12:06:16Z</time>
      </trkpt>
      <trkpt lat="45.56738" lon="5.79537">
        <ele>370.9</ele>
        <time>2022-04-15T12:06:17Z</time>
      </trkpt>
      <trkpt lat="45.56738" lon="5.79537">
        <ele>370.9</ele>
        <time>2022-04-15T12:06:18Z</time>
      </trkpt>
      <trkpt lat="45.56738" lon="5.79537">
        <ele>370.9</ele>
        <time>2022-04-15T12:06:19Z</time>
      </trkpt>
      <trkpt lat="45.56738" lon="5.79537">
        <ele>370.9</ele>
        <time>2022-04-15T12:06:20Z</time>
      </trkpt>
      <trkpt lat="45.56738" lon="5.79537">
        <ele>370.9</ele>
        <time>2022-04-15T12:06:21Z</time>
      </trkpt>
      <trkpt lat="45.56738" lon="5.79537">
        <ele>370.9</ele>
        <time>2022-04-15T12:06:22Z</time>
      </trkpt>
      <trkpt lat="45.56738" lon="5.79537">
        <ele>370.9</ele>
        <time>2022-04-15T12:06:23Z</time>
      </trkpt>
      <trkpt lat="45.56738" lon="5.79537">
        <ele>370.9</ele>
        <time>2022-04-15T12:06:24Z</time>
      </trkpt>
      <trkpt lat="45.56738" lon="5.79537">
        <ele>370.9</ele>
        <time>2022-04-15T12:06:25Z</time>
      </trkpt>
      <trkpt lat="45.56738" lon="5.79537">
        <ele>370.9</ele>
        <time>2022-04-15T12:06:26Z</time>
      </trkpt>
      <trkpt lat="45.56738" lon="5.79537">
        <ele>370.9</ele>
        <time>2022-04-15T12:06:27Z</time>
      </trkpt>
      <trkpt lat="45.56738" lon="5.79537">
        <ele>370.9</ele>
        <time>2022-04-15T12:06:28Z</time>
      </trkpt>
      <trkpt lat="45.56738" lon="5.79537">
        <ele>370.9</ele>
        <time>2022-04-15T12:06:29Z</time>
      </trkpt>
      <trkpt lat="45.56738" lon="5.79537">
        <ele>370.9</ele>
        <time>2022-04-15T12:06:30Z</time>
      </trkpt>
      <trkpt lat="45.56738" lon="5.79537">
        <ele>370.9</ele>
        <time>2022-04-15T12:06:31Z</time>
      </trkpt>
      <trkpt lat="45.56738" lon="5.79537">
        <ele>370.9</ele>
        <time>2022-04-15T12:06:32Z</time>
      </trkpt>
      <trkpt lat="45.56738" lon="5.79537">
        <ele>370.9</ele>
        <time>2022-04-15T12:06:33Z</time>
      </trkpt>
      <trkpt lat="45.56738" lon="5.79537">
        <ele>370.9</ele>
        <time>2022-04-15T12:06:34Z</time>
      </trkpt>
      <trkpt lat="45.56738" lon="5.79537">
        <ele>370.9</ele>
        <time>2022-04-15T12:06:35Z</time>
      </trkpt>
      <trkpt lat="45.56738" lon="5.79537">
        <ele>370.9</ele>
        <time>2022-04-15T12:06:36Z</time>
      </trkpt>
      <trkpt lat="45.56738" lon="5.79537">
        <ele>370.9</ele>
        <time>2022-04-15T12:06:37Z</time>
      </trkpt>
      <trkpt lat="45.56738" lon="5.79537">
        <ele>370.9</ele>
        <time>2022-04-15T12:06:38Z</time>
      </trkpt>
      <trkpt lat="45.56738" lon="5.79537">
        <ele>370.9</ele>
        <time>2022-04-15T12:06:39Z</time>
      </trkpt>
      <trkpt lat="45.56738" lon="5.79537">
        <ele>370.9</ele>
        <time>2022-04-15T12:06:40Z</time>
      </trkpt>
      <trkpt lat="45.56738" lon="5.79537">
        <ele>370.9</ele>
        <time>2022-04-15T12:06:41Z</time>
      </trkpt>
      <trkpt lat="45.56738" lon="5.79537">
        <ele>370.9</ele>
        <time>2022-04-15T12:06:42Z</time>
      </trkpt>
      <trkpt lat="45.56738" lon="5.79537">
        <ele>370.9</ele>
        <time>2022-04-15T12:06:43Z</time>
      </trkpt>
      <trkpt lat="45.56738" lon="5.79537">
        <ele>370.9</ele>
        <time>2022-04-15T12:06:44Z</time>
      </trkpt>
      <trkpt lat="45.56738" lon="5.79537">
        <ele>370.9</ele>
        <time>2022-04-15T12:06:45Z</time>
      </trkpt>
      <trkpt lat="45.56738" lon="5.79537">
        <ele>370.9</ele>
        <time>2022-04-15T12:06:46Z</time>
      </trkpt>
      <trkpt lat="45.56738" lon="5.79537">
        <ele>370.9</ele>
        <time>2022-04-15T12:06:47Z</time>
      </trkpt>
      <trkpt lat="45.56738" lon="5.79537">
        <ele>370.9</ele>
        <time>2022-04-15T12:06:48Z</time>
      </trkpt>
      <trkpt lat="45.56738" lon="5.79537">
        <ele>370.9</ele>
        <time>2022-04-15T12:06:49Z</time>
      </trkpt>
      <trkpt lat="45.56738" lon="5.79537">
        <ele>370.9</ele>
        <time>2022-04-15T12:06:50Z</time>
      </trkpt>
      <trkpt lat="45.56738" lon="5.79537">
        <ele>370.9</ele>
        <time>2022-04-15T12:06:51Z</time>
      </trkpt>
      <trkpt lat="45.56738" lon="5.79537">
        <ele>370.9</ele>
        <time>2022-04-15T12:06:52Z</time>
      </trkpt>
      <trkpt lat="45.56738" lon="5.79537">
        <ele>370.9</ele>
        <time>2022-04-15T12:06:53Z</time>
      </trkpt>
      <trkpt lat="45.56738" lon="5.79537">
        <ele>370.9</ele>
        <time>2022-04-15T12:06:54Z</time>
      </trkpt>
      <trkpt lat="45.56738" lon="5.79537">
        <ele>370.9</ele>
        <time>2022-04-15T12:06:55Z</time>
      </trkpt>
      <trkpt lat="45.56738" lon="5.79537">
        <ele>370.9</ele>
        <time>2022-04-15T12:06:56Z</time>
      </trkpt>
      <trkpt lat="45.56738" lon="5.79537">
        <ele>370.9</ele>
        <time>2022-04-15T12:06:57Z</time>
      </trkpt>
      <trkpt lat="45.56738" lon="5.79537">
        <ele>370.9</ele>
        <time>2022-04-15T12:06:58Z</time>
      </trkpt>
      <trkpt lat="45.56738" lon="5.79537">
        <ele>370.9</ele>
        <time>2022-04-15T12:06:59Z</time>
      </trkpt>
      <trkpt lat="45.56738" lon="5.79537">
        <ele>370.9</ele>
        <time>2022-04-15T12:07:00Z</time>
      </trkpt>
      <trkpt lat="45.56738" lon="5.79537">
        <ele>370.9</ele>
        <time>2022-04-15T12:07:01Z</time>
      </trkpt>
      <trkpt lat="45.56738" lon="5.79537">
        <ele>370.9</ele>
        <time>2022-04-15T12:07:02Z</time>
      </trkpt>
      <trkpt lat="45.56738" lon="5.79537">
        <ele>370.9</ele>
        <time>2022-04-15T12:07:03Z</time>
      </trkpt>
      <trkpt lat="45.56738" lon="5.79537">
        <ele>370.9</ele>
        <time>2022-04-15T12:07:04Z</time>
      </trkpt>
      <trkpt lat="45.56738" lon="5.79537">
        <ele>370.9</ele>
        <time>2022-04-15T12:07:05Z</time>
      </trkpt>
      <trkpt lat="45.56738" lon="5.79537">
        <ele>370.9</ele>
        <time>2022-04-15T12:07:06Z</time>
      </trkpt>
      <trkpt lat="45.56738" lon="5.79537">
        <ele>370.9</ele>
        <time>2022-04-15T12:07:07Z</time>
      </trkpt>
      <trkpt lat="45.56738" lon="5.79537">
        <ele>370.9</ele>
        <time>2022-04-15T12:07:08Z</time>
      </trkpt>
      <trkpt lat="45.56738" lon="5.79537">
        <ele>370.9</ele>
        <time>2022-04-15T12:07:09Z</time>
      </trkpt>
      <trkpt lat="45.56738" lon="5.79537">
        <ele>370.9</ele>
        <time>2022-04-15T12:07:10Z</time>
      </trkpt>
      <trkpt lat="45.56738" lon="5.79537">
        <ele>370.9</ele>
        <time>2022-04-15T12:07:11Z</time>
      </trkpt>
      <trkpt lat="45.56738" lon="5.79537">
        <ele>370.9</ele>
        <time>2022-04-15T12:07:12Z</time>
      </trkpt>
      <trkpt lat="45.56738" lon="5.79537">
        <ele>370.9</ele>
        <time>2022-04-15T12:07:13Z</time>
      </trkpt>
      <trkpt lat="45.56738" lon="5.79537">
        <ele>370.9</ele>
        <time>2022-04-15T12:07:14Z</time>
      </trkpt>
      <trkpt lat="45.56738" lon="5.79537">
        <ele>370.9</ele>
        <time>2022-04-15T12:07:15Z</time>
      </trkpt>
      <trkpt lat="45.56738" lon="5.79537">
        <ele>370.9</ele>
        <time>2022-04-15T12:07:16Z</time>
      </trkpt>
      <trkpt lat="45.56738" lon="5.79537">
        <ele>370.9</ele>
        <time>2022-04-15T12:07:17Z</time>
      </trkpt>
      <trkpt lat="45.56738" lon="5.79537">
        <ele>370.9</ele>
        <time>2022-04-15T12:07:18Z</time>
      </trkpt>
      <trkpt lat="45.56738" lon="5.79537">
        <ele>370.9</ele>
        <time>2022-04-15T12:07:19Z</time>
      </trkpt>
      <trkpt lat="45.56738" lon="5.79537">
        <ele>370.9</ele>
        <time>2022-04-15T12:07:20Z</time>
      </trkpt>
      <trkpt lat="45.56738" lon="5.79537">
        <ele>370.9</ele>
        <time>2022-04-15T12:07:21Z</time>
      </trkpt>
      <trkpt lat="45.56738" lon="5.79537">
        <ele>370.9</ele>
        <time>2022-04-15T12:07:22Z</time>
      </trkpt>
      <trkpt lat="45.56738" lon="5.79537">
        <ele>370.9</ele>
        <time>2022-04-15T12:07:23Z</time>
      </trkpt>
      <trkpt lat="45.56738" lon="5.79537">
        <ele>370.9</ele>
        <time>2022-04-15T12:07:24Z</time>
      </trkpt>
      <trkpt lat="45.56738" lon="5.79537">
        <ele>370.9</ele>
        <time>2022-04-15T12:07:25Z</time>
      </trkpt>
      <trkpt lat="45.56738" lon="5.79537">
        <ele>370.9</ele>
        <time>2022-04-15T12:07:26Z</time>
      </trkpt>
      <trkpt lat="45.56738" lon="5.79537">
        <ele>370.9</ele>
        <time>2022-04-15T12:07:27Z</time>
      </trkpt>
      <trkpt lat="45.56738" lon="5.79537">
        <ele>370.9</ele>
        <time>2022-04-15T12:07:28Z</time>
      </trkpt>
      <trkpt lat="45.56738" lon="5.79537">
        <ele>370.9</ele>
        <time>2022-04-15T12:07:29Z</time>
      </trkpt>
      <trkpt lat="45.56738" lon="5.79537">
        <ele>370.9</ele>
        <time>2022-04-15T12:07:30Z</time>
      </trkpt>
      <trkpt lat="45.56738" lon="5.79537">
        <ele>370.9</ele>
        <time>2022-04-15T12:07:31Z</time>
      </trkpt>
      <trkpt lat="45.56738" lon="5.79537">
        <ele>370.9</ele>
        <time>2022-04-15T12:07:32Z</time>
      </trkpt>
      <trkpt lat="45.56738" lon="5.79537">
        <ele>370.9</ele>
        <time>2022-04-15T12:07:33Z</time>
      </trkpt>
      <trkpt lat="45.56738" lon="5.79537">
        <ele>370.9</ele>
        <time>2022-04-15T12:07:34Z</time>
      </trkpt>
      <trkpt lat="45.56738" lon="5.79537">
        <ele>370.9</ele>
        <time>2022-04-15T12:07:35Z</time>
      </trkpt>
      <trkpt lat="45.56738" lon="5.79537">
        <ele>370.9</ele>
        <time>2022-04-15T12:07:36Z</time>
      </trkpt>
      <trkpt lat="45.56738" lon="5.79537">
        <ele>370.9</ele>
        <time>2022-04-15T12:07:37Z</time>
      </trkpt>
      <trkpt lat="45.56738" lon="5.79537">
        <ele>370.9</ele>
        <time>2022-04-15T12:07:38Z</time>
      </trkpt>
      <trkpt lat="45.56738" lon="5.79537">
        <ele>370.9</ele>
        <time>2022-04-15T12:07:39Z</time>
      </trkpt>
      <trkpt lat="45.56738" lon="5.79537">
        <ele>370.9</ele>
        <time>2022-04-15T12:07:40Z</time>
      </trkpt>
      <trkpt lat="45.56738" lon="5.79537">
        <ele>370.9</ele>
        <time>2022-04-15T12:07:41Z</time>
      </trkpt>
      <trkpt lat="45.56738" lon="5.79537">
        <ele>370.9</ele>
        <time>2022-04-15T12:07:42Z</time>
      </trkpt>
      <trkpt lat="45.56738" lon="5.79537">
        <ele>370.9</ele>
        <time>2022-04-15T12:07:43Z</time>
      </trkpt>
      <trkpt lat="45.56738" lon="5.79537">
        <ele>370.9</ele>
        <time>2022-04-15T12:07:44Z</time>
      </trkpt>
      <trkpt lat="45.56738" lon="5.79537">
        <ele>370.9</ele>
        <time>2022-04-15T12:07:45Z</time>
      </trkpt>
      <trkpt lat="45.56738" lon="5.79537">
        <ele>370.9</ele>
        <time>2022-04-15T12:07:46Z</time>
      </trkpt>
      <trkpt lat="45.56738" lon="5.79537">
        <ele>370.9</ele>
        <time>2022-04-15T12:07:47Z</time>
      </trkpt>
      <trkpt lat="45.56738" lon="5.79537">
        <ele>370.9</ele>
        <time>2022-04-15T12:07:48Z</time>
      </trkpt>
      <trkpt lat="45.56738" lon="5.79537">
        <ele>370.9</ele>
        <time>2022-04-15T12:07:49Z</time>
      </trkpt>
      <trkpt lat="45.56738" lon="5.79537">
        <ele>370.9</ele>
        <time>2022-04-15T12:07:50Z</time>
      </trkpt>
      <trkpt lat="45.56738" lon="5.79537">
        <ele>370.9</ele>
        <time>2022-04-15T12:07:51Z</time>
      </trkpt>
      <trkpt lat="45.56738" lon="5.79537">
        <ele>370.9</ele>
        <time>2022-04-15T12:07:52Z</time>
      </trkpt>
      <trkpt lat="45.56738" lon="5.79537">
        <ele>370.9</ele>
        <time>2022-04-15T12:07:53Z</time>
      </trkpt>
      <trkpt lat="45.56738" lon="5.79537">
        <ele>370.9</ele>
        <time>2022-04-15T12:07:54Z</time>
      </trkpt>
      <trkpt lat="45.56738" lon="5.79537">
        <ele>370.9</ele>
        <time>2022-04-15T12:07:55Z</time>
      </trkpt>
      <trkpt lat="45.56738" lon="5.79537">
        <ele>370.9</ele>
        <time>2022-04-15T12:07:56Z</time>
      </trkpt>
      <trkpt lat="45.56738" lon="5.79537">
        <ele>370.9</ele>
        <time>2022-04-15T12:07:57Z</time>
      </trkpt>
      <trkpt lat="45.56738" lon="5.79537">
        <ele>370.9</ele>
        <time>2022-04-15T12:07:58Z</time>
      </trkpt>
      <trkpt lat="45.56738" lon="5.79537">
        <ele>370.9</ele>
        <time>2022-04-15T12:07:59Z</time>
      </trkpt>
      <trkpt lat="45.56738" lon="5.79537">
        <ele>370.9</ele>
        <time>2022-04-15T12:08:00Z</time>
      </trkpt>
      <trkpt lat="45.56738" lon="5.79537">
        <ele>370.9</ele>
        <time>2022-04-15T12:08:01Z</time>
      </trkpt>
      <trkpt lat="45.56738" lon="5.79537">
        <ele>370.9</ele>
        <time>2022-04-15T12:08:02Z</time>
      </trkpt>
      <trkpt lat="45.56738" lon="5.79537">
        <ele>370.9</ele>
        <time>2022-04-15T12:08:03Z</time>
      </trkpt>
      <trkpt lat="45.56738" lon="5.79537">
        <ele>370.9</ele>
        <time>2022-04-15T12:08:04Z</time>
      </trkpt>
      <trkpt lat="45.56738" lon="5.79537">
        <ele>370.9</ele>
        <time>2022-04-15T12:08:05Z</time>
      </trkpt>
      <trkpt lat="45.56738" lon="5.79537">
        <ele>370.9</ele>
        <time>2022-04-15T12:08:06Z</time>
      </trkpt>
      <trkpt lat="45.56738" lon="5.79537">
        <ele>370.9</ele>
        <time>2022-04-15T12:08:07Z</time>
      </trkpt>
      <trkpt lat="45.56738" lon="5.79537">
        <ele>370.9</ele>
        <time>2022-04-15T12:08:08Z</time>
      </trkpt>
      <trkpt lat="45.56738" lon="5.79537">
        <ele>370.9</ele>
        <time>2022-04-15T12:08:09Z</time>
      </trkpt>
      <trkpt lat="45.56738" lon="5.79537">
        <ele>370.9</ele>
        <time>2022-04-15T12:08:10Z</time>
      </trkpt>
      <trkpt lat="45.56738" lon="5.79537">
        <ele>370.9</ele>
        <time>2022-04-15T12:08:11Z</time>
      </trkpt>
      <trkpt lat="45.56738" lon="5.79537">
        <ele>370.9</ele>
        <time>2022-04-15T12:08:12Z</time>
      </trkpt>
      <trkpt lat="45.56738" lon="5.79537">
        <ele>370.9</ele>
        <time>2022-04-15T12:08:13Z</time>
      </trkpt>
      <trkpt lat="45.56738" lon="5.79537">
        <ele>370.9</ele>
        <time>2022-04-15T12:08:14Z</time>
      </trkpt>
      <trkpt lat="45.56738" lon="5.79537">
        <ele>370.9</ele>
        <time>2022-04-15T12:08:15Z</time>
      </trkpt>
      <trkpt lat="45.56738" lon="5.79537">
        <ele>370.9</ele>
        <time>2022-04-15T12:08:16Z</time>
      </trkpt>
      <trkpt lat="45.56738" lon="5.79537">
        <ele>370.9</ele>
        <time>2022-04-15T12:08:17Z</time>
      </trkpt>
      <trkpt lat="45.56738" lon="5.79537">
        <ele>370.9</ele>
        <time>2022-04-15T12:08:18Z</time>
      </trkpt>
      <trkpt lat="45.56738" lon="5.79537">
        <ele>370.9</ele>
        <time>2022-04-15T12:08:19Z</time>
      </trkpt>
      <trkpt lat="45.56738" lon="5.79537">
        <ele>370.9</ele>
        <time>2022-04-15T12:08:20Z</time>
      </trkpt>
      <trkpt lat="45.56738" lon="5.79537">
        <ele>370.9</ele>
        <time>2022-04-15T12:08:21Z</time>
      </trkpt>
      <trkpt lat="45.56738" lon="5.79537">
        <ele>370.9</ele>
        <time>2022-04-15T12:08:22Z</time>
      </trkpt>
      <trkpt lat="45.56738" lon="5.79537">
        <ele>370.9</ele>
        <time>2022-04-15T12:08:23Z</time>
      </trkpt>
      <trkpt lat="45.56738" lon="5.79537">
        <ele>370.9</ele>
        <time>2022-04-15T12:08:24Z</time>
      </trkpt>
      <trkpt lat="45.56738" lon="5.79537">
        <ele>370.9</ele>
        <time>2022-04-15T12:08:25Z</time>
      </trkpt>
      <trkpt lat="45.56738" lon="5.79537">
        <ele>370.9</ele>
        <time>2022-04-15T12:08:26Z</time>
      </trkpt>
      <trkpt lat="45.56738" lon="5.79537">
        <ele>370.9</ele>
        <time>2022-04-15T12:08:27Z</time>
      </trkpt>
      <trkpt lat="45.56738" lon="5.79537">
        <ele>370.9</ele>
        <time>2022-04-15T12:08:28Z</time>
      </trkpt>
      <trkpt lat="45.56738" lon="5.79537">
        <ele>370.9</ele>
        <time>2022-04-15T12:08:29Z</time>
      </trkpt>
      <trkpt lat="45.56738" lon="5.79537">
        <ele>370.9</ele>
        <time>2022-04-15T12:08:30Z</time>
      </trkpt>
      <trkpt lat="45.56738" lon="5.79537">
        <ele>370.9</ele>
        <time>2022-04-15T12:08:31Z</time>
      </trkpt>
      <trkpt lat="45.56738" lon="5.79537">
        <ele>370.9</ele>
        <time>2022-04-15T12:08:32Z</time>
      </trkpt>
      <trkpt lat="45.56738" lon="5.79537">
        <ele>370.9</ele>
        <time>2022-04-15T12:08:33Z</time>
      </trkpt>
      <trkpt lat="45.56738" lon="5.79537">
        <ele>370.9</ele>
        <time>2022-04-15T12:08:34Z</time>
      </trkpt>
      <trkpt lat="45.56738" lon="5.79537">
        <ele>370.9</ele>
        <time>2022-04-15T12:08:35Z</time>
      </trkpt>
      <trkpt lat="45.56738" lon="5.79537">
        <ele>370.9</ele>
        <time>2022-04-15T12:08:36Z</time>
      </trkpt>
      <trkpt lat="45.56738" lon="5.79537">
        <ele>370.9</ele>
        <time>2022-04-15T12:08:37Z</time>
      </trkpt>
      <trkpt lat="45.56738" lon="5.79537">
        <ele>370.9</ele>
        <time>2022-04-15T12:08:38Z</time>
      </trkpt>
      <trkpt lat="45.56738" lon="5.79537">
        <ele>370.9</ele>
        <time>2022-04-15T12:08:39Z</time>
      </trkpt>
      <trkpt lat="45.56738" lon="5.79537">
        <ele>370.9</ele>
        <time>2022-04-15T12:08:40Z</time>
      </trkpt>
      <trkpt lat="45.56738" lon="5.79537">
        <ele>370.9</ele>
        <time>2022-04-15T12:08:41Z</time>
      </trkpt>
      <trkpt lat="45.56738" lon="5.79537">
        <ele>370.9</ele>
        <time>2022-04-15T12:08:42Z</time>
      </trkpt>
      <trkpt lat="45.56738" lon="5.79537">
        <ele>370.9</ele>
        <time>2022-04-15T12:08:43Z</time>
      </trkpt>
      <trkpt lat="45.56738" lon="5.79537">
        <ele>370.9</ele>
        <time>2022-04-15T12:08:44Z</time>
      </trkpt>
      <trkpt lat="45.56738" lon="5.79537">
        <ele>370.9</ele>
        <time>2022-04-15T12:08:45Z</time>
      </trkpt>
      <trkpt lat="45.56738" lon="5.79537">
        <ele>370.9</ele>
        <time>2022-04-15T12:08:46Z</time>
      </trkpt>
      <trkpt lat="45.56738" lon="5.79537">
        <ele>370.9</ele>
        <time>2022-04-15T12:08:47Z</time>
      </trkpt>
      <trkpt lat="45.56738" lon="5.79537">
        <ele>370.9</ele>
        <time>2022-04-15T12:08:48Z</time>
      </trkpt>
      <trkpt lat="45.56738" lon="5.79537">
        <ele>370.9</ele>
        <time>2022-04-15T12:08:49Z</time>
      </trkpt>
      <trkpt lat="45.56738" lon="5.79537">
        <ele>370.9</ele>
        <time>2022-04-15T12:08:50Z</time>
      </trkpt>
      <trkpt lat="45.56738" lon="5.79537">
        <ele>370.9</ele>
        <time>2022-04-15T12:08:51Z</time>
      </trkpt>
      <trkpt lat="45.56738" lon="5.79537">
        <ele>370.9</ele>
        <time>2022-04-15T12:08:52Z</time>
      </trkpt>
      <trkpt lat="45.56738" lon="5.79537">
        <ele>370.9</ele>
        <time>2022-04-15T12:08:53Z</time>
      </trkpt>
      <trkpt lat="45.56738" lon="5.79537">
        <ele>370.9</ele>
        <time>2022-04-15T12:08:54Z</time>
      </trkpt>
      <trkpt lat="45.56738" lon="5.79537">
        <ele>370.9</ele>
        <time>2022-04-15T12:08:55Z</time>
      </trkpt>
      <trkpt lat="45.56738" lon="5.79537">
        <ele>370.9</ele>
        <time>2022-04-15T12:08:56Z</time>
      </trkpt>
      <trkpt lat="45.56738" lon="5.79537">
        <ele>370.9</ele>
        <time>2022-04-15T12:08:57Z</time>
      </trkpt>
      <trkpt lat="45.56738" lon="5.79537">
        <ele>370.9</ele>
        <time>2022-04-15T12:08:58Z</time>
      </trkpt>
      <trkpt lat="45.56738" lon="5.79537">
        <ele>370.9</ele>
        <time>2022-04-15T12:08:59Z</time>
      </trkpt>
      <trkpt lat="45.56738" lon="5.79537">
        <ele>370.9</ele>
        <time>2022-04-15T12:09:00Z</time>
      </trkpt>
      <trkpt lat="45.56738" lon="5.79537">
        <ele>370.9</ele>
        <time>2022-04-15T12:09:01Z</time>
      </trkpt>
      <trkpt lat="45.56738" lon="5.79537">
        <ele>370.9</ele>
        <time>2022-04-15T12:09:02Z</time>
      </trkpt>
      <trkpt lat="45.56738" lon="5.79537">
        <ele>370.9</ele>
        <time>2022-04-15T12:09:03Z</time>
      </trkpt>
      <trkpt lat="45.56738" lon="5.79537">
        <ele>370.9</ele>
        <time>2022-04-15T12:09:04Z</time>
      </trkpt>
      <trkpt lat="45.56738" lon="5.79537">
        <ele>370.9</ele>
        <time>2022-04-15T12:09:05Z</time>
      </trkpt>
      <trkpt lat="45.56738" lon="5.79537">
        <ele>370.9</ele>
        <time>2022-04-15T12:09:06Z</time>
      </trkpt>
      <trkpt lat="45.56738" lon="5.79537">
        <ele>370.9</ele>
        <time>2022-04-15T12:09:07Z</time>
      </trkpt>
      <trkpt lat="45.56738" lon="5.79537">
        <ele>370.9</ele>
        <time>2022-04-15T12:09:08Z</time>
      </trkpt>
      <trkpt lat="45.56738" lon="5.79537">
        <ele>370.9</ele>
        <time>2022-04-15T12:09:09Z</time>
      </trkpt>
      <trkpt lat="45.56738" lon="5.79537">
        <ele>370.9</ele>
        <time>2022-04-15T12:09:10Z</time>
      </trkpt>
      <trkpt lat="45.56738" lon="5.79537">
        <ele>370.9</ele>
        <time>2022-04-15T12:09:11Z</time>
      </trkpt>
      <trkpt lat="45.56738" lon="5.79537">
        <ele>370.9</ele>
        <time>2022-04-15T12:09:12Z</time>
      </trkpt>
      <trkpt lat="45.56738" lon="5.79537">
        <ele>370.9</ele>
        <time>2022-04-15T12:09:13Z</time>
      </trkpt>
      <trkpt lat="45.56738" lon="5.79537">
        <ele>370.9</ele>
        <time>2022-04-15T12:09:14Z</time>
      </trkpt>
      <trkpt lat="45.56738" lon="5.79537">
        <ele>370.9</ele>
        <time>2022-04-15T12:09:15Z</time>
      </trkpt>
      <trkpt lat="45.56738" lon="5.79537">
        <ele>370.9</ele>
        <time>2022-04-15T12:09:16Z</time>
      </trkpt>
      <trkpt lat="45.56738" lon="5.79537">
        <ele>370.9</ele>
        <time>2022-04-15T12:09:17Z</time>
      </trkpt>
      <trkpt lat="45.56738" lon="5.79537">
        <ele>370.9</ele>
        <time>2022-04-15T12:09:18Z</time>
      </trkpt>
      <trkpt lat="45.56738" lon="5.79537">
        <ele>370.9</ele>
        <time>2022-04-15T12:09:19Z</time>
      </trkpt>
      <trkpt lat="45.56738" lon="5.79537">
        <ele>370.9</ele>
        <time>2022-04-15T12:09:20Z</time>
      </trkpt>
      <trkpt lat="45.56738" lon="5.79537">
        <ele>370.9</ele>
        <time>2022-04-15T12:09:21Z</time>
      </trkpt>
      <trkpt lat="45.56738" lon="5.79537">
        <ele>370.9</ele>
        <time>2022-04-15T12:09:22Z</time>
      </trkpt>
      <trkpt lat="45.56738" lon="5.79537">
        <ele>370.9</ele>
        <time>2022-04-15T12:09:23Z</time>
      </trkpt>
      <trkpt lat="45.56738" lon="5.79537">
        <ele>370.9</ele>
        <time>2022-04-15T12:09:24Z</time>
      </trkpt>
      <trkpt lat="45.56738" lon="5.79537">
        <ele>370.9</ele>
        <time>2022-04-15T12:09:25Z</time>
      </trkpt>
      <trkpt lat="45.56738" lon="5.79537">
        <ele>370.9</ele>
        <time>2022-04-15T12:09:26Z</time>
      </trkpt>
      <trkpt lat="45.56738" lon="5.79537">
        <ele>370.9</ele>
        <time>2022-04-15T12:09:27Z</time>
      </trkpt>
      <trkpt lat="45.56738" lon="5.79537">
        <ele>370.9</ele>
        <time>2022-04-15T12:09:28Z</time>
      </trkpt>
      <trkpt lat="45.56738" lon="5.79537">
        <ele>370.9</ele>
        <time>2022-04-15T12:09:29Z</time>
      </trkpt>
      <trkpt lat="45.56738" lon="5.79537">
        <ele>370.9</ele>
        <time>2022-04-15T12:09:30Z</time>
      </trkpt>
      <trkpt lat="45.56738" lon="5.79537">
        <ele>370.9</ele>
        <time>2022-04-15T12:09:31Z</time>
      </trkpt>
      <trkpt lat="45.56738" lon="5.79537">
        <ele>370.9</ele>
        <time>2022-04-15T12:09:32Z</time>
      </trkpt>
      <trkpt lat="45.56738" lon="5.79537">
        <ele>370.9</ele>
        <time>2022-04-15T12:09:33Z</time>
      </trkpt>
      <trkpt lat="45.56738" lon="5.79537">
        <ele>370.9</ele>
        <time>2022-04-15T12:09:34Z</time>
      </trkpt>
      <trkpt lat="45.56738" lon="5.79537">
        <ele>370.9</ele>
        <time>2022-04-15T12:09:35Z</time>
      </trkpt>
      <trkpt lat="45.56738" lon="5.79537">
        <ele>370.9</ele>
        <time>2022-04-15T12:09:36Z</time>
      </trkpt>
      <trkpt lat="45.56738" lon="5.79537">
        <ele>370.9</ele>
        <time>2022-04-15T12:09:37Z</time>
      </trkpt>
      <trkpt lat="45.56738" lon="5.79537">
        <ele>370.9</ele>
        <time>2022-04-15T12:09:38Z</time>
      </trkpt>
      <trkpt lat="45.56738" lon="5.79537">
        <ele>370.9</ele>
        <time>2022-04-15T12:09:39Z</time>
      </trkpt>
      <trkpt lat="45.56738" lon="5.79537">
        <ele>370.9</ele>
        <time>2022-04-15T12:09:40Z</time>
      </trkpt>
      <trkpt lat="45.56738" lon="5.79537">
        <ele>370.9</ele>
        <time>2022-04-15T12:09:41Z</time>
      </trkpt>
      <trkpt lat="45.56738" lon="5.79537">
        <ele>370.9</ele>
        <time>2022-04-15T12:09:42Z</time>
      </trkpt>
      <trkpt lat="45.56738" lon="5.79537">
        <ele>370.9</ele>
        <time>2022-04-15T12:09:43Z</time>
      </trkpt>
      <trkpt lat="45.56738" lon="5.79537">
        <ele>370.9</ele>
        <time>2022-04-15T12:09:44Z</time>
      </trkpt>
      <trkpt lat="45.56738" lon="5.79537">
        <ele>370.9</ele>
        <time>2022-04-15T12:09:45Z</time>
      </trkpt>
      <trkpt lat="45.56738" lon="5.79537">
        <ele>370.9</ele>
        <time>2022-04-15T12:09:46Z</time>
      </trkpt>
      <trkpt lat="45.56738" lon="5.79537">
        <ele>370.9</ele>
        <time>2022-04-15T12:09:47Z</time>
      </trkpt>
      <trkpt lat="45.56738" lon="5.79537">
        <ele>370.9</ele>
        <time>2022-04-15T12:09:48Z</time>
      </trkpt>
      <trkpt lat="45.56738" lon="5.79537">
        <ele>370.9</ele>
        <time>2022-04-15T12:09:49Z</time>
      </trkpt>
      <trkpt lat="45.56738" lon="5.79537">
        <ele>370.9</ele>
        <time>2022-04-15T12:09:50Z</time>
      </trkpt>
      <trkpt lat="45.56738" lon="5.79537">
        <ele>370.9</ele>
        <time>2022-04-15T12:09:51Z</time>
      </trkpt>
      <trkpt lat="45.56738" lon="5.79537">
        <ele>370.9</ele>
        <time>2022-04-15T12:09:52Z</time>
      </trkpt>
      <trkpt lat="45.56738" lon="5.79537">
        <ele>370.9</ele>
        <time>2022-04-15T12:09:53Z</time>
      </trkpt>
      <trkpt lat="45.56738" lon="5.79537">
        <ele>370.9</ele>
        <time>2022-04-15T12:09:54Z</time>
      </trkpt>
      <trkpt lat="45.56738" lon="5.79537">
        <ele>370.9</ele>
        <time>2022-04-15T12:09:55Z</time>
      </trkpt>
      <trkpt lat="45.56738" lon="5.79537">
        <ele>370.9</ele>
        <time>2022-04-15T12:09:56Z</time>
      </trkpt>
      <trkpt lat="45.56738" lon="5.79537">
        <ele>370.9</ele>
        <time>2022-04-15T12:09:57Z</time>
      </trkpt>
      <trkpt lat="45.56738" lon="5.79537">
        <ele>370.9</ele>
        <time>2022-04-15T12:09:58Z</time>
      </trkpt>
      <trkpt lat="45.56738" lon="5.79537">
        <ele>370.9</ele>
        <time>2022-04-15T12:09:59Z</time>
      </trkpt>
      <trkpt lat="45.56738" lon="5.79537">
        <ele>370.9</ele>
        <time>2022-04-15T12:10:00Z</time>
      </trkpt>
      <trkpt lat="45.56738" lon="5.79537">
        <ele>370.9</ele>
        <time>2022-04-15T12:10:01Z</time>
      </trkpt>
      <trkpt lat="45.56738" lon="5.79537">
        <ele>370.9</ele>
        <time>2022-04-15T12:10:02Z</time>
      </trkpt>
      <trkpt lat="45.56738" lon="5.79537">
        <ele>370.9</ele>
        <time>2022-04-15T12:10:03Z</time>
      </trkpt>
      <trkpt lat="45.56738" lon="5.79537">
        <ele>370.9</ele>
        <time>2022-04-15T12:10:04Z</time>
      </trkpt>
      <trkpt lat="45.56738" lon="5.79537">
        <ele>370.9</ele>
        <time>2022-04-15T12:10:05Z</time>
      </trkpt>
      <trkpt lat="45.56738" lon="5.79537">
        <ele>370.9</ele>
        <time>2022-04-15T12:10:06Z</time>
      </trkpt>
      <trkpt lat="45.56738" lon="5.79537">
        <ele>370.9</ele>
        <time>2022-04-15T12:10:07Z</time>
      </trkpt>
      <trkpt lat="45.56738" lon="5.79537">
        <ele>370.9</ele>
        <time>2022-04-15T12:10:08Z</time>
      </trkpt>
      <trkpt lat="45.56738" lon="5.79537">
        <ele>370.9</ele>
        <time>2022-04-15T12:10:09Z</time>
      </trkpt>
      <trkpt lat="45.56738" lon="5.79537">
        <ele>370.9</ele>
        <time>2022-04-15T12:10:10Z</time>
      </trkpt>
      <trkpt lat="45.56738" lon="5.79537">
        <ele>370.9</ele>
        <time>2022-04-15T12:10:11Z</time>
      </trkpt>
      <trkpt lat="45.56738" lon="5.79537">
        <ele>370.9</ele>
        <time>2022-04-15T12:10:12Z</time>
      </trkpt>
      <trkpt lat="45.56738" lon="5.79537">
        <ele>370.9</ele>
        <time>2022-04-15T12:10:13Z</time>
      </trkpt>
      <trkpt lat="45.56738" lon="5.79537">
        <ele>370.9</ele>
        <time>2022-04-15T12:10:14Z</time>
      </trkpt>
      <trkpt lat="45.56738" lon="5.79537">
        <ele>370.9</ele>
        <time>2022-04-15T12:10:15Z</time>
      </trkpt>
      <trkpt lat="45.56738" lon="5.79537">
        <ele>370.9</ele>
        <time>2022-04-15T12:10:16Z</time>
      </trkpt>
      <trkpt lat="45.56738" lon="5.79537">
        <ele>370.9</ele>
        <time>2022-04-15T12:10:17Z</time>
      </trkpt>
      <trkpt lat="45.56738" lon="5.79537">
        <ele>370.9</ele>
        <time>2022-04-15T12:10:18Z</time>
      </trkpt>
      <trkpt lat="45.56738" lon="5.79537">
        <ele>370.9</ele>
        <time>2022-04-15T12:10:19Z</time>
      </trkpt>
      <trkpt lat="45.56738" lon="5.79537">
        <ele>370.9</ele>
        <time>2022-04-15T12:10:20Z</time>
      </trkpt>
      <trkpt lat="45.56738" lon="5.79537">
        <ele>370.9</ele>
        <time>2022-04-15T12:10:21Z</time>
      </trkpt>
      <trkpt lat="45.56738" lon="5.79537">
        <ele>370.9</ele>
        <time>2022-04-15T12:10:22Z</time>
      </trkpt>
      <trkpt lat="45.56738" lon="5.79537">
        <ele>370.9</ele>
        <time>2022-04-15T12:10:23Z</time>
      </trkpt>
      <trkpt lat="45.56738" lon="5.79537">
        <ele>370.9</ele>
        <time>2022-04-15T12:10:24Z</time>
      </trkpt>
      <trkpt lat="45.56738" lon="5.79537">
        <ele>370.9</ele>
        <time>2022-04-15T12:10:25Z</time>
      </trkpt>
      <trkpt lat="45.56738" lon="5.79537">
        <ele>370.9</ele>
        <time>2022-04-15T12:10:26Z</time>
      </trkpt>
      <trkpt lat="45.56738" lon="5.79537">
        <ele>370.9</ele>
        <time>2022-04-15T12:10:27Z</time>
      </trkpt>
      <trkpt lat="45.56738" lon="5.79537">
        <ele>370.9</ele>
        <time>2022-04-15T12:10:28Z</time>
      </trkpt>
      <trkpt lat="45.56738" lon="5.79537">
        <ele>370.9</ele>
        <time>2022-04-15T12:10:29Z</time>
      </trkpt>
      <trkpt lat="45.56738" lon="5.79537">
        <ele>370.9</ele>
        <time>2022-04-15T12:10:30Z</time>
      </trkpt>
      <trkpt lat="45.56738" lon="5.79537">
        <ele>370.9</ele>
        <time>2022-04-15T12:10:31Z</time>
      </trkpt>
      <trkpt lat="45.56738" lon="5.79537">
        <ele>370.9</ele>
        <time>2022-04-15T12:10:32Z</time>
      </trkpt>
      <trkpt lat="45.56738" lon="5.79537">
        <ele>370.9</ele>
        <time>2022-04-15T12:10:33Z</time>
      </trkpt>
      <trkpt lat="45.56738" lon="5.79537">
        <ele>370.9</ele>
        <time>2022-04-15T12:10:34Z</time>
      </trkpt>
      <trkpt lat="45.56738" lon="5.79537">
        <ele>370.9</ele>
        <time>2022-04-15T12:10:35Z</time>
      </trkpt>
      <trkpt lat="45.56738" lon="5.79537">
        <ele>370.9</ele>
        <time>2022-04-15T12:10:36Z</time>
      </trkpt>
      <trkpt lat="45.56738" lon="5.79537">
        <ele>370.9</ele>
        <time>2022-04-15T12:10:37Z</time>
      </trkpt>
      <trkpt lat="45.56738" lon="5.79537">
        <ele>370.9</ele>
        <time>2022-04-15T12:10:38Z</time>
      </trkpt>
      <trkpt lat="45.56738" lon="5.79537">
        <ele>370.9</ele>
        <time>2022-04-15T12:10:39Z</time>
      </trkpt>
      <trkpt lat="45.56738" lon="5.79537">
        <ele>370.9</ele>
        <time>2022-04-15T12:10:40Z</time>
      </trkpt>
      <trkpt lat="45.56738" lon="5.79537">
        <ele>370.9</ele>
        <time>2022-04-15T12:10:41Z</time>
      </trkpt>
      <trkpt lat="45.56738" lon="5.79537">
        <ele>370.9</ele>
        <time>2022-04-15T12:10:42Z</time>
      </trkpt>
      <trkpt lat="45.56738" lon="5.79537">
        <ele>370.9</ele>
        <time>2022-04-15T12:10:43Z</time>
      </trkpt>
      <trkpt lat="45.56738" lon="5.79537">
        <ele>370.9</ele>
        <time>2022-04-15T12:10:44Z</time>
      </trkpt>
      <trkpt lat="45.56738" lon="5.79537">
        <ele>370.9</ele>
        <time>2022-04-15T12:10:45Z</time>
      </trkpt>
      <trkpt lat="45.56738" lon="5.79537">
        <ele>370.9</ele>
        <time>2022-04-15T12:10:46Z</time>
      </trkpt>
      <trkpt lat="45.56738" lon="5.79537">
        <ele>370.9</ele>
        <time>2022-04-15T12:10:47Z</time>
      </trkpt>
      <trkpt lat="45.56738" lon="5.79537">
        <ele>370.9</ele>
        <time>2022-04-15T12:10:48Z</time>
      </trkpt>
      <trkpt lat="45.56738" lon="5.79537">
        <ele>370.9</ele>
        <time>2022-04-15T12:10:49Z</time>
      </trkpt>
      <trkpt lat="45.56738" lon="5.79537">
        <ele>370.9</ele>
        <time>2022-04-15T12:10:50Z</time>
      </trkpt>
      <trkpt lat="45.56738" lon="5.79537">
        <ele>370.9</ele>
        <time>2022-04-15T12:10:51Z</time>
      </trkpt>
      <trkpt lat="45.56738" lon="5.79537">
        <ele>370.9</ele>
        <time>2022-04-15T12:10:52Z</time>
      </trkpt>
      <trkpt lat="45.56738" lon="5.79537">
        <ele>370.9</ele>
        <time>2022-04-15T12:10:53Z</time>
      </trkpt>
      <trkpt lat="45.56738" lon="5.79537">
        <ele>370.9</ele>
        <time>2022-04-15T12:10:54Z</time>
      </trkpt>
      <trkpt lat="45.56738" lon="5.79537">
        <ele>370.9</ele>
        <time>2022-04-15T12:10:55Z</time>
      </trkpt>
      <trkpt lat="45.56738" lon="5.79537">
        <ele>370.9</ele>
        <time>2022-04-15T12:10:56Z</time>
      </trkpt>
      <trkpt lat="45.56738" lon="5.79537">
        <ele>370.9</ele>
        <time>2022-04-15T12:10:57Z</time>
      </trkpt>
      <trkpt lat="45.56738" lon="5.79537">
        <ele>370.9</ele>
        <time>2022-04-15T12:10:58Z</time>
      </trkpt>
      <trkpt lat="45.56738" lon="5.79537">
        <ele>370.9</ele>
        <time>2022-04-15T12:10:59Z</time>
      </trkpt>
      <trkpt lat="45.56738" lon="5.79537">
        <ele>370.9</ele>
        <time>2022-04-15T12:11:00Z</time>
      </trkpt>
      <trkpt lat="45.56738" lon="5.79537">
        <ele>370.9</ele>
        <time>2022-04-15T12:11:01Z</time>
      </trkpt>
      <trkpt lat="45.56738" lon="5.79537">
        <ele>370.9</ele>
        <time>2022-04-15T12:11:02Z</time>
      </trkpt>
      <trkpt lat="45.56738" lon="5.79537">
        <ele>370.9</ele>
        <time>2022-04-15T12:11:03Z</time>
      </trkpt>
      <trkpt lat="45.56738" lon="5.79537">
        <ele>370.9</ele>
        <time>2022-04-15T12:11:04Z</time>
      </trkpt>
      <trkpt lat="45.56738" lon="5.79537">
        <ele>370.9</ele>
        <time>2022-04-15T12:11:05Z</time>
      </trkpt>
      <trkpt lat="45.56738" lon="5.79537">
        <ele>370.9</ele>
        <time>2022-04-15T12:11:06Z</time>
      </trkpt>
      <trkpt lat="45.56738" lon="5.79537">
        <ele>370.9</ele>
        <time>2022-04-15T12:11:07Z</time>
      </trkpt>
      <trkpt lat="45.56738" lon="5.79537">
        <ele>370.9</ele>
        <time>2022-04-15T12:11:08Z</time>
      </trkpt>
      <trkpt lat="45.56738" lon="5.79537">
        <ele>370.9</ele>
        <time>2022-04-15T12:11:09Z</time>
      </trkpt>
      <trkpt lat="45.56738" lon="5.79537">
        <ele>370.9</ele>
        <time>2022-04-15T12:11:10Z</time>
      </trkpt>
      <trkpt lat="45.56738" lon="5.79537">
        <ele>370.9</ele>
        <time>2022-04-15T12:11:11Z</time>
      </trkpt>
      <trkpt lat="45.56738" lon="5.79537">
        <ele>370.9</ele>
        <time>2022-04-15T12:11:12Z</time>
      </trkpt>
      <trkpt lat="45.56738" lon="5.79537">
        <ele>370.9</ele>
        <time>2022-04-15T12:11:13Z</time>
      </trkpt>
      <trkpt lat="45.56738" lon="5.79537">
        <ele>370.9</ele>
        <time>2022-04-15T12:11:14Z</time>
      </trkpt>
      <trkpt lat="45.56738" lon="5.79537">
        <ele>370.9</ele>
        <time>2022-04-15T12:11:15Z</time>
      </trkpt>
      <trkpt lat="45.56738" lon="5.79537">
        <ele>370.9</ele>
        <time>2022-04-15T12:11:16Z</time>
      </trkpt>
      <trkpt lat="45.56738" lon="5.79537">
        <ele>370.9</ele>
        <time>2022-04-15T12:11:17Z</time>
      </trkpt>
      <trkpt lat="45.56738" lon="5.79537">
        <ele>370.9</ele>
        <time>2022-04-15T12:11:18Z</time>
      </trkpt>
      <trkpt lat="45.56738" lon="5.79537">
        <ele>370.9</ele>
        <time>2022-04-15T12:11:19Z</time>
      </trkpt>
      <trkpt lat="45.56738" lon="5.79537">
        <ele>370.9</ele>
        <time>2022-04-15T12:11:20Z</time>
      </trkpt>
      <trkpt lat="45.56738" lon="5.79537">
        <ele>370.9</ele>
        <time>2022-04-15T12:11:21Z</time>
      </trkpt>
      <trkpt lat="45.56738" lon="5.79537">
        <ele>370.9</ele>
        <time>2022-04-15T12:11:22Z</time>
      </trkpt>
      <trkpt lat="45.56738" lon="5.79537">
        <ele>370.9</ele>
        <time>2022-04-15T12:11:23Z</time>
      </trkpt>
      <trkpt lat="45.56738" lon="5.79537">
        <ele>370.9</ele>
        <time>2022-04-15T12:11:24Z</time>
      </trkpt>
      <trkpt lat="45.56738" lon="5.79537">
        <ele>370.9</ele>
        <time>2022-04-15T12:11:25Z</time>
      </trkpt>
      <trkpt lat="45.56738" lon="5.79537">
        <ele>370.9</ele>
        <time>2022-04-15T12:11:26Z</time>
      </trkpt>
      <trkpt lat="45.56738" lon="5.79537">
        <ele>370.9</ele>
        <time>2022-04-15T12:11:27Z</time>
      </trkpt>
      <trkpt lat="45.56738" lon="5.79537">
        <ele>370.9</ele>
        <time>2022-04-15T12:11:28Z</time>
      </trkpt>
      <trkpt lat="45.56738" lon="5.79537">
        <ele>370.9</ele>
        <time>2022-04-15T12:11:29Z</time>
      </trkpt>
      <trkpt lat="45.56738" lon="5.79537">
        <ele>370.9</ele>
        <time>2022-04-15T12:11:30Z</time>
      </trkpt>
      <trkpt lat="45.56738" lon="5.79537">
        <ele>370.9</ele>
        <time>2022-04-15T12:11:31Z</time>
      </trkpt>
      <trkpt lat="45.56738" lon="5.79537">
        <ele>370.9</ele>
        <time>2022-04-15T12:11:32Z</time>
      </trkpt>
      <trkpt lat="45.56738" lon="5.79537">
        <ele>370.9</ele>
        <time>2022-04-15T12:11:33Z</time>
      </trkpt>
      <trkpt lat="45.56738" lon="5.79537">
        <ele>370.9</ele>
        <time>2022-04-15T12:11:34Z</time>
      </trkpt>
      <trkpt lat="45.56738" lon="5.79537">
        <ele>370.9</ele>
        <time>2022-04-15T12:11:35Z</time>
      </trkpt>
      <trkpt lat="45.56738" lon="5.79537">
        <ele>370.9</ele>
        <time>2022-04-15T12:11:36Z</time>
      </trkpt>
      <trkpt lat="45.56738" lon="5.79537">
        <ele>370.9</ele>
        <time>2022-04-15T12:11:37Z</time>
      </trkpt>
      <trkpt lat="45.56738" lon="5.79537">
        <ele>370.9</ele>
        <time>2022-04-15T12:11:38Z</time>
      </trkpt>
      <trkpt lat="45.56738" lon="5.79537">
        <ele>370.9</ele>
        <time>2022-04-15T12:11:39Z</time>
      </trkpt>
      <trkpt lat="45.56738" lon="5.79537">
        <ele>370.9</ele>
        <time>2022-04-15T12:11:40Z</time>
      </trkpt>
      <trkpt lat="45.56738" lon="5.79537">
        <ele>370.9</ele>
        <time>2022-04-15T12:11:41Z</time>
      </trkpt>
      <trkpt lat="45.56738" lon="5.79537">
        <ele>370.9</ele>
        <time>2022-04-15T12:11:42Z</time>
      </trkpt>
      <trkpt lat="45.56738" lon="5.79537">
        <ele>370.9</ele>
        <time>2022-04-15T12:11:43Z</time>
      </trkpt>
      <trkpt lat="45.56738" lon="5.79537">
        <ele>370.9</ele>
        <time>2022-04-15T12:11:44Z</time>
      </trkpt>
      <trkpt lat="45.56738" lon="5.79537">
        <ele>370.9</ele>
        <time>2022-04-15T12:11:45Z</time>
      </trkpt>
      <trkpt lat="45.56738" lon="5.79537">
        <ele>370.9</ele>
        <time>2022-04-15T12:11:46Z</time>
      </trkpt>
      <trkpt lat="45.56738" lon="5.79537">
        <ele>370.9</ele>
        <time>2022-04-15T12:11:47Z</time>
      </trkpt>
      <trkpt lat="45.56738" lon="5.79537">
        <ele>370.9</ele>
        <time>2022-04-15T12:11:48Z</time>
      </trkpt>
      <trkpt lat="45.56738" lon="5.79537">
        <ele>370.9</ele>
        <time>2022-04-15T12:11:49Z</time>
      </trkpt>
      <trkpt lat="45.56738" lon="5.79537">
        <ele>370.9</ele>
        <time>2022-04-15T12:11:50Z</time>
      </trkpt>
      <trkpt lat="45.56738" lon="5.79537">
        <ele>370.9</ele>
        <time>2022-04-15T12:11:51Z</time>
      </trkpt>
      <trkpt lat="45.56738" lon="5.79537">
        <ele>370.9</ele>
        <time>2022-04-15T12:11:52Z</time>
      </trkpt>
      <trkpt lat="45.56738" lon="5.79537">
        <ele>370.9</ele>
        <time>2022-04-15T12:11:53Z</time>
      </trkpt>
      <trkpt lat="45.56738" lon="5.79537">
        <ele>370.9</ele>
        <time>2022-04-15T12:11:54Z</time>
      </trkpt>
      <trkpt lat="45.56738" lon="5.79537">
        <ele>370.9</ele>
        <time>2022-04-15T12:11:55Z</time>
      </trkpt>
      <trkpt lat="45.56738" lon="5.79537">
        <ele>370.9</ele>
        <time>2022-04-15T12:11:56Z</time>
      </trkpt>
      <trkpt lat="45.56738" lon="5.79537">
        <ele>370.9</ele>
        <time>2022-04-15T12:11:57Z</time>
      </trkpt>
      <trkpt lat="45.56738" lon="5.79537">
        <ele>370.9</ele>
        <time>2022-04-15T12:11:58Z</time>
      </trkpt>
      <trkpt lat="45.56738" lon="5.79537">
        <ele>370.9</ele>
        <time>2022-04-15T12:11:59Z</time>
      </trkpt>
      <trkpt lat="45.56738" lon="5.79537">
        <ele>370.9</ele>
        <time>2022-04-15T12:12:00Z</time>
      </trkpt>
      <trkpt lat="45.56738" lon="5.79537">
        <ele>370.9</ele>
        <time>2022-04-15T12:12:01Z</time>
      </trkpt>
      <trkpt lat="45.56738" lon="5.79537">
        <ele>370.9</ele>
        <time>2022-04-15T12:12:02Z</time>
      </trkpt>
      <trkpt lat="45.56738" lon="5.79537">
        <ele>370.9</ele>
        <time>2022-04-15T12:12:03Z</time>
      </trkpt>
      <trkpt lat="45.56738" lon="5.79537">
        <ele>370.9</ele>
        <time>2022-04-15T12:12:04Z</time>
      </trkpt>
      <trkpt lat="45.56738" lon="5.79537">
        <ele>370.9</ele>
        <time>2022-04-15T12:12:05Z</time>
      </trkpt>
      <trkpt lat="45.56738" lon="5.79537">
        <ele>370.9</ele>
        <time>2022-04-15T12:12:06Z</time>
      </trkpt>
      <trkpt lat="45.56738" lon="5.79537">
        <ele>370.9</ele>
        <time>2022-04-15T12:12:07Z</time>
      </trkpt>
      <trkpt lat="45.56738" lon="5.79537">
        <ele>370.9</ele>
        <time>2022-04-15T12:12:08Z</time>
      </trkpt>
      <trkpt lat="45.56738" lon="5.79537">
        <ele>370.9</ele>
        <time>2022-04-15T12:12:09Z</time>
      </trkpt>
      <trkpt lat="45.56738" lon="5.79537">
        <ele>370.9</ele>
        <time>2022-04-15T12:12:10Z</time>
      </trkpt>
      <trkpt lat="45.56738" lon="5.79537">
        <ele>370.9</ele>
        <time>2022-04-15T12:12:11Z</time>
      </trkpt>
      <trkpt lat="45.56738" lon="5.79537">
        <ele>370.9</ele>
        <time>2022-04-15T12:12:12Z</time>
      </trkpt>
      <trkpt lat="45.56738" lon="5.79537">
        <ele>370.9</ele>
        <time>2022-04-15T12:12:13Z</time>
      </trkpt>
      <trkpt lat="45.56738" lon="5.79537">
        <ele>370.9</ele>
        <time>2022-04-15T12:12:14Z</time>
      </trkpt>
      <trkpt lat="45.56738" lon="5.79537">
        <ele>370.9</ele>
        <time>2022-04-15T12:12:15Z</time>
      </trkpt>
      <trkpt lat="45.56738" lon="5.79537">
        <ele>370.9</ele>
        <time>2022-04-15T12:12:16Z</time>
      </trkpt>
      <trkpt lat="45.56738" lon="5.79537">
        <ele>370.9</ele>
        <time>2022-04-15T12:12:17Z</time>
      </trkpt>
      <trkpt lat="45.56738" lon="5.79537">
        <ele>370.9</ele>
        <time>2022-04-15T12:12:18Z</time>
      </trkpt>
      <trkpt lat="45.56738" lon="5.79537">
        <ele>370.9</ele>
        <time>2022-04-15T12:12:19Z</time>
      </trkpt>
      <trkpt lat="45.56738" lon="5.79537">
        <ele>370.9</ele>
        <time>2022-04-15T12:12:20Z</time>
      </trkpt>
      <trkpt lat="45.56738" lon="5.79537">
        <ele>370.9</ele>
        <time>2022-04-15T12:12:21Z</time>
      </trkpt>
      <trkpt lat="45.56738" lon="5.79537">
        <ele>370.9</ele>
        <time>2022-04-15T12:12:22Z</time>
      </trkpt>
      <trkpt lat="45.56738" lon="5.79537">
        <ele>370.9</ele>
        <time>2022-04-15T12:12:23Z</time>
      </trkpt>
      <trkpt lat="45.56738" lon="5.79537">
        <ele>370.9</ele>
        <time>2022-04-15T12:12:24Z</time>
      </trkpt>
      <trkpt lat="45.56738" lon="5.79537">
        <ele>370.9</ele>
        <time>2022-04-15T12:12:25Z</time>
      </trkpt>
      <trkpt lat="45.56738" lon="5.79537">
        <ele>370.9</ele>
        <time>2022-04-15T12:12:26Z</time>
      </trkpt>
      <trkpt lat="45.56738" lon="5.79537">
        <ele>370.9</ele>
        <time>2022-04-15T12:12:27Z</time>
      </trkpt>
      <trkpt lat="45.56738" lon="5.79537">
        <ele>370.9</ele>
        <time>2022-04-15T12:12:28Z</time>
      </trkpt>
      <trkpt lat="45.56738" lon="5.79537">
        <ele>370.9</ele>
        <time>2022-04-15T12:12:29Z</time>
      </trkpt>
      <trkpt lat="45.56738" lon="5.79537">
        <ele>370.9</ele>
        <time>2022-04-15T12:12:30Z</time>
      </trkpt>
      <trkpt lat="45.56738" lon="5.79537">
        <ele>370.9</ele>
        <time>2022-04-15T12:12:31Z</time>
      </trkpt>
      <trkpt lat="45.56738" lon="5.79537">
        <ele>370.9</ele>
        <time>2022-04-15T12:12:32Z</time>
      </trkpt>
      <trkpt lat="45.56738" lon="5.79537">
        <ele>370.9</ele>
        <time>2022-04-15T12:12:33Z</time>
      </trkpt>
      <trkpt lat="45.56738" lon="5.79537">
        <ele>370.9</ele>
        <time>2022-04-15T12:12:34Z</time>
      </trkpt>
      <trkpt lat="45.56738" lon="5.79537">
        <ele>370.9</ele>
        <time>2022-04-15T12:12:35Z</time>
      </trkpt>
      <trkpt lat="45.56738" lon="5.79537">
        <ele>370.9</ele>
        <time>2022-04-15T12:12:36Z</time>
      </trkpt>
      <trkpt lat="45.56738" lon="5.79537">
        <ele>370.9</ele>
        <time>2022-04-15T12:12:37Z</time>
      </trkpt>
      <trkpt lat="45.56738" lon="5.79537">
        <ele>370.9</ele>
        <time>2022-04-15T12:12:38Z</time>
      </trkpt>
      <trkpt lat="45.56738" lon="5.79537">
        <ele>370.9</ele>
        <time>2022-04-15T12:12:39Z</time>
      </trkpt>
      <trkpt lat="45.56738" lon="5.79537">
        <ele>370.9</ele>
        <time>2022-04-15T12:12:40Z</time>
      </trkpt>
      <trkpt lat="45.56738" lon="5.79537">
        <ele>370.9</ele>
        <time>2022-04-15T12:12:41Z</time>
      </trkpt>
      <trkpt lat="45.56738" lon="5.79537">
        <ele>370.9</ele>
        <time>2022-04-15T12:12:42Z</time>
      </trkpt>
      <trkpt lat="45.56738" lon="5.79537">
        <ele>370.9</ele>
        <time>2022-04-15T12:12:43Z</time>
      </trkpt>
      <trkpt lat="45.56738" lon="5.79537">
        <ele>370.9</ele>
        <time>2022-04-15T12:12:44Z</time>
      </trkpt>
      <trkpt lat="45.56738" lon="5.79537">
        <ele>370.9</ele>
        <time>2022-04-15T12:12:45Z</time>
      </trkpt>
      <trkpt lat="45.56738" lon="5.79537">
        <ele>370.9</ele>
        <time>2022-04-15T12:12:46Z</time>
      </trkpt>
      <trkpt lat="45.56738" lon="5.79537">
        <ele>370.9</ele>
        <time>2022-04-15T12:12:47Z</time>
      </trkpt>
      <trkpt lat="45.56738" lon="5.79537">
        <ele>370.9</ele>
        <time>2022-04-15T12:12:48Z</time>
      </trkpt>
      <trkpt lat="45.56738" lon="5.79537">
        <ele>370.9</ele>
        <time>2022-04-15T12:12:49Z</time>
      </trkpt>
      <trkpt lat="45.56738" lon="5.79537">
        <ele>370.9</ele>
        <time>2022-04-15T12:12:50Z</time>
      </trkpt>
      <trkpt lat="45.56738" lon="5.79537">
        <ele>370.9</ele>
        <time>2022-04-15T12:12:51Z</time>
      </trkpt>
      <trkpt lat="45.56738" lon="5.79537">
        <ele>370.9</ele>
        <time>2022-04-15T12:12:52Z</time>
      </trkpt>
      <trkpt lat="45.56738" lon="5.79537">
        <ele>370.9</ele>
        <time>2022-04-15T12:12:53Z</time>
      </trkpt>
      <trkpt lat="45.56738" lon="5.79537">
        <ele>370.9</ele>
        <time>2022-04-15T12:12:54Z</time>
      </trkpt>
      <trkpt lat="45.56738" lon="5.79537">
        <ele>370.9</ele>
        <time>2022-04-15T12:12:55Z</time>
      </trkpt>
      <trkpt lat="45.56738" lon="5.79537">
        <ele>370.9</ele>
        <time>2022-04-15T12:12:56Z</time>
      </trkpt>
      <trkpt lat="45.56738" lon="5.79537">
        <ele>370.9</ele>
        <time>2022-04-15T12:12:57Z</time>
      </trkpt>
      <trkpt lat="45.56738" lon="5.79537">
        <ele>370.9</ele>
        <time>2022-04-15T12:12:58Z</time>
      </trkpt>
      <trkpt lat="45.56738" lon="5.79537">
        <ele>370.9</ele>
        <time>2022-04-15T12:12:59Z</time>
      </trkpt>
      <trkpt lat="45.56738" lon="5.79537">
        <ele>370.9</ele>
        <time>2022-04-15T12:13:00Z</time>
      </trkpt>
      <trkpt lat="45.56738" lon="5.79537">
        <ele>370.9</ele>
        <time>2022-04-15T12:13:01Z</time>
      </trkpt>
      <trkpt lat="45.56738" lon="5.79537">
        <ele>370.9</ele>
        <time>2022-04-15T12:13:02Z</time>
      </trkpt>
      <trkpt lat="45.56738" lon="5.79537">
        <ele>370.9</ele>
        <time>2022-04-15T12:13:03Z</time>
      </trkpt>
      <trkpt lat="45.56738" lon="5.79537">
        <ele>370.9</ele>
        <time>2022-04-15T12:13:04Z</time>
      </trkpt>
      <trkpt lat="45.56738" lon="5.79537">
        <ele>370.9</ele>
        <time>2022-04-15T12:13:05Z</time>
      </trkpt>
      <trkpt lat="45.56738" lon="5.79537">
        <ele>370.9</ele>
        <time>2022-04-15T12:13:06Z</time>
      </trkpt>
      <trkpt lat="45.56738" lon="5.79537">
        <ele>370.9</ele>
        <time>2022-04-15T12:13:07Z</time>
      </trkpt>
      <trkpt lat="45.56738" lon="5.79537">
        <ele>370.9</ele>
        <time>2022-04-15T12:13:08Z</time>
      </trkpt>
      <trkpt lat="45.56738" lon="5.79537">
        <ele>370.9</ele>
        <time>2022-04-15T12:13:09Z</time>
      </trkpt>
      <trkpt lat="45.56738" lon="5.79537">
        <ele>370.9</ele>
        <time>2022-04-15T12:13:10Z</time>
      </trkpt>
      <trkpt lat="45.56738" lon="5.79537">
        <ele>370.9</ele>
        <time>2022-04-15T12:13:11Z</time>
      </trkpt>
      <trkpt lat="45.56738" lon="5.79537">
        <ele>370.9</ele>
        <time>2022-04-15T12:13:12Z</time>
      </trkpt>
      <trkpt lat="45.56738" lon="5.79537">
        <ele>370.9</ele>
        <time>2022-04-15T12:13:13Z</time>
      </trkpt>
      <trkpt lat="45.56738" lon="5.79537">
        <ele>370.9</ele>
        <time>2022-04-15T12:13:14Z</time>
      </trkpt>
      <trkpt lat="45.56738" lon="5.79537">
        <ele>370.9</ele>
        <time>2022-04-15T12:13:15Z</time>
      </trkpt>
      <trkpt lat="45.56738" lon="5.79537">
        <ele>370.9</ele>
        <time>2022-04-15T12:13:16Z</time>
      </trkpt>
      <trkpt lat="45.56738" lon="5.79537">
        <ele>370.9</ele>
        <time>2022-04-15T12:13:17Z</time>
      </trkpt>
      <trkpt lat="45.56738" lon="5.79537">
        <ele>370.9</ele>
        <time>2022-04-15T12:13:18Z</time>
      </trkpt>
      <trkpt lat="45.56738" lon="5.79537">
        <ele>370.9</ele>
        <time>2022-04-15T12:13:19Z</time>
      </trkpt>
      <trkpt lat="45.56738" lon="5.79537">
        <ele>370.9</ele>
        <time>2022-04-15T12:13:20Z</time>
      </trkpt>
      <trkpt lat="45.56738" lon="5.79537">
        <ele>370.9</ele>
        <time>2022-04-15T12:13:21Z</time>
      </trkpt>
      <trkpt lat="45.56738" lon="5.79537">
        <ele>370.9</ele>
        <time>2022-04-15T12:13:22Z</time>
      </trkpt>
      <trkpt lat="45.56738" lon="5.79537">
        <ele>370.9</ele>
        <time>2022-04-15T12:13:23Z</time>
      </trkpt>
      <trkpt lat="45.56738" lon="5.79537">
        <ele>370.9</ele>
        <time>2022-04-15T12:13:24Z</time>
      </trkpt>
      <trkpt lat="45.56738" lon="5.79537">
        <ele>370.9</ele>
        <time>2022-04-15T12:13:25Z</time>
      </trkpt>
      <trkpt lat="45.56738" lon="5.79537">
        <ele>370.9</ele>
        <time>2022-04-15T12:13:26Z</time>
      </trkpt>
      <trkpt lat="45.56738" lon="5.79537">
        <ele>370.9</ele>
        <time>2022-04-15T12:13:27Z</time>
      </trkpt>
      <trkpt lat="45.56738" lon="5.79537">
        <ele>370.9</ele>
        <time>2022-04-15T12:13:28Z</time>
      </trkpt>
      <trkpt lat="45.56738" lon="5.79537">
        <ele>370.9</ele>
        <time>2022-04-15T12:13:29Z</time>
      </trkpt>
      <trkpt lat="45.56738" lon="5.79537">
        <ele>370.9</ele>
        <time>2022-04-15T12:13:30Z</time>
      </trkpt>
      <trkpt lat="45.56738" lon="5.79537">
        <ele>370.9</ele>
        <time>2022-04-15T12:13:31Z</time>
      </trkpt>
      <trkpt lat="45.56738" lon="5.79537">
        <ele>370.9</ele>
        <time>2022-04-15T12:13:32Z</time>
      </trkpt>
      <trkpt lat="45.56738" lon="5.79537">
        <ele>370.9</ele>
        <time>2022-04-15T12:13:33Z</time>
      </trkpt>
      <trkpt lat="45.56738" lon="5.79537">
        <ele>370.9</ele>
        <time>2022-04-15T12:13:34Z</time>
      </trkpt>
      <trkpt lat="45.56738" lon="5.79537">
        <ele>370.9</ele>
        <time>2022-04-15T12:13:35Z</time>
      </trkpt>
      <trkpt lat="45.56738" lon="5.79537">
        <ele>370.9</ele>
        <time>2022-04-15T12:13:36Z</time>
      </trkpt>
      <trkpt lat="45.56738" lon="5.79537">
        <ele>370.9</ele>
        <time>2022-04-15T12:13:37Z</time>
      </trkpt>
      <trkpt lat="45.56738" lon="5.79537">
        <ele>370.9</ele>
        <time>2022-04-15T12:13:38Z</time>
      </trkpt>
      <trkpt lat="45.56738" lon="5.79537">
        <ele>370.9</ele>
        <time>2022-04-15T12:13:39Z</time>
      </trkpt>
      <trkpt lat="45.56738" lon="5.79537">
        <ele>370.9</ele>
        <time>2022-04-15T12:13:40Z</time>
      </trkpt>
      <trkpt lat="45.56738" lon="5.79537">
        <ele>370.9</ele>
        <time>2022-04-15T12:13:41Z</time>
      </trkpt>
      <trkpt lat="45.56738" lon="5.79537">
        <ele>370.9</ele>
        <time>2022-04-15T12:13:42Z</time>
      </trkpt>
      <trkpt lat="45.56738" lon="5.79537">
        <ele>370.9</ele>
        <time>2022-04-15T12:13:43Z</time>
      </trkpt>
      <trkpt lat="45.56738" lon="5.79537">
        <ele>370.9</ele>
        <time>2022-04-15T12:13:44Z</time>
      </trkpt>
      <trkpt lat="45.56738" lon="5.79537">
        <ele>370.9</ele>
        <time>2022-04-15T12:13:45Z</time>
      </trkpt>
      <trkpt lat="45.56738" lon="5.79537">
        <ele>370.9</ele>
        <time>2022-04-15T12:13:46Z</time>
      </trkpt>
      <trkpt lat="45.56738" lon="5.79537">
        <ele>370.9</ele>
        <time>2022-04-15T12:13:47Z</time>
      </trkpt>
      <trkpt lat="45.56738" lon="5.79537">
        <ele>370.9</ele>
        <time>2022-04-15T12:13:48Z</time>
      </trkpt>
      <trkpt lat="45.56738" lon="5.79537">
        <ele>370.9</ele>
        <time>2022-04-15T12:13:49Z</time>
      </trkpt>
      <trkpt lat="45.56738" lon="5.79537">
        <ele>370.9</ele>
        <time>2022-04-15T12:13:50Z</time>
      </trkpt>
      <trkpt lat="45.56738" lon="5.79537">
        <ele>370.9</ele>
        <time>2022-04-15T12:13:51Z</time>
      </trkpt>
      <trkpt lat="45.56738" lon="5.79537">
        <ele>370.9</ele>
        <time>2022-04-15T12:13:52Z</time>
      </trkpt>
      <trkpt lat="45.56738" lon="5.79537">
        <ele>370.9</ele>
        <time>2022-04-15T12:13:53Z</time>
      </trkpt>
      <trkpt lat="45.56738" lon="5.79537">
        <ele>370.9</ele>
        <time>2022-04-15T12:13:54Z</time>
      </trkpt>
      <trkpt lat="45.56738" lon="5.79537">
        <ele>370.9</ele>
        <time>2022-04-15T12:13:55Z</time>
      </trkpt>
      <trkpt lat="45.56738" lon="5.79537">
        <ele>370.9</ele>
        <time>2022-04-15T12:13:56Z</time>
      </trkpt>
      <trkpt lat="45.56738" lon="5.79537">
        <ele>370.9</ele>
        <time>2022-04-15T12:13:57Z</time>
      </trkpt>
      <trkpt lat="45.56738" lon="5.79537">
        <ele>370.9</ele>
        <time>2022-04-15T12:13:58Z</time>
      </trkpt>
      <trkpt lat="45.56738" lon="5.79537">
        <ele>370.9</ele>
        <time>2022-04-15T12:13:59Z</time>
      </trkpt>
      <trkpt lat="45.56738" lon="5.79537">
        <ele>370.9</ele>
        <time>2022-04-15T12:14:00Z</time>
      </trkpt>
      <trkpt lat="45.56738" lon="5.79537">
        <ele>370.9</ele>
        <time>2022-04-15T12:14:01Z</time>
      </trkpt>
      <trkpt lat="45.56738" lon="5.79537">
        <ele>370.9</ele>
        <time>2022-04-15T12:14:02Z</time>
      </trkpt>
      <trkpt lat="45.56738" lon="5.79537">
        <ele>370.9</ele>
        <time>2022-04-15T12:14:03Z</time>
      </trkpt>
      <trkpt lat="45.56738" lon="5.79537">
        <ele>370.9</ele>
        <time>2022-04-15T12:14:04Z</time>
      </trkpt>
      <trkpt lat="45.56738" lon="5.79537">
        <ele>370.9</ele>
        <time>2022-04-15T12:14:05Z</time>
      </trkpt>
      <trkpt lat="45.56738" lon="5.79537">
        <ele>370.9</ele>
        <time>2022-04-15T12:14:06Z</time>
      </trkpt>
      <trkpt lat="45.56738" lon="5.79537">
        <ele>370.9</ele>
        <time>2022-04-15T12:14:07Z</time>
      </trkpt>
      <trkpt lat="45.56738" lon="5.79537">
        <ele>370.9</ele>
        <time>2022-04-15T12:14:08Z</time>
      </trkpt>
      <trkpt lat="45.56738" lon="5.79537">
        <ele>370.9</ele>
        <time>2022-04-15T12:14:09Z</time>
      </trkpt>
      <trkpt lat="45.56738" lon="5.79537">
        <ele>370.9</ele>
        <time>2022-04-15T12:14:10Z</time>
      </trkpt>
      <trkpt lat="45.56738" lon="5.79537">
        <ele>370.9</ele>
        <time>2022-04-15T12:14:11Z</time>
      </trkpt>
      <trkpt lat="45.56738" lon="5.79537">
        <ele>370.9</ele>
        <time>2022-04-15T12:14:12Z</time>
      </trkpt>
      <trkpt lat="45.56738" lon="5.79537">
        <ele>370.9</ele>
        <time>2022-04-15T12:14:13Z</time>
      </trkpt>
      <trkpt lat="45.56738" lon="5.79537">
        <ele>370.9</ele>
        <time>2022-04-15T12:14:14Z</time>
      </trkpt>
      <trkpt lat="45.56738" lon="5.79537">
        <ele>370.9</ele>
        <time>2022-04-15T12:14:15Z</time>
      </trkpt>
      <trkpt lat="45.56738" lon="5.79537">
        <ele>370.9</ele>
        <time>2022-04-15T12:14:16Z</time>
      </trkpt>
      <trkpt lat="45.56738" lon="5.79537">
        <ele>370.9</ele>
        <time>2022-04-15T12:14:17Z</time>
      </trkpt>
      <trkpt lat="45.56738" lon="5.79537">
        <ele>370.9</ele>
        <time>2022-04-15T12:14:18Z</time>
      </trkpt>
      <trkpt lat="45.56738" lon="5.79537">
        <ele>370.9</ele>
        <time>2022-04-15T12:14:19Z</time>
      </trkpt>
      <trkpt lat="45.56738" lon="5.79537">
        <ele>370.9</ele>
        <time>2022-04-15T12:14:20Z</time>
      </trkpt>
      <trkpt lat="45.56738" lon="5.79537">
        <ele>370.9</ele>
        <time>2022-04-15T12:14:21Z</time>
      </trkpt>
      <trkpt lat="45.56738" lon="5.79537">
        <ele>370.9</ele>
        <time>2022-04-15T12:14:22Z</time>
      </trkpt>
      <trkpt lat="45.56738" lon="5.79537">
        <ele>370.9</ele>
        <time>2022-04-15T12:14:23Z</time>
      </trkpt>
      <trkpt lat="45.56738" lon="5.79537">
        <ele>370.9</ele>
        <time>2022-04-15T12:14:24Z</time>
      </trkpt>
      <trkpt lat="45.56738" lon="5.79537">
        <ele>370.9</ele>
        <time>2022-04-15T12:14:25Z</time>
      </trkpt>
      <trkpt lat="45.56738" lon="5.79537">
        <ele>370.9</ele>
        <time>2022-04-15T12:14:26Z</time>
      </trkpt>
      <trkpt lat="45.56738" lon="5.79537">
        <ele>370.9</ele>
        <time>2022-04-15T12:14:27Z</time>
      </trkpt>
      <trkpt lat="45.56738" lon="5.79537">
        <ele>370.9</ele>
        <time>2022-04-15T12:14:28Z</time>
      </trkpt>
      <trkpt lat="45.56738" lon="5.79537">
        <ele>370.9</ele>
        <time>2022-04-15T12:14:29Z</time>
      </trkpt>
      <trkpt lat="45.56738" lon="5.79537">
        <ele>370.9</ele>
        <time>2022-04-15T12:14:30Z</time>
      </trkpt>
      <trkpt lat="45.56738" lon="5.79537">
        <ele>370.9</ele>
        <time>2022-04-15T12:14:31Z</time>
      </trkpt>
      <trkpt lat="45.56738" lon="5.79537">
        <ele>370.9</ele>
        <time>2022-04-15T12:14:32Z</time>
      </trkpt>
      <trkpt lat="45.56738" lon="5.79537">
        <ele>370.9</ele>
        <time>2022-04-15T12:14:33Z</time>
      </trkpt>
      <trkpt lat="45.56738" lon="5.79537">
        <ele>370.9</ele>
        <time>2022-04-15T12:14:34Z</time>
      </trkpt>
      <trkpt lat="45.56738" lon="5.79537">
        <ele>370.9</ele>
        <time>2022-04-15T12:14:35Z</time>
      </trkpt>
      <trkpt lat="45.56738" lon="5.79537">
        <ele>370.9</ele>
        <time>2022-04-15T12:14:36Z</time>
      </trkpt>
      <trkpt lat="45.56738" lon="5.79537">
        <ele>370.9</ele>
        <time>2022-04-15T12:14:37Z</time>
      </trkpt>
      <trkpt lat="45.56738" lon="5.79537">
        <ele>370.9</ele>
        <time>2022-04-15T12:14:38Z</time>
      </trkpt>
      <trkpt lat="45.56738" lon="5.79537">
        <ele>370.9</ele>
        <time>2022-04-15T12:14:39Z</time>
      </trkpt>
      <trkpt lat="45.56738" lon="5.79537">
        <ele>370.9</ele>
        <time>2022-04-15T12:14:40Z</time>
      </trkpt>
      <trkpt lat="45.56738" lon="5.79537">
        <ele>370.9</ele>
        <time>2022-04-15T12:14:41Z</time>
      </trkpt>
      <trkpt lat="45.56738" lon="5.79537">
        <ele>370.9</ele>
        <time>2022-04-15T12:14:42Z</time>
      </trkpt>
      <trkpt lat="45.56738" lon="5.79537">
        <ele>370.9</ele>
        <time>2022-04-15T12:14:43Z</time>
      </trkpt>
      <trkpt lat="45.56738" lon="5.79537">
        <ele>370.9</ele>
        <time>2022-04-15T12:14:44Z</time>
      </trkpt>
      <trkpt lat="45.56738" lon="5.79537">
        <ele>370.9</ele>
        <time>2022-04-15T12:14:45Z</time>
      </trkpt>
      <trkpt lat="45.56738" lon="5.79537">
        <ele>370.9</ele>
        <time>2022-04-15T12:14:46Z</time>
      </trkpt>
      <trkpt lat="45.56738" lon="5.79537">
        <ele>370.9</ele>
        <time>2022-04-15T12:14:47Z</time>
      </trkpt>
      <trkpt lat="45.56738" lon="5.79537">
        <ele>370.9</ele>
        <time>2022-04-15T12:14:48Z</time>
      </trkpt>
      <trkpt lat="45.56738" lon="5.79537">
        <ele>370.9</ele>
        <time>2022-04-15T12:14:49Z</time>
      </trkpt>
      <trkpt lat="45.56738" lon="5.79537">
        <ele>370.9</ele>
        <time>2022-04-15T12:14:50Z</time>
      </trkpt>
      <trkpt lat="45.56738" lon="5.79537">
        <ele>370.9</ele>
        <time>2022-04-15T12:14:51Z</time>
      </trkpt>
      <trkpt lat="45.56738" lon="5.79537">
        <ele>370.9</ele>
        <time>2022-04-15T12:14:52Z</time>
      </trkpt>
      <trkpt lat="45.56738" lon="5.79537">
        <ele>370.9</ele>
        <time>2022-04-15T12:14:53Z</time>
      </trkpt>
      <trkpt lat="45.56738" lon="5.79537">
        <ele>370.9</ele>
        <time>2022-04-15T12:14:54Z</time>
      </trkpt>
      <trkpt lat="45.56738" lon="5.79537">
        <ele>370.9</ele>
        <time>2022-04-15T12:14:55Z</time>
      </trkpt>
      <trkpt lat="45.56738" lon="5.79537">
        <ele>370.9</ele>
        <time>2022-04-15T12:14:56Z</time>
      </trkpt>
      <trkpt lat="45.56738" lon="5.79537">
        <ele>370.9</ele>
        <time>2022-04-15T12:14:57Z</time>
      </trkpt>
      <trkpt lat="45.56738" lon="5.79537">
        <ele>370.9</ele>
        <time>2022-04-15T12:14:58Z</time>
      </trkpt>
      <trkpt lat="45.56738" lon="5.79537">
        <ele>370.9</ele>
        <time>2022-04-15T12:14:59Z</time>
      </trkpt>
      <trkpt lat="45.56738" lon="5.79537">
        <ele>370.9</ele>
        <time>2022-04-15T12:15:00Z</time>
      </trkpt>
      <trkpt lat="45.56738" lon="5.79537">
        <ele>370.9</ele>
        <time>2022-04-15T12:15:01Z</time>
      </trkpt>
      <trkpt lat="45.56738" lon="5.79537">
        <ele>370.9</ele>
        <time>2022-04-15T12:15:02Z</time>
      </trkpt>
      <trkpt lat="45.56738" lon="5.79537">
        <ele>370.9</ele>
        <time>2022-04-15T12:15:03Z</time>
      </trkpt>
      <trkpt lat="45.56738" lon="5.79537">
        <ele>370.9</ele>
        <time>2022-04-15T12:15:04Z</time>
      </trkpt>
      <trkpt lat="45.56738" lon="5.79537">
        <ele>370.9</ele>
        <time>2022-04-15T12:15:05Z</time>
      </trkpt>
      <trkpt lat="45.56738" lon="5.79537">
        <ele>370.9</ele>
        <time>2022-04-15T12:15:06Z</time>
      </trkpt>
      <trkpt lat="45.56738" lon="5.79537">
        <ele>370.9</ele>
        <time>2022-04-15T12:15:07Z</time>
      </trkpt>
      <trkpt lat="45.56738" lon="5.79537">
        <ele>370.9</ele>
        <time>2022-04-15T12:15:08Z</time>
      </trkpt>
      <trkpt lat="45.56738" lon="5.79537">
        <ele>370.9</ele>
        <time>2022-04-15T12:15:09Z</time>
      </trkpt>
      <trkpt lat="45.56738" lon="5.79537">
        <ele>370.9</ele>
        <time>2022-04-15T12:15:10Z</time>
      </trkpt>
      <trkpt lat="45.56738" lon="5.79537">
        <ele>370.9</ele>
        <time>2022-04-15T12:15:11Z</time>
      </trkpt>
      <trkpt lat="45.56738" lon="5.79537">
        <ele>370.9</ele>
        <time>2022-04-15T12:15:12Z</time>
      </trkpt>
      <trkpt lat="45.56738" lon="5.79537">
        <ele>370.9</ele>
        <time>2022-04-15T12:15:13Z</time>
      </trkpt>
      <trkpt lat="45.56738" lon="5.79537">
        <ele>370.9</ele>
        <time>2022-04-15T12:15:14Z</time>
      </trkpt>
      <trkpt lat="45.56738" lon="5.79537">
        <ele>370.9</ele>
        <time>2022-04-15T12:15:15Z</time>
      </trkpt>
      <trkpt lat="45.56738" lon="5.79537">
        <ele>370.9</ele>
        <time>2022-04-15T12:15:16Z</time>
      </trkpt>
      <trkpt lat="45.56738" lon="5.79537">
        <ele>370.9</ele>
        <time>2022-04-15T12:15:17Z</time>
      </trkpt>
      <trkpt lat="45.56738" lon="5.79537">
        <ele>370.9</ele>
        <time>2022-04-15T12:15:18Z</time>
      </trkpt>
      <trkpt lat="45.56738" lon="5.79537">
        <ele>370.9</ele>
        <time>2022-04-15T12:15:19Z</time>
      </trkpt>
      <trkpt lat="45.56738" lon="5.79537">
        <ele>370.9</ele>
        <time>2022-04-15T12:15:20Z</time>
      </trkpt>
      <trkpt lat="45.56738" lon="5.79537">
        <ele>370.9</ele>
        <time>2022-04-15T12:15:21Z</time>
      </trkpt>
      <trkpt lat="45.56738" lon="5.79537">
        <ele>370.9</ele>
        <time>2022-04-15T12:15:22Z</time>
      </trkpt>
      <trkpt lat="45.56738" lon="5.79537">
        <ele>370.9</ele>
        <time>2022-04-15T12:15:23Z</time>
      </trkpt>
      <trkpt lat="45.56738" lon="5.79537">
        <ele>370.9</ele>
        <time>2022-04-15T12:15:24Z</time>
      </trkpt>
      <trkpt lat="45.56738" lon="5.79537">
        <ele>370.9</ele>
        <time>2022-04-15T12:15:25Z</time>
      </trkpt>
      <trkpt lat="45.56738" lon="5.79537">
        <ele>370.9</ele>
        <time>2022-04-15T12:15:26Z</time>
      </trkpt>
      <trkpt lat="45.56738" lon="5.79537">
        <ele>370.9</ele>
        <time>2022-04-15T12:15:27Z</time>
      </trkpt>
      <trkpt lat="45.56738" lon="5.79537">
        <ele>370.9</ele>
        <time>2022-04-15T12:15:28Z</time>
      </trkpt>
      <trkpt lat="45.56738" lon="5.79537">
        <ele>370.9</ele>
        <time>2022-04-15T12:15:29Z</time>
      </trkpt>
      <trkpt lat="45.56738" lon="5.79537">
        <ele>370.9</ele>
        <time>2022-04-15T12:15:30Z</time>
      </trkpt>
      <trkpt lat="45.56738" lon="5.79537">
        <ele>370.9</ele>
        <time>2022-04-15T12:15:31Z</time>
      </trkpt>
      <trkpt lat="45.56738" lon="5.79537">
        <ele>370.9</ele>
        <time>2022-04-15T12:15:32Z</time>
      </trkpt>
      <trkpt lat="45.56738" lon="5.79537">
        <ele>370.9</ele>
        <time>2022-04-15T12:15:33Z</time>
      </trkpt>
      <trkpt lat="45.56738" lon="5.79537">
        <ele>370.9</ele>
        <time>2022-04-15T12:15:34Z</time>
      </trkpt>
      <trkpt lat="45.56738" lon="5.79537">
        <ele>370.9</ele>
        <time>2022-04-15T12:15:35Z</time>
      </trkpt>
      <trkpt lat="45.56738" lon="5.79537">
        <ele>370.9</ele>
        <time>2022-04-15T12:15:36Z</time>
      </trkpt>
      <trkpt lat="45.56738" lon="5.79537">
        <ele>370.9</ele>
        <time>2022-04-15T12:15:37Z</time>
      </trkpt>
      <trkpt lat="45.56738" lon="5.79537">
        <ele>370.9</ele>
        <time>2022-04-15T12:15:38Z</time>
      </trkpt>
      <trkpt lat="45.56738" lon="5.79537">
        <ele>370.9</ele>
        <time>2022-04-15T12:15:39Z</time>
      </trkpt>
      <trkpt lat="45.56738" lon="5.79537">
        <ele>370.9</ele>
        <time>2022-04-15T12:15:40Z</time>
      </trkpt>
      <trkpt lat="45.56738" lon="5.79537">
        <ele>370.9</ele>
        <time>2022-04-15T12:15:41Z</time>
      </trkpt>
      <trkpt lat="45.56738" lon="5.79537">
        <ele>370.9</ele>
        <time>2022-04-15T12:15:42Z</time>
      </trkpt>
      <trkpt lat="45.56738" lon="5.79537">
        <ele>370.9</ele>
        <time>2022-04-15T12:15:43Z</time>
      </trkpt>
      <trkpt lat="45.56738" lon="5.79537">
        <ele>370.9</ele>
        <time>2022-04-15T12:15:44Z</time>
      </trkpt>
      <trkpt lat="45.56738" lon="5.79537">
        <ele>370.9</ele>
        <time>2022-04-15T12:15:45Z</time>
      </trkpt>
      <trkpt lat="45.56738" lon="5.79537">
        <ele>370.9</ele>
        <time>2022-04-15T12:15:46Z</time>
      </trkpt>
      <trkpt lat="45.56738" lon="5.79537">
        <ele>370.9</ele>
        <time>2022-04-15T12:15:47Z</time>
      </trkpt>
      <trkpt lat="45.56738" lon="5.79537">
        <ele>370.9</ele>
        <time>2022-04-15T12:15:48Z</time>
      </trkpt>
      <trkpt lat="45.56738" lon="5.79537">
        <ele>370.9</ele>
        <time>2022-04-15T12:15:49Z</time>
      </trkpt>
      <trkpt lat="45.56738" lon="5.79537">
        <ele>370.9</ele>
        <time>2022-04-15T12:15:50Z</time>
      </trkpt>
      <trkpt lat="45.56738" lon="5.79537">
        <ele>370.9</ele>
        <time>2022-04-15T12:15:51Z</time>
      </trkpt>
      <trkpt lat="45.56738" lon="5.79537">
        <ele>370.9</ele>
        <time>2022-04-15T12:15:52Z</time>
      </trkpt>
      <trkpt lat="45.56738" lon="5.79537">
        <ele>370.9</ele>
        <time>2022-04-15T12:15:53Z</time>
      </trkpt>
      <trkpt lat="45.56738" lon="5.79537">
        <ele>371</ele>
        <time>2022-04-15T12:15:54Z</time>
      </trkpt>
      <trkpt lat="45.56738" lon="5.79537">
        <ele>371.1</ele>
        <time>2022-04-15T12:15:55Z</time>
      </trkpt>
      <trkpt lat="45.56738" lon="5.79537">
        <ele>371.2</ele>
        <time>2022-04-15T12:15:56Z</time>
      </trkpt>
      <trkpt lat="45.56738" lon="5.79537">
        <ele>371.3</ele>
        <time>2022-04-15T12:15:57Z</time>
      </trkpt>
      <trkpt lat="45.56738" lon="5.79537">
        <ele>371.4</ele>
        <time>2022-04-15T12:15:58Z</time>
      </trkpt>
      <trkpt lat="45.56738" lon="5.79537">
        <ele>371.5</ele>
        <time>2022-04-15T12:15:59Z</time>
      </trkpt>
      <trkpt lat="45.56738" lon="5.79537">
        <ele>371.6</ele>
        <time>2022-04-15T12:16:00Z</time>
      </trkpt>
      <trkpt lat="45.56738" lon="5.79537">
        <ele>371.7</ele>
        <time>2022-04-15T12:16:01Z</time>
      </trkpt>
      <trkpt lat="45.56738" lon="5.79537">
        <ele>371.8</ele>
        <time>2022-04-15T12:16:02Z</time>
      </trkpt>
      <trkpt lat="45.56738" lon="5.79537">
        <ele>371.9</ele>
        <time>2022-04-15T12:16:03Z</time>
      </trkpt>
      <trkpt lat="45.56738" lon="5.79537">
        <ele>372</ele>
        <time>2022-04-15T12:16:04Z</time>
      </trkpt>
      <trkpt lat="45.56738" lon="5.79537">
        <ele>372.1</ele>
        <time>2022-04-15T12:16:05Z</time>
      </trkpt>
      <trkpt lat="45.56738" lon="5.79537">
        <ele>372.2</ele>
        <time>2022-04-15T12:16:06Z</time>
      </trkpt>
      <trkpt lat="45.56738" lon="5.79537">
        <ele>372.3</ele>
        <time>2022-04-15T12:16:07Z</time>
      </trkpt>
      <trkpt lat="45.56738" lon="5.79537">
        <ele>372.4</ele>
        <time>2022-04-15T12:16:08Z</time>
      </trkpt>
      <trkpt lat="45.56738" lon="5.79537">
        <ele>372.5</ele>
        <time>2022-04-15T12:16:09Z</time>
      </trkpt>
      <trkpt lat="45.56738" lon="5.79537">
        <ele>372.6</ele>
        <time>2022-04-15T12:16:10Z</time>
      </trkpt>
      <trkpt lat="45.56738" lon="5.79537">
        <ele>372.7</ele>
        <time>2022-04-15T12:16:11Z</time>
      </trkpt>
      <trkpt lat="45.56738" lon="5.79537">
        <ele>372.8</ele>
        <time>2022-04-15T12:16:12Z</time>
      </trkpt>
      <trkpt lat="45.56738" lon="5.79537">
        <ele>372.9</ele>
        <time>2022-04-15T12:16:13Z</time>
      </trkpt>
      <trkpt lat="45.56738" lon="5.79537">
        <ele>373</ele>
        <time>2022-04-15T12:16:14Z</time>
      </trkpt>
      <trkpt lat="45.56738" lon="5.79537">
        <ele>373.1</ele>
        <time>2022-04-15T12:16:15Z</time>
      </trkpt>
      <trkpt lat="45.56738" lon="5.79537">
        <ele>373.2</ele>
        <time>2022-04-15T12:16:16Z</time>
      </trkpt>
      <trkpt lat="45.56738" lon="5.79537">
        <ele>373.3</ele>
        <time>2022-04-15T12:16:17Z</time>
      </trkpt>
      <trkpt lat="45.56738" lon="5.79537">
        <ele>373.4</ele>
        <time>2022-04-15T12:16:18Z</time>
      </trkpt>
      <trkpt lat="45.56738" lon="5.79537">
        <ele>373.5</ele>
        <time>2022-04-15T12:16:19Z</time>
      </trkpt>
      <trkpt lat="45.56738" lon="5.79537">
        <ele>373.6</ele>
        <time>2022-04-15T12:16:20Z</time>
      </trkpt>
      <trkpt lat="45.56738" lon="5.79537">
        <ele>373.7</ele>
        <time>2022-04-15T12:16:21Z</time>
      </trkpt>
      <trkpt lat="45.56738" lon="5.79537">
        <ele>373.8</ele>
        <time>2022-04-15T12:16:22Z</time>
      </trkpt>
      <trkpt lat="45.56738" lon="5.79537">
        <ele>373.9</ele>
        <time>2022-04-15T12:16:23Z</time>
      </trkpt>
      <trkpt lat="45.56738" lon="5.79537">
        <ele>374</ele>
        <time>2022-04-15T12:16:24Z</time>
      </trkpt>
      <trkpt lat="45.56738" lon="5.79537">
        <ele>374.1</ele>
        <time>2022-04-15T12:16:25Z</time>
      </trkpt>
      <trkpt lat="45.56738" lon="5.79537">
        <ele>374.2</ele>
        <time>2022-04-15T12:16:26Z</time>
      </trkpt>
      <trkpt lat="45.56738" lon="5.79537">
        <ele>374.3</ele>
        <time>2022-04-15T12:16:27Z</time>
      </trkpt>
      <trkpt lat="45.56738" lon="5.79537">
        <ele>374.4</ele>
        <time>2022-04-15T12:16:28Z</time>
      </trkpt>
      <trkpt lat="45.56738" lon="5.79537">
        <ele>374.5</ele>
        <time>2022-04-15T12:16:29Z</time>
      </trkpt>
      <trkpt lat="45.56738" lon="5.79537">
        <ele>374.6</ele>
        <time>2022-04-15T12:16:30Z</time>
      </trkpt>
      <trkpt lat="45.56738" lon="5.79537">
        <ele>374.7</ele>
        <time>2022-04-15T12:16:31Z</time>
      </trkpt>
      <trkpt lat="45.56738" lon="5.79537">
        <ele>374.8</ele>
        <time>2022-04-15T12:16:32Z</time>
      </trkpt>
      <trkpt lat="45.56738" lon="5.79537">
        <ele>374.9</ele>
        <time>2022-04-15T12:16:33Z</time>
      </trkpt>
      <trkpt lat="45.56738" lon="5.79537">
        <ele>375</ele>
        <time>2022-04-15T12:16:34Z</time>
      </trkpt>
      <trkpt lat="45.56738" lon="5.79537">
        <ele>375.1</ele>
        <time>2022-04-15T12:16:35Z</time>
      </trkpt>
      <trkpt lat="45.56738" lon="5.79537">
        <ele>375.2</ele>
        <time>2022-04-15T12:16:36Z</time>
      </trkpt>
      <trkpt lat="45.56738" lon="5.79537">
        <ele>375.3</ele>
        <time>2022-04-15T12:16:37Z</time>
      </trkpt>
      <trkpt lat="45.56738" lon="5.79537">
        <ele>375.4</ele>
        <time>2022-04-15T12:16:38Z</time>
      </trkpt>
      <trkpt lat="45.56738" lon="5.79537">
        <ele>375.5</ele>
        <time>2022-04-15T12:16:39Z</time>
      </trkpt>
      <trkpt lat="45.56738" lon="5.79537">
        <ele>375.6</ele>
        <time>2022-04-15T12:16:40Z</time>
      </trkpt>
      <trkpt lat="45.56738" lon="5.79537">
        <ele>375.7</ele>
        <time>2022-04-15T12:16:41Z</time>
      </trkpt>
      <trkpt lat="45.56738" lon="5.79537">
        <ele>375.8</ele>
        <time>2022-04-15T12:16:42Z</time>
      </trkpt>
      <trkpt lat="45.56738" lon="5.79537">
        <ele>375.9</ele>
        <time>2022-04-15T12:16:43Z</time>
      </trkpt>
      <trkpt lat="45.56738" lon="5.79537">
        <ele>376</ele>
        <time>2022-04-15T12:16:44Z</time>
      </trkpt>
      <trkpt lat="45.56738" lon="5.79537">
        <ele>376.1</ele>
        <time>2022-04-15T12:16:45Z</time>
      </trkpt>
      <trkpt lat="45.56738" lon="5.79537">
        <ele>376.2</ele>
        <time>2022-04-15T12:16:46Z</time>
      </trkpt>
      <trkpt lat="45.56738" lon="5.79537">
        <ele>376.3</ele>
        <time>2022-04-15T12:16:47Z</time>
      </trkpt>
      <trkpt lat="45.56738" lon="5.79537">
        <ele>376.4</ele>
        <time>2022-04-15T12:16:48Z</time>
      </trkpt>
      <trkpt lat="45.56738" lon="5.79537">
        <ele>376.5</ele>
        <time>2022-04-15T12:16:49Z</time>
      </trkpt>
      <trkpt lat="45.56738" lon="5.79537">
        <ele>376.6</ele>
        <time>2022-04-15T12:16:50Z</time>
      </trkpt>
      <trkpt lat="45.56738" lon="5.79537">
        <ele>376.7</ele>
        <time>2022-04-15T12:16:51Z</time>
      </trkpt>
      <trkpt lat="45.56738" lon="5.79537">
        <ele>376.8</ele>
        <time>2022-04-15T12:16:52Z</time>
      </trkpt>
      <trkpt lat="45.56738" lon="5.79537">
        <ele>376.9</ele>
        <time>2022-04-15T12:16:53Z</time>
      </trkpt>
      <trkpt lat="45.56738" lon="5.79537">
        <ele>377</ele>
        <time>2022-04-15T12:16:54Z</time>
      </trkpt>
      <trkpt lat="45.56738" lon="5.79537">
        <ele>377.1</ele>
        <time>2022-04-15T12:16:55Z</time>
      </trkpt>
      <trkpt lat="45.56738" lon="5.79537">
        <ele>377.2</ele>
        <time>2022-04-15T12:16:56Z</time>
      </trkpt>
      <trkpt lat="45.56738" lon="5.79537">
        <ele>377.3</ele>
        <time>2022-04-15T12:16:57Z</time>
      </trkpt>
      <trkpt lat="45.56738" lon="5.79537">
        <ele>377.4</ele>
        <time>2022-04-15T12:16:58Z</time>
      </trkpt>
      <trkpt lat="45.56738" lon="5.79537">
        <ele>377.5</ele>
        <time>2022-04-15T12:16:59Z</time>
      </trkpt>
      <trkpt lat="45.56738" lon="5.79537">
        <ele>377.6</ele>
        <time>2022-04-15T12:17:00Z</time>
      </trkpt>
      <trkpt lat="45.56738" lon="5.79537">
        <ele>377.7</ele>
        <time>2022-04-15T12:17:01Z</time>
      </trkpt>
      <trkpt lat="45.56738" lon="5.79537">
        <ele>377.8</ele>
        <time>2022-04-15T12:17:02Z</time>
      </trkpt>
      <trkpt lat="45.56738" lon="5.79537">
        <ele>377.9</ele>
        <time>2022-04-15T12:17:03Z</time>
      </trkpt>
      <trkpt lat="45.56738" lon="5.79537">
        <ele>378</ele>
        <time>2022-04-15T12:17:04Z</time>
      </trkpt>
      <trkpt lat="45.56738" lon="5.79537">
        <ele>378.1</ele>
        <time>2022-04-15T12:17:05Z</time>
      </trkpt>
      <trkpt lat="45.56738" lon="5.79537">
        <ele>378.2</ele>
        <time>2022-04-15T12:17:06Z</time>
      </trkpt>
      <trkpt lat="45.56738" lon="5.79537">
        <ele>378.3</ele>
        <time>2022-04-15T12:17:07Z</time>
      </trkpt>
      <trkpt lat="45.56738" lon="5.79537">
        <ele>378.4</ele>
        <time>2022-04-15T12:17:08Z</time>
      </trkpt>
      <trkpt lat="45.56738" lon="5.79537">
        <ele>378.5</ele>
        <time>2022-04-15T12:17:09Z</time>
      </trkpt>
      <trkpt lat="45.56738" lon="5.79536">
        <ele>378.6</ele>
        <time>2022-04-15T12:17:10Z</time>
      </trkpt>
      <trkpt lat="45.56738" lon="5.79536">
        <ele>378.7</ele>
        <time>2022-04-15T12:17:11Z</time>
      </trkpt>
      <trkpt lat="45.56738" lon="5.79536">
        <ele>378.8</ele>
        <time>2022-04-15T12:17:12Z</time>
      </trkpt>
      <trkpt lat="45.56738" lon="5.79537">
        <ele>378.9</ele>
        <time>2022-04-15T12:17:13Z</time>
      </trkpt>
      <trkpt lat="45.56737" lon="5.79537">
        <ele>379</ele>
        <time>2022-04-15T12:17:14Z</time>
      </trkpt>
      <trkpt lat="45.56737" lon="5.79538">
        <ele>378.8</ele>
        <time>2022-04-15T12:17:15Z</time>
      </trkpt>
      <trkpt lat="45.56737" lon="5.79539">
        <ele>379.1</ele>
        <time>2022-04-15T12:17:16Z</time>
      </trkpt>
      <trkpt lat="45.56737" lon="5.79539">
        <ele>379.2</ele>
        <time>2022-04-15T12:17:17Z</time>
      </trkpt>
      <trkpt lat="45.56737" lon="5.79539">
        <ele>379.3</ele>
        <time>2022-04-15T12:17:18Z</time>
      </trkpt>
      <trkpt lat="45.56737" lon="5.79539">
        <ele>379.4</ele>
        <time>2022-04-15T12:17:19Z</time>
      </trkpt>
      <trkpt lat="45.56737" lon="5.79539">
        <ele>379.5</ele>
        <time>2022-04-15T12:17:20Z</time>
      </trkpt>
      <trkpt lat="45.56737" lon="5.79539">
        <ele>379.6</ele>
        <time>2022-04-15T12:17:21Z</time>
      </trkpt>
      <trkpt lat="45.56737" lon="5.79539">
        <ele>379.7</ele>
        <time>2022-04-15T12:17:22Z</time>
      </trkpt>
      <trkpt lat="45.56737" lon="5.79539">
        <ele>379.8</ele>
        <time>2022-04-15T12:17:23Z</time>
      </trkpt>
      <trkpt lat="45.56737" lon="5.79539">
        <ele>379.9</ele>
        <time>2022-04-15T12:17:24Z</time>
      </trkpt>
      <trkpt lat="45.56737" lon="5.79539">
        <ele>380</ele>
        <time>2022-04-15T12:17:25Z</time>
      </trkpt>
      <trkpt lat="45.56737" lon="5.79539">
        <ele>380.2</ele>
        <time>2022-04-15T12:17:26Z</time>
      </trkpt>
      <trkpt lat="45.56737" lon="5.79539">
        <ele>380.3</ele>
        <time>2022-04-15T12:17:27Z</time>
      </trkpt>
      <trkpt lat="45.56737" lon="5.79539">
        <ele>380.3</ele>
        <time>2022-04-15T12:17:28Z</time>
      </trkpt>
      <trkpt lat="45.56737" lon="5.79539">
        <ele>380.4</ele>
        <time>2022-04-15T12:17:29Z</time>
      </trkpt>
      <trkpt lat="45.56737" lon="5.79539">
        <ele>380.6</ele>
        <time>2022-04-15T12:17:30Z</time>
      </trkpt>
      <trkpt lat="45.56737" lon="5.79539">
        <ele>380.7</ele>
        <time>2022-04-15T12:17:31Z</time>
      </trkpt>
      <trkpt lat="45.56737" lon="5.79539">
        <ele>380.8</ele>
        <time>2022-04-15T12:17:32Z</time>
      </trkpt>
      <trkpt lat="45.56737" lon="5.79539">
        <ele>380.9</ele>
        <time>2022-04-15T12:17:33Z</time>
      </trkpt>
      <trkpt lat="45.56737" lon="5.79539">
        <ele>380.9</ele>
        <time>2022-04-15T12:17:34Z</time>
      </trkpt>
      <trkpt lat="45.56737" lon="5.79539">
        <ele>380.9</ele>
        <time>2022-04-15T12:17:35Z</time>
      </trkpt>
      <trkpt lat="45.56737" lon="5.79539">
        <ele>380.9</ele>
        <time>2022-04-15T12:17:36Z</time>
      </trkpt>
      <trkpt lat="45.56737" lon="5.79539">
        <ele>380.9</ele>
        <time>2022-04-15T12:17:37Z</time>
      </trkpt>
      <trkpt lat="45.56737" lon="5.79539">
        <ele>380.9</ele>
        <time>2022-04-15T12:17:38Z</time>
      </trkpt>
      <trkpt lat="45.56737" lon="5.79539">
        <ele>380.9</ele>
        <time>2022-04-15T12:17:39Z</time>
      </trkpt>
      <trkpt lat="45.56737" lon="5.79539">
        <ele>380.9</ele>
        <time>2022-04-15T12:17:40Z</time>
      </trkpt>
      <trkpt lat="45.56737" lon="5.79539">
        <ele>380.9</ele>
        <time>2022-04-15T12:17:41Z</time>
      </trkpt>
      <trkpt lat="45.56737" lon="5.79539">
        <ele>380.9</ele>
        <time>2022-04-15T12:17:42Z</time>
      </trkpt>
      <trkpt lat="45.56737" lon="5.79539">
        <ele>380.9</ele>
        <time>2022-04-15T12:17:43Z</time>
      </trkpt>
      <trkpt lat="45.56737" lon="5.79539">
        <ele>380.9</ele>
        <time>2022-04-15T12:17:44Z</time>
      </trkpt>
      <trkpt lat="45.56737" lon="5.79539">
        <ele>380.9</ele>
        <time>2022-04-15T12:17:45Z</time>
      </trkpt>
      <trkpt lat="45.56737" lon="5.79539">
        <ele>380.9</ele>
        <time>2022-04-15T12:17:46Z</time>
      </trkpt>
      <trkpt lat="45.56737" lon="5.79539">
        <ele>380.9</ele>
        <time>2022-04-15T12:17:47Z</time>
      </trkpt>
      <trkpt lat="45.56737" lon="5.79539">
        <ele>380.9</ele>
        <time>2022-04-15T12:17:48Z</time>
      </trkpt>
      <trkpt lat="45.56737" lon="5.79539">
        <ele>380.9</ele>
        <time>2022-04-15T12:17:49Z</time>
      </trkpt>
      <trkpt lat="45.56737" lon="5.79539">
        <ele>380.9</ele>
        <time>2022-04-15T12:17:50Z</time>
      </trkpt>
      <trkpt lat="45.56737" lon="5.79539">
        <ele>380.9</ele>
        <time>2022-04-15T12:17:51Z</time>
      </trkpt>
      <trkpt lat="45.56737" lon="5.79539">
        <ele>380.9</ele>
        <time>2022-04-15T12:17:52Z</time>
      </trkpt>
      <trkpt lat="45.56737" lon="5.79539">
        <ele>380.9</ele>
        <time>2022-04-15T12:17:53Z</time>
      </trkpt>
      <trkpt lat="45.56737" lon="5.79539">
        <ele>380.9</ele>
        <time>2022-04-15T12:17:54Z</time>
      </trkpt>
      <trkpt lat="45.56737" lon="5.79539">
        <ele>380.9</ele>
        <time>2022-04-15T12:17:55Z</time>
      </trkpt>
      <trkpt lat="45.56737" lon="5.79539">
        <ele>380.9</ele>
        <time>2022-04-15T12:17:56Z</time>
      </trkpt>
      <trkpt lat="45.56737" lon="5.79539">
        <ele>380.9</ele>
        <time>2022-04-15T12:17:57Z</time>
      </trkpt>
      <trkpt lat="45.56737" lon="5.79539">
        <ele>380.9</ele>
        <time>2022-04-15T12:17:58Z</time>
      </trkpt>
      <trkpt lat="45.56737" lon="5.79539">
        <ele>380.9</ele>
        <time>2022-04-15T12:17:59Z</time>
      </trkpt>
      <trkpt lat="45.56737" lon="5.79539">
        <ele>380.9</ele>
        <time>2022-04-15T12:18:00Z</time>
      </trkpt>
      <trkpt lat="45.56737" lon="5.79539">
        <ele>380.9</ele>
        <time>2022-04-15T12:18:01Z</time>
      </trkpt>
      <trkpt lat="45.56737" lon="5.79539">
        <ele>380.9</ele>
        <time>2022-04-15T12:18:02Z</time>
      </trkpt>
      <trkpt lat="45.56737" lon="5.79539">
        <ele>380.9</ele>
        <time>2022-04-15T12:18:03Z</time>
      </trkpt>
      <trkpt lat="45.56737" lon="5.79539">
        <ele>380.9</ele>
        <time>2022-04-15T12:18:04Z</time>
      </trkpt>
      <trkpt lat="45.56737" lon="5.79539">
        <ele>380.9</ele>
        <time>2022-04-15T12:18:05Z</time>
      </trkpt>
      <trkpt lat="45.56737" lon="5.79539">
        <ele>380.9</ele>
        <time>2022-04-15T12:18:06Z</time>
      </trkpt>
      <trkpt lat="45.56737" lon="5.79539">
        <ele>380.9</ele>
        <time>2022-04-15T12:18:07Z</time>
      </trkpt>
      <trkpt lat="45.56737" lon="5.79539">
        <ele>380.9</ele>
        <time>2022-04-15T12:18:08Z</time>
      </trkpt>
      <trkpt lat="45.56737" lon="5.79539">
        <ele>380.9</ele>
        <time>2022-04-15T12:18:09Z</time>
      </trkpt>
      <trkpt lat="45.56737" lon="5.79539">
        <ele>380.9</ele>
        <time>2022-04-15T12:18:10Z</time>
      </trkpt>
      <trkpt lat="45.56737" lon="5.79539">
        <ele>380.9</ele>
        <time>2022-04-15T12:18:11Z</time>
      </trkpt>
      <trkpt lat="45.56737" lon="5.79539">
        <ele>380.9</ele>
        <time>2022-04-15T12:18:12Z</time>
      </trkpt>
      <trkpt lat="45.56737" lon="5.79539">
        <ele>380.9</ele>
        <time>2022-04-15T12:18:13Z</time>
      </trkpt>
      <trkpt lat="45.56737" lon="5.79539">
        <ele>380.9</ele>
        <time>2022-04-15T12:18:14Z</time>
      </trkpt>
      <trkpt lat="45.56737" lon="5.7954">
        <ele>380.9</ele>
        <time>2022-04-15T12:18:15Z</time>
      </trkpt>
      <trkpt lat="45.56737" lon="5.7954">
        <ele>380.9</ele>
        <time>2022-04-15T12:18:16Z</time>
      </trkpt>
      <trkpt lat="45.56737" lon="5.7954">
        <ele>380.9</ele>
        <time>2022-04-15T12:18:17Z</time>
      </trkpt>
      <trkpt lat="45.56737" lon="5.7954">
        <ele>380.9</ele>
        <time>2022-04-15T12:18:18Z</time>
      </trkpt>
      <trkpt lat="45.56737" lon="5.7954">
        <ele>380.9</ele>
        <time>2022-04-15T12:18:19Z</time>
      </trkpt>
      <trkpt lat="45.56737" lon="5.7954">
        <ele>380.9</ele>
        <time>2022-04-15T12:18:20Z</time>
      </trkpt>
      <trkpt lat="45.56737" lon="5.7954">
        <ele>380.9</ele>
        <time>2022-04-15T12:18:21Z</time>
      </trkpt>
      <trkpt lat="45.56737" lon="5.7954">
        <ele>380.9</ele>
        <time>2022-04-15T12:18:22Z</time>
      </trkpt>
      <trkpt lat="45.56737" lon="5.7954">
        <ele>380.9</ele>
        <time>2022-04-15T12:18:23Z</time>
      </trkpt>
      <trkpt lat="45.56737" lon="5.7954">
        <ele>380.9</ele>
        <time>2022-04-15T12:18:24Z</time>
      </trkpt>
      <trkpt lat="45.56737" lon="5.7954">
        <ele>380.9</ele>
        <time>2022-04-15T12:18:25Z</time>
      </trkpt>
      <trkpt lat="45.56737" lon="5.7954">
        <ele>380.9</ele>
        <time>2022-04-15T12:18:26Z</time>
      </trkpt>
      <trkpt lat="45.56737" lon="5.7954">
        <ele>380.9</ele>
        <time>2022-04-15T12:18:27Z</time>
      </trkpt>
      <trkpt lat="45.56737" lon="5.7954">
        <ele>380.9</ele>
        <time>2022-04-15T12:18:28Z</time>
      </trkpt>
      <trkpt lat="45.56737" lon="5.7954">
        <ele>380.9</ele>
        <time>2022-04-15T12:18:29Z</time>
      </trkpt>
      <trkpt lat="45.56737" lon="5.7954">
        <ele>380.9</ele>
        <time>2022-04-15T12:18:30Z</time>
      </trkpt>
      <trkpt lat="45.56737" lon="5.7954">
        <ele>380.9</ele>
        <time>2022-04-15T12:18:31Z</time>
      </trkpt>
      <trkpt lat="45.56737" lon="5.7954">
        <ele>380.9</ele>
        <time>2022-04-15T12:18:32Z</time>
      </trkpt>
      <trkpt lat="45.56737" lon="5.7954">
        <ele>380.9</ele>
        <time>2022-04-15T12:18:33Z</time>
      </trkpt>
      <trkpt lat="45.56737" lon="5.7954">
        <ele>380.9</ele>
        <time>2022-04-15T12:18:34Z</time>
      </trkpt>
      <trkpt lat="45.56737" lon="5.7954">
        <ele>380.9</ele>
        <time>2022-04-15T12:18:35Z</time>
      </trkpt>
      <trkpt lat="45.56737" lon="5.7954">
        <ele>380.9</ele>
        <time>2022-04-15T12:18:36Z</time>
      </trkpt>
      <trkpt lat="45.56738" lon="5.7954">
        <ele>380.9</ele>
        <time>2022-04-15T12:18:37Z</time>
      </trkpt>
      <trkpt lat="45.56738" lon="5.7954">
        <ele>380.9</ele>
        <time>2022-04-15T12:18:38Z</time>
      </trkpt>
      <trkpt lat="45.56738" lon="5.7954">
        <ele>380.9</ele>
        <time>2022-04-15T12:18:39Z</time>
      </trkpt>
      <trkpt lat="45.56738" lon="5.7954">
        <ele>380.9</ele>
        <time>2022-04-15T12:18:40Z</time>
      </trkpt>
      <trkpt lat="45.56738" lon="5.7954">
        <ele>380.9</ele>
        <time>2022-04-15T12:18:41Z</time>
      </trkpt>
      <trkpt lat="45.56738" lon="5.7954">
        <ele>380.9</ele>
        <time>2022-04-15T12:18:42Z</time>
      </trkpt>
      <trkpt lat="45.56738" lon="5.7954">
        <ele>380.9</ele>
        <time>2022-04-15T12:18:43Z</time>
      </trkpt>
      <trkpt lat="45.56738" lon="5.7954">
        <ele>380.9</ele>
        <time>2022-04-15T12:18:44Z</time>
      </trkpt>
      <trkpt lat="45.56738" lon="5.7954">
        <ele>380.9</ele>
        <time>2022-04-15T12:18:45Z</time>
      </trkpt>
      <trkpt lat="45.56738" lon="5.7954">
        <ele>380.9</ele>
        <time>2022-04-15T12:18:46Z</time>
      </trkpt>
      <trkpt lat="45.56738" lon="5.7954">
        <ele>380.9</ele>
        <time>2022-04-15T12:18:47Z</time>
      </trkpt>
      <trkpt lat="45.56738" lon="5.7954">
        <ele>380.9</ele>
        <time>2022-04-15T12:18:48Z</time>
      </trkpt>
      <trkpt lat="45.56738" lon="5.7954">
        <ele>380.9</ele>
        <time>2022-04-15T12:18:49Z</time>
      </trkpt>
      <trkpt lat="45.56738" lon="5.7954">
        <ele>380.9</ele>
        <time>2022-04-15T12:18:50Z</time>
      </trkpt>
      <trkpt lat="45.56738" lon="5.7954">
        <ele>380.9</ele>
        <time>2022-04-15T12:18:51Z</time>
      </trkpt>
      <trkpt lat="45.56738" lon="5.7954">
        <ele>380.9</ele>
        <time>2022-04-15T12:18:52Z</time>
      </trkpt>
      <trkpt lat="45.56738" lon="5.7954">
        <ele>380.9</ele>
        <time>2022-04-15T12:18:53Z</time>
      </trkpt>
      <trkpt lat="45.56738" lon="5.7954">
        <ele>380.9</ele>
        <time>2022-04-15T12:18:54Z</time>
      </trkpt>
      <trkpt lat="45.56738" lon="5.7954">
        <ele>380.9</ele>
        <time>2022-04-15T12:18:55Z</time>
      </trkpt>
      <trkpt lat="45.56738" lon="5.7954">
        <ele>380.9</ele>
        <time>2022-04-15T12:18:56Z</time>
      </trkpt>
      <trkpt lat="45.56738" lon="5.7954">
        <ele>380.9</ele>
        <time>2022-04-15T12:18:57Z</time>
      </trkpt>
      <trkpt lat="45.56738" lon="5.7954">
        <ele>380.9</ele>
        <time>2022-04-15T12:18:58Z</time>
      </trkpt>
      <trkpt lat="45.56738" lon="5.7954">
        <ele>380.9</ele>
        <time>2022-04-15T12:18:59Z</time>
      </trkpt>
      <trkpt lat="45.56738" lon="5.7954">
        <ele>380.9</ele>
        <time>2022-04-15T12:19:00Z</time>
      </trkpt>
      <trkpt lat="45.56738" lon="5.7954">
        <ele>380.9</ele>
        <time>2022-04-15T12:19:01Z</time>
      </trkpt>
      <trkpt lat="45.56738" lon="5.7954">
        <ele>380.9</ele>
        <time>2022-04-15T12:19:02Z</time>
      </trkpt>
      <trkpt lat="45.56738" lon="5.7954">
        <ele>380.9</ele>
        <time>2022-04-15T12:19:03Z</time>
      </trkpt>
      <trkpt lat="45.56738" lon="5.7954">
        <ele>380.9</ele>
        <time>2022-04-15T12:19:04Z</time>
      </trkpt>
      <trkpt lat="45.56738" lon="5.7954">
        <ele>380.9</ele>
        <time>2022-04-15T12:19:05Z</time>
      </trkpt>
      <trkpt lat="45.56738" lon="5.7954">
        <ele>380.9</ele>
        <time>2022-04-15T12:19:06Z</time>
      </trkpt>
      <trkpt lat="45.56738" lon="5.7954">
        <ele>380.9</ele>
        <time>2022-04-15T12:19:07Z</time>
      </trkpt>
      <trkpt lat="45.56738" lon="5.7954">
        <ele>380.9</ele>
        <time>2022-04-15T12:19:08Z</time>
      </trkpt>
      <trkpt lat="45.56738" lon="5.7954">
        <ele>380.9</ele>
        <time>2022-04-15T12:19:09Z</time>
      </trkpt>
      <trkpt lat="45.56738" lon="5.7954">
        <ele>380.9</ele>
        <time>2022-04-15T12:19:10Z</time>
      </trkpt>
      <trkpt lat="45.56738" lon="5.7954">
        <ele>380.9</ele>
        <time>2022-04-15T12:19:11Z</time>
      </trkpt>
      <trkpt lat="45.56738" lon="5.7954">
        <ele>380.9</ele>
        <time>2022-04-15T12:19:12Z</time>
      </trkpt>
      <trkpt lat="45.56738" lon="5.7954">
        <ele>380.9</ele>
        <time>2022-04-15T12:19:13Z</time>
      </trkpt>
      <trkpt lat="45.56738" lon="5.7954">
        <ele>380.9</ele>
        <time>2022-04-15T12:19:14Z</time>
      </trkpt>
      <trkpt lat="45.56738" lon="5.7954">
        <ele>380.9</ele>
        <time>2022-04-15T12:19:15Z</time>
      </trkpt>
      <trkpt lat="45.56738" lon="5.7954">
        <ele>380.9</ele>
        <time>2022-04-15T12:19:16Z</time>
      </trkpt>
      <trkpt lat="45.56738" lon="5.7954">
        <ele>380.9</ele>
        <time>2022-04-15T12:19:17Z</time>
      </trkpt>
      <trkpt lat="45.56738" lon="5.7954">
        <ele>380.9</ele>
        <time>2022-04-15T12:19:18Z</time>
      </trkpt>
      <trkpt lat="45.56738" lon="5.7954">
        <ele>380.9</ele>
        <time>2022-04-15T12:19:19Z</time>
      </trkpt>
      <trkpt lat="45.56738" lon="5.7954">
        <ele>380.9</ele>
        <time>2022-04-15T12:19:20Z</time>
      </trkpt>
      <trkpt lat="45.56738" lon="5.7954">
        <ele>380.9</ele>
        <time>2022-04-15T12:19:21Z</time>
      </trkpt>
      <trkpt lat="45.56738" lon="5.7954">
        <ele>380.9</ele>
        <time>2022-04-15T12:19:22Z</time>
      </trkpt>
      <trkpt lat="45.56738" lon="5.7954">
        <ele>380.9</ele>
        <time>2022-04-15T12:19:23Z</time>
      </trkpt>
      <trkpt lat="45.56738" lon="5.7954">
        <ele>380.9</ele>
        <time>2022-04-15T12:19:24Z</time>
      </trkpt>
      <trkpt lat="45.56738" lon="5.7954">
        <ele>380.9</ele>
        <time>2022-04-15T12:19:25Z</time>
      </trkpt>
      <trkpt lat="45.56738" lon="5.7954">
        <ele>380.9</ele>
        <time>2022-04-15T12:19:26Z</time>
      </trkpt>
      <trkpt lat="45.56738" lon="5.7954">
        <ele>380.9</ele>
        <time>2022-04-15T12:19:27Z</time>
      </trkpt>
      <trkpt lat="45.56738" lon="5.7954">
        <ele>380.9</ele>
        <time>2022-04-15T12:19:28Z</time>
      </trkpt>
      <trkpt lat="45.56738" lon="5.7954">
        <ele>380.9</ele>
        <time>2022-04-15T12:19:29Z</time>
      </trkpt>
      <trkpt lat="45.56738" lon="5.7954">
        <ele>380.9</ele>
        <time>2022-04-15T12:19:30Z</time>
      </trkpt>
      <trkpt lat="45.56738" lon="5.7954">
        <ele>380.9</ele>
        <time>2022-04-15T12:19:31Z</time>
      </trkpt>
      <trkpt lat="45.56738" lon="5.7954">
        <ele>380.9</ele>
        <time>2022-04-15T12:19:32Z</time>
      </trkpt>
      <trkpt lat="45.56738" lon="5.7954">
        <ele>380.9</ele>
        <time>2022-04-15T12:19:33Z</time>
      </trkpt>
      <trkpt lat="45.56738" lon="5.7954">
        <ele>380.9</ele>
        <time>2022-04-15T12:19:34Z</time>
      </trkpt>
      <trkpt lat="45.56738" lon="5.7954">
        <ele>380.9</ele>
        <time>2022-04-15T12:19:35Z</time>
      </trkpt>
      <trkpt lat="45.56738" lon="5.7954">
        <ele>380.9</ele>
        <time>2022-04-15T12:19:36Z</time>
      </trkpt>
      <trkpt lat="45.56738" lon="5.7954">
        <ele>380.9</ele>
        <time>2022-04-15T12:19:37Z</time>
      </trkpt>
      <trkpt lat="45.56738" lon="5.7954">
        <ele>380.9</ele>
        <time>2022-04-15T12:19:38Z</time>
      </trkpt>
      <trkpt lat="45.56738" lon="5.7954">
        <ele>380.9</ele>
        <time>2022-04-15T12:19:39Z</time>
      </trkpt>
      <trkpt lat="45.56738" lon="5.7954">
        <ele>380.9</ele>
        <time>2022-04-15T12:19:40Z</time>
      </trkpt>
      <trkpt lat="45.56738" lon="5.7954">
        <ele>380.9</ele>
        <time>2022-04-15T12:19:41Z</time>
      </trkpt>
      <trkpt lat="45.56738" lon="5.7954">
        <ele>380.9</ele>
        <time>2022-04-15T12:19:42Z</time>
      </trkpt>
      <trkpt lat="45.56738" lon="5.7954">
        <ele>380.9</ele>
        <time>2022-04-15T12:19:43Z</time>
      </trkpt>
      <trkpt lat="45.56738" lon="5.7954">
        <ele>380.9</ele>
        <time>2022-04-15T12:19:44Z</time>
      </trkpt>
      <trkpt lat="45.56738" lon="5.7954">
        <ele>380.9</ele>
        <time>2022-04-15T12:19:45Z</time>
      </trkpt>
      <trkpt lat="45.56738" lon="5.7954">
        <ele>380.9</ele>
        <time>2022-04-15T12:19:46Z</time>
      </trkpt>
      <trkpt lat="45.56738" lon="5.7954">
        <ele>380.9</ele>
        <time>2022-04-15T12:19:47Z</time>
      </trkpt>
      <trkpt lat="45.56738" lon="5.7954">
        <ele>380.9</ele>
        <time>2022-04-15T12:19:48Z</time>
      </trkpt>
      <trkpt lat="45.56738" lon="5.7954">
        <ele>380.9</ele>
        <time>2022-04-15T12:19:49Z</time>
      </trkpt>
      <trkpt lat="45.56738" lon="5.7954">
        <ele>380.9</ele>
        <time>2022-04-15T12:19:50Z</time>
      </trkpt>
      <trkpt lat="45.56738" lon="5.7954">
        <ele>380.9</ele>
        <time>2022-04-15T12:19:51Z</time>
      </trkpt>
      <trkpt lat="45.56738" lon="5.7954">
        <ele>380.9</ele>
        <time>2022-04-15T12:19:52Z</time>
      </trkpt>
      <trkpt lat="45.56738" lon="5.7954">
        <ele>380.9</ele>
        <time>2022-04-15T12:19:53Z</time>
      </trkpt>
      <trkpt lat="45.56738" lon="5.7954">
        <ele>380.9</ele>
        <time>2022-04-15T12:19:54Z</time>
      </trkpt>
      <trkpt lat="45.56738" lon="5.7954">
        <ele>380.9</ele>
        <time>2022-04-15T12:19:55Z</time>
      </trkpt>
      <trkpt lat="45.56738" lon="5.7954">
        <ele>380.9</ele>
        <time>2022-04-15T12:19:56Z</time>
      </trkpt>
      <trkpt lat="45.56738" lon="5.7954">
        <ele>380.9</ele>
        <time>2022-04-15T12:19:57Z</time>
      </trkpt>
      <trkpt lat="45.56738" lon="5.7954">
        <ele>380.9</ele>
        <time>2022-04-15T12:19:58Z</time>
      </trkpt>
      <trkpt lat="45.56738" lon="5.7954">
        <ele>380.9</ele>
        <time>2022-04-15T12:19:59Z</time>
      </trkpt>
      <trkpt lat="45.56738" lon="5.7954">
        <ele>380.9</ele>
        <time>2022-04-15T12:20:00Z</time>
      </trkpt>
      <trkpt lat="45.56738" lon="5.7954">
        <ele>380.9</ele>
        <time>2022-04-15T12:20:01Z</time>
      </trkpt>
      <trkpt lat="45.56738" lon="5.7954">
        <ele>380.9</ele>
        <time>2022-04-15T12:20:02Z</time>
      </trkpt>
      <trkpt lat="45.56738" lon="5.7954">
        <ele>380.9</ele>
        <time>2022-04-15T12:20:03Z</time>
      </trkpt>
      <trkpt lat="45.56738" lon="5.7954">
        <ele>380.9</ele>
        <time>2022-04-15T12:20:04Z</time>
      </trkpt>
      <trkpt lat="45.56738" lon="5.7954">
        <ele>380.9</ele>
        <time>2022-04-15T12:20:05Z</time>
      </trkpt>
      <trkpt lat="45.56738" lon="5.7954">
        <ele>380.9</ele>
        <time>2022-04-15T12:20:06Z</time>
      </trkpt>
      <trkpt lat="45.56738" lon="5.7954">
        <ele>380.9</ele>
        <time>2022-04-15T12:20:07Z</time>
      </trkpt>
      <trkpt lat="45.56738" lon="5.7954">
        <ele>380.9</ele>
        <time>2022-04-15T12:20:08Z</time>
      </trkpt>
      <trkpt lat="45.56738" lon="5.7954">
        <ele>380.9</ele>
        <time>2022-04-15T12:20:09Z</time>
      </trkpt>
      <trkpt lat="45.56738" lon="5.7954">
        <ele>380.9</ele>
        <time>2022-04-15T12:20:10Z</time>
      </trkpt>
      <trkpt lat="45.56738" lon="5.7954">
        <ele>380.9</ele>
        <time>2022-04-15T12:20:11Z</time>
      </trkpt>
      <trkpt lat="45.56738" lon="5.7954">
        <ele>380.9</ele>
        <time>2022-04-15T12:20:12Z</time>
      </trkpt>
      <trkpt lat="45.56738" lon="5.7954">
        <ele>380.9</ele>
        <time>2022-04-15T12:20:13Z</time>
      </trkpt>
      <trkpt lat="45.56738" lon="5.7954">
        <ele>380.9</ele>
        <time>2022-04-15T12:20:14Z</time>
      </trkpt>
      <trkpt lat="45.56738" lon="5.7954">
        <ele>380.9</ele>
        <time>2022-04-15T12:20:15Z</time>
      </trkpt>
      <trkpt lat="45.56738" lon="5.7954">
        <ele>380.9</ele>
        <time>2022-04-15T12:20:16Z</time>
      </trkpt>
      <trkpt lat="45.56738" lon="5.7954">
        <ele>380.9</ele>
        <time>2022-04-15T12:20:17Z</time>
      </trkpt>
      <trkpt lat="45.56738" lon="5.7954">
        <ele>380.9</ele>
        <time>2022-04-15T12:20:18Z</time>
      </trkpt>
      <trkpt lat="45.56738" lon="5.7954">
        <ele>380.9</ele>
        <time>2022-04-15T12:20:19Z</time>
      </trkpt>
      <trkpt lat="45.56738" lon="5.7954">
        <ele>380.9</ele>
        <time>2022-04-15T12:20:20Z</time>
      </trkpt>
      <trkpt lat="45.56738" lon="5.7954">
        <ele>380.9</ele>
        <time>2022-04-15T12:20:21Z</time>
      </trkpt>
      <trkpt lat="45.56738" lon="5.7954">
        <ele>380.9</ele>
        <time>2022-04-15T12:20:22Z</time>
      </trkpt>
      <trkpt lat="45.56738" lon="5.7954">
        <ele>380.9</ele>
        <time>2022-04-15T12:20:23Z</time>
      </trkpt>
      <trkpt lat="45.56738" lon="5.7954">
        <ele>380.9</ele>
        <time>2022-04-15T12:20:24Z</time>
      </trkpt>
      <trkpt lat="45.56738" lon="5.7954">
        <ele>380.9</ele>
        <time>2022-04-15T12:20:25Z</time>
      </trkpt>
      <trkpt lat="45.56738" lon="5.7954">
        <ele>380.9</ele>
        <time>2022-04-15T12:20:26Z</time>
      </trkpt>
      <trkpt lat="45.56738" lon="5.7954">
        <ele>380.9</ele>
        <time>2022-04-15T12:20:27Z</time>
      </trkpt>
      <trkpt lat="45.56738" lon="5.7954">
        <ele>380.9</ele>
        <time>2022-04-15T12:20:28Z</time>
      </trkpt>
      <trkpt lat="45.56738" lon="5.7954">
        <ele>380.9</ele>
        <time>2022-04-15T12:20:29Z</time>
      </trkpt>
      <trkpt lat="45.56738" lon="5.7954">
        <ele>380.9</ele>
        <time>2022-04-15T12:20:30Z</time>
      </trkpt>
      <trkpt lat="45.56738" lon="5.7954">
        <ele>380.9</ele>
        <time>2022-04-15T12:20:31Z</time>
      </trkpt>
      <trkpt lat="45.56738" lon="5.7954">
        <ele>380.9</ele>
        <time>2022-04-15T12:20:32Z</time>
      </trkpt>
      <trkpt lat="45.56738" lon="5.7954">
        <ele>380.9</ele>
        <time>2022-04-15T12:20:33Z</time>
      </trkpt>
      <trkpt lat="45.56738" lon="5.7954">
        <ele>380.9</ele>
        <time>2022-04-15T12:20:34Z</time>
      </trkpt>
      <trkpt lat="45.56738" lon="5.7954">
        <ele>380.9</ele>
        <time>2022-04-15T12:20:35Z</time>
      </trkpt>
      <trkpt lat="45.56738" lon="5.7954">
        <ele>380.9</ele>
        <time>2022-04-15T12:20:36Z</time>
      </trkpt>
      <trkpt lat="45.56738" lon="5.7954">
        <ele>380.9</ele>
        <time>2022-04-15T12:20:37Z</time>
      </trkpt>
      <trkpt lat="45.56738" lon="5.7954">
        <ele>380.9</ele>
        <time>2022-04-15T12:20:38Z</time>
      </trkpt>
      <trkpt lat="45.56738" lon="5.7954">
        <ele>380.9</ele>
        <time>2022-04-15T12:20:39Z</time>
      </trkpt>
      <trkpt lat="45.56738" lon="5.7954">
        <ele>380.9</ele>
        <time>2022-04-15T12:20:40Z</time>
      </trkpt>
      <trkpt lat="45.56738" lon="5.7954">
        <ele>380.9</ele>
        <time>2022-04-15T12:20:41Z</time>
      </trkpt>
      <trkpt lat="45.56738" lon="5.7954">
        <ele>380.9</ele>
        <time>2022-04-15T12:20:42Z</time>
      </trkpt>
      <trkpt lat="45.56738" lon="5.7954">
        <ele>380.9</ele>
        <time>2022-04-15T12:20:43Z</time>
      </trkpt>
      <trkpt lat="45.56738" lon="5.7954">
        <ele>380.9</ele>
        <time>2022-04-15T12:20:44Z</time>
      </trkpt>
      <trkpt lat="45.56738" lon="5.7954">
        <ele>380.9</ele>
        <time>2022-04-15T12:20:45Z</time>
      </trkpt>
      <trkpt lat="45.56738" lon="5.7954">
        <ele>380.9</ele>
        <time>2022-04-15T12:20:46Z</time>
      </trkpt>
      <trkpt lat="45.56738" lon="5.7954">
        <ele>380.9</ele>
        <time>2022-04-15T12:20:47Z</time>
      </trkpt>
      <trkpt lat="45.56738" lon="5.7954">
        <ele>380.9</ele>
        <time>2022-04-15T12:20:48Z</time>
      </trkpt>
      <trkpt lat="45.56738" lon="5.7954">
        <ele>380.9</ele>
        <time>2022-04-15T12:20:49Z</time>
      </trkpt>
      <trkpt lat="45.56738" lon="5.7954">
        <ele>380.9</ele>
        <time>2022-04-15T12:20:50Z</time>
      </trkpt>
      <trkpt lat="45.56738" lon="5.7954">
        <ele>380.9</ele>
        <time>2022-04-15T12:20:51Z</time>
      </trkpt>
      <trkpt lat="45.56738" lon="5.7954">
        <ele>380.9</ele>
        <time>2022-04-15T12:20:52Z</time>
      </trkpt>
      <trkpt lat="45.56738" lon="5.7954">
        <ele>380.9</ele>
        <time>2022-04-15T12:20:53Z</time>
      </trkpt>
      <trkpt lat="45.56738" lon="5.7954">
        <ele>380.9</ele>
        <time>2022-04-15T12:20:54Z</time>
      </trkpt>
      <trkpt lat="45.56738" lon="5.7954">
        <ele>380.9</ele>
        <time>2022-04-15T12:20:55Z</time>
      </trkpt>
      <trkpt lat="45.56738" lon="5.7954">
        <ele>380.9</ele>
        <time>2022-04-15T12:20:56Z</time>
      </trkpt>
      <trkpt lat="45.56738" lon="5.7954">
        <ele>380.9</ele>
        <time>2022-04-15T12:20:57Z</time>
      </trkpt>
      <trkpt lat="45.56738" lon="5.7954">
        <ele>380.9</ele>
        <time>2022-04-15T12:20:58Z</time>
      </trkpt>
      <trkpt lat="45.56738" lon="5.7954">
        <ele>380.9</ele>
        <time>2022-04-15T12:20:59Z</time>
      </trkpt>
      <trkpt lat="45.56738" lon="5.7954">
        <ele>380.9</ele>
        <time>2022-04-15T12:21:00Z</time>
      </trkpt>
      <trkpt lat="45.56738" lon="5.7954">
        <ele>380.9</ele>
        <time>2022-04-15T12:21:01Z</time>
      </trkpt>
      <trkpt lat="45.56738" lon="5.7954">
        <ele>380.9</ele>
        <time>2022-04-15T12:21:02Z</time>
      </trkpt>
      <trkpt lat="45.56738" lon="5.7954">
        <ele>380.9</ele>
        <time>2022-04-15T12:21:03Z</time>
      </trkpt>
      <trkpt lat="45.56738" lon="5.7954">
        <ele>380.9</ele>
        <time>2022-04-15T12:21:04Z</time>
      </trkpt>
      <trkpt lat="45.56738" lon="5.7954">
        <ele>380.9</ele>
        <time>2022-04-15T12:21:05Z</time>
      </trkpt>
      <trkpt lat="45.56738" lon="5.7954">
        <ele>380.9</ele>
        <time>2022-04-15T12:21:06Z</time>
      </trkpt>
      <trkpt lat="45.56738" lon="5.7954">
        <ele>380.9</ele>
        <time>2022-04-15T12:21:07Z</time>
      </trkpt>
      <trkpt lat="45.56738" lon="5.7954">
        <ele>380.9</ele>
        <time>2022-04-15T12:21:08Z</time>
      </trkpt>
      <trkpt lat="45.56738" lon="5.7954">
        <ele>380.9</ele>
        <time>2022-04-15T12:21:09Z</time>
      </trkpt>
      <trkpt lat="45.56738" lon="5.7954">
        <ele>380.9</ele>
        <time>2022-04-15T12:21:10Z</time>
      </trkpt>
      <trkpt lat="45.56738" lon="5.7954">
        <ele>380.9</ele>
        <time>2022-04-15T12:21:11Z</time>
      </trkpt>
      <trkpt lat="45.56738" lon="5.7954">
        <ele>380.9</ele>
        <time>2022-04-15T12:21:12Z</time>
      </trkpt>
      <trkpt lat="45.56738" lon="5.7954">
        <ele>380.9</ele>
        <time>2022-04-15T12:21:13Z</time>
      </trkpt>
      <trkpt lat="45.56738" lon="5.7954">
        <ele>380.9</ele>
        <time>2022-04-15T12:21:14Z</time>
      </trkpt>
      <trkpt lat="45.56738" lon="5.7954">
        <ele>380.9</ele>
        <time>2022-04-15T12:21:15Z</time>
      </trkpt>
      <trkpt lat="45.56738" lon="5.7954">
        <ele>380.9</ele>
        <time>2022-04-15T12:21:16Z</time>
      </trkpt>
      <trkpt lat="45.56738" lon="5.7954">
        <ele>380.9</ele>
        <time>2022-04-15T12:21:17Z</time>
      </trkpt>
      <trkpt lat="45.56738" lon="5.7954">
        <ele>380.9</ele>
        <time>2022-04-15T12:21:18Z</time>
      </trkpt>
      <trkpt lat="45.56738" lon="5.7954">
        <ele>380.9</ele>
        <time>2022-04-15T12:21:19Z</time>
      </trkpt>
      <trkpt lat="45.56738" lon="5.7954">
        <ele>380.9</ele>
        <time>2022-04-15T12:21:20Z</time>
      </trkpt>
      <trkpt lat="45.56738" lon="5.7954">
        <ele>380.9</ele>
        <time>2022-04-15T12:21:21Z</time>
      </trkpt>
      <trkpt lat="45.56738" lon="5.7954">
        <ele>380.9</ele>
        <time>2022-04-15T12:21:22Z</time>
      </trkpt>
      <trkpt lat="45.56738" lon="5.7954">
        <ele>380.9</ele>
        <time>2022-04-15T12:21:23Z</time>
      </trkpt>
      <trkpt lat="45.56738" lon="5.7954">
        <ele>380.9</ele>
        <time>2022-04-15T12:21:24Z</time>
      </trkpt>
      <trkpt lat="45.56738" lon="5.7954">
        <ele>380.9</ele>
        <time>2022-04-15T12:21:25Z</time>
      </trkpt>
      <trkpt lat="45.56738" lon="5.7954">
        <ele>380.9</ele>
        <time>2022-04-15T12:21:26Z</time>
      </trkpt>
      <trkpt lat="45.56738" lon="5.7954">
        <ele>380.9</ele>
        <time>2022-04-15T12:21:27Z</time>
      </trkpt>
      <trkpt lat="45.56738" lon="5.7954">
        <ele>380.9</ele>
        <time>2022-04-15T12:21:28Z</time>
      </trkpt>
      <trkpt lat="45.56738" lon="5.7954">
        <ele>380.9</ele>
        <time>2022-04-15T12:21:29Z</time>
      </trkpt>
      <trkpt lat="45.56738" lon="5.7954">
        <ele>380.9</ele>
        <time>2022-04-15T12:21:30Z</time>
      </trkpt>
      <trkpt lat="45.56738" lon="5.7954">
        <ele>380.9</ele>
        <time>2022-04-15T12:21:31Z</time>
      </trkpt>
      <trkpt lat="45.56738" lon="5.7954">
        <ele>380.9</ele>
        <time>2022-04-15T12:21:32Z</time>
      </trkpt>
      <trkpt lat="45.56738" lon="5.7954">
        <ele>380.9</ele>
        <time>2022-04-15T12:21:33Z</time>
      </trkpt>
      <trkpt lat="45.56738" lon="5.7954">
        <ele>380.9</ele>
        <time>2022-04-15T12:21:34Z</time>
      </trkpt>
      <trkpt lat="45.56738" lon="5.7954">
        <ele>380.9</ele>
        <time>2022-04-15T12:21:35Z</time>
      </trkpt>
      <trkpt lat="45.56738" lon="5.7954">
        <ele>380.9</ele>
        <time>2022-04-15T12:21:36Z</time>
      </trkpt>
      <trkpt lat="45.56738" lon="5.7954">
        <ele>380.9</ele>
        <time>2022-04-15T12:21:37Z</time>
      </trkpt>
      <trkpt lat="45.56738" lon="5.7954">
        <ele>380.9</ele>
        <time>2022-04-15T12:21:38Z</time>
      </trkpt>
      <trkpt lat="45.56738" lon="5.7954">
        <ele>380.9</ele>
        <time>2022-04-15T12:21:39Z</time>
      </trkpt>
      <trkpt lat="45.56738" lon="5.7954">
        <ele>380.9</ele>
        <time>2022-04-15T12:21:40Z</time>
      </trkpt>
      <trkpt lat="45.56738" lon="5.7954">
        <ele>380.9</ele>
        <time>2022-04-15T12:21:41Z</time>
      </trkpt>
      <trkpt lat="45.56738" lon="5.7954">
        <ele>380.9</ele>
        <time>2022-04-15T12:21:42Z</time>
      </trkpt>
      <trkpt lat="45.56738" lon="5.7954">
        <ele>380.9</ele>
        <time>2022-04-15T12:21:43Z</time>
      </trkpt>
      <trkpt lat="45.56738" lon="5.7954">
        <ele>380.9</ele>
        <time>2022-04-15T12:21:44Z</time>
      </trkpt>
      <trkpt lat="45.56738" lon="5.7954">
        <ele>380.9</ele>
        <time>2022-04-15T12:21:45Z</time>
      </trkpt>
      <trkpt lat="45.56738" lon="5.7954">
        <ele>380.9</ele>
        <time>2022-04-15T12:21:46Z</time>
      </trkpt>
      <trkpt lat="45.56738" lon="5.7954">
        <ele>380.9</ele>
        <time>2022-04-15T12:21:47Z</time>
      </trkpt>
      <trkpt lat="45.56738" lon="5.7954">
        <ele>380.9</ele>
        <time>2022-04-15T12:21:48Z</time>
      </trkpt>
      <trkpt lat="45.56738" lon="5.7954">
        <ele>380.9</ele>
        <time>2022-04-15T12:21:49Z</time>
      </trkpt>
      <trkpt lat="45.56738" lon="5.7954">
        <ele>380.9</ele>
        <time>2022-04-15T12:21:50Z</time>
      </trkpt>
      <trkpt lat="45.56738" lon="5.7954">
        <ele>380.9</ele>
        <time>2022-04-15T12:21:51Z</time>
      </trkpt>
      <trkpt lat="45.56738" lon="5.7954">
        <ele>380.9</ele>
        <time>2022-04-15T12:21:52Z</time>
      </trkpt>
      <trkpt lat="45.56738" lon="5.7954">
        <ele>380.9</ele>
        <time>2022-04-15T12:21:53Z</time>
      </trkpt>
      <trkpt lat="45.56738" lon="5.7954">
        <ele>380.9</ele>
        <time>2022-04-15T12:21:54Z</time>
      </trkpt>
      <trkpt lat="45.56738" lon="5.7954">
        <ele>380.9</ele>
        <time>2022-04-15T12:21:55Z</time>
      </trkpt>
      <trkpt lat="45.56738" lon="5.7954">
        <ele>380.9</ele>
        <time>2022-04-15T12:21:56Z</time>
      </trkpt>
      <trkpt lat="45.56738" lon="5.7954">
        <ele>380.9</ele>
        <time>2022-04-15T12:21:57Z</time>
      </trkpt>
      <trkpt lat="45.56738" lon="5.7954">
        <ele>380.9</ele>
        <time>2022-04-15T12:21:58Z</time>
      </trkpt>
      <trkpt lat="45.56738" lon="5.7954">
        <ele>380.9</ele>
        <time>2022-04-15T12:21:59Z</time>
      </trkpt>
      <trkpt lat="45.56738" lon="5.7954">
        <ele>380.9</ele>
        <time>2022-04-15T12:22:00Z</time>
      </trkpt>
      <trkpt lat="45.56738" lon="5.7954">
        <ele>380.9</ele>
        <time>2022-04-15T12:22:01Z</time>
      </trkpt>
      <trkpt lat="45.56738" lon="5.7954">
        <ele>380.9</ele>
        <time>2022-04-15T12:22:02Z</time>
      </trkpt>
      <trkpt lat="45.56738" lon="5.7954">
        <ele>380.9</ele>
        <time>2022-04-15T12:22:03Z</time>
      </trkpt>
      <trkpt lat="45.56738" lon="5.7954">
        <ele>380.9</ele>
        <time>2022-04-15T12:22:04Z</time>
      </trkpt>
      <trkpt lat="45.56738" lon="5.7954">
        <ele>380.9</ele>
        <time>2022-04-15T12:22:05Z</time>
      </trkpt>
      <trkpt lat="45.56738" lon="5.7954">
        <ele>380.9</ele>
        <time>2022-04-15T12:22:06Z</time>
      </trkpt>
      <trkpt lat="45.56738" lon="5.7954">
        <ele>380.9</ele>
        <time>2022-04-15T12:22:07Z</time>
      </trkpt>
      <trkpt lat="45.56738" lon="5.7954">
        <ele>380.9</ele>
        <time>2022-04-15T12:22:08Z</time>
      </trkpt>
      <trkpt lat="45.56738" lon="5.7954">
        <ele>380.9</ele>
        <time>2022-04-15T12:22:09Z</time>
      </trkpt>
      <trkpt lat="45.56738" lon="5.7954">
        <ele>380.9</ele>
        <time>2022-04-15T12:22:10Z</time>
      </trkpt>
      <trkpt lat="45.56738" lon="5.7954">
        <ele>380.9</ele>
        <time>2022-04-15T12:22:11Z</time>
      </trkpt>
      <trkpt lat="45.56738" lon="5.7954">
        <ele>380.9</ele>
        <time>2022-04-15T12:22:12Z</time>
      </trkpt>
      <trkpt lat="45.56738" lon="5.7954">
        <ele>380.9</ele>
        <time>2022-04-15T12:22:13Z</time>
      </trkpt>
      <trkpt lat="45.56738" lon="5.7954">
        <ele>380.9</ele>
        <time>2022-04-15T12:22:14Z</time>
      </trkpt>
      <trkpt lat="45.56738" lon="5.7954">
        <ele>380.9</ele>
        <time>2022-04-15T12:22:15Z</time>
      </trkpt>
      <trkpt lat="45.56738" lon="5.7954">
        <ele>380.9</ele>
        <time>2022-04-15T12:22:16Z</time>
      </trkpt>
      <trkpt lat="45.56738" lon="5.7954">
        <ele>380.9</ele>
        <time>2022-04-15T12:22:17Z</time>
      </trkpt>
      <trkpt lat="45.56738" lon="5.7954">
        <ele>380.9</ele>
        <time>2022-04-15T12:22:18Z</time>
      </trkpt>
      <trkpt lat="45.56738" lon="5.7954">
        <ele>380.9</ele>
        <time>2022-04-15T12:22:19Z</time>
      </trkpt>
      <trkpt lat="45.56738" lon="5.7954">
        <ele>380.9</ele>
        <time>2022-04-15T12:22:20Z</time>
      </trkpt>
      <trkpt lat="45.56738" lon="5.7954">
        <ele>380.9</ele>
        <time>2022-04-15T12:22:21Z</time>
      </trkpt>
      <trkpt lat="45.56738" lon="5.7954">
        <ele>380.9</ele>
        <time>2022-04-15T12:22:22Z</time>
      </trkpt>
      <trkpt lat="45.56738" lon="5.7954">
        <ele>380.9</ele>
        <time>2022-04-15T12:22:23Z</time>
      </trkpt>
      <trkpt lat="45.56738" lon="5.7954">
        <ele>380.9</ele>
        <time>2022-04-15T12:22:24Z</time>
      </trkpt>
      <trkpt lat="45.56738" lon="5.7954">
        <ele>380.9</ele>
        <time>2022-04-15T12:22:25Z</time>
      </trkpt>
      <trkpt lat="45.56738" lon="5.7954">
        <ele>380.9</ele>
        <time>2022-04-15T12:22:26Z</time>
      </trkpt>
      <trkpt lat="45.56738" lon="5.7954">
        <ele>380.9</ele>
        <time>2022-04-15T12:22:27Z</time>
      </trkpt>
      <trkpt lat="45.56738" lon="5.7954">
        <ele>380.9</ele>
        <time>2022-04-15T12:22:28Z</time>
      </trkpt>
      <trkpt lat="45.56738" lon="5.7954">
        <ele>380.9</ele>
        <time>2022-04-15T12:22:29Z</time>
      </trkpt>
      <trkpt lat="45.56738" lon="5.7954">
        <ele>380.9</ele>
        <time>2022-04-15T12:22:30Z</time>
      </trkpt>
      <trkpt lat="45.56738" lon="5.7954">
        <ele>380.9</ele>
        <time>2022-04-15T12:22:31Z</time>
      </trkpt>
      <trkpt lat="45.56738" lon="5.7954">
        <ele>380.9</ele>
        <time>2022-04-15T12:22:32Z</time>
      </trkpt>
      <trkpt lat="45.56738" lon="5.7954">
        <ele>380.9</ele>
        <time>2022-04-15T12:22:33Z</time>
      </trkpt>
      <trkpt lat="45.56738" lon="5.7954">
        <ele>380.9</ele>
        <time>2022-04-15T12:22:34Z</time>
      </trkpt>
      <trkpt lat="45.56738" lon="5.7954">
        <ele>380.9</ele>
        <time>2022-04-15T12:22:35Z</time>
      </trkpt>
      <trkpt lat="45.56738" lon="5.7954">
        <ele>380.9</ele>
        <time>2022-04-15T12:22:36Z</time>
      </trkpt>
      <trkpt lat="45.56738" lon="5.7954">
        <ele>380.9</ele>
        <time>2022-04-15T12:22:37Z</time>
      </trkpt>
      <trkpt lat="45.56738" lon="5.7954">
        <ele>380.9</ele>
        <time>2022-04-15T12:22:38Z</time>
      </trkpt>
      <trkpt lat="45.56738" lon="5.7954">
        <ele>380.9</ele>
        <time>2022-04-15T12:22:39Z</time>
      </trkpt>
      <trkpt lat="45.56738" lon="5.7954">
        <ele>380.9</ele>
        <time>2022-04-15T12:22:40Z</time>
      </trkpt>
      <trkpt lat="45.56738" lon="5.7954">
        <ele>380.9</ele>
        <time>2022-04-15T12:22:41Z</time>
      </trkpt>
      <trkpt lat="45.56738" lon="5.7954">
        <ele>380.9</ele>
        <time>2022-04-15T12:22:42Z</time>
      </trkpt>
      <trkpt lat="45.56738" lon="5.7954">
        <ele>380.9</ele>
        <time>2022-04-15T12:22:43Z</time>
      </trkpt>
      <trkpt lat="45.56738" lon="5.7954">
        <ele>380.9</ele>
        <time>2022-04-15T12:22:44Z</time>
      </trkpt>
      <trkpt lat="45.56738" lon="5.7954">
        <ele>380.9</ele>
        <time>2022-04-15T12:22:45Z</time>
      </trkpt>
      <trkpt lat="45.56738" lon="5.7954">
        <ele>380.9</ele>
        <time>2022-04-15T12:22:46Z</time>
      </trkpt>
      <trkpt lat="45.56738" lon="5.7954">
        <ele>380.9</ele>
        <time>2022-04-15T12:22:47Z</time>
      </trkpt>
      <trkpt lat="45.56738" lon="5.7954">
        <ele>380.9</ele>
        <time>2022-04-15T12:22:48Z</time>
      </trkpt>
      <trkpt lat="45.56738" lon="5.7954">
        <ele>380.9</ele>
        <time>2022-04-15T12:22:49Z</time>
      </trkpt>
      <trkpt lat="45.56738" lon="5.7954">
        <ele>380.9</ele>
        <time>2022-04-15T12:22:50Z</time>
      </trkpt>
      <trkpt lat="45.56738" lon="5.7954">
        <ele>380.9</ele>
        <time>2022-04-15T12:22:51Z</time>
      </trkpt>
      <trkpt lat="45.56738" lon="5.7954">
        <ele>380.9</ele>
        <time>2022-04-15T12:22:52Z</time>
      </trkpt>
      <trkpt lat="45.56738" lon="5.7954">
        <ele>380.9</ele>
        <time>2022-04-15T12:22:53Z</time>
      </trkpt>
      <trkpt lat="45.56738" lon="5.7954">
        <ele>380.9</ele>
        <time>2022-04-15T12:22:54Z</time>
      </trkpt>
      <trkpt lat="45.56738" lon="5.7954">
        <ele>380.9</ele>
        <time>2022-04-15T12:22:55Z</time>
      </trkpt>
      <trkpt lat="45.56738" lon="5.7954">
        <ele>380.9</ele>
        <time>2022-04-15T12:22:56Z</time>
      </trkpt>
      <trkpt lat="45.56738" lon="5.7954">
        <ele>380.9</ele>
        <time>2022-04-15T12:22:57Z</time>
      </trkpt>
      <trkpt lat="45.56738" lon="5.7954">
        <ele>380.9</ele>
        <time>2022-04-15T12:22:58Z</time>
      </trkpt>
      <trkpt lat="45.56738" lon="5.7954">
        <ele>380.9</ele>
        <time>2022-04-15T12:22:59Z</time>
      </trkpt>
      <trkpt lat="45.56738" lon="5.7954">
        <ele>380.9</ele>
        <time>2022-04-15T12:23:00Z</time>
      </trkpt>
      <trkpt lat="45.56738" lon="5.7954">
        <ele>380.9</ele>
        <time>2022-04-15T12:23:01Z</time>
      </trkpt>
      <trkpt lat="45.56738" lon="5.7954">
        <ele>380.9</ele>
        <time>2022-04-15T12:23:02Z</time>
      </trkpt>
      <trkpt lat="45.56738" lon="5.7954">
        <ele>380.9</ele>
        <time>2022-04-15T12:23:03Z</time>
      </trkpt>
      <trkpt lat="45.56738" lon="5.7954">
        <ele>380.9</ele>
        <time>2022-04-15T12:23:04Z</time>
      </trkpt>
      <trkpt lat="45.56738" lon="5.7954">
        <ele>380.9</ele>
        <time>2022-04-15T12:23:05Z</time>
      </trkpt>
      <trkpt lat="45.56738" lon="5.7954">
        <ele>380.9</ele>
        <time>2022-04-15T12:23:06Z</time>
      </trkpt>
      <trkpt lat="45.56738" lon="5.7954">
        <ele>380.9</ele>
        <time>2022-04-15T12:23:07Z</time>
      </trkpt>
      <trkpt lat="45.56738" lon="5.7954">
        <ele>380.9</ele>
        <time>2022-04-15T12:23:08Z</time>
      </trkpt>
      <trkpt lat="45.56738" lon="5.7954">
        <ele>380.9</ele>
        <time>2022-04-15T12:23:09Z</time>
      </trkpt>
      <trkpt lat="45.56738" lon="5.7954">
        <ele>380.9</ele>
        <time>2022-04-15T12:23:10Z</time>
      </trkpt>
      <trkpt lat="45.56738" lon="5.7954">
        <ele>380.9</ele>
        <time>2022-04-15T12:23:11Z</time>
      </trkpt>
      <trkpt lat="45.56738" lon="5.7954">
        <ele>380.9</ele>
        <time>2022-04-15T12:23:12Z</time>
      </trkpt>
      <trkpt lat="45.56738" lon="5.7954">
        <ele>380.9</ele>
        <time>2022-04-15T12:23:13Z</time>
      </trkpt>
      <trkpt lat="45.56738" lon="5.7954">
        <ele>380.9</ele>
        <time>2022-04-15T12:23:14Z</time>
      </trkpt>
      <trkpt lat="45.56738" lon="5.7954">
        <ele>380.9</ele>
        <time>2022-04-15T12:23:15Z</time>
      </trkpt>
      <trkpt lat="45.56738" lon="5.7954">
        <ele>380.9</ele>
        <time>2022-04-15T12:23:16Z</time>
      </trkpt>
      <trkpt lat="45.56738" lon="5.7954">
        <ele>380.9</ele>
        <time>2022-04-15T12:23:17Z</time>
      </trkpt>
      <trkpt lat="45.56738" lon="5.7954">
        <ele>380.9</ele>
        <time>2022-04-15T12:23:18Z</time>
      </trkpt>
      <trkpt lat="45.56738" lon="5.7954">
        <ele>380.9</ele>
        <time>2022-04-15T12:23:19Z</time>
      </trkpt>
      <trkpt lat="45.56738" lon="5.7954">
        <ele>380.9</ele>
        <time>2022-04-15T12:23:20Z</time>
      </trkpt>
      <trkpt lat="45.56738" lon="5.7954">
        <ele>380.9</ele>
        <time>2022-04-15T12:23:21Z</time>
      </trkpt>
      <trkpt lat="45.56738" lon="5.7954">
        <ele>380.9</ele>
        <time>2022-04-15T12:23:22Z</time>
      </trkpt>
      <trkpt lat="45.56738" lon="5.7954">
        <ele>380.9</ele>
        <time>2022-04-15T12:23:23Z</time>
      </trkpt>
      <trkpt lat="45.56738" lon="5.7954">
        <ele>380.9</ele>
        <time>2022-04-15T12:23:24Z</time>
      </trkpt>
      <trkpt lat="45.56738" lon="5.7954">
        <ele>380.9</ele>
        <time>2022-04-15T12:23:25Z</time>
      </trkpt>
      <trkpt lat="45.56738" lon="5.7954">
        <ele>380.9</ele>
        <time>2022-04-15T12:23:26Z</time>
      </trkpt>
      <trkpt lat="45.56738" lon="5.7954">
        <ele>380.9</ele>
        <time>2022-04-15T12:23:27Z</time>
      </trkpt>
      <trkpt lat="45.56738" lon="5.7954">
        <ele>380.9</ele>
        <time>2022-04-15T12:23:28Z</time>
      </trkpt>
      <trkpt lat="45.56738" lon="5.7954">
        <ele>380.9</ele>
        <time>2022-04-15T12:23:29Z</time>
      </trkpt>
      <trkpt lat="45.56738" lon="5.7954">
        <ele>380.9</ele>
        <time>2022-04-15T12:23:30Z</time>
      </trkpt>
      <trkpt lat="45.56738" lon="5.7954">
        <ele>380.9</ele>
        <time>2022-04-15T12:23:31Z</time>
      </trkpt>
      <trkpt lat="45.56738" lon="5.7954">
        <ele>380.9</ele>
        <time>2022-04-15T12:23:32Z</time>
      </trkpt>
      <trkpt lat="45.56738" lon="5.7954">
        <ele>380.9</ele>
        <time>2022-04-15T12:23:33Z</time>
      </trkpt>
      <trkpt lat="45.56738" lon="5.7954">
        <ele>380.9</ele>
        <time>2022-04-15T12:23:34Z</time>
      </trkpt>
      <trkpt lat="45.56738" lon="5.7954">
        <ele>380.9</ele>
        <time>2022-04-15T12:23:35Z</time>
      </trkpt>
      <trkpt lat="45.56738" lon="5.7954">
        <ele>380.9</ele>
        <time>2022-04-15T12:23:36Z</time>
      </trkpt>
      <trkpt lat="45.56738" lon="5.7954">
        <ele>380.9</ele>
        <time>2022-04-15T12:23:37Z</time>
      </trkpt>
      <trkpt lat="45.56738" lon="5.7954">
        <ele>380.9</ele>
        <time>2022-04-15T12:23:38Z</time>
      </trkpt>
      <trkpt lat="45.56738" lon="5.7954">
        <ele>380.9</ele>
        <time>2022-04-15T12:23:39Z</time>
      </trkpt>
      <trkpt lat="45.56738" lon="5.7954">
        <ele>380.9</ele>
        <time>2022-04-15T12:23:40Z</time>
      </trkpt>
      <trkpt lat="45.56738" lon="5.7954">
        <ele>380.9</ele>
        <time>2022-04-15T12:23:41Z</time>
      </trkpt>
      <trkpt lat="45.56738" lon="5.7954">
        <ele>380.9</ele>
        <time>2022-04-15T12:23:42Z</time>
      </trkpt>
      <trkpt lat="45.56738" lon="5.7954">
        <ele>380.9</ele>
        <time>2022-04-15T12:23:43Z</time>
      </trkpt>
      <trkpt lat="45.56738" lon="5.7954">
        <ele>380.9</ele>
        <time>2022-04-15T12:23:44Z</time>
      </trkpt>
      <trkpt lat="45.56738" lon="5.7954">
        <ele>380.9</ele>
        <time>2022-04-15T12:23:45Z</time>
      </trkpt>
      <trkpt lat="45.56738" lon="5.7954">
        <ele>380.9</ele>
        <time>2022-04-15T12:23:46Z</time>
      </trkpt>
      <trkpt lat="45.56738" lon="5.7954">
        <ele>380.9</ele>
        <time>2022-04-15T12:23:47Z</time>
      </trkpt>
      <trkpt lat="45.56738" lon="5.7954">
        <ele>380.9</ele>
        <time>2022-04-15T12:23:48Z</time>
      </trkpt>
      <trkpt lat="45.56738" lon="5.7954">
        <ele>380.9</ele>
        <time>2022-04-15T12:23:49Z</time>
      </trkpt>
      <trkpt lat="45.56738" lon="5.7954">
        <ele>380.9</ele>
        <time>2022-04-15T12:23:50Z</time>
      </trkpt>
      <trkpt lat="45.56738" lon="5.7954">
        <ele>380.9</ele>
        <time>2022-04-15T12:23:51Z</time>
      </trkpt>
      <trkpt lat="45.56738" lon="5.7954">
        <ele>380.9</ele>
        <time>2022-04-15T12:23:52Z</time>
      </trkpt>
      <trkpt lat="45.56738" lon="5.7954">
        <ele>380.9</ele>
        <time>2022-04-15T12:23:53Z</time>
      </trkpt>
      <trkpt lat="45.56738" lon="5.7954">
        <ele>380.9</ele>
        <time>2022-04-15T12:23:54Z</time>
      </trkpt>
      <trkpt lat="45.56738" lon="5.7954">
        <ele>380.9</ele>
        <time>2022-04-15T12:23:55Z</time>
      </trkpt>
      <trkpt lat="45.56738" lon="5.7954">
        <ele>380.9</ele>
        <time>2022-04-15T12:23:56Z</time>
      </trkpt>
      <trkpt lat="45.56738" lon="5.7954">
        <ele>380.9</ele>
        <time>2022-04-15T12:23:57Z</time>
      </trkpt>
      <trkpt lat="45.56738" lon="5.7954">
        <ele>380.9</ele>
        <time>2022-04-15T12:23:58Z</time>
      </trkpt>
      <trkpt lat="45.56738" lon="5.7954">
        <ele>380.9</ele>
        <time>2022-04-15T12:23:59Z</time>
      </trkpt>
      <trkpt lat="45.56738" lon="5.7954">
        <ele>380.9</ele>
        <time>2022-04-15T12:24:00Z</time>
      </trkpt>
      <trkpt lat="45.56738" lon="5.7954">
        <ele>380.9</ele>
        <time>2022-04-15T12:24:01Z</time>
      </trkpt>
      <trkpt lat="45.56738" lon="5.7954">
        <ele>380.9</ele>
        <time>2022-04-15T12:24:02Z</time>
      </trkpt>
      <trkpt lat="45.56738" lon="5.7954">
        <ele>380.9</ele>
        <time>2022-04-15T12:24:03Z</time>
      </trkpt>
      <trkpt lat="45.56738" lon="5.7954">
        <ele>380.9</ele>
        <time>2022-04-15T12:24:04Z</time>
      </trkpt>
      <trkpt lat="45.56738" lon="5.7954">
        <ele>380.9</ele>
        <time>2022-04-15T12:24:05Z</time>
      </trkpt>
      <trkpt lat="45.56738" lon="5.7954">
        <ele>380.9</ele>
        <time>2022-04-15T12:24:06Z</time>
      </trkpt>
      <trkpt lat="45.56738" lon="5.7954">
        <ele>380.9</ele>
        <time>2022-04-15T12:24:07Z</time>
      </trkpt>
      <trkpt lat="45.56738" lon="5.7954">
        <ele>380.9</ele>
        <time>2022-04-15T12:24:08Z</time>
      </trkpt>
      <trkpt lat="45.56738" lon="5.7954">
        <ele>380.9</ele>
        <time>2022-04-15T12:24:09Z</time>
      </trkpt>
      <trkpt lat="45.56738" lon="5.7954">
        <ele>380.9</ele>
        <time>2022-04-15T12:24:10Z</time>
      </trkpt>
      <trkpt lat="45.56738" lon="5.7954">
        <ele>380.9</ele>
        <time>2022-04-15T12:24:11Z</time>
      </trkpt>
      <trkpt lat="45.56738" lon="5.7954">
        <ele>380.9</ele>
        <time>2022-04-15T12:24:12Z</time>
      </trkpt>
      <trkpt lat="45.56738" lon="5.7954">
        <ele>380.9</ele>
        <time>2022-04-15T12:24:13Z</time>
      </trkpt>
      <trkpt lat="45.56738" lon="5.7954">
        <ele>380.9</ele>
        <time>2022-04-15T12:24:14Z</time>
      </trkpt>
      <trkpt lat="45.56738" lon="5.7954">
        <ele>380.9</ele>
        <time>2022-04-15T12:24:15Z</time>
      </trkpt>
      <trkpt lat="45.56738" lon="5.7954">
        <ele>380.9</ele>
        <time>2022-04-15T12:24:16Z</time>
      </trkpt>
      <trkpt lat="45.56738" lon="5.7954">
        <ele>380.9</ele>
        <time>2022-04-15T12:24:17Z</time>
      </trkpt>
      <trkpt lat="45.56738" lon="5.7954">
        <ele>380.9</ele>
        <time>2022-04-15T12:24:18Z</time>
      </trkpt>
      <trkpt lat="45.56738" lon="5.7954">
        <ele>380.9</ele>
        <time>2022-04-15T12:24:19Z</time>
      </trkpt>
      <trkpt lat="45.56738" lon="5.7954">
        <ele>380.9</ele>
        <time>2022-04-15T12:24:20Z</time>
      </trkpt>
      <trkpt lat="45.56738" lon="5.7954">
        <ele>380.9</ele>
        <time>2022-04-15T12:24:21Z</time>
      </trkpt>
      <trkpt lat="45.56738" lon="5.7954">
        <ele>380.9</ele>
        <time>2022-04-15T12:24:22Z</time>
      </trkpt>
      <trkpt lat="45.56738" lon="5.7954">
        <ele>380.9</ele>
        <time>2022-04-15T12:24:23Z</time>
      </trkpt>
      <trkpt lat="45.56738" lon="5.7954">
        <ele>380.9</ele>
        <time>2022-04-15T12:24:24Z</time>
      </trkpt>
      <trkpt lat="45.56738" lon="5.7954">
        <ele>380.9</ele>
        <time>2022-04-15T12:24:25Z</time>
      </trkpt>
      <trkpt lat="45.56738" lon="5.7954">
        <ele>380.9</ele>
        <time>2022-04-15T12:24:26Z</time>
      </trkpt>
      <trkpt lat="45.56738" lon="5.7954">
        <ele>380.9</ele>
        <time>2022-04-15T12:24:27Z</time>
      </trkpt>
      <trkpt lat="45.56738" lon="5.7954">
        <ele>380.9</ele>
        <time>2022-04-15T12:24:28Z</time>
      </trkpt>
      <trkpt lat="45.56738" lon="5.7954">
        <ele>380.9</ele>
        <time>2022-04-15T12:24:29Z</time>
      </trkpt>
      <trkpt lat="45.56738" lon="5.7954">
        <ele>380.9</ele>
        <time>2022-04-15T12:24:30Z</time>
      </trkpt>
      <trkpt lat="45.56738" lon="5.7954">
        <ele>380.9</ele>
        <time>2022-04-15T12:24:31Z</time>
      </trkpt>
      <trkpt lat="45.56738" lon="5.7954">
        <ele>380.9</ele>
        <time>2022-04-15T12:24:32Z</time>
      </trkpt>
      <trkpt lat="45.56738" lon="5.7954">
        <ele>380.9</ele>
        <time>2022-04-15T12:24:33Z</time>
      </trkpt>
      <trkpt lat="45.56738" lon="5.7954">
        <ele>380.9</ele>
        <time>2022-04-15T12:24:34Z</time>
      </trkpt>
      <trkpt lat="45.56738" lon="5.7954">
        <ele>380.9</ele>
        <time>2022-04-15T12:24:35Z</time>
      </trkpt>
      <trkpt lat="45.56738" lon="5.7954">
        <ele>380.9</ele>
        <time>2022-04-15T12:24:36Z</time>
      </trkpt>
      <trkpt lat="45.56738" lon="5.7954">
        <ele>380.9</ele>
        <time>2022-04-15T12:24:37Z</time>
      </trkpt>
      <trkpt lat="45.56738" lon="5.7954">
        <ele>380.9</ele>
        <time>2022-04-15T12:24:38Z</time>
      </trkpt>
      <trkpt lat="45.56738" lon="5.7954">
        <ele>380.9</ele>
        <time>2022-04-15T12:24:39Z</time>
      </trkpt>
      <trkpt lat="45.56738" lon="5.7954">
        <ele>380.9</ele>
        <time>2022-04-15T12:24:40Z</time>
      </trkpt>
      <trkpt lat="45.56738" lon="5.7954">
        <ele>380.9</ele>
        <time>2022-04-15T12:24:41Z</time>
      </trkpt>
      <trkpt lat="45.56738" lon="5.7954">
        <ele>380.9</ele>
        <time>2022-04-15T12:24:42Z</time>
      </trkpt>
      <trkpt lat="45.56738" lon="5.7954">
        <ele>380.9</ele>
        <time>2022-04-15T12:24:43Z</time>
      </trkpt>
      <trkpt lat="45.56738" lon="5.7954">
        <ele>380.9</ele>
        <time>2022-04-15T12:24:44Z</time>
      </trkpt>
      <trkpt lat="45.56738" lon="5.7954">
        <ele>380.9</ele>
        <time>2022-04-15T12:24:45Z</time>
      </trkpt>
      <trkpt lat="45.56738" lon="5.7954">
        <ele>380.9</ele>
        <time>2022-04-15T12:24:46Z</time>
      </trkpt>
      <trkpt lat="45.56738" lon="5.7954">
        <ele>380.9</ele>
        <time>2022-04-15T12:24:47Z</time>
      </trkpt>
      <trkpt lat="45.56738" lon="5.7954">
        <ele>380.9</ele>
        <time>2022-04-15T12:24:48Z</time>
      </trkpt>
      <trkpt lat="45.56738" lon="5.7954">
        <ele>380.9</ele>
        <time>2022-04-15T12:24:49Z</time>
      </trkpt>
      <trkpt lat="45.56738" lon="5.7954">
        <ele>380.9</ele>
        <time>2022-04-15T12:24:50Z</time>
      </trkpt>
      <trkpt lat="45.56738" lon="5.7954">
        <ele>380.9</ele>
        <time>2022-04-15T12:24:51Z</time>
      </trkpt>
      <trkpt lat="45.56738" lon="5.7954">
        <ele>380.9</ele>
        <time>2022-04-15T12:24:52Z</time>
      </trkpt>
      <trkpt lat="45.56738" lon="5.7954">
        <ele>380.9</ele>
        <time>2022-04-15T12:24:53Z</time>
      </trkpt>
      <trkpt lat="45.56738" lon="5.7954">
        <ele>380.9</ele>
        <time>2022-04-15T12:24:54Z</time>
      </trkpt>
      <trkpt lat="45.56738" lon="5.7954">
        <ele>380.9</ele>
        <time>2022-04-15T12:24:55Z</time>
      </trkpt>
      <trkpt lat="45.56738" lon="5.7954">
        <ele>380.9</ele>
        <time>2022-04-15T12:24:56Z</time>
      </trkpt>
      <trkpt lat="45.56738" lon="5.7954">
        <ele>380.9</ele>
        <time>2022-04-15T12:24:57Z</time>
      </trkpt>
      <trkpt lat="45.56738" lon="5.7954">
        <ele>380.9</ele>
        <time>2022-04-15T12:24:58Z</time>
      </trkpt>
      <trkpt lat="45.56738" lon="5.7954">
        <ele>380.9</ele>
        <time>2022-04-15T12:24:59Z</time>
      </trkpt>
      <trkpt lat="45.56738" lon="5.7954">
        <ele>380.9</ele>
        <time>2022-04-15T12:25:00Z</time>
      </trkpt>
      <trkpt lat="45.56738" lon="5.7954">
        <ele>380.9</ele>
        <time>2022-04-15T12:25:01Z</time>
      </trkpt>
      <trkpt lat="45.56738" lon="5.7954">
        <ele>380.9</ele>
        <time>2022-04-15T12:25:02Z</time>
      </trkpt>
      <trkpt lat="45.56738" lon="5.7954">
        <ele>380.9</ele>
        <time>2022-04-15T12:25:03Z</time>
      </trkpt>
      <trkpt lat="45.56738" lon="5.7954">
        <ele>380.9</ele>
        <time>2022-04-15T12:25:04Z</time>
      </trkpt>
      <trkpt lat="45.56738" lon="5.7954">
        <ele>380.9</ele>
        <time>2022-04-15T12:25:05Z</time>
      </trkpt>
      <trkpt lat="45.56738" lon="5.7954">
        <ele>380.9</ele>
        <time>2022-04-15T12:25:06Z</time>
      </trkpt>
      <trkpt lat="45.56738" lon="5.7954">
        <ele>380.9</ele>
        <time>2022-04-15T12:25:07Z</time>
      </trkpt>
      <trkpt lat="45.56738" lon="5.7954">
        <ele>380.9</ele>
        <time>2022-04-15T12:25:08Z</time>
      </trkpt>
      <trkpt lat="45.56738" lon="5.7954">
        <ele>380.9</ele>
        <time>2022-04-15T12:25:09Z</time>
      </trkpt>
      <trkpt lat="45.56738" lon="5.7954">
        <ele>380.9</ele>
        <time>2022-04-15T12:25:10Z</time>
      </trkpt>
      <trkpt lat="45.56738" lon="5.7954">
        <ele>380.9</ele>
        <time>2022-04-15T12:25:11Z</time>
      </trkpt>
      <trkpt lat="45.56738" lon="5.7954">
        <ele>380.9</ele>
        <time>2022-04-15T12:25:12Z</time>
      </trkpt>
      <trkpt lat="45.56738" lon="5.7954">
        <ele>380.9</ele>
        <time>2022-04-15T12:25:13Z</time>
      </trkpt>
      <trkpt lat="45.56738" lon="5.7954">
        <ele>380.9</ele>
        <time>2022-04-15T12:25:14Z</time>
      </trkpt>
      <trkpt lat="45.56738" lon="5.7954">
        <ele>380.9</ele>
        <time>2022-04-15T12:25:15Z</time>
      </trkpt>
      <trkpt lat="45.56738" lon="5.7954">
        <ele>380.9</ele>
        <time>2022-04-15T12:25:16Z</time>
      </trkpt>
      <trkpt lat="45.56738" lon="5.7954">
        <ele>380.9</ele>
        <time>2022-04-15T12:25:17Z</time>
      </trkpt>
      <trkpt lat="45.56738" lon="5.7954">
        <ele>380.9</ele>
        <time>2022-04-15T12:25:18Z</time>
      </trkpt>
      <trkpt lat="45.56738" lon="5.7954">
        <ele>380.9</ele>
        <time>2022-04-15T12:25:19Z</time>
      </trkpt>
      <trkpt lat="45.56738" lon="5.7954">
        <ele>380.9</ele>
        <time>2022-04-15T12:25:20Z</time>
      </trkpt>
      <trkpt lat="45.56738" lon="5.7954">
        <ele>380.9</ele>
        <time>2022-04-15T12:25:21Z</time>
      </trkpt>
      <trkpt lat="45.56738" lon="5.7954">
        <ele>380.9</ele>
        <time>2022-04-15T12:25:22Z</time>
      </trkpt>
      <trkpt lat="45.56738" lon="5.7954">
        <ele>380.9</ele>
        <time>2022-04-15T12:25:23Z</time>
      </trkpt>
      <trkpt lat="45.56738" lon="5.7954">
        <ele>380.9</ele>
        <time>2022-04-15T12:25:24Z</time>
      </trkpt>
      <trkpt lat="45.56738" lon="5.7954">
        <ele>380.9</ele>
        <time>2022-04-15T12:25:25Z</time>
      </trkpt>
      <trkpt lat="45.56738" lon="5.7954">
        <ele>380.9</ele>
        <time>2022-04-15T12:25:26Z</time>
      </trkpt>
      <trkpt lat="45.56738" lon="5.7954">
        <ele>380.9</ele>
        <time>2022-04-15T12:25:27Z</time>
      </trkpt>
      <trkpt lat="45.56738" lon="5.7954">
        <ele>380.9</ele>
        <time>2022-04-15T12:25:28Z</time>
      </trkpt>
      <trkpt lat="45.56738" lon="5.7954">
        <ele>380.9</ele>
        <time>2022-04-15T12:25:29Z</time>
      </trkpt>
      <trkpt lat="45.56738" lon="5.7954">
        <ele>380.9</ele>
        <time>2022-04-15T12:25:30Z</time>
      </trkpt>
      <trkpt lat="45.56738" lon="5.7954">
        <ele>380.9</ele>
        <time>2022-04-15T12:25:31Z</time>
      </trkpt>
      <trkpt lat="45.56738" lon="5.7954">
        <ele>380.9</ele>
        <time>2022-04-15T12:25:32Z</time>
      </trkpt>
      <trkpt lat="45.56738" lon="5.7954">
        <ele>380.9</ele>
        <time>2022-04-15T12:25:33Z</time>
      </trkpt>
      <trkpt lat="45.56738" lon="5.7954">
        <ele>380.9</ele>
        <time>2022-04-15T12:25:34Z</time>
      </trkpt>
      <trkpt lat="45.56738" lon="5.7954">
        <ele>380.9</ele>
        <time>2022-04-15T12:25:35Z</time>
      </trkpt>
      <trkpt lat="45.56738" lon="5.7954">
        <ele>380.9</ele>
        <time>2022-04-15T12:25:36Z</time>
      </trkpt>
      <trkpt lat="45.56738" lon="5.7954">
        <ele>380.9</ele>
        <time>2022-04-15T12:25:37Z</time>
      </trkpt>
      <trkpt lat="45.56738" lon="5.7954">
        <ele>380.9</ele>
        <time>2022-04-15T12:25:38Z</time>
      </trkpt>
      <trkpt lat="45.56738" lon="5.7954">
        <ele>380.9</ele>
        <time>2022-04-15T12:25:39Z</time>
      </trkpt>
      <trkpt lat="45.56738" lon="5.7954">
        <ele>380.9</ele>
        <time>2022-04-15T12:25:40Z</time>
      </trkpt>
      <trkpt lat="45.56738" lon="5.7954">
        <ele>380.9</ele>
        <time>2022-04-15T12:25:41Z</time>
      </trkpt>
      <trkpt lat="45.56738" lon="5.7954">
        <ele>380.9</ele>
        <time>2022-04-15T12:25:42Z</time>
      </trkpt>
      <trkpt lat="45.56738" lon="5.7954">
        <ele>380.9</ele>
        <time>2022-04-15T12:25:43Z</time>
      </trkpt>
      <trkpt lat="45.56738" lon="5.7954">
        <ele>380.9</ele>
        <time>2022-04-15T12:25:44Z</time>
      </trkpt>
      <trkpt lat="45.56738" lon="5.7954">
        <ele>380.9</ele>
        <time>2022-04-15T12:25:45Z</time>
      </trkpt>
      <trkpt lat="45.56738" lon="5.7954">
        <ele>380.9</ele>
        <time>2022-04-15T12:25:46Z</time>
      </trkpt>
      <trkpt lat="45.56738" lon="5.7954">
        <ele>380.9</ele>
        <time>2022-04-15T12:25:47Z</time>
      </trkpt>
      <trkpt lat="45.56738" lon="5.7954">
        <ele>380.9</ele>
        <time>2022-04-15T12:25:48Z</time>
      </trkpt>
      <trkpt lat="45.56738" lon="5.7954">
        <ele>380.9</ele>
        <time>2022-04-15T12:25:49Z</time>
      </trkpt>
      <trkpt lat="45.56738" lon="5.7954">
        <ele>380.9</ele>
        <time>2022-04-15T12:25:50Z</time>
      </trkpt>
      <trkpt lat="45.56738" lon="5.7954">
        <ele>380.9</ele>
        <time>2022-04-15T12:25:51Z</time>
      </trkpt>
      <trkpt lat="45.56738" lon="5.7954">
        <ele>380.9</ele>
        <time>2022-04-15T12:25:52Z</time>
      </trkpt>
      <trkpt lat="45.56738" lon="5.7954">
        <ele>380.9</ele>
        <time>2022-04-15T12:25:53Z</time>
      </trkpt>
      <trkpt lat="45.56738" lon="5.7954">
        <ele>380.9</ele>
        <time>2022-04-15T12:25:54Z</time>
      </trkpt>
      <trkpt lat="45.56738" lon="5.7954">
        <ele>380.9</ele>
        <time>2022-04-15T12:25:55Z</time>
      </trkpt>
      <trkpt lat="45.56738" lon="5.7954">
        <ele>380.9</ele>
        <time>2022-04-15T12:25:56Z</time>
      </trkpt>
      <trkpt lat="45.56738" lon="5.7954">
        <ele>380.9</ele>
        <time>2022-04-15T12:25:57Z</time>
      </trkpt>
      <trkpt lat="45.56738" lon="5.7954">
        <ele>380.9</ele>
        <time>2022-04-15T12:25:58Z</time>
      </trkpt>
      <trkpt lat="45.56738" lon="5.7954">
        <ele>380.9</ele>
        <time>2022-04-15T12:25:59Z</time>
      </trkpt>
      <trkpt lat="45.56738" lon="5.7954">
        <ele>380.9</ele>
        <time>2022-04-15T12:26:00Z</time>
      </trkpt>
      <trkpt lat="45.56738" lon="5.7954">
        <ele>380.9</ele>
        <time>2022-04-15T12:26:01Z</time>
      </trkpt>
      <trkpt lat="45.56738" lon="5.7954">
        <ele>380.9</ele>
        <time>2022-04-15T12:26:02Z</time>
      </trkpt>
      <trkpt lat="45.56738" lon="5.7954">
        <ele>380.9</ele>
        <time>2022-04-15T12:26:03Z</time>
      </trkpt>
      <trkpt lat="45.56738" lon="5.7954">
        <ele>380.9</ele>
        <time>2022-04-15T12:26:04Z</time>
      </trkpt>
      <trkpt lat="45.56738" lon="5.7954">
        <ele>380.9</ele>
        <time>2022-04-15T12:26:05Z</time>
      </trkpt>
      <trkpt lat="45.56738" lon="5.7954">
        <ele>380.9</ele>
        <time>2022-04-15T12:26:06Z</time>
      </trkpt>
      <trkpt lat="45.56738" lon="5.7954">
        <ele>380.9</ele>
        <time>2022-04-15T12:26:07Z</time>
      </trkpt>
      <trkpt lat="45.56738" lon="5.7954">
        <ele>380.9</ele>
        <time>2022-04-15T12:26:08Z</time>
      </trkpt>
      <trkpt lat="45.56738" lon="5.7954">
        <ele>380.9</ele>
        <time>2022-04-15T12:26:09Z</time>
      </trkpt>
      <trkpt lat="45.56738" lon="5.7954">
        <ele>380.9</ele>
        <time>2022-04-15T12:26:10Z</time>
      </trkpt>
      <trkpt lat="45.56738" lon="5.7954">
        <ele>380.9</ele>
        <time>2022-04-15T12:26:11Z</time>
      </trkpt>
      <trkpt lat="45.56738" lon="5.7954">
        <ele>380.9</ele>
        <time>2022-04-15T12:26:12Z</time>
      </trkpt>
      <trkpt lat="45.56738" lon="5.7954">
        <ele>380.9</ele>
        <time>2022-04-15T12:26:13Z</time>
      </trkpt>
      <trkpt lat="45.56738" lon="5.7954">
        <ele>380.9</ele>
        <time>2022-04-15T12:26:14Z</time>
      </trkpt>
      <trkpt lat="45.56738" lon="5.7954">
        <ele>380.9</ele>
        <time>2022-04-15T12:26:15Z</time>
      </trkpt>
      <trkpt lat="45.56738" lon="5.7954">
        <ele>380.9</ele>
        <time>2022-04-15T12:26:16Z</time>
      </trkpt>
      <trkpt lat="45.56738" lon="5.7954">
        <ele>380.9</ele>
        <time>2022-04-15T12:26:17Z</time>
      </trkpt>
      <trkpt lat="45.56738" lon="5.7954">
        <ele>380.9</ele>
        <time>2022-04-15T12:26:18Z</time>
      </trkpt>
      <trkpt lat="45.56738" lon="5.7954">
        <ele>380.9</ele>
        <time>2022-04-15T12:26:19Z</time>
      </trkpt>
      <trkpt lat="45.56738" lon="5.7954">
        <ele>380.9</ele>
        <time>2022-04-15T12:26:20Z</time>
      </trkpt>
      <trkpt lat="45.56738" lon="5.7954">
        <ele>380.9</ele>
        <time>2022-04-15T12:26:21Z</time>
      </trkpt>
      <trkpt lat="45.56738" lon="5.7954">
        <ele>380.9</ele>
        <time>2022-04-15T12:26:22Z</time>
      </trkpt>
      <trkpt lat="45.56738" lon="5.7954">
        <ele>380.9</ele>
        <time>2022-04-15T12:26:23Z</time>
      </trkpt>
      <trkpt lat="45.56738" lon="5.7954">
        <ele>380.9</ele>
        <time>2022-04-15T12:26:24Z</time>
      </trkpt>
      <trkpt lat="45.56738" lon="5.7954">
        <ele>380.9</ele>
        <time>2022-04-15T12:26:25Z</time>
      </trkpt>
      <trkpt lat="45.56738" lon="5.7954">
        <ele>380.9</ele>
        <time>2022-04-15T12:26:26Z</time>
      </trkpt>
      <trkpt lat="45.56738" lon="5.7954">
        <ele>380.9</ele>
        <time>2022-04-15T12:26:27Z</time>
      </trkpt>
      <trkpt lat="45.56738" lon="5.7954">
        <ele>380.9</ele>
        <time>2022-04-15T12:26:28Z</time>
      </trkpt>
      <trkpt lat="45.56738" lon="5.7954">
        <ele>380.9</ele>
        <time>2022-04-15T12:26:29Z</time>
      </trkpt>
      <trkpt lat="45.56738" lon="5.7954">
        <ele>380.9</ele>
        <time>2022-04-15T12:26:30Z</time>
      </trkpt>
      <trkpt lat="45.56738" lon="5.7954">
        <ele>380.9</ele>
        <time>2022-04-15T12:26:31Z</time>
      </trkpt>
      <trkpt lat="45.56738" lon="5.7954">
        <ele>380.9</ele>
        <time>2022-04-15T12:26:32Z</time>
      </trkpt>
      <trkpt lat="45.56738" lon="5.7954">
        <ele>380.9</ele>
        <time>2022-04-15T12:26:33Z</time>
      </trkpt>
      <trkpt lat="45.56738" lon="5.7954">
        <ele>380.9</ele>
        <time>2022-04-15T12:26:34Z</time>
      </trkpt>
      <trkpt lat="45.56738" lon="5.7954">
        <ele>380.9</ele>
        <time>2022-04-15T12:26:35Z</time>
      </trkpt>
      <trkpt lat="45.56738" lon="5.7954">
        <ele>380.9</ele>
        <time>2022-04-15T12:26:36Z</time>
      </trkpt>
      <trkpt lat="45.56738" lon="5.7954">
        <ele>380.9</ele>
        <time>2022-04-15T12:26:37Z</time>
      </trkpt>
      <trkpt lat="45.56738" lon="5.7954">
        <ele>380.9</ele>
        <time>2022-04-15T12:26:38Z</time>
      </trkpt>
      <trkpt lat="45.56738" lon="5.7954">
        <ele>380.9</ele>
        <time>2022-04-15T12:26:39Z</time>
      </trkpt>
      <trkpt lat="45.56738" lon="5.7954">
        <ele>380.9</ele>
        <time>2022-04-15T12:26:40Z</time>
      </trkpt>
      <trkpt lat="45.56738" lon="5.7954">
        <ele>380.9</ele>
        <time>2022-04-15T12:26:41Z</time>
      </trkpt>
      <trkpt lat="45.56738" lon="5.7954">
        <ele>380.9</ele>
        <time>2022-04-15T12:26:42Z</time>
      </trkpt>
      <trkpt lat="45.56738" lon="5.7954">
        <ele>380.9</ele>
        <time>2022-04-15T12:26:43Z</time>
      </trkpt>
      <trkpt lat="45.56738" lon="5.7954">
        <ele>380.9</ele>
        <time>2022-04-15T12:26:44Z</time>
      </trkpt>
      <trkpt lat="45.56738" lon="5.7954">
        <ele>380.9</ele>
        <time>2022-04-15T12:26:45Z</time>
      </trkpt>
      <trkpt lat="45.56738" lon="5.7954">
        <ele>380.9</ele>
        <time>2022-04-15T12:26:46Z</time>
      </trkpt>
      <trkpt lat="45.56738" lon="5.7954">
        <ele>380.9</ele>
        <time>2022-04-15T12:26:47Z</time>
      </trkpt>
      <trkpt lat="45.56738" lon="5.7954">
        <ele>380.9</ele>
        <time>2022-04-15T12:26:48Z</time>
      </trkpt>
      <trkpt lat="45.56738" lon="5.7954">
        <ele>380.9</ele>
        <time>2022-04-15T12:26:49Z</time>
      </trkpt>
      <trkpt lat="45.56738" lon="5.7954">
        <ele>380.9</ele>
        <time>2022-04-15T12:26:50Z</time>
      </trkpt>
      <trkpt lat="45.56738" lon="5.7954">
        <ele>380.9</ele>
        <time>2022-04-15T12:26:51Z</time>
      </trkpt>
      <trkpt lat="45.56738" lon="5.7954">
        <ele>380.9</ele>
        <time>2022-04-15T12:26:52Z</time>
      </trkpt>
      <trkpt lat="45.56738" lon="5.7954">
        <ele>380.9</ele>
        <time>2022-04-15T12:26:53Z</time>
      </trkpt>
      <trkpt lat="45.56738" lon="5.7954">
        <ele>380.9</ele>
        <time>2022-04-15T12:26:54Z</time>
      </trkpt>
      <trkpt lat="45.56738" lon="5.7954">
        <ele>380.9</ele>
        <time>2022-04-15T12:26:55Z</time>
      </trkpt>
      <trkpt lat="45.56738" lon="5.7954">
        <ele>380.9</ele>
        <time>2022-04-15T12:26:56Z</time>
      </trkpt>
      <trkpt lat="45.56738" lon="5.7954">
        <ele>380.9</ele>
        <time>2022-04-15T12:26:57Z</time>
      </trkpt>
      <trkpt lat="45.56738" lon="5.7954">
        <ele>380.9</ele>
        <time>2022-04-15T12:26:58Z</time>
      </trkpt>
      <trkpt lat="45.56738" lon="5.7954">
        <ele>380.9</ele>
        <time>2022-04-15T12:26:59Z</time>
      </trkpt>
      <trkpt lat="45.56738" lon="5.7954">
        <ele>380.9</ele>
        <time>2022-04-15T12:27:00Z</time>
      </trkpt>
      <trkpt lat="45.56738" lon="5.7954">
        <ele>380.9</ele>
        <time>2022-04-15T12:27:01Z</time>
      </trkpt>
      <trkpt lat="45.56738" lon="5.7954">
        <ele>380.9</ele>
        <time>2022-04-15T12:27:02Z</time>
      </trkpt>
      <trkpt lat="45.56738" lon="5.7954">
        <ele>380.9</ele>
        <time>2022-04-15T12:27:03Z</time>
      </trkpt>
      <trkpt lat="45.56738" lon="5.7954">
        <ele>380.9</ele>
        <time>2022-04-15T12:27:04Z</time>
      </trkpt>
      <trkpt lat="45.56738" lon="5.7954">
        <ele>380.9</ele>
        <time>2022-04-15T12:27:05Z</time>
      </trkpt>
      <trkpt lat="45.56738" lon="5.7954">
        <ele>380.9</ele>
        <time>2022-04-15T12:27:06Z</time>
      </trkpt>
      <trkpt lat="45.56738" lon="5.7954">
        <ele>380.9</ele>
        <time>2022-04-15T12:27:07Z</time>
      </trkpt>
      <trkpt lat="45.56738" lon="5.7954">
        <ele>380.9</ele>
        <time>2022-04-15T12:27:08Z</time>
      </trkpt>
      <trkpt lat="45.56738" lon="5.7954">
        <ele>380.9</ele>
        <time>2022-04-15T12:27:09Z</time>
      </trkpt>
      <trkpt lat="45.56738" lon="5.7954">
        <ele>380.9</ele>
        <time>2022-04-15T12:27:10Z</time>
      </trkpt>
      <trkpt lat="45.56738" lon="5.7954">
        <ele>380.9</ele>
        <time>2022-04-15T12:27:11Z</time>
      </trkpt>
      <trkpt lat="45.56738" lon="5.7954">
        <ele>380.9</ele>
        <time>2022-04-15T12:27:12Z</time>
      </trkpt>
      <trkpt lat="45.56738" lon="5.7954">
        <ele>380.9</ele>
        <time>2022-04-15T12:27:13Z</time>
      </trkpt>
      <trkpt lat="45.56738" lon="5.7954">
        <ele>380.9</ele>
        <time>2022-04-15T12:27:14Z</time>
      </trkpt>
      <trkpt lat="45.56738" lon="5.7954">
        <ele>380.9</ele>
        <time>2022-04-15T12:27:15Z</time>
      </trkpt>
      <trkpt lat="45.56738" lon="5.7954">
        <ele>380.9</ele>
        <time>2022-04-15T12:27:16Z</time>
      </trkpt>
      <trkpt lat="45.56738" lon="5.7954">
        <ele>380.9</ele>
        <time>2022-04-15T12:27:17Z</time>
      </trkpt>
      <trkpt lat="45.56738" lon="5.7954">
        <ele>380.9</ele>
        <time>2022-04-15T12:27:18Z</time>
      </trkpt>
      <trkpt lat="45.56738" lon="5.7954">
        <ele>380.9</ele>
        <time>2022-04-15T12:27:19Z</time>
      </trkpt>
      <trkpt lat="45.56738" lon="5.7954">
        <ele>380.9</ele>
        <time>2022-04-15T12:27:20Z</time>
      </trkpt>
      <trkpt lat="45.56738" lon="5.7954">
        <ele>380.9</ele>
        <time>2022-04-15T12:27:21Z</time>
      </trkpt>
      <trkpt lat="45.56738" lon="5.7954">
        <ele>380.9</ele>
        <time>2022-04-15T12:27:22Z</time>
      </trkpt>
      <trkpt lat="45.56738" lon="5.7954">
        <ele>380.9</ele>
        <time>2022-04-15T12:27:23Z</time>
      </trkpt>
      <trkpt lat="45.56738" lon="5.7954">
        <ele>380.9</ele>
        <time>2022-04-15T12:27:24Z</time>
      </trkpt>
      <trkpt lat="45.56738" lon="5.7954">
        <ele>380.9</ele>
        <time>2022-04-15T12:27:25Z</time>
      </trkpt>
      <trkpt lat="45.56738" lon="5.7954">
        <ele>380.9</ele>
        <time>2022-04-15T12:27:26Z</time>
      </trkpt>
      <trkpt lat="45.56738" lon="5.7954">
        <ele>380.9</ele>
        <time>2022-04-15T12:27:27Z</time>
      </trkpt>
      <trkpt lat="45.56738" lon="5.7954">
        <ele>380.9</ele>
        <time>2022-04-15T12:27:28Z</time>
      </trkpt>
      <trkpt lat="45.56738" lon="5.7954">
        <ele>380.9</ele>
        <time>2022-04-15T12:27:29Z</time>
      </trkpt>
      <trkpt lat="45.56738" lon="5.7954">
        <ele>380.9</ele>
        <time>2022-04-15T12:27:30Z</time>
      </trkpt>
      <trkpt lat="45.56738" lon="5.7954">
        <ele>380.9</ele>
        <time>2022-04-15T12:27:31Z</time>
      </trkpt>
      <trkpt lat="45.56738" lon="5.7954">
        <ele>380.9</ele>
        <time>2022-04-15T12:27:32Z</time>
      </trkpt>
      <trkpt lat="45.56738" lon="5.7954">
        <ele>380.9</ele>
        <time>2022-04-15T12:27:33Z</time>
      </trkpt>
      <trkpt lat="45.56738" lon="5.7954">
        <ele>380.9</ele>
        <time>2022-04-15T12:27:34Z</time>
      </trkpt>
      <trkpt lat="45.56738" lon="5.7954">
        <ele>380.9</ele>
        <time>2022-04-15T12:27:35Z</time>
      </trkpt>
      <trkpt lat="45.56738" lon="5.7954">
        <ele>380.9</ele>
        <time>2022-04-15T12:27:36Z</time>
      </trkpt>
      <trkpt lat="45.56738" lon="5.7954">
        <ele>380.9</ele>
        <time>2022-04-15T12:27:37Z</time>
      </trkpt>
      <trkpt lat="45.56738" lon="5.7954">
        <ele>380.9</ele>
        <time>2022-04-15T12:27:38Z</time>
      </trkpt>
      <trkpt lat="45.56738" lon="5.7954">
        <ele>380.9</ele>
        <time>2022-04-15T12:27:39Z</time>
      </trkpt>
      <trkpt lat="45.56738" lon="5.7954">
        <ele>380.9</ele>
        <time>2022-04-15T12:27:40Z</time>
      </trkpt>
      <trkpt lat="45.56738" lon="5.7954">
        <ele>380.9</ele>
        <time>2022-04-15T12:27:41Z</time>
      </trkpt>
      <trkpt lat="45.56738" lon="5.7954">
        <ele>380.9</ele>
        <time>2022-04-15T12:27:42Z</time>
      </trkpt>
      <trkpt lat="45.56738" lon="5.7954">
        <ele>380.9</ele>
        <time>2022-04-15T12:27:43Z</time>
      </trkpt>
      <trkpt lat="45.56738" lon="5.7954">
        <ele>380.9</ele>
        <time>2022-04-15T12:27:44Z</time>
      </trkpt>
      <trkpt lat="45.56738" lon="5.7954">
        <ele>380.9</ele>
        <time>2022-04-15T12:27:45Z</time>
      </trkpt>
      <trkpt lat="45.56738" lon="5.7954">
        <ele>380.9</ele>
        <time>2022-04-15T12:27:46Z</time>
      </trkpt>
      <trkpt lat="45.56738" lon="5.7954">
        <ele>380.9</ele>
        <time>2022-04-15T12:27:47Z</time>
      </trkpt>
      <trkpt lat="45.56738" lon="5.7954">
        <ele>380.9</ele>
        <time>2022-04-15T12:27:48Z</time>
      </trkpt>
      <trkpt lat="45.56738" lon="5.7954">
        <ele>380.9</ele>
        <time>2022-04-15T12:27:49Z</time>
      </trkpt>
      <trkpt lat="45.56738" lon="5.7954">
        <ele>380.9</ele>
        <time>2022-04-15T12:27:50Z</time>
      </trkpt>
      <trkpt lat="45.56738" lon="5.7954">
        <ele>380.9</ele>
        <time>2022-04-15T12:27:51Z</time>
      </trkpt>
      <trkpt lat="45.56738" lon="5.7954">
        <ele>380.9</ele>
        <time>2022-04-15T12:27:52Z</time>
      </trkpt>
      <trkpt lat="45.56738" lon="5.7954">
        <ele>380.9</ele>
        <time>2022-04-15T12:27:53Z</time>
      </trkpt>
      <trkpt lat="45.56738" lon="5.7954">
        <ele>380.9</ele>
        <time>2022-04-15T12:27:54Z</time>
      </trkpt>
      <trkpt lat="45.56738" lon="5.7954">
        <ele>380.9</ele>
        <time>2022-04-15T12:27:55Z</time>
      </trkpt>
      <trkpt lat="45.56738" lon="5.7954">
        <ele>380.9</ele>
        <time>2022-04-15T12:27:56Z</time>
      </trkpt>
      <trkpt lat="45.56738" lon="5.7954">
        <ele>380.9</ele>
        <time>2022-04-15T12:27:57Z</time>
      </trkpt>
      <trkpt lat="45.56738" lon="5.7954">
        <ele>380.9</ele>
        <time>2022-04-15T12:27:58Z</time>
      </trkpt>
      <trkpt lat="45.56738" lon="5.7954">
        <ele>380.9</ele>
        <time>2022-04-15T12:27:59Z</time>
      </trkpt>
      <trkpt lat="45.56738" lon="5.7954">
        <ele>380.9</ele>
        <time>2022-04-15T12:28:00Z</time>
      </trkpt>
      <trkpt lat="45.56738" lon="5.7954">
        <ele>380.9</ele>
        <time>2022-04-15T12:28:01Z</time>
      </trkpt>
      <trkpt lat="45.56738" lon="5.7954">
        <ele>380.9</ele>
        <time>2022-04-15T12:28:02Z</time>
      </trkpt>
      <trkpt lat="45.56738" lon="5.7954">
        <ele>380.9</ele>
        <time>2022-04-15T12:28:03Z</time>
      </trkpt>
      <trkpt lat="45.56738" lon="5.7954">
        <ele>380.9</ele>
        <time>2022-04-15T12:28:04Z</time>
      </trkpt>
      <trkpt lat="45.56738" lon="5.7954">
        <ele>380.9</ele>
        <time>2022-04-15T12:28:05Z</time>
      </trkpt>
      <trkpt lat="45.56738" lon="5.7954">
        <ele>380.9</ele>
        <time>2022-04-15T12:28:06Z</time>
      </trkpt>
      <trkpt lat="45.56738" lon="5.7954">
        <ele>380.9</ele>
        <time>2022-04-15T12:28:07Z</time>
      </trkpt>
      <trkpt lat="45.56738" lon="5.7954">
        <ele>380.9</ele>
        <time>2022-04-15T12:28:08Z</time>
      </trkpt>
      <trkpt lat="45.56738" lon="5.7954">
        <ele>380.9</ele>
        <time>2022-04-15T12:28:09Z</time>
      </trkpt>
      <trkpt lat="45.56738" lon="5.7954">
        <ele>380.9</ele>
        <time>2022-04-15T12:28:10Z</time>
      </trkpt>
      <trkpt lat="45.56738" lon="5.7954">
        <ele>380.9</ele>
        <time>2022-04-15T12:28:11Z</time>
      </trkpt>
      <trkpt lat="45.56738" lon="5.7954">
        <ele>380.9</ele>
        <time>2022-04-15T12:28:12Z</time>
      </trkpt>
      <trkpt lat="45.56738" lon="5.7954">
        <ele>380.9</ele>
        <time>2022-04-15T12:28:13Z</time>
      </trkpt>
      <trkpt lat="45.56738" lon="5.7954">
        <ele>380.9</ele>
        <time>2022-04-15T12:28:14Z</time>
      </trkpt>
      <trkpt lat="45.56738" lon="5.7954">
        <ele>380.9</ele>
        <time>2022-04-15T12:28:15Z</time>
      </trkpt>
      <trkpt lat="45.56738" lon="5.7954">
        <ele>380.9</ele>
        <time>2022-04-15T12:28:16Z</time>
      </trkpt>
      <trkpt lat="45.56738" lon="5.7954">
        <ele>380.9</ele>
        <time>2022-04-15T12:28:17Z</time>
      </trkpt>
      <trkpt lat="45.56738" lon="5.7954">
        <ele>380.9</ele>
        <time>2022-04-15T12:28:18Z</time>
      </trkpt>
      <trkpt lat="45.56738" lon="5.7954">
        <ele>380.9</ele>
        <time>2022-04-15T12:28:19Z</time>
      </trkpt>
      <trkpt lat="45.56738" lon="5.7954">
        <ele>380.9</ele>
        <time>2022-04-15T12:28:20Z</time>
      </trkpt>
      <trkpt lat="45.56738" lon="5.7954">
        <ele>380.9</ele>
        <time>2022-04-15T12:28:21Z</time>
      </trkpt>
      <trkpt lat="45.56738" lon="5.7954">
        <ele>380.9</ele>
        <time>2022-04-15T12:28:22Z</time>
      </trkpt>
      <trkpt lat="45.56738" lon="5.7954">
        <ele>380.9</ele>
        <time>2022-04-15T12:28:23Z</time>
      </trkpt>
      <trkpt lat="45.56738" lon="5.7954">
        <ele>380.9</ele>
        <time>2022-04-15T12:28:24Z</time>
      </trkpt>
      <trkpt lat="45.56738" lon="5.7954">
        <ele>380.9</ele>
        <time>2022-04-15T12:28:25Z</time>
      </trkpt>
      <trkpt lat="45.56738" lon="5.7954">
        <ele>380.9</ele>
        <time>2022-04-15T12:28:26Z</time>
      </trkpt>
      <trkpt lat="45.56738" lon="5.7954">
        <ele>380.9</ele>
        <time>2022-04-15T12:28:27Z</time>
      </trkpt>
      <trkpt lat="45.56738" lon="5.7954">
        <ele>380.9</ele>
        <time>2022-04-15T12:28:28Z</time>
      </trkpt>
      <trkpt lat="45.56738" lon="5.7954">
        <ele>380.9</ele>
        <time>2022-04-15T12:28:29Z</time>
      </trkpt>
      <trkpt lat="45.56738" lon="5.79538">
        <ele>380.9</ele>
        <time>2022-04-15T12:28:31Z</time>
      </trkpt>
      <trkpt lat="45.56738" lon="5.79538">
        <ele>380.9</ele>
        <time>2022-04-15T12:28:32Z</time>
      </trkpt>
      <trkpt lat="45.56738" lon="5.79538">
        <ele>380.9</ele>
        <time>2022-04-15T12:28:33Z</time>
      </trkpt>
      <trkpt lat="45.56738" lon="5.79538">
        <ele>380.9</ele>
        <time>2022-04-15T12:28:34Z</time>
      </trkpt>
      <trkpt lat="45.56738" lon="5.79538">
        <ele>380.9</ele>
        <time>2022-04-15T12:28:35Z</time>
      </trkpt>
      <trkpt lat="45.56738" lon="5.79539">
        <ele>381</ele>
        <time>2022-04-15T12:28:36Z</time>
      </trkpt>
      <trkpt lat="45.56738" lon="5.79539">
        <ele>381</ele>
        <time>2022-04-15T12:28:37Z</time>
      </trkpt>
      <trkpt lat="45.56738" lon="5.79539">
        <ele>381</ele>
        <time>2022-04-15T12:28:38Z</time>
      </trkpt>
      <trkpt lat="45.56739" lon="5.79539">
        <ele>381</ele>
        <time>2022-04-15T12:28:39Z</time>
      </trkpt>
      <trkpt lat="45.56739" lon="5.79539">
        <ele>381</ele>
        <time>2022-04-15T12:28:40Z</time>
      </trkpt>
      <trkpt lat="45.56739" lon="5.79538">
        <ele>381</ele>
        <time>2022-04-15T12:28:41Z</time>
      </trkpt>
      <trkpt lat="45.56739" lon="5.79539">
        <ele>381</ele>
        <time>2022-04-15T12:28:42Z</time>
      </trkpt>
      <trkpt lat="45.56739" lon="5.79539">
        <ele>381</ele>
        <time>2022-04-15T12:28:43Z</time>
      </trkpt>
      <trkpt lat="45.56739" lon="5.79539">
        <ele>381</ele>
        <time>2022-04-15T12:28:44Z</time>
      </trkpt>
      <trkpt lat="45.56739" lon="5.79539">
        <ele>381</ele>
        <time>2022-04-15T12:28:45Z</time>
      </trkpt>
      <trkpt lat="45.56739" lon="5.79539">
        <ele>381</ele>
        <time>2022-04-15T12:28:46Z</time>
      </trkpt>
      <trkpt lat="45.56739" lon="5.79539">
        <ele>381</ele>
        <time>2022-04-15T12:28:47Z</time>
      </trkpt>
      <trkpt lat="45.56739" lon="5.79539">
        <ele>381</ele>
        <time>2022-04-15T12:28:48Z</time>
      </trkpt>
      <trkpt lat="45.56739" lon="5.79539">
        <ele>381</ele>
        <time>2022-04-15T12:28:50Z</time>
      </trkpt>
      <trkpt lat="45.56739" lon="5.79539">
        <ele>381</ele>
        <time>2022-04-15T12:28:51Z</time>
      </trkpt>
      <trkpt lat="45.5674" lon="5.79538">
        <ele>381</ele>
        <time>2022-04-15T12:28:53Z</time>
      </trkpt>
      <trkpt lat="45.5674" lon="5.79537">
        <ele>381</ele>
        <time>2022-04-15T12:28:55Z</time>
      </trkpt>
      <trkpt lat="45.5674" lon="5.79537">
        <ele>381</ele>
        <time>2022-04-15T12:28:56Z</time>
      </trkpt>
      <trkpt lat="45.5674" lon="5.79537">
        <ele>381</ele>
        <time>2022-04-15T12:28:57Z</time>
      </trkpt>
      <trkpt lat="45.5674" lon="5.79537">
        <ele>381</ele>
        <time>2022-04-15T12:28:58Z</time>
      </trkpt>
      <trkpt lat="45.5674" lon="5.79537">
        <ele>381</ele>
        <time>2022-04-15T12:29:00Z</time>
      </trkpt>
      <trkpt lat="45.5674" lon="5.79536">
        <ele>381</ele>
        <time>2022-04-15T12:29:01Z</time>
      </trkpt>
      <trkpt lat="45.5674" lon="5.79536">
        <ele>381</ele>
        <time>2022-04-15T12:29:02Z</time>
      </trkpt>
      <trkpt lat="45.5674" lon="5.79536">
        <ele>381</ele>
        <time>2022-04-15T12:29:03Z</time>
      </trkpt>
      <trkpt lat="45.5674" lon="5.79536">
        <ele>381</ele>
        <time>2022-04-15T12:29:04Z</time>
      </trkpt>
      <trkpt lat="45.5674" lon="5.79536">
        <ele>381</ele>
        <time>2022-04-15T12:29:05Z</time>
      </trkpt>
      <trkpt lat="45.5674" lon="5.79536">
        <ele>381</ele>
        <time>2022-04-15T12:29:07Z</time>
      </trkpt>
      <trkpt lat="45.5674" lon="5.79536">
        <ele>381</ele>
        <time>2022-04-15T12:29:09Z</time>
      </trkpt>
      <trkpt lat="45.56739" lon="5.79536">
        <ele>381</ele>
        <time>2022-04-15T12:29:10Z</time>
      </trkpt>
      <trkpt lat="45.56739" lon="5.79536">
        <ele>381</ele>
        <time>2022-04-15T12:29:11Z</time>
      </trkpt>
      <trkpt lat="45.56739" lon="5.79536">
        <ele>381</ele>
        <time>2022-04-15T12:29:12Z</time>
      </trkpt>
      <trkpt lat="45.56739" lon="5.79536">
        <ele>381</ele>
        <time>2022-04-15T12:29:13Z</time>
      </trkpt>
      <trkpt lat="45.56738" lon="5.79536">
        <ele>381</ele>
        <time>2022-04-15T12:29:14Z</time>
      </trkpt>
      <trkpt lat="45.56738" lon="5.79536">
        <ele>381</ele>
        <time>2022-04-15T12:29:15Z</time>
      </trkpt>
      <trkpt lat="45.56738" lon="5.79536">
        <ele>381</ele>
        <time>2022-04-15T12:29:16Z</time>
      </trkpt>
      <trkpt lat="45.56738" lon="5.79536">
        <ele>381</ele>
        <time>2022-04-15T12:29:17Z</time>
      </trkpt>
      <trkpt lat="45.56738" lon="5.79536">
        <ele>381</ele>
        <time>2022-04-15T12:29:18Z</time>
      </trkpt>
      <trkpt lat="45.56738" lon="5.79536">
        <ele>381</ele>
        <time>2022-04-15T12:29:19Z</time>
      </trkpt>
      <trkpt lat="45.56737" lon="5.79536">
        <ele>381</ele>
        <time>2022-04-15T12:29:20Z</time>
      </trkpt>
      <trkpt lat="45.56737" lon="5.79537">
        <ele>381</ele>
        <time>2022-04-15T12:29:21Z</time>
      </trkpt>
      <trkpt lat="45.56737" lon="5.79537">
        <ele>381</ele>
        <time>2022-04-15T12:29:22Z</time>
      </trkpt>
      <trkpt lat="45.56737" lon="5.79538">
        <ele>381</ele>
        <time>2022-04-15T12:29:23Z</time>
      </trkpt>
      <trkpt lat="45.56737" lon="5.79538">
        <ele>381</ele>
        <time>2022-04-15T12:29:24Z</time>
      </trkpt>
      <trkpt lat="45.56737" lon="5.79538">
        <ele>381</ele>
        <time>2022-04-15T12:29:25Z</time>
      </trkpt>
      <trkpt lat="45.56737" lon="5.79538">
        <ele>381</ele>
        <time>2022-04-15T12:29:26Z</time>
      </trkpt>
      <trkpt lat="45.56737" lon="5.79538">
        <ele>381</ele>
        <time>2022-04-15T12:29:27Z</time>
      </trkpt>
      <trkpt lat="45.56737" lon="5.79538">
        <ele>381</ele>
        <time>2022-04-15T12:29:28Z</time>
      </trkpt>
      <trkpt lat="45.56737" lon="5.79538">
        <ele>381</ele>
        <time>2022-04-15T12:29:29Z</time>
      </trkpt>
      <trkpt lat="45.56737" lon="5.79538">
        <ele>381</ele>
        <time>2022-04-15T12:29:30Z</time>
      </trkpt>
      <trkpt lat="45.56737" lon="5.79538">
        <ele>381</ele>
        <time>2022-04-15T12:29:31Z</time>
      </trkpt>
      <trkpt lat="45.56737" lon="5.79538">
        <ele>381</ele>
        <time>2022-04-15T12:29:32Z</time>
      </trkpt>
      <trkpt lat="45.56737" lon="5.79538">
        <ele>381</ele>
        <time>2022-04-15T12:29:33Z</time>
      </trkpt>
      <trkpt lat="45.56737" lon="5.79538">
        <ele>381</ele>
        <time>2022-04-15T12:29:34Z</time>
      </trkpt>
      <trkpt lat="45.56737" lon="5.79538">
        <ele>381</ele>
        <time>2022-04-15T12:29:35Z</time>
      </trkpt>
      <trkpt lat="45.56737" lon="5.79538">
        <ele>381</ele>
        <time>2022-04-15T12:29:36Z</time>
      </trkpt>
      <trkpt lat="45.56737" lon="5.79538">
        <ele>381</ele>
        <time>2022-04-15T12:29:37Z</time>
      </trkpt>
      <trkpt lat="45.56737" lon="5.79538">
        <ele>381</ele>
        <time>2022-04-15T12:29:38Z</time>
      </trkpt>
      <trkpt lat="45.56737" lon="5.79538">
        <ele>381</ele>
        <time>2022-04-15T12:29:39Z</time>
      </trkpt>
      <trkpt lat="45.56737" lon="5.79538">
        <ele>381</ele>
        <time>2022-04-15T12:29:40Z</time>
      </trkpt>
      <trkpt lat="45.56737" lon="5.79538">
        <ele>381</ele>
        <time>2022-04-15T12:29:41Z</time>
      </trkpt>
      <trkpt lat="45.56737" lon="5.79538">
        <ele>381</ele>
        <time>2022-04-15T12:29:42Z</time>
      </trkpt>
      <trkpt lat="45.56737" lon="5.79538">
        <ele>381</ele>
        <time>2022-04-15T12:29:43Z</time>
      </trkpt>
      <trkpt lat="45.56737" lon="5.79538">
        <ele>381</ele>
        <time>2022-04-15T12:29:44Z</time>
      </trkpt>
      <trkpt lat="45.56737" lon="5.79538">
        <ele>381</ele>
        <time>2022-04-15T12:29:45Z</time>
      </trkpt>
      <trkpt lat="45.56737" lon="5.79538">
        <ele>381</ele>
        <time>2022-04-15T12:29:46Z</time>
      </trkpt>
      <trkpt lat="45.56737" lon="5.79538">
        <ele>381</ele>
        <time>2022-04-15T12:29:47Z</time>
      </trkpt>
      <trkpt lat="45.56737" lon="5.79538">
        <ele>381</ele>
        <time>2022-04-15T12:29:48Z</time>
      </trkpt>
      <trkpt lat="45.56737" lon="5.79538">
        <ele>381</ele>
        <time>2022-04-15T12:29:49Z</time>
      </trkpt>
      <trkpt lat="45.56737" lon="5.79538">
        <ele>381</ele>
        <time>2022-04-15T12:29:50Z</time>
      </trkpt>
      <trkpt lat="45.56737" lon="5.79538">
        <ele>381</ele>
        <time>2022-04-15T12:29:51Z</time>
      </trkpt>
      <trkpt lat="45.56737" lon="5.79538">
        <ele>381</ele>
        <time>2022-04-15T12:29:52Z</time>
      </trkpt>
      <trkpt lat="45.56737" lon="5.79538">
        <ele>381</ele>
        <time>2022-04-15T12:29:53Z</time>
      </trkpt>
      <trkpt lat="45.56737" lon="5.79538">
        <ele>381</ele>
        <time>2022-04-15T12:29:54Z</time>
      </trkpt>
      <trkpt lat="45.56737" lon="5.79538">
        <ele>381</ele>
        <time>2022-04-15T12:29:55Z</time>
      </trkpt>
      <trkpt lat="45.56737" lon="5.79538">
        <ele>381</ele>
        <time>2022-04-15T12:29:56Z</time>
      </trkpt>
      <trkpt lat="45.56737" lon="5.79538">
        <ele>381</ele>
        <time>2022-04-15T12:29:57Z</time>
      </trkpt>
      <trkpt lat="45.56737" lon="5.79538">
        <ele>381</ele>
        <time>2022-04-15T12:29:58Z</time>
      </trkpt>
      <trkpt lat="45.56737" lon="5.79538">
        <ele>381</ele>
        <time>2022-04-15T12:29:59Z</time>
      </trkpt>
      <trkpt lat="45.56737" lon="5.79538">
        <ele>381</ele>
        <time>2022-04-15T12:30:00Z</time>
      </trkpt>
      <trkpt lat="45.56737" lon="5.79538">
        <ele>381</ele>
        <time>2022-04-15T12:30:01Z</time>
      </trkpt>
      <trkpt lat="45.56737" lon="5.79538">
        <ele>381</ele>
        <time>2022-04-15T12:30:02Z</time>
      </trkpt>
      <trkpt lat="45.56737" lon="5.79538">
        <ele>381</ele>
        <time>2022-04-15T12:30:03Z</time>
      </trkpt>
      <trkpt lat="45.56737" lon="5.79538">
        <ele>381</ele>
        <time>2022-04-15T12:30:04Z</time>
      </trkpt>
      <trkpt lat="45.56737" lon="5.79538">
        <ele>381</ele>
        <time>2022-04-15T12:30:05Z</time>
      </trkpt>
      <trkpt lat="45.56737" lon="5.79538">
        <ele>381</ele>
        <time>2022-04-15T12:30:06Z</time>
      </trkpt>
      <trkpt lat="45.56737" lon="5.79538">
        <ele>381</ele>
        <time>2022-04-15T12:30:07Z</time>
      </trkpt>
      <trkpt lat="45.56737" lon="5.79538">
        <ele>381</ele>
        <time>2022-04-15T12:30:08Z</time>
      </trkpt>
      <trkpt lat="45.56737" lon="5.79538">
        <ele>381</ele>
        <time>2022-04-15T12:30:09Z</time>
      </trkpt>
      <trkpt lat="45.56737" lon="5.79538">
        <ele>381</ele>
        <time>2022-04-15T12:30:10Z</time>
      </trkpt>
      <trkpt lat="45.56737" lon="5.79538">
        <ele>381</ele>
        <time>2022-04-15T12:30:11Z</time>
      </trkpt>
      <trkpt lat="45.56737" lon="5.79538">
        <ele>381</ele>
        <time>2022-04-15T12:30:12Z</time>
      </trkpt>
      <trkpt lat="45.56737" lon="5.79538">
        <ele>381</ele>
        <time>2022-04-15T12:30:13Z</time>
      </trkpt>
      <trkpt lat="45.56737" lon="5.79538">
        <ele>381</ele>
        <time>2022-04-15T12:30:14Z</time>
      </trkpt>
      <trkpt lat="45.56737" lon="5.79538">
        <ele>381</ele>
        <time>2022-04-15T12:30:15Z</time>
      </trkpt>
      <trkpt lat="45.56737" lon="5.79538">
        <ele>381</ele>
        <time>2022-04-15T12:30:16Z</time>
      </trkpt>
      <trkpt lat="45.56737" lon="5.79538">
        <ele>381</ele>
        <time>2022-04-15T12:30:17Z</time>
      </trkpt>
      <trkpt lat="45.56738" lon="5.79538">
        <ele>381</ele>
        <time>2022-04-15T12:30:18Z</time>
      </trkpt>
      <trkpt lat="45.56738" lon="5.79538">
        <ele>381</ele>
        <time>2022-04-15T12:30:19Z</time>
      </trkpt>
      <trkpt lat="45.56738" lon="5.79538">
        <ele>381</ele>
        <time>2022-04-15T12:30:20Z</time>
      </trkpt>
      <trkpt lat="45.56738" lon="5.79538">
        <ele>381</ele>
        <time>2022-04-15T12:30:21Z</time>
      </trkpt>
      <trkpt lat="45.56738" lon="5.79538">
        <ele>381</ele>
        <time>2022-04-15T12:30:22Z</time>
      </trkpt>
      <trkpt lat="45.56738" lon="5.79538">
        <ele>381</ele>
        <time>2022-04-15T12:30:23Z</time>
      </trkpt>
      <trkpt lat="45.56738" lon="5.79538">
        <ele>381</ele>
        <time>2022-04-15T12:30:24Z</time>
      </trkpt>
      <trkpt lat="45.56738" lon="5.79538">
        <ele>381</ele>
        <time>2022-04-15T12:30:25Z</time>
      </trkpt>
      <trkpt lat="45.56738" lon="5.79538">
        <ele>381</ele>
        <time>2022-04-15T12:30:26Z</time>
      </trkpt>
      <trkpt lat="45.56738" lon="5.79538">
        <ele>381</ele>
        <time>2022-04-15T12:30:27Z</time>
      </trkpt>
      <trkpt lat="45.56738" lon="5.79538">
        <ele>381</ele>
        <time>2022-04-15T12:30:28Z</time>
      </trkpt>
      <trkpt lat="45.56738" lon="5.79538">
        <ele>381</ele>
        <time>2022-04-15T12:30:29Z</time>
      </trkpt>
      <trkpt lat="45.56738" lon="5.79538">
        <ele>381</ele>
        <time>2022-04-15T12:30:30Z</time>
      </trkpt>
      <trkpt lat="45.56738" lon="5.79538">
        <ele>381</ele>
        <time>2022-04-15T12:30:31Z</time>
      </trkpt>
      <trkpt lat="45.56738" lon="5.79538">
        <ele>381</ele>
        <time>2022-04-15T12:30:32Z</time>
      </trkpt>
      <trkpt lat="45.56738" lon="5.79538">
        <ele>381</ele>
        <time>2022-04-15T12:30:33Z</time>
      </trkpt>
      <trkpt lat="45.56738" lon="5.79538">
        <ele>381</ele>
        <time>2022-04-15T12:30:34Z</time>
      </trkpt>
      <trkpt lat="45.56738" lon="5.79538">
        <ele>381</ele>
        <time>2022-04-15T12:30:35Z</time>
      </trkpt>
      <trkpt lat="45.56738" lon="5.79538">
        <ele>381</ele>
        <time>2022-04-15T12:30:36Z</time>
      </trkpt>
      <trkpt lat="45.56738" lon="5.79538">
        <ele>381</ele>
        <time>2022-04-15T12:30:37Z</time>
      </trkpt>
      <trkpt lat="45.56738" lon="5.79538">
        <ele>381</ele>
        <time>2022-04-15T12:30:38Z</time>
      </trkpt>
      <trkpt lat="45.56738" lon="5.79538">
        <ele>381</ele>
        <time>2022-04-15T12:30:39Z</time>
      </trkpt>
      <trkpt lat="45.56738" lon="5.79538">
        <ele>381</ele>
        <time>2022-04-15T12:30:40Z</time>
      </trkpt>
      <trkpt lat="45.56738" lon="5.79538">
        <ele>381</ele>
        <time>2022-04-15T12:30:41Z</time>
      </trkpt>
      <trkpt lat="45.56738" lon="5.79538">
        <ele>381</ele>
        <time>2022-04-15T12:30:42Z</time>
      </trkpt>
      <trkpt lat="45.56738" lon="5.79538">
        <ele>381</ele>
        <time>2022-04-15T12:30:43Z</time>
      </trkpt>
      <trkpt lat="45.56738" lon="5.79538">
        <ele>381</ele>
        <time>2022-04-15T12:30:44Z</time>
      </trkpt>
      <trkpt lat="45.56738" lon="5.79538">
        <ele>381</ele>
        <time>2022-04-15T12:30:45Z</time>
      </trkpt>
      <trkpt lat="45.56738" lon="5.79538">
        <ele>381</ele>
        <time>2022-04-15T12:30:46Z</time>
      </trkpt>
      <trkpt lat="45.56738" lon="5.79538">
        <ele>381</ele>
        <time>2022-04-15T12:30:47Z</time>
      </trkpt>
      <trkpt lat="45.56738" lon="5.79538">
        <ele>381</ele>
        <time>2022-04-15T12:30:48Z</time>
      </trkpt>
      <trkpt lat="45.56738" lon="5.79538">
        <ele>381</ele>
        <time>2022-04-15T12:30:49Z</time>
      </trkpt>
      <trkpt lat="45.56738" lon="5.79538">
        <ele>381</ele>
        <time>2022-04-15T12:30:50Z</time>
      </trkpt>
      <trkpt lat="45.56738" lon="5.79538">
        <ele>381</ele>
        <time>2022-04-15T12:30:51Z</time>
      </trkpt>
      <trkpt lat="45.56739" lon="5.79537">
        <ele>381</ele>
        <time>2022-04-15T12:30:52Z</time>
      </trkpt>
      <trkpt lat="45.56739" lon="5.79537">
        <ele>381</ele>
        <time>2022-04-15T12:30:53Z</time>
      </trkpt>
      <trkpt lat="45.56739" lon="5.79537">
        <ele>381</ele>
        <time>2022-04-15T12:30:54Z</time>
      </trkpt>
      <trkpt lat="45.5674" lon="5.79537">
        <ele>381</ele>
        <time>2022-04-15T12:30:55Z</time>
      </trkpt>
      <trkpt lat="45.5674" lon="5.79536">
        <ele>381</ele>
        <time>2022-04-15T12:30:56Z</time>
      </trkpt>
      <trkpt lat="45.5674" lon="5.79536">
        <ele>381</ele>
        <time>2022-04-15T12:30:57Z</time>
      </trkpt>
      <trkpt lat="45.5674" lon="5.79536">
        <ele>381</ele>
        <time>2022-04-15T12:30:58Z</time>
      </trkpt>
      <trkpt lat="45.5674" lon="5.79536">
        <ele>381</ele>
        <time>2022-04-15T12:30:59Z</time>
      </trkpt>
      <trkpt lat="45.5674" lon="5.79536">
        <ele>381</ele>
        <time>2022-04-15T12:31:00Z</time>
      </trkpt>
      <trkpt lat="45.5674" lon="5.79535">
        <ele>381</ele>
        <time>2022-04-15T12:31:01Z</time>
      </trkpt>
      <trkpt lat="45.56739" lon="5.79534">
        <ele>381</ele>
        <time>2022-04-15T12:31:02Z</time>
      </trkpt>
      <trkpt lat="45.56739" lon="5.79533">
        <ele>381</ele>
        <time>2022-04-15T12:31:03Z</time>
      </trkpt>
      <trkpt lat="45.56738" lon="5.79531">
        <ele>381</ele>
        <time>2022-04-15T12:31:04Z</time>
      </trkpt>
      <trkpt lat="45.56738" lon="5.79529">
        <ele>381</ele>
        <time>2022-04-15T12:31:05Z</time>
      </trkpt>
      <trkpt lat="45.56737" lon="5.79525">
        <ele>381</ele>
        <time>2022-04-15T12:31:06Z</time>
      </trkpt>
      <trkpt lat="45.56736" lon="5.79521">
        <ele>381</ele>
        <time>2022-04-15T12:31:08Z</time>
      </trkpt>
      <trkpt lat="45.56736" lon="5.7952">
        <ele>381.1</ele>
        <time>2022-04-15T12:31:09Z</time>
      </trkpt>
      <trkpt lat="45.56736" lon="5.79518">
        <ele>381.1</ele>
        <time>2022-04-15T12:31:10Z</time>
      </trkpt>
      <trkpt lat="45.56735" lon="5.79516">
        <ele>381.1</ele>
        <time>2022-04-15T12:31:11Z</time>
      </trkpt>
      <trkpt lat="45.56735" lon="5.79515">
        <ele>381.1</ele>
        <time>2022-04-15T12:31:13Z</time>
      </trkpt>
      <trkpt lat="45.56735" lon="5.79511">
        <ele>381.1</ele>
        <time>2022-04-15T12:31:14Z</time>
      </trkpt>
      <trkpt lat="45.56735" lon="5.7951">
        <ele>381.1</ele>
        <time>2022-04-15T12:31:15Z</time>
      </trkpt>
      <trkpt lat="45.56735" lon="5.79509">
        <ele>381.1</ele>
        <time>2022-04-15T12:31:16Z</time>
      </trkpt>
      <trkpt lat="45.56735" lon="5.79506">
        <ele>381.1</ele>
        <time>2022-04-15T12:31:17Z</time>
      </trkpt>
      <trkpt lat="45.56735" lon="5.79505">
        <ele>381.1</ele>
        <time>2022-04-15T12:31:19Z</time>
      </trkpt>
      <trkpt lat="45.56735" lon="5.79504">
        <ele>381.1</ele>
        <time>2022-04-15T12:31:20Z</time>
      </trkpt>
      <trkpt lat="45.56734" lon="5.79501">
        <ele>381.1</ele>
        <time>2022-04-15T12:31:21Z</time>
      </trkpt>
      <trkpt lat="45.56734" lon="5.795">
        <ele>381.1</ele>
        <time>2022-04-15T12:31:22Z</time>
      </trkpt>
      <trkpt lat="45.56733" lon="5.79498">
        <ele>381.1</ele>
        <time>2022-04-15T12:31:24Z</time>
      </trkpt>
      <trkpt lat="45.56733" lon="5.79497">
        <ele>381.2</ele>
        <time>2022-04-15T12:31:25Z</time>
      </trkpt>
      <trkpt lat="45.56732" lon="5.79495">
        <ele>381.2</ele>
        <time>2022-04-15T12:31:27Z</time>
      </trkpt>
      <trkpt lat="45.56731" lon="5.79493">
        <ele>381.2</ele>
        <time>2022-04-15T12:31:28Z</time>
      </trkpt>
      <trkpt lat="45.56731" lon="5.7949">
        <ele>381.2</ele>
        <time>2022-04-15T12:31:30Z</time>
      </trkpt>
      <trkpt lat="45.56731" lon="5.79487">
        <ele>381.2</ele>
        <time>2022-04-15T12:31:32Z</time>
      </trkpt>
      <trkpt lat="45.56731" lon="5.79485">
        <ele>381.2</ele>
        <time>2022-04-15T12:31:33Z</time>
      </trkpt>
      <trkpt lat="45.56731" lon="5.79482">
        <ele>381.2</ele>
        <time>2022-04-15T12:31:34Z</time>
      </trkpt>
      <trkpt lat="45.5673" lon="5.79481">
        <ele>381.2</ele>
        <time>2022-04-15T12:31:36Z</time>
      </trkpt>
      <trkpt lat="45.5673" lon="5.79481">
        <ele>381.2</ele>
        <time>2022-04-15T12:31:37Z</time>
      </trkpt>
      <trkpt lat="45.5673" lon="5.79481">
        <ele>381.2</ele>
        <time>2022-04-15T12:31:38Z</time>
      </trkpt>
      <trkpt lat="45.56729" lon="5.79481">
        <ele>381.2</ele>
        <time>2022-04-15T12:31:39Z</time>
      </trkpt>
      <trkpt lat="45.56729" lon="5.79481">
        <ele>381.2</ele>
        <time>2022-04-15T12:31:40Z</time>
      </trkpt>
      <trkpt lat="45.56729" lon="5.79481">
        <ele>381.2</ele>
        <time>2022-04-15T12:31:41Z</time>
      </trkpt>
      <trkpt lat="45.56729" lon="5.79481">
        <ele>381.2</ele>
        <time>2022-04-15T12:31:42Z</time>
      </trkpt>
      <trkpt lat="45.56729" lon="5.7948">
        <ele>381.2</ele>
        <time>2022-04-15T12:31:43Z</time>
      </trkpt>
      <trkpt lat="45.56728" lon="5.7948">
        <ele>381.2</ele>
        <time>2022-04-15T12:31:44Z</time>
      </trkpt>
      <trkpt lat="45.56728" lon="5.7948">
        <ele>381.2</ele>
        <time>2022-04-15T12:31:45Z</time>
      </trkpt>
      <trkpt lat="45.56728" lon="5.7948">
        <ele>381.2</ele>
        <time>2022-04-15T12:31:46Z</time>
      </trkpt>
      <trkpt lat="45.56728" lon="5.7948">
        <ele>381.2</ele>
        <time>2022-04-15T12:31:47Z</time>
      </trkpt>
      <trkpt lat="45.56728" lon="5.7948">
        <ele>381.2</ele>
        <time>2022-04-15T12:31:48Z</time>
      </trkpt>
      <trkpt lat="45.56728" lon="5.7948">
        <ele>381.2</ele>
        <time>2022-04-15T12:31:49Z</time>
      </trkpt>
      <trkpt lat="45.56728" lon="5.7948">
        <ele>381.2</ele>
        <time>2022-04-15T12:31:50Z</time>
      </trkpt>
      <trkpt lat="45.56729" lon="5.7948">
        <ele>381.2</ele>
        <time>2022-04-15T12:31:51Z</time>
      </trkpt>
      <trkpt lat="45.56729" lon="5.7948">
        <ele>381.2</ele>
        <time>2022-04-15T12:31:52Z</time>
      </trkpt>
      <trkpt lat="45.56729" lon="5.7948">
        <ele>381.2</ele>
        <time>2022-04-15T12:31:53Z</time>
      </trkpt>
      <trkpt lat="45.56728" lon="5.79478">
        <ele>381.3</ele>
        <time>2022-04-15T12:31:54Z</time>
      </trkpt>
      <trkpt lat="45.56728" lon="5.79476">
        <ele>381.3</ele>
        <time>2022-04-15T12:31:55Z</time>
      </trkpt>
      <trkpt lat="45.56728" lon="5.79473">
        <ele>381.3</ele>
        <time>2022-04-15T12:31:57Z</time>
      </trkpt>
      <trkpt lat="45.56727" lon="5.79471">
        <ele>381.3</ele>
        <time>2022-04-15T12:31:58Z</time>
      </trkpt>
      <trkpt lat="45.56727" lon="5.79468">
        <ele>381.3</ele>
        <time>2022-04-15T12:32:00Z</time>
      </trkpt>
      <trkpt lat="45.56726" lon="5.79467">
        <ele>381.3</ele>
        <time>2022-04-15T12:32:01Z</time>
      </trkpt>
      <trkpt lat="45.56726" lon="5.79465">
        <ele>381.3</ele>
        <time>2022-04-15T12:32:02Z</time>
      </trkpt>
      <trkpt lat="45.56725" lon="5.79464">
        <ele>381.3</ele>
        <time>2022-04-15T12:32:03Z</time>
      </trkpt>
      <trkpt lat="45.56725" lon="5.79463">
        <ele>381.3</ele>
        <time>2022-04-15T12:32:04Z</time>
      </trkpt>
      <trkpt lat="45.56724" lon="5.79462">
        <ele>381.3</ele>
        <time>2022-04-15T12:32:05Z</time>
      </trkpt>
      <trkpt lat="45.56724" lon="5.79461">
        <ele>381.3</ele>
        <time>2022-04-15T12:32:07Z</time>
      </trkpt>
      <trkpt lat="45.56723" lon="5.79461">
        <ele>381.4</ele>
        <time>2022-04-15T12:32:08Z</time>
      </trkpt>
      <trkpt lat="45.56722" lon="5.79461">
        <ele>381.4</ele>
        <time>2022-04-15T12:32:09Z</time>
      </trkpt>
      <trkpt lat="45.56721" lon="5.79462">
        <ele>381.4</ele>
        <time>2022-04-15T12:32:11Z</time>
      </trkpt>
      <trkpt lat="45.56721" lon="5.79461">
        <ele>381.4</ele>
        <time>2022-04-15T12:32:12Z</time>
      </trkpt>
      <trkpt lat="45.5672" lon="5.79459">
        <ele>381.4</ele>
        <time>2022-04-15T12:32:14Z</time>
      </trkpt>
      <trkpt lat="45.56719" lon="5.79458">
        <ele>381.4</ele>
        <time>2022-04-15T12:32:15Z</time>
      </trkpt>
      <trkpt lat="45.56719" lon="5.79456">
        <ele>381.4</ele>
        <time>2022-04-15T12:32:16Z</time>
      </trkpt>
      <trkpt lat="45.56718" lon="5.79453">
        <ele>381.4</ele>
        <time>2022-04-15T12:32:18Z</time>
      </trkpt>
      <trkpt lat="45.56718" lon="5.79451">
        <ele>381.4</ele>
        <time>2022-04-15T12:32:19Z</time>
      </trkpt>
      <trkpt lat="45.56718" lon="5.79449">
        <ele>381.5</ele>
        <time>2022-04-15T12:32:20Z</time>
      </trkpt>
      <trkpt lat="45.56718" lon="5.79448">
        <ele>381.5</ele>
        <time>2022-04-15T12:32:21Z</time>
      </trkpt>
      <trkpt lat="45.56718" lon="5.79445">
        <ele>381.5</ele>
        <time>2022-04-15T12:32:23Z</time>
      </trkpt>
      <trkpt lat="45.56718" lon="5.79443">
        <ele>381.6</ele>
        <time>2022-04-15T12:32:24Z</time>
      </trkpt>
      <trkpt lat="45.56718" lon="5.79441">
        <ele>381.6</ele>
        <time>2022-04-15T12:32:25Z</time>
      </trkpt>
      <trkpt lat="45.56718" lon="5.7944">
        <ele>381.7</ele>
        <time>2022-04-15T12:32:26Z</time>
      </trkpt>
      <trkpt lat="45.56718" lon="5.79439">
        <ele>381.8</ele>
        <time>2022-04-15T12:32:27Z</time>
      </trkpt>
      <trkpt lat="45.56718" lon="5.79438">
        <ele>381.9</ele>
        <time>2022-04-15T12:32:28Z</time>
      </trkpt>
      <trkpt lat="45.56718" lon="5.79436">
        <ele>381.9</ele>
        <time>2022-04-15T12:32:29Z</time>
      </trkpt>
      <trkpt lat="45.56718" lon="5.79435">
        <ele>382</ele>
        <time>2022-04-15T12:32:30Z</time>
      </trkpt>
      <trkpt lat="45.56718" lon="5.79434">
        <ele>382.1</ele>
        <time>2022-04-15T12:32:31Z</time>
      </trkpt>
      <trkpt lat="45.56718" lon="5.79434">
        <ele>382.1</ele>
        <time>2022-04-15T12:32:32Z</time>
      </trkpt>
      <trkpt lat="45.56718" lon="5.79434">
        <ele>382.1</ele>
        <time>2022-04-15T12:32:33Z</time>
      </trkpt>
      <trkpt lat="45.56718" lon="5.79434">
        <ele>382.1</ele>
        <time>2022-04-15T12:32:34Z</time>
      </trkpt>
      <trkpt lat="45.56718" lon="5.79433">
        <ele>382.2</ele>
        <time>2022-04-15T12:32:35Z</time>
      </trkpt>
      <trkpt lat="45.56717" lon="5.79433">
        <ele>382.2</ele>
        <time>2022-04-15T12:32:36Z</time>
      </trkpt>
      <trkpt lat="45.56717" lon="5.79432">
        <ele>382.3</ele>
        <time>2022-04-15T12:32:37Z</time>
      </trkpt>
      <trkpt lat="45.56717" lon="5.7943">
        <ele>382.4</ele>
        <time>2022-04-15T12:32:38Z</time>
      </trkpt>
      <trkpt lat="45.56716" lon="5.79429">
        <ele>382.4</ele>
        <time>2022-04-15T12:32:39Z</time>
      </trkpt>
      <trkpt lat="45.56716" lon="5.79427">
        <ele>382.5</ele>
        <time>2022-04-15T12:32:40Z</time>
      </trkpt>
      <trkpt lat="45.56716" lon="5.79426">
        <ele>382.6</ele>
        <time>2022-04-15T12:32:41Z</time>
      </trkpt>
      <trkpt lat="45.56717" lon="5.79424">
        <ele>382.7</ele>
        <time>2022-04-15T12:32:42Z</time>
      </trkpt>
      <trkpt lat="45.56717" lon="5.79423">
        <ele>382.8</ele>
        <time>2022-04-15T12:32:43Z</time>
      </trkpt>
      <trkpt lat="45.56717" lon="5.79422">
        <ele>382.9</ele>
        <time>2022-04-15T12:32:44Z</time>
      </trkpt>
      <trkpt lat="45.56718" lon="5.79421">
        <ele>382.9</ele>
        <time>2022-04-15T12:32:45Z</time>
      </trkpt>
      <trkpt lat="45.56718" lon="5.79421">
        <ele>382.9</ele>
        <time>2022-04-15T12:32:46Z</time>
      </trkpt>
      <trkpt lat="45.56718" lon="5.79421">
        <ele>382.9</ele>
        <time>2022-04-15T12:32:47Z</time>
      </trkpt>
      <trkpt lat="45.56718" lon="5.79421">
        <ele>382.9</ele>
        <time>2022-04-15T12:32:48Z</time>
      </trkpt>
      <trkpt lat="45.56718" lon="5.79421">
        <ele>382.9</ele>
        <time>2022-04-15T12:32:49Z</time>
      </trkpt>
      <trkpt lat="45.56718" lon="5.79421">
        <ele>383</ele>
        <time>2022-04-15T12:32:50Z</time>
      </trkpt>
      <trkpt lat="45.56718" lon="5.79421">
        <ele>383</ele>
        <time>2022-04-15T12:32:51Z</time>
      </trkpt>
      <trkpt lat="45.56718" lon="5.79421">
        <ele>383</ele>
        <time>2022-04-15T12:32:52Z</time>
      </trkpt>
      <trkpt lat="45.56718" lon="5.79421">
        <ele>383</ele>
        <time>2022-04-15T12:32:53Z</time>
      </trkpt>
      <trkpt lat="45.56719" lon="5.79421">
        <ele>383</ele>
        <time>2022-04-15T12:32:54Z</time>
      </trkpt>
      <trkpt lat="45.56718" lon="5.79421">
        <ele>383</ele>
        <time>2022-04-15T12:32:55Z</time>
      </trkpt>
      <trkpt lat="45.56718" lon="5.79421">
        <ele>383</ele>
        <time>2022-04-15T12:32:56Z</time>
      </trkpt>
      <trkpt lat="45.56718" lon="5.79421">
        <ele>383</ele>
        <time>2022-04-15T12:32:57Z</time>
      </trkpt>
      <trkpt lat="45.56718" lon="5.79421">
        <ele>383</ele>
        <time>2022-04-15T12:32:58Z</time>
      </trkpt>
      <trkpt lat="45.56719" lon="5.79421">
        <ele>383</ele>
        <time>2022-04-15T12:32:59Z</time>
      </trkpt>
      <trkpt lat="45.56719" lon="5.79421">
        <ele>383</ele>
        <time>2022-04-15T12:33:00Z</time>
      </trkpt>
      <trkpt lat="45.56719" lon="5.79421">
        <ele>383.3</ele>
        <time>2022-04-15T12:33:01Z</time>
      </trkpt>
      <trkpt lat="45.5672" lon="5.7942">
        <ele>383.3</ele>
        <time>2022-04-15T12:33:02Z</time>
      </trkpt>
      <trkpt lat="45.56721" lon="5.79418">
        <ele>383.3</ele>
        <time>2022-04-15T12:33:03Z</time>
      </trkpt>
      <trkpt lat="45.56722" lon="5.79417">
        <ele>383.3</ele>
        <time>2022-04-15T12:33:04Z</time>
      </trkpt>
      <trkpt lat="45.56723" lon="5.79417">
        <ele>383.3</ele>
        <time>2022-04-15T12:33:05Z</time>
      </trkpt>
      <trkpt lat="45.56726" lon="5.79416">
        <ele>383.3</ele>
        <time>2022-04-15T12:33:06Z</time>
      </trkpt>
      <trkpt lat="45.56727" lon="5.79416">
        <ele>383.3</ele>
        <time>2022-04-15T12:33:07Z</time>
      </trkpt>
      <trkpt lat="45.5673" lon="5.79415">
        <ele>383.3</ele>
        <time>2022-04-15T12:33:08Z</time>
      </trkpt>
      <trkpt lat="45.56734" lon="5.79414">
        <ele>383.2</ele>
        <time>2022-04-15T12:33:09Z</time>
      </trkpt>
      <trkpt lat="45.56736" lon="5.79413">
        <ele>383.2</ele>
        <time>2022-04-15T12:33:10Z</time>
      </trkpt>
      <trkpt lat="45.56741" lon="5.79413">
        <ele>383.2</ele>
        <time>2022-04-15T12:33:11Z</time>
      </trkpt>
      <trkpt lat="45.56745" lon="5.79412">
        <ele>383.2</ele>
        <time>2022-04-15T12:33:13Z</time>
      </trkpt>
      <trkpt lat="45.56748" lon="5.79411">
        <ele>383.1</ele>
        <time>2022-04-15T12:33:14Z</time>
      </trkpt>
      <trkpt lat="45.56752" lon="5.7941">
        <ele>383.1</ele>
        <time>2022-04-15T12:33:15Z</time>
      </trkpt>
      <trkpt lat="45.56758" lon="5.7941">
        <ele>383.1</ele>
        <time>2022-04-15T12:33:16Z</time>
      </trkpt>
      <trkpt lat="45.56764" lon="5.79411">
        <ele>383.1</ele>
        <time>2022-04-15T12:33:18Z</time>
      </trkpt>
      <trkpt lat="45.56768" lon="5.79411">
        <ele>383.1</ele>
        <time>2022-04-15T12:33:19Z</time>
      </trkpt>
      <trkpt lat="45.56772" lon="5.79411">
        <ele>383.1</ele>
        <time>2022-04-15T12:33:20Z</time>
      </trkpt>
      <trkpt lat="45.56779" lon="5.79412">
        <ele>383.1</ele>
        <time>2022-04-15T12:33:21Z</time>
      </trkpt>
      <trkpt lat="45.56784" lon="5.79414">
        <ele>383.1</ele>
        <time>2022-04-15T12:33:23Z</time>
      </trkpt>
      <trkpt lat="45.56791" lon="5.79415">
        <ele>383.1</ele>
        <time>2022-04-15T12:33:25Z</time>
      </trkpt>
      <trkpt lat="45.56794" lon="5.79416">
        <ele>383.1</ele>
        <time>2022-04-15T12:33:26Z</time>
      </trkpt>
      <trkpt lat="45.56797" lon="5.79417">
        <ele>383.1</ele>
        <time>2022-04-15T12:33:27Z</time>
      </trkpt>
      <trkpt lat="45.56802" lon="5.79418">
        <ele>383.1</ele>
        <time>2022-04-15T12:33:28Z</time>
      </trkpt>
      <trkpt lat="45.56807" lon="5.7942">
        <ele>383.1</ele>
        <time>2022-04-15T12:33:29Z</time>
      </trkpt>
      <trkpt lat="45.56813" lon="5.79422">
        <ele>383.1</ele>
        <time>2022-04-15T12:33:31Z</time>
      </trkpt>
      <trkpt lat="45.56817" lon="5.79422">
        <ele>383.1</ele>
        <time>2022-04-15T12:33:32Z</time>
      </trkpt>
      <trkpt lat="45.5682" lon="5.79422">
        <ele>383.1</ele>
        <time>2022-04-15T12:33:33Z</time>
      </trkpt>
      <trkpt lat="45.56824" lon="5.79423">
        <ele>383.1</ele>
        <time>2022-04-15T12:33:34Z</time>
      </trkpt>
      <trkpt lat="45.56828" lon="5.79424">
        <ele>383.2</ele>
        <time>2022-04-15T12:33:35Z</time>
      </trkpt>
      <trkpt lat="45.56833" lon="5.79426">
        <ele>383.2</ele>
        <time>2022-04-15T12:33:36Z</time>
      </trkpt>
      <trkpt lat="45.5684" lon="5.79428">
        <ele>383.2</ele>
        <time>2022-04-15T12:33:38Z</time>
      </trkpt>
      <trkpt lat="45.56844" lon="5.79429">
        <ele>383.2</ele>
        <time>2022-04-15T12:33:39Z</time>
      </trkpt>
      <trkpt lat="45.5685" lon="5.7943">
        <ele>383.2</ele>
        <time>2022-04-15T12:33:41Z</time>
      </trkpt>
      <trkpt lat="45.56854" lon="5.7943">
        <ele>383.2</ele>
        <time>2022-04-15T12:33:42Z</time>
      </trkpt>
      <trkpt lat="45.56857" lon="5.79431">
        <ele>383.2</ele>
        <time>2022-04-15T12:33:43Z</time>
      </trkpt>
      <trkpt lat="45.56861" lon="5.79433">
        <ele>383.2</ele>
        <time>2022-04-15T12:33:44Z</time>
      </trkpt>
      <trkpt lat="45.56865" lon="5.79434">
        <ele>383.2</ele>
        <time>2022-04-15T12:33:45Z</time>
      </trkpt>
      <trkpt lat="45.5687" lon="5.79436">
        <ele>383.3</ele>
        <time>2022-04-15T12:33:46Z</time>
      </trkpt>
      <trkpt lat="45.56875" lon="5.79436">
        <ele>383.3</ele>
        <time>2022-04-15T12:33:47Z</time>
      </trkpt>
      <trkpt lat="45.56881" lon="5.79437">
        <ele>383.3</ele>
        <time>2022-04-15T12:33:48Z</time>
      </trkpt>
      <trkpt lat="45.56886" lon="5.79438">
        <ele>383.3</ele>
        <time>2022-04-15T12:33:50Z</time>
      </trkpt>
      <trkpt lat="45.5689" lon="5.79439">
        <ele>383.3</ele>
        <time>2022-04-15T12:33:51Z</time>
      </trkpt>
      <trkpt lat="45.56894" lon="5.79439">
        <ele>383.3</ele>
        <time>2022-04-15T12:33:52Z</time>
      </trkpt>
      <trkpt lat="45.56898" lon="5.7944">
        <ele>383.3</ele>
        <time>2022-04-15T12:33:53Z</time>
      </trkpt>
      <trkpt lat="45.56901" lon="5.79441">
        <ele>383.3</ele>
        <time>2022-04-15T12:33:54Z</time>
      </trkpt>
      <trkpt lat="45.56905" lon="5.79443">
        <ele>383.3</ele>
        <time>2022-04-15T12:33:55Z</time>
      </trkpt>
      <trkpt lat="45.56912" lon="5.79444">
        <ele>383.3</ele>
        <time>2022-04-15T12:33:56Z</time>
      </trkpt>
      <trkpt lat="45.56917" lon="5.79445">
        <ele>383.3</ele>
        <time>2022-04-15T12:33:58Z</time>
      </trkpt>
      <trkpt lat="45.56921" lon="5.79446">
        <ele>383.3</ele>
        <time>2022-04-15T12:33:59Z</time>
      </trkpt>
      <trkpt lat="45.56925" lon="5.79446">
        <ele>383.4</ele>
        <time>2022-04-15T12:34:00Z</time>
      </trkpt>
      <trkpt lat="45.56929" lon="5.79447">
        <ele>383.4</ele>
        <time>2022-04-15T12:34:01Z</time>
      </trkpt>
      <trkpt lat="45.56934" lon="5.79448">
        <ele>383.4</ele>
        <time>2022-04-15T12:34:02Z</time>
      </trkpt>
      <trkpt lat="45.5694" lon="5.79449">
        <ele>383.4</ele>
        <time>2022-04-15T12:34:04Z</time>
      </trkpt>
      <trkpt lat="45.56943" lon="5.79449">
        <ele>383.4</ele>
        <time>2022-04-15T12:34:05Z</time>
      </trkpt>
      <trkpt lat="45.56947" lon="5.7945">
        <ele>383.4</ele>
        <time>2022-04-15T12:34:06Z</time>
      </trkpt>
      <trkpt lat="45.56952" lon="5.79451">
        <ele>383.4</ele>
        <time>2022-04-15T12:34:07Z</time>
      </trkpt>
      <trkpt lat="45.56959" lon="5.79452">
        <ele>383.4</ele>
        <time>2022-04-15T12:34:08Z</time>
      </trkpt>
      <trkpt lat="45.56963" lon="5.79453">
        <ele>383.5</ele>
        <time>2022-04-15T12:34:09Z</time>
      </trkpt>
      <trkpt lat="45.56968" lon="5.79454">
        <ele>383.5</ele>
        <time>2022-04-15T12:34:11Z</time>
      </trkpt>
      <trkpt lat="45.56972" lon="5.79455">
        <ele>383.5</ele>
        <time>2022-04-15T12:34:12Z</time>
      </trkpt>
      <trkpt lat="45.56979" lon="5.79457">
        <ele>383.5</ele>
        <time>2022-04-15T12:34:14Z</time>
      </trkpt>
      <trkpt lat="45.56982" lon="5.79458">
        <ele>383.5</ele>
        <time>2022-04-15T12:34:15Z</time>
      </trkpt>
      <trkpt lat="45.56987" lon="5.79459">
        <ele>383.5</ele>
        <time>2022-04-15T12:34:16Z</time>
      </trkpt>
      <trkpt lat="45.56995" lon="5.79461">
        <ele>383.5</ele>
        <time>2022-04-15T12:34:18Z</time>
      </trkpt>
      <trkpt lat="45.57002" lon="5.79464">
        <ele>383.5</ele>
        <time>2022-04-15T12:34:20Z</time>
      </trkpt>
      <trkpt lat="45.57003" lon="5.79468">
        <ele>383.5</ele>
        <time>2022-04-15T12:34:21Z</time>
      </trkpt>
      <trkpt lat="45.57003" lon="5.7947">
        <ele>383.5</ele>
        <time>2022-04-15T12:34:22Z</time>
      </trkpt>
      <trkpt lat="45.57004" lon="5.79474">
        <ele>383.5</ele>
        <time>2022-04-15T12:34:24Z</time>
      </trkpt>
      <trkpt lat="45.57004" lon="5.79475">
        <ele>383.5</ele>
        <time>2022-04-15T12:34:25Z</time>
      </trkpt>
      <trkpt lat="45.57005" lon="5.79476">
        <ele>383.5</ele>
        <time>2022-04-15T12:34:26Z</time>
      </trkpt>
      <trkpt lat="45.57006" lon="5.79478">
        <ele>383.5</ele>
        <time>2022-04-15T12:34:27Z</time>
      </trkpt>
      <trkpt lat="45.57006" lon="5.79478">
        <ele>383.5</ele>
        <time>2022-04-15T12:34:28Z</time>
      </trkpt>
      <trkpt lat="45.57007" lon="5.79479">
        <ele>383.5</ele>
        <time>2022-04-15T12:34:29Z</time>
      </trkpt>
      <trkpt lat="45.57007" lon="5.79481">
        <ele>383.5</ele>
        <time>2022-04-15T12:34:31Z</time>
      </trkpt>
      <trkpt lat="45.57007" lon="5.79482">
        <ele>383.5</ele>
        <time>2022-04-15T12:34:33Z</time>
      </trkpt>
      <trkpt lat="45.57006" lon="5.79482">
        <ele>383.5</ele>
        <time>2022-04-15T12:34:34Z</time>
      </trkpt>
      <trkpt lat="45.57007" lon="5.79482">
        <ele>383.5</ele>
        <time>2022-04-15T12:34:35Z</time>
      </trkpt>
      <trkpt lat="45.57007" lon="5.79482">
        <ele>383.5</ele>
        <time>2022-04-15T12:34:36Z</time>
      </trkpt>
      <trkpt lat="45.57007" lon="5.79482">
        <ele>383.5</ele>
        <time>2022-04-15T12:34:37Z</time>
      </trkpt>
      <trkpt lat="45.57007" lon="5.79482">
        <ele>383.5</ele>
        <time>2022-04-15T12:34:38Z</time>
      </trkpt>
      <trkpt lat="45.57007" lon="5.79481">
        <ele>383.5</ele>
        <time>2022-04-15T12:34:39Z</time>
      </trkpt>
      <trkpt lat="45.57007" lon="5.79481">
        <ele>383.5</ele>
        <time>2022-04-15T12:34:40Z</time>
      </trkpt>
      <trkpt lat="45.57007" lon="5.79481">
        <ele>383.5</ele>
        <time>2022-04-15T12:34:41Z</time>
      </trkpt>
      <trkpt lat="45.57008" lon="5.79481">
        <ele>383.5</ele>
        <time>2022-04-15T12:34:42Z</time>
      </trkpt>
      <trkpt lat="45.57008" lon="5.79481">
        <ele>383.5</ele>
        <time>2022-04-15T12:34:43Z</time>
      </trkpt>
      <trkpt lat="45.57008" lon="5.79482">
        <ele>383.5</ele>
        <time>2022-04-15T12:34:44Z</time>
      </trkpt>
      <trkpt lat="45.57007" lon="5.79482">
        <ele>383.5</ele>
        <time>2022-04-15T12:34:45Z</time>
      </trkpt>
      <trkpt lat="45.57007" lon="5.79482">
        <ele>383.5</ele>
        <time>2022-04-15T12:34:46Z</time>
      </trkpt>
      <trkpt lat="45.57007" lon="5.79482">
        <ele>383.5</ele>
        <time>2022-04-15T12:34:47Z</time>
      </trkpt>
      <trkpt lat="45.57007" lon="5.79482">
        <ele>383.5</ele>
        <time>2022-04-15T12:34:48Z</time>
      </trkpt>
      <trkpt lat="45.57007" lon="5.79482">
        <ele>383.5</ele>
        <time>2022-04-15T12:34:49Z</time>
      </trkpt>
      <trkpt lat="45.57007" lon="5.79482">
        <ele>383.5</ele>
        <time>2022-04-15T12:34:50Z</time>
      </trkpt>
      <trkpt lat="45.57007" lon="5.79483">
        <ele>383.5</ele>
        <time>2022-04-15T12:34:51Z</time>
      </trkpt>
      <trkpt lat="45.57006" lon="5.79483">
        <ele>383.5</ele>
        <time>2022-04-15T12:34:52Z</time>
      </trkpt>
      <trkpt lat="45.57006" lon="5.79483">
        <ele>383.5</ele>
        <time>2022-04-15T12:34:53Z</time>
      </trkpt>
      <trkpt lat="45.57006" lon="5.79483">
        <ele>383.5</ele>
        <time>2022-04-15T12:34:54Z</time>
      </trkpt>
      <trkpt lat="45.57006" lon="5.79483">
        <ele>383.5</ele>
        <time>2022-04-15T12:34:55Z</time>
      </trkpt>
      <trkpt lat="45.57006" lon="5.79483">
        <ele>383.5</ele>
        <time>2022-04-15T12:34:56Z</time>
      </trkpt>
      <trkpt lat="45.57006" lon="5.79483">
        <ele>383.5</ele>
        <time>2022-04-15T12:34:57Z</time>
      </trkpt>
      <trkpt lat="45.57006" lon="5.79483">
        <ele>383.5</ele>
        <time>2022-04-15T12:34:58Z</time>
      </trkpt>
      <trkpt lat="45.57006" lon="5.79483">
        <ele>383.5</ele>
        <time>2022-04-15T12:34:59Z</time>
      </trkpt>
      <trkpt lat="45.57006" lon="5.79483">
        <ele>383.5</ele>
        <time>2022-04-15T12:35:00Z</time>
      </trkpt>
      <trkpt lat="45.57006" lon="5.79483">
        <ele>383.5</ele>
        <time>2022-04-15T12:35:01Z</time>
      </trkpt>
      <trkpt lat="45.57006" lon="5.79483">
        <ele>383.5</ele>
        <time>2022-04-15T12:35:02Z</time>
      </trkpt>
      <trkpt lat="45.57006" lon="5.79483">
        <ele>383.5</ele>
        <time>2022-04-15T12:35:03Z</time>
      </trkpt>
      <trkpt lat="45.57006" lon="5.79483">
        <ele>383.5</ele>
        <time>2022-04-15T12:35:04Z</time>
      </trkpt>
      <trkpt lat="45.57006" lon="5.79483">
        <ele>383.5</ele>
        <time>2022-04-15T12:35:05Z</time>
      </trkpt>
      <trkpt lat="45.57006" lon="5.79483">
        <ele>383.5</ele>
        <time>2022-04-15T12:35:06Z</time>
      </trkpt>
      <trkpt lat="45.57006" lon="5.79483">
        <ele>383.5</ele>
        <time>2022-04-15T12:35:07Z</time>
      </trkpt>
      <trkpt lat="45.57006" lon="5.79483">
        <ele>383.5</ele>
        <time>2022-04-15T12:35:08Z</time>
      </trkpt>
      <trkpt lat="45.57006" lon="5.79483">
        <ele>383.5</ele>
        <time>2022-04-15T12:35:09Z</time>
      </trkpt>
      <trkpt lat="45.57006" lon="5.79483">
        <ele>383.5</ele>
        <time>2022-04-15T12:35:10Z</time>
      </trkpt>
      <trkpt lat="45.57006" lon="5.79483">
        <ele>383.5</ele>
        <time>2022-04-15T12:35:11Z</time>
      </trkpt>
      <trkpt lat="45.57006" lon="5.79483">
        <ele>383.5</ele>
        <time>2022-04-15T12:35:12Z</time>
      </trkpt>
      <trkpt lat="45.57006" lon="5.79483">
        <ele>383.5</ele>
        <time>2022-04-15T12:35:13Z</time>
      </trkpt>
      <trkpt lat="45.57006" lon="5.79483">
        <ele>383.5</ele>
        <time>2022-04-15T12:35:14Z</time>
      </trkpt>
      <trkpt lat="45.57006" lon="5.79483">
        <ele>383.5</ele>
        <time>2022-04-15T12:35:15Z</time>
      </trkpt>
      <trkpt lat="45.57006" lon="5.79483">
        <ele>383.5</ele>
        <time>2022-04-15T12:35:16Z</time>
      </trkpt>
      <trkpt lat="45.57006" lon="5.79483">
        <ele>383.5</ele>
        <time>2022-04-15T12:35:17Z</time>
      </trkpt>
      <trkpt lat="45.57006" lon="5.79483">
        <ele>383.5</ele>
        <time>2022-04-15T12:35:18Z</time>
      </trkpt>
      <trkpt lat="45.57006" lon="5.79483">
        <ele>383.5</ele>
        <time>2022-04-15T12:35:19Z</time>
      </trkpt>
      <trkpt lat="45.57006" lon="5.79483">
        <ele>383.5</ele>
        <time>2022-04-15T12:35:20Z</time>
      </trkpt>
      <trkpt lat="45.57006" lon="5.79483">
        <ele>383.5</ele>
        <time>2022-04-15T12:35:21Z</time>
      </trkpt>
      <trkpt lat="45.57006" lon="5.79483">
        <ele>383.5</ele>
        <time>2022-04-15T12:35:22Z</time>
      </trkpt>
      <trkpt lat="45.57006" lon="5.79483">
        <ele>383.5</ele>
        <time>2022-04-15T12:35:23Z</time>
      </trkpt>
      <trkpt lat="45.57006" lon="5.79483">
        <ele>383.5</ele>
        <time>2022-04-15T12:35:24Z</time>
      </trkpt>
      <trkpt lat="45.57006" lon="5.79483">
        <ele>383.5</ele>
        <time>2022-04-15T12:35:25Z</time>
      </trkpt>
      <trkpt lat="45.57006" lon="5.79483">
        <ele>383.5</ele>
        <time>2022-04-15T12:35:26Z</time>
      </trkpt>
      <trkpt lat="45.57006" lon="5.79483">
        <ele>383.5</ele>
        <time>2022-04-15T12:35:27Z</time>
      </trkpt>
      <trkpt lat="45.57006" lon="5.79483">
        <ele>383.5</ele>
        <time>2022-04-15T12:35:28Z</time>
      </trkpt>
      <trkpt lat="45.57006" lon="5.79483">
        <ele>383.5</ele>
        <time>2022-04-15T12:35:29Z</time>
      </trkpt>
      <trkpt lat="45.57006" lon="5.79483">
        <ele>383.5</ele>
        <time>2022-04-15T12:35:30Z</time>
      </trkpt>
      <trkpt lat="45.57006" lon="5.79483">
        <ele>383.5</ele>
        <time>2022-04-15T12:35:31Z</time>
      </trkpt>
      <trkpt lat="45.57006" lon="5.79483">
        <ele>383.5</ele>
        <time>2022-04-15T12:35:32Z</time>
      </trkpt>
      <trkpt lat="45.57006" lon="5.79483">
        <ele>383.5</ele>
        <time>2022-04-15T12:35:33Z</time>
      </trkpt>
      <trkpt lat="45.57006" lon="5.79483">
        <ele>383.5</ele>
        <time>2022-04-15T12:35:34Z</time>
      </trkpt>
      <trkpt lat="45.57006" lon="5.79483">
        <ele>383.5</ele>
        <time>2022-04-15T12:35:35Z</time>
      </trkpt>
      <trkpt lat="45.57006" lon="5.79483">
        <ele>383.5</ele>
        <time>2022-04-15T12:35:36Z</time>
      </trkpt>
      <trkpt lat="45.57006" lon="5.79483">
        <ele>383.5</ele>
        <time>2022-04-15T12:35:37Z</time>
      </trkpt>
      <trkpt lat="45.57006" lon="5.79483">
        <ele>383.5</ele>
        <time>2022-04-15T12:35:38Z</time>
      </trkpt>
      <trkpt lat="45.57006" lon="5.79483">
        <ele>383.5</ele>
        <time>2022-04-15T12:35:39Z</time>
      </trkpt>
      <trkpt lat="45.57006" lon="5.79483">
        <ele>383.5</ele>
        <time>2022-04-15T12:35:40Z</time>
      </trkpt>
      <trkpt lat="45.57006" lon="5.79483">
        <ele>383.5</ele>
        <time>2022-04-15T12:35:41Z</time>
      </trkpt>
      <trkpt lat="45.57006" lon="5.79483">
        <ele>383.5</ele>
        <time>2022-04-15T12:35:42Z</time>
      </trkpt>
      <trkpt lat="45.57006" lon="5.79483">
        <ele>383.5</ele>
        <time>2022-04-15T12:35:43Z</time>
      </trkpt>
      <trkpt lat="45.57006" lon="5.79483">
        <ele>383.5</ele>
        <time>2022-04-15T12:35:44Z</time>
      </trkpt>
      <trkpt lat="45.57006" lon="5.79483">
        <ele>383.5</ele>
        <time>2022-04-15T12:35:45Z</time>
      </trkpt>
      <trkpt lat="45.57006" lon="5.79483">
        <ele>383.5</ele>
        <time>2022-04-15T12:35:46Z</time>
      </trkpt>
      <trkpt lat="45.57006" lon="5.79483">
        <ele>383.5</ele>
        <time>2022-04-15T12:35:47Z</time>
      </trkpt>
      <trkpt lat="45.57006" lon="5.79483">
        <ele>383.5</ele>
        <time>2022-04-15T12:35:48Z</time>
      </trkpt>
      <trkpt lat="45.57006" lon="5.79483">
        <ele>383.5</ele>
        <time>2022-04-15T12:35:49Z</time>
      </trkpt>
      <trkpt lat="45.57006" lon="5.79482">
        <ele>383.5</ele>
        <time>2022-04-15T12:35:50Z</time>
      </trkpt>
      <trkpt lat="45.57006" lon="5.79482">
        <ele>383.5</ele>
        <time>2022-04-15T12:35:51Z</time>
      </trkpt>
      <trkpt lat="45.57006" lon="5.79482">
        <ele>383.5</ele>
        <time>2022-04-15T12:35:52Z</time>
      </trkpt>
      <trkpt lat="45.57006" lon="5.79482">
        <ele>383.5</ele>
        <time>2022-04-15T12:35:53Z</time>
      </trkpt>
      <trkpt lat="45.57006" lon="5.79482">
        <ele>383.5</ele>
        <time>2022-04-15T12:35:54Z</time>
      </trkpt>
      <trkpt lat="45.57006" lon="5.79482">
        <ele>383.5</ele>
        <time>2022-04-15T12:35:55Z</time>
      </trkpt>
      <trkpt lat="45.57006" lon="5.79482">
        <ele>383.5</ele>
        <time>2022-04-15T12:35:56Z</time>
      </trkpt>
      <trkpt lat="45.57006" lon="5.79482">
        <ele>383.5</ele>
        <time>2022-04-15T12:35:57Z</time>
      </trkpt>
      <trkpt lat="45.57006" lon="5.79482">
        <ele>383.5</ele>
        <time>2022-04-15T12:35:58Z</time>
      </trkpt>
      <trkpt lat="45.57006" lon="5.79482">
        <ele>383.5</ele>
        <time>2022-04-15T12:35:59Z</time>
      </trkpt>
      <trkpt lat="45.57006" lon="5.79483">
        <ele>383.5</ele>
        <time>2022-04-15T12:36:00Z</time>
      </trkpt>
      <trkpt lat="45.57006" lon="5.79483">
        <ele>383.5</ele>
        <time>2022-04-15T12:36:01Z</time>
      </trkpt>
      <trkpt lat="45.57006" lon="5.79483">
        <ele>383.5</ele>
        <time>2022-04-15T12:36:02Z</time>
      </trkpt>
      <trkpt lat="45.57006" lon="5.79483">
        <ele>383.5</ele>
        <time>2022-04-15T12:36:04Z</time>
      </trkpt>
      <trkpt lat="45.57006" lon="5.79483">
        <ele>383.5</ele>
        <time>2022-04-15T12:36:05Z</time>
      </trkpt>
      <trkpt lat="45.57006" lon="5.79484">
        <ele>383.5</ele>
        <time>2022-04-15T12:36:06Z</time>
      </trkpt>
      <trkpt lat="45.57006" lon="5.79485">
        <ele>383.5</ele>
        <time>2022-04-15T12:36:07Z</time>
      </trkpt>
      <trkpt lat="45.57005" lon="5.79487">
        <ele>383.5</ele>
        <time>2022-04-15T12:36:08Z</time>
      </trkpt>
      <trkpt lat="45.57005" lon="5.79488">
        <ele>383.5</ele>
        <time>2022-04-15T12:36:09Z</time>
      </trkpt>
      <trkpt lat="45.57005" lon="5.79489">
        <ele>383.5</ele>
        <time>2022-04-15T12:36:10Z</time>
      </trkpt>
      <trkpt lat="45.57005" lon="5.79489">
        <ele>383.5</ele>
        <time>2022-04-15T12:36:11Z</time>
      </trkpt>
      <trkpt lat="45.57005" lon="5.79489">
        <ele>383.5</ele>
        <time>2022-04-15T12:36:12Z</time>
      </trkpt>
      <trkpt lat="45.57005" lon="5.7949">
        <ele>383.5</ele>
        <time>2022-04-15T12:36:13Z</time>
      </trkpt>
      <trkpt lat="45.57005" lon="5.7949">
        <ele>383.5</ele>
        <time>2022-04-15T12:36:14Z</time>
      </trkpt>
      <trkpt lat="45.57004" lon="5.79491">
        <ele>383.5</ele>
        <time>2022-04-15T12:36:15Z</time>
      </trkpt>
      <trkpt lat="45.57004" lon="5.79491">
        <ele>383.5</ele>
        <time>2022-04-15T12:36:16Z</time>
      </trkpt>
      <trkpt lat="45.57004" lon="5.79492">
        <ele>383.5</ele>
        <time>2022-04-15T12:36:17Z</time>
      </trkpt>
      <trkpt lat="45.57004" lon="5.79492">
        <ele>383.6</ele>
        <time>2022-04-15T12:36:18Z</time>
      </trkpt>
      <trkpt lat="45.57004" lon="5.79492">
        <ele>383.6</ele>
        <time>2022-04-15T12:36:19Z</time>
      </trkpt>
      <trkpt lat="45.57004" lon="5.79493">
        <ele>383.6</ele>
        <time>2022-04-15T12:36:20Z</time>
      </trkpt>
      <trkpt lat="45.57004" lon="5.79493">
        <ele>383.6</ele>
        <time>2022-04-15T12:36:21Z</time>
      </trkpt>
      <trkpt lat="45.57004" lon="5.79493">
        <ele>383.6</ele>
        <time>2022-04-15T12:36:22Z</time>
      </trkpt>
      <trkpt lat="45.57004" lon="5.79494">
        <ele>383.6</ele>
        <time>2022-04-15T12:36:24Z</time>
      </trkpt>
      <trkpt lat="45.57004" lon="5.79494">
        <ele>383.6</ele>
        <time>2022-04-15T12:36:25Z</time>
      </trkpt>
      <trkpt lat="45.57004" lon="5.79494">
        <ele>383.6</ele>
        <time>2022-04-15T12:36:26Z</time>
      </trkpt>
      <trkpt lat="45.57004" lon="5.79494">
        <ele>383.6</ele>
        <time>2022-04-15T12:36:27Z</time>
      </trkpt>
      <trkpt lat="45.57004" lon="5.79494">
        <ele>383.6</ele>
        <time>2022-04-15T12:36:28Z</time>
      </trkpt>
      <trkpt lat="45.57004" lon="5.79494">
        <ele>383.6</ele>
        <time>2022-04-15T12:36:29Z</time>
      </trkpt>
      <trkpt lat="45.57004" lon="5.79494">
        <ele>383.6</ele>
        <time>2022-04-15T12:36:30Z</time>
      </trkpt>
      <trkpt lat="45.57004" lon="5.79494">
        <ele>383.6</ele>
        <time>2022-04-15T12:36:31Z</time>
      </trkpt>
      <trkpt lat="45.57004" lon="5.79494">
        <ele>383.6</ele>
        <time>2022-04-15T12:36:33Z</time>
      </trkpt>
      <trkpt lat="45.57005" lon="5.79494">
        <ele>383.6</ele>
        <time>2022-04-15T12:36:34Z</time>
      </trkpt>
      <trkpt lat="45.57006" lon="5.79494">
        <ele>383.6</ele>
        <time>2022-04-15T12:36:35Z</time>
      </trkpt>
      <trkpt lat="45.57006" lon="5.79494">
        <ele>383.6</ele>
        <time>2022-04-15T12:36:36Z</time>
      </trkpt>
      <trkpt lat="45.57006" lon="5.79495">
        <ele>383.6</ele>
        <time>2022-04-15T12:36:37Z</time>
      </trkpt>
      <trkpt lat="45.57006" lon="5.79495">
        <ele>383.6</ele>
        <time>2022-04-15T12:36:39Z</time>
      </trkpt>
      <trkpt lat="45.57006" lon="5.79495">
        <ele>383.6</ele>
        <time>2022-04-15T12:36:40Z</time>
      </trkpt>
      <trkpt lat="45.57006" lon="5.79495">
        <ele>383.6</ele>
        <time>2022-04-15T12:36:41Z</time>
      </trkpt>
      <trkpt lat="45.57006" lon="5.79495">
        <ele>383.6</ele>
        <time>2022-04-15T12:36:42Z</time>
      </trkpt>
      <trkpt lat="45.57006" lon="5.79495">
        <ele>383.6</ele>
        <time>2022-04-15T12:36:43Z</time>
      </trkpt>
      <trkpt lat="45.57006" lon="5.79495">
        <ele>383.6</ele>
        <time>2022-04-15T12:36:44Z</time>
      </trkpt>
      <trkpt lat="45.57006" lon="5.79495">
        <ele>383.6</ele>
        <time>2022-04-15T12:36:45Z</time>
      </trkpt>
      <trkpt lat="45.57006" lon="5.79495">
        <ele>383.6</ele>
        <time>2022-04-15T12:36:46Z</time>
      </trkpt>
      <trkpt lat="45.57006" lon="5.79495">
        <ele>383.6</ele>
        <time>2022-04-15T12:36:47Z</time>
      </trkpt>
      <trkpt lat="45.57006" lon="5.79495">
        <ele>383.6</ele>
        <time>2022-04-15T12:36:48Z</time>
      </trkpt>
      <trkpt lat="45.57005" lon="5.79495">
        <ele>383.6</ele>
        <time>2022-04-15T12:36:49Z</time>
      </trkpt>
      <trkpt lat="45.57006" lon="5.79494">
        <ele>383.6</ele>
        <time>2022-04-15T12:36:50Z</time>
      </trkpt>
      <trkpt lat="45.57005" lon="5.79494">
        <ele>383.6</ele>
        <time>2022-04-15T12:36:51Z</time>
      </trkpt>
      <trkpt lat="45.57005" lon="5.79493">
        <ele>383.6</ele>
        <time>2022-04-15T12:36:53Z</time>
      </trkpt>
      <trkpt lat="45.57005" lon="5.79493">
        <ele>383.6</ele>
        <time>2022-04-15T12:36:54Z</time>
      </trkpt>
      <trkpt lat="45.57005" lon="5.79493">
        <ele>383.6</ele>
        <time>2022-04-15T12:36:55Z</time>
      </trkpt>
      <trkpt lat="45.57005" lon="5.79493">
        <ele>383.6</ele>
        <time>2022-04-15T12:36:57Z</time>
      </trkpt>
      <trkpt lat="45.57005" lon="5.79493">
        <ele>383.6</ele>
        <time>2022-04-15T12:36:58Z</time>
      </trkpt>
      <trkpt lat="45.57004" lon="5.79493">
        <ele>383.6</ele>
        <time>2022-04-15T12:36:59Z</time>
      </trkpt>
      <trkpt lat="45.57004" lon="5.79493">
        <ele>383.6</ele>
        <time>2022-04-15T12:37:00Z</time>
      </trkpt>
      <trkpt lat="45.57004" lon="5.79493">
        <ele>383.6</ele>
        <time>2022-04-15T12:37:01Z</time>
      </trkpt>
      <trkpt lat="45.57004" lon="5.79493">
        <ele>383.6</ele>
        <time>2022-04-15T12:37:02Z</time>
      </trkpt>
      <trkpt lat="45.57004" lon="5.79493">
        <ele>383.6</ele>
        <time>2022-04-15T12:37:03Z</time>
      </trkpt>
      <trkpt lat="45.57004" lon="5.79493">
        <ele>383.6</ele>
        <time>2022-04-15T12:37:04Z</time>
      </trkpt>
      <trkpt lat="45.57004" lon="5.79493">
        <ele>383.6</ele>
        <time>2022-04-15T12:37:05Z</time>
      </trkpt>
      <trkpt lat="45.57004" lon="5.79493">
        <ele>383.6</ele>
        <time>2022-04-15T12:37:06Z</time>
      </trkpt>
      <trkpt lat="45.57004" lon="5.79493">
        <ele>383.6</ele>
        <time>2022-04-15T12:37:07Z</time>
      </trkpt>
      <trkpt lat="45.57004" lon="5.79494">
        <ele>383.6</ele>
        <time>2022-04-15T12:37:08Z</time>
      </trkpt>
      <trkpt lat="45.57004" lon="5.79494">
        <ele>383.6</ele>
        <time>2022-04-15T12:37:09Z</time>
      </trkpt>
      <trkpt lat="45.57004" lon="5.79494">
        <ele>383.6</ele>
        <time>2022-04-15T12:37:10Z</time>
      </trkpt>
      <trkpt lat="45.57003" lon="5.79494">
        <ele>383.6</ele>
        <time>2022-04-15T12:37:11Z</time>
      </trkpt>
      <trkpt lat="45.57003" lon="5.79494">
        <ele>383.6</ele>
        <time>2022-04-15T12:37:12Z</time>
      </trkpt>
      <trkpt lat="45.57003" lon="5.79494">
        <ele>383.6</ele>
        <time>2022-04-15T12:37:13Z</time>
      </trkpt>
      <trkpt lat="45.57004" lon="5.79494">
        <ele>383.6</ele>
        <time>2022-04-15T12:37:14Z</time>
      </trkpt>
      <trkpt lat="45.57004" lon="5.79494">
        <ele>383.6</ele>
        <time>2022-04-15T12:37:15Z</time>
      </trkpt>
      <trkpt lat="45.57004" lon="5.79494">
        <ele>383.6</ele>
        <time>2022-04-15T12:37:16Z</time>
      </trkpt>
      <trkpt lat="45.57004" lon="5.79494">
        <ele>383.6</ele>
        <time>2022-04-15T12:37:17Z</time>
      </trkpt>
      <trkpt lat="45.57004" lon="5.79494">
        <ele>383.6</ele>
        <time>2022-04-15T12:37:18Z</time>
      </trkpt>
      <trkpt lat="45.57004" lon="5.79494">
        <ele>383.6</ele>
        <time>2022-04-15T12:37:19Z</time>
      </trkpt>
      <trkpt lat="45.57004" lon="5.79494">
        <ele>383.6</ele>
        <time>2022-04-15T12:37:20Z</time>
      </trkpt>
      <trkpt lat="45.57004" lon="5.79494">
        <ele>383.6</ele>
        <time>2022-04-15T12:37:21Z</time>
      </trkpt>
      <trkpt lat="45.57004" lon="5.79494">
        <ele>383.6</ele>
        <time>2022-04-15T12:37:22Z</time>
      </trkpt>
      <trkpt lat="45.57004" lon="5.79494">
        <ele>383.6</ele>
        <time>2022-04-15T12:37:23Z</time>
      </trkpt>
      <trkpt lat="45.57004" lon="5.79494">
        <ele>383.6</ele>
        <time>2022-04-15T12:37:24Z</time>
      </trkpt>
      <trkpt lat="45.57004" lon="5.79494">
        <ele>383.6</ele>
        <time>2022-04-15T12:37:25Z</time>
      </trkpt>
      <trkpt lat="45.57004" lon="5.79494">
        <ele>383.6</ele>
        <time>2022-04-15T12:37:26Z</time>
      </trkpt>
      <trkpt lat="45.57004" lon="5.79494">
        <ele>383.6</ele>
        <time>2022-04-15T12:37:27Z</time>
      </trkpt>
      <trkpt lat="45.57004" lon="5.79494">
        <ele>383.6</ele>
        <time>2022-04-15T12:37:28Z</time>
      </trkpt>
      <trkpt lat="45.57004" lon="5.79494">
        <ele>383.6</ele>
        <time>2022-04-15T12:37:29Z</time>
      </trkpt>
      <trkpt lat="45.57004" lon="5.79494">
        <ele>383.6</ele>
        <time>2022-04-15T12:37:30Z</time>
      </trkpt>
      <trkpt lat="45.57004" lon="5.79494">
        <ele>383.6</ele>
        <time>2022-04-15T12:37:31Z</time>
      </trkpt>
      <trkpt lat="45.57004" lon="5.79494">
        <ele>383.6</ele>
        <time>2022-04-15T12:37:32Z</time>
      </trkpt>
      <trkpt lat="45.57004" lon="5.79494">
        <ele>383.6</ele>
        <time>2022-04-15T12:37:33Z</time>
      </trkpt>
      <trkpt lat="45.57004" lon="5.79494">
        <ele>383.6</ele>
        <time>2022-04-15T12:37:34Z</time>
      </trkpt>
      <trkpt lat="45.57004" lon="5.79494">
        <ele>383.6</ele>
        <time>2022-04-15T12:37:35Z</time>
      </trkpt>
      <trkpt lat="45.57004" lon="5.79494">
        <ele>383.6</ele>
        <time>2022-04-15T12:37:36Z</time>
      </trkpt>
      <trkpt lat="45.57004" lon="5.79494">
        <ele>383.6</ele>
        <time>2022-04-15T12:37:37Z</time>
      </trkpt>
      <trkpt lat="45.57004" lon="5.79494">
        <ele>383.6</ele>
        <time>2022-04-15T12:37:38Z</time>
      </trkpt>
      <trkpt lat="45.57004" lon="5.79494">
        <ele>383.6</ele>
        <time>2022-04-15T12:37:39Z</time>
      </trkpt>
      <trkpt lat="45.57004" lon="5.79494">
        <ele>383.6</ele>
        <time>2022-04-15T12:37:40Z</time>
      </trkpt>
      <trkpt lat="45.57004" lon="5.79494">
        <ele>383.6</ele>
        <time>2022-04-15T12:37:41Z</time>
      </trkpt>
      <trkpt lat="45.57004" lon="5.79494">
        <ele>383.6</ele>
        <time>2022-04-15T12:37:42Z</time>
      </trkpt>
      <trkpt lat="45.57004" lon="5.79494">
        <ele>383.6</ele>
        <time>2022-04-15T12:37:43Z</time>
      </trkpt>
      <trkpt lat="45.57004" lon="5.79494">
        <ele>383.6</ele>
        <time>2022-04-15T12:37:44Z</time>
      </trkpt>
      <trkpt lat="45.57004" lon="5.79494">
        <ele>383.6</ele>
        <time>2022-04-15T12:37:45Z</time>
      </trkpt>
      <trkpt lat="45.57004" lon="5.79494">
        <ele>383.6</ele>
        <time>2022-04-15T12:37:46Z</time>
      </trkpt>
      <trkpt lat="45.57004" lon="5.79494">
        <ele>383.6</ele>
        <time>2022-04-15T12:37:47Z</time>
      </trkpt>
      <trkpt lat="45.57004" lon="5.79494">
        <ele>383.6</ele>
        <time>2022-04-15T12:37:48Z</time>
      </trkpt>
      <trkpt lat="45.57004" lon="5.79494">
        <ele>383.6</ele>
        <time>2022-04-15T12:37:49Z</time>
      </trkpt>
      <trkpt lat="45.57004" lon="5.79494">
        <ele>383.6</ele>
        <time>2022-04-15T12:37:50Z</time>
      </trkpt>
      <trkpt lat="45.57004" lon="5.79494">
        <ele>383.6</ele>
        <time>2022-04-15T12:37:51Z</time>
      </trkpt>
      <trkpt lat="45.57004" lon="5.79494">
        <ele>383.6</ele>
        <time>2022-04-15T12:37:52Z</time>
      </trkpt>
      <trkpt lat="45.57004" lon="5.79494">
        <ele>383.6</ele>
        <time>2022-04-15T12:37:53Z</time>
      </trkpt>
      <trkpt lat="45.57004" lon="5.79494">
        <ele>383.6</ele>
        <time>2022-04-15T12:37:54Z</time>
      </trkpt>
      <trkpt lat="45.57004" lon="5.79494">
        <ele>383.6</ele>
        <time>2022-04-15T12:37:55Z</time>
      </trkpt>
      <trkpt lat="45.57004" lon="5.79494">
        <ele>383.6</ele>
        <time>2022-04-15T12:37:56Z</time>
      </trkpt>
      <trkpt lat="45.57004" lon="5.79494">
        <ele>383.6</ele>
        <time>2022-04-15T12:37:57Z</time>
      </trkpt>
      <trkpt lat="45.57004" lon="5.79494">
        <ele>383.6</ele>
        <time>2022-04-15T12:37:58Z</time>
      </trkpt>
      <trkpt lat="45.57004" lon="5.79494">
        <ele>383.6</ele>
        <time>2022-04-15T12:37:59Z</time>
      </trkpt>
      <trkpt lat="45.57004" lon="5.79494">
        <ele>383.6</ele>
        <time>2022-04-15T12:38:00Z</time>
      </trkpt>
      <trkpt lat="45.57004" lon="5.79494">
        <ele>383.6</ele>
        <time>2022-04-15T12:38:01Z</time>
      </trkpt>
      <trkpt lat="45.57004" lon="5.79494">
        <ele>383.6</ele>
        <time>2022-04-15T12:38:02Z</time>
      </trkpt>
      <trkpt lat="45.57004" lon="5.79494">
        <ele>383.6</ele>
        <time>2022-04-15T12:38:03Z</time>
      </trkpt>
      <trkpt lat="45.57004" lon="5.79494">
        <ele>383.6</ele>
        <time>2022-04-15T12:38:04Z</time>
      </trkpt>
      <trkpt lat="45.57004" lon="5.79494">
        <ele>383.6</ele>
        <time>2022-04-15T12:38:05Z</time>
      </trkpt>
      <trkpt lat="45.57004" lon="5.79494">
        <ele>383.6</ele>
        <time>2022-04-15T12:38:06Z</time>
      </trkpt>
      <trkpt lat="45.57004" lon="5.79494">
        <ele>383.6</ele>
        <time>2022-04-15T12:38:07Z</time>
      </trkpt>
      <trkpt lat="45.57004" lon="5.79494">
        <ele>383.6</ele>
        <time>2022-04-15T12:38:08Z</time>
      </trkpt>
      <trkpt lat="45.57004" lon="5.79494">
        <ele>383.6</ele>
        <time>2022-04-15T12:38:09Z</time>
      </trkpt>
      <trkpt lat="45.57004" lon="5.79494">
        <ele>383.6</ele>
        <time>2022-04-15T12:38:10Z</time>
      </trkpt>
      <trkpt lat="45.57004" lon="5.79494">
        <ele>383.6</ele>
        <time>2022-04-15T12:38:11Z</time>
      </trkpt>
      <trkpt lat="45.57004" lon="5.79494">
        <ele>383.6</ele>
        <time>2022-04-15T12:38:12Z</time>
      </trkpt>
      <trkpt lat="45.57004" lon="5.79494">
        <ele>383.6</ele>
        <time>2022-04-15T12:38:13Z</time>
      </trkpt>
      <trkpt lat="45.57004" lon="5.79494">
        <ele>383.6</ele>
        <time>2022-04-15T12:38:14Z</time>
      </trkpt>
      <trkpt lat="45.57004" lon="5.79494">
        <ele>383.6</ele>
        <time>2022-04-15T12:38:15Z</time>
      </trkpt>
      <trkpt lat="45.57004" lon="5.79494">
        <ele>383.6</ele>
        <time>2022-04-15T12:38:16Z</time>
      </trkpt>
      <trkpt lat="45.57004" lon="5.79494">
        <ele>383.6</ele>
        <time>2022-04-15T12:38:17Z</time>
      </trkpt>
      <trkpt lat="45.57004" lon="5.79494">
        <ele>383.6</ele>
        <time>2022-04-15T12:38:18Z</time>
      </trkpt>
      <trkpt lat="45.57004" lon="5.79494">
        <ele>383.6</ele>
        <time>2022-04-15T12:38:19Z</time>
      </trkpt>
      <trkpt lat="45.57004" lon="5.79494">
        <ele>383.6</ele>
        <time>2022-04-15T12:38:20Z</time>
      </trkpt>
      <trkpt lat="45.57004" lon="5.79494">
        <ele>383.6</ele>
        <time>2022-04-15T12:38:21Z</time>
      </trkpt>
      <trkpt lat="45.57004" lon="5.79494">
        <ele>383.6</ele>
        <time>2022-04-15T12:38:22Z</time>
      </trkpt>
      <trkpt lat="45.57004" lon="5.79494">
        <ele>383.6</ele>
        <time>2022-04-15T12:38:23Z</time>
      </trkpt>
      <trkpt lat="45.57004" lon="5.79494">
        <ele>383.6</ele>
        <time>2022-04-15T12:38:24Z</time>
      </trkpt>
      <trkpt lat="45.57004" lon="5.79494">
        <ele>383.6</ele>
        <time>2022-04-15T12:38:25Z</time>
      </trkpt>
      <trkpt lat="45.57004" lon="5.79494">
        <ele>383.6</ele>
        <time>2022-04-15T12:38:26Z</time>
      </trkpt>
      <trkpt lat="45.57004" lon="5.79494">
        <ele>383.6</ele>
        <time>2022-04-15T12:38:27Z</time>
      </trkpt>
      <trkpt lat="45.57004" lon="5.79494">
        <ele>383.6</ele>
        <time>2022-04-15T12:38:28Z</time>
      </trkpt>
      <trkpt lat="45.57004" lon="5.79494">
        <ele>383.6</ele>
        <time>2022-04-15T12:38:29Z</time>
      </trkpt>
      <trkpt lat="45.57004" lon="5.79494">
        <ele>383.6</ele>
        <time>2022-04-15T12:38:30Z</time>
      </trkpt>
      <trkpt lat="45.57004" lon="5.79494">
        <ele>383.6</ele>
        <time>2022-04-15T12:38:31Z</time>
      </trkpt>
      <trkpt lat="45.57004" lon="5.79494">
        <ele>383.6</ele>
        <time>2022-04-15T12:38:32Z</time>
      </trkpt>
      <trkpt lat="45.57004" lon="5.79494">
        <ele>383.6</ele>
        <time>2022-04-15T12:38:33Z</time>
      </trkpt>
      <trkpt lat="45.57004" lon="5.79494">
        <ele>383.6</ele>
        <time>2022-04-15T12:38:34Z</time>
      </trkpt>
      <trkpt lat="45.57004" lon="5.79494">
        <ele>383.6</ele>
        <time>2022-04-15T12:38:35Z</time>
      </trkpt>
      <trkpt lat="45.57004" lon="5.79494">
        <ele>383.6</ele>
        <time>2022-04-15T12:38:36Z</time>
      </trkpt>
      <trkpt lat="45.57004" lon="5.79494">
        <ele>383.6</ele>
        <time>2022-04-15T12:38:37Z</time>
      </trkpt>
      <trkpt lat="45.57004" lon="5.79494">
        <ele>383.6</ele>
        <time>2022-04-15T12:38:38Z</time>
      </trkpt>
      <trkpt lat="45.57004" lon="5.79494">
        <ele>383.6</ele>
        <time>2022-04-15T12:38:39Z</time>
      </trkpt>
      <trkpt lat="45.57004" lon="5.79494">
        <ele>383.6</ele>
        <time>2022-04-15T12:38:40Z</time>
      </trkpt>
      <trkpt lat="45.57004" lon="5.79494">
        <ele>383.6</ele>
        <time>2022-04-15T12:38:41Z</time>
      </trkpt>
      <trkpt lat="45.57004" lon="5.79494">
        <ele>383.6</ele>
        <time>2022-04-15T12:38:42Z</time>
      </trkpt>
      <trkpt lat="45.57004" lon="5.79494">
        <ele>383.6</ele>
        <time>2022-04-15T12:38:43Z</time>
      </trkpt>
      <trkpt lat="45.57004" lon="5.79494">
        <ele>383.6</ele>
        <time>2022-04-15T12:38:44Z</time>
      </trkpt>
      <trkpt lat="45.57004" lon="5.79494">
        <ele>383.6</ele>
        <time>2022-04-15T12:38:45Z</time>
      </trkpt>
      <trkpt lat="45.57004" lon="5.79494">
        <ele>383.6</ele>
        <time>2022-04-15T12:38:46Z</time>
      </trkpt>
      <trkpt lat="45.57004" lon="5.79494">
        <ele>383.6</ele>
        <time>2022-04-15T12:38:47Z</time>
      </trkpt>
      <trkpt lat="45.57004" lon="5.79494">
        <ele>383.6</ele>
        <time>2022-04-15T12:38:48Z</time>
      </trkpt>
      <trkpt lat="45.57004" lon="5.79494">
        <ele>383.6</ele>
        <time>2022-04-15T12:38:49Z</time>
      </trkpt>
      <trkpt lat="45.57004" lon="5.79494">
        <ele>383.6</ele>
        <time>2022-04-15T12:38:50Z</time>
      </trkpt>
      <trkpt lat="45.57004" lon="5.79494">
        <ele>383.6</ele>
        <time>2022-04-15T12:38:51Z</time>
      </trkpt>
      <trkpt lat="45.57004" lon="5.79494">
        <ele>383.6</ele>
        <time>2022-04-15T12:38:52Z</time>
      </trkpt>
      <trkpt lat="45.57004" lon="5.79494">
        <ele>383.6</ele>
        <time>2022-04-15T12:38:53Z</time>
      </trkpt>
      <trkpt lat="45.57004" lon="5.79494">
        <ele>383.6</ele>
        <time>2022-04-15T12:38:54Z</time>
      </trkpt>
      <trkpt lat="45.57004" lon="5.79494">
        <ele>383.6</ele>
        <time>2022-04-15T12:38:55Z</time>
      </trkpt>
      <trkpt lat="45.57004" lon="5.79494">
        <ele>383.6</ele>
        <time>2022-04-15T12:38:56Z</time>
      </trkpt>
      <trkpt lat="45.57004" lon="5.79494">
        <ele>383.6</ele>
        <time>2022-04-15T12:38:57Z</time>
      </trkpt>
      <trkpt lat="45.57004" lon="5.79494">
        <ele>383.6</ele>
        <time>2022-04-15T12:38:58Z</time>
      </trkpt>
      <trkpt lat="45.57004" lon="5.79494">
        <ele>383.6</ele>
        <time>2022-04-15T12:38:59Z</time>
      </trkpt>
      <trkpt lat="45.57004" lon="5.79494">
        <ele>383.6</ele>
        <time>2022-04-15T12:39:00Z</time>
      </trkpt>
      <trkpt lat="45.57004" lon="5.79494">
        <ele>383.6</ele>
        <time>2022-04-15T12:39:01Z</time>
      </trkpt>
      <trkpt lat="45.57004" lon="5.79494">
        <ele>383.6</ele>
        <time>2022-04-15T12:39:02Z</time>
      </trkpt>
      <trkpt lat="45.57004" lon="5.79494">
        <ele>383.6</ele>
        <time>2022-04-15T12:39:03Z</time>
      </trkpt>
      <trkpt lat="45.57004" lon="5.79494">
        <ele>383.6</ele>
        <time>2022-04-15T12:39:04Z</time>
      </trkpt>
      <trkpt lat="45.57004" lon="5.79494">
        <ele>383.6</ele>
        <time>2022-04-15T12:39:05Z</time>
      </trkpt>
      <trkpt lat="45.57004" lon="5.79494">
        <ele>383.6</ele>
        <time>2022-04-15T12:39:06Z</time>
      </trkpt>
      <trkpt lat="45.57004" lon="5.79494">
        <ele>383.6</ele>
        <time>2022-04-15T12:39:07Z</time>
      </trkpt>
      <trkpt lat="45.57004" lon="5.79494">
        <ele>383.6</ele>
        <time>2022-04-15T12:39:08Z</time>
      </trkpt>
      <trkpt lat="45.57004" lon="5.79494">
        <ele>383.6</ele>
        <time>2022-04-15T12:39:09Z</time>
      </trkpt>
      <trkpt lat="45.57004" lon="5.79494">
        <ele>383.6</ele>
        <time>2022-04-15T12:39:10Z</time>
      </trkpt>
      <trkpt lat="45.57004" lon="5.79494">
        <ele>383.6</ele>
        <time>2022-04-15T12:39:11Z</time>
      </trkpt>
      <trkpt lat="45.57004" lon="5.79494">
        <ele>383.6</ele>
        <time>2022-04-15T12:39:12Z</time>
      </trkpt>
      <trkpt lat="45.57004" lon="5.79494">
        <ele>383.6</ele>
        <time>2022-04-15T12:39:13Z</time>
      </trkpt>
      <trkpt lat="45.57004" lon="5.79494">
        <ele>383.6</ele>
        <time>2022-04-15T12:39:14Z</time>
      </trkpt>
      <trkpt lat="45.57004" lon="5.79494">
        <ele>383.6</ele>
        <time>2022-04-15T12:39:15Z</time>
      </trkpt>
      <trkpt lat="45.57004" lon="5.79494">
        <ele>383.6</ele>
        <time>2022-04-15T12:39:16Z</time>
      </trkpt>
      <trkpt lat="45.57004" lon="5.79494">
        <ele>383.6</ele>
        <time>2022-04-15T12:39:17Z</time>
      </trkpt>
      <trkpt lat="45.57004" lon="5.79494">
        <ele>383.6</ele>
        <time>2022-04-15T12:39:18Z</time>
      </trkpt>
      <trkpt lat="45.57004" lon="5.79494">
        <ele>383.6</ele>
        <time>2022-04-15T12:39:19Z</time>
      </trkpt>
      <trkpt lat="45.57004" lon="5.79494">
        <ele>383.6</ele>
        <time>2022-04-15T12:39:20Z</time>
      </trkpt>
      <trkpt lat="45.57004" lon="5.79494">
        <ele>383.6</ele>
        <time>2022-04-15T12:39:21Z</time>
      </trkpt>
      <trkpt lat="45.57004" lon="5.79494">
        <ele>383.6</ele>
        <time>2022-04-15T12:39:22Z</time>
      </trkpt>
      <trkpt lat="45.57004" lon="5.79494">
        <ele>383.6</ele>
        <time>2022-04-15T12:39:23Z</time>
      </trkpt>
      <trkpt lat="45.57004" lon="5.79494">
        <ele>383.6</ele>
        <time>2022-04-15T12:39:24Z</time>
      </trkpt>
      <trkpt lat="45.57004" lon="5.79494">
        <ele>383.6</ele>
        <time>2022-04-15T12:39:25Z</time>
      </trkpt>
      <trkpt lat="45.57004" lon="5.79494">
        <ele>383.6</ele>
        <time>2022-04-15T12:39:26Z</time>
      </trkpt>
      <trkpt lat="45.57004" lon="5.79494">
        <ele>383.6</ele>
        <time>2022-04-15T12:39:27Z</time>
      </trkpt>
      <trkpt lat="45.57004" lon="5.79494">
        <ele>383.6</ele>
        <time>2022-04-15T12:39:28Z</time>
      </trkpt>
      <trkpt lat="45.57004" lon="5.79494">
        <ele>383.6</ele>
        <time>2022-04-15T12:39:29Z</time>
      </trkpt>
      <trkpt lat="45.57004" lon="5.79494">
        <ele>383.6</ele>
        <time>2022-04-15T12:39:30Z</time>
      </trkpt>
      <trkpt lat="45.57004" lon="5.79494">
        <ele>383.6</ele>
        <time>2022-04-15T12:39:31Z</time>
      </trkpt>
      <trkpt lat="45.57004" lon="5.79494">
        <ele>383.6</ele>
        <time>2022-04-15T12:39:32Z</time>
      </trkpt>
      <trkpt lat="45.57004" lon="5.79494">
        <ele>383.6</ele>
        <time>2022-04-15T12:39:33Z</time>
      </trkpt>
      <trkpt lat="45.57004" lon="5.79494">
        <ele>383.6</ele>
        <time>2022-04-15T12:39:34Z</time>
      </trkpt>
      <trkpt lat="45.57004" lon="5.79494">
        <ele>383.6</ele>
        <time>2022-04-15T12:39:35Z</time>
      </trkpt>
      <trkpt lat="45.57004" lon="5.79494">
        <ele>383.6</ele>
        <time>2022-04-15T12:39:36Z</time>
      </trkpt>
      <trkpt lat="45.57004" lon="5.79494">
        <ele>383.6</ele>
        <time>2022-04-15T12:39:37Z</time>
      </trkpt>
      <trkpt lat="45.57004" lon="5.79494">
        <ele>383.6</ele>
        <time>2022-04-15T12:39:38Z</time>
      </trkpt>
      <trkpt lat="45.57004" lon="5.79494">
        <ele>383.6</ele>
        <time>2022-04-15T12:39:39Z</time>
      </trkpt>
      <trkpt lat="45.57004" lon="5.79494">
        <ele>383.6</ele>
        <time>2022-04-15T12:39:40Z</time>
      </trkpt>
      <trkpt lat="45.57004" lon="5.79494">
        <ele>383.6</ele>
        <time>2022-04-15T12:39:41Z</time>
      </trkpt>
      <trkpt lat="45.57004" lon="5.79494">
        <ele>383.6</ele>
        <time>2022-04-15T12:39:42Z</time>
      </trkpt>
      <trkpt lat="45.57004" lon="5.79494">
        <ele>383.6</ele>
        <time>2022-04-15T12:39:43Z</time>
      </trkpt>
      <trkpt lat="45.57004" lon="5.79494">
        <ele>383.6</ele>
        <time>2022-04-15T12:39:44Z</time>
      </trkpt>
      <trkpt lat="45.57004" lon="5.79494">
        <ele>383.6</ele>
        <time>2022-04-15T12:39:45Z</time>
      </trkpt>
      <trkpt lat="45.57004" lon="5.79494">
        <ele>383.6</ele>
        <time>2022-04-15T12:39:46Z</time>
      </trkpt>
      <trkpt lat="45.57004" lon="5.79494">
        <ele>383.6</ele>
        <time>2022-04-15T12:39:47Z</time>
      </trkpt>
      <trkpt lat="45.57004" lon="5.79494">
        <ele>383.6</ele>
        <time>2022-04-15T12:39:48Z</time>
      </trkpt>
      <trkpt lat="45.57004" lon="5.79494">
        <ele>383.6</ele>
        <time>2022-04-15T12:39:49Z</time>
      </trkpt>
      <trkpt lat="45.57004" lon="5.79494">
        <ele>383.6</ele>
        <time>2022-04-15T12:39:50Z</time>
      </trkpt>
      <trkpt lat="45.57004" lon="5.79494">
        <ele>383.6</ele>
        <time>2022-04-15T12:39:51Z</time>
      </trkpt>
      <trkpt lat="45.57004" lon="5.79494">
        <ele>383.6</ele>
        <time>2022-04-15T12:39:52Z</time>
      </trkpt>
      <trkpt lat="45.57004" lon="5.79494">
        <ele>383.6</ele>
        <time>2022-04-15T12:39:53Z</time>
      </trkpt>
      <trkpt lat="45.57004" lon="5.79494">
        <ele>383.6</ele>
        <time>2022-04-15T12:39:54Z</time>
      </trkpt>
      <trkpt lat="45.57004" lon="5.79494">
        <ele>383.6</ele>
        <time>2022-04-15T12:39:55Z</time>
      </trkpt>
      <trkpt lat="45.57004" lon="5.79494">
        <ele>383.6</ele>
        <time>2022-04-15T12:39:56Z</time>
      </trkpt>
      <trkpt lat="45.57004" lon="5.79494">
        <ele>383.6</ele>
        <time>2022-04-15T12:39:57Z</time>
      </trkpt>
      <trkpt lat="45.57004" lon="5.79494">
        <ele>383.6</ele>
        <time>2022-04-15T12:39:58Z</time>
      </trkpt>
      <trkpt lat="45.57004" lon="5.79494">
        <ele>383.6</ele>
        <time>2022-04-15T12:39:59Z</time>
      </trkpt>
      <trkpt lat="45.57004" lon="5.79494">
        <ele>383.6</ele>
        <time>2022-04-15T12:40:00Z</time>
      </trkpt>
      <trkpt lat="45.57004" lon="5.79494">
        <ele>383.6</ele>
        <time>2022-04-15T12:40:01Z</time>
      </trkpt>
      <trkpt lat="45.57004" lon="5.79494">
        <ele>383.6</ele>
        <time>2022-04-15T12:40:02Z</time>
      </trkpt>
      <trkpt lat="45.57004" lon="5.79494">
        <ele>383.6</ele>
        <time>2022-04-15T12:40:03Z</time>
      </trkpt>
      <trkpt lat="45.57004" lon="5.79494">
        <ele>383.6</ele>
        <time>2022-04-15T12:40:04Z</time>
      </trkpt>
      <trkpt lat="45.57004" lon="5.79494">
        <ele>383.6</ele>
        <time>2022-04-15T12:40:05Z</time>
      </trkpt>
      <trkpt lat="45.57004" lon="5.79494">
        <ele>383.6</ele>
        <time>2022-04-15T12:40:06Z</time>
      </trkpt>
      <trkpt lat="45.57004" lon="5.79494">
        <ele>383.6</ele>
        <time>2022-04-15T12:40:07Z</time>
      </trkpt>
      <trkpt lat="45.57004" lon="5.79494">
        <ele>383.6</ele>
        <time>2022-04-15T12:40:08Z</time>
      </trkpt>
      <trkpt lat="45.57004" lon="5.79494">
        <ele>383.6</ele>
        <time>2022-04-15T12:40:09Z</time>
      </trkpt>
      <trkpt lat="45.57004" lon="5.79494">
        <ele>383.6</ele>
        <time>2022-04-15T12:40:10Z</time>
      </trkpt>
      <trkpt lat="45.57004" lon="5.79494">
        <ele>383.6</ele>
        <time>2022-04-15T12:40:11Z</time>
      </trkpt>
      <trkpt lat="45.57004" lon="5.79494">
        <ele>383.6</ele>
        <time>2022-04-15T12:40:12Z</time>
      </trkpt>
      <trkpt lat="45.57004" lon="5.79494">
        <ele>383.6</ele>
        <time>2022-04-15T12:40:13Z</time>
      </trkpt>
      <trkpt lat="45.57004" lon="5.79494">
        <ele>383.6</ele>
        <time>2022-04-15T12:40:14Z</time>
      </trkpt>
      <trkpt lat="45.57004" lon="5.79494">
        <ele>383.6</ele>
        <time>2022-04-15T12:40:15Z</time>
      </trkpt>
      <trkpt lat="45.57004" lon="5.79494">
        <ele>383.6</ele>
        <time>2022-04-15T12:40:16Z</time>
      </trkpt>
      <trkpt lat="45.57004" lon="5.79494">
        <ele>383.6</ele>
        <time>2022-04-15T12:40:17Z</time>
      </trkpt>
      <trkpt lat="45.57004" lon="5.79494">
        <ele>383.6</ele>
        <time>2022-04-15T12:40:18Z</time>
      </trkpt>
      <trkpt lat="45.57004" lon="5.79494">
        <ele>383.6</ele>
        <time>2022-04-15T12:40:19Z</time>
      </trkpt>
      <trkpt lat="45.57004" lon="5.79494">
        <ele>383.6</ele>
        <time>2022-04-15T12:40:20Z</time>
      </trkpt>
      <trkpt lat="45.57004" lon="5.79494">
        <ele>383.6</ele>
        <time>2022-04-15T12:40:21Z</time>
      </trkpt>
      <trkpt lat="45.57004" lon="5.79494">
        <ele>383.6</ele>
        <time>2022-04-15T12:40:22Z</time>
      </trkpt>
      <trkpt lat="45.57004" lon="5.79494">
        <ele>383.6</ele>
        <time>2022-04-15T12:40:23Z</time>
      </trkpt>
      <trkpt lat="45.57003" lon="5.79494">
        <ele>383.6</ele>
        <time>2022-04-15T12:40:24Z</time>
      </trkpt>
      <trkpt lat="45.57003" lon="5.79494">
        <ele>383.6</ele>
        <time>2022-04-15T12:40:25Z</time>
      </trkpt>
      <trkpt lat="45.57003" lon="5.79494">
        <ele>383.6</ele>
        <time>2022-04-15T12:40:26Z</time>
      </trkpt>
      <trkpt lat="45.57003" lon="5.79494">
        <ele>383.6</ele>
        <time>2022-04-15T12:40:27Z</time>
      </trkpt>
      <trkpt lat="45.57003" lon="5.79494">
        <ele>383.6</ele>
        <time>2022-04-15T12:40:28Z</time>
      </trkpt>
      <trkpt lat="45.57003" lon="5.79494">
        <ele>383.6</ele>
        <time>2022-04-15T12:40:29Z</time>
      </trkpt>
      <trkpt lat="45.57003" lon="5.79494">
        <ele>383.6</ele>
        <time>2022-04-15T12:40:30Z</time>
      </trkpt>
      <trkpt lat="45.57003" lon="5.79494">
        <ele>383.6</ele>
        <time>2022-04-15T12:40:31Z</time>
      </trkpt>
      <trkpt lat="45.57003" lon="5.79494">
        <ele>383.6</ele>
        <time>2022-04-15T12:40:32Z</time>
      </trkpt>
      <trkpt lat="45.57003" lon="5.79494">
        <ele>383.6</ele>
        <time>2022-04-15T12:40:33Z</time>
      </trkpt>
      <trkpt lat="45.57003" lon="5.79494">
        <ele>383.6</ele>
        <time>2022-04-15T12:40:34Z</time>
      </trkpt>
      <trkpt lat="45.57003" lon="5.79494">
        <ele>383.6</ele>
        <time>2022-04-15T12:40:35Z</time>
      </trkpt>
      <trkpt lat="45.57003" lon="5.79494">
        <ele>383.6</ele>
        <time>2022-04-15T12:40:36Z</time>
      </trkpt>
      <trkpt lat="45.57003" lon="5.79494">
        <ele>383.6</ele>
        <time>2022-04-15T12:40:37Z</time>
      </trkpt>
      <trkpt lat="45.57003" lon="5.79494">
        <ele>383.6</ele>
        <time>2022-04-15T12:40:38Z</time>
      </trkpt>
      <trkpt lat="45.57003" lon="5.79494">
        <ele>383.6</ele>
        <time>2022-04-15T12:40:39Z</time>
      </trkpt>
      <trkpt lat="45.57003" lon="5.79494">
        <ele>383.6</ele>
        <time>2022-04-15T12:40:40Z</time>
      </trkpt>
      <trkpt lat="45.57003" lon="5.79494">
        <ele>383.6</ele>
        <time>2022-04-15T12:40:41Z</time>
      </trkpt>
      <trkpt lat="45.57003" lon="5.79494">
        <ele>383.6</ele>
        <time>2022-04-15T12:40:42Z</time>
      </trkpt>
      <trkpt lat="45.57003" lon="5.79494">
        <ele>383.6</ele>
        <time>2022-04-15T12:40:43Z</time>
      </trkpt>
      <trkpt lat="45.57003" lon="5.79494">
        <ele>383.6</ele>
        <time>2022-04-15T12:40:44Z</time>
      </trkpt>
      <trkpt lat="45.57003" lon="5.79494">
        <ele>383.6</ele>
        <time>2022-04-15T12:40:45Z</time>
      </trkpt>
      <trkpt lat="45.57003" lon="5.79494">
        <ele>383.6</ele>
        <time>2022-04-15T12:40:46Z</time>
      </trkpt>
      <trkpt lat="45.57003" lon="5.79494">
        <ele>383.6</ele>
        <time>2022-04-15T12:40:47Z</time>
      </trkpt>
      <trkpt lat="45.57003" lon="5.79494">
        <ele>383.6</ele>
        <time>2022-04-15T12:40:48Z</time>
      </trkpt>
      <trkpt lat="45.57003" lon="5.79494">
        <ele>383.6</ele>
        <time>2022-04-15T12:40:49Z</time>
      </trkpt>
      <trkpt lat="45.57003" lon="5.79494">
        <ele>383.6</ele>
        <time>2022-04-15T12:40:50Z</time>
      </trkpt>
      <trkpt lat="45.57003" lon="5.79494">
        <ele>383.6</ele>
        <time>2022-04-15T12:40:51Z</time>
      </trkpt>
      <trkpt lat="45.57003" lon="5.79494">
        <ele>383.6</ele>
        <time>2022-04-15T12:40:52Z</time>
      </trkpt>
      <trkpt lat="45.57003" lon="5.79494">
        <ele>383.6</ele>
        <time>2022-04-15T12:40:53Z</time>
      </trkpt>
      <trkpt lat="45.57003" lon="5.79494">
        <ele>383.6</ele>
        <time>2022-04-15T12:40:54Z</time>
      </trkpt>
      <trkpt lat="45.57003" lon="5.79494">
        <ele>383.6</ele>
        <time>2022-04-15T12:40:55Z</time>
      </trkpt>
      <trkpt lat="45.57003" lon="5.79494">
        <ele>383.6</ele>
        <time>2022-04-15T12:40:56Z</time>
      </trkpt>
      <trkpt lat="45.57003" lon="5.79494">
        <ele>383.6</ele>
        <time>2022-04-15T12:40:57Z</time>
      </trkpt>
      <trkpt lat="45.57003" lon="5.79494">
        <ele>383.6</ele>
        <time>2022-04-15T12:40:58Z</time>
      </trkpt>
      <trkpt lat="45.57003" lon="5.79494">
        <ele>383.6</ele>
        <time>2022-04-15T12:40:59Z</time>
      </trkpt>
      <trkpt lat="45.57003" lon="5.79494">
        <ele>383.6</ele>
        <time>2022-04-15T12:41:00Z</time>
      </trkpt>
      <trkpt lat="45.57003" lon="5.79494">
        <ele>383.6</ele>
        <time>2022-04-15T12:41:01Z</time>
      </trkpt>
      <trkpt lat="45.57003" lon="5.79494">
        <ele>383.6</ele>
        <time>2022-04-15T12:41:02Z</time>
      </trkpt>
      <trkpt lat="45.57003" lon="5.79494">
        <ele>383.6</ele>
        <time>2022-04-15T12:41:03Z</time>
      </trkpt>
      <trkpt lat="45.57003" lon="5.79494">
        <ele>383.6</ele>
        <time>2022-04-15T12:41:04Z</time>
      </trkpt>
      <trkpt lat="45.57003" lon="5.79494">
        <ele>383.6</ele>
        <time>2022-04-15T12:41:05Z</time>
      </trkpt>
      <trkpt lat="45.57003" lon="5.79494">
        <ele>383.6</ele>
        <time>2022-04-15T12:41:06Z</time>
      </trkpt>
      <trkpt lat="45.57003" lon="5.79494">
        <ele>383.6</ele>
        <time>2022-04-15T12:41:07Z</time>
      </trkpt>
      <trkpt lat="45.57003" lon="5.79494">
        <ele>383.6</ele>
        <time>2022-04-15T12:41:08Z</time>
      </trkpt>
      <trkpt lat="45.57003" lon="5.79494">
        <ele>383.6</ele>
        <time>2022-04-15T12:41:09Z</time>
      </trkpt>
      <trkpt lat="45.57003" lon="5.79494">
        <ele>383.6</ele>
        <time>2022-04-15T12:41:10Z</time>
      </trkpt>
      <trkpt lat="45.57003" lon="5.79494">
        <ele>383.6</ele>
        <time>2022-04-15T12:41:11Z</time>
      </trkpt>
      <trkpt lat="45.57003" lon="5.79494">
        <ele>383.6</ele>
        <time>2022-04-15T12:41:12Z</time>
      </trkpt>
      <trkpt lat="45.57003" lon="5.79494">
        <ele>383.6</ele>
        <time>2022-04-15T12:41:13Z</time>
      </trkpt>
      <trkpt lat="45.57003" lon="5.79494">
        <ele>383.6</ele>
        <time>2022-04-15T12:41:14Z</time>
      </trkpt>
      <trkpt lat="45.57003" lon="5.79494">
        <ele>383.6</ele>
        <time>2022-04-15T12:41:15Z</time>
      </trkpt>
      <trkpt lat="45.57003" lon="5.79494">
        <ele>383.6</ele>
        <time>2022-04-15T12:41:16Z</time>
      </trkpt>
      <trkpt lat="45.57003" lon="5.79494">
        <ele>383.6</ele>
        <time>2022-04-15T12:41:17Z</time>
      </trkpt>
      <trkpt lat="45.57003" lon="5.79494">
        <ele>383.6</ele>
        <time>2022-04-15T12:41:18Z</time>
      </trkpt>
      <trkpt lat="45.57003" lon="5.79494">
        <ele>383.6</ele>
        <time>2022-04-15T12:41:19Z</time>
      </trkpt>
      <trkpt lat="45.57003" lon="5.79494">
        <ele>383.6</ele>
        <time>2022-04-15T12:41:20Z</time>
      </trkpt>
      <trkpt lat="45.57003" lon="5.79494">
        <ele>383.6</ele>
        <time>2022-04-15T12:41:21Z</time>
      </trkpt>
      <trkpt lat="45.57003" lon="5.79494">
        <ele>383.6</ele>
        <time>2022-04-15T12:41:22Z</time>
      </trkpt>
      <trkpt lat="45.57003" lon="5.79494">
        <ele>383.6</ele>
        <time>2022-04-15T12:41:23Z</time>
      </trkpt>
      <trkpt lat="45.57003" lon="5.79494">
        <ele>383.6</ele>
        <time>2022-04-15T12:41:24Z</time>
      </trkpt>
      <trkpt lat="45.57003" lon="5.79494">
        <ele>383.6</ele>
        <time>2022-04-15T12:41:25Z</time>
      </trkpt>
      <trkpt lat="45.57003" lon="5.79494">
        <ele>383.6</ele>
        <time>2022-04-15T12:41:26Z</time>
      </trkpt>
      <trkpt lat="45.57003" lon="5.79494">
        <ele>383.6</ele>
        <time>2022-04-15T12:41:27Z</time>
      </trkpt>
      <trkpt lat="45.57003" lon="5.79494">
        <ele>383.6</ele>
        <time>2022-04-15T12:41:28Z</time>
      </trkpt>
      <trkpt lat="45.57003" lon="5.79494">
        <ele>383.6</ele>
        <time>2022-04-15T12:41:29Z</time>
      </trkpt>
      <trkpt lat="45.57003" lon="5.79494">
        <ele>383.6</ele>
        <time>2022-04-15T12:41:30Z</time>
      </trkpt>
      <trkpt lat="45.57003" lon="5.79494">
        <ele>383.6</ele>
        <time>2022-04-15T12:41:31Z</time>
      </trkpt>
      <trkpt lat="45.57003" lon="5.79494">
        <ele>383.6</ele>
        <time>2022-04-15T12:41:32Z</time>
      </trkpt>
      <trkpt lat="45.57003" lon="5.79494">
        <ele>383.6</ele>
        <time>2022-04-15T12:41:33Z</time>
      </trkpt>
      <trkpt lat="45.57003" lon="5.79494">
        <ele>383.6</ele>
        <time>2022-04-15T12:41:34Z</time>
      </trkpt>
      <trkpt lat="45.57003" lon="5.79494">
        <ele>383.6</ele>
        <time>2022-04-15T12:41:35Z</time>
      </trkpt>
      <trkpt lat="45.57003" lon="5.79494">
        <ele>383.6</ele>
        <time>2022-04-15T12:41:36Z</time>
      </trkpt>
      <trkpt lat="45.57003" lon="5.79494">
        <ele>383.6</ele>
        <time>2022-04-15T12:41:37Z</time>
      </trkpt>
      <trkpt lat="45.57003" lon="5.79494">
        <ele>383.6</ele>
        <time>2022-04-15T12:41:38Z</time>
      </trkpt>
      <trkpt lat="45.57003" lon="5.79494">
        <ele>383.6</ele>
        <time>2022-04-15T12:41:39Z</time>
      </trkpt>
      <trkpt lat="45.57003" lon="5.79494">
        <ele>383.6</ele>
        <time>2022-04-15T12:41:40Z</time>
      </trkpt>
      <trkpt lat="45.57003" lon="5.79494">
        <ele>383.6</ele>
        <time>2022-04-15T12:41:41Z</time>
      </trkpt>
      <trkpt lat="45.57003" lon="5.79494">
        <ele>383.6</ele>
        <time>2022-04-15T12:41:42Z</time>
      </trkpt>
      <trkpt lat="45.57003" lon="5.79494">
        <ele>383.6</ele>
        <time>2022-04-15T12:41:43Z</time>
      </trkpt>
      <trkpt lat="45.57003" lon="5.79494">
        <ele>383.6</ele>
        <time>2022-04-15T12:41:44Z</time>
      </trkpt>
      <trkpt lat="45.57003" lon="5.79494">
        <ele>383.6</ele>
        <time>2022-04-15T12:41:45Z</time>
      </trkpt>
      <trkpt lat="45.57003" lon="5.79494">
        <ele>383.6</ele>
        <time>2022-04-15T12:41:46Z</time>
      </trkpt>
      <trkpt lat="45.57003" lon="5.79494">
        <ele>383.6</ele>
        <time>2022-04-15T12:41:47Z</time>
      </trkpt>
      <trkpt lat="45.57003" lon="5.79494">
        <ele>383.6</ele>
        <time>2022-04-15T12:41:48Z</time>
      </trkpt>
      <trkpt lat="45.57003" lon="5.79494">
        <ele>383.6</ele>
        <time>2022-04-15T12:41:49Z</time>
      </trkpt>
      <trkpt lat="45.57003" lon="5.79494">
        <ele>383.6</ele>
        <time>2022-04-15T12:41:50Z</time>
      </trkpt>
      <trkpt lat="45.57003" lon="5.79494">
        <ele>383.6</ele>
        <time>2022-04-15T12:41:51Z</time>
      </trkpt>
      <trkpt lat="45.57003" lon="5.79494">
        <ele>383.6</ele>
        <time>2022-04-15T12:41:52Z</time>
      </trkpt>
      <trkpt lat="45.57003" lon="5.79494">
        <ele>383.6</ele>
        <time>2022-04-15T12:41:53Z</time>
      </trkpt>
      <trkpt lat="45.57003" lon="5.79494">
        <ele>383.6</ele>
        <time>2022-04-15T12:41:54Z</time>
      </trkpt>
      <trkpt lat="45.57003" lon="5.79494">
        <ele>383.6</ele>
        <time>2022-04-15T12:41:55Z</time>
      </trkpt>
      <trkpt lat="45.57003" lon="5.79494">
        <ele>383.6</ele>
        <time>2022-04-15T12:41:56Z</time>
      </trkpt>
      <trkpt lat="45.57003" lon="5.79494">
        <ele>383.6</ele>
        <time>2022-04-15T12:41:57Z</time>
      </trkpt>
      <trkpt lat="45.57003" lon="5.79494">
        <ele>383.6</ele>
        <time>2022-04-15T12:41:58Z</time>
      </trkpt>
      <trkpt lat="45.57003" lon="5.79494">
        <ele>383.6</ele>
        <time>2022-04-15T12:41:59Z</time>
      </trkpt>
      <trkpt lat="45.57003" lon="5.79494">
        <ele>383.6</ele>
        <time>2022-04-15T12:42:00Z</time>
      </trkpt>
      <trkpt lat="45.57003" lon="5.79494">
        <ele>383.6</ele>
        <time>2022-04-15T12:42:01Z</time>
      </trkpt>
      <trkpt lat="45.57003" lon="5.79494">
        <ele>383.6</ele>
        <time>2022-04-15T12:42:02Z</time>
      </trkpt>
      <trkpt lat="45.57003" lon="5.79494">
        <ele>383.6</ele>
        <time>2022-04-15T12:42:03Z</time>
      </trkpt>
      <trkpt lat="45.57003" lon="5.79494">
        <ele>383.6</ele>
        <time>2022-04-15T12:42:04Z</time>
      </trkpt>
      <trkpt lat="45.57003" lon="5.79494">
        <ele>383.6</ele>
        <time>2022-04-15T12:42:05Z</time>
      </trkpt>
      <trkpt lat="45.57003" lon="5.79494">
        <ele>383.6</ele>
        <time>2022-04-15T12:42:06Z</time>
      </trkpt>
      <trkpt lat="45.57003" lon="5.79494">
        <ele>383.6</ele>
        <time>2022-04-15T12:42:07Z</time>
      </trkpt>
      <trkpt lat="45.57003" lon="5.79494">
        <ele>383.6</ele>
        <time>2022-04-15T12:42:08Z</time>
      </trkpt>
      <trkpt lat="45.57003" lon="5.79494">
        <ele>383.6</ele>
        <time>2022-04-15T12:42:09Z</time>
      </trkpt>
      <trkpt lat="45.57004" lon="5.79494">
        <ele>383.6</ele>
        <time>2022-04-15T12:42:10Z</time>
      </trkpt>
      <trkpt lat="45.57004" lon="5.79494">
        <ele>383.6</ele>
        <time>2022-04-15T12:42:11Z</time>
      </trkpt>
      <trkpt lat="45.57004" lon="5.79494">
        <ele>383.6</ele>
        <time>2022-04-15T12:42:12Z</time>
      </trkpt>
      <trkpt lat="45.57004" lon="5.79494">
        <ele>383.6</ele>
        <time>2022-04-15T12:42:13Z</time>
      </trkpt>
      <trkpt lat="45.57004" lon="5.79494">
        <ele>383.6</ele>
        <time>2022-04-15T12:42:14Z</time>
      </trkpt>
      <trkpt lat="45.57004" lon="5.79494">
        <ele>383.6</ele>
        <time>2022-04-15T12:42:15Z</time>
      </trkpt>
      <trkpt lat="45.57004" lon="5.79494">
        <ele>383.6</ele>
        <time>2022-04-15T12:42:16Z</time>
      </trkpt>
      <trkpt lat="45.57004" lon="5.79494">
        <ele>383.6</ele>
        <time>2022-04-15T12:42:17Z</time>
      </trkpt>
      <trkpt lat="45.57004" lon="5.79494">
        <ele>383.6</ele>
        <time>2022-04-15T12:42:18Z</time>
      </trkpt>
      <trkpt lat="45.57004" lon="5.79494">
        <ele>383.6</ele>
        <time>2022-04-15T12:42:19Z</time>
      </trkpt>
      <trkpt lat="45.57004" lon="5.79494">
        <ele>383.6</ele>
        <time>2022-04-15T12:42:20Z</time>
      </trkpt>
      <trkpt lat="45.57004" lon="5.79494">
        <ele>383.6</ele>
        <time>2022-04-15T12:42:21Z</time>
      </trkpt>
      <trkpt lat="45.57004" lon="5.79494">
        <ele>383.6</ele>
        <time>2022-04-15T12:42:22Z</time>
      </trkpt>
      <trkpt lat="45.57004" lon="5.79494">
        <ele>383.6</ele>
        <time>2022-04-15T12:42:23Z</time>
      </trkpt>
      <trkpt lat="45.57004" lon="5.79494">
        <ele>383.6</ele>
        <time>2022-04-15T12:42:24Z</time>
      </trkpt>
      <trkpt lat="45.57004" lon="5.79494">
        <ele>383.6</ele>
        <time>2022-04-15T12:42:25Z</time>
      </trkpt>
      <trkpt lat="45.57004" lon="5.79494">
        <ele>383.6</ele>
        <time>2022-04-15T12:42:26Z</time>
      </trkpt>
      <trkpt lat="45.57004" lon="5.79494">
        <ele>383.6</ele>
        <time>2022-04-15T12:42:27Z</time>
      </trkpt>
      <trkpt lat="45.57004" lon="5.79494">
        <ele>383.6</ele>
        <time>2022-04-15T12:42:28Z</time>
      </trkpt>
      <trkpt lat="45.57004" lon="5.79494">
        <ele>383.6</ele>
        <time>2022-04-15T12:42:29Z</time>
      </trkpt>
      <trkpt lat="45.57004" lon="5.79494">
        <ele>383.6</ele>
        <time>2022-04-15T12:42:30Z</time>
      </trkpt>
      <trkpt lat="45.57004" lon="5.79494">
        <ele>383.6</ele>
        <time>2022-04-15T12:42:31Z</time>
      </trkpt>
      <trkpt lat="45.57004" lon="5.79494">
        <ele>383.6</ele>
        <time>2022-04-15T12:42:32Z</time>
      </trkpt>
      <trkpt lat="45.57004" lon="5.79494">
        <ele>383.6</ele>
        <time>2022-04-15T12:42:33Z</time>
      </trkpt>
      <trkpt lat="45.57004" lon="5.79494">
        <ele>383.6</ele>
        <time>2022-04-15T12:42:34Z</time>
      </trkpt>
      <trkpt lat="45.57004" lon="5.79494">
        <ele>383.6</ele>
        <time>2022-04-15T12:42:35Z</time>
      </trkpt>
      <trkpt lat="45.57004" lon="5.79494">
        <ele>383.6</ele>
        <time>2022-04-15T12:42:36Z</time>
      </trkpt>
      <trkpt lat="45.57004" lon="5.79494">
        <ele>383.6</ele>
        <time>2022-04-15T12:42:37Z</time>
      </trkpt>
      <trkpt lat="45.57004" lon="5.79494">
        <ele>383.6</ele>
        <time>2022-04-15T12:42:38Z</time>
      </trkpt>
      <trkpt lat="45.57004" lon="5.79494">
        <ele>383.6</ele>
        <time>2022-04-15T12:42:39Z</time>
      </trkpt>
      <trkpt lat="45.57004" lon="5.79494">
        <ele>383.6</ele>
        <time>2022-04-15T12:42:40Z</time>
      </trkpt>
      <trkpt lat="45.57004" lon="5.79494">
        <ele>383.6</ele>
        <time>2022-04-15T12:42:41Z</time>
      </trkpt>
      <trkpt lat="45.57004" lon="5.79494">
        <ele>383.6</ele>
        <time>2022-04-15T12:42:42Z</time>
      </trkpt>
      <trkpt lat="45.57004" lon="5.79494">
        <ele>383.6</ele>
        <time>2022-04-15T12:42:43Z</time>
      </trkpt>
      <trkpt lat="45.57004" lon="5.79494">
        <ele>383.6</ele>
        <time>2022-04-15T12:42:44Z</time>
      </trkpt>
      <trkpt lat="45.57004" lon="5.79494">
        <ele>383.6</ele>
        <time>2022-04-15T12:42:45Z</time>
      </trkpt>
      <trkpt lat="45.57004" lon="5.79494">
        <ele>383.6</ele>
        <time>2022-04-15T12:42:46Z</time>
      </trkpt>
      <trkpt lat="45.57004" lon="5.79494">
        <ele>383.6</ele>
        <time>2022-04-15T12:42:47Z</time>
      </trkpt>
      <trkpt lat="45.57004" lon="5.79494">
        <ele>383.6</ele>
        <time>2022-04-15T12:42:48Z</time>
      </trkpt>
      <trkpt lat="45.57004" lon="5.79494">
        <ele>383.6</ele>
        <time>2022-04-15T12:42:49Z</time>
      </trkpt>
      <trkpt lat="45.57004" lon="5.79494">
        <ele>383.6</ele>
        <time>2022-04-15T12:42:50Z</time>
      </trkpt>
      <trkpt lat="45.57004" lon="5.79494">
        <ele>383.6</ele>
        <time>2022-04-15T12:42:51Z</time>
      </trkpt>
      <trkpt lat="45.57004" lon="5.79494">
        <ele>383.6</ele>
        <time>2022-04-15T12:42:52Z</time>
      </trkpt>
      <trkpt lat="45.57004" lon="5.79494">
        <ele>383.6</ele>
        <time>2022-04-15T12:42:53Z</time>
      </trkpt>
      <trkpt lat="45.57004" lon="5.79494">
        <ele>383.6</ele>
        <time>2022-04-15T12:42:54Z</time>
      </trkpt>
      <trkpt lat="45.57004" lon="5.79494">
        <ele>383.6</ele>
        <time>2022-04-15T12:42:55Z</time>
      </trkpt>
      <trkpt lat="45.57004" lon="5.79494">
        <ele>383.6</ele>
        <time>2022-04-15T12:42:56Z</time>
      </trkpt>
      <trkpt lat="45.57004" lon="5.79494">
        <ele>383.6</ele>
        <time>2022-04-15T12:42:57Z</time>
      </trkpt>
      <trkpt lat="45.57004" lon="5.79494">
        <ele>383.6</ele>
        <time>2022-04-15T12:42:58Z</time>
      </trkpt>
      <trkpt lat="45.57004" lon="5.79494">
        <ele>383.6</ele>
        <time>2022-04-15T12:42:59Z</time>
      </trkpt>
      <trkpt lat="45.57004" lon="5.79494">
        <ele>383.6</ele>
        <time>2022-04-15T12:43:00Z</time>
      </trkpt>
      <trkpt lat="45.57004" lon="5.79494">
        <ele>383.6</ele>
        <time>2022-04-15T12:43:01Z</time>
      </trkpt>
      <trkpt lat="45.57004" lon="5.79494">
        <ele>383.6</ele>
        <time>2022-04-15T12:43:02Z</time>
      </trkpt>
      <trkpt lat="45.57004" lon="5.79494">
        <ele>383.6</ele>
        <time>2022-04-15T12:43:03Z</time>
      </trkpt>
      <trkpt lat="45.57004" lon="5.79494">
        <ele>383.6</ele>
        <time>2022-04-15T12:43:04Z</time>
      </trkpt>
      <trkpt lat="45.57004" lon="5.79494">
        <ele>383.6</ele>
        <time>2022-04-15T12:43:05Z</time>
      </trkpt>
      <trkpt lat="45.57004" lon="5.79494">
        <ele>383.6</ele>
        <time>2022-04-15T12:43:06Z</time>
      </trkpt>
      <trkpt lat="45.57004" lon="5.79494">
        <ele>383.6</ele>
        <time>2022-04-15T12:43:07Z</time>
      </trkpt>
      <trkpt lat="45.57004" lon="5.79494">
        <ele>383.6</ele>
        <time>2022-04-15T12:43:08Z</time>
      </trkpt>
      <trkpt lat="45.57004" lon="5.79494">
        <ele>383.6</ele>
        <time>2022-04-15T12:43:09Z</time>
      </trkpt>
      <trkpt lat="45.57004" lon="5.79494">
        <ele>383.6</ele>
        <time>2022-04-15T12:43:10Z</time>
      </trkpt>
      <trkpt lat="45.57004" lon="5.79494">
        <ele>383.6</ele>
        <time>2022-04-15T12:43:11Z</time>
      </trkpt>
      <trkpt lat="45.57004" lon="5.79494">
        <ele>383.6</ele>
        <time>2022-04-15T12:43:12Z</time>
      </trkpt>
      <trkpt lat="45.57004" lon="5.79494">
        <ele>383.6</ele>
        <time>2022-04-15T12:43:13Z</time>
      </trkpt>
      <trkpt lat="45.57004" lon="5.79494">
        <ele>383.6</ele>
        <time>2022-04-15T12:43:14Z</time>
      </trkpt>
      <trkpt lat="45.57004" lon="5.79494">
        <ele>383.6</ele>
        <time>2022-04-15T12:43:15Z</time>
      </trkpt>
      <trkpt lat="45.57004" lon="5.79494">
        <ele>383.6</ele>
        <time>2022-04-15T12:43:16Z</time>
      </trkpt>
      <trkpt lat="45.57004" lon="5.79494">
        <ele>383.6</ele>
        <time>2022-04-15T12:43:17Z</time>
      </trkpt>
      <trkpt lat="45.57004" lon="5.79494">
        <ele>383.6</ele>
        <time>2022-04-15T12:43:18Z</time>
      </trkpt>
      <trkpt lat="45.57004" lon="5.79494">
        <ele>383.6</ele>
        <time>2022-04-15T12:43:19Z</time>
      </trkpt>
      <trkpt lat="45.57004" lon="5.79494">
        <ele>383.6</ele>
        <time>2022-04-15T12:43:20Z</time>
      </trkpt>
      <trkpt lat="45.57004" lon="5.79494">
        <ele>383.6</ele>
        <time>2022-04-15T12:43:21Z</time>
      </trkpt>
      <trkpt lat="45.57004" lon="5.79494">
        <ele>383.6</ele>
        <time>2022-04-15T12:43:22Z</time>
      </trkpt>
      <trkpt lat="45.57004" lon="5.79494">
        <ele>383.6</ele>
        <time>2022-04-15T12:43:23Z</time>
      </trkpt>
      <trkpt lat="45.57004" lon="5.79494">
        <ele>383.6</ele>
        <time>2022-04-15T12:43:24Z</time>
      </trkpt>
      <trkpt lat="45.57004" lon="5.79494">
        <ele>383.6</ele>
        <time>2022-04-15T12:43:25Z</time>
      </trkpt>
      <trkpt lat="45.57004" lon="5.79494">
        <ele>383.6</ele>
        <time>2022-04-15T12:43:26Z</time>
      </trkpt>
      <trkpt lat="45.57004" lon="5.79494">
        <ele>383.6</ele>
        <time>2022-04-15T12:43:27Z</time>
      </trkpt>
      <trkpt lat="45.57004" lon="5.79494">
        <ele>383.6</ele>
        <time>2022-04-15T12:43:28Z</time>
      </trkpt>
      <trkpt lat="45.57004" lon="5.79494">
        <ele>383.6</ele>
        <time>2022-04-15T12:43:29Z</time>
      </trkpt>
      <trkpt lat="45.57004" lon="5.79494">
        <ele>383.6</ele>
        <time>2022-04-15T12:43:30Z</time>
      </trkpt>
      <trkpt lat="45.57004" lon="5.79494">
        <ele>383.6</ele>
        <time>2022-04-15T12:43:31Z</time>
      </trkpt>
      <trkpt lat="45.57004" lon="5.79494">
        <ele>383.6</ele>
        <time>2022-04-15T12:43:32Z</time>
      </trkpt>
      <trkpt lat="45.57004" lon="5.79494">
        <ele>383.6</ele>
        <time>2022-04-15T12:43:33Z</time>
      </trkpt>
      <trkpt lat="45.57004" lon="5.79494">
        <ele>383.6</ele>
        <time>2022-04-15T12:43:34Z</time>
      </trkpt>
      <trkpt lat="45.57004" lon="5.79494">
        <ele>383.6</ele>
        <time>2022-04-15T12:43:35Z</time>
      </trkpt>
      <trkpt lat="45.57004" lon="5.79494">
        <ele>383.6</ele>
        <time>2022-04-15T12:43:36Z</time>
      </trkpt>
      <trkpt lat="45.57004" lon="5.79494">
        <ele>383.6</ele>
        <time>2022-04-15T12:43:37Z</time>
      </trkpt>
      <trkpt lat="45.57004" lon="5.79494">
        <ele>383.6</ele>
        <time>2022-04-15T12:43:38Z</time>
      </trkpt>
      <trkpt lat="45.57004" lon="5.79494">
        <ele>383.6</ele>
        <time>2022-04-15T12:43:39Z</time>
      </trkpt>
      <trkpt lat="45.57004" lon="5.79494">
        <ele>383.6</ele>
        <time>2022-04-15T12:43:40Z</time>
      </trkpt>
      <trkpt lat="45.57004" lon="5.79494">
        <ele>383.6</ele>
        <time>2022-04-15T12:43:41Z</time>
      </trkpt>
      <trkpt lat="45.57004" lon="5.79494">
        <ele>383.6</ele>
        <time>2022-04-15T12:43:42Z</time>
      </trkpt>
      <trkpt lat="45.57004" lon="5.79494">
        <ele>383.6</ele>
        <time>2022-04-15T12:43:43Z</time>
      </trkpt>
      <trkpt lat="45.57004" lon="5.79494">
        <ele>383.6</ele>
        <time>2022-04-15T12:43:44Z</time>
      </trkpt>
      <trkpt lat="45.57004" lon="5.79494">
        <ele>383.6</ele>
        <time>2022-04-15T12:43:45Z</time>
      </trkpt>
      <trkpt lat="45.57004" lon="5.79494">
        <ele>383.6</ele>
        <time>2022-04-15T12:43:46Z</time>
      </trkpt>
      <trkpt lat="45.57004" lon="5.79494">
        <ele>383.6</ele>
        <time>2022-04-15T12:43:47Z</time>
      </trkpt>
      <trkpt lat="45.57004" lon="5.79494">
        <ele>383.6</ele>
        <time>2022-04-15T12:43:48Z</time>
      </trkpt>
      <trkpt lat="45.57004" lon="5.79494">
        <ele>383.6</ele>
        <time>2022-04-15T12:43:49Z</time>
      </trkpt>
      <trkpt lat="45.57004" lon="5.79494">
        <ele>383.6</ele>
        <time>2022-04-15T12:43:50Z</time>
      </trkpt>
      <trkpt lat="45.57004" lon="5.79494">
        <ele>383.6</ele>
        <time>2022-04-15T12:43:51Z</time>
      </trkpt>
      <trkpt lat="45.57004" lon="5.79494">
        <ele>383.6</ele>
        <time>2022-04-15T12:43:52Z</time>
      </trkpt>
      <trkpt lat="45.57004" lon="5.79494">
        <ele>383.6</ele>
        <time>2022-04-15T12:43:53Z</time>
      </trkpt>
      <trkpt lat="45.57004" lon="5.79494">
        <ele>383.6</ele>
        <time>2022-04-15T12:43:54Z</time>
      </trkpt>
      <trkpt lat="45.57004" lon="5.79494">
        <ele>383.6</ele>
        <time>2022-04-15T12:43:55Z</time>
      </trkpt>
      <trkpt lat="45.57004" lon="5.79494">
        <ele>383.6</ele>
        <time>2022-04-15T12:43:56Z</time>
      </trkpt>
      <trkpt lat="45.57004" lon="5.79494">
        <ele>383.6</ele>
        <time>2022-04-15T12:43:57Z</time>
      </trkpt>
      <trkpt lat="45.57004" lon="5.79494">
        <ele>383.6</ele>
        <time>2022-04-15T12:43:58Z</time>
      </trkpt>
      <trkpt lat="45.57004" lon="5.79494">
        <ele>383.6</ele>
        <time>2022-04-15T12:43:59Z</time>
      </trkpt>
      <trkpt lat="45.57004" lon="5.79494">
        <ele>383.6</ele>
        <time>2022-04-15T12:44:00Z</time>
      </trkpt>
      <trkpt lat="45.57004" lon="5.79494">
        <ele>383.6</ele>
        <time>2022-04-15T12:44:01Z</time>
      </trkpt>
      <trkpt lat="45.57004" lon="5.79494">
        <ele>383.6</ele>
        <time>2022-04-15T12:44:02Z</time>
      </trkpt>
      <trkpt lat="45.57004" lon="5.79494">
        <ele>383.6</ele>
        <time>2022-04-15T12:44:03Z</time>
      </trkpt>
      <trkpt lat="45.57004" lon="5.79494">
        <ele>383.6</ele>
        <time>2022-04-15T12:44:04Z</time>
      </trkpt>
      <trkpt lat="45.57004" lon="5.79494">
        <ele>383.6</ele>
        <time>2022-04-15T12:44:05Z</time>
      </trkpt>
      <trkpt lat="45.57004" lon="5.79494">
        <ele>383.6</ele>
        <time>2022-04-15T12:44:06Z</time>
      </trkpt>
      <trkpt lat="45.57004" lon="5.79494">
        <ele>383.6</ele>
        <time>2022-04-15T12:44:07Z</time>
      </trkpt>
      <trkpt lat="45.57004" lon="5.79494">
        <ele>383.6</ele>
        <time>2022-04-15T12:44:08Z</time>
      </trkpt>
      <trkpt lat="45.57004" lon="5.79494">
        <ele>383.6</ele>
        <time>2022-04-15T12:44:09Z</time>
      </trkpt>
      <trkpt lat="45.57004" lon="5.79494">
        <ele>383.6</ele>
        <time>2022-04-15T12:44:10Z</time>
      </trkpt>
      <trkpt lat="45.57004" lon="5.79494">
        <ele>383.6</ele>
        <time>2022-04-15T12:44:11Z</time>
      </trkpt>
      <trkpt lat="45.57004" lon="5.79494">
        <ele>383.6</ele>
        <time>2022-04-15T12:44:12Z</time>
      </trkpt>
      <trkpt lat="45.57004" lon="5.79494">
        <ele>383.6</ele>
        <time>2022-04-15T12:44:13Z</time>
      </trkpt>
      <trkpt lat="45.57004" lon="5.79494">
        <ele>383.6</ele>
        <time>2022-04-15T12:44:14Z</time>
      </trkpt>
      <trkpt lat="45.57004" lon="5.79494">
        <ele>383.6</ele>
        <time>2022-04-15T12:44:15Z</time>
      </trkpt>
      <trkpt lat="45.57004" lon="5.79494">
        <ele>383.6</ele>
        <time>2022-04-15T12:44:16Z</time>
      </trkpt>
      <trkpt lat="45.57004" lon="5.79494">
        <ele>383.6</ele>
        <time>2022-04-15T12:44:17Z</time>
      </trkpt>
      <trkpt lat="45.57004" lon="5.79494">
        <ele>383.6</ele>
        <time>2022-04-15T12:44:18Z</time>
      </trkpt>
      <trkpt lat="45.57004" lon="5.79494">
        <ele>383.6</ele>
        <time>2022-04-15T12:44:19Z</time>
      </trkpt>
      <trkpt lat="45.57004" lon="5.79494">
        <ele>383.6</ele>
        <time>2022-04-15T12:44:20Z</time>
      </trkpt>
      <trkpt lat="45.57004" lon="5.79494">
        <ele>383.6</ele>
        <time>2022-04-15T12:44:21Z</time>
      </trkpt>
      <trkpt lat="45.57004" lon="5.79494">
        <ele>383.6</ele>
        <time>2022-04-15T12:44:22Z</time>
      </trkpt>
      <trkpt lat="45.57004" lon="5.79494">
        <ele>383.6</ele>
        <time>2022-04-15T12:44:23Z</time>
      </trkpt>
      <trkpt lat="45.57004" lon="5.79494">
        <ele>383.6</ele>
        <time>2022-04-15T12:44:24Z</time>
      </trkpt>
      <trkpt lat="45.57004" lon="5.79494">
        <ele>383.6</ele>
        <time>2022-04-15T12:44:25Z</time>
      </trkpt>
      <trkpt lat="45.57004" lon="5.79494">
        <ele>383.6</ele>
        <time>2022-04-15T12:44:26Z</time>
      </trkpt>
      <trkpt lat="45.57004" lon="5.79494">
        <ele>383.6</ele>
        <time>2022-04-15T12:44:27Z</time>
      </trkpt>
      <trkpt lat="45.57004" lon="5.79494">
        <ele>383.6</ele>
        <time>2022-04-15T12:44:28Z</time>
      </trkpt>
      <trkpt lat="45.57004" lon="5.79494">
        <ele>383.6</ele>
        <time>2022-04-15T12:44:29Z</time>
      </trkpt>
      <trkpt lat="45.57004" lon="5.79494">
        <ele>383.6</ele>
        <time>2022-04-15T12:44:30Z</time>
      </trkpt>
      <trkpt lat="45.57004" lon="5.79494">
        <ele>383.6</ele>
        <time>2022-04-15T12:44:31Z</time>
      </trkpt>
      <trkpt lat="45.57004" lon="5.79494">
        <ele>383.6</ele>
        <time>2022-04-15T12:44:32Z</time>
      </trkpt>
      <trkpt lat="45.57004" lon="5.79494">
        <ele>383.6</ele>
        <time>2022-04-15T12:44:33Z</time>
      </trkpt>
      <trkpt lat="45.57004" lon="5.79494">
        <ele>383.6</ele>
        <time>2022-04-15T12:44:34Z</time>
      </trkpt>
      <trkpt lat="45.57004" lon="5.79494">
        <ele>383.6</ele>
        <time>2022-04-15T12:44:35Z</time>
      </trkpt>
      <trkpt lat="45.57004" lon="5.79494">
        <ele>383.6</ele>
        <time>2022-04-15T12:44:36Z</time>
      </trkpt>
      <trkpt lat="45.57004" lon="5.79494">
        <ele>383.6</ele>
        <time>2022-04-15T12:44:37Z</time>
      </trkpt>
      <trkpt lat="45.57004" lon="5.79494">
        <ele>383.6</ele>
        <time>2022-04-15T12:44:38Z</time>
      </trkpt>
      <trkpt lat="45.57004" lon="5.79494">
        <ele>383.6</ele>
        <time>2022-04-15T12:44:39Z</time>
      </trkpt>
      <trkpt lat="45.57004" lon="5.79494">
        <ele>383.6</ele>
        <time>2022-04-15T12:44:40Z</time>
      </trkpt>
      <trkpt lat="45.57004" lon="5.79494">
        <ele>383.6</ele>
        <time>2022-04-15T12:44:41Z</time>
      </trkpt>
      <trkpt lat="45.57004" lon="5.79494">
        <ele>383.6</ele>
        <time>2022-04-15T12:44:42Z</time>
      </trkpt>
      <trkpt lat="45.57004" lon="5.79494">
        <ele>383.6</ele>
        <time>2022-04-15T12:44:43Z</time>
      </trkpt>
      <trkpt lat="45.57004" lon="5.79494">
        <ele>383.6</ele>
        <time>2022-04-15T12:44:44Z</time>
      </trkpt>
      <trkpt lat="45.57004" lon="5.79494">
        <ele>383.6</ele>
        <time>2022-04-15T12:44:45Z</time>
      </trkpt>
      <trkpt lat="45.57004" lon="5.79494">
        <ele>383.6</ele>
        <time>2022-04-15T12:44:46Z</time>
      </trkpt>
      <trkpt lat="45.57004" lon="5.79494">
        <ele>383.6</ele>
        <time>2022-04-15T12:44:47Z</time>
      </trkpt>
      <trkpt lat="45.57004" lon="5.79494">
        <ele>383.6</ele>
        <time>2022-04-15T12:44:48Z</time>
      </trkpt>
      <trkpt lat="45.57004" lon="5.79494">
        <ele>383.6</ele>
        <time>2022-04-15T12:44:49Z</time>
      </trkpt>
      <trkpt lat="45.57004" lon="5.79494">
        <ele>383.6</ele>
        <time>2022-04-15T12:44:50Z</time>
      </trkpt>
      <trkpt lat="45.57004" lon="5.79494">
        <ele>383.6</ele>
        <time>2022-04-15T12:44:51Z</time>
      </trkpt>
      <trkpt lat="45.57004" lon="5.79494">
        <ele>383.6</ele>
        <time>2022-04-15T12:44:52Z</time>
      </trkpt>
      <trkpt lat="45.57004" lon="5.79494">
        <ele>383.6</ele>
        <time>2022-04-15T12:44:53Z</time>
      </trkpt>
      <trkpt lat="45.57004" lon="5.79494">
        <ele>383.6</ele>
        <time>2022-04-15T12:44:54Z</time>
      </trkpt>
      <trkpt lat="45.57004" lon="5.79494">
        <ele>383.6</ele>
        <time>2022-04-15T12:44:55Z</time>
      </trkpt>
      <trkpt lat="45.57004" lon="5.79494">
        <ele>383.6</ele>
        <time>2022-04-15T12:44:56Z</time>
      </trkpt>
      <trkpt lat="45.57004" lon="5.79494">
        <ele>383.6</ele>
        <time>2022-04-15T12:44:57Z</time>
      </trkpt>
      <trkpt lat="45.57004" lon="5.79494">
        <ele>383.6</ele>
        <time>2022-04-15T12:44:58Z</time>
      </trkpt>
      <trkpt lat="45.57004" lon="5.79494">
        <ele>383.6</ele>
        <time>2022-04-15T12:44:59Z</time>
      </trkpt>
      <trkpt lat="45.57004" lon="5.79494">
        <ele>383.6</ele>
        <time>2022-04-15T12:45:00Z</time>
      </trkpt>
      <trkpt lat="45.57004" lon="5.79494">
        <ele>383.6</ele>
        <time>2022-04-15T12:45:01Z</time>
      </trkpt>
      <trkpt lat="45.57004" lon="5.79494">
        <ele>383.6</ele>
        <time>2022-04-15T12:45:02Z</time>
      </trkpt>
      <trkpt lat="45.57004" lon="5.79494">
        <ele>383.6</ele>
        <time>2022-04-15T12:45:03Z</time>
      </trkpt>
      <trkpt lat="45.57004" lon="5.79494">
        <ele>383.6</ele>
        <time>2022-04-15T12:45:04Z</time>
      </trkpt>
      <trkpt lat="45.57004" lon="5.79494">
        <ele>383.6</ele>
        <time>2022-04-15T12:45:05Z</time>
      </trkpt>
      <trkpt lat="45.57004" lon="5.79494">
        <ele>383.6</ele>
        <time>2022-04-15T12:45:06Z</time>
      </trkpt>
      <trkpt lat="45.57004" lon="5.79494">
        <ele>383.6</ele>
        <time>2022-04-15T12:45:07Z</time>
      </trkpt>
      <trkpt lat="45.57004" lon="5.79494">
        <ele>383.6</ele>
        <time>2022-04-15T12:45:08Z</time>
      </trkpt>
      <trkpt lat="45.57004" lon="5.79494">
        <ele>383.6</ele>
        <time>2022-04-15T12:45:09Z</time>
      </trkpt>
      <trkpt lat="45.57004" lon="5.79494">
        <ele>383.6</ele>
        <time>2022-04-15T12:45:10Z</time>
      </trkpt>
      <trkpt lat="45.57004" lon="5.79494">
        <ele>383.6</ele>
        <time>2022-04-15T12:45:11Z</time>
      </trkpt>
      <trkpt lat="45.57004" lon="5.79494">
        <ele>383.6</ele>
        <time>2022-04-15T12:45:12Z</time>
      </trkpt>
      <trkpt lat="45.57004" lon="5.79494">
        <ele>383.6</ele>
        <time>2022-04-15T12:45:13Z</time>
      </trkpt>
      <trkpt lat="45.57004" lon="5.79494">
        <ele>383.6</ele>
        <time>2022-04-15T12:45:14Z</time>
      </trkpt>
      <trkpt lat="45.57004" lon="5.79494">
        <ele>383.6</ele>
        <time>2022-04-15T12:45:15Z</time>
      </trkpt>
      <trkpt lat="45.57004" lon="5.79494">
        <ele>383.6</ele>
        <time>2022-04-15T12:45:16Z</time>
      </trkpt>
      <trkpt lat="45.57004" lon="5.79494">
        <ele>383.6</ele>
        <time>2022-04-15T12:45:17Z</time>
      </trkpt>
      <trkpt lat="45.57004" lon="5.79494">
        <ele>383.6</ele>
        <time>2022-04-15T12:45:18Z</time>
      </trkpt>
      <trkpt lat="45.57004" lon="5.79494">
        <ele>383.6</ele>
        <time>2022-04-15T12:45:19Z</time>
      </trkpt>
      <trkpt lat="45.57004" lon="5.79494">
        <ele>383.6</ele>
        <time>2022-04-15T12:45:20Z</time>
      </trkpt>
      <trkpt lat="45.57004" lon="5.79494">
        <ele>383.6</ele>
        <time>2022-04-15T12:45:21Z</time>
      </trkpt>
      <trkpt lat="45.57004" lon="5.79494">
        <ele>383.6</ele>
        <time>2022-04-15T12:45:22Z</time>
      </trkpt>
      <trkpt lat="45.57004" lon="5.79494">
        <ele>383.6</ele>
        <time>2022-04-15T12:45:23Z</time>
      </trkpt>
      <trkpt lat="45.57004" lon="5.79494">
        <ele>383.6</ele>
        <time>2022-04-15T12:45:24Z</time>
      </trkpt>
      <trkpt lat="45.57004" lon="5.79494">
        <ele>383.6</ele>
        <time>2022-04-15T12:45:25Z</time>
      </trkpt>
      <trkpt lat="45.57004" lon="5.79494">
        <ele>383.6</ele>
        <time>2022-04-15T12:45:26Z</time>
      </trkpt>
      <trkpt lat="45.57004" lon="5.79494">
        <ele>383.6</ele>
        <time>2022-04-15T12:45:27Z</time>
      </trkpt>
      <trkpt lat="45.57004" lon="5.79494">
        <ele>383.6</ele>
        <time>2022-04-15T12:45:28Z</time>
      </trkpt>
      <trkpt lat="45.57004" lon="5.79494">
        <ele>383.6</ele>
        <time>2022-04-15T12:45:29Z</time>
      </trkpt>
      <trkpt lat="45.57004" lon="5.79494">
        <ele>383.6</ele>
        <time>2022-04-15T12:45:30Z</time>
      </trkpt>
      <trkpt lat="45.57004" lon="5.79494">
        <ele>383.6</ele>
        <time>2022-04-15T12:45:31Z</time>
      </trkpt>
      <trkpt lat="45.57004" lon="5.79494">
        <ele>383.6</ele>
        <time>2022-04-15T12:45:32Z</time>
      </trkpt>
      <trkpt lat="45.57004" lon="5.79494">
        <ele>383.6</ele>
        <time>2022-04-15T12:45:33Z</time>
      </trkpt>
      <trkpt lat="45.57004" lon="5.79494">
        <ele>383.6</ele>
        <time>2022-04-15T12:45:34Z</time>
      </trkpt>
      <trkpt lat="45.57004" lon="5.79494">
        <ele>383.6</ele>
        <time>2022-04-15T12:45:35Z</time>
      </trkpt>
      <trkpt lat="45.57004" lon="5.79494">
        <ele>383.6</ele>
        <time>2022-04-15T12:45:36Z</time>
      </trkpt>
      <trkpt lat="45.57004" lon="5.79494">
        <ele>383.6</ele>
        <time>2022-04-15T12:45:37Z</time>
      </trkpt>
      <trkpt lat="45.57004" lon="5.79494">
        <ele>383.6</ele>
        <time>2022-04-15T12:45:38Z</time>
      </trkpt>
      <trkpt lat="45.57004" lon="5.79494">
        <ele>383.6</ele>
        <time>2022-04-15T12:45:39Z</time>
      </trkpt>
      <trkpt lat="45.57004" lon="5.79494">
        <ele>383.6</ele>
        <time>2022-04-15T12:45:40Z</time>
      </trkpt>
      <trkpt lat="45.57004" lon="5.79494">
        <ele>383.6</ele>
        <time>2022-04-15T12:45:41Z</time>
      </trkpt>
      <trkpt lat="45.57004" lon="5.79494">
        <ele>383.6</ele>
        <time>2022-04-15T12:45:42Z</time>
      </trkpt>
      <trkpt lat="45.57004" lon="5.79494">
        <ele>383.6</ele>
        <time>2022-04-15T12:45:43Z</time>
      </trkpt>
      <trkpt lat="45.57004" lon="5.79494">
        <ele>383.6</ele>
        <time>2022-04-15T12:45:44Z</time>
      </trkpt>
      <trkpt lat="45.57004" lon="5.79494">
        <ele>383.6</ele>
        <time>2022-04-15T12:45:45Z</time>
      </trkpt>
      <trkpt lat="45.57004" lon="5.79494">
        <ele>383.6</ele>
        <time>2022-04-15T12:45:46Z</time>
      </trkpt>
      <trkpt lat="45.57004" lon="5.79494">
        <ele>383.6</ele>
        <time>2022-04-15T12:45:47Z</time>
      </trkpt>
      <trkpt lat="45.57004" lon="5.79494">
        <ele>383.6</ele>
        <time>2022-04-15T12:45:48Z</time>
      </trkpt>
      <trkpt lat="45.57004" lon="5.79494">
        <ele>383.6</ele>
        <time>2022-04-15T12:45:49Z</time>
      </trkpt>
      <trkpt lat="45.57004" lon="5.79494">
        <ele>383.6</ele>
        <time>2022-04-15T12:45:50Z</time>
      </trkpt>
      <trkpt lat="45.57004" lon="5.79494">
        <ele>383.6</ele>
        <time>2022-04-15T12:45:51Z</time>
      </trkpt>
      <trkpt lat="45.57004" lon="5.79494">
        <ele>383.6</ele>
        <time>2022-04-15T12:45:52Z</time>
      </trkpt>
      <trkpt lat="45.57004" lon="5.79494">
        <ele>383.6</ele>
        <time>2022-04-15T12:45:53Z</time>
      </trkpt>
      <trkpt lat="45.57004" lon="5.79494">
        <ele>383.6</ele>
        <time>2022-04-15T12:45:54Z</time>
      </trkpt>
      <trkpt lat="45.57004" lon="5.79494">
        <ele>383.6</ele>
        <time>2022-04-15T12:45:55Z</time>
      </trkpt>
      <trkpt lat="45.57004" lon="5.79494">
        <ele>383.6</ele>
        <time>2022-04-15T12:45:56Z</time>
      </trkpt>
      <trkpt lat="45.57004" lon="5.79494">
        <ele>383.6</ele>
        <time>2022-04-15T12:45:57Z</time>
      </trkpt>
      <trkpt lat="45.57004" lon="5.79494">
        <ele>383.6</ele>
        <time>2022-04-15T12:45:58Z</time>
      </trkpt>
      <trkpt lat="45.57003" lon="5.79493">
        <ele>383.6</ele>
        <time>2022-04-15T12:45:59Z</time>
      </trkpt>
      <trkpt lat="45.57002" lon="5.79492">
        <ele>383.6</ele>
        <time>2022-04-15T12:46:00Z</time>
      </trkpt>
      <trkpt lat="45.57002" lon="5.79491">
        <ele>383.6</ele>
        <time>2022-04-15T12:46:01Z</time>
      </trkpt>
      <trkpt lat="45.57002" lon="5.79491">
        <ele>383.6</ele>
        <time>2022-04-15T12:46:02Z</time>
      </trkpt>
      <trkpt lat="45.57002" lon="5.7949">
        <ele>383.6</ele>
        <time>2022-04-15T12:46:03Z</time>
      </trkpt>
      <trkpt lat="45.57004" lon="5.7949">
        <ele>383.6</ele>
        <time>2022-04-15T12:46:05Z</time>
      </trkpt>
      <trkpt lat="45.57003" lon="5.79486">
        <ele>383.7</ele>
        <time>2022-04-15T12:46:07Z</time>
      </trkpt>
      <trkpt lat="45.57001" lon="5.79485">
        <ele>383.7</ele>
        <time>2022-04-15T12:46:08Z</time>
      </trkpt>
      <trkpt lat="45.57001" lon="5.79484">
        <ele>383.7</ele>
        <time>2022-04-15T12:46:09Z</time>
      </trkpt>
      <trkpt lat="45.57001" lon="5.79484">
        <ele>383.7</ele>
        <time>2022-04-15T12:46:10Z</time>
      </trkpt>
      <trkpt lat="45.57001" lon="5.79483">
        <ele>383.7</ele>
        <time>2022-04-15T12:46:12Z</time>
      </trkpt>
      <trkpt lat="45.57001" lon="5.79483">
        <ele>383.7</ele>
        <time>2022-04-15T12:46:13Z</time>
      </trkpt>
      <trkpt lat="45.57002" lon="5.79483">
        <ele>383.7</ele>
        <time>2022-04-15T12:46:14Z</time>
      </trkpt>
      <trkpt lat="45.57002" lon="5.79482">
        <ele>383.7</ele>
        <time>2022-04-15T12:46:15Z</time>
      </trkpt>
      <trkpt lat="45.57002" lon="5.79482">
        <ele>383.7</ele>
        <time>2022-04-15T12:46:17Z</time>
      </trkpt>
      <trkpt lat="45.57002" lon="5.79482">
        <ele>383.7</ele>
        <time>2022-04-15T12:46:18Z</time>
      </trkpt>
      <trkpt lat="45.57002" lon="5.79481">
        <ele>383.7</ele>
        <time>2022-04-15T12:46:19Z</time>
      </trkpt>
      <trkpt lat="45.57002" lon="5.79481">
        <ele>383.7</ele>
        <time>2022-04-15T12:46:20Z</time>
      </trkpt>
      <trkpt lat="45.57002" lon="5.79481">
        <ele>383.7</ele>
        <time>2022-04-15T12:46:22Z</time>
      </trkpt>
      <trkpt lat="45.57002" lon="5.79481">
        <ele>383.7</ele>
        <time>2022-04-15T12:46:23Z</time>
      </trkpt>
      <trkpt lat="45.57002" lon="5.79481">
        <ele>383.7</ele>
        <time>2022-04-15T12:46:24Z</time>
      </trkpt>
      <trkpt lat="45.57002" lon="5.79481">
        <ele>383.7</ele>
        <time>2022-04-15T12:46:25Z</time>
      </trkpt>
      <trkpt lat="45.57002" lon="5.79481">
        <ele>383.7</ele>
        <time>2022-04-15T12:46:26Z</time>
      </trkpt>
      <trkpt lat="45.57002" lon="5.79481">
        <ele>383.7</ele>
        <time>2022-04-15T12:46:27Z</time>
      </trkpt>
      <trkpt lat="45.57002" lon="5.79481">
        <ele>383.7</ele>
        <time>2022-04-15T12:46:28Z</time>
      </trkpt>
      <trkpt lat="45.57002" lon="5.79481">
        <ele>383.7</ele>
        <time>2022-04-15T12:46:29Z</time>
      </trkpt>
      <trkpt lat="45.57002" lon="5.79481">
        <ele>383.7</ele>
        <time>2022-04-15T12:46:30Z</time>
      </trkpt>
      <trkpt lat="45.57002" lon="5.79481">
        <ele>383.7</ele>
        <time>2022-04-15T12:46:31Z</time>
      </trkpt>
      <trkpt lat="45.57002" lon="5.79481">
        <ele>383.7</ele>
        <time>2022-04-15T12:46:32Z</time>
      </trkpt>
      <trkpt lat="45.57002" lon="5.79481">
        <ele>383.7</ele>
        <time>2022-04-15T12:46:33Z</time>
      </trkpt>
      <trkpt lat="45.57002" lon="5.79481">
        <ele>383.7</ele>
        <time>2022-04-15T12:46:34Z</time>
      </trkpt>
      <trkpt lat="45.57002" lon="5.79481">
        <ele>383.7</ele>
        <time>2022-04-15T12:46:35Z</time>
      </trkpt>
      <trkpt lat="45.57002" lon="5.79481">
        <ele>383.7</ele>
        <time>2022-04-15T12:46:36Z</time>
      </trkpt>
      <trkpt lat="45.57003" lon="5.79481">
        <ele>383.7</ele>
        <time>2022-04-15T12:46:37Z</time>
      </trkpt>
      <trkpt lat="45.57003" lon="5.79481">
        <ele>383.7</ele>
        <time>2022-04-15T12:46:38Z</time>
      </trkpt>
      <trkpt lat="45.57003" lon="5.7948">
        <ele>383.7</ele>
        <time>2022-04-15T12:46:40Z</time>
      </trkpt>
      <trkpt lat="45.57003" lon="5.7948">
        <ele>383.7</ele>
        <time>2022-04-15T12:46:42Z</time>
      </trkpt>
      <trkpt lat="45.57002" lon="5.79479">
        <ele>383.7</ele>
        <time>2022-04-15T12:46:44Z</time>
      </trkpt>
      <trkpt lat="45.57003" lon="5.79479">
        <ele>383.7</ele>
        <time>2022-04-15T12:46:45Z</time>
      </trkpt>
      <trkpt lat="45.57003" lon="5.79479">
        <ele>383.7</ele>
        <time>2022-04-15T12:46:46Z</time>
      </trkpt>
      <trkpt lat="45.57004" lon="5.79478">
        <ele>383.7</ele>
        <time>2022-04-15T12:46:47Z</time>
      </trkpt>
      <trkpt lat="45.57005" lon="5.79477">
        <ele>383.7</ele>
        <time>2022-04-15T12:46:48Z</time>
      </trkpt>
      <trkpt lat="45.57006" lon="5.79476">
        <ele>383.7</ele>
        <time>2022-04-15T12:46:50Z</time>
      </trkpt>
      <trkpt lat="45.57007" lon="5.79475">
        <ele>383.7</ele>
        <time>2022-04-15T12:46:51Z</time>
      </trkpt>
      <trkpt lat="45.57008" lon="5.79474">
        <ele>383.7</ele>
        <time>2022-04-15T12:46:52Z</time>
      </trkpt>
      <trkpt lat="45.5701" lon="5.79472">
        <ele>383.7</ele>
        <time>2022-04-15T12:46:53Z</time>
      </trkpt>
      <trkpt lat="45.57011" lon="5.79472">
        <ele>383.7</ele>
        <time>2022-04-15T12:46:54Z</time>
      </trkpt>
      <trkpt lat="45.57014" lon="5.79471">
        <ele>383.8</ele>
        <time>2022-04-15T12:46:55Z</time>
      </trkpt>
      <trkpt lat="45.57017" lon="5.7947">
        <ele>383.8</ele>
        <time>2022-04-15T12:46:57Z</time>
      </trkpt>
      <trkpt lat="45.57023" lon="5.79469">
        <ele>383.8</ele>
        <time>2022-04-15T12:46:58Z</time>
      </trkpt>
      <trkpt lat="45.57027" lon="5.79468">
        <ele>383.9</ele>
        <time>2022-04-15T12:47:00Z</time>
      </trkpt>
      <trkpt lat="45.57031" lon="5.79466">
        <ele>383.9</ele>
        <time>2022-04-15T12:47:01Z</time>
      </trkpt>
      <trkpt lat="45.57037" lon="5.79464">
        <ele>383.9</ele>
        <time>2022-04-15T12:47:02Z</time>
      </trkpt>
      <trkpt lat="45.57042" lon="5.79463">
        <ele>384</ele>
        <time>2022-04-15T12:47:04Z</time>
      </trkpt>
      <trkpt lat="45.57046" lon="5.79462">
        <ele>384</ele>
        <time>2022-04-15T12:47:05Z</time>
      </trkpt>
      <trkpt lat="45.57055" lon="5.79458">
        <ele>384</ele>
        <time>2022-04-15T12:47:07Z</time>
      </trkpt>
      <trkpt lat="45.57059" lon="5.79457">
        <ele>384</ele>
        <time>2022-04-15T12:47:09Z</time>
      </trkpt>
      <trkpt lat="45.57063" lon="5.79456">
        <ele>384</ele>
        <time>2022-04-15T12:47:10Z</time>
      </trkpt>
      <trkpt lat="45.57069" lon="5.79453">
        <ele>384.1</ele>
        <time>2022-04-15T12:47:12Z</time>
      </trkpt>
      <trkpt lat="45.57072" lon="5.79451">
        <ele>384.1</ele>
        <time>2022-04-15T12:47:13Z</time>
      </trkpt>
      <trkpt lat="45.57075" lon="5.79449">
        <ele>384.1</ele>
        <time>2022-04-15T12:47:14Z</time>
      </trkpt>
      <trkpt lat="45.57079" lon="5.79447">
        <ele>384.1</ele>
        <time>2022-04-15T12:47:15Z</time>
      </trkpt>
      <trkpt lat="45.57084" lon="5.79442">
        <ele>384.1</ele>
        <time>2022-04-15T12:47:17Z</time>
      </trkpt>
      <trkpt lat="45.5709" lon="5.79437">
        <ele>384.1</ele>
        <time>2022-04-15T12:47:19Z</time>
      </trkpt>
      <trkpt lat="45.57094" lon="5.79434">
        <ele>384</ele>
        <time>2022-04-15T12:47:20Z</time>
      </trkpt>
      <trkpt lat="45.57096" lon="5.79431">
        <ele>384</ele>
        <time>2022-04-15T12:47:21Z</time>
      </trkpt>
      <trkpt lat="45.57099" lon="5.79428">
        <ele>384</ele>
        <time>2022-04-15T12:47:22Z</time>
      </trkpt>
      <trkpt lat="45.57102" lon="5.79425">
        <ele>384</ele>
        <time>2022-04-15T12:47:23Z</time>
      </trkpt>
      <trkpt lat="45.57105" lon="5.79422">
        <ele>384</ele>
        <time>2022-04-15T12:47:24Z</time>
      </trkpt>
      <trkpt lat="45.57111" lon="5.79416">
        <ele>384</ele>
        <time>2022-04-15T12:47:26Z</time>
      </trkpt>
      <trkpt lat="45.57114" lon="5.79412">
        <ele>384</ele>
        <time>2022-04-15T12:47:27Z</time>
      </trkpt>
      <trkpt lat="45.57119" lon="5.79408">
        <ele>384</ele>
        <time>2022-04-15T12:47:28Z</time>
      </trkpt>
      <trkpt lat="45.57125" lon="5.79401">
        <ele>384</ele>
        <time>2022-04-15T12:47:30Z</time>
      </trkpt>
      <trkpt lat="45.57128" lon="5.79397">
        <ele>384</ele>
        <time>2022-04-15T12:47:31Z</time>
      </trkpt>
      <trkpt lat="45.57134" lon="5.7939">
        <ele>384</ele>
        <time>2022-04-15T12:47:33Z</time>
      </trkpt>
      <trkpt lat="45.5714" lon="5.79383">
        <ele>384</ele>
        <time>2022-04-15T12:47:35Z</time>
      </trkpt>
      <trkpt lat="45.57145" lon="5.79379">
        <ele>384</ele>
        <time>2022-04-15T12:47:36Z</time>
      </trkpt>
      <trkpt lat="45.57149" lon="5.79376">
        <ele>384</ele>
        <time>2022-04-15T12:47:37Z</time>
      </trkpt>
      <trkpt lat="45.57154" lon="5.79372">
        <ele>384</ele>
        <time>2022-04-15T12:47:38Z</time>
      </trkpt>
      <trkpt lat="45.57158" lon="5.7937">
        <ele>384</ele>
        <time>2022-04-15T12:47:39Z</time>
      </trkpt>
      <trkpt lat="45.57162" lon="5.79368">
        <ele>384</ele>
        <time>2022-04-15T12:47:40Z</time>
      </trkpt>
      <trkpt lat="45.57167" lon="5.79366">
        <ele>384</ele>
        <time>2022-04-15T12:47:42Z</time>
      </trkpt>
      <trkpt lat="45.57171" lon="5.79364">
        <ele>384</ele>
        <time>2022-04-15T12:47:43Z</time>
      </trkpt>
      <trkpt lat="45.57175" lon="5.79361">
        <ele>384</ele>
        <time>2022-04-15T12:47:44Z</time>
      </trkpt>
      <trkpt lat="45.57181" lon="5.79359">
        <ele>384</ele>
        <time>2022-04-15T12:47:45Z</time>
      </trkpt>
      <trkpt lat="45.57185" lon="5.79359">
        <ele>384</ele>
        <time>2022-04-15T12:47:47Z</time>
      </trkpt>
      <trkpt lat="45.5719" lon="5.79359">
        <ele>384</ele>
        <time>2022-04-15T12:47:48Z</time>
      </trkpt>
      <trkpt lat="45.57195" lon="5.7936">
        <ele>384.1</ele>
        <time>2022-04-15T12:47:49Z</time>
      </trkpt>
      <trkpt lat="45.57201" lon="5.79359">
        <ele>384.1</ele>
        <time>2022-04-15T12:47:50Z</time>
      </trkpt>
      <trkpt lat="45.57205" lon="5.79359">
        <ele>384.1</ele>
        <time>2022-04-15T12:47:51Z</time>
      </trkpt>
      <trkpt lat="45.5721" lon="5.79359">
        <ele>384.1</ele>
        <time>2022-04-15T12:47:52Z</time>
      </trkpt>
      <trkpt lat="45.57213" lon="5.79359">
        <ele>384.2</ele>
        <time>2022-04-15T12:47:53Z</time>
      </trkpt>
      <trkpt lat="45.57217" lon="5.79359">
        <ele>384.2</ele>
        <time>2022-04-15T12:47:54Z</time>
      </trkpt>
      <trkpt lat="45.57221" lon="5.79359">
        <ele>384.2</ele>
        <time>2022-04-15T12:47:55Z</time>
      </trkpt>
      <trkpt lat="45.57227" lon="5.79358">
        <ele>384.3</ele>
        <time>2022-04-15T12:47:57Z</time>
      </trkpt>
      <trkpt lat="45.57231" lon="5.79357">
        <ele>384.3</ele>
        <time>2022-04-15T12:47:58Z</time>
      </trkpt>
      <trkpt lat="45.57237" lon="5.79357">
        <ele>384.3</ele>
        <time>2022-04-15T12:47:59Z</time>
      </trkpt>
      <trkpt lat="45.57243" lon="5.79357">
        <ele>384.4</ele>
        <time>2022-04-15T12:48:01Z</time>
      </trkpt>
      <trkpt lat="45.57248" lon="5.79357">
        <ele>384.4</ele>
        <time>2022-04-15T12:48:02Z</time>
      </trkpt>
      <trkpt lat="45.57253" lon="5.79358">
        <ele>384.5</ele>
        <time>2022-04-15T12:48:03Z</time>
      </trkpt>
      <trkpt lat="45.57259" lon="5.79359">
        <ele>384.5</ele>
        <time>2022-04-15T12:48:05Z</time>
      </trkpt>
      <trkpt lat="45.57263" lon="5.79359">
        <ele>384.5</ele>
        <time>2022-04-15T12:48:06Z</time>
      </trkpt>
      <trkpt lat="45.57267" lon="5.7936">
        <ele>384.5</ele>
        <time>2022-04-15T12:48:07Z</time>
      </trkpt>
      <trkpt lat="45.57275" lon="5.79359">
        <ele>384.6</ele>
        <time>2022-04-15T12:48:08Z</time>
      </trkpt>
      <trkpt lat="45.5728" lon="5.79359">
        <ele>384.6</ele>
        <time>2022-04-15T12:48:10Z</time>
      </trkpt>
      <trkpt lat="45.57285" lon="5.79359">
        <ele>384.7</ele>
        <time>2022-04-15T12:48:11Z</time>
      </trkpt>
      <trkpt lat="45.57293" lon="5.79358">
        <ele>384.7</ele>
        <time>2022-04-15T12:48:13Z</time>
      </trkpt>
      <trkpt lat="45.57298" lon="5.79358">
        <ele>384.8</ele>
        <time>2022-04-15T12:48:14Z</time>
      </trkpt>
      <trkpt lat="45.57306" lon="5.79357">
        <ele>384.8</ele>
        <time>2022-04-15T12:48:16Z</time>
      </trkpt>
      <trkpt lat="45.57313" lon="5.79359">
        <ele>384.9</ele>
        <time>2022-04-15T12:48:18Z</time>
      </trkpt>
      <trkpt lat="45.57317" lon="5.7936">
        <ele>384.9</ele>
        <time>2022-04-15T12:48:19Z</time>
      </trkpt>
      <trkpt lat="45.57321" lon="5.79361">
        <ele>384.9</ele>
        <time>2022-04-15T12:48:20Z</time>
      </trkpt>
      <trkpt lat="45.57325" lon="5.79363">
        <ele>384.9</ele>
        <time>2022-04-15T12:48:21Z</time>
      </trkpt>
      <trkpt lat="45.57332" lon="5.79369">
        <ele>384.9</ele>
        <time>2022-04-15T12:48:23Z</time>
      </trkpt>
      <trkpt lat="45.57336" lon="5.79375">
        <ele>384.8</ele>
        <time>2022-04-15T12:48:24Z</time>
      </trkpt>
      <trkpt lat="45.5734" lon="5.79382">
        <ele>384.8</ele>
        <time>2022-04-15T12:48:26Z</time>
      </trkpt>
      <trkpt lat="45.57342" lon="5.79387">
        <ele>384.6</ele>
        <time>2022-04-15T12:48:27Z</time>
      </trkpt>
      <trkpt lat="45.57345" lon="5.79398">
        <ele>384.5</ele>
        <time>2022-04-15T12:48:29Z</time>
      </trkpt>
      <trkpt lat="45.57347" lon="5.79409">
        <ele>384.4</ele>
        <time>2022-04-15T12:48:31Z</time>
      </trkpt>
      <trkpt lat="45.57347" lon="5.79411">
        <ele>384.3</ele>
        <time>2022-04-15T12:48:32Z</time>
      </trkpt>
      <trkpt lat="45.57347" lon="5.79411">
        <ele>384.3</ele>
        <time>2022-04-15T12:48:33Z</time>
      </trkpt>
      <trkpt lat="45.57347" lon="5.79411">
        <ele>384.3</ele>
        <time>2022-04-15T12:48:34Z</time>
      </trkpt>
      <trkpt lat="45.57347" lon="5.79412">
        <ele>384.3</ele>
        <time>2022-04-15T12:48:35Z</time>
      </trkpt>
      <trkpt lat="45.57346" lon="5.79412">
        <ele>384.3</ele>
        <time>2022-04-15T12:48:36Z</time>
      </trkpt>
      <trkpt lat="45.57346" lon="5.79412">
        <ele>384.3</ele>
        <time>2022-04-15T12:48:37Z</time>
      </trkpt>
      <trkpt lat="45.57346" lon="5.79412">
        <ele>384.3</ele>
        <time>2022-04-15T12:48:38Z</time>
      </trkpt>
      <trkpt lat="45.57346" lon="5.79412">
        <ele>384.3</ele>
        <time>2022-04-15T12:48:39Z</time>
      </trkpt>
      <trkpt lat="45.57346" lon="5.79412">
        <ele>384.3</ele>
        <time>2022-04-15T12:48:40Z</time>
      </trkpt>
      <trkpt lat="45.57345" lon="5.79413">
        <ele>384.3</ele>
        <time>2022-04-15T12:48:41Z</time>
      </trkpt>
      <trkpt lat="45.57345" lon="5.79413">
        <ele>384.3</ele>
        <time>2022-04-15T12:48:42Z</time>
      </trkpt>
      <trkpt lat="45.57345" lon="5.79413">
        <ele>384.3</ele>
        <time>2022-04-15T12:48:43Z</time>
      </trkpt>
      <trkpt lat="45.57345" lon="5.79413">
        <ele>384.3</ele>
        <time>2022-04-15T12:48:44Z</time>
      </trkpt>
      <trkpt lat="45.57345" lon="5.79413">
        <ele>384.3</ele>
        <time>2022-04-15T12:48:45Z</time>
      </trkpt>
      <trkpt lat="45.57345" lon="5.79413">
        <ele>384.3</ele>
        <time>2022-04-15T12:48:46Z</time>
      </trkpt>
      <trkpt lat="45.57345" lon="5.79417">
        <ele>384.2</ele>
        <time>2022-04-15T12:48:47Z</time>
      </trkpt>
      <trkpt lat="45.57345" lon="5.79425">
        <ele>384.2</ele>
        <time>2022-04-15T12:48:49Z</time>
      </trkpt>
      <trkpt lat="45.57345" lon="5.79429">
        <ele>384.1</ele>
        <time>2022-04-15T12:48:50Z</time>
      </trkpt>
      <trkpt lat="45.57345" lon="5.79434">
        <ele>384.1</ele>
        <time>2022-04-15T12:48:51Z</time>
      </trkpt>
      <trkpt lat="45.57346" lon="5.79438">
        <ele>384</ele>
        <time>2022-04-15T12:48:52Z</time>
      </trkpt>
      <trkpt lat="45.57346" lon="5.79442">
        <ele>384</ele>
        <time>2022-04-15T12:48:53Z</time>
      </trkpt>
      <trkpt lat="45.57347" lon="5.79444">
        <ele>383.9</ele>
        <time>2022-04-15T12:48:54Z</time>
      </trkpt>
      <trkpt lat="45.57348" lon="5.79445">
        <ele>383.9</ele>
        <time>2022-04-15T12:48:55Z</time>
      </trkpt>
      <trkpt lat="45.57349" lon="5.79445">
        <ele>383.9</ele>
        <time>2022-04-15T12:48:56Z</time>
      </trkpt>
      <trkpt lat="45.5735" lon="5.79445">
        <ele>383.9</ele>
        <time>2022-04-15T12:48:57Z</time>
      </trkpt>
      <trkpt lat="45.5735" lon="5.79446">
        <ele>383.9</ele>
        <time>2022-04-15T12:48:58Z</time>
      </trkpt>
      <trkpt lat="45.57352" lon="5.79448">
        <ele>383.8</ele>
        <time>2022-04-15T12:48:59Z</time>
      </trkpt>
      <trkpt lat="45.57354" lon="5.79444">
        <ele>383.8</ele>
        <time>2022-04-15T12:49:00Z</time>
      </trkpt>
      <trkpt lat="45.57354" lon="5.79441">
        <ele>383.8</ele>
        <time>2022-04-15T12:49:01Z</time>
      </trkpt>
      <trkpt lat="45.57355" lon="5.79435">
        <ele>383.9</ele>
        <time>2022-04-15T12:49:03Z</time>
      </trkpt>
      <trkpt lat="45.57356" lon="5.7943">
        <ele>384</ele>
        <time>2022-04-15T12:49:04Z</time>
      </trkpt>
      <trkpt lat="45.57356" lon="5.79422">
        <ele>384.1</ele>
        <time>2022-04-15T12:49:05Z</time>
      </trkpt>
      <trkpt lat="45.57357" lon="5.79414">
        <ele>384.2</ele>
        <time>2022-04-15T12:49:07Z</time>
      </trkpt>
      <trkpt lat="45.57357" lon="5.79408">
        <ele>384.3</ele>
        <time>2022-04-15T12:49:08Z</time>
      </trkpt>
      <trkpt lat="45.57358" lon="5.79401">
        <ele>384.4</ele>
        <time>2022-04-15T12:49:09Z</time>
      </trkpt>
      <trkpt lat="45.57361" lon="5.79391">
        <ele>384.4</ele>
        <time>2022-04-15T12:49:11Z</time>
      </trkpt>
      <trkpt lat="45.57366" lon="5.79385">
        <ele>384.5</ele>
        <time>2022-04-15T12:49:12Z</time>
      </trkpt>
      <trkpt lat="45.5737" lon="5.79381">
        <ele>384.6</ele>
        <time>2022-04-15T12:49:14Z</time>
      </trkpt>
      <trkpt lat="45.57372" lon="5.79376">
        <ele>384.6</ele>
        <time>2022-04-15T12:49:15Z</time>
      </trkpt>
      <trkpt lat="45.57373" lon="5.7937">
        <ele>384.7</ele>
        <time>2022-04-15T12:49:16Z</time>
      </trkpt>
      <trkpt lat="45.57378" lon="5.79362">
        <ele>384.9</ele>
        <time>2022-04-15T12:49:18Z</time>
      </trkpt>
      <trkpt lat="45.57381" lon="5.79359">
        <ele>385</ele>
        <time>2022-04-15T12:49:19Z</time>
      </trkpt>
      <trkpt lat="45.57386" lon="5.79359">
        <ele>385</ele>
        <time>2022-04-15T12:49:20Z</time>
      </trkpt>
      <trkpt lat="45.57388" lon="5.79359">
        <ele>385</ele>
        <time>2022-04-15T12:49:21Z</time>
      </trkpt>
      <trkpt lat="45.57392" lon="5.79358">
        <ele>385</ele>
        <time>2022-04-15T12:49:22Z</time>
      </trkpt>
      <trkpt lat="45.57396" lon="5.79357">
        <ele>385</ele>
        <time>2022-04-15T12:49:23Z</time>
      </trkpt>
      <trkpt lat="45.57403" lon="5.79356">
        <ele>385.1</ele>
        <time>2022-04-15T12:49:24Z</time>
      </trkpt>
      <trkpt lat="45.57406" lon="5.79356">
        <ele>385.1</ele>
        <time>2022-04-15T12:49:26Z</time>
      </trkpt>
      <trkpt lat="45.5741" lon="5.79356">
        <ele>385.1</ele>
        <time>2022-04-15T12:49:27Z</time>
      </trkpt>
      <trkpt lat="45.57414" lon="5.79356">
        <ele>385.1</ele>
        <time>2022-04-15T12:49:28Z</time>
      </trkpt>
      <trkpt lat="45.57418" lon="5.79355">
        <ele>385.1</ele>
        <time>2022-04-15T12:49:29Z</time>
      </trkpt>
      <trkpt lat="45.57423" lon="5.79355">
        <ele>385.1</ele>
        <time>2022-04-15T12:49:30Z</time>
      </trkpt>
      <trkpt lat="45.57427" lon="5.79354">
        <ele>385.1</ele>
        <time>2022-04-15T12:49:31Z</time>
      </trkpt>
      <trkpt lat="45.57433" lon="5.79353">
        <ele>385.1</ele>
        <time>2022-04-15T12:49:32Z</time>
      </trkpt>
      <trkpt lat="45.57438" lon="5.79353">
        <ele>385.1</ele>
        <time>2022-04-15T12:49:33Z</time>
      </trkpt>
      <trkpt lat="45.57443" lon="5.79353">
        <ele>385.2</ele>
        <time>2022-04-15T12:49:34Z</time>
      </trkpt>
      <trkpt lat="45.57447" lon="5.79351">
        <ele>385.2</ele>
        <time>2022-04-15T12:49:35Z</time>
      </trkpt>
      <trkpt lat="45.57456" lon="5.79352">
        <ele>385.3</ele>
        <time>2022-04-15T12:49:37Z</time>
      </trkpt>
      <trkpt lat="45.57461" lon="5.79352">
        <ele>385.3</ele>
        <time>2022-04-15T12:49:38Z</time>
      </trkpt>
      <trkpt lat="45.57466" lon="5.79351">
        <ele>385.4</ele>
        <time>2022-04-15T12:49:39Z</time>
      </trkpt>
      <trkpt lat="45.5747" lon="5.79351">
        <ele>385.4</ele>
        <time>2022-04-15T12:49:40Z</time>
      </trkpt>
      <trkpt lat="45.57475" lon="5.79351">
        <ele>385.4</ele>
        <time>2022-04-15T12:49:41Z</time>
      </trkpt>
      <trkpt lat="45.5748" lon="5.79351">
        <ele>385.4</ele>
        <time>2022-04-15T12:49:42Z</time>
      </trkpt>
      <trkpt lat="45.57485" lon="5.7935">
        <ele>385.5</ele>
        <time>2022-04-15T12:49:43Z</time>
      </trkpt>
      <trkpt lat="45.5749" lon="5.7935">
        <ele>385.5</ele>
        <time>2022-04-15T12:49:44Z</time>
      </trkpt>
      <trkpt lat="45.57494" lon="5.7935">
        <ele>385.5</ele>
        <time>2022-04-15T12:49:45Z</time>
      </trkpt>
      <trkpt lat="45.57499" lon="5.7935">
        <ele>385.6</ele>
        <time>2022-04-15T12:49:46Z</time>
      </trkpt>
      <trkpt lat="45.57504" lon="5.79349">
        <ele>385.6</ele>
        <time>2022-04-15T12:49:47Z</time>
      </trkpt>
      <trkpt lat="45.57509" lon="5.79349">
        <ele>385.6</ele>
        <time>2022-04-15T12:49:48Z</time>
      </trkpt>
      <trkpt lat="45.57514" lon="5.79349">
        <ele>385.7</ele>
        <time>2022-04-15T12:49:49Z</time>
      </trkpt>
      <trkpt lat="45.57518" lon="5.79349">
        <ele>385.7</ele>
        <time>2022-04-15T12:49:50Z</time>
      </trkpt>
      <trkpt lat="45.57523" lon="5.79349">
        <ele>385.7</ele>
        <time>2022-04-15T12:49:51Z</time>
      </trkpt>
      <trkpt lat="45.57527" lon="5.79349">
        <ele>385.8</ele>
        <time>2022-04-15T12:49:52Z</time>
      </trkpt>
      <trkpt lat="45.57531" lon="5.79349">
        <ele>385.8</ele>
        <time>2022-04-15T12:49:53Z</time>
      </trkpt>
      <trkpt lat="45.57534" lon="5.79349">
        <ele>385.8</ele>
        <time>2022-04-15T12:49:54Z</time>
      </trkpt>
      <trkpt lat="45.57539" lon="5.79352">
        <ele>385.9</ele>
        <time>2022-04-15T12:49:55Z</time>
      </trkpt>
      <trkpt lat="45.57548" lon="5.7935">
        <ele>385.9</ele>
        <time>2022-04-15T12:49:57Z</time>
      </trkpt>
      <trkpt lat="45.57554" lon="5.79349">
        <ele>385.9</ele>
        <time>2022-04-15T12:49:58Z</time>
      </trkpt>
      <trkpt lat="45.57559" lon="5.79349">
        <ele>385.9</ele>
        <time>2022-04-15T12:49:59Z</time>
      </trkpt>
      <trkpt lat="45.57563" lon="5.79349">
        <ele>386</ele>
        <time>2022-04-15T12:50:00Z</time>
      </trkpt>
      <trkpt lat="45.57568" lon="5.79349">
        <ele>386</ele>
        <time>2022-04-15T12:50:01Z</time>
      </trkpt>
      <trkpt lat="45.57572" lon="5.79349">
        <ele>386</ele>
        <time>2022-04-15T12:50:02Z</time>
      </trkpt>
      <trkpt lat="45.57577" lon="5.79349">
        <ele>386</ele>
        <time>2022-04-15T12:50:03Z</time>
      </trkpt>
      <trkpt lat="45.57581" lon="5.79348">
        <ele>386</ele>
        <time>2022-04-15T12:50:04Z</time>
      </trkpt>
      <trkpt lat="45.57586" lon="5.79348">
        <ele>386</ele>
        <time>2022-04-15T12:50:05Z</time>
      </trkpt>
      <trkpt lat="45.57591" lon="5.79348">
        <ele>386</ele>
        <time>2022-04-15T12:50:06Z</time>
      </trkpt>
      <trkpt lat="45.57595" lon="5.79348">
        <ele>386</ele>
        <time>2022-04-15T12:50:07Z</time>
      </trkpt>
      <trkpt lat="45.576" lon="5.79348">
        <ele>386</ele>
        <time>2022-04-15T12:50:08Z</time>
      </trkpt>
      <trkpt lat="45.57605" lon="5.79348">
        <ele>386</ele>
        <time>2022-04-15T12:50:09Z</time>
      </trkpt>
      <trkpt lat="45.5761" lon="5.79348">
        <ele>386</ele>
        <time>2022-04-15T12:50:10Z</time>
      </trkpt>
      <trkpt lat="45.57615" lon="5.79347">
        <ele>385.9</ele>
        <time>2022-04-15T12:50:11Z</time>
      </trkpt>
      <trkpt lat="45.57619" lon="5.79347">
        <ele>385.9</ele>
        <time>2022-04-15T12:50:12Z</time>
      </trkpt>
      <trkpt lat="45.57624" lon="5.79347">
        <ele>385.9</ele>
        <time>2022-04-15T12:50:13Z</time>
      </trkpt>
      <trkpt lat="45.57629" lon="5.79347">
        <ele>386</ele>
        <time>2022-04-15T12:50:14Z</time>
      </trkpt>
      <trkpt lat="45.57634" lon="5.79346">
        <ele>386</ele>
        <time>2022-04-15T12:50:15Z</time>
      </trkpt>
      <trkpt lat="45.57639" lon="5.79346">
        <ele>386</ele>
        <time>2022-04-15T12:50:16Z</time>
      </trkpt>
      <trkpt lat="45.57644" lon="5.79346">
        <ele>386.1</ele>
        <time>2022-04-15T12:50:17Z</time>
      </trkpt>
      <trkpt lat="45.57649" lon="5.79346">
        <ele>386.1</ele>
        <time>2022-04-15T12:50:18Z</time>
      </trkpt>
      <trkpt lat="45.57653" lon="5.79346">
        <ele>386.2</ele>
        <time>2022-04-15T12:50:19Z</time>
      </trkpt>
      <trkpt lat="45.57658" lon="5.79346">
        <ele>386.2</ele>
        <time>2022-04-15T12:50:20Z</time>
      </trkpt>
      <trkpt lat="45.57662" lon="5.79346">
        <ele>386.2</ele>
        <time>2022-04-15T12:50:21Z</time>
      </trkpt>
      <trkpt lat="45.57667" lon="5.79346">
        <ele>386.3</ele>
        <time>2022-04-15T12:50:22Z</time>
      </trkpt>
      <trkpt lat="45.57672" lon="5.79346">
        <ele>386.3</ele>
        <time>2022-04-15T12:50:23Z</time>
      </trkpt>
      <trkpt lat="45.57676" lon="5.79346">
        <ele>386.4</ele>
        <time>2022-04-15T12:50:24Z</time>
      </trkpt>
      <trkpt lat="45.57681" lon="5.79346">
        <ele>386.4</ele>
        <time>2022-04-15T12:50:25Z</time>
      </trkpt>
      <trkpt lat="45.57686" lon="5.79346">
        <ele>386.4</ele>
        <time>2022-04-15T12:50:26Z</time>
      </trkpt>
      <trkpt lat="45.5769" lon="5.79346">
        <ele>386.5</ele>
        <time>2022-04-15T12:50:27Z</time>
      </trkpt>
      <trkpt lat="45.57695" lon="5.79345">
        <ele>386.5</ele>
        <time>2022-04-15T12:50:28Z</time>
      </trkpt>
      <trkpt lat="45.57697" lon="5.79344">
        <ele>386.5</ele>
        <time>2022-04-15T12:50:29Z</time>
      </trkpt>
      <trkpt lat="45.57702" lon="5.79343">
        <ele>386.5</ele>
        <time>2022-04-15T12:50:30Z</time>
      </trkpt>
      <trkpt lat="45.57709" lon="5.79344">
        <ele>386.5</ele>
        <time>2022-04-15T12:50:31Z</time>
      </trkpt>
      <trkpt lat="45.57714" lon="5.79344">
        <ele>386.6</ele>
        <time>2022-04-15T12:50:32Z</time>
      </trkpt>
      <trkpt lat="45.57718" lon="5.79344">
        <ele>386.6</ele>
        <time>2022-04-15T12:50:33Z</time>
      </trkpt>
      <trkpt lat="45.57723" lon="5.79344">
        <ele>386.6</ele>
        <time>2022-04-15T12:50:34Z</time>
      </trkpt>
      <trkpt lat="45.57727" lon="5.79344">
        <ele>386.6</ele>
        <time>2022-04-15T12:50:35Z</time>
      </trkpt>
      <trkpt lat="45.57732" lon="5.79344">
        <ele>386.6</ele>
        <time>2022-04-15T12:50:36Z</time>
      </trkpt>
      <trkpt lat="45.57736" lon="5.79343">
        <ele>386.6</ele>
        <time>2022-04-15T12:50:37Z</time>
      </trkpt>
      <trkpt lat="45.57741" lon="5.79343">
        <ele>386.6</ele>
        <time>2022-04-15T12:50:38Z</time>
      </trkpt>
      <trkpt lat="45.57746" lon="5.79343">
        <ele>386.7</ele>
        <time>2022-04-15T12:50:39Z</time>
      </trkpt>
      <trkpt lat="45.57751" lon="5.79342">
        <ele>386.7</ele>
        <time>2022-04-15T12:50:40Z</time>
      </trkpt>
      <trkpt lat="45.57755" lon="5.79343">
        <ele>386.7</ele>
        <time>2022-04-15T12:50:41Z</time>
      </trkpt>
      <trkpt lat="45.5776" lon="5.79343">
        <ele>386.7</ele>
        <time>2022-04-15T12:50:42Z</time>
      </trkpt>
      <trkpt lat="45.57765" lon="5.79343">
        <ele>386.7</ele>
        <time>2022-04-15T12:50:43Z</time>
      </trkpt>
      <trkpt lat="45.57769" lon="5.79343">
        <ele>386.8</ele>
        <time>2022-04-15T12:50:44Z</time>
      </trkpt>
      <trkpt lat="45.57774" lon="5.79343">
        <ele>386.8</ele>
        <time>2022-04-15T12:50:45Z</time>
      </trkpt>
      <trkpt lat="45.57778" lon="5.79343">
        <ele>386.8</ele>
        <time>2022-04-15T12:50:46Z</time>
      </trkpt>
      <trkpt lat="45.57783" lon="5.79342">
        <ele>386.8</ele>
        <time>2022-04-15T12:50:47Z</time>
      </trkpt>
      <trkpt lat="45.57785" lon="5.79342">
        <ele>386.8</ele>
        <time>2022-04-15T12:50:48Z</time>
      </trkpt>
      <trkpt lat="45.57789" lon="5.79342">
        <ele>386.8</ele>
        <time>2022-04-15T12:50:49Z</time>
      </trkpt>
      <trkpt lat="45.57793" lon="5.79343">
        <ele>386.8</ele>
        <time>2022-04-15T12:50:50Z</time>
      </trkpt>
      <trkpt lat="45.578" lon="5.79342">
        <ele>386.8</ele>
        <time>2022-04-15T12:50:51Z</time>
      </trkpt>
      <trkpt lat="45.57803" lon="5.79341">
        <ele>386.8</ele>
        <time>2022-04-15T12:50:52Z</time>
      </trkpt>
      <trkpt lat="45.57809" lon="5.79341">
        <ele>386.8</ele>
        <time>2022-04-15T12:50:53Z</time>
      </trkpt>
      <trkpt lat="45.57814" lon="5.79341">
        <ele>386.8</ele>
        <time>2022-04-15T12:50:54Z</time>
      </trkpt>
      <trkpt lat="45.57819" lon="5.79341">
        <ele>386.8</ele>
        <time>2022-04-15T12:50:55Z</time>
      </trkpt>
      <trkpt lat="45.57824" lon="5.79341">
        <ele>386.9</ele>
        <time>2022-04-15T12:50:56Z</time>
      </trkpt>
      <trkpt lat="45.57828" lon="5.79341">
        <ele>386.9</ele>
        <time>2022-04-15T12:50:57Z</time>
      </trkpt>
      <trkpt lat="45.57832" lon="5.79341">
        <ele>386.9</ele>
        <time>2022-04-15T12:50:58Z</time>
      </trkpt>
      <trkpt lat="45.57835" lon="5.79341">
        <ele>386.9</ele>
        <time>2022-04-15T12:50:59Z</time>
      </trkpt>
      <trkpt lat="45.57838" lon="5.79342">
        <ele>386.9</ele>
        <time>2022-04-15T12:51:00Z</time>
      </trkpt>
      <trkpt lat="45.57842" lon="5.79342">
        <ele>386.9</ele>
        <time>2022-04-15T12:51:01Z</time>
      </trkpt>
      <trkpt lat="45.57848" lon="5.79342">
        <ele>387</ele>
        <time>2022-04-15T12:51:02Z</time>
      </trkpt>
      <trkpt lat="45.57859" lon="5.7934">
        <ele>387</ele>
        <time>2022-04-15T12:51:04Z</time>
      </trkpt>
      <trkpt lat="45.57864" lon="5.7934">
        <ele>387</ele>
        <time>2022-04-15T12:51:05Z</time>
      </trkpt>
      <trkpt lat="45.57869" lon="5.7934">
        <ele>387</ele>
        <time>2022-04-15T12:51:06Z</time>
      </trkpt>
      <trkpt lat="45.57873" lon="5.79339">
        <ele>387.1</ele>
        <time>2022-04-15T12:51:07Z</time>
      </trkpt>
      <trkpt lat="45.57878" lon="5.79339">
        <ele>387.1</ele>
        <time>2022-04-15T12:51:08Z</time>
      </trkpt>
      <trkpt lat="45.57883" lon="5.79339">
        <ele>387.1</ele>
        <time>2022-04-15T12:51:09Z</time>
      </trkpt>
      <trkpt lat="45.57888" lon="5.79339">
        <ele>387.1</ele>
        <time>2022-04-15T12:51:10Z</time>
      </trkpt>
      <trkpt lat="45.57892" lon="5.79339">
        <ele>387.1</ele>
        <time>2022-04-15T12:51:11Z</time>
      </trkpt>
      <trkpt lat="45.57897" lon="5.79339">
        <ele>387.1</ele>
        <time>2022-04-15T12:51:12Z</time>
      </trkpt>
      <trkpt lat="45.57902" lon="5.79339">
        <ele>387.1</ele>
        <time>2022-04-15T12:51:13Z</time>
      </trkpt>
      <trkpt lat="45.57907" lon="5.79338">
        <ele>387.1</ele>
        <time>2022-04-15T12:51:14Z</time>
      </trkpt>
      <trkpt lat="45.57912" lon="5.79338">
        <ele>387.1</ele>
        <time>2022-04-15T12:51:15Z</time>
      </trkpt>
      <trkpt lat="45.57917" lon="5.79338">
        <ele>387.1</ele>
        <time>2022-04-15T12:51:16Z</time>
      </trkpt>
      <trkpt lat="45.57921" lon="5.79338">
        <ele>387.1</ele>
        <time>2022-04-15T12:51:17Z</time>
      </trkpt>
      <trkpt lat="45.57926" lon="5.79337">
        <ele>387.2</ele>
        <time>2022-04-15T12:51:18Z</time>
      </trkpt>
      <trkpt lat="45.57931" lon="5.79337">
        <ele>387.2</ele>
        <time>2022-04-15T12:51:19Z</time>
      </trkpt>
      <trkpt lat="45.57935" lon="5.79337">
        <ele>387.2</ele>
        <time>2022-04-15T12:51:20Z</time>
      </trkpt>
      <trkpt lat="45.5794" lon="5.79337">
        <ele>387.2</ele>
        <time>2022-04-15T12:51:21Z</time>
      </trkpt>
      <trkpt lat="45.57945" lon="5.79337">
        <ele>387.2</ele>
        <time>2022-04-15T12:51:22Z</time>
      </trkpt>
      <trkpt lat="45.57949" lon="5.79337">
        <ele>387.3</ele>
        <time>2022-04-15T12:51:23Z</time>
      </trkpt>
      <trkpt lat="45.57954" lon="5.79337">
        <ele>387.3</ele>
        <time>2022-04-15T12:51:24Z</time>
      </trkpt>
      <trkpt lat="45.57959" lon="5.79337">
        <ele>387.3</ele>
        <time>2022-04-15T12:51:25Z</time>
      </trkpt>
      <trkpt lat="45.57963" lon="5.79337">
        <ele>387.3</ele>
        <time>2022-04-15T12:51:26Z</time>
      </trkpt>
      <trkpt lat="45.57968" lon="5.79336">
        <ele>387.3</ele>
        <time>2022-04-15T12:51:27Z</time>
      </trkpt>
      <trkpt lat="45.57973" lon="5.79336">
        <ele>387.3</ele>
        <time>2022-04-15T12:51:28Z</time>
      </trkpt>
      <trkpt lat="45.57978" lon="5.79335">
        <ele>387.3</ele>
        <time>2022-04-15T12:51:29Z</time>
      </trkpt>
      <trkpt lat="45.57983" lon="5.79335">
        <ele>387.4</ele>
        <time>2022-04-15T12:51:30Z</time>
      </trkpt>
      <trkpt lat="45.57987" lon="5.79334">
        <ele>387.4</ele>
        <time>2022-04-15T12:51:31Z</time>
      </trkpt>
      <trkpt lat="45.57992" lon="5.79334">
        <ele>387.4</ele>
        <time>2022-04-15T12:51:32Z</time>
      </trkpt>
      <trkpt lat="45.57997" lon="5.79334">
        <ele>387.4</ele>
        <time>2022-04-15T12:51:33Z</time>
      </trkpt>
      <trkpt lat="45.58002" lon="5.79333">
        <ele>387.4</ele>
        <time>2022-04-15T12:51:34Z</time>
      </trkpt>
      <trkpt lat="45.58006" lon="5.79333">
        <ele>387.4</ele>
        <time>2022-04-15T12:51:35Z</time>
      </trkpt>
      <trkpt lat="45.58011" lon="5.79333">
        <ele>387.5</ele>
        <time>2022-04-15T12:51:36Z</time>
      </trkpt>
      <trkpt lat="45.58016" lon="5.79332">
        <ele>387.5</ele>
        <time>2022-04-15T12:51:37Z</time>
      </trkpt>
      <trkpt lat="45.5802" lon="5.79332">
        <ele>387.5</ele>
        <time>2022-04-15T12:51:38Z</time>
      </trkpt>
      <trkpt lat="45.58025" lon="5.79332">
        <ele>387.5</ele>
        <time>2022-04-15T12:51:39Z</time>
      </trkpt>
      <trkpt lat="45.58029" lon="5.79332">
        <ele>387.5</ele>
        <time>2022-04-15T12:51:40Z</time>
      </trkpt>
      <trkpt lat="45.58034" lon="5.79332">
        <ele>387.6</ele>
        <time>2022-04-15T12:51:41Z</time>
      </trkpt>
      <trkpt lat="45.58039" lon="5.79332">
        <ele>387.6</ele>
        <time>2022-04-15T12:51:42Z</time>
      </trkpt>
      <trkpt lat="45.58044" lon="5.79332">
        <ele>387.6</ele>
        <time>2022-04-15T12:51:43Z</time>
      </trkpt>
      <trkpt lat="45.58048" lon="5.79331">
        <ele>387.6</ele>
        <time>2022-04-15T12:51:44Z</time>
      </trkpt>
      <trkpt lat="45.58053" lon="5.79331">
        <ele>387.6</ele>
        <time>2022-04-15T12:51:45Z</time>
      </trkpt>
      <trkpt lat="45.58058" lon="5.79331">
        <ele>387.7</ele>
        <time>2022-04-15T12:51:46Z</time>
      </trkpt>
      <trkpt lat="45.58062" lon="5.7933">
        <ele>387.7</ele>
        <time>2022-04-15T12:51:47Z</time>
      </trkpt>
      <trkpt lat="45.58067" lon="5.7933">
        <ele>387.7</ele>
        <time>2022-04-15T12:51:48Z</time>
      </trkpt>
      <trkpt lat="45.58072" lon="5.79331">
        <ele>387.7</ele>
        <time>2022-04-15T12:51:49Z</time>
      </trkpt>
      <trkpt lat="45.58076" lon="5.7933">
        <ele>387.7</ele>
        <time>2022-04-15T12:51:50Z</time>
      </trkpt>
      <trkpt lat="45.58081" lon="5.79331">
        <ele>387.8</ele>
        <time>2022-04-15T12:51:51Z</time>
      </trkpt>
      <trkpt lat="45.58085" lon="5.79331">
        <ele>387.8</ele>
        <time>2022-04-15T12:51:52Z</time>
      </trkpt>
      <trkpt lat="45.5809" lon="5.7933">
        <ele>387.8</ele>
        <time>2022-04-15T12:51:53Z</time>
      </trkpt>
      <trkpt lat="45.58094" lon="5.7933">
        <ele>387.9</ele>
        <time>2022-04-15T12:51:54Z</time>
      </trkpt>
      <trkpt lat="45.58099" lon="5.7933">
        <ele>387.9</ele>
        <time>2022-04-15T12:51:55Z</time>
      </trkpt>
      <trkpt lat="45.58104" lon="5.7933">
        <ele>387.9</ele>
        <time>2022-04-15T12:51:56Z</time>
      </trkpt>
      <trkpt lat="45.58108" lon="5.7933">
        <ele>387.9</ele>
        <time>2022-04-15T12:51:57Z</time>
      </trkpt>
      <trkpt lat="45.58113" lon="5.7933">
        <ele>388</ele>
        <time>2022-04-15T12:51:58Z</time>
      </trkpt>
      <trkpt lat="45.58118" lon="5.7933">
        <ele>388</ele>
        <time>2022-04-15T12:51:59Z</time>
      </trkpt>
      <trkpt lat="45.58122" lon="5.79329">
        <ele>388</ele>
        <time>2022-04-15T12:52:00Z</time>
      </trkpt>
      <trkpt lat="45.58127" lon="5.79329">
        <ele>388</ele>
        <time>2022-04-15T12:52:01Z</time>
      </trkpt>
      <trkpt lat="45.58131" lon="5.79329">
        <ele>388.1</ele>
        <time>2022-04-15T12:52:02Z</time>
      </trkpt>
      <trkpt lat="45.58136" lon="5.79329">
        <ele>388.1</ele>
        <time>2022-04-15T12:52:03Z</time>
      </trkpt>
      <trkpt lat="45.58141" lon="5.79329">
        <ele>388.1</ele>
        <time>2022-04-15T12:52:04Z</time>
      </trkpt>
      <trkpt lat="45.58145" lon="5.79328">
        <ele>388.2</ele>
        <time>2022-04-15T12:52:05Z</time>
      </trkpt>
      <trkpt lat="45.5815" lon="5.79328">
        <ele>388.2</ele>
        <time>2022-04-15T12:52:06Z</time>
      </trkpt>
      <trkpt lat="45.58154" lon="5.79328">
        <ele>388.2</ele>
        <time>2022-04-15T12:52:07Z</time>
      </trkpt>
      <trkpt lat="45.58159" lon="5.79327">
        <ele>388.2</ele>
        <time>2022-04-15T12:52:08Z</time>
      </trkpt>
      <trkpt lat="45.58163" lon="5.79327">
        <ele>388.2</ele>
        <time>2022-04-15T12:52:09Z</time>
      </trkpt>
      <trkpt lat="45.58167" lon="5.79327">
        <ele>388.2</ele>
        <time>2022-04-15T12:52:10Z</time>
      </trkpt>
      <trkpt lat="45.58172" lon="5.79327">
        <ele>388.2</ele>
        <time>2022-04-15T12:52:11Z</time>
      </trkpt>
      <trkpt lat="45.58177" lon="5.79327">
        <ele>388.2</ele>
        <time>2022-04-15T12:52:12Z</time>
      </trkpt>
      <trkpt lat="45.58181" lon="5.79327">
        <ele>388.3</ele>
        <time>2022-04-15T12:52:13Z</time>
      </trkpt>
      <trkpt lat="45.58186" lon="5.79326">
        <ele>388.3</ele>
        <time>2022-04-15T12:52:14Z</time>
      </trkpt>
      <trkpt lat="45.58191" lon="5.79326">
        <ele>388.3</ele>
        <time>2022-04-15T12:52:15Z</time>
      </trkpt>
      <trkpt lat="45.58195" lon="5.79326">
        <ele>388.3</ele>
        <time>2022-04-15T12:52:16Z</time>
      </trkpt>
      <trkpt lat="45.582" lon="5.79326">
        <ele>388.3</ele>
        <time>2022-04-15T12:52:17Z</time>
      </trkpt>
      <trkpt lat="45.58205" lon="5.79325">
        <ele>388.3</ele>
        <time>2022-04-15T12:52:18Z</time>
      </trkpt>
      <trkpt lat="45.58209" lon="5.79325">
        <ele>388.4</ele>
        <time>2022-04-15T12:52:19Z</time>
      </trkpt>
      <trkpt lat="45.58214" lon="5.79325">
        <ele>388.4</ele>
        <time>2022-04-15T12:52:20Z</time>
      </trkpt>
      <trkpt lat="45.58218" lon="5.79325">
        <ele>388.4</ele>
        <time>2022-04-15T12:52:21Z</time>
      </trkpt>
      <trkpt lat="45.58221" lon="5.79325">
        <ele>388.4</ele>
        <time>2022-04-15T12:52:22Z</time>
      </trkpt>
      <trkpt lat="45.58226" lon="5.79325">
        <ele>388.4</ele>
        <time>2022-04-15T12:52:23Z</time>
      </trkpt>
      <trkpt lat="45.5823" lon="5.79325">
        <ele>388.4</ele>
        <time>2022-04-15T12:52:24Z</time>
      </trkpt>
      <trkpt lat="45.58234" lon="5.79325">
        <ele>388.4</ele>
        <time>2022-04-15T12:52:25Z</time>
      </trkpt>
      <trkpt lat="45.58238" lon="5.79325">
        <ele>388.5</ele>
        <time>2022-04-15T12:52:26Z</time>
      </trkpt>
      <trkpt lat="45.58243" lon="5.79325">
        <ele>388.5</ele>
        <time>2022-04-15T12:52:27Z</time>
      </trkpt>
      <trkpt lat="45.5825" lon="5.79326">
        <ele>388.5</ele>
        <time>2022-04-15T12:52:28Z</time>
      </trkpt>
      <trkpt lat="45.58257" lon="5.79325">
        <ele>388.5</ele>
        <time>2022-04-15T12:52:30Z</time>
      </trkpt>
      <trkpt lat="45.58262" lon="5.79324">
        <ele>388.5</ele>
        <time>2022-04-15T12:52:31Z</time>
      </trkpt>
      <trkpt lat="45.58268" lon="5.79324">
        <ele>388.5</ele>
        <time>2022-04-15T12:52:32Z</time>
      </trkpt>
      <trkpt lat="45.58274" lon="5.79323">
        <ele>388.6</ele>
        <time>2022-04-15T12:52:33Z</time>
      </trkpt>
      <trkpt lat="45.5828" lon="5.79323">
        <ele>388.6</ele>
        <time>2022-04-15T12:52:35Z</time>
      </trkpt>
      <trkpt lat="45.58288" lon="5.79322">
        <ele>388.7</ele>
        <time>2022-04-15T12:52:37Z</time>
      </trkpt>
      <trkpt lat="45.58293" lon="5.79322">
        <ele>388.7</ele>
        <time>2022-04-15T12:52:38Z</time>
      </trkpt>
      <trkpt lat="45.58299" lon="5.79322">
        <ele>388.7</ele>
        <time>2022-04-15T12:52:39Z</time>
      </trkpt>
      <trkpt lat="45.58304" lon="5.79321">
        <ele>388.8</ele>
        <time>2022-04-15T12:52:41Z</time>
      </trkpt>
      <trkpt lat="45.5831" lon="5.79321">
        <ele>388.8</ele>
        <time>2022-04-15T12:52:42Z</time>
      </trkpt>
      <trkpt lat="45.58316" lon="5.79321">
        <ele>388.9</ele>
        <time>2022-04-15T12:52:43Z</time>
      </trkpt>
      <trkpt lat="45.58323" lon="5.79321">
        <ele>389</ele>
        <time>2022-04-15T12:52:45Z</time>
      </trkpt>
      <trkpt lat="45.58328" lon="5.79322">
        <ele>389.1</ele>
        <time>2022-04-15T12:52:46Z</time>
      </trkpt>
      <trkpt lat="45.58335" lon="5.79321">
        <ele>389.1</ele>
        <time>2022-04-15T12:52:47Z</time>
      </trkpt>
      <trkpt lat="45.5834" lon="5.79321">
        <ele>389.1</ele>
        <time>2022-04-15T12:52:49Z</time>
      </trkpt>
      <trkpt lat="45.58348" lon="5.79321">
        <ele>389.2</ele>
        <time>2022-04-15T12:52:50Z</time>
      </trkpt>
      <trkpt lat="45.58354" lon="5.7932">
        <ele>389.3</ele>
        <time>2022-04-15T12:52:52Z</time>
      </trkpt>
      <trkpt lat="45.58362" lon="5.79319">
        <ele>389.4</ele>
        <time>2022-04-15T12:52:54Z</time>
      </trkpt>
      <trkpt lat="45.58366" lon="5.7932">
        <ele>389.4</ele>
        <time>2022-04-15T12:52:55Z</time>
      </trkpt>
      <trkpt lat="45.58374" lon="5.79319">
        <ele>389.6</ele>
        <time>2022-04-15T12:52:56Z</time>
      </trkpt>
      <trkpt lat="45.58378" lon="5.79319">
        <ele>389.6</ele>
        <time>2022-04-15T12:52:57Z</time>
      </trkpt>
      <trkpt lat="45.58382" lon="5.79319">
        <ele>389.7</ele>
        <time>2022-04-15T12:52:58Z</time>
      </trkpt>
      <trkpt lat="45.58388" lon="5.79319">
        <ele>389.8</ele>
        <time>2022-04-15T12:53:00Z</time>
      </trkpt>
      <trkpt lat="45.58393" lon="5.79318">
        <ele>389.8</ele>
        <time>2022-04-15T12:53:01Z</time>
      </trkpt>
      <trkpt lat="45.58399" lon="5.79319">
        <ele>390</ele>
        <time>2022-04-15T12:53:02Z</time>
      </trkpt>
      <trkpt lat="45.58404" lon="5.79319">
        <ele>390</ele>
        <time>2022-04-15T12:53:04Z</time>
      </trkpt>
      <trkpt lat="45.58407" lon="5.79319">
        <ele>390.1</ele>
        <time>2022-04-15T12:53:05Z</time>
      </trkpt>
      <trkpt lat="45.58412" lon="5.79319">
        <ele>390.2</ele>
        <time>2022-04-15T12:53:06Z</time>
      </trkpt>
      <trkpt lat="45.58419" lon="5.79318">
        <ele>390.3</ele>
        <time>2022-04-15T12:53:08Z</time>
      </trkpt>
      <trkpt lat="45.58425" lon="5.79317">
        <ele>390.5</ele>
        <time>2022-04-15T12:53:10Z</time>
      </trkpt>
      <trkpt lat="45.58429" lon="5.79316">
        <ele>390.6</ele>
        <time>2022-04-15T12:53:11Z</time>
      </trkpt>
      <trkpt lat="45.58435" lon="5.79316">
        <ele>390.7</ele>
        <time>2022-04-15T12:53:12Z</time>
      </trkpt>
      <trkpt lat="45.58438" lon="5.79316">
        <ele>390.8</ele>
        <time>2022-04-15T12:53:14Z</time>
      </trkpt>
      <trkpt lat="45.58443" lon="5.79316">
        <ele>391</ele>
        <time>2022-04-15T12:53:15Z</time>
      </trkpt>
      <trkpt lat="45.58448" lon="5.79316">
        <ele>391.2</ele>
        <time>2022-04-15T12:53:16Z</time>
      </trkpt>
      <trkpt lat="45.58452" lon="5.79316">
        <ele>391.3</ele>
        <time>2022-04-15T12:53:18Z</time>
      </trkpt>
      <trkpt lat="45.58455" lon="5.79315">
        <ele>391.4</ele>
        <time>2022-04-15T12:53:19Z</time>
      </trkpt>
      <trkpt lat="45.58459" lon="5.79314">
        <ele>391.6</ele>
        <time>2022-04-15T12:53:20Z</time>
      </trkpt>
      <trkpt lat="45.58462" lon="5.79313">
        <ele>391.7</ele>
        <time>2022-04-15T12:53:22Z</time>
      </trkpt>
      <trkpt lat="45.58465" lon="5.79312">
        <ele>391.9</ele>
        <time>2022-04-15T12:53:23Z</time>
      </trkpt>
      <trkpt lat="45.5847" lon="5.79311">
        <ele>392.1</ele>
        <time>2022-04-15T12:53:25Z</time>
      </trkpt>
      <trkpt lat="45.58473" lon="5.79311">
        <ele>392.3</ele>
        <time>2022-04-15T12:53:26Z</time>
      </trkpt>
      <trkpt lat="45.58475" lon="5.79311">
        <ele>392.3</ele>
        <time>2022-04-15T12:53:27Z</time>
      </trkpt>
      <trkpt lat="45.58478" lon="5.7931">
        <ele>392.5</ele>
        <time>2022-04-15T12:53:28Z</time>
      </trkpt>
      <trkpt lat="45.58479" lon="5.7931">
        <ele>392.5</ele>
        <time>2022-04-15T12:53:29Z</time>
      </trkpt>
      <trkpt lat="45.58481" lon="5.79309">
        <ele>392.7</ele>
        <time>2022-04-15T12:53:30Z</time>
      </trkpt>
      <trkpt lat="45.58483" lon="5.79308">
        <ele>392.8</ele>
        <time>2022-04-15T12:53:32Z</time>
      </trkpt>
      <trkpt lat="45.58486" lon="5.79307">
        <ele>392.9</ele>
        <time>2022-04-15T12:53:33Z</time>
      </trkpt>
      <trkpt lat="45.58488" lon="5.79306">
        <ele>393.1</ele>
        <time>2022-04-15T12:53:34Z</time>
      </trkpt>
      <trkpt lat="45.5849" lon="5.79305">
        <ele>393.2</ele>
        <time>2022-04-15T12:53:36Z</time>
      </trkpt>
      <trkpt lat="45.58493" lon="5.79304">
        <ele>393.3</ele>
        <time>2022-04-15T12:53:37Z</time>
      </trkpt>
      <trkpt lat="45.58494" lon="5.79304">
        <ele>393.4</ele>
        <time>2022-04-15T12:53:38Z</time>
      </trkpt>
      <trkpt lat="45.58498" lon="5.79301">
        <ele>393.6</ele>
        <time>2022-04-15T12:53:40Z</time>
      </trkpt>
      <trkpt lat="45.58499" lon="5.793">
        <ele>393.7</ele>
        <time>2022-04-15T12:53:41Z</time>
      </trkpt>
      <trkpt lat="45.585" lon="5.793">
        <ele>393.8</ele>
        <time>2022-04-15T12:53:42Z</time>
      </trkpt>
      <trkpt lat="45.58504" lon="5.79298">
        <ele>393.9</ele>
        <time>2022-04-15T12:53:43Z</time>
      </trkpt>
      <trkpt lat="45.58507" lon="5.79296">
        <ele>394.1</ele>
        <time>2022-04-15T12:53:45Z</time>
      </trkpt>
      <trkpt lat="45.58508" lon="5.79296">
        <ele>394.2</ele>
        <time>2022-04-15T12:53:46Z</time>
      </trkpt>
      <trkpt lat="45.58512" lon="5.79296">
        <ele>394.4</ele>
        <time>2022-04-15T12:53:48Z</time>
      </trkpt>
      <trkpt lat="45.58512" lon="5.79296">
        <ele>394.4</ele>
        <time>2022-04-15T12:53:50Z</time>
      </trkpt>
      <trkpt lat="45.58512" lon="5.79296">
        <ele>394.4</ele>
        <time>2022-04-15T12:53:51Z</time>
      </trkpt>
      <trkpt lat="45.58512" lon="5.79295">
        <ele>394.4</ele>
        <time>2022-04-15T12:53:52Z</time>
      </trkpt>
      <trkpt lat="45.58512" lon="5.79295">
        <ele>394.4</ele>
        <time>2022-04-15T12:53:53Z</time>
      </trkpt>
      <trkpt lat="45.58512" lon="5.79295">
        <ele>394.4</ele>
        <time>2022-04-15T12:53:54Z</time>
      </trkpt>
      <trkpt lat="45.58512" lon="5.79295">
        <ele>394.4</ele>
        <time>2022-04-15T12:53:55Z</time>
      </trkpt>
      <trkpt lat="45.58512" lon="5.79295">
        <ele>394.4</ele>
        <time>2022-04-15T12:53:56Z</time>
      </trkpt>
      <trkpt lat="45.58512" lon="5.79295">
        <ele>394.4</ele>
        <time>2022-04-15T12:53:57Z</time>
      </trkpt>
      <trkpt lat="45.58512" lon="5.79295">
        <ele>394.4</ele>
        <time>2022-04-15T12:53:58Z</time>
      </trkpt>
      <trkpt lat="45.58512" lon="5.79295">
        <ele>394.4</ele>
        <time>2022-04-15T12:53:59Z</time>
      </trkpt>
      <trkpt lat="45.58512" lon="5.79295">
        <ele>394.4</ele>
        <time>2022-04-15T12:54:00Z</time>
      </trkpt>
      <trkpt lat="45.58512" lon="5.79295">
        <ele>394.4</ele>
        <time>2022-04-15T12:54:01Z</time>
      </trkpt>
      <trkpt lat="45.58512" lon="5.79295">
        <ele>394.4</ele>
        <time>2022-04-15T12:54:02Z</time>
      </trkpt>
      <trkpt lat="45.58512" lon="5.79295">
        <ele>394.4</ele>
        <time>2022-04-15T12:54:03Z</time>
      </trkpt>
      <trkpt lat="45.58512" lon="5.79295">
        <ele>394.4</ele>
        <time>2022-04-15T12:54:04Z</time>
      </trkpt>
      <trkpt lat="45.58512" lon="5.79295">
        <ele>394.4</ele>
        <time>2022-04-15T12:54:05Z</time>
      </trkpt>
      <trkpt lat="45.58512" lon="5.79295">
        <ele>394.4</ele>
        <time>2022-04-15T12:54:06Z</time>
      </trkpt>
      <trkpt lat="45.58512" lon="5.79295">
        <ele>394.4</ele>
        <time>2022-04-15T12:54:07Z</time>
      </trkpt>
      <trkpt lat="45.58512" lon="5.79295">
        <ele>394.4</ele>
        <time>2022-04-15T12:54:08Z</time>
      </trkpt>
      <trkpt lat="45.58512" lon="5.79295">
        <ele>394.4</ele>
        <time>2022-04-15T12:54:09Z</time>
      </trkpt>
      <trkpt lat="45.58512" lon="5.79295">
        <ele>394.4</ele>
        <time>2022-04-15T12:54:10Z</time>
      </trkpt>
      <trkpt lat="45.58512" lon="5.79295">
        <ele>394.4</ele>
        <time>2022-04-15T12:54:11Z</time>
      </trkpt>
      <trkpt lat="45.58512" lon="5.79294">
        <ele>394.4</ele>
        <time>2022-04-15T12:54:12Z</time>
      </trkpt>
      <trkpt lat="45.58512" lon="5.79294">
        <ele>394.4</ele>
        <time>2022-04-15T12:54:13Z</time>
      </trkpt>
      <trkpt lat="45.58512" lon="5.79294">
        <ele>394.4</ele>
        <time>2022-04-15T12:54:14Z</time>
      </trkpt>
      <trkpt lat="45.58512" lon="5.79294">
        <ele>394.4</ele>
        <time>2022-04-15T12:54:15Z</time>
      </trkpt>
      <trkpt lat="45.58512" lon="5.79294">
        <ele>394.4</ele>
        <time>2022-04-15T12:54:16Z</time>
      </trkpt>
      <trkpt lat="45.58512" lon="5.79294">
        <ele>394.4</ele>
        <time>2022-04-15T12:54:17Z</time>
      </trkpt>
      <trkpt lat="45.58512" lon="5.79294">
        <ele>394.4</ele>
        <time>2022-04-15T12:54:18Z</time>
      </trkpt>
      <trkpt lat="45.58513" lon="5.79294">
        <ele>394.4</ele>
        <time>2022-04-15T12:54:19Z</time>
      </trkpt>
      <trkpt lat="45.58513" lon="5.79294">
        <ele>394.4</ele>
        <time>2022-04-15T12:54:20Z</time>
      </trkpt>
      <trkpt lat="45.58513" lon="5.79294">
        <ele>394.4</ele>
        <time>2022-04-15T12:54:21Z</time>
      </trkpt>
      <trkpt lat="45.58513" lon="5.79294">
        <ele>394.5</ele>
        <time>2022-04-15T12:54:22Z</time>
      </trkpt>
      <trkpt lat="45.58513" lon="5.79294">
        <ele>394.5</ele>
        <time>2022-04-15T12:54:23Z</time>
      </trkpt>
      <trkpt lat="45.58513" lon="5.79294">
        <ele>394.5</ele>
        <time>2022-04-15T12:54:24Z</time>
      </trkpt>
      <trkpt lat="45.58513" lon="5.79294">
        <ele>394.5</ele>
        <time>2022-04-15T12:54:25Z</time>
      </trkpt>
      <trkpt lat="45.58513" lon="5.79294">
        <ele>394.5</ele>
        <time>2022-04-15T12:54:26Z</time>
      </trkpt>
      <trkpt lat="45.58513" lon="5.79294">
        <ele>394.5</ele>
        <time>2022-04-15T12:54:27Z</time>
      </trkpt>
      <trkpt lat="45.58513" lon="5.79294">
        <ele>394.5</ele>
        <time>2022-04-15T12:54:28Z</time>
      </trkpt>
      <trkpt lat="45.58513" lon="5.79294">
        <ele>394.5</ele>
        <time>2022-04-15T12:54:29Z</time>
      </trkpt>
      <trkpt lat="45.58513" lon="5.79294">
        <ele>394.5</ele>
        <time>2022-04-15T12:54:30Z</time>
      </trkpt>
      <trkpt lat="45.58513" lon="5.79294">
        <ele>394.5</ele>
        <time>2022-04-15T12:54:31Z</time>
      </trkpt>
      <trkpt lat="45.58513" lon="5.79293">
        <ele>394.5</ele>
        <time>2022-04-15T12:54:32Z</time>
      </trkpt>
      <trkpt lat="45.58513" lon="5.79293">
        <ele>394.5</ele>
        <time>2022-04-15T12:54:33Z</time>
      </trkpt>
      <trkpt lat="45.58513" lon="5.79293">
        <ele>394.5</ele>
        <time>2022-04-15T12:54:34Z</time>
      </trkpt>
      <trkpt lat="45.58513" lon="5.79293">
        <ele>394.5</ele>
        <time>2022-04-15T12:54:35Z</time>
      </trkpt>
      <trkpt lat="45.58513" lon="5.79293">
        <ele>394.5</ele>
        <time>2022-04-15T12:54:36Z</time>
      </trkpt>
      <trkpt lat="45.58513" lon="5.79293">
        <ele>394.5</ele>
        <time>2022-04-15T12:54:37Z</time>
      </trkpt>
      <trkpt lat="45.58513" lon="5.79293">
        <ele>394.5</ele>
        <time>2022-04-15T12:54:38Z</time>
      </trkpt>
      <trkpt lat="45.58513" lon="5.79293">
        <ele>394.5</ele>
        <time>2022-04-15T12:54:39Z</time>
      </trkpt>
      <trkpt lat="45.58513" lon="5.79293">
        <ele>394.5</ele>
        <time>2022-04-15T12:54:40Z</time>
      </trkpt>
      <trkpt lat="45.58513" lon="5.79293">
        <ele>394.5</ele>
        <time>2022-04-15T12:54:41Z</time>
      </trkpt>
      <trkpt lat="45.58513" lon="5.79293">
        <ele>394.5</ele>
        <time>2022-04-15T12:54:42Z</time>
      </trkpt>
      <trkpt lat="45.58513" lon="5.79293">
        <ele>394.5</ele>
        <time>2022-04-15T12:54:43Z</time>
      </trkpt>
      <trkpt lat="45.58513" lon="5.79293">
        <ele>394.5</ele>
        <time>2022-04-15T12:54:44Z</time>
      </trkpt>
      <trkpt lat="45.58513" lon="5.79293">
        <ele>394.5</ele>
        <time>2022-04-15T12:54:45Z</time>
      </trkpt>
      <trkpt lat="45.58513" lon="5.79293">
        <ele>394.5</ele>
        <time>2022-04-15T12:54:46Z</time>
      </trkpt>
      <trkpt lat="45.58513" lon="5.79293">
        <ele>394.5</ele>
        <time>2022-04-15T12:54:47Z</time>
      </trkpt>
      <trkpt lat="45.58513" lon="5.79293">
        <ele>394.5</ele>
        <time>2022-04-15T12:54:48Z</time>
      </trkpt>
      <trkpt lat="45.58513" lon="5.79293">
        <ele>394.5</ele>
        <time>2022-04-15T12:54:49Z</time>
      </trkpt>
      <trkpt lat="45.58514" lon="5.79293">
        <ele>394.5</ele>
        <time>2022-04-15T12:54:50Z</time>
      </trkpt>
      <trkpt lat="45.58514" lon="5.79292">
        <ele>394.5</ele>
        <time>2022-04-15T12:54:51Z</time>
      </trkpt>
      <trkpt lat="45.58514" lon="5.79292">
        <ele>394.5</ele>
        <time>2022-04-15T12:54:52Z</time>
      </trkpt>
      <trkpt lat="45.58514" lon="5.79292">
        <ele>394.5</ele>
        <time>2022-04-15T12:54:53Z</time>
      </trkpt>
      <trkpt lat="45.58514" lon="5.79292">
        <ele>394.6</ele>
        <time>2022-04-15T12:54:54Z</time>
      </trkpt>
      <trkpt lat="45.58514" lon="5.79292">
        <ele>394.6</ele>
        <time>2022-04-15T12:54:55Z</time>
      </trkpt>
      <trkpt lat="45.58514" lon="5.79292">
        <ele>394.6</ele>
        <time>2022-04-15T12:54:56Z</time>
      </trkpt>
      <trkpt lat="45.58514" lon="5.79292">
        <ele>394.6</ele>
        <time>2022-04-15T12:54:57Z</time>
      </trkpt>
      <trkpt lat="45.58514" lon="5.79292">
        <ele>394.6</ele>
        <time>2022-04-15T12:54:58Z</time>
      </trkpt>
      <trkpt lat="45.58514" lon="5.79292">
        <ele>394.6</ele>
        <time>2022-04-15T12:54:59Z</time>
      </trkpt>
      <trkpt lat="45.58514" lon="5.79292">
        <ele>394.6</ele>
        <time>2022-04-15T12:55:00Z</time>
      </trkpt>
      <trkpt lat="45.58514" lon="5.79292">
        <ele>394.6</ele>
        <time>2022-04-15T12:55:01Z</time>
      </trkpt>
      <trkpt lat="45.58514" lon="5.79292">
        <ele>394.6</ele>
        <time>2022-04-15T12:55:02Z</time>
      </trkpt>
      <trkpt lat="45.58514" lon="5.79292">
        <ele>394.6</ele>
        <time>2022-04-15T12:55:03Z</time>
      </trkpt>
      <trkpt lat="45.58514" lon="5.79292">
        <ele>394.6</ele>
        <time>2022-04-15T12:55:04Z</time>
      </trkpt>
      <trkpt lat="45.58514" lon="5.79292">
        <ele>394.6</ele>
        <time>2022-04-15T12:55:05Z</time>
      </trkpt>
      <trkpt lat="45.58516" lon="5.79291">
        <ele>394.7</ele>
        <time>2022-04-15T12:55:06Z</time>
      </trkpt>
      <trkpt lat="45.58517" lon="5.7929">
        <ele>394.8</ele>
        <time>2022-04-15T12:55:07Z</time>
      </trkpt>
      <trkpt lat="45.58521" lon="5.79288">
        <ele>394.9</ele>
        <time>2022-04-15T12:55:08Z</time>
      </trkpt>
      <trkpt lat="45.58522" lon="5.79288">
        <ele>395</ele>
        <time>2022-04-15T12:55:09Z</time>
      </trkpt>
      <trkpt lat="45.58524" lon="5.79286">
        <ele>395.1</ele>
        <time>2022-04-15T12:55:10Z</time>
      </trkpt>
      <trkpt lat="45.58524" lon="5.79285">
        <ele>395.1</ele>
        <time>2022-04-15T12:55:11Z</time>
      </trkpt>
      <trkpt lat="45.58525" lon="5.79284">
        <ele>395.2</ele>
        <time>2022-04-15T12:55:12Z</time>
      </trkpt>
      <trkpt lat="45.5853" lon="5.79282">
        <ele>395.4</ele>
        <time>2022-04-15T12:55:13Z</time>
      </trkpt>
      <trkpt lat="45.58534" lon="5.7928">
        <ele>395.6</ele>
        <time>2022-04-15T12:55:15Z</time>
      </trkpt>
      <trkpt lat="45.58536" lon="5.79279">
        <ele>395.7</ele>
        <time>2022-04-15T12:55:16Z</time>
      </trkpt>
      <trkpt lat="45.58537" lon="5.79278">
        <ele>395.8</ele>
        <time>2022-04-15T12:55:17Z</time>
      </trkpt>
      <trkpt lat="45.58541" lon="5.79273">
        <ele>396</ele>
        <time>2022-04-15T12:55:19Z</time>
      </trkpt>
      <trkpt lat="45.58544" lon="5.7927">
        <ele>396.1</ele>
        <time>2022-04-15T12:55:20Z</time>
      </trkpt>
      <trkpt lat="45.58545" lon="5.79269">
        <ele>396.2</ele>
        <time>2022-04-15T12:55:21Z</time>
      </trkpt>
      <trkpt lat="45.58547" lon="5.79264">
        <ele>396.4</ele>
        <time>2022-04-15T12:55:23Z</time>
      </trkpt>
      <trkpt lat="45.5855" lon="5.7926">
        <ele>396.6</ele>
        <time>2022-04-15T12:55:24Z</time>
      </trkpt>
      <trkpt lat="45.58551" lon="5.79258">
        <ele>396.7</ele>
        <time>2022-04-15T12:55:25Z</time>
      </trkpt>
      <trkpt lat="45.58553" lon="5.79256">
        <ele>396.7</ele>
        <time>2022-04-15T12:55:26Z</time>
      </trkpt>
      <trkpt lat="45.58554" lon="5.79253">
        <ele>396.8</ele>
        <time>2022-04-15T12:55:27Z</time>
      </trkpt>
      <trkpt lat="45.58555" lon="5.79251">
        <ele>396.9</ele>
        <time>2022-04-15T12:55:29Z</time>
      </trkpt>
      <trkpt lat="45.58557" lon="5.79248">
        <ele>397.1</ele>
        <time>2022-04-15T12:55:30Z</time>
      </trkpt>
      <trkpt lat="45.58558" lon="5.79247">
        <ele>397.1</ele>
        <time>2022-04-15T12:55:31Z</time>
      </trkpt>
      <trkpt lat="45.5856" lon="5.79243">
        <ele>397.2</ele>
        <time>2022-04-15T12:55:32Z</time>
      </trkpt>
      <trkpt lat="45.58562" lon="5.7924">
        <ele>397.4</ele>
        <time>2022-04-15T12:55:34Z</time>
      </trkpt>
      <trkpt lat="45.58563" lon="5.79239">
        <ele>397.4</ele>
        <time>2022-04-15T12:55:35Z</time>
      </trkpt>
      <trkpt lat="45.58565" lon="5.79237">
        <ele>397.6</ele>
        <time>2022-04-15T12:55:36Z</time>
      </trkpt>
      <trkpt lat="45.58569" lon="5.7923">
        <ele>397.9</ele>
        <time>2022-04-15T12:55:38Z</time>
      </trkpt>
      <trkpt lat="45.58572" lon="5.79227">
        <ele>398.1</ele>
        <time>2022-04-15T12:55:40Z</time>
      </trkpt>
      <trkpt lat="45.58574" lon="5.79223">
        <ele>398.2</ele>
        <time>2022-04-15T12:55:41Z</time>
      </trkpt>
      <trkpt lat="45.58576" lon="5.7922">
        <ele>398.5</ele>
        <time>2022-04-15T12:55:42Z</time>
      </trkpt>
      <trkpt lat="45.58577" lon="5.79219">
        <ele>398.5</ele>
        <time>2022-04-15T12:55:43Z</time>
      </trkpt>
      <trkpt lat="45.58578" lon="5.79215">
        <ele>398.7</ele>
        <time>2022-04-15T12:55:44Z</time>
      </trkpt>
      <trkpt lat="45.58581" lon="5.79211">
        <ele>398.9</ele>
        <time>2022-04-15T12:55:46Z</time>
      </trkpt>
      <trkpt lat="45.58582" lon="5.7921">
        <ele>399</ele>
        <time>2022-04-15T12:55:47Z</time>
      </trkpt>
      <trkpt lat="45.58584" lon="5.79205">
        <ele>399.2</ele>
        <time>2022-04-15T12:55:48Z</time>
      </trkpt>
      <trkpt lat="45.58586" lon="5.79201">
        <ele>399.4</ele>
        <time>2022-04-15T12:55:50Z</time>
      </trkpt>
      <trkpt lat="45.58588" lon="5.79197">
        <ele>399.6</ele>
        <time>2022-04-15T12:55:51Z</time>
      </trkpt>
      <trkpt lat="45.58589" lon="5.79194">
        <ele>399.7</ele>
        <time>2022-04-15T12:55:52Z</time>
      </trkpt>
      <trkpt lat="45.58591" lon="5.7919">
        <ele>399.9</ele>
        <time>2022-04-15T12:55:54Z</time>
      </trkpt>
      <trkpt lat="45.58593" lon="5.79185">
        <ele>400.2</ele>
        <time>2022-04-15T12:55:55Z</time>
      </trkpt>
      <trkpt lat="45.58594" lon="5.79183">
        <ele>400.3</ele>
        <time>2022-04-15T12:55:56Z</time>
      </trkpt>
      <trkpt lat="45.58596" lon="5.79178">
        <ele>400.5</ele>
        <time>2022-04-15T12:55:57Z</time>
      </trkpt>
      <trkpt lat="45.58597" lon="5.79174">
        <ele>400.7</ele>
        <time>2022-04-15T12:55:59Z</time>
      </trkpt>
      <trkpt lat="45.58597" lon="5.79172">
        <ele>400.7</ele>
        <time>2022-04-15T12:56:00Z</time>
      </trkpt>
      <trkpt lat="45.58599" lon="5.79167">
        <ele>401</ele>
        <time>2022-04-15T12:56:02Z</time>
      </trkpt>
      <trkpt lat="45.58601" lon="5.79162">
        <ele>401.2</ele>
        <time>2022-04-15T12:56:03Z</time>
      </trkpt>
      <trkpt lat="45.58602" lon="5.79159">
        <ele>401.3</ele>
        <time>2022-04-15T12:56:04Z</time>
      </trkpt>
      <trkpt lat="45.58603" lon="5.79155">
        <ele>401.5</ele>
        <time>2022-04-15T12:56:06Z</time>
      </trkpt>
      <trkpt lat="45.58604" lon="5.79151">
        <ele>401.6</ele>
        <time>2022-04-15T12:56:07Z</time>
      </trkpt>
      <trkpt lat="45.58605" lon="5.79148">
        <ele>401.8</ele>
        <time>2022-04-15T12:56:08Z</time>
      </trkpt>
      <trkpt lat="45.58606" lon="5.7914">
        <ele>402.1</ele>
        <time>2022-04-15T12:56:10Z</time>
      </trkpt>
      <trkpt lat="45.58607" lon="5.79137">
        <ele>402.3</ele>
        <time>2022-04-15T12:56:11Z</time>
      </trkpt>
      <trkpt lat="45.58609" lon="5.79132">
        <ele>402.5</ele>
        <time>2022-04-15T12:56:12Z</time>
      </trkpt>
      <trkpt lat="45.58609" lon="5.7913">
        <ele>402.6</ele>
        <time>2022-04-15T12:56:13Z</time>
      </trkpt>
      <trkpt lat="45.58611" lon="5.79126">
        <ele>402.8</ele>
        <time>2022-04-15T12:56:14Z</time>
      </trkpt>
      <trkpt lat="45.58611" lon="5.79124">
        <ele>402.8</ele>
        <time>2022-04-15T12:56:15Z</time>
      </trkpt>
      <trkpt lat="45.58612" lon="5.79121">
        <ele>403</ele>
        <time>2022-04-15T12:56:16Z</time>
      </trkpt>
      <trkpt lat="45.58614" lon="5.79115">
        <ele>403.2</ele>
        <time>2022-04-15T12:56:18Z</time>
      </trkpt>
      <trkpt lat="45.58615" lon="5.7911">
        <ele>403.4</ele>
        <time>2022-04-15T12:56:19Z</time>
      </trkpt>
      <trkpt lat="45.58615" lon="5.79108">
        <ele>403.5</ele>
        <time>2022-04-15T12:56:20Z</time>
      </trkpt>
      <trkpt lat="45.58615" lon="5.79105">
        <ele>403.6</ele>
        <time>2022-04-15T12:56:21Z</time>
      </trkpt>
      <trkpt lat="45.58615" lon="5.79098">
        <ele>403.9</ele>
        <time>2022-04-15T12:56:23Z</time>
      </trkpt>
      <trkpt lat="45.58615" lon="5.79096">
        <ele>404</ele>
        <time>2022-04-15T12:56:24Z</time>
      </trkpt>
      <trkpt lat="45.58615" lon="5.79093">
        <ele>404.1</ele>
        <time>2022-04-15T12:56:25Z</time>
      </trkpt>
      <trkpt lat="45.58616" lon="5.79088">
        <ele>404.3</ele>
        <time>2022-04-15T12:56:26Z</time>
      </trkpt>
      <trkpt lat="45.58616" lon="5.79086">
        <ele>404.3</ele>
        <time>2022-04-15T12:56:27Z</time>
      </trkpt>
      <trkpt lat="45.58616" lon="5.79081">
        <ele>404.5</ele>
        <time>2022-04-15T12:56:28Z</time>
      </trkpt>
      <trkpt lat="45.58617" lon="5.79077">
        <ele>404.7</ele>
        <time>2022-04-15T12:56:30Z</time>
      </trkpt>
      <trkpt lat="45.58617" lon="5.79073">
        <ele>404.9</ele>
        <time>2022-04-15T12:56:31Z</time>
      </trkpt>
      <trkpt lat="45.58617" lon="5.79067">
        <ele>405.1</ele>
        <time>2022-04-15T12:56:33Z</time>
      </trkpt>
      <trkpt lat="45.58617" lon="5.79062">
        <ele>405.3</ele>
        <time>2022-04-15T12:56:35Z</time>
      </trkpt>
      <trkpt lat="45.58617" lon="5.7906">
        <ele>405.4</ele>
        <time>2022-04-15T12:56:36Z</time>
      </trkpt>
      <trkpt lat="45.58617" lon="5.79056">
        <ele>405.5</ele>
        <time>2022-04-15T12:56:37Z</time>
      </trkpt>
      <trkpt lat="45.58617" lon="5.79054">
        <ele>405.6</ele>
        <time>2022-04-15T12:56:38Z</time>
      </trkpt>
      <trkpt lat="45.58617" lon="5.7905">
        <ele>405.8</ele>
        <time>2022-04-15T12:56:39Z</time>
      </trkpt>
      <trkpt lat="45.58617" lon="5.79048">
        <ele>405.8</ele>
        <time>2022-04-15T12:56:40Z</time>
      </trkpt>
      <trkpt lat="45.58617" lon="5.79044">
        <ele>406</ele>
        <time>2022-04-15T12:56:41Z</time>
      </trkpt>
      <trkpt lat="45.58617" lon="5.79043">
        <ele>406</ele>
        <time>2022-04-15T12:56:42Z</time>
      </trkpt>
      <trkpt lat="45.58617" lon="5.79039">
        <ele>406.2</ele>
        <time>2022-04-15T12:56:43Z</time>
      </trkpt>
      <trkpt lat="45.58617" lon="5.79037">
        <ele>406.3</ele>
        <time>2022-04-15T12:56:44Z</time>
      </trkpt>
      <trkpt lat="45.58617" lon="5.79034">
        <ele>406.4</ele>
        <time>2022-04-15T12:56:45Z</time>
      </trkpt>
      <trkpt lat="45.58617" lon="5.79029">
        <ele>406.6</ele>
        <time>2022-04-15T12:56:47Z</time>
      </trkpt>
      <trkpt lat="45.58617" lon="5.79025">
        <ele>406.8</ele>
        <time>2022-04-15T12:56:48Z</time>
      </trkpt>
      <trkpt lat="45.58617" lon="5.79023">
        <ele>406.8</ele>
        <time>2022-04-15T12:56:49Z</time>
      </trkpt>
      <trkpt lat="45.58616" lon="5.79019">
        <ele>407</ele>
        <time>2022-04-15T12:56:50Z</time>
      </trkpt>
      <trkpt lat="45.58616" lon="5.79018">
        <ele>407</ele>
        <time>2022-04-15T12:56:51Z</time>
      </trkpt>
      <trkpt lat="45.58616" lon="5.79012">
        <ele>407.2</ele>
        <time>2022-04-15T12:56:52Z</time>
      </trkpt>
      <trkpt lat="45.58616" lon="5.79009">
        <ele>407.3</ele>
        <time>2022-04-15T12:56:53Z</time>
      </trkpt>
      <trkpt lat="45.58616" lon="5.79002">
        <ele>407.5</ele>
        <time>2022-04-15T12:56:55Z</time>
      </trkpt>
      <trkpt lat="45.58616" lon="5.79">
        <ele>407.6</ele>
        <time>2022-04-15T12:56:56Z</time>
      </trkpt>
      <trkpt lat="45.58616" lon="5.78998">
        <ele>407.7</ele>
        <time>2022-04-15T12:56:57Z</time>
      </trkpt>
      <trkpt lat="45.58616" lon="5.78994">
        <ele>407.8</ele>
        <time>2022-04-15T12:56:58Z</time>
      </trkpt>
      <trkpt lat="45.58616" lon="5.78988">
        <ele>408</ele>
        <time>2022-04-15T12:57:00Z</time>
      </trkpt>
      <trkpt lat="45.58615" lon="5.78983">
        <ele>408.2</ele>
        <time>2022-04-15T12:57:01Z</time>
      </trkpt>
      <trkpt lat="45.58615" lon="5.78981">
        <ele>408.2</ele>
        <time>2022-04-15T12:57:02Z</time>
      </trkpt>
      <trkpt lat="45.58615" lon="5.78976">
        <ele>408.4</ele>
        <time>2022-04-15T12:57:03Z</time>
      </trkpt>
      <trkpt lat="45.58615" lon="5.78975">
        <ele>408.4</ele>
        <time>2022-04-15T12:57:04Z</time>
      </trkpt>
      <trkpt lat="45.58616" lon="5.78969">
        <ele>408.6</ele>
        <time>2022-04-15T12:57:06Z</time>
      </trkpt>
      <trkpt lat="45.58616" lon="5.78965">
        <ele>408.8</ele>
        <time>2022-04-15T12:57:07Z</time>
      </trkpt>
      <trkpt lat="45.58616" lon="5.78963">
        <ele>408.8</ele>
        <time>2022-04-15T12:57:08Z</time>
      </trkpt>
      <trkpt lat="45.58616" lon="5.78957">
        <ele>409</ele>
        <time>2022-04-15T12:57:10Z</time>
      </trkpt>
      <trkpt lat="45.58616" lon="5.78955">
        <ele>409.1</ele>
        <time>2022-04-15T12:57:11Z</time>
      </trkpt>
      <trkpt lat="45.58616" lon="5.78953">
        <ele>409.1</ele>
        <time>2022-04-15T12:57:12Z</time>
      </trkpt>
      <trkpt lat="45.58616" lon="5.78949">
        <ele>409.3</ele>
        <time>2022-04-15T12:57:13Z</time>
      </trkpt>
      <trkpt lat="45.58616" lon="5.78947">
        <ele>409.3</ele>
        <time>2022-04-15T12:57:14Z</time>
      </trkpt>
      <trkpt lat="45.58616" lon="5.78942">
        <ele>409.5</ele>
        <time>2022-04-15T12:57:15Z</time>
      </trkpt>
      <trkpt lat="45.58616" lon="5.7894">
        <ele>409.6</ele>
        <time>2022-04-15T12:57:16Z</time>
      </trkpt>
      <trkpt lat="45.58617" lon="5.78937">
        <ele>409.7</ele>
        <time>2022-04-15T12:57:17Z</time>
      </trkpt>
      <trkpt lat="45.58618" lon="5.78931">
        <ele>409.9</ele>
        <time>2022-04-15T12:57:19Z</time>
      </trkpt>
      <trkpt lat="45.58619" lon="5.78925">
        <ele>410.1</ele>
        <time>2022-04-15T12:57:20Z</time>
      </trkpt>
      <trkpt lat="45.58619" lon="5.78922">
        <ele>410.2</ele>
        <time>2022-04-15T12:57:21Z</time>
      </trkpt>
      <trkpt lat="45.58619" lon="5.78918">
        <ele>410.4</ele>
        <time>2022-04-15T12:57:23Z</time>
      </trkpt>
      <trkpt lat="45.5862" lon="5.78912">
        <ele>410.6</ele>
        <time>2022-04-15T12:57:24Z</time>
      </trkpt>
      <trkpt lat="45.5862" lon="5.7891">
        <ele>410.6</ele>
        <time>2022-04-15T12:57:25Z</time>
      </trkpt>
      <trkpt lat="45.5862" lon="5.78905">
        <ele>410.8</ele>
        <time>2022-04-15T12:57:27Z</time>
      </trkpt>
      <trkpt lat="45.5862" lon="5.78904">
        <ele>410.9</ele>
        <time>2022-04-15T12:57:28Z</time>
      </trkpt>
      <trkpt lat="45.5862" lon="5.78899">
        <ele>411</ele>
        <time>2022-04-15T12:57:29Z</time>
      </trkpt>
      <trkpt lat="45.5862" lon="5.78898">
        <ele>411.1</ele>
        <time>2022-04-15T12:57:30Z</time>
      </trkpt>
      <trkpt lat="45.58621" lon="5.78893">
        <ele>411.2</ele>
        <time>2022-04-15T12:57:31Z</time>
      </trkpt>
      <trkpt lat="45.5862" lon="5.78888">
        <ele>411.4</ele>
        <time>2022-04-15T12:57:33Z</time>
      </trkpt>
      <trkpt lat="45.5862" lon="5.78883">
        <ele>411.6</ele>
        <time>2022-04-15T12:57:34Z</time>
      </trkpt>
      <trkpt lat="45.5862" lon="5.78882">
        <ele>411.6</ele>
        <time>2022-04-15T12:57:35Z</time>
      </trkpt>
      <trkpt lat="45.58621" lon="5.78875">
        <ele>411.8</ele>
        <time>2022-04-15T12:57:37Z</time>
      </trkpt>
      <trkpt lat="45.58621" lon="5.7887">
        <ele>412</ele>
        <time>2022-04-15T12:57:38Z</time>
      </trkpt>
      <trkpt lat="45.58621" lon="5.78869">
        <ele>412.1</ele>
        <time>2022-04-15T12:57:39Z</time>
      </trkpt>
      <trkpt lat="45.5862" lon="5.78863">
        <ele>412.3</ele>
        <time>2022-04-15T12:57:40Z</time>
      </trkpt>
      <trkpt lat="45.5862" lon="5.78861">
        <ele>412.3</ele>
        <time>2022-04-15T12:57:41Z</time>
      </trkpt>
      <trkpt lat="45.5862" lon="5.78856">
        <ele>412.5</ele>
        <time>2022-04-15T12:57:42Z</time>
      </trkpt>
      <trkpt lat="45.58619" lon="5.7885">
        <ele>412.8</ele>
        <time>2022-04-15T12:57:44Z</time>
      </trkpt>
      <trkpt lat="45.58619" lon="5.78848">
        <ele>412.9</ele>
        <time>2022-04-15T12:57:45Z</time>
      </trkpt>
      <trkpt lat="45.58619" lon="5.78843">
        <ele>413</ele>
        <time>2022-04-15T12:57:47Z</time>
      </trkpt>
      <trkpt lat="45.58618" lon="5.78839">
        <ele>413.2</ele>
        <time>2022-04-15T12:57:48Z</time>
      </trkpt>
      <trkpt lat="45.58618" lon="5.78831">
        <ele>413.5</ele>
        <time>2022-04-15T12:57:50Z</time>
      </trkpt>
      <trkpt lat="45.58619" lon="5.78829">
        <ele>413.6</ele>
        <time>2022-04-15T12:57:51Z</time>
      </trkpt>
      <trkpt lat="45.58619" lon="5.78825">
        <ele>413.7</ele>
        <time>2022-04-15T12:57:53Z</time>
      </trkpt>
      <trkpt lat="45.58619" lon="5.78818">
        <ele>414</ele>
        <time>2022-04-15T12:57:55Z</time>
      </trkpt>
      <trkpt lat="45.58619" lon="5.78812">
        <ele>414.2</ele>
        <time>2022-04-15T12:57:56Z</time>
      </trkpt>
      <trkpt lat="45.58618" lon="5.78804">
        <ele>414.6</ele>
        <time>2022-04-15T12:57:57Z</time>
      </trkpt>
      <trkpt lat="45.58617" lon="5.78798">
        <ele>414.8</ele>
        <time>2022-04-15T12:57:59Z</time>
      </trkpt>
      <trkpt lat="45.58616" lon="5.7879">
        <ele>415.1</ele>
        <time>2022-04-15T12:58:01Z</time>
      </trkpt>
      <trkpt lat="45.58615" lon="5.78783">
        <ele>415.4</ele>
        <time>2022-04-15T12:58:02Z</time>
      </trkpt>
      <trkpt lat="45.58615" lon="5.78777">
        <ele>415.7</ele>
        <time>2022-04-15T12:58:04Z</time>
      </trkpt>
      <trkpt lat="45.58615" lon="5.78774">
        <ele>415.9</ele>
        <time>2022-04-15T12:58:05Z</time>
      </trkpt>
      <trkpt lat="45.58615" lon="5.78768">
        <ele>416.1</ele>
        <time>2022-04-15T12:58:07Z</time>
      </trkpt>
      <trkpt lat="45.58615" lon="5.78767">
        <ele>416.2</ele>
        <time>2022-04-15T12:58:08Z</time>
      </trkpt>
      <trkpt lat="45.58615" lon="5.78763">
        <ele>416.3</ele>
        <time>2022-04-15T12:58:09Z</time>
      </trkpt>
      <trkpt lat="45.58615" lon="5.78758">
        <ele>416.6</ele>
        <time>2022-04-15T12:58:10Z</time>
      </trkpt>
      <trkpt lat="45.58615" lon="5.78756">
        <ele>416.6</ele>
        <time>2022-04-15T12:58:11Z</time>
      </trkpt>
      <trkpt lat="45.58615" lon="5.78752">
        <ele>416.8</ele>
        <time>2022-04-15T12:58:12Z</time>
      </trkpt>
      <trkpt lat="45.58615" lon="5.7875">
        <ele>416.9</ele>
        <time>2022-04-15T12:58:13Z</time>
      </trkpt>
      <trkpt lat="45.58615" lon="5.78745">
        <ele>417.1</ele>
        <time>2022-04-15T12:58:14Z</time>
      </trkpt>
      <trkpt lat="45.58616" lon="5.7874">
        <ele>417.3</ele>
        <time>2022-04-15T12:58:16Z</time>
      </trkpt>
      <trkpt lat="45.58617" lon="5.78736">
        <ele>417.5</ele>
        <time>2022-04-15T12:58:17Z</time>
      </trkpt>
      <trkpt lat="45.58618" lon="5.7873">
        <ele>417.7</ele>
        <time>2022-04-15T12:58:18Z</time>
      </trkpt>
      <trkpt lat="45.5862" lon="5.78726">
        <ele>417.9</ele>
        <time>2022-04-15T12:58:20Z</time>
      </trkpt>
      <trkpt lat="45.58621" lon="5.78721">
        <ele>418.1</ele>
        <time>2022-04-15T12:58:21Z</time>
      </trkpt>
      <trkpt lat="45.58622" lon="5.78716">
        <ele>418.3</ele>
        <time>2022-04-15T12:58:23Z</time>
      </trkpt>
      <trkpt lat="45.58622" lon="5.78715">
        <ele>418.3</ele>
        <time>2022-04-15T12:58:24Z</time>
      </trkpt>
      <trkpt lat="45.58623" lon="5.78712">
        <ele>418.4</ele>
        <time>2022-04-15T12:58:25Z</time>
      </trkpt>
      <trkpt lat="45.58624" lon="5.78707">
        <ele>418.6</ele>
        <time>2022-04-15T12:58:27Z</time>
      </trkpt>
      <trkpt lat="45.58625" lon="5.78702">
        <ele>418.8</ele>
        <time>2022-04-15T12:58:28Z</time>
      </trkpt>
      <trkpt lat="45.58625" lon="5.78701">
        <ele>418.9</ele>
        <time>2022-04-15T12:58:29Z</time>
      </trkpt>
      <trkpt lat="45.58626" lon="5.78695">
        <ele>419.1</ele>
        <time>2022-04-15T12:58:31Z</time>
      </trkpt>
      <trkpt lat="45.58627" lon="5.7869">
        <ele>419.4</ele>
        <time>2022-04-15T12:58:32Z</time>
      </trkpt>
      <trkpt lat="45.58627" lon="5.78687">
        <ele>419.5</ele>
        <time>2022-04-15T12:58:33Z</time>
      </trkpt>
      <trkpt lat="45.58627" lon="5.78682">
        <ele>419.7</ele>
        <time>2022-04-15T12:58:35Z</time>
      </trkpt>
      <trkpt lat="45.58628" lon="5.78678">
        <ele>419.9</ele>
        <time>2022-04-15T12:58:36Z</time>
      </trkpt>
      <trkpt lat="45.58628" lon="5.78677">
        <ele>420</ele>
        <time>2022-04-15T12:58:37Z</time>
      </trkpt>
      <trkpt lat="45.58629" lon="5.78672">
        <ele>420.2</ele>
        <time>2022-04-15T12:58:38Z</time>
      </trkpt>
      <trkpt lat="45.58629" lon="5.78671">
        <ele>420.3</ele>
        <time>2022-04-15T12:58:39Z</time>
      </trkpt>
      <trkpt lat="45.5863" lon="5.78666">
        <ele>420.5</ele>
        <time>2022-04-15T12:58:41Z</time>
      </trkpt>
      <trkpt lat="45.5863" lon="5.78664">
        <ele>420.6</ele>
        <time>2022-04-15T12:58:42Z</time>
      </trkpt>
      <trkpt lat="45.58631" lon="5.7866">
        <ele>420.7</ele>
        <time>2022-04-15T12:58:43Z</time>
      </trkpt>
      <trkpt lat="45.58632" lon="5.78654">
        <ele>420.9</ele>
        <time>2022-04-15T12:58:44Z</time>
      </trkpt>
      <trkpt lat="45.58632" lon="5.78652">
        <ele>421</ele>
        <time>2022-04-15T12:58:45Z</time>
      </trkpt>
      <trkpt lat="45.58633" lon="5.78648">
        <ele>421.2</ele>
        <time>2022-04-15T12:58:46Z</time>
      </trkpt>
      <trkpt lat="45.58633" lon="5.78643">
        <ele>421.3</ele>
        <time>2022-04-15T12:58:47Z</time>
      </trkpt>
      <trkpt lat="45.58634" lon="5.7864">
        <ele>421.5</ele>
        <time>2022-04-15T12:58:48Z</time>
      </trkpt>
      <trkpt lat="45.58635" lon="5.78635">
        <ele>421.7</ele>
        <time>2022-04-15T12:58:49Z</time>
      </trkpt>
      <trkpt lat="45.58635" lon="5.78634">
        <ele>421.7</ele>
        <time>2022-04-15T12:58:50Z</time>
      </trkpt>
      <trkpt lat="45.58636" lon="5.78629">
        <ele>421.9</ele>
        <time>2022-04-15T12:58:51Z</time>
      </trkpt>
      <trkpt lat="45.58636" lon="5.78627">
        <ele>422</ele>
        <time>2022-04-15T12:58:52Z</time>
      </trkpt>
      <trkpt lat="45.58637" lon="5.78623">
        <ele>422.1</ele>
        <time>2022-04-15T12:58:53Z</time>
      </trkpt>
      <trkpt lat="45.58637" lon="5.78619">
        <ele>422.3</ele>
        <time>2022-04-15T12:58:54Z</time>
      </trkpt>
      <trkpt lat="45.58638" lon="5.78615">
        <ele>422.5</ele>
        <time>2022-04-15T12:58:55Z</time>
      </trkpt>
      <trkpt lat="45.5864" lon="5.78611">
        <ele>422.7</ele>
        <time>2022-04-15T12:58:56Z</time>
      </trkpt>
      <trkpt lat="45.5864" lon="5.78609">
        <ele>422.8</ele>
        <time>2022-04-15T12:58:57Z</time>
      </trkpt>
      <trkpt lat="45.58642" lon="5.78605">
        <ele>423</ele>
        <time>2022-04-15T12:58:58Z</time>
      </trkpt>
      <trkpt lat="45.58642" lon="5.78603">
        <ele>423.1</ele>
        <time>2022-04-15T12:58:59Z</time>
      </trkpt>
      <trkpt lat="45.58645" lon="5.78597">
        <ele>423.5</ele>
        <time>2022-04-15T12:59:01Z</time>
      </trkpt>
      <trkpt lat="45.58648" lon="5.78591">
        <ele>423.8</ele>
        <time>2022-04-15T12:59:03Z</time>
      </trkpt>
      <trkpt lat="45.58651" lon="5.78585">
        <ele>424.1</ele>
        <time>2022-04-15T12:59:04Z</time>
      </trkpt>
      <trkpt lat="45.58652" lon="5.78582">
        <ele>424.3</ele>
        <time>2022-04-15T12:59:05Z</time>
      </trkpt>
      <trkpt lat="45.58654" lon="5.78578">
        <ele>424.5</ele>
        <time>2022-04-15T12:59:07Z</time>
      </trkpt>
      <trkpt lat="45.58656" lon="5.78573">
        <ele>424.7</ele>
        <time>2022-04-15T12:59:08Z</time>
      </trkpt>
      <trkpt lat="45.58656" lon="5.78572">
        <ele>424.8</ele>
        <time>2022-04-15T12:59:09Z</time>
      </trkpt>
      <trkpt lat="45.58658" lon="5.78568">
        <ele>425</ele>
        <time>2022-04-15T12:59:10Z</time>
      </trkpt>
      <trkpt lat="45.58659" lon="5.78567">
        <ele>425.1</ele>
        <time>2022-04-15T12:59:11Z</time>
      </trkpt>
      <trkpt lat="45.58661" lon="5.78564">
        <ele>425.3</ele>
        <time>2022-04-15T12:59:12Z</time>
      </trkpt>
      <trkpt lat="45.58664" lon="5.7856">
        <ele>425.5</ele>
        <time>2022-04-15T12:59:13Z</time>
      </trkpt>
      <trkpt lat="45.58665" lon="5.78559">
        <ele>425.6</ele>
        <time>2022-04-15T12:59:14Z</time>
      </trkpt>
      <trkpt lat="45.58668" lon="5.78555">
        <ele>425.8</ele>
        <time>2022-04-15T12:59:15Z</time>
      </trkpt>
      <trkpt lat="45.58669" lon="5.78554">
        <ele>425.9</ele>
        <time>2022-04-15T12:59:16Z</time>
      </trkpt>
      <trkpt lat="45.58671" lon="5.78551">
        <ele>426.1</ele>
        <time>2022-04-15T12:59:17Z</time>
      </trkpt>
      <trkpt lat="45.58673" lon="5.78549">
        <ele>426.2</ele>
        <time>2022-04-15T12:59:18Z</time>
      </trkpt>
      <trkpt lat="45.58676" lon="5.78546">
        <ele>426.4</ele>
        <time>2022-04-15T12:59:19Z</time>
      </trkpt>
      <trkpt lat="45.58677" lon="5.78545">
        <ele>426.5</ele>
        <time>2022-04-15T12:59:20Z</time>
      </trkpt>
      <trkpt lat="45.5868" lon="5.78543">
        <ele>426.6</ele>
        <time>2022-04-15T12:59:21Z</time>
      </trkpt>
      <trkpt lat="45.58681" lon="5.78542">
        <ele>426.7</ele>
        <time>2022-04-15T12:59:22Z</time>
      </trkpt>
      <trkpt lat="45.58683" lon="5.78539">
        <ele>426.9</ele>
        <time>2022-04-15T12:59:23Z</time>
      </trkpt>
      <trkpt lat="45.58684" lon="5.78539">
        <ele>426.9</ele>
        <time>2022-04-15T12:59:24Z</time>
      </trkpt>
      <trkpt lat="45.58687" lon="5.78536">
        <ele>427.1</ele>
        <time>2022-04-15T12:59:25Z</time>
      </trkpt>
      <trkpt lat="45.58689" lon="5.78535">
        <ele>427.2</ele>
        <time>2022-04-15T12:59:26Z</time>
      </trkpt>
      <trkpt lat="45.5869" lon="5.78533">
        <ele>427.3</ele>
        <time>2022-04-15T12:59:27Z</time>
      </trkpt>
      <trkpt lat="45.58691" lon="5.78532">
        <ele>427.4</ele>
        <time>2022-04-15T12:59:28Z</time>
      </trkpt>
      <trkpt lat="45.58692" lon="5.78531">
        <ele>427.5</ele>
        <time>2022-04-15T12:59:29Z</time>
      </trkpt>
      <trkpt lat="45.58694" lon="5.78529">
        <ele>427.5</ele>
        <time>2022-04-15T12:59:30Z</time>
      </trkpt>
      <trkpt lat="45.58694" lon="5.78528">
        <ele>427.6</ele>
        <time>2022-04-15T12:59:31Z</time>
      </trkpt>
      <trkpt lat="45.58696" lon="5.78526">
        <ele>427.7</ele>
        <time>2022-04-15T12:59:32Z</time>
      </trkpt>
      <trkpt lat="45.58698" lon="5.78523">
        <ele>427.9</ele>
        <time>2022-04-15T12:59:33Z</time>
      </trkpt>
      <trkpt lat="45.58699" lon="5.78522">
        <ele>427.9</ele>
        <time>2022-04-15T12:59:34Z</time>
      </trkpt>
      <trkpt lat="45.58702" lon="5.78519">
        <ele>428.1</ele>
        <time>2022-04-15T12:59:35Z</time>
      </trkpt>
      <trkpt lat="45.58703" lon="5.78518">
        <ele>428.2</ele>
        <time>2022-04-15T12:59:36Z</time>
      </trkpt>
      <trkpt lat="45.58706" lon="5.78516">
        <ele>428.4</ele>
        <time>2022-04-15T12:59:37Z</time>
      </trkpt>
      <trkpt lat="45.58707" lon="5.78515">
        <ele>428.4</ele>
        <time>2022-04-15T12:59:38Z</time>
      </trkpt>
      <trkpt lat="45.5871" lon="5.78513">
        <ele>428.6</ele>
        <time>2022-04-15T12:59:39Z</time>
      </trkpt>
      <trkpt lat="45.58711" lon="5.78512">
        <ele>428.6</ele>
        <time>2022-04-15T12:59:40Z</time>
      </trkpt>
      <trkpt lat="45.58714" lon="5.7851">
        <ele>428.8</ele>
        <time>2022-04-15T12:59:41Z</time>
      </trkpt>
      <trkpt lat="45.58716" lon="5.78506">
        <ele>428.9</ele>
        <time>2022-04-15T12:59:42Z</time>
      </trkpt>
      <trkpt lat="45.58717" lon="5.78505">
        <ele>429</ele>
        <time>2022-04-15T12:59:43Z</time>
      </trkpt>
      <trkpt lat="45.5872" lon="5.78502">
        <ele>429.2</ele>
        <time>2022-04-15T12:59:44Z</time>
      </trkpt>
      <trkpt lat="45.58722" lon="5.78501">
        <ele>429.2</ele>
        <time>2022-04-15T12:59:45Z</time>
      </trkpt>
      <trkpt lat="45.58725" lon="5.78497">
        <ele>429.4</ele>
        <time>2022-04-15T12:59:46Z</time>
      </trkpt>
      <trkpt lat="45.58726" lon="5.78496">
        <ele>429.5</ele>
        <time>2022-04-15T12:59:47Z</time>
      </trkpt>
      <trkpt lat="45.58729" lon="5.78493">
        <ele>429.6</ele>
        <time>2022-04-15T12:59:48Z</time>
      </trkpt>
      <trkpt lat="45.5873" lon="5.78492">
        <ele>429.7</ele>
        <time>2022-04-15T12:59:49Z</time>
      </trkpt>
      <trkpt lat="45.58733" lon="5.78489">
        <ele>429.9</ele>
        <time>2022-04-15T12:59:50Z</time>
      </trkpt>
      <trkpt lat="45.58734" lon="5.78489">
        <ele>429.9</ele>
        <time>2022-04-15T12:59:51Z</time>
      </trkpt>
      <trkpt lat="45.58736" lon="5.78486">
        <ele>430.1</ele>
        <time>2022-04-15T12:59:52Z</time>
      </trkpt>
      <trkpt lat="45.58739" lon="5.78483">
        <ele>430.3</ele>
        <time>2022-04-15T12:59:53Z</time>
      </trkpt>
      <trkpt lat="45.5874" lon="5.78482">
        <ele>430.3</ele>
        <time>2022-04-15T12:59:54Z</time>
      </trkpt>
      <trkpt lat="45.58743" lon="5.78479">
        <ele>430.5</ele>
        <time>2022-04-15T12:59:55Z</time>
      </trkpt>
      <trkpt lat="45.58744" lon="5.78477">
        <ele>430.6</ele>
        <time>2022-04-15T12:59:56Z</time>
      </trkpt>
      <trkpt lat="45.58746" lon="5.78474">
        <ele>430.8</ele>
        <time>2022-04-15T12:59:57Z</time>
      </trkpt>
      <trkpt lat="45.58747" lon="5.78473">
        <ele>430.8</ele>
        <time>2022-04-15T12:59:58Z</time>
      </trkpt>
      <trkpt lat="45.5875" lon="5.78469">
        <ele>431</ele>
        <time>2022-04-15T12:59:59Z</time>
      </trkpt>
      <trkpt lat="45.5875" lon="5.78468">
        <ele>431.1</ele>
        <time>2022-04-15T13:00:00Z</time>
      </trkpt>
      <trkpt lat="45.58753" lon="5.78465">
        <ele>431.3</ele>
        <time>2022-04-15T13:00:01Z</time>
      </trkpt>
      <trkpt lat="45.58754" lon="5.78464">
        <ele>431.3</ele>
        <time>2022-04-15T13:00:02Z</time>
      </trkpt>
      <trkpt lat="45.58757" lon="5.78461">
        <ele>431.5</ele>
        <time>2022-04-15T13:00:03Z</time>
      </trkpt>
      <trkpt lat="45.58758" lon="5.7846">
        <ele>431.6</ele>
        <time>2022-04-15T13:00:04Z</time>
      </trkpt>
      <trkpt lat="45.58761" lon="5.78456">
        <ele>431.8</ele>
        <time>2022-04-15T13:00:05Z</time>
      </trkpt>
      <trkpt lat="45.58761" lon="5.78455">
        <ele>431.9</ele>
        <time>2022-04-15T13:00:06Z</time>
      </trkpt>
      <trkpt lat="45.58764" lon="5.78452">
        <ele>432.1</ele>
        <time>2022-04-15T13:00:07Z</time>
      </trkpt>
      <trkpt lat="45.58765" lon="5.7845">
        <ele>432.2</ele>
        <time>2022-04-15T13:00:08Z</time>
      </trkpt>
      <trkpt lat="45.58767" lon="5.78448">
        <ele>432.3</ele>
        <time>2022-04-15T13:00:09Z</time>
      </trkpt>
      <trkpt lat="45.5877" lon="5.78444">
        <ele>432.5</ele>
        <time>2022-04-15T13:00:10Z</time>
      </trkpt>
      <trkpt lat="45.5877" lon="5.78443">
        <ele>432.6</ele>
        <time>2022-04-15T13:00:11Z</time>
      </trkpt>
      <trkpt lat="45.58773" lon="5.7844">
        <ele>432.8</ele>
        <time>2022-04-15T13:00:12Z</time>
      </trkpt>
      <trkpt lat="45.58774" lon="5.78439">
        <ele>432.8</ele>
        <time>2022-04-15T13:00:13Z</time>
      </trkpt>
      <trkpt lat="45.58776" lon="5.78435">
        <ele>433</ele>
        <time>2022-04-15T13:00:14Z</time>
      </trkpt>
      <trkpt lat="45.58777" lon="5.78433">
        <ele>433.1</ele>
        <time>2022-04-15T13:00:15Z</time>
      </trkpt>
      <trkpt lat="45.58779" lon="5.7843">
        <ele>433.3</ele>
        <time>2022-04-15T13:00:16Z</time>
      </trkpt>
      <trkpt lat="45.5878" lon="5.78429">
        <ele>433.4</ele>
        <time>2022-04-15T13:00:17Z</time>
      </trkpt>
      <trkpt lat="45.58782" lon="5.78425">
        <ele>433.6</ele>
        <time>2022-04-15T13:00:18Z</time>
      </trkpt>
      <trkpt lat="45.58783" lon="5.78424">
        <ele>433.6</ele>
        <time>2022-04-15T13:00:19Z</time>
      </trkpt>
      <trkpt lat="45.58786" lon="5.78421">
        <ele>433.9</ele>
        <time>2022-04-15T13:00:20Z</time>
      </trkpt>
      <trkpt lat="45.58787" lon="5.7842">
        <ele>433.9</ele>
        <time>2022-04-15T13:00:21Z</time>
      </trkpt>
      <trkpt lat="45.58789" lon="5.78417">
        <ele>434.1</ele>
        <time>2022-04-15T13:00:22Z</time>
      </trkpt>
      <trkpt lat="45.5879" lon="5.78416">
        <ele>434.2</ele>
        <time>2022-04-15T13:00:23Z</time>
      </trkpt>
      <trkpt lat="45.58792" lon="5.78413">
        <ele>434.4</ele>
        <time>2022-04-15T13:00:24Z</time>
      </trkpt>
      <trkpt lat="45.58793" lon="5.78412">
        <ele>434.5</ele>
        <time>2022-04-15T13:00:25Z</time>
      </trkpt>
      <trkpt lat="45.58796" lon="5.78409">
        <ele>434.7</ele>
        <time>2022-04-15T13:00:26Z</time>
      </trkpt>
      <trkpt lat="45.58796" lon="5.78408">
        <ele>434.7</ele>
        <time>2022-04-15T13:00:27Z</time>
      </trkpt>
      <trkpt lat="45.58799" lon="5.78405">
        <ele>434.9</ele>
        <time>2022-04-15T13:00:28Z</time>
      </trkpt>
      <trkpt lat="45.588" lon="5.78404">
        <ele>435</ele>
        <time>2022-04-15T13:00:29Z</time>
      </trkpt>
      <trkpt lat="45.58802" lon="5.78401">
        <ele>435.2</ele>
        <time>2022-04-15T13:00:30Z</time>
      </trkpt>
      <trkpt lat="45.58803" lon="5.784">
        <ele>435.3</ele>
        <time>2022-04-15T13:00:31Z</time>
      </trkpt>
      <trkpt lat="45.58805" lon="5.78397">
        <ele>435.5</ele>
        <time>2022-04-15T13:00:32Z</time>
      </trkpt>
      <trkpt lat="45.58806" lon="5.78396">
        <ele>435.6</ele>
        <time>2022-04-15T13:00:33Z</time>
      </trkpt>
      <trkpt lat="45.58808" lon="5.78393">
        <ele>435.8</ele>
        <time>2022-04-15T13:00:34Z</time>
      </trkpt>
      <trkpt lat="45.58809" lon="5.78391">
        <ele>435.8</ele>
        <time>2022-04-15T13:00:35Z</time>
      </trkpt>
      <trkpt lat="45.58812" lon="5.78388">
        <ele>436.1</ele>
        <time>2022-04-15T13:00:36Z</time>
      </trkpt>
      <trkpt lat="45.58813" lon="5.78387">
        <ele>436.2</ele>
        <time>2022-04-15T13:00:37Z</time>
      </trkpt>
      <trkpt lat="45.58815" lon="5.78383">
        <ele>436.4</ele>
        <time>2022-04-15T13:00:38Z</time>
      </trkpt>
      <trkpt lat="45.58816" lon="5.78382">
        <ele>436.5</ele>
        <time>2022-04-15T13:00:39Z</time>
      </trkpt>
      <trkpt lat="45.58819" lon="5.78379">
        <ele>436.6</ele>
        <time>2022-04-15T13:00:40Z</time>
      </trkpt>
      <trkpt lat="45.5882" lon="5.78378">
        <ele>436.7</ele>
        <time>2022-04-15T13:00:41Z</time>
      </trkpt>
      <trkpt lat="45.58823" lon="5.78374">
        <ele>437</ele>
        <time>2022-04-15T13:00:42Z</time>
      </trkpt>
      <trkpt lat="45.58824" lon="5.78373">
        <ele>437</ele>
        <time>2022-04-15T13:00:43Z</time>
      </trkpt>
      <trkpt lat="45.58826" lon="5.7837">
        <ele>437.2</ele>
        <time>2022-04-15T13:00:44Z</time>
      </trkpt>
      <trkpt lat="45.58827" lon="5.78368">
        <ele>437.3</ele>
        <time>2022-04-15T13:00:45Z</time>
      </trkpt>
      <trkpt lat="45.5883" lon="5.78365">
        <ele>437.5</ele>
        <time>2022-04-15T13:00:46Z</time>
      </trkpt>
      <trkpt lat="45.58831" lon="5.78364">
        <ele>437.6</ele>
        <time>2022-04-15T13:00:47Z</time>
      </trkpt>
      <trkpt lat="45.58835" lon="5.78361">
        <ele>437.8</ele>
        <time>2022-04-15T13:00:48Z</time>
      </trkpt>
      <trkpt lat="45.58836" lon="5.7836">
        <ele>437.9</ele>
        <time>2022-04-15T13:00:49Z</time>
      </trkpt>
      <trkpt lat="45.58838" lon="5.78358">
        <ele>438</ele>
        <time>2022-04-15T13:00:50Z</time>
      </trkpt>
      <trkpt lat="45.58841" lon="5.78355">
        <ele>438.2</ele>
        <time>2022-04-15T13:00:51Z</time>
      </trkpt>
      <trkpt lat="45.58843" lon="5.78354">
        <ele>438.3</ele>
        <time>2022-04-15T13:00:52Z</time>
      </trkpt>
      <trkpt lat="45.58845" lon="5.78352">
        <ele>438.5</ele>
        <time>2022-04-15T13:00:53Z</time>
      </trkpt>
      <trkpt lat="45.58846" lon="5.78351">
        <ele>438.5</ele>
        <time>2022-04-15T13:00:54Z</time>
      </trkpt>
      <trkpt lat="45.58848" lon="5.78349">
        <ele>438.7</ele>
        <time>2022-04-15T13:00:55Z</time>
      </trkpt>
      <trkpt lat="45.58851" lon="5.78346">
        <ele>438.8</ele>
        <time>2022-04-15T13:00:56Z</time>
      </trkpt>
      <trkpt lat="45.58852" lon="5.78346">
        <ele>438.9</ele>
        <time>2022-04-15T13:00:57Z</time>
      </trkpt>
      <trkpt lat="45.58855" lon="5.78343">
        <ele>439.1</ele>
        <time>2022-04-15T13:00:58Z</time>
      </trkpt>
      <trkpt lat="45.58856" lon="5.78342">
        <ele>439.2</ele>
        <time>2022-04-15T13:00:59Z</time>
      </trkpt>
      <trkpt lat="45.58859" lon="5.78339">
        <ele>439.4</ele>
        <time>2022-04-15T13:01:00Z</time>
      </trkpt>
      <trkpt lat="45.5886" lon="5.78338">
        <ele>439.5</ele>
        <time>2022-04-15T13:01:01Z</time>
      </trkpt>
      <trkpt lat="45.58863" lon="5.78335">
        <ele>439.6</ele>
        <time>2022-04-15T13:01:02Z</time>
      </trkpt>
      <trkpt lat="45.58864" lon="5.78335">
        <ele>439.7</ele>
        <time>2022-04-15T13:01:03Z</time>
      </trkpt>
      <trkpt lat="45.58866" lon="5.78333">
        <ele>439.8</ele>
        <time>2022-04-15T13:01:04Z</time>
      </trkpt>
      <trkpt lat="45.58869" lon="5.7833">
        <ele>440</ele>
        <time>2022-04-15T13:01:05Z</time>
      </trkpt>
      <trkpt lat="45.58872" lon="5.78327">
        <ele>440.2</ele>
        <time>2022-04-15T13:01:06Z</time>
      </trkpt>
      <trkpt lat="45.58873" lon="5.78326">
        <ele>440.3</ele>
        <time>2022-04-15T13:01:07Z</time>
      </trkpt>
      <trkpt lat="45.58876" lon="5.78324">
        <ele>440.5</ele>
        <time>2022-04-15T13:01:08Z</time>
      </trkpt>
      <trkpt lat="45.58877" lon="5.78323">
        <ele>440.6</ele>
        <time>2022-04-15T13:01:09Z</time>
      </trkpt>
      <trkpt lat="45.5888" lon="5.7832">
        <ele>440.8</ele>
        <time>2022-04-15T13:01:10Z</time>
      </trkpt>
      <trkpt lat="45.58881" lon="5.78319">
        <ele>440.8</ele>
        <time>2022-04-15T13:01:11Z</time>
      </trkpt>
      <trkpt lat="45.58884" lon="5.78317">
        <ele>441</ele>
        <time>2022-04-15T13:01:12Z</time>
      </trkpt>
      <trkpt lat="45.58885" lon="5.78317">
        <ele>441.1</ele>
        <time>2022-04-15T13:01:13Z</time>
      </trkpt>
      <trkpt lat="45.58887" lon="5.78315">
        <ele>441.2</ele>
        <time>2022-04-15T13:01:14Z</time>
      </trkpt>
      <trkpt lat="45.5889" lon="5.78312">
        <ele>441.4</ele>
        <time>2022-04-15T13:01:15Z</time>
      </trkpt>
      <trkpt lat="45.58891" lon="5.78311">
        <ele>441.5</ele>
        <time>2022-04-15T13:01:16Z</time>
      </trkpt>
      <trkpt lat="45.58894" lon="5.78309">
        <ele>441.7</ele>
        <time>2022-04-15T13:01:17Z</time>
      </trkpt>
      <trkpt lat="45.58895" lon="5.78308">
        <ele>441.7</ele>
        <time>2022-04-15T13:01:18Z</time>
      </trkpt>
      <trkpt lat="45.58897" lon="5.78306">
        <ele>441.9</ele>
        <time>2022-04-15T13:01:19Z</time>
      </trkpt>
      <trkpt lat="45.58898" lon="5.78305">
        <ele>442</ele>
        <time>2022-04-15T13:01:20Z</time>
      </trkpt>
      <trkpt lat="45.58901" lon="5.78302">
        <ele>442.2</ele>
        <time>2022-04-15T13:01:21Z</time>
      </trkpt>
      <trkpt lat="45.58902" lon="5.78302">
        <ele>442.2</ele>
        <time>2022-04-15T13:01:22Z</time>
      </trkpt>
      <trkpt lat="45.58905" lon="5.78299">
        <ele>442.4</ele>
        <time>2022-04-15T13:01:23Z</time>
      </trkpt>
      <trkpt lat="45.58906" lon="5.78298">
        <ele>442.5</ele>
        <time>2022-04-15T13:01:24Z</time>
      </trkpt>
      <trkpt lat="45.5891" lon="5.78295">
        <ele>442.6</ele>
        <time>2022-04-15T13:01:26Z</time>
      </trkpt>
      <trkpt lat="45.58913" lon="5.78293">
        <ele>442.8</ele>
        <time>2022-04-15T13:01:27Z</time>
      </trkpt>
      <trkpt lat="45.58914" lon="5.78292">
        <ele>442.8</ele>
        <time>2022-04-15T13:01:28Z</time>
      </trkpt>
      <trkpt lat="45.58916" lon="5.7829">
        <ele>443</ele>
        <time>2022-04-15T13:01:29Z</time>
      </trkpt>
      <trkpt lat="45.58917" lon="5.78289">
        <ele>443</ele>
        <time>2022-04-15T13:01:30Z</time>
      </trkpt>
      <trkpt lat="45.58922" lon="5.78286">
        <ele>443.2</ele>
        <time>2022-04-15T13:01:31Z</time>
      </trkpt>
      <trkpt lat="45.58924" lon="5.78283">
        <ele>443.4</ele>
        <time>2022-04-15T13:01:32Z</time>
      </trkpt>
      <trkpt lat="45.58927" lon="5.78281">
        <ele>443.5</ele>
        <time>2022-04-15T13:01:34Z</time>
      </trkpt>
      <trkpt lat="45.5893" lon="5.7828">
        <ele>443.6</ele>
        <time>2022-04-15T13:01:35Z</time>
      </trkpt>
      <trkpt lat="45.58933" lon="5.78278">
        <ele>443.7</ele>
        <time>2022-04-15T13:01:36Z</time>
      </trkpt>
      <trkpt lat="45.58936" lon="5.78276">
        <ele>443.8</ele>
        <time>2022-04-15T13:01:37Z</time>
      </trkpt>
      <trkpt lat="45.58941" lon="5.78273">
        <ele>444.1</ele>
        <time>2022-04-15T13:01:39Z</time>
      </trkpt>
      <trkpt lat="45.58946" lon="5.7827">
        <ele>444.2</ele>
        <time>2022-04-15T13:01:41Z</time>
      </trkpt>
      <trkpt lat="45.58951" lon="5.78268">
        <ele>444.4</ele>
        <time>2022-04-15T13:01:42Z</time>
      </trkpt>
      <trkpt lat="45.58954" lon="5.78266">
        <ele>444.5</ele>
        <time>2022-04-15T13:01:44Z</time>
      </trkpt>
      <trkpt lat="45.58956" lon="5.78265">
        <ele>444.5</ele>
        <time>2022-04-15T13:01:45Z</time>
      </trkpt>
      <trkpt lat="45.5896" lon="5.78262">
        <ele>444.7</ele>
        <time>2022-04-15T13:01:46Z</time>
      </trkpt>
      <trkpt lat="45.58961" lon="5.78261">
        <ele>444.7</ele>
        <time>2022-04-15T13:01:47Z</time>
      </trkpt>
      <trkpt lat="45.58965" lon="5.78258">
        <ele>444.8</ele>
        <time>2022-04-15T13:01:48Z</time>
      </trkpt>
      <trkpt lat="45.58968" lon="5.78256">
        <ele>444.9</ele>
        <time>2022-04-15T13:01:50Z</time>
      </trkpt>
      <trkpt lat="45.5897" lon="5.78255">
        <ele>444.9</ele>
        <time>2022-04-15T13:01:51Z</time>
      </trkpt>
      <trkpt lat="45.58973" lon="5.78253">
        <ele>445</ele>
        <time>2022-04-15T13:01:52Z</time>
      </trkpt>
      <trkpt lat="45.58978" lon="5.7825">
        <ele>445</ele>
        <time>2022-04-15T13:01:54Z</time>
      </trkpt>
      <trkpt lat="45.58981" lon="5.78248">
        <ele>445</ele>
        <time>2022-04-15T13:01:55Z</time>
      </trkpt>
      <trkpt lat="45.58986" lon="5.78245">
        <ele>445</ele>
        <time>2022-04-15T13:01:57Z</time>
      </trkpt>
      <trkpt lat="45.58989" lon="5.78243">
        <ele>445</ele>
        <time>2022-04-15T13:01:58Z</time>
      </trkpt>
      <trkpt lat="45.58991" lon="5.78242">
        <ele>445</ele>
        <time>2022-04-15T13:01:59Z</time>
      </trkpt>
      <trkpt lat="45.58994" lon="5.7824">
        <ele>444.9</ele>
        <time>2022-04-15T13:02:00Z</time>
      </trkpt>
      <trkpt lat="45.58997" lon="5.78238">
        <ele>444.9</ele>
        <time>2022-04-15T13:02:01Z</time>
      </trkpt>
      <trkpt lat="45.59001" lon="5.78236">
        <ele>444.8</ele>
        <time>2022-04-15T13:02:02Z</time>
      </trkpt>
      <trkpt lat="45.59008" lon="5.7823">
        <ele>444.7</ele>
        <time>2022-04-15T13:02:04Z</time>
      </trkpt>
      <trkpt lat="45.59013" lon="5.78227">
        <ele>444.6</ele>
        <time>2022-04-15T13:02:05Z</time>
      </trkpt>
      <trkpt lat="45.59018" lon="5.78223">
        <ele>444.4</ele>
        <time>2022-04-15T13:02:06Z</time>
      </trkpt>
      <trkpt lat="45.59025" lon="5.78217">
        <ele>444.3</ele>
        <time>2022-04-15T13:02:08Z</time>
      </trkpt>
      <trkpt lat="45.59029" lon="5.78214">
        <ele>444.2</ele>
        <time>2022-04-15T13:02:09Z</time>
      </trkpt>
      <trkpt lat="45.59033" lon="5.78211">
        <ele>444.1</ele>
        <time>2022-04-15T13:02:10Z</time>
      </trkpt>
      <trkpt lat="45.59037" lon="5.78208">
        <ele>444</ele>
        <time>2022-04-15T13:02:11Z</time>
      </trkpt>
      <trkpt lat="45.59042" lon="5.78205">
        <ele>443.9</ele>
        <time>2022-04-15T13:02:12Z</time>
      </trkpt>
      <trkpt lat="45.59046" lon="5.78202">
        <ele>443.8</ele>
        <time>2022-04-15T13:02:13Z</time>
      </trkpt>
      <trkpt lat="45.5905" lon="5.78199">
        <ele>443.7</ele>
        <time>2022-04-15T13:02:14Z</time>
      </trkpt>
      <trkpt lat="45.59055" lon="5.78196">
        <ele>443.6</ele>
        <time>2022-04-15T13:02:15Z</time>
      </trkpt>
      <trkpt lat="45.59059" lon="5.78192">
        <ele>443.4</ele>
        <time>2022-04-15T13:02:16Z</time>
      </trkpt>
      <trkpt lat="45.59064" lon="5.78189">
        <ele>443.3</ele>
        <time>2022-04-15T13:02:17Z</time>
      </trkpt>
      <trkpt lat="45.59069" lon="5.78185">
        <ele>443.2</ele>
        <time>2022-04-15T13:02:18Z</time>
      </trkpt>
      <trkpt lat="45.59074" lon="5.78181">
        <ele>443.1</ele>
        <time>2022-04-15T13:02:19Z</time>
      </trkpt>
      <trkpt lat="45.59079" lon="5.78178">
        <ele>442.9</ele>
        <time>2022-04-15T13:02:20Z</time>
      </trkpt>
      <trkpt lat="45.59085" lon="5.78174">
        <ele>442.8</ele>
        <time>2022-04-15T13:02:21Z</time>
      </trkpt>
      <trkpt lat="45.5909" lon="5.7817">
        <ele>442.7</ele>
        <time>2022-04-15T13:02:22Z</time>
      </trkpt>
      <trkpt lat="45.59096" lon="5.78166">
        <ele>442.5</ele>
        <time>2022-04-15T13:02:23Z</time>
      </trkpt>
      <trkpt lat="45.59101" lon="5.78163">
        <ele>442.4</ele>
        <time>2022-04-15T13:02:24Z</time>
      </trkpt>
      <trkpt lat="45.59107" lon="5.78159">
        <ele>442.3</ele>
        <time>2022-04-15T13:02:25Z</time>
      </trkpt>
      <trkpt lat="45.59112" lon="5.78155">
        <ele>442.2</ele>
        <time>2022-04-15T13:02:26Z</time>
      </trkpt>
      <trkpt lat="45.59118" lon="5.78151">
        <ele>442.1</ele>
        <time>2022-04-15T13:02:27Z</time>
      </trkpt>
      <trkpt lat="45.59124" lon="5.78147">
        <ele>442</ele>
        <time>2022-04-15T13:02:28Z</time>
      </trkpt>
      <trkpt lat="45.59129" lon="5.78142">
        <ele>441.9</ele>
        <time>2022-04-15T13:02:29Z</time>
      </trkpt>
      <trkpt lat="45.59135" lon="5.78138">
        <ele>441.8</ele>
        <time>2022-04-15T13:02:30Z</time>
      </trkpt>
      <trkpt lat="45.59141" lon="5.78133">
        <ele>441.6</ele>
        <time>2022-04-15T13:02:31Z</time>
      </trkpt>
      <trkpt lat="45.59146" lon="5.78129">
        <ele>441.5</ele>
        <time>2022-04-15T13:02:32Z</time>
      </trkpt>
      <trkpt lat="45.59153" lon="5.78125">
        <ele>441.4</ele>
        <time>2022-04-15T13:02:33Z</time>
      </trkpt>
      <trkpt lat="45.59159" lon="5.7812">
        <ele>441.2</ele>
        <time>2022-04-15T13:02:34Z</time>
      </trkpt>
      <trkpt lat="45.59165" lon="5.78116">
        <ele>441.1</ele>
        <time>2022-04-15T13:02:35Z</time>
      </trkpt>
      <trkpt lat="45.59171" lon="5.78112">
        <ele>441</ele>
        <time>2022-04-15T13:02:36Z</time>
      </trkpt>
      <trkpt lat="45.59177" lon="5.78108">
        <ele>440.9</ele>
        <time>2022-04-15T13:02:37Z</time>
      </trkpt>
      <trkpt lat="45.59183" lon="5.78104">
        <ele>440.7</ele>
        <time>2022-04-15T13:02:38Z</time>
      </trkpt>
      <trkpt lat="45.59189" lon="5.78099">
        <ele>440.6</ele>
        <time>2022-04-15T13:02:39Z</time>
      </trkpt>
      <trkpt lat="45.59195" lon="5.78095">
        <ele>440.5</ele>
        <time>2022-04-15T13:02:40Z</time>
      </trkpt>
      <trkpt lat="45.59202" lon="5.78091">
        <ele>440.4</ele>
        <time>2022-04-15T13:02:41Z</time>
      </trkpt>
      <trkpt lat="45.59208" lon="5.78087">
        <ele>440.3</ele>
        <time>2022-04-15T13:02:42Z</time>
      </trkpt>
      <trkpt lat="45.59215" lon="5.78083">
        <ele>440.1</ele>
        <time>2022-04-15T13:02:43Z</time>
      </trkpt>
      <trkpt lat="45.59221" lon="5.78078">
        <ele>440</ele>
        <time>2022-04-15T13:02:44Z</time>
      </trkpt>
      <trkpt lat="45.59227" lon="5.78074">
        <ele>439.9</ele>
        <time>2022-04-15T13:02:45Z</time>
      </trkpt>
      <trkpt lat="45.59233" lon="5.7807">
        <ele>439.8</ele>
        <time>2022-04-15T13:02:46Z</time>
      </trkpt>
      <trkpt lat="45.59239" lon="5.78065">
        <ele>439.6</ele>
        <time>2022-04-15T13:02:47Z</time>
      </trkpt>
      <trkpt lat="45.59245" lon="5.78061">
        <ele>439.5</ele>
        <time>2022-04-15T13:02:48Z</time>
      </trkpt>
      <trkpt lat="45.59252" lon="5.78057">
        <ele>439.3</ele>
        <time>2022-04-15T13:02:49Z</time>
      </trkpt>
      <trkpt lat="45.59258" lon="5.78052">
        <ele>439.2</ele>
        <time>2022-04-15T13:02:50Z</time>
      </trkpt>
      <trkpt lat="45.59264" lon="5.78048">
        <ele>439</ele>
        <time>2022-04-15T13:02:51Z</time>
      </trkpt>
      <trkpt lat="45.59271" lon="5.78043">
        <ele>438.8</ele>
        <time>2022-04-15T13:02:52Z</time>
      </trkpt>
      <trkpt lat="45.59278" lon="5.78039">
        <ele>438.6</ele>
        <time>2022-04-15T13:02:53Z</time>
      </trkpt>
      <trkpt lat="45.59285" lon="5.78034">
        <ele>438.5</ele>
        <time>2022-04-15T13:02:54Z</time>
      </trkpt>
      <trkpt lat="45.59292" lon="5.7803">
        <ele>438.4</ele>
        <time>2022-04-15T13:02:55Z</time>
      </trkpt>
      <trkpt lat="45.59299" lon="5.78024">
        <ele>438.2</ele>
        <time>2022-04-15T13:02:56Z</time>
      </trkpt>
      <trkpt lat="45.59305" lon="5.78018">
        <ele>438.2</ele>
        <time>2022-04-15T13:02:57Z</time>
      </trkpt>
      <trkpt lat="45.59311" lon="5.78012">
        <ele>438.1</ele>
        <time>2022-04-15T13:02:58Z</time>
      </trkpt>
      <trkpt lat="45.59316" lon="5.78005">
        <ele>438</ele>
        <time>2022-04-15T13:02:59Z</time>
      </trkpt>
      <trkpt lat="45.59322" lon="5.77998">
        <ele>437.9</ele>
        <time>2022-04-15T13:03:00Z</time>
      </trkpt>
      <trkpt lat="45.59326" lon="5.7799">
        <ele>437.9</ele>
        <time>2022-04-15T13:03:01Z</time>
      </trkpt>
      <trkpt lat="45.59331" lon="5.77982">
        <ele>437.8</ele>
        <time>2022-04-15T13:03:02Z</time>
      </trkpt>
      <trkpt lat="45.59335" lon="5.77974">
        <ele>437.7</ele>
        <time>2022-04-15T13:03:03Z</time>
      </trkpt>
      <trkpt lat="45.59338" lon="5.77965">
        <ele>437.7</ele>
        <time>2022-04-15T13:03:04Z</time>
      </trkpt>
      <trkpt lat="45.59341" lon="5.77957">
        <ele>437.6</ele>
        <time>2022-04-15T13:03:05Z</time>
      </trkpt>
      <trkpt lat="45.59344" lon="5.77947">
        <ele>437.5</ele>
        <time>2022-04-15T13:03:06Z</time>
      </trkpt>
      <trkpt lat="45.59346" lon="5.77938">
        <ele>437.4</ele>
        <time>2022-04-15T13:03:07Z</time>
      </trkpt>
      <trkpt lat="45.59349" lon="5.77928">
        <ele>437.3</ele>
        <time>2022-04-15T13:03:08Z</time>
      </trkpt>
      <trkpt lat="45.59351" lon="5.77919">
        <ele>437.2</ele>
        <time>2022-04-15T13:03:09Z</time>
      </trkpt>
      <trkpt lat="45.59353" lon="5.7791">
        <ele>437.1</ele>
        <time>2022-04-15T13:03:10Z</time>
      </trkpt>
      <trkpt lat="45.59354" lon="5.779">
        <ele>437</ele>
        <time>2022-04-15T13:03:11Z</time>
      </trkpt>
      <trkpt lat="45.59356" lon="5.77891">
        <ele>437</ele>
        <time>2022-04-15T13:03:12Z</time>
      </trkpt>
      <trkpt lat="45.59358" lon="5.77882">
        <ele>436.9</ele>
        <time>2022-04-15T13:03:13Z</time>
      </trkpt>
      <trkpt lat="45.5936" lon="5.77873">
        <ele>436.9</ele>
        <time>2022-04-15T13:03:14Z</time>
      </trkpt>
      <trkpt lat="45.59362" lon="5.77864">
        <ele>436.9</ele>
        <time>2022-04-15T13:03:15Z</time>
      </trkpt>
      <trkpt lat="45.59364" lon="5.77855">
        <ele>436.8</ele>
        <time>2022-04-15T13:03:16Z</time>
      </trkpt>
      <trkpt lat="45.59367" lon="5.77846">
        <ele>436.8</ele>
        <time>2022-04-15T13:03:17Z</time>
      </trkpt>
      <trkpt lat="45.59371" lon="5.7784">
        <ele>436.8</ele>
        <time>2022-04-15T13:03:18Z</time>
      </trkpt>
      <trkpt lat="45.59377" lon="5.77835">
        <ele>436.8</ele>
        <time>2022-04-15T13:03:19Z</time>
      </trkpt>
      <trkpt lat="45.59381" lon="5.77829">
        <ele>436.9</ele>
        <time>2022-04-15T13:03:20Z</time>
      </trkpt>
      <trkpt lat="45.59383" lon="5.77821">
        <ele>436.9</ele>
        <time>2022-04-15T13:03:21Z</time>
      </trkpt>
      <trkpt lat="45.59383" lon="5.77813">
        <ele>436.8</ele>
        <time>2022-04-15T13:03:22Z</time>
      </trkpt>
      <trkpt lat="45.59381" lon="5.77804">
        <ele>436.7</ele>
        <time>2022-04-15T13:03:23Z</time>
      </trkpt>
      <trkpt lat="45.5938" lon="5.77796">
        <ele>436.4</ele>
        <time>2022-04-15T13:03:24Z</time>
      </trkpt>
      <trkpt lat="45.5938" lon="5.77788">
        <ele>436.3</ele>
        <time>2022-04-15T13:03:25Z</time>
      </trkpt>
      <trkpt lat="45.59379" lon="5.77779">
        <ele>436.2</ele>
        <time>2022-04-15T13:03:26Z</time>
      </trkpt>
      <trkpt lat="45.5938" lon="5.7777">
        <ele>436.1</ele>
        <time>2022-04-15T13:03:27Z</time>
      </trkpt>
      <trkpt lat="45.59381" lon="5.77762">
        <ele>436</ele>
        <time>2022-04-15T13:03:28Z</time>
      </trkpt>
      <trkpt lat="45.59382" lon="5.77753">
        <ele>435.9</ele>
        <time>2022-04-15T13:03:29Z</time>
      </trkpt>
      <trkpt lat="45.59384" lon="5.77745">
        <ele>435.9</ele>
        <time>2022-04-15T13:03:30Z</time>
      </trkpt>
      <trkpt lat="45.59386" lon="5.77738">
        <ele>435.8</ele>
        <time>2022-04-15T13:03:31Z</time>
      </trkpt>
      <trkpt lat="45.59388" lon="5.7773">
        <ele>435.7</ele>
        <time>2022-04-15T13:03:32Z</time>
      </trkpt>
      <trkpt lat="45.59389" lon="5.77723">
        <ele>435.6</ele>
        <time>2022-04-15T13:03:33Z</time>
      </trkpt>
      <trkpt lat="45.59391" lon="5.77716">
        <ele>435.6</ele>
        <time>2022-04-15T13:03:34Z</time>
      </trkpt>
      <trkpt lat="45.59392" lon="5.77708">
        <ele>435.5</ele>
        <time>2022-04-15T13:03:35Z</time>
      </trkpt>
      <trkpt lat="45.59393" lon="5.77701">
        <ele>435.4</ele>
        <time>2022-04-15T13:03:36Z</time>
      </trkpt>
      <trkpt lat="45.59394" lon="5.77694">
        <ele>435.4</ele>
        <time>2022-04-15T13:03:37Z</time>
      </trkpt>
      <trkpt lat="45.59396" lon="5.77687">
        <ele>435.3</ele>
        <time>2022-04-15T13:03:38Z</time>
      </trkpt>
      <trkpt lat="45.59399" lon="5.77683">
        <ele>435.2</ele>
        <time>2022-04-15T13:03:39Z</time>
      </trkpt>
      <trkpt lat="45.59403" lon="5.77681">
        <ele>435.2</ele>
        <time>2022-04-15T13:03:40Z</time>
      </trkpt>
      <trkpt lat="45.59407" lon="5.77681">
        <ele>435.1</ele>
        <time>2022-04-15T13:03:41Z</time>
      </trkpt>
      <trkpt lat="45.59409" lon="5.77682">
        <ele>435.1</ele>
        <time>2022-04-15T13:03:42Z</time>
      </trkpt>
      <trkpt lat="45.59412" lon="5.77683">
        <ele>435</ele>
        <time>2022-04-15T13:03:43Z</time>
      </trkpt>
      <trkpt lat="45.59413" lon="5.77684">
        <ele>435</ele>
        <time>2022-04-15T13:03:44Z</time>
      </trkpt>
      <trkpt lat="45.59415" lon="5.77685">
        <ele>435</ele>
        <time>2022-04-15T13:03:45Z</time>
      </trkpt>
      <trkpt lat="45.59415" lon="5.77686">
        <ele>435</ele>
        <time>2022-04-15T13:03:46Z</time>
      </trkpt>
      <trkpt lat="45.59415" lon="5.77686">
        <ele>435</ele>
        <time>2022-04-15T13:03:47Z</time>
      </trkpt>
      <trkpt lat="45.59414" lon="5.77686">
        <ele>435</ele>
        <time>2022-04-15T13:03:48Z</time>
      </trkpt>
      <trkpt lat="45.59414" lon="5.77686">
        <ele>435</ele>
        <time>2022-04-15T13:03:49Z</time>
      </trkpt>
      <trkpt lat="45.59414" lon="5.77686">
        <ele>435</ele>
        <time>2022-04-15T13:03:50Z</time>
      </trkpt>
      <trkpt lat="45.59414" lon="5.77686">
        <ele>435</ele>
        <time>2022-04-15T13:03:51Z</time>
      </trkpt>
      <trkpt lat="45.59414" lon="5.77687">
        <ele>435</ele>
        <time>2022-04-15T13:03:52Z</time>
      </trkpt>
      <trkpt lat="45.59413" lon="5.77687">
        <ele>435</ele>
        <time>2022-04-15T13:03:53Z</time>
      </trkpt>
      <trkpt lat="45.59413" lon="5.77687">
        <ele>435</ele>
        <time>2022-04-15T13:03:54Z</time>
      </trkpt>
      <trkpt lat="45.59413" lon="5.77687">
        <ele>435</ele>
        <time>2022-04-15T13:03:55Z</time>
      </trkpt>
      <trkpt lat="45.59414" lon="5.77687">
        <ele>435</ele>
        <time>2022-04-15T13:03:56Z</time>
      </trkpt>
      <trkpt lat="45.59414" lon="5.77687">
        <ele>435</ele>
        <time>2022-04-15T13:03:57Z</time>
      </trkpt>
      <trkpt lat="45.59414" lon="5.77687">
        <ele>435</ele>
        <time>2022-04-15T13:03:58Z</time>
      </trkpt>
      <trkpt lat="45.59414" lon="5.77687">
        <ele>435</ele>
        <time>2022-04-15T13:03:59Z</time>
      </trkpt>
      <trkpt lat="45.59414" lon="5.77687">
        <ele>435</ele>
        <time>2022-04-15T13:04:00Z</time>
      </trkpt>
      <trkpt lat="45.59413" lon="5.77687">
        <ele>435</ele>
        <time>2022-04-15T13:04:01Z</time>
      </trkpt>
      <trkpt lat="45.59413" lon="5.77687">
        <ele>435</ele>
        <time>2022-04-15T13:04:02Z</time>
      </trkpt>
      <trkpt lat="45.59413" lon="5.77687">
        <ele>435</ele>
        <time>2022-04-15T13:04:03Z</time>
      </trkpt>
      <trkpt lat="45.59413" lon="5.77688">
        <ele>435</ele>
        <time>2022-04-15T13:04:04Z</time>
      </trkpt>
      <trkpt lat="45.59413" lon="5.77688">
        <ele>434.9</ele>
        <time>2022-04-15T13:04:05Z</time>
      </trkpt>
      <trkpt lat="45.59412" lon="5.77688">
        <ele>434.9</ele>
        <time>2022-04-15T13:04:06Z</time>
      </trkpt>
      <trkpt lat="45.59412" lon="5.77688">
        <ele>434.9</ele>
        <time>2022-04-15T13:04:07Z</time>
      </trkpt>
      <trkpt lat="45.59412" lon="5.77688">
        <ele>434.9</ele>
        <time>2022-04-15T13:04:08Z</time>
      </trkpt>
      <trkpt lat="45.59412" lon="5.77688">
        <ele>434.9</ele>
        <time>2022-04-15T13:04:09Z</time>
      </trkpt>
      <trkpt lat="45.59412" lon="5.77688">
        <ele>434.9</ele>
        <time>2022-04-15T13:04:10Z</time>
      </trkpt>
      <trkpt lat="45.59412" lon="5.77688">
        <ele>434.9</ele>
        <time>2022-04-15T13:04:11Z</time>
      </trkpt>
      <trkpt lat="45.59412" lon="5.77688">
        <ele>434.9</ele>
        <time>2022-04-15T13:04:12Z</time>
      </trkpt>
      <trkpt lat="45.59412" lon="5.77688">
        <ele>434.9</ele>
        <time>2022-04-15T13:04:13Z</time>
      </trkpt>
      <trkpt lat="45.59412" lon="5.77688">
        <ele>434.9</ele>
        <time>2022-04-15T13:04:14Z</time>
      </trkpt>
      <trkpt lat="45.59412" lon="5.77688">
        <ele>434.9</ele>
        <time>2022-04-15T13:04:15Z</time>
      </trkpt>
      <trkpt lat="45.59412" lon="5.77688">
        <ele>434.9</ele>
        <time>2022-04-15T13:04:16Z</time>
      </trkpt>
      <trkpt lat="45.59412" lon="5.77688">
        <ele>434.9</ele>
        <time>2022-04-15T13:04:17Z</time>
      </trkpt>
      <trkpt lat="45.59412" lon="5.77688">
        <ele>434.9</ele>
        <time>2022-04-15T13:04:18Z</time>
      </trkpt>
      <trkpt lat="45.59412" lon="5.77688">
        <ele>434.9</ele>
        <time>2022-04-15T13:04:19Z</time>
      </trkpt>
      <trkpt lat="45.59412" lon="5.77688">
        <ele>434.9</ele>
        <time>2022-04-15T13:04:20Z</time>
      </trkpt>
      <trkpt lat="45.59412" lon="5.77688">
        <ele>434.9</ele>
        <time>2022-04-15T13:04:21Z</time>
      </trkpt>
      <trkpt lat="45.59412" lon="5.77688">
        <ele>434.9</ele>
        <time>2022-04-15T13:04:22Z</time>
      </trkpt>
      <trkpt lat="45.59412" lon="5.77688">
        <ele>434.9</ele>
        <time>2022-04-15T13:04:23Z</time>
      </trkpt>
      <trkpt lat="45.59412" lon="5.77688">
        <ele>434.9</ele>
        <time>2022-04-15T13:04:24Z</time>
      </trkpt>
      <trkpt lat="45.59412" lon="5.77688">
        <ele>434.9</ele>
        <time>2022-04-15T13:04:25Z</time>
      </trkpt>
      <trkpt lat="45.59412" lon="5.77688">
        <ele>434.9</ele>
        <time>2022-04-15T13:04:26Z</time>
      </trkpt>
      <trkpt lat="45.59412" lon="5.77688">
        <ele>434.9</ele>
        <time>2022-04-15T13:04:27Z</time>
      </trkpt>
      <trkpt lat="45.59412" lon="5.77688">
        <ele>434.9</ele>
        <time>2022-04-15T13:04:28Z</time>
      </trkpt>
      <trkpt lat="45.59412" lon="5.77688">
        <ele>434.9</ele>
        <time>2022-04-15T13:04:29Z</time>
      </trkpt>
      <trkpt lat="45.59412" lon="5.77688">
        <ele>434.9</ele>
        <time>2022-04-15T13:04:30Z</time>
      </trkpt>
      <trkpt lat="45.59412" lon="5.77688">
        <ele>434.9</ele>
        <time>2022-04-15T13:04:31Z</time>
      </trkpt>
      <trkpt lat="45.59412" lon="5.77688">
        <ele>434.9</ele>
        <time>2022-04-15T13:04:32Z</time>
      </trkpt>
      <trkpt lat="45.59412" lon="5.77688">
        <ele>434.9</ele>
        <time>2022-04-15T13:04:33Z</time>
      </trkpt>
      <trkpt lat="45.59412" lon="5.77688">
        <ele>434.9</ele>
        <time>2022-04-15T13:04:34Z</time>
      </trkpt>
      <trkpt lat="45.59412" lon="5.77688">
        <ele>434.9</ele>
        <time>2022-04-15T13:04:35Z</time>
      </trkpt>
      <trkpt lat="45.59412" lon="5.77688">
        <ele>434.9</ele>
        <time>2022-04-15T13:04:36Z</time>
      </trkpt>
      <trkpt lat="45.59412" lon="5.77688">
        <ele>434.9</ele>
        <time>2022-04-15T13:04:37Z</time>
      </trkpt>
      <trkpt lat="45.59412" lon="5.77688">
        <ele>434.9</ele>
        <time>2022-04-15T13:04:38Z</time>
      </trkpt>
      <trkpt lat="45.59412" lon="5.77688">
        <ele>434.9</ele>
        <time>2022-04-15T13:04:39Z</time>
      </trkpt>
      <trkpt lat="45.59412" lon="5.77688">
        <ele>434.9</ele>
        <time>2022-04-15T13:04:40Z</time>
      </trkpt>
      <trkpt lat="45.59412" lon="5.77688">
        <ele>434.9</ele>
        <time>2022-04-15T13:04:41Z</time>
      </trkpt>
      <trkpt lat="45.59412" lon="5.77688">
        <ele>434.9</ele>
        <time>2022-04-15T13:04:42Z</time>
      </trkpt>
      <trkpt lat="45.59412" lon="5.77688">
        <ele>434.9</ele>
        <time>2022-04-15T13:04:43Z</time>
      </trkpt>
      <trkpt lat="45.59412" lon="5.77688">
        <ele>434.9</ele>
        <time>2022-04-15T13:04:44Z</time>
      </trkpt>
      <trkpt lat="45.59412" lon="5.77688">
        <ele>434.9</ele>
        <time>2022-04-15T13:04:45Z</time>
      </trkpt>
      <trkpt lat="45.59412" lon="5.77688">
        <ele>434.9</ele>
        <time>2022-04-15T13:04:46Z</time>
      </trkpt>
      <trkpt lat="45.59412" lon="5.77688">
        <ele>434.9</ele>
        <time>2022-04-15T13:04:47Z</time>
      </trkpt>
      <trkpt lat="45.59412" lon="5.77688">
        <ele>434.9</ele>
        <time>2022-04-15T13:04:48Z</time>
      </trkpt>
      <trkpt lat="45.59412" lon="5.77688">
        <ele>434.9</ele>
        <time>2022-04-15T13:04:49Z</time>
      </trkpt>
      <trkpt lat="45.59412" lon="5.77688">
        <ele>434.9</ele>
        <time>2022-04-15T13:04:50Z</time>
      </trkpt>
      <trkpt lat="45.59412" lon="5.77688">
        <ele>434.9</ele>
        <time>2022-04-15T13:04:51Z</time>
      </trkpt>
      <trkpt lat="45.59412" lon="5.77688">
        <ele>434.9</ele>
        <time>2022-04-15T13:04:52Z</time>
      </trkpt>
      <trkpt lat="45.59412" lon="5.77688">
        <ele>434.9</ele>
        <time>2022-04-15T13:04:53Z</time>
      </trkpt>
      <trkpt lat="45.59412" lon="5.77688">
        <ele>434.9</ele>
        <time>2022-04-15T13:04:54Z</time>
      </trkpt>
      <trkpt lat="45.59412" lon="5.77688">
        <ele>434.9</ele>
        <time>2022-04-15T13:04:55Z</time>
      </trkpt>
      <trkpt lat="45.59412" lon="5.77688">
        <ele>434.9</ele>
        <time>2022-04-15T13:04:56Z</time>
      </trkpt>
      <trkpt lat="45.59412" lon="5.77688">
        <ele>434.9</ele>
        <time>2022-04-15T13:04:57Z</time>
      </trkpt>
      <trkpt lat="45.59412" lon="5.77688">
        <ele>434.9</ele>
        <time>2022-04-15T13:04:58Z</time>
      </trkpt>
      <trkpt lat="45.59412" lon="5.77688">
        <ele>434.9</ele>
        <time>2022-04-15T13:04:59Z</time>
      </trkpt>
      <trkpt lat="45.59412" lon="5.77688">
        <ele>434.9</ele>
        <time>2022-04-15T13:05:00Z</time>
      </trkpt>
      <trkpt lat="45.59412" lon="5.77688">
        <ele>434.9</ele>
        <time>2022-04-15T13:05:01Z</time>
      </trkpt>
      <trkpt lat="45.59412" lon="5.77688">
        <ele>434.9</ele>
        <time>2022-04-15T13:05:02Z</time>
      </trkpt>
      <trkpt lat="45.59412" lon="5.77688">
        <ele>434.9</ele>
        <time>2022-04-15T13:05:03Z</time>
      </trkpt>
      <trkpt lat="45.59412" lon="5.77688">
        <ele>434.9</ele>
        <time>2022-04-15T13:05:04Z</time>
      </trkpt>
      <trkpt lat="45.59412" lon="5.77688">
        <ele>434.9</ele>
        <time>2022-04-15T13:05:05Z</time>
      </trkpt>
      <trkpt lat="45.59412" lon="5.77688">
        <ele>434.9</ele>
        <time>2022-04-15T13:05:06Z</time>
      </trkpt>
      <trkpt lat="45.59412" lon="5.77688">
        <ele>434.9</ele>
        <time>2022-04-15T13:05:07Z</time>
      </trkpt>
      <trkpt lat="45.59412" lon="5.77688">
        <ele>434.9</ele>
        <time>2022-04-15T13:05:08Z</time>
      </trkpt>
      <trkpt lat="45.59412" lon="5.77688">
        <ele>434.9</ele>
        <time>2022-04-15T13:05:09Z</time>
      </trkpt>
      <trkpt lat="45.59412" lon="5.77688">
        <ele>434.9</ele>
        <time>2022-04-15T13:05:10Z</time>
      </trkpt>
      <trkpt lat="45.59412" lon="5.77688">
        <ele>434.9</ele>
        <time>2022-04-15T13:05:11Z</time>
      </trkpt>
      <trkpt lat="45.59412" lon="5.77688">
        <ele>434.9</ele>
        <time>2022-04-15T13:05:12Z</time>
      </trkpt>
      <trkpt lat="45.59412" lon="5.77688">
        <ele>434.9</ele>
        <time>2022-04-15T13:05:13Z</time>
      </trkpt>
      <trkpt lat="45.59412" lon="5.77688">
        <ele>434.9</ele>
        <time>2022-04-15T13:05:14Z</time>
      </trkpt>
      <trkpt lat="45.59412" lon="5.77688">
        <ele>434.9</ele>
        <time>2022-04-15T13:05:15Z</time>
      </trkpt>
      <trkpt lat="45.59412" lon="5.77688">
        <ele>434.9</ele>
        <time>2022-04-15T13:05:16Z</time>
      </trkpt>
      <trkpt lat="45.59412" lon="5.77688">
        <ele>434.9</ele>
        <time>2022-04-15T13:05:17Z</time>
      </trkpt>
      <trkpt lat="45.59412" lon="5.77688">
        <ele>434.9</ele>
        <time>2022-04-15T13:05:18Z</time>
      </trkpt>
      <trkpt lat="45.59412" lon="5.77688">
        <ele>434.9</ele>
        <time>2022-04-15T13:05:19Z</time>
      </trkpt>
      <trkpt lat="45.59412" lon="5.77688">
        <ele>434.9</ele>
        <time>2022-04-15T13:05:20Z</time>
      </trkpt>
      <trkpt lat="45.59412" lon="5.77688">
        <ele>434.9</ele>
        <time>2022-04-15T13:05:21Z</time>
      </trkpt>
      <trkpt lat="45.59412" lon="5.77688">
        <ele>434.9</ele>
        <time>2022-04-15T13:05:22Z</time>
      </trkpt>
      <trkpt lat="45.59412" lon="5.77688">
        <ele>434.9</ele>
        <time>2022-04-15T13:05:23Z</time>
      </trkpt>
      <trkpt lat="45.59412" lon="5.77688">
        <ele>434.9</ele>
        <time>2022-04-15T13:05:24Z</time>
      </trkpt>
      <trkpt lat="45.59412" lon="5.77688">
        <ele>434.9</ele>
        <time>2022-04-15T13:05:25Z</time>
      </trkpt>
      <trkpt lat="45.59412" lon="5.77688">
        <ele>434.9</ele>
        <time>2022-04-15T13:05:26Z</time>
      </trkpt>
      <trkpt lat="45.59412" lon="5.77688">
        <ele>434.9</ele>
        <time>2022-04-15T13:05:27Z</time>
      </trkpt>
      <trkpt lat="45.59412" lon="5.77688">
        <ele>434.9</ele>
        <time>2022-04-15T13:05:28Z</time>
      </trkpt>
      <trkpt lat="45.59412" lon="5.77688">
        <ele>434.9</ele>
        <time>2022-04-15T13:05:29Z</time>
      </trkpt>
      <trkpt lat="45.59412" lon="5.77688">
        <ele>434.9</ele>
        <time>2022-04-15T13:05:30Z</time>
      </trkpt>
      <trkpt lat="45.59412" lon="5.77688">
        <ele>434.9</ele>
        <time>2022-04-15T13:05:31Z</time>
      </trkpt>
      <trkpt lat="45.59412" lon="5.77688">
        <ele>434.9</ele>
        <time>2022-04-15T13:05:32Z</time>
      </trkpt>
      <trkpt lat="45.59412" lon="5.77688">
        <ele>434.9</ele>
        <time>2022-04-15T13:05:33Z</time>
      </trkpt>
      <trkpt lat="45.59412" lon="5.77688">
        <ele>434.9</ele>
        <time>2022-04-15T13:05:34Z</time>
      </trkpt>
      <trkpt lat="45.59412" lon="5.77688">
        <ele>434.9</ele>
        <time>2022-04-15T13:05:35Z</time>
      </trkpt>
      <trkpt lat="45.59412" lon="5.77688">
        <ele>434.9</ele>
        <time>2022-04-15T13:05:36Z</time>
      </trkpt>
      <trkpt lat="45.59412" lon="5.77688">
        <ele>434.9</ele>
        <time>2022-04-15T13:05:37Z</time>
      </trkpt>
      <trkpt lat="45.59412" lon="5.77688">
        <ele>434.9</ele>
        <time>2022-04-15T13:05:38Z</time>
      </trkpt>
      <trkpt lat="45.59412" lon="5.77688">
        <ele>434.9</ele>
        <time>2022-04-15T13:05:39Z</time>
      </trkpt>
      <trkpt lat="45.59412" lon="5.77688">
        <ele>434.9</ele>
        <time>2022-04-15T13:05:40Z</time>
      </trkpt>
      <trkpt lat="45.59412" lon="5.77688">
        <ele>434.9</ele>
        <time>2022-04-15T13:05:41Z</time>
      </trkpt>
      <trkpt lat="45.59412" lon="5.77688">
        <ele>434.9</ele>
        <time>2022-04-15T13:05:42Z</time>
      </trkpt>
      <trkpt lat="45.59412" lon="5.77688">
        <ele>434.9</ele>
        <time>2022-04-15T13:05:43Z</time>
      </trkpt>
      <trkpt lat="45.59412" lon="5.77688">
        <ele>434.9</ele>
        <time>2022-04-15T13:05:44Z</time>
      </trkpt>
      <trkpt lat="45.59412" lon="5.77688">
        <ele>434.9</ele>
        <time>2022-04-15T13:05:45Z</time>
      </trkpt>
      <trkpt lat="45.59412" lon="5.77688">
        <ele>434.9</ele>
        <time>2022-04-15T13:05:46Z</time>
      </trkpt>
      <trkpt lat="45.59412" lon="5.77688">
        <ele>434.9</ele>
        <time>2022-04-15T13:05:47Z</time>
      </trkpt>
      <trkpt lat="45.59412" lon="5.77688">
        <ele>434.9</ele>
        <time>2022-04-15T13:05:48Z</time>
      </trkpt>
      <trkpt lat="45.59412" lon="5.77688">
        <ele>434.9</ele>
        <time>2022-04-15T13:05:49Z</time>
      </trkpt>
      <trkpt lat="45.59412" lon="5.77688">
        <ele>434.9</ele>
        <time>2022-04-15T13:05:50Z</time>
      </trkpt>
      <trkpt lat="45.59412" lon="5.77688">
        <ele>434.9</ele>
        <time>2022-04-15T13:05:51Z</time>
      </trkpt>
      <trkpt lat="45.59412" lon="5.77688">
        <ele>434.9</ele>
        <time>2022-04-15T13:05:52Z</time>
      </trkpt>
      <trkpt lat="45.59412" lon="5.77688">
        <ele>434.9</ele>
        <time>2022-04-15T13:05:53Z</time>
      </trkpt>
      <trkpt lat="45.59412" lon="5.77688">
        <ele>434.9</ele>
        <time>2022-04-15T13:05:54Z</time>
      </trkpt>
      <trkpt lat="45.59412" lon="5.77688">
        <ele>434.9</ele>
        <time>2022-04-15T13:05:55Z</time>
      </trkpt>
      <trkpt lat="45.59412" lon="5.77688">
        <ele>434.9</ele>
        <time>2022-04-15T13:05:56Z</time>
      </trkpt>
      <trkpt lat="45.59412" lon="5.77688">
        <ele>434.9</ele>
        <time>2022-04-15T13:05:57Z</time>
      </trkpt>
      <trkpt lat="45.59412" lon="5.77688">
        <ele>434.9</ele>
        <time>2022-04-15T13:05:58Z</time>
      </trkpt>
      <trkpt lat="45.59412" lon="5.77688">
        <ele>434.9</ele>
        <time>2022-04-15T13:05:59Z</time>
      </trkpt>
      <trkpt lat="45.59412" lon="5.77688">
        <ele>434.9</ele>
        <time>2022-04-15T13:06:00Z</time>
      </trkpt>
      <trkpt lat="45.59412" lon="5.77688">
        <ele>434.9</ele>
        <time>2022-04-15T13:06:01Z</time>
      </trkpt>
      <trkpt lat="45.59412" lon="5.77688">
        <ele>434.9</ele>
        <time>2022-04-15T13:06:02Z</time>
      </trkpt>
      <trkpt lat="45.59412" lon="5.77688">
        <ele>434.9</ele>
        <time>2022-04-15T13:06:03Z</time>
      </trkpt>
      <trkpt lat="45.59412" lon="5.77688">
        <ele>434.9</ele>
        <time>2022-04-15T13:06:04Z</time>
      </trkpt>
      <trkpt lat="45.59412" lon="5.77688">
        <ele>434.9</ele>
        <time>2022-04-15T13:06:05Z</time>
      </trkpt>
      <trkpt lat="45.59412" lon="5.77688">
        <ele>434.9</ele>
        <time>2022-04-15T13:06:06Z</time>
      </trkpt>
      <trkpt lat="45.59412" lon="5.77688">
        <ele>434.9</ele>
        <time>2022-04-15T13:06:07Z</time>
      </trkpt>
      <trkpt lat="45.59412" lon="5.77688">
        <ele>434.9</ele>
        <time>2022-04-15T13:06:08Z</time>
      </trkpt>
      <trkpt lat="45.59412" lon="5.77688">
        <ele>434.9</ele>
        <time>2022-04-15T13:06:09Z</time>
      </trkpt>
      <trkpt lat="45.59412" lon="5.77688">
        <ele>434.9</ele>
        <time>2022-04-15T13:06:10Z</time>
      </trkpt>
      <trkpt lat="45.59412" lon="5.77688">
        <ele>434.9</ele>
        <time>2022-04-15T13:06:11Z</time>
      </trkpt>
      <trkpt lat="45.59412" lon="5.77688">
        <ele>434.9</ele>
        <time>2022-04-15T13:06:12Z</time>
      </trkpt>
      <trkpt lat="45.59412" lon="5.77688">
        <ele>434.9</ele>
        <time>2022-04-15T13:06:13Z</time>
      </trkpt>
      <trkpt lat="45.59412" lon="5.77688">
        <ele>434.9</ele>
        <time>2022-04-15T13:06:14Z</time>
      </trkpt>
      <trkpt lat="45.59412" lon="5.77688">
        <ele>434.9</ele>
        <time>2022-04-15T13:06:15Z</time>
      </trkpt>
      <trkpt lat="45.59412" lon="5.77688">
        <ele>434.9</ele>
        <time>2022-04-15T13:06:16Z</time>
      </trkpt>
      <trkpt lat="45.59412" lon="5.77688">
        <ele>434.9</ele>
        <time>2022-04-15T13:06:17Z</time>
      </trkpt>
      <trkpt lat="45.59412" lon="5.77688">
        <ele>434.9</ele>
        <time>2022-04-15T13:06:18Z</time>
      </trkpt>
      <trkpt lat="45.59412" lon="5.77688">
        <ele>434.9</ele>
        <time>2022-04-15T13:06:19Z</time>
      </trkpt>
      <trkpt lat="45.59412" lon="5.77688">
        <ele>434.9</ele>
        <time>2022-04-15T13:06:20Z</time>
      </trkpt>
      <trkpt lat="45.59412" lon="5.77688">
        <ele>434.9</ele>
        <time>2022-04-15T13:06:21Z</time>
      </trkpt>
      <trkpt lat="45.59412" lon="5.77688">
        <ele>434.9</ele>
        <time>2022-04-15T13:06:22Z</time>
      </trkpt>
      <trkpt lat="45.59412" lon="5.77688">
        <ele>434.9</ele>
        <time>2022-04-15T13:06:23Z</time>
      </trkpt>
      <trkpt lat="45.59412" lon="5.77688">
        <ele>434.9</ele>
        <time>2022-04-15T13:06:24Z</time>
      </trkpt>
      <trkpt lat="45.59412" lon="5.77688">
        <ele>434.9</ele>
        <time>2022-04-15T13:06:25Z</time>
      </trkpt>
      <trkpt lat="45.59412" lon="5.77688">
        <ele>434.9</ele>
        <time>2022-04-15T13:06:26Z</time>
      </trkpt>
      <trkpt lat="45.59412" lon="5.77688">
        <ele>434.9</ele>
        <time>2022-04-15T13:06:27Z</time>
      </trkpt>
      <trkpt lat="45.59412" lon="5.77688">
        <ele>434.9</ele>
        <time>2022-04-15T13:06:28Z</time>
      </trkpt>
      <trkpt lat="45.59412" lon="5.77688">
        <ele>434.9</ele>
        <time>2022-04-15T13:06:29Z</time>
      </trkpt>
      <trkpt lat="45.59412" lon="5.77688">
        <ele>434.9</ele>
        <time>2022-04-15T13:06:30Z</time>
      </trkpt>
      <trkpt lat="45.59412" lon="5.77688">
        <ele>434.9</ele>
        <time>2022-04-15T13:06:31Z</time>
      </trkpt>
      <trkpt lat="45.59412" lon="5.77688">
        <ele>434.9</ele>
        <time>2022-04-15T13:06:32Z</time>
      </trkpt>
      <trkpt lat="45.59412" lon="5.77688">
        <ele>434.9</ele>
        <time>2022-04-15T13:06:33Z</time>
      </trkpt>
      <trkpt lat="45.59412" lon="5.77688">
        <ele>434.9</ele>
        <time>2022-04-15T13:06:34Z</time>
      </trkpt>
      <trkpt lat="45.59412" lon="5.77688">
        <ele>434.9</ele>
        <time>2022-04-15T13:06:35Z</time>
      </trkpt>
      <trkpt lat="45.59412" lon="5.77688">
        <ele>434.9</ele>
        <time>2022-04-15T13:06:36Z</time>
      </trkpt>
      <trkpt lat="45.59412" lon="5.77688">
        <ele>434.9</ele>
        <time>2022-04-15T13:06:37Z</time>
      </trkpt>
      <trkpt lat="45.59412" lon="5.77688">
        <ele>434.9</ele>
        <time>2022-04-15T13:06:38Z</time>
      </trkpt>
      <trkpt lat="45.59412" lon="5.77688">
        <ele>434.9</ele>
        <time>2022-04-15T13:06:39Z</time>
      </trkpt>
      <trkpt lat="45.59412" lon="5.77688">
        <ele>434.9</ele>
        <time>2022-04-15T13:06:40Z</time>
      </trkpt>
      <trkpt lat="45.59412" lon="5.77688">
        <ele>434.9</ele>
        <time>2022-04-15T13:06:41Z</time>
      </trkpt>
      <trkpt lat="45.59412" lon="5.77688">
        <ele>434.9</ele>
        <time>2022-04-15T13:06:42Z</time>
      </trkpt>
      <trkpt lat="45.59412" lon="5.77688">
        <ele>434.9</ele>
        <time>2022-04-15T13:06:43Z</time>
      </trkpt>
      <trkpt lat="45.59412" lon="5.77688">
        <ele>434.9</ele>
        <time>2022-04-15T13:06:44Z</time>
      </trkpt>
      <trkpt lat="45.59412" lon="5.77688">
        <ele>434.9</ele>
        <time>2022-04-15T13:06:45Z</time>
      </trkpt>
      <trkpt lat="45.59412" lon="5.77688">
        <ele>434.9</ele>
        <time>2022-04-15T13:06:46Z</time>
      </trkpt>
      <trkpt lat="45.59412" lon="5.77688">
        <ele>434.9</ele>
        <time>2022-04-15T13:06:47Z</time>
      </trkpt>
      <trkpt lat="45.59412" lon="5.77688">
        <ele>434.9</ele>
        <time>2022-04-15T13:06:48Z</time>
      </trkpt>
      <trkpt lat="45.59412" lon="5.77688">
        <ele>434.9</ele>
        <time>2022-04-15T13:06:49Z</time>
      </trkpt>
      <trkpt lat="45.59412" lon="5.77688">
        <ele>434.9</ele>
        <time>2022-04-15T13:06:50Z</time>
      </trkpt>
      <trkpt lat="45.59412" lon="5.77688">
        <ele>434.9</ele>
        <time>2022-04-15T13:06:51Z</time>
      </trkpt>
      <trkpt lat="45.59412" lon="5.77688">
        <ele>434.9</ele>
        <time>2022-04-15T13:06:52Z</time>
      </trkpt>
      <trkpt lat="45.59412" lon="5.77688">
        <ele>434.9</ele>
        <time>2022-04-15T13:06:53Z</time>
      </trkpt>
      <trkpt lat="45.59412" lon="5.77688">
        <ele>434.9</ele>
        <time>2022-04-15T13:06:54Z</time>
      </trkpt>
      <trkpt lat="45.59412" lon="5.77688">
        <ele>434.9</ele>
        <time>2022-04-15T13:06:55Z</time>
      </trkpt>
      <trkpt lat="45.59412" lon="5.77688">
        <ele>434.9</ele>
        <time>2022-04-15T13:06:56Z</time>
      </trkpt>
      <trkpt lat="45.59412" lon="5.77688">
        <ele>434.9</ele>
        <time>2022-04-15T13:06:57Z</time>
      </trkpt>
      <trkpt lat="45.59412" lon="5.77688">
        <ele>434.9</ele>
        <time>2022-04-15T13:06:58Z</time>
      </trkpt>
      <trkpt lat="45.59412" lon="5.77688">
        <ele>434.9</ele>
        <time>2022-04-15T13:06:59Z</time>
      </trkpt>
      <trkpt lat="45.59412" lon="5.77688">
        <ele>434.9</ele>
        <time>2022-04-15T13:07:00Z</time>
      </trkpt>
      <trkpt lat="45.59412" lon="5.77688">
        <ele>434.9</ele>
        <time>2022-04-15T13:07:01Z</time>
      </trkpt>
      <trkpt lat="45.59412" lon="5.77688">
        <ele>434.9</ele>
        <time>2022-04-15T13:07:02Z</time>
      </trkpt>
      <trkpt lat="45.59412" lon="5.77688">
        <ele>434.9</ele>
        <time>2022-04-15T13:07:03Z</time>
      </trkpt>
      <trkpt lat="45.59412" lon="5.77688">
        <ele>434.9</ele>
        <time>2022-04-15T13:07:04Z</time>
      </trkpt>
      <trkpt lat="45.59412" lon="5.77688">
        <ele>434.9</ele>
        <time>2022-04-15T13:07:05Z</time>
      </trkpt>
      <trkpt lat="45.59412" lon="5.77688">
        <ele>434.9</ele>
        <time>2022-04-15T13:07:06Z</time>
      </trkpt>
      <trkpt lat="45.59412" lon="5.77688">
        <ele>434.9</ele>
        <time>2022-04-15T13:07:07Z</time>
      </trkpt>
      <trkpt lat="45.59412" lon="5.77688">
        <ele>434.9</ele>
        <time>2022-04-15T13:07:08Z</time>
      </trkpt>
      <trkpt lat="45.59412" lon="5.77688">
        <ele>434.9</ele>
        <time>2022-04-15T13:07:09Z</time>
      </trkpt>
      <trkpt lat="45.59412" lon="5.77688">
        <ele>434.9</ele>
        <time>2022-04-15T13:07:10Z</time>
      </trkpt>
      <trkpt lat="45.59412" lon="5.77688">
        <ele>434.9</ele>
        <time>2022-04-15T13:07:11Z</time>
      </trkpt>
      <trkpt lat="45.59412" lon="5.77688">
        <ele>434.9</ele>
        <time>2022-04-15T13:07:12Z</time>
      </trkpt>
      <trkpt lat="45.59412" lon="5.77688">
        <ele>434.9</ele>
        <time>2022-04-15T13:07:13Z</time>
      </trkpt>
      <trkpt lat="45.59412" lon="5.77688">
        <ele>434.9</ele>
        <time>2022-04-15T13:07:14Z</time>
      </trkpt>
      <trkpt lat="45.59412" lon="5.77688">
        <ele>434.9</ele>
        <time>2022-04-15T13:07:15Z</time>
      </trkpt>
      <trkpt lat="45.59412" lon="5.77688">
        <ele>434.9</ele>
        <time>2022-04-15T13:07:16Z</time>
      </trkpt>
      <trkpt lat="45.59412" lon="5.77688">
        <ele>434.9</ele>
        <time>2022-04-15T13:07:17Z</time>
      </trkpt>
      <trkpt lat="45.59412" lon="5.77688">
        <ele>434.9</ele>
        <time>2022-04-15T13:07:18Z</time>
      </trkpt>
      <trkpt lat="45.59412" lon="5.77688">
        <ele>434.9</ele>
        <time>2022-04-15T13:07:19Z</time>
      </trkpt>
      <trkpt lat="45.59412" lon="5.77688">
        <ele>434.9</ele>
        <time>2022-04-15T13:07:20Z</time>
      </trkpt>
      <trkpt lat="45.59412" lon="5.77688">
        <ele>434.9</ele>
        <time>2022-04-15T13:07:21Z</time>
      </trkpt>
      <trkpt lat="45.59412" lon="5.77688">
        <ele>434.9</ele>
        <time>2022-04-15T13:07:22Z</time>
      </trkpt>
      <trkpt lat="45.59412" lon="5.77688">
        <ele>434.9</ele>
        <time>2022-04-15T13:07:23Z</time>
      </trkpt>
      <trkpt lat="45.59412" lon="5.77688">
        <ele>434.9</ele>
        <time>2022-04-15T13:07:24Z</time>
      </trkpt>
      <trkpt lat="45.59412" lon="5.77688">
        <ele>434.9</ele>
        <time>2022-04-15T13:07:25Z</time>
      </trkpt>
      <trkpt lat="45.59412" lon="5.77688">
        <ele>434.9</ele>
        <time>2022-04-15T13:07:26Z</time>
      </trkpt>
      <trkpt lat="45.59412" lon="5.77688">
        <ele>434.9</ele>
        <time>2022-04-15T13:07:27Z</time>
      </trkpt>
      <trkpt lat="45.59412" lon="5.77688">
        <ele>434.9</ele>
        <time>2022-04-15T13:07:28Z</time>
      </trkpt>
      <trkpt lat="45.59412" lon="5.77688">
        <ele>434.9</ele>
        <time>2022-04-15T13:07:29Z</time>
      </trkpt>
      <trkpt lat="45.59412" lon="5.77688">
        <ele>434.9</ele>
        <time>2022-04-15T13:07:30Z</time>
      </trkpt>
      <trkpt lat="45.59412" lon="5.77688">
        <ele>434.9</ele>
        <time>2022-04-15T13:07:31Z</time>
      </trkpt>
      <trkpt lat="45.59412" lon="5.77688">
        <ele>434.9</ele>
        <time>2022-04-15T13:07:32Z</time>
      </trkpt>
      <trkpt lat="45.59412" lon="5.77688">
        <ele>434.9</ele>
        <time>2022-04-15T13:07:33Z</time>
      </trkpt>
      <trkpt lat="45.59412" lon="5.77688">
        <ele>434.9</ele>
        <time>2022-04-15T13:07:34Z</time>
      </trkpt>
      <trkpt lat="45.59412" lon="5.77688">
        <ele>434.9</ele>
        <time>2022-04-15T13:07:35Z</time>
      </trkpt>
      <trkpt lat="45.59412" lon="5.77688">
        <ele>434.9</ele>
        <time>2022-04-15T13:07:36Z</time>
      </trkpt>
      <trkpt lat="45.59412" lon="5.77688">
        <ele>434.9</ele>
        <time>2022-04-15T13:07:37Z</time>
      </trkpt>
      <trkpt lat="45.59411" lon="5.77688">
        <ele>434.9</ele>
        <time>2022-04-15T13:07:38Z</time>
      </trkpt>
      <trkpt lat="45.59411" lon="5.77688">
        <ele>434.9</ele>
        <time>2022-04-15T13:07:39Z</time>
      </trkpt>
      <trkpt lat="45.59411" lon="5.77688">
        <ele>434.9</ele>
        <time>2022-04-15T13:07:40Z</time>
      </trkpt>
      <trkpt lat="45.59411" lon="5.77688">
        <ele>434.9</ele>
        <time>2022-04-15T13:07:41Z</time>
      </trkpt>
      <trkpt lat="45.59411" lon="5.77688">
        <ele>434.9</ele>
        <time>2022-04-15T13:07:42Z</time>
      </trkpt>
      <trkpt lat="45.59411" lon="5.77688">
        <ele>434.9</ele>
        <time>2022-04-15T13:07:43Z</time>
      </trkpt>
      <trkpt lat="45.59411" lon="5.77688">
        <ele>434.9</ele>
        <time>2022-04-15T13:07:44Z</time>
      </trkpt>
      <trkpt lat="45.59411" lon="5.77688">
        <ele>434.9</ele>
        <time>2022-04-15T13:07:45Z</time>
      </trkpt>
      <trkpt lat="45.59411" lon="5.77688">
        <ele>434.9</ele>
        <time>2022-04-15T13:07:46Z</time>
      </trkpt>
      <trkpt lat="45.59412" lon="5.77688">
        <ele>434.9</ele>
        <time>2022-04-15T13:07:47Z</time>
      </trkpt>
      <trkpt lat="45.59412" lon="5.77688">
        <ele>434.9</ele>
        <time>2022-04-15T13:07:48Z</time>
      </trkpt>
      <trkpt lat="45.59412" lon="5.77688">
        <ele>434.9</ele>
        <time>2022-04-15T13:07:49Z</time>
      </trkpt>
      <trkpt lat="45.59412" lon="5.77688">
        <ele>434.9</ele>
        <time>2022-04-15T13:07:50Z</time>
      </trkpt>
      <trkpt lat="45.59412" lon="5.77688">
        <ele>434.9</ele>
        <time>2022-04-15T13:07:51Z</time>
      </trkpt>
      <trkpt lat="45.59412" lon="5.77688">
        <ele>434.9</ele>
        <time>2022-04-15T13:07:52Z</time>
      </trkpt>
      <trkpt lat="45.59412" lon="5.77688">
        <ele>434.9</ele>
        <time>2022-04-15T13:07:53Z</time>
      </trkpt>
      <trkpt lat="45.59412" lon="5.77688">
        <ele>434.9</ele>
        <time>2022-04-15T13:07:54Z</time>
      </trkpt>
      <trkpt lat="45.59412" lon="5.77688">
        <ele>434.9</ele>
        <time>2022-04-15T13:07:55Z</time>
      </trkpt>
      <trkpt lat="45.59412" lon="5.77688">
        <ele>434.9</ele>
        <time>2022-04-15T13:07:56Z</time>
      </trkpt>
      <trkpt lat="45.59412" lon="5.77688">
        <ele>434.9</ele>
        <time>2022-04-15T13:07:57Z</time>
      </trkpt>
      <trkpt lat="45.59412" lon="5.77688">
        <ele>434.9</ele>
        <time>2022-04-15T13:07:58Z</time>
      </trkpt>
      <trkpt lat="45.59412" lon="5.77688">
        <ele>434.9</ele>
        <time>2022-04-15T13:07:59Z</time>
      </trkpt>
      <trkpt lat="45.59412" lon="5.77688">
        <ele>434.9</ele>
        <time>2022-04-15T13:08:00Z</time>
      </trkpt>
      <trkpt lat="45.59412" lon="5.77688">
        <ele>434.9</ele>
        <time>2022-04-15T13:08:01Z</time>
      </trkpt>
      <trkpt lat="45.59412" lon="5.77688">
        <ele>434.9</ele>
        <time>2022-04-15T13:08:02Z</time>
      </trkpt>
      <trkpt lat="45.59412" lon="5.77688">
        <ele>434.9</ele>
        <time>2022-04-15T13:08:03Z</time>
      </trkpt>
      <trkpt lat="45.59412" lon="5.77688">
        <ele>434.9</ele>
        <time>2022-04-15T13:08:04Z</time>
      </trkpt>
      <trkpt lat="45.59412" lon="5.77688">
        <ele>434.9</ele>
        <time>2022-04-15T13:08:05Z</time>
      </trkpt>
      <trkpt lat="45.59412" lon="5.77688">
        <ele>434.9</ele>
        <time>2022-04-15T13:08:06Z</time>
      </trkpt>
      <trkpt lat="45.59411" lon="5.77688">
        <ele>434.9</ele>
        <time>2022-04-15T13:08:07Z</time>
      </trkpt>
      <trkpt lat="45.59411" lon="5.77688">
        <ele>434.9</ele>
        <time>2022-04-15T13:08:08Z</time>
      </trkpt>
      <trkpt lat="45.59411" lon="5.77688">
        <ele>434.9</ele>
        <time>2022-04-15T13:08:09Z</time>
      </trkpt>
      <trkpt lat="45.59411" lon="5.77688">
        <ele>434.9</ele>
        <time>2022-04-15T13:08:10Z</time>
      </trkpt>
      <trkpt lat="45.59411" lon="5.77688">
        <ele>434.9</ele>
        <time>2022-04-15T13:08:11Z</time>
      </trkpt>
      <trkpt lat="45.59411" lon="5.77687">
        <ele>434.9</ele>
        <time>2022-04-15T13:08:12Z</time>
      </trkpt>
      <trkpt lat="45.59411" lon="5.77687">
        <ele>434.9</ele>
        <time>2022-04-15T13:08:13Z</time>
      </trkpt>
      <trkpt lat="45.59411" lon="5.77687">
        <ele>434.9</ele>
        <time>2022-04-15T13:08:14Z</time>
      </trkpt>
      <trkpt lat="45.59411" lon="5.77687">
        <ele>434.9</ele>
        <time>2022-04-15T13:08:15Z</time>
      </trkpt>
      <trkpt lat="45.59411" lon="5.77687">
        <ele>434.9</ele>
        <time>2022-04-15T13:08:16Z</time>
      </trkpt>
      <trkpt lat="45.59411" lon="5.77687">
        <ele>434.9</ele>
        <time>2022-04-15T13:08:17Z</time>
      </trkpt>
      <trkpt lat="45.59411" lon="5.77687">
        <ele>434.9</ele>
        <time>2022-04-15T13:08:18Z</time>
      </trkpt>
      <trkpt lat="45.59411" lon="5.77687">
        <ele>434.9</ele>
        <time>2022-04-15T13:08:19Z</time>
      </trkpt>
      <trkpt lat="45.59411" lon="5.77687">
        <ele>434.9</ele>
        <time>2022-04-15T13:08:20Z</time>
      </trkpt>
      <trkpt lat="45.59411" lon="5.77687">
        <ele>434.9</ele>
        <time>2022-04-15T13:08:21Z</time>
      </trkpt>
      <trkpt lat="45.59411" lon="5.77687">
        <ele>434.9</ele>
        <time>2022-04-15T13:08:22Z</time>
      </trkpt>
      <trkpt lat="45.59411" lon="5.77687">
        <ele>434.9</ele>
        <time>2022-04-15T13:08:23Z</time>
      </trkpt>
      <trkpt lat="45.59411" lon="5.77687">
        <ele>434.9</ele>
        <time>2022-04-15T13:08:24Z</time>
      </trkpt>
      <trkpt lat="45.59411" lon="5.77687">
        <ele>434.9</ele>
        <time>2022-04-15T13:08:25Z</time>
      </trkpt>
      <trkpt lat="45.59411" lon="5.77687">
        <ele>434.9</ele>
        <time>2022-04-15T13:08:26Z</time>
      </trkpt>
      <trkpt lat="45.59411" lon="5.77687">
        <ele>434.9</ele>
        <time>2022-04-15T13:08:27Z</time>
      </trkpt>
      <trkpt lat="45.59411" lon="5.77687">
        <ele>434.9</ele>
        <time>2022-04-15T13:08:28Z</time>
      </trkpt>
      <trkpt lat="45.59411" lon="5.77687">
        <ele>434.9</ele>
        <time>2022-04-15T13:08:29Z</time>
      </trkpt>
      <trkpt lat="45.59411" lon="5.77687">
        <ele>434.9</ele>
        <time>2022-04-15T13:08:30Z</time>
      </trkpt>
      <trkpt lat="45.59411" lon="5.77687">
        <ele>434.9</ele>
        <time>2022-04-15T13:08:31Z</time>
      </trkpt>
      <trkpt lat="45.59411" lon="5.77687">
        <ele>434.9</ele>
        <time>2022-04-15T13:08:32Z</time>
      </trkpt>
      <trkpt lat="45.59411" lon="5.77687">
        <ele>434.9</ele>
        <time>2022-04-15T13:08:33Z</time>
      </trkpt>
      <trkpt lat="45.59411" lon="5.77687">
        <ele>434.9</ele>
        <time>2022-04-15T13:08:34Z</time>
      </trkpt>
      <trkpt lat="45.59411" lon="5.77687">
        <ele>434.9</ele>
        <time>2022-04-15T13:08:35Z</time>
      </trkpt>
      <trkpt lat="45.59411" lon="5.77687">
        <ele>434.9</ele>
        <time>2022-04-15T13:08:36Z</time>
      </trkpt>
      <trkpt lat="45.59411" lon="5.77687">
        <ele>434.9</ele>
        <time>2022-04-15T13:08:37Z</time>
      </trkpt>
      <trkpt lat="45.59411" lon="5.77687">
        <ele>434.9</ele>
        <time>2022-04-15T13:08:38Z</time>
      </trkpt>
      <trkpt lat="45.59411" lon="5.77687">
        <ele>434.9</ele>
        <time>2022-04-15T13:08:39Z</time>
      </trkpt>
      <trkpt lat="45.59411" lon="5.77687">
        <ele>434.9</ele>
        <time>2022-04-15T13:08:40Z</time>
      </trkpt>
      <trkpt lat="45.59411" lon="5.77687">
        <ele>434.9</ele>
        <time>2022-04-15T13:08:41Z</time>
      </trkpt>
      <trkpt lat="45.59411" lon="5.77687">
        <ele>434.9</ele>
        <time>2022-04-15T13:08:42Z</time>
      </trkpt>
      <trkpt lat="45.59411" lon="5.77687">
        <ele>434.9</ele>
        <time>2022-04-15T13:08:43Z</time>
      </trkpt>
      <trkpt lat="45.59411" lon="5.77687">
        <ele>434.9</ele>
        <time>2022-04-15T13:08:44Z</time>
      </trkpt>
      <trkpt lat="45.59411" lon="5.77687">
        <ele>434.9</ele>
        <time>2022-04-15T13:08:45Z</time>
      </trkpt>
      <trkpt lat="45.59411" lon="5.77687">
        <ele>434.9</ele>
        <time>2022-04-15T13:08:46Z</time>
      </trkpt>
      <trkpt lat="45.59411" lon="5.77687">
        <ele>434.9</ele>
        <time>2022-04-15T13:08:47Z</time>
      </trkpt>
      <trkpt lat="45.59411" lon="5.77687">
        <ele>434.9</ele>
        <time>2022-04-15T13:08:48Z</time>
      </trkpt>
      <trkpt lat="45.59411" lon="5.77687">
        <ele>434.9</ele>
        <time>2022-04-15T13:08:49Z</time>
      </trkpt>
      <trkpt lat="45.59411" lon="5.77687">
        <ele>434.9</ele>
        <time>2022-04-15T13:08:50Z</time>
      </trkpt>
      <trkpt lat="45.59411" lon="5.77687">
        <ele>434.9</ele>
        <time>2022-04-15T13:08:51Z</time>
      </trkpt>
      <trkpt lat="45.59411" lon="5.77687">
        <ele>434.9</ele>
        <time>2022-04-15T13:08:52Z</time>
      </trkpt>
      <trkpt lat="45.59411" lon="5.77687">
        <ele>434.9</ele>
        <time>2022-04-15T13:08:53Z</time>
      </trkpt>
      <trkpt lat="45.59411" lon="5.77687">
        <ele>434.9</ele>
        <time>2022-04-15T13:08:54Z</time>
      </trkpt>
      <trkpt lat="45.59411" lon="5.77687">
        <ele>434.9</ele>
        <time>2022-04-15T13:08:55Z</time>
      </trkpt>
      <trkpt lat="45.59411" lon="5.77687">
        <ele>434.9</ele>
        <time>2022-04-15T13:08:56Z</time>
      </trkpt>
      <trkpt lat="45.59411" lon="5.77687">
        <ele>434.9</ele>
        <time>2022-04-15T13:08:57Z</time>
      </trkpt>
      <trkpt lat="45.59411" lon="5.77687">
        <ele>434.9</ele>
        <time>2022-04-15T13:08:58Z</time>
      </trkpt>
      <trkpt lat="45.59411" lon="5.77687">
        <ele>434.9</ele>
        <time>2022-04-15T13:08:59Z</time>
      </trkpt>
      <trkpt lat="45.59411" lon="5.77687">
        <ele>434.9</ele>
        <time>2022-04-15T13:09:00Z</time>
      </trkpt>
      <trkpt lat="45.59411" lon="5.77687">
        <ele>434.9</ele>
        <time>2022-04-15T13:09:01Z</time>
      </trkpt>
      <trkpt lat="45.59411" lon="5.77687">
        <ele>434.9</ele>
        <time>2022-04-15T13:09:02Z</time>
      </trkpt>
      <trkpt lat="45.59411" lon="5.77687">
        <ele>434.9</ele>
        <time>2022-04-15T13:09:03Z</time>
      </trkpt>
      <trkpt lat="45.59411" lon="5.77687">
        <ele>434.9</ele>
        <time>2022-04-15T13:09:04Z</time>
      </trkpt>
      <trkpt lat="45.59411" lon="5.77687">
        <ele>434.9</ele>
        <time>2022-04-15T13:09:05Z</time>
      </trkpt>
      <trkpt lat="45.59411" lon="5.77687">
        <ele>434.9</ele>
        <time>2022-04-15T13:09:06Z</time>
      </trkpt>
      <trkpt lat="45.59411" lon="5.77687">
        <ele>434.9</ele>
        <time>2022-04-15T13:09:07Z</time>
      </trkpt>
      <trkpt lat="45.59411" lon="5.77687">
        <ele>434.9</ele>
        <time>2022-04-15T13:09:08Z</time>
      </trkpt>
      <trkpt lat="45.59411" lon="5.77687">
        <ele>434.9</ele>
        <time>2022-04-15T13:09:09Z</time>
      </trkpt>
      <trkpt lat="45.59411" lon="5.77687">
        <ele>434.9</ele>
        <time>2022-04-15T13:09:10Z</time>
      </trkpt>
      <trkpt lat="45.59411" lon="5.77687">
        <ele>434.9</ele>
        <time>2022-04-15T13:09:11Z</time>
      </trkpt>
      <trkpt lat="45.59411" lon="5.77687">
        <ele>434.9</ele>
        <time>2022-04-15T13:09:12Z</time>
      </trkpt>
      <trkpt lat="45.59411" lon="5.77687">
        <ele>434.9</ele>
        <time>2022-04-15T13:09:13Z</time>
      </trkpt>
      <trkpt lat="45.59411" lon="5.77687">
        <ele>434.9</ele>
        <time>2022-04-15T13:09:14Z</time>
      </trkpt>
      <trkpt lat="45.59411" lon="5.77687">
        <ele>434.9</ele>
        <time>2022-04-15T13:09:15Z</time>
      </trkpt>
      <trkpt lat="45.59411" lon="5.77687">
        <ele>434.9</ele>
        <time>2022-04-15T13:09:16Z</time>
      </trkpt>
      <trkpt lat="45.59411" lon="5.77687">
        <ele>434.9</ele>
        <time>2022-04-15T13:09:17Z</time>
      </trkpt>
      <trkpt lat="45.59411" lon="5.77687">
        <ele>434.9</ele>
        <time>2022-04-15T13:09:18Z</time>
      </trkpt>
      <trkpt lat="45.59411" lon="5.77687">
        <ele>434.9</ele>
        <time>2022-04-15T13:09:19Z</time>
      </trkpt>
      <trkpt lat="45.59411" lon="5.77687">
        <ele>434.9</ele>
        <time>2022-04-15T13:09:20Z</time>
      </trkpt>
      <trkpt lat="45.59411" lon="5.77687">
        <ele>434.9</ele>
        <time>2022-04-15T13:09:21Z</time>
      </trkpt>
      <trkpt lat="45.59411" lon="5.77687">
        <ele>434.9</ele>
        <time>2022-04-15T13:09:22Z</time>
      </trkpt>
      <trkpt lat="45.59411" lon="5.77687">
        <ele>434.9</ele>
        <time>2022-04-15T13:09:23Z</time>
      </trkpt>
      <trkpt lat="45.59411" lon="5.77687">
        <ele>434.9</ele>
        <time>2022-04-15T13:09:24Z</time>
      </trkpt>
      <trkpt lat="45.59411" lon="5.77687">
        <ele>434.9</ele>
        <time>2022-04-15T13:09:25Z</time>
      </trkpt>
      <trkpt lat="45.59411" lon="5.77687">
        <ele>434.9</ele>
        <time>2022-04-15T13:09:26Z</time>
      </trkpt>
      <trkpt lat="45.59411" lon="5.77687">
        <ele>434.9</ele>
        <time>2022-04-15T13:09:27Z</time>
      </trkpt>
      <trkpt lat="45.59411" lon="5.77687">
        <ele>434.9</ele>
        <time>2022-04-15T13:09:28Z</time>
      </trkpt>
      <trkpt lat="45.59411" lon="5.77687">
        <ele>434.9</ele>
        <time>2022-04-15T13:09:29Z</time>
      </trkpt>
      <trkpt lat="45.59411" lon="5.77687">
        <ele>434.9</ele>
        <time>2022-04-15T13:09:30Z</time>
      </trkpt>
      <trkpt lat="45.59411" lon="5.77687">
        <ele>434.9</ele>
        <time>2022-04-15T13:09:31Z</time>
      </trkpt>
      <trkpt lat="45.59411" lon="5.77687">
        <ele>434.9</ele>
        <time>2022-04-15T13:09:32Z</time>
      </trkpt>
      <trkpt lat="45.59411" lon="5.77687">
        <ele>434.9</ele>
        <time>2022-04-15T13:09:33Z</time>
      </trkpt>
      <trkpt lat="45.59411" lon="5.77687">
        <ele>434.9</ele>
        <time>2022-04-15T13:09:34Z</time>
      </trkpt>
      <trkpt lat="45.59411" lon="5.77687">
        <ele>434.9</ele>
        <time>2022-04-15T13:09:35Z</time>
      </trkpt>
      <trkpt lat="45.59411" lon="5.77687">
        <ele>434.9</ele>
        <time>2022-04-15T13:09:36Z</time>
      </trkpt>
      <trkpt lat="45.59411" lon="5.77687">
        <ele>434.9</ele>
        <time>2022-04-15T13:09:37Z</time>
      </trkpt>
      <trkpt lat="45.59411" lon="5.77687">
        <ele>434.9</ele>
        <time>2022-04-15T13:09:38Z</time>
      </trkpt>
      <trkpt lat="45.59411" lon="5.77687">
        <ele>434.9</ele>
        <time>2022-04-15T13:09:39Z</time>
      </trkpt>
      <trkpt lat="45.59411" lon="5.77687">
        <ele>434.9</ele>
        <time>2022-04-15T13:09:40Z</time>
      </trkpt>
      <trkpt lat="45.59411" lon="5.77687">
        <ele>434.9</ele>
        <time>2022-04-15T13:09:41Z</time>
      </trkpt>
      <trkpt lat="45.59411" lon="5.77687">
        <ele>434.9</ele>
        <time>2022-04-15T13:09:42Z</time>
      </trkpt>
      <trkpt lat="45.59411" lon="5.77687">
        <ele>434.9</ele>
        <time>2022-04-15T13:09:43Z</time>
      </trkpt>
      <trkpt lat="45.59411" lon="5.77687">
        <ele>434.9</ele>
        <time>2022-04-15T13:09:44Z</time>
      </trkpt>
      <trkpt lat="45.59411" lon="5.77687">
        <ele>434.9</ele>
        <time>2022-04-15T13:09:45Z</time>
      </trkpt>
      <trkpt lat="45.59411" lon="5.77687">
        <ele>434.9</ele>
        <time>2022-04-15T13:09:46Z</time>
      </trkpt>
      <trkpt lat="45.59411" lon="5.77687">
        <ele>434.9</ele>
        <time>2022-04-15T13:09:47Z</time>
      </trkpt>
      <trkpt lat="45.59411" lon="5.77687">
        <ele>434.9</ele>
        <time>2022-04-15T13:09:48Z</time>
      </trkpt>
      <trkpt lat="45.59411" lon="5.77687">
        <ele>434.9</ele>
        <time>2022-04-15T13:09:49Z</time>
      </trkpt>
      <trkpt lat="45.59411" lon="5.77687">
        <ele>434.9</ele>
        <time>2022-04-15T13:09:50Z</time>
      </trkpt>
      <trkpt lat="45.59411" lon="5.77687">
        <ele>434.9</ele>
        <time>2022-04-15T13:09:51Z</time>
      </trkpt>
      <trkpt lat="45.59411" lon="5.77687">
        <ele>434.9</ele>
        <time>2022-04-15T13:09:52Z</time>
      </trkpt>
      <trkpt lat="45.59411" lon="5.77687">
        <ele>434.9</ele>
        <time>2022-04-15T13:09:53Z</time>
      </trkpt>
      <trkpt lat="45.59411" lon="5.77687">
        <ele>434.9</ele>
        <time>2022-04-15T13:09:54Z</time>
      </trkpt>
      <trkpt lat="45.59411" lon="5.77687">
        <ele>434.9</ele>
        <time>2022-04-15T13:09:55Z</time>
      </trkpt>
      <trkpt lat="45.59411" lon="5.77687">
        <ele>434.9</ele>
        <time>2022-04-15T13:09:56Z</time>
      </trkpt>
      <trkpt lat="45.59411" lon="5.77687">
        <ele>434.9</ele>
        <time>2022-04-15T13:09:57Z</time>
      </trkpt>
      <trkpt lat="45.59411" lon="5.77687">
        <ele>434.9</ele>
        <time>2022-04-15T13:09:58Z</time>
      </trkpt>
      <trkpt lat="45.59411" lon="5.77687">
        <ele>434.9</ele>
        <time>2022-04-15T13:09:59Z</time>
      </trkpt>
      <trkpt lat="45.59411" lon="5.77687">
        <ele>434.9</ele>
        <time>2022-04-15T13:10:00Z</time>
      </trkpt>
      <trkpt lat="45.59411" lon="5.77687">
        <ele>434.9</ele>
        <time>2022-04-15T13:10:01Z</time>
      </trkpt>
      <trkpt lat="45.59411" lon="5.77687">
        <ele>434.9</ele>
        <time>2022-04-15T13:10:02Z</time>
      </trkpt>
      <trkpt lat="45.59411" lon="5.77687">
        <ele>434.9</ele>
        <time>2022-04-15T13:10:03Z</time>
      </trkpt>
      <trkpt lat="45.59411" lon="5.77687">
        <ele>434.9</ele>
        <time>2022-04-15T13:10:04Z</time>
      </trkpt>
      <trkpt lat="45.59411" lon="5.77687">
        <ele>434.9</ele>
        <time>2022-04-15T13:10:05Z</time>
      </trkpt>
      <trkpt lat="45.59411" lon="5.77687">
        <ele>434.9</ele>
        <time>2022-04-15T13:10:06Z</time>
      </trkpt>
      <trkpt lat="45.59411" lon="5.77687">
        <ele>434.9</ele>
        <time>2022-04-15T13:10:07Z</time>
      </trkpt>
      <trkpt lat="45.59411" lon="5.77687">
        <ele>434.9</ele>
        <time>2022-04-15T13:10:08Z</time>
      </trkpt>
      <trkpt lat="45.59411" lon="5.77687">
        <ele>434.9</ele>
        <time>2022-04-15T13:10:09Z</time>
      </trkpt>
      <trkpt lat="45.59411" lon="5.77687">
        <ele>434.9</ele>
        <time>2022-04-15T13:10:10Z</time>
      </trkpt>
      <trkpt lat="45.59411" lon="5.77687">
        <ele>434.9</ele>
        <time>2022-04-15T13:10:11Z</time>
      </trkpt>
      <trkpt lat="45.59411" lon="5.77687">
        <ele>434.9</ele>
        <time>2022-04-15T13:10:12Z</time>
      </trkpt>
      <trkpt lat="45.59411" lon="5.77687">
        <ele>434.9</ele>
        <time>2022-04-15T13:10:13Z</time>
      </trkpt>
      <trkpt lat="45.59411" lon="5.77687">
        <ele>434.9</ele>
        <time>2022-04-15T13:10:14Z</time>
      </trkpt>
      <trkpt lat="45.59411" lon="5.77687">
        <ele>434.9</ele>
        <time>2022-04-15T13:10:15Z</time>
      </trkpt>
      <trkpt lat="45.59411" lon="5.77687">
        <ele>434.9</ele>
        <time>2022-04-15T13:10:16Z</time>
      </trkpt>
      <trkpt lat="45.59411" lon="5.77687">
        <ele>434.9</ele>
        <time>2022-04-15T13:10:17Z</time>
      </trkpt>
      <trkpt lat="45.59411" lon="5.77687">
        <ele>434.9</ele>
        <time>2022-04-15T13:10:18Z</time>
      </trkpt>
      <trkpt lat="45.59411" lon="5.77687">
        <ele>434.9</ele>
        <time>2022-04-15T13:10:19Z</time>
      </trkpt>
      <trkpt lat="45.59411" lon="5.77687">
        <ele>434.9</ele>
        <time>2022-04-15T13:10:20Z</time>
      </trkpt>
      <trkpt lat="45.59411" lon="5.77687">
        <ele>434.9</ele>
        <time>2022-04-15T13:10:21Z</time>
      </trkpt>
      <trkpt lat="45.59411" lon="5.77687">
        <ele>434.9</ele>
        <time>2022-04-15T13:10:22Z</time>
      </trkpt>
      <trkpt lat="45.59411" lon="5.77687">
        <ele>434.9</ele>
        <time>2022-04-15T13:10:23Z</time>
      </trkpt>
      <trkpt lat="45.59411" lon="5.77687">
        <ele>434.9</ele>
        <time>2022-04-15T13:10:24Z</time>
      </trkpt>
      <trkpt lat="45.59411" lon="5.77687">
        <ele>434.9</ele>
        <time>2022-04-15T13:10:25Z</time>
      </trkpt>
      <trkpt lat="45.59411" lon="5.77687">
        <ele>434.9</ele>
        <time>2022-04-15T13:10:26Z</time>
      </trkpt>
      <trkpt lat="45.59411" lon="5.77687">
        <ele>434.9</ele>
        <time>2022-04-15T13:10:27Z</time>
      </trkpt>
      <trkpt lat="45.59411" lon="5.77687">
        <ele>434.9</ele>
        <time>2022-04-15T13:10:28Z</time>
      </trkpt>
      <trkpt lat="45.59411" lon="5.77687">
        <ele>434.9</ele>
        <time>2022-04-15T13:10:29Z</time>
      </trkpt>
      <trkpt lat="45.59411" lon="5.77687">
        <ele>434.9</ele>
        <time>2022-04-15T13:10:30Z</time>
      </trkpt>
      <trkpt lat="45.59411" lon="5.77687">
        <ele>434.9</ele>
        <time>2022-04-15T13:10:31Z</time>
      </trkpt>
      <trkpt lat="45.59411" lon="5.77687">
        <ele>434.9</ele>
        <time>2022-04-15T13:10:32Z</time>
      </trkpt>
      <trkpt lat="45.59411" lon="5.77687">
        <ele>434.9</ele>
        <time>2022-04-15T13:10:33Z</time>
      </trkpt>
      <trkpt lat="45.59411" lon="5.77687">
        <ele>434.9</ele>
        <time>2022-04-15T13:10:34Z</time>
      </trkpt>
      <trkpt lat="45.59411" lon="5.77687">
        <ele>434.9</ele>
        <time>2022-04-15T13:10:35Z</time>
      </trkpt>
      <trkpt lat="45.59411" lon="5.77687">
        <ele>434.9</ele>
        <time>2022-04-15T13:10:36Z</time>
      </trkpt>
      <trkpt lat="45.59411" lon="5.77687">
        <ele>434.9</ele>
        <time>2022-04-15T13:10:37Z</time>
      </trkpt>
      <trkpt lat="45.59411" lon="5.77687">
        <ele>434.9</ele>
        <time>2022-04-15T13:10:38Z</time>
      </trkpt>
      <trkpt lat="45.59411" lon="5.77687">
        <ele>434.9</ele>
        <time>2022-04-15T13:10:39Z</time>
      </trkpt>
      <trkpt lat="45.59411" lon="5.77687">
        <ele>434.9</ele>
        <time>2022-04-15T13:10:40Z</time>
      </trkpt>
      <trkpt lat="45.59411" lon="5.77687">
        <ele>434.9</ele>
        <time>2022-04-15T13:10:41Z</time>
      </trkpt>
      <trkpt lat="45.59411" lon="5.77687">
        <ele>434.9</ele>
        <time>2022-04-15T13:10:42Z</time>
      </trkpt>
      <trkpt lat="45.59411" lon="5.77687">
        <ele>434.9</ele>
        <time>2022-04-15T13:10:43Z</time>
      </trkpt>
      <trkpt lat="45.59411" lon="5.77687">
        <ele>434.9</ele>
        <time>2022-04-15T13:10:44Z</time>
      </trkpt>
      <trkpt lat="45.59411" lon="5.77687">
        <ele>434.9</ele>
        <time>2022-04-15T13:10:45Z</time>
      </trkpt>
      <trkpt lat="45.59411" lon="5.77687">
        <ele>434.9</ele>
        <time>2022-04-15T13:10:46Z</time>
      </trkpt>
      <trkpt lat="45.59411" lon="5.77687">
        <ele>434.9</ele>
        <time>2022-04-15T13:10:47Z</time>
      </trkpt>
      <trkpt lat="45.59411" lon="5.77687">
        <ele>434.9</ele>
        <time>2022-04-15T13:10:48Z</time>
      </trkpt>
      <trkpt lat="45.59411" lon="5.77687">
        <ele>434.9</ele>
        <time>2022-04-15T13:10:49Z</time>
      </trkpt>
      <trkpt lat="45.59411" lon="5.77687">
        <ele>434.9</ele>
        <time>2022-04-15T13:10:50Z</time>
      </trkpt>
      <trkpt lat="45.59411" lon="5.77687">
        <ele>434.9</ele>
        <time>2022-04-15T13:10:51Z</time>
      </trkpt>
      <trkpt lat="45.59411" lon="5.77687">
        <ele>434.9</ele>
        <time>2022-04-15T13:10:52Z</time>
      </trkpt>
      <trkpt lat="45.59411" lon="5.77687">
        <ele>434.9</ele>
        <time>2022-04-15T13:10:53Z</time>
      </trkpt>
      <trkpt lat="45.59411" lon="5.77687">
        <ele>434.9</ele>
        <time>2022-04-15T13:10:54Z</time>
      </trkpt>
      <trkpt lat="45.59411" lon="5.77687">
        <ele>434.9</ele>
        <time>2022-04-15T13:10:55Z</time>
      </trkpt>
      <trkpt lat="45.59411" lon="5.77687">
        <ele>434.9</ele>
        <time>2022-04-15T13:10:56Z</time>
      </trkpt>
      <trkpt lat="45.59411" lon="5.77687">
        <ele>434.9</ele>
        <time>2022-04-15T13:10:57Z</time>
      </trkpt>
      <trkpt lat="45.59411" lon="5.77687">
        <ele>434.9</ele>
        <time>2022-04-15T13:10:58Z</time>
      </trkpt>
      <trkpt lat="45.59411" lon="5.77687">
        <ele>434.9</ele>
        <time>2022-04-15T13:10:59Z</time>
      </trkpt>
      <trkpt lat="45.59411" lon="5.77687">
        <ele>434.9</ele>
        <time>2022-04-15T13:11:00Z</time>
      </trkpt>
      <trkpt lat="45.59411" lon="5.77687">
        <ele>434.9</ele>
        <time>2022-04-15T13:11:01Z</time>
      </trkpt>
      <trkpt lat="45.59411" lon="5.77687">
        <ele>434.9</ele>
        <time>2022-04-15T13:11:02Z</time>
      </trkpt>
      <trkpt lat="45.59411" lon="5.77687">
        <ele>434.9</ele>
        <time>2022-04-15T13:11:03Z</time>
      </trkpt>
      <trkpt lat="45.59411" lon="5.77687">
        <ele>434.9</ele>
        <time>2022-04-15T13:11:04Z</time>
      </trkpt>
      <trkpt lat="45.59411" lon="5.77687">
        <ele>434.9</ele>
        <time>2022-04-15T13:11:05Z</time>
      </trkpt>
      <trkpt lat="45.59411" lon="5.77687">
        <ele>434.9</ele>
        <time>2022-04-15T13:11:06Z</time>
      </trkpt>
      <trkpt lat="45.59411" lon="5.77687">
        <ele>434.9</ele>
        <time>2022-04-15T13:11:07Z</time>
      </trkpt>
      <trkpt lat="45.59411" lon="5.77687">
        <ele>434.9</ele>
        <time>2022-04-15T13:11:08Z</time>
      </trkpt>
      <trkpt lat="45.59411" lon="5.77687">
        <ele>434.9</ele>
        <time>2022-04-15T13:11:09Z</time>
      </trkpt>
      <trkpt lat="45.59411" lon="5.77687">
        <ele>434.9</ele>
        <time>2022-04-15T13:11:10Z</time>
      </trkpt>
      <trkpt lat="45.59411" lon="5.77687">
        <ele>434.9</ele>
        <time>2022-04-15T13:11:11Z</time>
      </trkpt>
      <trkpt lat="45.59411" lon="5.77687">
        <ele>434.9</ele>
        <time>2022-04-15T13:11:12Z</time>
      </trkpt>
      <trkpt lat="45.59411" lon="5.77687">
        <ele>434.9</ele>
        <time>2022-04-15T13:11:13Z</time>
      </trkpt>
      <trkpt lat="45.59411" lon="5.77687">
        <ele>434.9</ele>
        <time>2022-04-15T13:11:14Z</time>
      </trkpt>
      <trkpt lat="45.59411" lon="5.77687">
        <ele>434.9</ele>
        <time>2022-04-15T13:11:15Z</time>
      </trkpt>
      <trkpt lat="45.59411" lon="5.77687">
        <ele>434.9</ele>
        <time>2022-04-15T13:11:16Z</time>
      </trkpt>
      <trkpt lat="45.59411" lon="5.77687">
        <ele>434.9</ele>
        <time>2022-04-15T13:11:17Z</time>
      </trkpt>
      <trkpt lat="45.59411" lon="5.77687">
        <ele>434.9</ele>
        <time>2022-04-15T13:11:18Z</time>
      </trkpt>
      <trkpt lat="45.59411" lon="5.77687">
        <ele>434.9</ele>
        <time>2022-04-15T13:11:19Z</time>
      </trkpt>
      <trkpt lat="45.59411" lon="5.77687">
        <ele>434.9</ele>
        <time>2022-04-15T13:11:20Z</time>
      </trkpt>
      <trkpt lat="45.59411" lon="5.77687">
        <ele>434.9</ele>
        <time>2022-04-15T13:11:21Z</time>
      </trkpt>
      <trkpt lat="45.59411" lon="5.77687">
        <ele>434.9</ele>
        <time>2022-04-15T13:11:22Z</time>
      </trkpt>
      <trkpt lat="45.59411" lon="5.77687">
        <ele>434.9</ele>
        <time>2022-04-15T13:11:23Z</time>
      </trkpt>
      <trkpt lat="45.59411" lon="5.77687">
        <ele>434.9</ele>
        <time>2022-04-15T13:11:24Z</time>
      </trkpt>
      <trkpt lat="45.59411" lon="5.77687">
        <ele>434.9</ele>
        <time>2022-04-15T13:11:25Z</time>
      </trkpt>
      <trkpt lat="45.59411" lon="5.77687">
        <ele>434.9</ele>
        <time>2022-04-15T13:11:26Z</time>
      </trkpt>
      <trkpt lat="45.59411" lon="5.77687">
        <ele>434.9</ele>
        <time>2022-04-15T13:11:27Z</time>
      </trkpt>
      <trkpt lat="45.59411" lon="5.77687">
        <ele>434.9</ele>
        <time>2022-04-15T13:11:28Z</time>
      </trkpt>
      <trkpt lat="45.59411" lon="5.77687">
        <ele>434.9</ele>
        <time>2022-04-15T13:11:29Z</time>
      </trkpt>
      <trkpt lat="45.59411" lon="5.77687">
        <ele>434.9</ele>
        <time>2022-04-15T13:11:30Z</time>
      </trkpt>
      <trkpt lat="45.59411" lon="5.77687">
        <ele>434.9</ele>
        <time>2022-04-15T13:11:31Z</time>
      </trkpt>
      <trkpt lat="45.59411" lon="5.77687">
        <ele>434.9</ele>
        <time>2022-04-15T13:11:32Z</time>
      </trkpt>
      <trkpt lat="45.59411" lon="5.77687">
        <ele>434.9</ele>
        <time>2022-04-15T13:11:33Z</time>
      </trkpt>
      <trkpt lat="45.59411" lon="5.77687">
        <ele>434.9</ele>
        <time>2022-04-15T13:11:34Z</time>
      </trkpt>
      <trkpt lat="45.59411" lon="5.77687">
        <ele>434.9</ele>
        <time>2022-04-15T13:11:35Z</time>
      </trkpt>
      <trkpt lat="45.59411" lon="5.77687">
        <ele>434.9</ele>
        <time>2022-04-15T13:11:36Z</time>
      </trkpt>
      <trkpt lat="45.59411" lon="5.77687">
        <ele>434.9</ele>
        <time>2022-04-15T13:11:37Z</time>
      </trkpt>
      <trkpt lat="45.59411" lon="5.77687">
        <ele>434.9</ele>
        <time>2022-04-15T13:11:38Z</time>
      </trkpt>
      <trkpt lat="45.59411" lon="5.77687">
        <ele>434.9</ele>
        <time>2022-04-15T13:11:39Z</time>
      </trkpt>
      <trkpt lat="45.59411" lon="5.77687">
        <ele>434.9</ele>
        <time>2022-04-15T13:11:40Z</time>
      </trkpt>
      <trkpt lat="45.59411" lon="5.77687">
        <ele>434.9</ele>
        <time>2022-04-15T13:11:41Z</time>
      </trkpt>
      <trkpt lat="45.59411" lon="5.77687">
        <ele>434.9</ele>
        <time>2022-04-15T13:11:42Z</time>
      </trkpt>
      <trkpt lat="45.59411" lon="5.77687">
        <ele>434.9</ele>
        <time>2022-04-15T13:11:43Z</time>
      </trkpt>
      <trkpt lat="45.59411" lon="5.77687">
        <ele>434.9</ele>
        <time>2022-04-15T13:11:44Z</time>
      </trkpt>
      <trkpt lat="45.59411" lon="5.77687">
        <ele>434.9</ele>
        <time>2022-04-15T13:11:45Z</time>
      </trkpt>
      <trkpt lat="45.59411" lon="5.77687">
        <ele>434.9</ele>
        <time>2022-04-15T13:11:46Z</time>
      </trkpt>
      <trkpt lat="45.59411" lon="5.77687">
        <ele>434.9</ele>
        <time>2022-04-15T13:11:47Z</time>
      </trkpt>
      <trkpt lat="45.59411" lon="5.77687">
        <ele>434.9</ele>
        <time>2022-04-15T13:11:48Z</time>
      </trkpt>
      <trkpt lat="45.59411" lon="5.77687">
        <ele>434.9</ele>
        <time>2022-04-15T13:11:49Z</time>
      </trkpt>
      <trkpt lat="45.59411" lon="5.77687">
        <ele>434.9</ele>
        <time>2022-04-15T13:11:50Z</time>
      </trkpt>
      <trkpt lat="45.59411" lon="5.77687">
        <ele>434.9</ele>
        <time>2022-04-15T13:11:51Z</time>
      </trkpt>
      <trkpt lat="45.59411" lon="5.77687">
        <ele>434.9</ele>
        <time>2022-04-15T13:11:52Z</time>
      </trkpt>
      <trkpt lat="45.59411" lon="5.77687">
        <ele>434.9</ele>
        <time>2022-04-15T13:11:53Z</time>
      </trkpt>
      <trkpt lat="45.59411" lon="5.77687">
        <ele>434.9</ele>
        <time>2022-04-15T13:11:54Z</time>
      </trkpt>
      <trkpt lat="45.59411" lon="5.77687">
        <ele>434.9</ele>
        <time>2022-04-15T13:11:55Z</time>
      </trkpt>
      <trkpt lat="45.59411" lon="5.77687">
        <ele>434.9</ele>
        <time>2022-04-15T13:11:56Z</time>
      </trkpt>
      <trkpt lat="45.59411" lon="5.77687">
        <ele>434.9</ele>
        <time>2022-04-15T13:11:57Z</time>
      </trkpt>
      <trkpt lat="45.59411" lon="5.77687">
        <ele>434.9</ele>
        <time>2022-04-15T13:11:58Z</time>
      </trkpt>
      <trkpt lat="45.59411" lon="5.77687">
        <ele>434.9</ele>
        <time>2022-04-15T13:11:59Z</time>
      </trkpt>
      <trkpt lat="45.59411" lon="5.77687">
        <ele>434.9</ele>
        <time>2022-04-15T13:12:00Z</time>
      </trkpt>
      <trkpt lat="45.59411" lon="5.77687">
        <ele>434.9</ele>
        <time>2022-04-15T13:12:01Z</time>
      </trkpt>
      <trkpt lat="45.59411" lon="5.77687">
        <ele>434.9</ele>
        <time>2022-04-15T13:12:02Z</time>
      </trkpt>
      <trkpt lat="45.59411" lon="5.77687">
        <ele>434.9</ele>
        <time>2022-04-15T13:12:03Z</time>
      </trkpt>
      <trkpt lat="45.59411" lon="5.77687">
        <ele>434.9</ele>
        <time>2022-04-15T13:12:04Z</time>
      </trkpt>
      <trkpt lat="45.59411" lon="5.77687">
        <ele>434.9</ele>
        <time>2022-04-15T13:12:05Z</time>
      </trkpt>
      <trkpt lat="45.59411" lon="5.77687">
        <ele>434.9</ele>
        <time>2022-04-15T13:12:06Z</time>
      </trkpt>
      <trkpt lat="45.59411" lon="5.77687">
        <ele>434.9</ele>
        <time>2022-04-15T13:12:07Z</time>
      </trkpt>
      <trkpt lat="45.59411" lon="5.77687">
        <ele>434.9</ele>
        <time>2022-04-15T13:12:08Z</time>
      </trkpt>
      <trkpt lat="45.59411" lon="5.77687">
        <ele>434.9</ele>
        <time>2022-04-15T13:12:09Z</time>
      </trkpt>
      <trkpt lat="45.59411" lon="5.77687">
        <ele>434.9</ele>
        <time>2022-04-15T13:12:10Z</time>
      </trkpt>
      <trkpt lat="45.59411" lon="5.77687">
        <ele>434.9</ele>
        <time>2022-04-15T13:12:11Z</time>
      </trkpt>
      <trkpt lat="45.59411" lon="5.77687">
        <ele>434.9</ele>
        <time>2022-04-15T13:12:12Z</time>
      </trkpt>
      <trkpt lat="45.59411" lon="5.77687">
        <ele>434.9</ele>
        <time>2022-04-15T13:12:13Z</time>
      </trkpt>
      <trkpt lat="45.59411" lon="5.77687">
        <ele>434.9</ele>
        <time>2022-04-15T13:12:14Z</time>
      </trkpt>
      <trkpt lat="45.59411" lon="5.77687">
        <ele>434.9</ele>
        <time>2022-04-15T13:12:15Z</time>
      </trkpt>
      <trkpt lat="45.59411" lon="5.77687">
        <ele>434.9</ele>
        <time>2022-04-15T13:12:16Z</time>
      </trkpt>
      <trkpt lat="45.59411" lon="5.77687">
        <ele>434.9</ele>
        <time>2022-04-15T13:12:17Z</time>
      </trkpt>
      <trkpt lat="45.59411" lon="5.77687">
        <ele>434.9</ele>
        <time>2022-04-15T13:12:18Z</time>
      </trkpt>
      <trkpt lat="45.59411" lon="5.77687">
        <ele>434.9</ele>
        <time>2022-04-15T13:12:19Z</time>
      </trkpt>
      <trkpt lat="45.59411" lon="5.77687">
        <ele>434.9</ele>
        <time>2022-04-15T13:12:20Z</time>
      </trkpt>
      <trkpt lat="45.59411" lon="5.77687">
        <ele>434.9</ele>
        <time>2022-04-15T13:12:21Z</time>
      </trkpt>
      <trkpt lat="45.59411" lon="5.77687">
        <ele>434.9</ele>
        <time>2022-04-15T13:12:22Z</time>
      </trkpt>
      <trkpt lat="45.59411" lon="5.77687">
        <ele>434.9</ele>
        <time>2022-04-15T13:12:23Z</time>
      </trkpt>
      <trkpt lat="45.59411" lon="5.77687">
        <ele>434.9</ele>
        <time>2022-04-15T13:12:24Z</time>
      </trkpt>
      <trkpt lat="45.59411" lon="5.77687">
        <ele>434.9</ele>
        <time>2022-04-15T13:12:25Z</time>
      </trkpt>
      <trkpt lat="45.59411" lon="5.77687">
        <ele>434.9</ele>
        <time>2022-04-15T13:12:26Z</time>
      </trkpt>
      <trkpt lat="45.59411" lon="5.77687">
        <ele>434.9</ele>
        <time>2022-04-15T13:12:27Z</time>
      </trkpt>
      <trkpt lat="45.59411" lon="5.77687">
        <ele>434.9</ele>
        <time>2022-04-15T13:12:28Z</time>
      </trkpt>
      <trkpt lat="45.59411" lon="5.77687">
        <ele>434.9</ele>
        <time>2022-04-15T13:12:29Z</time>
      </trkpt>
      <trkpt lat="45.59411" lon="5.77687">
        <ele>434.9</ele>
        <time>2022-04-15T13:12:30Z</time>
      </trkpt>
      <trkpt lat="45.59411" lon="5.77687">
        <ele>434.9</ele>
        <time>2022-04-15T13:12:31Z</time>
      </trkpt>
      <trkpt lat="45.59411" lon="5.77687">
        <ele>434.9</ele>
        <time>2022-04-15T13:12:32Z</time>
      </trkpt>
      <trkpt lat="45.59411" lon="5.77687">
        <ele>434.9</ele>
        <time>2022-04-15T13:12:33Z</time>
      </trkpt>
      <trkpt lat="45.59411" lon="5.77687">
        <ele>434.9</ele>
        <time>2022-04-15T13:12:34Z</time>
      </trkpt>
      <trkpt lat="45.59411" lon="5.77687">
        <ele>434.9</ele>
        <time>2022-04-15T13:12:35Z</time>
      </trkpt>
      <trkpt lat="45.59411" lon="5.77687">
        <ele>434.9</ele>
        <time>2022-04-15T13:12:36Z</time>
      </trkpt>
      <trkpt lat="45.59411" lon="5.77687">
        <ele>434.9</ele>
        <time>2022-04-15T13:12:37Z</time>
      </trkpt>
      <trkpt lat="45.59411" lon="5.77687">
        <ele>434.9</ele>
        <time>2022-04-15T13:12:38Z</time>
      </trkpt>
      <trkpt lat="45.59411" lon="5.77687">
        <ele>434.9</ele>
        <time>2022-04-15T13:12:39Z</time>
      </trkpt>
      <trkpt lat="45.59411" lon="5.77687">
        <ele>434.9</ele>
        <time>2022-04-15T13:12:40Z</time>
      </trkpt>
      <trkpt lat="45.59411" lon="5.77687">
        <ele>434.9</ele>
        <time>2022-04-15T13:12:41Z</time>
      </trkpt>
      <trkpt lat="45.59411" lon="5.77687">
        <ele>434.9</ele>
        <time>2022-04-15T13:12:42Z</time>
      </trkpt>
      <trkpt lat="45.59411" lon="5.77687">
        <ele>434.9</ele>
        <time>2022-04-15T13:12:43Z</time>
      </trkpt>
      <trkpt lat="45.59411" lon="5.77687">
        <ele>434.9</ele>
        <time>2022-04-15T13:12:44Z</time>
      </trkpt>
      <trkpt lat="45.59411" lon="5.77687">
        <ele>434.9</ele>
        <time>2022-04-15T13:12:45Z</time>
      </trkpt>
      <trkpt lat="45.59411" lon="5.77687">
        <ele>434.9</ele>
        <time>2022-04-15T13:12:46Z</time>
      </trkpt>
      <trkpt lat="45.59411" lon="5.77687">
        <ele>434.9</ele>
        <time>2022-04-15T13:12:47Z</time>
      </trkpt>
      <trkpt lat="45.59411" lon="5.77687">
        <ele>434.9</ele>
        <time>2022-04-15T13:12:48Z</time>
      </trkpt>
      <trkpt lat="45.59411" lon="5.77687">
        <ele>434.9</ele>
        <time>2022-04-15T13:12:49Z</time>
      </trkpt>
      <trkpt lat="45.59411" lon="5.77687">
        <ele>434.9</ele>
        <time>2022-04-15T13:12:50Z</time>
      </trkpt>
      <trkpt lat="45.59411" lon="5.77687">
        <ele>434.9</ele>
        <time>2022-04-15T13:12:51Z</time>
      </trkpt>
      <trkpt lat="45.59411" lon="5.77687">
        <ele>434.9</ele>
        <time>2022-04-15T13:12:52Z</time>
      </trkpt>
      <trkpt lat="45.59411" lon="5.77687">
        <ele>434.9</ele>
        <time>2022-04-15T13:12:53Z</time>
      </trkpt>
      <trkpt lat="45.59411" lon="5.77687">
        <ele>434.9</ele>
        <time>2022-04-15T13:12:54Z</time>
      </trkpt>
      <trkpt lat="45.59411" lon="5.77687">
        <ele>434.9</ele>
        <time>2022-04-15T13:12:55Z</time>
      </trkpt>
      <trkpt lat="45.59411" lon="5.77687">
        <ele>434.9</ele>
        <time>2022-04-15T13:12:56Z</time>
      </trkpt>
      <trkpt lat="45.59411" lon="5.77687">
        <ele>434.9</ele>
        <time>2022-04-15T13:12:57Z</time>
      </trkpt>
      <trkpt lat="45.59411" lon="5.77687">
        <ele>434.9</ele>
        <time>2022-04-15T13:12:58Z</time>
      </trkpt>
      <trkpt lat="45.59411" lon="5.77687">
        <ele>434.9</ele>
        <time>2022-04-15T13:12:59Z</time>
      </trkpt>
      <trkpt lat="45.59411" lon="5.77687">
        <ele>434.9</ele>
        <time>2022-04-15T13:13:00Z</time>
      </trkpt>
      <trkpt lat="45.59411" lon="5.77687">
        <ele>434.9</ele>
        <time>2022-04-15T13:13:01Z</time>
      </trkpt>
      <trkpt lat="45.59411" lon="5.77687">
        <ele>434.9</ele>
        <time>2022-04-15T13:13:02Z</time>
      </trkpt>
      <trkpt lat="45.59411" lon="5.77687">
        <ele>434.9</ele>
        <time>2022-04-15T13:13:03Z</time>
      </trkpt>
      <trkpt lat="45.59411" lon="5.77687">
        <ele>434.9</ele>
        <time>2022-04-15T13:13:04Z</time>
      </trkpt>
      <trkpt lat="45.59411" lon="5.77687">
        <ele>434.9</ele>
        <time>2022-04-15T13:13:05Z</time>
      </trkpt>
      <trkpt lat="45.59411" lon="5.77687">
        <ele>434.9</ele>
        <time>2022-04-15T13:13:06Z</time>
      </trkpt>
      <trkpt lat="45.59411" lon="5.77687">
        <ele>434.9</ele>
        <time>2022-04-15T13:13:07Z</time>
      </trkpt>
      <trkpt lat="45.59411" lon="5.77687">
        <ele>434.9</ele>
        <time>2022-04-15T13:13:08Z</time>
      </trkpt>
      <trkpt lat="45.59411" lon="5.77687">
        <ele>434.9</ele>
        <time>2022-04-15T13:13:09Z</time>
      </trkpt>
      <trkpt lat="45.59411" lon="5.77687">
        <ele>434.9</ele>
        <time>2022-04-15T13:13:10Z</time>
      </trkpt>
      <trkpt lat="45.59411" lon="5.77687">
        <ele>434.9</ele>
        <time>2022-04-15T13:13:11Z</time>
      </trkpt>
      <trkpt lat="45.59411" lon="5.77687">
        <ele>434.9</ele>
        <time>2022-04-15T13:13:12Z</time>
      </trkpt>
      <trkpt lat="45.59411" lon="5.77687">
        <ele>434.9</ele>
        <time>2022-04-15T13:13:13Z</time>
      </trkpt>
      <trkpt lat="45.59411" lon="5.77687">
        <ele>434.9</ele>
        <time>2022-04-15T13:13:14Z</time>
      </trkpt>
      <trkpt lat="45.59411" lon="5.77687">
        <ele>434.9</ele>
        <time>2022-04-15T13:13:15Z</time>
      </trkpt>
      <trkpt lat="45.59411" lon="5.77687">
        <ele>434.9</ele>
        <time>2022-04-15T13:13:16Z</time>
      </trkpt>
      <trkpt lat="45.59411" lon="5.77687">
        <ele>434.9</ele>
        <time>2022-04-15T13:13:17Z</time>
      </trkpt>
      <trkpt lat="45.59411" lon="5.77687">
        <ele>434.9</ele>
        <time>2022-04-15T13:13:18Z</time>
      </trkpt>
      <trkpt lat="45.59411" lon="5.77687">
        <ele>434.9</ele>
        <time>2022-04-15T13:13:19Z</time>
      </trkpt>
      <trkpt lat="45.59411" lon="5.77687">
        <ele>434.9</ele>
        <time>2022-04-15T13:13:20Z</time>
      </trkpt>
      <trkpt lat="45.59411" lon="5.77687">
        <ele>434.9</ele>
        <time>2022-04-15T13:13:21Z</time>
      </trkpt>
      <trkpt lat="45.59411" lon="5.77687">
        <ele>434.9</ele>
        <time>2022-04-15T13:13:22Z</time>
      </trkpt>
      <trkpt lat="45.59411" lon="5.77687">
        <ele>434.9</ele>
        <time>2022-04-15T13:13:23Z</time>
      </trkpt>
      <trkpt lat="45.59411" lon="5.77687">
        <ele>434.9</ele>
        <time>2022-04-15T13:13:24Z</time>
      </trkpt>
      <trkpt lat="45.59411" lon="5.77687">
        <ele>434.9</ele>
        <time>2022-04-15T13:13:25Z</time>
      </trkpt>
      <trkpt lat="45.59411" lon="5.77687">
        <ele>434.9</ele>
        <time>2022-04-15T13:13:26Z</time>
      </trkpt>
      <trkpt lat="45.59411" lon="5.77687">
        <ele>434.9</ele>
        <time>2022-04-15T13:13:27Z</time>
      </trkpt>
      <trkpt lat="45.59411" lon="5.77687">
        <ele>434.9</ele>
        <time>2022-04-15T13:13:28Z</time>
      </trkpt>
      <trkpt lat="45.59411" lon="5.77687">
        <ele>434.9</ele>
        <time>2022-04-15T13:13:29Z</time>
      </trkpt>
      <trkpt lat="45.59411" lon="5.77687">
        <ele>434.9</ele>
        <time>2022-04-15T13:13:30Z</time>
      </trkpt>
      <trkpt lat="45.59411" lon="5.77687">
        <ele>434.9</ele>
        <time>2022-04-15T13:13:31Z</time>
      </trkpt>
      <trkpt lat="45.59411" lon="5.77687">
        <ele>434.9</ele>
        <time>2022-04-15T13:13:32Z</time>
      </trkpt>
      <trkpt lat="45.59411" lon="5.77687">
        <ele>434.9</ele>
        <time>2022-04-15T13:13:33Z</time>
      </trkpt>
      <trkpt lat="45.59411" lon="5.77687">
        <ele>434.9</ele>
        <time>2022-04-15T13:13:34Z</time>
      </trkpt>
      <trkpt lat="45.59411" lon="5.77687">
        <ele>434.9</ele>
        <time>2022-04-15T13:13:35Z</time>
      </trkpt>
      <trkpt lat="45.59411" lon="5.77687">
        <ele>434.9</ele>
        <time>2022-04-15T13:13:36Z</time>
      </trkpt>
      <trkpt lat="45.59411" lon="5.77687">
        <ele>434.9</ele>
        <time>2022-04-15T13:13:37Z</time>
      </trkpt>
      <trkpt lat="45.59411" lon="5.77687">
        <ele>434.9</ele>
        <time>2022-04-15T13:13:38Z</time>
      </trkpt>
      <trkpt lat="45.59411" lon="5.77687">
        <ele>434.9</ele>
        <time>2022-04-15T13:13:39Z</time>
      </trkpt>
      <trkpt lat="45.59411" lon="5.77687">
        <ele>434.9</ele>
        <time>2022-04-15T13:13:40Z</time>
      </trkpt>
      <trkpt lat="45.59411" lon="5.77687">
        <ele>434.9</ele>
        <time>2022-04-15T13:13:41Z</time>
      </trkpt>
      <trkpt lat="45.59411" lon="5.77687">
        <ele>434.9</ele>
        <time>2022-04-15T13:13:42Z</time>
      </trkpt>
      <trkpt lat="45.59411" lon="5.77687">
        <ele>434.9</ele>
        <time>2022-04-15T13:13:43Z</time>
      </trkpt>
      <trkpt lat="45.59411" lon="5.77687">
        <ele>434.9</ele>
        <time>2022-04-15T13:13:44Z</time>
      </trkpt>
      <trkpt lat="45.59411" lon="5.77687">
        <ele>434.9</ele>
        <time>2022-04-15T13:13:45Z</time>
      </trkpt>
      <trkpt lat="45.59411" lon="5.77687">
        <ele>434.9</ele>
        <time>2022-04-15T13:13:46Z</time>
      </trkpt>
      <trkpt lat="45.59411" lon="5.77687">
        <ele>434.9</ele>
        <time>2022-04-15T13:13:47Z</time>
      </trkpt>
      <trkpt lat="45.59411" lon="5.77687">
        <ele>434.9</ele>
        <time>2022-04-15T13:13:48Z</time>
      </trkpt>
      <trkpt lat="45.59411" lon="5.77687">
        <ele>434.9</ele>
        <time>2022-04-15T13:13:49Z</time>
      </trkpt>
      <trkpt lat="45.59411" lon="5.77687">
        <ele>434.9</ele>
        <time>2022-04-15T13:13:50Z</time>
      </trkpt>
      <trkpt lat="45.59411" lon="5.77687">
        <ele>434.9</ele>
        <time>2022-04-15T13:13:51Z</time>
      </trkpt>
      <trkpt lat="45.59411" lon="5.77687">
        <ele>434.9</ele>
        <time>2022-04-15T13:13:52Z</time>
      </trkpt>
      <trkpt lat="45.59411" lon="5.77687">
        <ele>434.9</ele>
        <time>2022-04-15T13:13:53Z</time>
      </trkpt>
      <trkpt lat="45.59411" lon="5.77687">
        <ele>434.9</ele>
        <time>2022-04-15T13:13:54Z</time>
      </trkpt>
      <trkpt lat="45.59411" lon="5.77687">
        <ele>434.9</ele>
        <time>2022-04-15T13:13:55Z</time>
      </trkpt>
      <trkpt lat="45.59411" lon="5.77687">
        <ele>434.9</ele>
        <time>2022-04-15T13:13:56Z</time>
      </trkpt>
      <trkpt lat="45.59411" lon="5.77687">
        <ele>434.9</ele>
        <time>2022-04-15T13:13:57Z</time>
      </trkpt>
      <trkpt lat="45.59411" lon="5.77687">
        <ele>434.9</ele>
        <time>2022-04-15T13:13:58Z</time>
      </trkpt>
      <trkpt lat="45.59411" lon="5.77687">
        <ele>434.9</ele>
        <time>2022-04-15T13:13:59Z</time>
      </trkpt>
      <trkpt lat="45.59411" lon="5.77687">
        <ele>434.9</ele>
        <time>2022-04-15T13:14:00Z</time>
      </trkpt>
      <trkpt lat="45.59411" lon="5.77687">
        <ele>434.9</ele>
        <time>2022-04-15T13:14:01Z</time>
      </trkpt>
      <trkpt lat="45.59411" lon="5.77687">
        <ele>434.9</ele>
        <time>2022-04-15T13:14:02Z</time>
      </trkpt>
      <trkpt lat="45.59411" lon="5.77687">
        <ele>434.9</ele>
        <time>2022-04-15T13:14:03Z</time>
      </trkpt>
      <trkpt lat="45.59411" lon="5.77687">
        <ele>434.9</ele>
        <time>2022-04-15T13:14:04Z</time>
      </trkpt>
      <trkpt lat="45.59411" lon="5.77687">
        <ele>434.9</ele>
        <time>2022-04-15T13:14:05Z</time>
      </trkpt>
      <trkpt lat="45.59411" lon="5.77687">
        <ele>434.9</ele>
        <time>2022-04-15T13:14:06Z</time>
      </trkpt>
      <trkpt lat="45.59411" lon="5.77687">
        <ele>434.9</ele>
        <time>2022-04-15T13:14:07Z</time>
      </trkpt>
      <trkpt lat="45.59411" lon="5.77687">
        <ele>434.9</ele>
        <time>2022-04-15T13:14:08Z</time>
      </trkpt>
      <trkpt lat="45.59411" lon="5.77687">
        <ele>434.9</ele>
        <time>2022-04-15T13:14:09Z</time>
      </trkpt>
      <trkpt lat="45.59411" lon="5.77687">
        <ele>434.9</ele>
        <time>2022-04-15T13:14:10Z</time>
      </trkpt>
      <trkpt lat="45.59411" lon="5.77687">
        <ele>434.9</ele>
        <time>2022-04-15T13:14:11Z</time>
      </trkpt>
      <trkpt lat="45.59411" lon="5.77687">
        <ele>434.9</ele>
        <time>2022-04-15T13:14:12Z</time>
      </trkpt>
      <trkpt lat="45.59411" lon="5.77687">
        <ele>434.9</ele>
        <time>2022-04-15T13:14:13Z</time>
      </trkpt>
      <trkpt lat="45.59411" lon="5.77687">
        <ele>434.9</ele>
        <time>2022-04-15T13:14:14Z</time>
      </trkpt>
      <trkpt lat="45.59411" lon="5.77687">
        <ele>434.9</ele>
        <time>2022-04-15T13:14:15Z</time>
      </trkpt>
      <trkpt lat="45.59411" lon="5.77687">
        <ele>434.9</ele>
        <time>2022-04-15T13:14:16Z</time>
      </trkpt>
      <trkpt lat="45.59411" lon="5.77687">
        <ele>434.9</ele>
        <time>2022-04-15T13:14:17Z</time>
      </trkpt>
      <trkpt lat="45.59411" lon="5.77687">
        <ele>434.9</ele>
        <time>2022-04-15T13:14:18Z</time>
      </trkpt>
      <trkpt lat="45.59411" lon="5.77687">
        <ele>434.9</ele>
        <time>2022-04-15T13:14:19Z</time>
      </trkpt>
      <trkpt lat="45.59411" lon="5.77687">
        <ele>434.9</ele>
        <time>2022-04-15T13:14:20Z</time>
      </trkpt>
      <trkpt lat="45.59411" lon="5.77687">
        <ele>434.9</ele>
        <time>2022-04-15T13:14:21Z</time>
      </trkpt>
      <trkpt lat="45.59411" lon="5.77687">
        <ele>434.9</ele>
        <time>2022-04-15T13:14:22Z</time>
      </trkpt>
      <trkpt lat="45.59411" lon="5.77687">
        <ele>434.9</ele>
        <time>2022-04-15T13:14:23Z</time>
      </trkpt>
      <trkpt lat="45.59411" lon="5.77687">
        <ele>434.9</ele>
        <time>2022-04-15T13:14:24Z</time>
      </trkpt>
      <trkpt lat="45.59411" lon="5.77687">
        <ele>434.9</ele>
        <time>2022-04-15T13:14:25Z</time>
      </trkpt>
      <trkpt lat="45.59411" lon="5.77687">
        <ele>434.9</ele>
        <time>2022-04-15T13:14:26Z</time>
      </trkpt>
      <trkpt lat="45.59411" lon="5.77687">
        <ele>434.9</ele>
        <time>2022-04-15T13:14:27Z</time>
      </trkpt>
      <trkpt lat="45.59411" lon="5.77687">
        <ele>434.9</ele>
        <time>2022-04-15T13:14:28Z</time>
      </trkpt>
      <trkpt lat="45.59411" lon="5.77687">
        <ele>434.9</ele>
        <time>2022-04-15T13:14:29Z</time>
      </trkpt>
      <trkpt lat="45.59411" lon="5.77687">
        <ele>434.9</ele>
        <time>2022-04-15T13:14:30Z</time>
      </trkpt>
      <trkpt lat="45.59411" lon="5.77687">
        <ele>434.9</ele>
        <time>2022-04-15T13:14:31Z</time>
      </trkpt>
      <trkpt lat="45.59411" lon="5.77687">
        <ele>434.9</ele>
        <time>2022-04-15T13:14:32Z</time>
      </trkpt>
      <trkpt lat="45.59411" lon="5.77687">
        <ele>434.9</ele>
        <time>2022-04-15T13:14:33Z</time>
      </trkpt>
      <trkpt lat="45.59411" lon="5.77687">
        <ele>434.9</ele>
        <time>2022-04-15T13:14:34Z</time>
      </trkpt>
      <trkpt lat="45.59411" lon="5.77687">
        <ele>434.9</ele>
        <time>2022-04-15T13:14:35Z</time>
      </trkpt>
      <trkpt lat="45.59411" lon="5.77687">
        <ele>434.9</ele>
        <time>2022-04-15T13:14:36Z</time>
      </trkpt>
      <trkpt lat="45.59411" lon="5.77687">
        <ele>434.9</ele>
        <time>2022-04-15T13:14:37Z</time>
      </trkpt>
      <trkpt lat="45.59411" lon="5.77687">
        <ele>434.9</ele>
        <time>2022-04-15T13:14:38Z</time>
      </trkpt>
      <trkpt lat="45.59411" lon="5.77687">
        <ele>434.9</ele>
        <time>2022-04-15T13:14:39Z</time>
      </trkpt>
      <trkpt lat="45.59411" lon="5.77687">
        <ele>434.9</ele>
        <time>2022-04-15T13:14:40Z</time>
      </trkpt>
      <trkpt lat="45.59411" lon="5.77687">
        <ele>434.9</ele>
        <time>2022-04-15T13:14:41Z</time>
      </trkpt>
      <trkpt lat="45.59411" lon="5.77687">
        <ele>434.9</ele>
        <time>2022-04-15T13:14:42Z</time>
      </trkpt>
      <trkpt lat="45.59411" lon="5.77687">
        <ele>434.9</ele>
        <time>2022-04-15T13:14:43Z</time>
      </trkpt>
      <trkpt lat="45.59411" lon="5.77687">
        <ele>434.9</ele>
        <time>2022-04-15T13:14:44Z</time>
      </trkpt>
      <trkpt lat="45.59411" lon="5.77687">
        <ele>434.9</ele>
        <time>2022-04-15T13:14:45Z</time>
      </trkpt>
      <trkpt lat="45.59411" lon="5.77687">
        <ele>434.9</ele>
        <time>2022-04-15T13:14:46Z</time>
      </trkpt>
      <trkpt lat="45.59411" lon="5.77687">
        <ele>434.9</ele>
        <time>2022-04-15T13:14:47Z</time>
      </trkpt>
      <trkpt lat="45.59411" lon="5.77687">
        <ele>434.9</ele>
        <time>2022-04-15T13:14:48Z</time>
      </trkpt>
      <trkpt lat="45.59411" lon="5.77687">
        <ele>434.9</ele>
        <time>2022-04-15T13:14:49Z</time>
      </trkpt>
      <trkpt lat="45.59411" lon="5.77687">
        <ele>434.9</ele>
        <time>2022-04-15T13:14:50Z</time>
      </trkpt>
      <trkpt lat="45.59411" lon="5.77687">
        <ele>434.9</ele>
        <time>2022-04-15T13:14:51Z</time>
      </trkpt>
      <trkpt lat="45.59411" lon="5.77687">
        <ele>434.9</ele>
        <time>2022-04-15T13:14:52Z</time>
      </trkpt>
      <trkpt lat="45.59411" lon="5.77687">
        <ele>434.9</ele>
        <time>2022-04-15T13:14:53Z</time>
      </trkpt>
      <trkpt lat="45.59411" lon="5.77687">
        <ele>434.9</ele>
        <time>2022-04-15T13:14:54Z</time>
      </trkpt>
      <trkpt lat="45.59411" lon="5.77687">
        <ele>434.9</ele>
        <time>2022-04-15T13:14:55Z</time>
      </trkpt>
      <trkpt lat="45.59411" lon="5.77687">
        <ele>434.9</ele>
        <time>2022-04-15T13:14:56Z</time>
      </trkpt>
      <trkpt lat="45.59411" lon="5.77687">
        <ele>434.9</ele>
        <time>2022-04-15T13:14:57Z</time>
      </trkpt>
      <trkpt lat="45.59411" lon="5.77687">
        <ele>434.9</ele>
        <time>2022-04-15T13:14:58Z</time>
      </trkpt>
      <trkpt lat="45.59411" lon="5.77687">
        <ele>434.9</ele>
        <time>2022-04-15T13:14:59Z</time>
      </trkpt>
      <trkpt lat="45.59411" lon="5.77687">
        <ele>434.9</ele>
        <time>2022-04-15T13:15:00Z</time>
      </trkpt>
      <trkpt lat="45.59411" lon="5.77687">
        <ele>434.9</ele>
        <time>2022-04-15T13:15:01Z</time>
      </trkpt>
      <trkpt lat="45.59411" lon="5.77687">
        <ele>434.9</ele>
        <time>2022-04-15T13:15:02Z</time>
      </trkpt>
      <trkpt lat="45.59411" lon="5.77687">
        <ele>434.9</ele>
        <time>2022-04-15T13:15:03Z</time>
      </trkpt>
      <trkpt lat="45.59411" lon="5.77687">
        <ele>434.9</ele>
        <time>2022-04-15T13:15:04Z</time>
      </trkpt>
      <trkpt lat="45.59411" lon="5.77687">
        <ele>434.9</ele>
        <time>2022-04-15T13:15:05Z</time>
      </trkpt>
      <trkpt lat="45.59411" lon="5.77687">
        <ele>434.9</ele>
        <time>2022-04-15T13:15:06Z</time>
      </trkpt>
      <trkpt lat="45.59411" lon="5.77687">
        <ele>434.9</ele>
        <time>2022-04-15T13:15:07Z</time>
      </trkpt>
      <trkpt lat="45.59411" lon="5.77687">
        <ele>434.9</ele>
        <time>2022-04-15T13:15:08Z</time>
      </trkpt>
      <trkpt lat="45.59411" lon="5.77687">
        <ele>434.9</ele>
        <time>2022-04-15T13:15:09Z</time>
      </trkpt>
      <trkpt lat="45.59411" lon="5.77687">
        <ele>434.9</ele>
        <time>2022-04-15T13:15:10Z</time>
      </trkpt>
      <trkpt lat="45.59411" lon="5.77687">
        <ele>434.9</ele>
        <time>2022-04-15T13:15:11Z</time>
      </trkpt>
      <trkpt lat="45.59411" lon="5.77687">
        <ele>434.9</ele>
        <time>2022-04-15T13:15:12Z</time>
      </trkpt>
      <trkpt lat="45.59411" lon="5.77687">
        <ele>434.9</ele>
        <time>2022-04-15T13:15:13Z</time>
      </trkpt>
      <trkpt lat="45.59411" lon="5.77687">
        <ele>434.9</ele>
        <time>2022-04-15T13:15:14Z</time>
      </trkpt>
      <trkpt lat="45.59411" lon="5.77687">
        <ele>434.9</ele>
        <time>2022-04-15T13:15:15Z</time>
      </trkpt>
      <trkpt lat="45.59411" lon="5.77687">
        <ele>434.9</ele>
        <time>2022-04-15T13:15:16Z</time>
      </trkpt>
      <trkpt lat="45.59411" lon="5.77687">
        <ele>434.9</ele>
        <time>2022-04-15T13:15:17Z</time>
      </trkpt>
      <trkpt lat="45.59411" lon="5.77687">
        <ele>434.9</ele>
        <time>2022-04-15T13:15:18Z</time>
      </trkpt>
      <trkpt lat="45.59411" lon="5.77687">
        <ele>434.9</ele>
        <time>2022-04-15T13:15:19Z</time>
      </trkpt>
      <trkpt lat="45.59411" lon="5.77687">
        <ele>434.9</ele>
        <time>2022-04-15T13:15:20Z</time>
      </trkpt>
      <trkpt lat="45.59411" lon="5.77687">
        <ele>434.9</ele>
        <time>2022-04-15T13:15:21Z</time>
      </trkpt>
      <trkpt lat="45.59411" lon="5.77687">
        <ele>434.9</ele>
        <time>2022-04-15T13:15:22Z</time>
      </trkpt>
      <trkpt lat="45.59411" lon="5.77687">
        <ele>434.9</ele>
        <time>2022-04-15T13:15:23Z</time>
      </trkpt>
      <trkpt lat="45.59411" lon="5.77687">
        <ele>434.9</ele>
        <time>2022-04-15T13:15:24Z</time>
      </trkpt>
      <trkpt lat="45.59411" lon="5.77687">
        <ele>434.9</ele>
        <time>2022-04-15T13:15:25Z</time>
      </trkpt>
      <trkpt lat="45.59411" lon="5.77687">
        <ele>434.9</ele>
        <time>2022-04-15T13:15:26Z</time>
      </trkpt>
      <trkpt lat="45.59411" lon="5.77687">
        <ele>434.9</ele>
        <time>2022-04-15T13:15:27Z</time>
      </trkpt>
      <trkpt lat="45.59411" lon="5.77687">
        <ele>434.9</ele>
        <time>2022-04-15T13:15:28Z</time>
      </trkpt>
      <trkpt lat="45.59411" lon="5.77687">
        <ele>434.9</ele>
        <time>2022-04-15T13:15:29Z</time>
      </trkpt>
      <trkpt lat="45.59411" lon="5.77687">
        <ele>434.9</ele>
        <time>2022-04-15T13:15:30Z</time>
      </trkpt>
      <trkpt lat="45.59411" lon="5.77687">
        <ele>434.9</ele>
        <time>2022-04-15T13:15:31Z</time>
      </trkpt>
      <trkpt lat="45.59411" lon="5.77687">
        <ele>434.9</ele>
        <time>2022-04-15T13:15:32Z</time>
      </trkpt>
      <trkpt lat="45.59411" lon="5.77687">
        <ele>434.9</ele>
        <time>2022-04-15T13:15:33Z</time>
      </trkpt>
      <trkpt lat="45.59411" lon="5.77687">
        <ele>434.9</ele>
        <time>2022-04-15T13:15:34Z</time>
      </trkpt>
      <trkpt lat="45.59411" lon="5.77687">
        <ele>434.9</ele>
        <time>2022-04-15T13:15:35Z</time>
      </trkpt>
      <trkpt lat="45.59411" lon="5.77687">
        <ele>434.9</ele>
        <time>2022-04-15T13:15:36Z</time>
      </trkpt>
      <trkpt lat="45.59411" lon="5.77687">
        <ele>434.9</ele>
        <time>2022-04-15T13:15:37Z</time>
      </trkpt>
      <trkpt lat="45.59411" lon="5.77687">
        <ele>434.9</ele>
        <time>2022-04-15T13:15:38Z</time>
      </trkpt>
      <trkpt lat="45.59411" lon="5.77687">
        <ele>434.9</ele>
        <time>2022-04-15T13:15:39Z</time>
      </trkpt>
      <trkpt lat="45.59411" lon="5.77687">
        <ele>434.9</ele>
        <time>2022-04-15T13:15:40Z</time>
      </trkpt>
      <trkpt lat="45.59411" lon="5.77687">
        <ele>434.9</ele>
        <time>2022-04-15T13:15:41Z</time>
      </trkpt>
      <trkpt lat="45.59411" lon="5.77687">
        <ele>434.9</ele>
        <time>2022-04-15T13:15:42Z</time>
      </trkpt>
      <trkpt lat="45.59411" lon="5.77687">
        <ele>434.9</ele>
        <time>2022-04-15T13:15:43Z</time>
      </trkpt>
      <trkpt lat="45.59411" lon="5.77687">
        <ele>434.9</ele>
        <time>2022-04-15T13:15:44Z</time>
      </trkpt>
      <trkpt lat="45.59411" lon="5.77687">
        <ele>434.9</ele>
        <time>2022-04-15T13:15:45Z</time>
      </trkpt>
      <trkpt lat="45.59411" lon="5.77687">
        <ele>434.9</ele>
        <time>2022-04-15T13:15:46Z</time>
      </trkpt>
      <trkpt lat="45.59411" lon="5.77687">
        <ele>434.9</ele>
        <time>2022-04-15T13:15:47Z</time>
      </trkpt>
      <trkpt lat="45.59411" lon="5.77687">
        <ele>434.9</ele>
        <time>2022-04-15T13:15:48Z</time>
      </trkpt>
      <trkpt lat="45.59411" lon="5.77687">
        <ele>434.9</ele>
        <time>2022-04-15T13:15:49Z</time>
      </trkpt>
      <trkpt lat="45.59411" lon="5.77687">
        <ele>434.9</ele>
        <time>2022-04-15T13:15:50Z</time>
      </trkpt>
      <trkpt lat="45.59411" lon="5.77687">
        <ele>434.9</ele>
        <time>2022-04-15T13:15:51Z</time>
      </trkpt>
      <trkpt lat="45.59411" lon="5.77687">
        <ele>434.9</ele>
        <time>2022-04-15T13:15:52Z</time>
      </trkpt>
      <trkpt lat="45.59411" lon="5.77687">
        <ele>434.9</ele>
        <time>2022-04-15T13:15:53Z</time>
      </trkpt>
      <trkpt lat="45.59411" lon="5.77687">
        <ele>434.9</ele>
        <time>2022-04-15T13:15:54Z</time>
      </trkpt>
      <trkpt lat="45.59411" lon="5.77687">
        <ele>434.9</ele>
        <time>2022-04-15T13:15:55Z</time>
      </trkpt>
      <trkpt lat="45.59411" lon="5.77687">
        <ele>434.9</ele>
        <time>2022-04-15T13:15:56Z</time>
      </trkpt>
      <trkpt lat="45.59411" lon="5.77687">
        <ele>434.9</ele>
        <time>2022-04-15T13:15:57Z</time>
      </trkpt>
      <trkpt lat="45.59412" lon="5.77686">
        <ele>434.9</ele>
        <time>2022-04-15T13:15:58Z</time>
      </trkpt>
      <trkpt lat="45.59412" lon="5.77684">
        <ele>434.9</ele>
        <time>2022-04-15T13:15:59Z</time>
      </trkpt>
      <trkpt lat="45.59412" lon="5.77683">
        <ele>434.8</ele>
        <time>2022-04-15T13:16:00Z</time>
      </trkpt>
      <trkpt lat="45.59412" lon="5.77681">
        <ele>434.8</ele>
        <time>2022-04-15T13:16:01Z</time>
      </trkpt>
      <trkpt lat="45.59409" lon="5.77681">
        <ele>434.8</ele>
        <time>2022-04-15T13:16:02Z</time>
      </trkpt>
      <trkpt lat="45.59406" lon="5.77681">
        <ele>434.7</ele>
        <time>2022-04-15T13:16:03Z</time>
      </trkpt>
      <trkpt lat="45.59402" lon="5.77681">
        <ele>434.7</ele>
        <time>2022-04-15T13:16:04Z</time>
      </trkpt>
      <trkpt lat="45.594" lon="5.77681">
        <ele>434.7</ele>
        <time>2022-04-15T13:16:05Z</time>
      </trkpt>
      <trkpt lat="45.59399" lon="5.77679">
        <ele>434.6</ele>
        <time>2022-04-15T13:16:06Z</time>
      </trkpt>
      <trkpt lat="45.59398" lon="5.77678">
        <ele>434.6</ele>
        <time>2022-04-15T13:16:07Z</time>
      </trkpt>
      <trkpt lat="45.59398" lon="5.77677">
        <ele>434.6</ele>
        <time>2022-04-15T13:16:08Z</time>
      </trkpt>
      <trkpt lat="45.59398" lon="5.77672">
        <ele>434.5</ele>
        <time>2022-04-15T13:16:09Z</time>
      </trkpt>
      <trkpt lat="45.59398" lon="5.77671">
        <ele>434.5</ele>
        <time>2022-04-15T13:16:10Z</time>
      </trkpt>
      <trkpt lat="45.59398" lon="5.77664">
        <ele>434.4</ele>
        <time>2022-04-15T13:16:11Z</time>
      </trkpt>
      <trkpt lat="45.59398" lon="5.77661">
        <ele>434.4</ele>
        <time>2022-04-15T13:16:12Z</time>
      </trkpt>
      <trkpt lat="45.594" lon="5.77651">
        <ele>434.3</ele>
        <time>2022-04-15T13:16:13Z</time>
      </trkpt>
      <trkpt lat="45.59402" lon="5.77645">
        <ele>434.2</ele>
        <time>2022-04-15T13:16:15Z</time>
      </trkpt>
      <trkpt lat="45.59404" lon="5.77639">
        <ele>434.2</ele>
        <time>2022-04-15T13:16:16Z</time>
      </trkpt>
      <trkpt lat="45.59405" lon="5.77633">
        <ele>434.1</ele>
        <time>2022-04-15T13:16:17Z</time>
      </trkpt>
      <trkpt lat="45.59407" lon="5.77626">
        <ele>434</ele>
        <time>2022-04-15T13:16:18Z</time>
      </trkpt>
      <trkpt lat="45.5941" lon="5.77613">
        <ele>433.8</ele>
        <time>2022-04-15T13:16:20Z</time>
      </trkpt>
      <trkpt lat="45.59412" lon="5.77607">
        <ele>433.7</ele>
        <time>2022-04-15T13:16:21Z</time>
      </trkpt>
      <trkpt lat="45.59414" lon="5.77598">
        <ele>433.5</ele>
        <time>2022-04-15T13:16:22Z</time>
      </trkpt>
      <trkpt lat="45.59415" lon="5.77587">
        <ele>433.3</ele>
        <time>2022-04-15T13:16:24Z</time>
      </trkpt>
      <trkpt lat="45.59417" lon="5.7758">
        <ele>433.2</ele>
        <time>2022-04-15T13:16:25Z</time>
      </trkpt>
      <trkpt lat="45.59418" lon="5.77573">
        <ele>433.1</ele>
        <time>2022-04-15T13:16:26Z</time>
      </trkpt>
      <trkpt lat="45.59419" lon="5.77565">
        <ele>433</ele>
        <time>2022-04-15T13:16:27Z</time>
      </trkpt>
      <trkpt lat="45.59421" lon="5.77557">
        <ele>432.9</ele>
        <time>2022-04-15T13:16:28Z</time>
      </trkpt>
      <trkpt lat="45.59423" lon="5.77549">
        <ele>432.7</ele>
        <time>2022-04-15T13:16:29Z</time>
      </trkpt>
      <trkpt lat="45.59425" lon="5.77541">
        <ele>432.6</ele>
        <time>2022-04-15T13:16:30Z</time>
      </trkpt>
      <trkpt lat="45.59427" lon="5.77533">
        <ele>432.5</ele>
        <time>2022-04-15T13:16:31Z</time>
      </trkpt>
      <trkpt lat="45.59428" lon="5.77526">
        <ele>432.4</ele>
        <time>2022-04-15T13:16:32Z</time>
      </trkpt>
      <trkpt lat="45.59429" lon="5.77518">
        <ele>432.4</ele>
        <time>2022-04-15T13:16:33Z</time>
      </trkpt>
      <trkpt lat="45.59431" lon="5.77511">
        <ele>432.3</ele>
        <time>2022-04-15T13:16:34Z</time>
      </trkpt>
      <trkpt lat="45.59432" lon="5.77503">
        <ele>432.2</ele>
        <time>2022-04-15T13:16:35Z</time>
      </trkpt>
      <trkpt lat="45.59434" lon="5.77496">
        <ele>432.1</ele>
        <time>2022-04-15T13:16:36Z</time>
      </trkpt>
      <trkpt lat="45.59436" lon="5.77488">
        <ele>432</ele>
        <time>2022-04-15T13:16:37Z</time>
      </trkpt>
      <trkpt lat="45.59437" lon="5.7748">
        <ele>431.9</ele>
        <time>2022-04-15T13:16:38Z</time>
      </trkpt>
      <trkpt lat="45.59439" lon="5.77473">
        <ele>431.8</ele>
        <time>2022-04-15T13:16:39Z</time>
      </trkpt>
      <trkpt lat="45.5944" lon="5.77465">
        <ele>431.7</ele>
        <time>2022-04-15T13:16:40Z</time>
      </trkpt>
      <trkpt lat="45.59441" lon="5.77457">
        <ele>431.6</ele>
        <time>2022-04-15T13:16:41Z</time>
      </trkpt>
      <trkpt lat="45.59442" lon="5.77449">
        <ele>431.6</ele>
        <time>2022-04-15T13:16:42Z</time>
      </trkpt>
      <trkpt lat="45.59444" lon="5.77442">
        <ele>431.5</ele>
        <time>2022-04-15T13:16:43Z</time>
      </trkpt>
      <trkpt lat="45.59446" lon="5.77435">
        <ele>431.5</ele>
        <time>2022-04-15T13:16:44Z</time>
      </trkpt>
      <trkpt lat="45.59449" lon="5.77428">
        <ele>431.4</ele>
        <time>2022-04-15T13:16:45Z</time>
      </trkpt>
      <trkpt lat="45.59451" lon="5.7742">
        <ele>431.3</ele>
        <time>2022-04-15T13:16:46Z</time>
      </trkpt>
      <trkpt lat="45.59453" lon="5.77413">
        <ele>431.3</ele>
        <time>2022-04-15T13:16:47Z</time>
      </trkpt>
      <trkpt lat="45.59455" lon="5.77407">
        <ele>431.2</ele>
        <time>2022-04-15T13:16:48Z</time>
      </trkpt>
      <trkpt lat="45.59457" lon="5.774">
        <ele>431.2</ele>
        <time>2022-04-15T13:16:49Z</time>
      </trkpt>
      <trkpt lat="45.59459" lon="5.77393">
        <ele>431.1</ele>
        <time>2022-04-15T13:16:50Z</time>
      </trkpt>
      <trkpt lat="45.59461" lon="5.77386">
        <ele>431.1</ele>
        <time>2022-04-15T13:16:51Z</time>
      </trkpt>
      <trkpt lat="45.59463" lon="5.77379">
        <ele>431</ele>
        <time>2022-04-15T13:16:52Z</time>
      </trkpt>
      <trkpt lat="45.59464" lon="5.77371">
        <ele>430.9</ele>
        <time>2022-04-15T13:16:53Z</time>
      </trkpt>
      <trkpt lat="45.59465" lon="5.77364">
        <ele>430.9</ele>
        <time>2022-04-15T13:16:54Z</time>
      </trkpt>
      <trkpt lat="45.59466" lon="5.77356">
        <ele>430.8</ele>
        <time>2022-04-15T13:16:55Z</time>
      </trkpt>
      <trkpt lat="45.59467" lon="5.77348">
        <ele>430.8</ele>
        <time>2022-04-15T13:16:56Z</time>
      </trkpt>
      <trkpt lat="45.59467" lon="5.77341">
        <ele>430.7</ele>
        <time>2022-04-15T13:16:57Z</time>
      </trkpt>
      <trkpt lat="45.59468" lon="5.77334">
        <ele>430.7</ele>
        <time>2022-04-15T13:16:58Z</time>
      </trkpt>
      <trkpt lat="45.59469" lon="5.77326">
        <ele>430.7</ele>
        <time>2022-04-15T13:16:59Z</time>
      </trkpt>
      <trkpt lat="45.5947" lon="5.77319">
        <ele>430.7</ele>
        <time>2022-04-15T13:17:00Z</time>
      </trkpt>
      <trkpt lat="45.59471" lon="5.77312">
        <ele>430.7</ele>
        <time>2022-04-15T13:17:01Z</time>
      </trkpt>
      <trkpt lat="45.59472" lon="5.77304">
        <ele>430.7</ele>
        <time>2022-04-15T13:17:02Z</time>
      </trkpt>
      <trkpt lat="45.59471" lon="5.77297">
        <ele>430.7</ele>
        <time>2022-04-15T13:17:03Z</time>
      </trkpt>
      <trkpt lat="45.59471" lon="5.7729">
        <ele>430.7</ele>
        <time>2022-04-15T13:17:04Z</time>
      </trkpt>
      <trkpt lat="45.5947" lon="5.77283">
        <ele>430.7</ele>
        <time>2022-04-15T13:17:05Z</time>
      </trkpt>
      <trkpt lat="45.59471" lon="5.77276">
        <ele>430.7</ele>
        <time>2022-04-15T13:17:06Z</time>
      </trkpt>
      <trkpt lat="45.59472" lon="5.77269">
        <ele>430.7</ele>
        <time>2022-04-15T13:17:07Z</time>
      </trkpt>
      <trkpt lat="45.59474" lon="5.77263">
        <ele>430.6</ele>
        <time>2022-04-15T13:17:08Z</time>
      </trkpt>
      <trkpt lat="45.59475" lon="5.77256">
        <ele>430.6</ele>
        <time>2022-04-15T13:17:09Z</time>
      </trkpt>
      <trkpt lat="45.59476" lon="5.77249">
        <ele>430.6</ele>
        <time>2022-04-15T13:17:10Z</time>
      </trkpt>
      <trkpt lat="45.59476" lon="5.77244">
        <ele>430.7</ele>
        <time>2022-04-15T13:17:11Z</time>
      </trkpt>
      <trkpt lat="45.59477" lon="5.77238">
        <ele>430.7</ele>
        <time>2022-04-15T13:17:12Z</time>
      </trkpt>
      <trkpt lat="45.59478" lon="5.77232">
        <ele>430.7</ele>
        <time>2022-04-15T13:17:13Z</time>
      </trkpt>
      <trkpt lat="45.59478" lon="5.77226">
        <ele>430.7</ele>
        <time>2022-04-15T13:17:14Z</time>
      </trkpt>
      <trkpt lat="45.59479" lon="5.7722">
        <ele>430.7</ele>
        <time>2022-04-15T13:17:15Z</time>
      </trkpt>
      <trkpt lat="45.5948" lon="5.77214">
        <ele>430.7</ele>
        <time>2022-04-15T13:17:16Z</time>
      </trkpt>
      <trkpt lat="45.59481" lon="5.77208">
        <ele>430.7</ele>
        <time>2022-04-15T13:17:17Z</time>
      </trkpt>
      <trkpt lat="45.59482" lon="5.772">
        <ele>430.7</ele>
        <time>2022-04-15T13:17:18Z</time>
      </trkpt>
      <trkpt lat="45.59483" lon="5.77194">
        <ele>430.7</ele>
        <time>2022-04-15T13:17:19Z</time>
      </trkpt>
      <trkpt lat="45.59484" lon="5.77187">
        <ele>430.7</ele>
        <time>2022-04-15T13:17:20Z</time>
      </trkpt>
      <trkpt lat="45.59485" lon="5.77181">
        <ele>430.6</ele>
        <time>2022-04-15T13:17:21Z</time>
      </trkpt>
      <trkpt lat="45.59485" lon="5.77174">
        <ele>430.6</ele>
        <time>2022-04-15T13:17:22Z</time>
      </trkpt>
      <trkpt lat="45.59486" lon="5.77167">
        <ele>430.6</ele>
        <time>2022-04-15T13:17:23Z</time>
      </trkpt>
      <trkpt lat="45.59487" lon="5.7716">
        <ele>430.6</ele>
        <time>2022-04-15T13:17:24Z</time>
      </trkpt>
      <trkpt lat="45.59487" lon="5.77154">
        <ele>430.6</ele>
        <time>2022-04-15T13:17:25Z</time>
      </trkpt>
      <trkpt lat="45.59488" lon="5.7715">
        <ele>430.6</ele>
        <time>2022-04-15T13:17:26Z</time>
      </trkpt>
      <trkpt lat="45.59489" lon="5.77142">
        <ele>430.6</ele>
        <time>2022-04-15T13:17:27Z</time>
      </trkpt>
      <trkpt lat="45.59489" lon="5.77135">
        <ele>430.5</ele>
        <time>2022-04-15T13:17:28Z</time>
      </trkpt>
      <trkpt lat="45.59491" lon="5.77128">
        <ele>430.5</ele>
        <time>2022-04-15T13:17:29Z</time>
      </trkpt>
      <trkpt lat="45.59492" lon="5.77121">
        <ele>430.4</ele>
        <time>2022-04-15T13:17:30Z</time>
      </trkpt>
      <trkpt lat="45.59494" lon="5.77115">
        <ele>430.4</ele>
        <time>2022-04-15T13:17:31Z</time>
      </trkpt>
      <trkpt lat="45.59495" lon="5.77111">
        <ele>430.4</ele>
        <time>2022-04-15T13:17:32Z</time>
      </trkpt>
      <trkpt lat="45.59497" lon="5.77102">
        <ele>430.4</ele>
        <time>2022-04-15T13:17:33Z</time>
      </trkpt>
      <trkpt lat="45.59499" lon="5.77094">
        <ele>430.3</ele>
        <time>2022-04-15T13:17:34Z</time>
      </trkpt>
      <trkpt lat="45.59501" lon="5.77087">
        <ele>430.3</ele>
        <time>2022-04-15T13:17:35Z</time>
      </trkpt>
      <trkpt lat="45.59502" lon="5.77081">
        <ele>430.3</ele>
        <time>2022-04-15T13:17:36Z</time>
      </trkpt>
      <trkpt lat="45.59503" lon="5.77075">
        <ele>430.3</ele>
        <time>2022-04-15T13:17:37Z</time>
      </trkpt>
      <trkpt lat="45.59504" lon="5.77067">
        <ele>430.2</ele>
        <time>2022-04-15T13:17:38Z</time>
      </trkpt>
      <trkpt lat="45.59506" lon="5.7706">
        <ele>430.1</ele>
        <time>2022-04-15T13:17:40Z</time>
      </trkpt>
      <trkpt lat="45.59507" lon="5.77051">
        <ele>430.1</ele>
        <time>2022-04-15T13:17:41Z</time>
      </trkpt>
      <trkpt lat="45.59509" lon="5.77044">
        <ele>430.1</ele>
        <time>2022-04-15T13:17:43Z</time>
      </trkpt>
      <trkpt lat="45.59512" lon="5.77039">
        <ele>430.1</ele>
        <time>2022-04-15T13:17:44Z</time>
      </trkpt>
      <trkpt lat="45.59512" lon="5.77034">
        <ele>430.1</ele>
        <time>2022-04-15T13:17:45Z</time>
      </trkpt>
      <trkpt lat="45.59513" lon="5.77028">
        <ele>430</ele>
        <time>2022-04-15T13:17:47Z</time>
      </trkpt>
      <trkpt lat="45.59514" lon="5.77024">
        <ele>430</ele>
        <time>2022-04-15T13:17:48Z</time>
      </trkpt>
      <trkpt lat="45.59515" lon="5.77016">
        <ele>430</ele>
        <time>2022-04-15T13:17:49Z</time>
      </trkpt>
      <trkpt lat="45.59517" lon="5.77004">
        <ele>430</ele>
        <time>2022-04-15T13:17:51Z</time>
      </trkpt>
      <trkpt lat="45.59518" lon="5.76997">
        <ele>429.9</ele>
        <time>2022-04-15T13:17:52Z</time>
      </trkpt>
      <trkpt lat="45.59519" lon="5.76989">
        <ele>429.9</ele>
        <time>2022-04-15T13:17:53Z</time>
      </trkpt>
      <trkpt lat="45.59521" lon="5.76982">
        <ele>429.9</ele>
        <time>2022-04-15T13:17:54Z</time>
      </trkpt>
      <trkpt lat="45.59522" lon="5.76975">
        <ele>429.9</ele>
        <time>2022-04-15T13:17:56Z</time>
      </trkpt>
      <trkpt lat="45.59524" lon="5.7697">
        <ele>429.9</ele>
        <time>2022-04-15T13:17:57Z</time>
      </trkpt>
      <trkpt lat="45.59527" lon="5.76965">
        <ele>429.9</ele>
        <time>2022-04-15T13:17:58Z</time>
      </trkpt>
      <trkpt lat="45.59529" lon="5.76958">
        <ele>430</ele>
        <time>2022-04-15T13:17:59Z</time>
      </trkpt>
      <trkpt lat="45.5953" lon="5.76952">
        <ele>430</ele>
        <time>2022-04-15T13:18:00Z</time>
      </trkpt>
      <trkpt lat="45.59532" lon="5.76947">
        <ele>430</ele>
        <time>2022-04-15T13:18:01Z</time>
      </trkpt>
      <trkpt lat="45.59535" lon="5.76937">
        <ele>430</ele>
        <time>2022-04-15T13:18:02Z</time>
      </trkpt>
      <trkpt lat="45.59539" lon="5.76932">
        <ele>430.1</ele>
        <time>2022-04-15T13:18:04Z</time>
      </trkpt>
      <trkpt lat="45.59542" lon="5.76927">
        <ele>430.1</ele>
        <time>2022-04-15T13:18:05Z</time>
      </trkpt>
      <trkpt lat="45.59546" lon="5.76919">
        <ele>430.3</ele>
        <time>2022-04-15T13:18:07Z</time>
      </trkpt>
      <trkpt lat="45.59548" lon="5.76913">
        <ele>430.4</ele>
        <time>2022-04-15T13:18:08Z</time>
      </trkpt>
      <trkpt lat="45.59554" lon="5.76908">
        <ele>430.6</ele>
        <time>2022-04-15T13:18:10Z</time>
      </trkpt>
      <trkpt lat="45.59558" lon="5.76904">
        <ele>430.8</ele>
        <time>2022-04-15T13:18:12Z</time>
      </trkpt>
      <trkpt lat="45.59562" lon="5.769">
        <ele>430.9</ele>
        <time>2022-04-15T13:18:13Z</time>
      </trkpt>
      <trkpt lat="45.59564" lon="5.76898">
        <ele>431</ele>
        <time>2022-04-15T13:18:15Z</time>
      </trkpt>
      <trkpt lat="45.59567" lon="5.76896">
        <ele>431.1</ele>
        <time>2022-04-15T13:18:16Z</time>
      </trkpt>
      <trkpt lat="45.5957" lon="5.76894">
        <ele>431.3</ele>
        <time>2022-04-15T13:18:17Z</time>
      </trkpt>
      <trkpt lat="45.59572" lon="5.76893">
        <ele>431.4</ele>
        <time>2022-04-15T13:18:18Z</time>
      </trkpt>
      <trkpt lat="45.59575" lon="5.76889">
        <ele>431.6</ele>
        <time>2022-04-15T13:18:20Z</time>
      </trkpt>
      <trkpt lat="45.59577" lon="5.76887">
        <ele>431.7</ele>
        <time>2022-04-15T13:18:21Z</time>
      </trkpt>
      <trkpt lat="45.59578" lon="5.76886">
        <ele>431.8</ele>
        <time>2022-04-15T13:18:22Z</time>
      </trkpt>
      <trkpt lat="45.59581" lon="5.76884">
        <ele>432</ele>
        <time>2022-04-15T13:18:24Z</time>
      </trkpt>
      <trkpt lat="45.59585" lon="5.76882">
        <ele>432.1</ele>
        <time>2022-04-15T13:18:25Z</time>
      </trkpt>
      <trkpt lat="45.59585" lon="5.76881">
        <ele>432.2</ele>
        <time>2022-04-15T13:18:26Z</time>
      </trkpt>
      <trkpt lat="45.59588" lon="5.76879">
        <ele>432.4</ele>
        <time>2022-04-15T13:18:27Z</time>
      </trkpt>
      <trkpt lat="45.59589" lon="5.76878">
        <ele>432.4</ele>
        <time>2022-04-15T13:18:28Z</time>
      </trkpt>
      <trkpt lat="45.59592" lon="5.76876">
        <ele>432.6</ele>
        <time>2022-04-15T13:18:29Z</time>
      </trkpt>
      <trkpt lat="45.59593" lon="5.76875">
        <ele>432.7</ele>
        <time>2022-04-15T13:18:30Z</time>
      </trkpt>
      <trkpt lat="45.59596" lon="5.76874">
        <ele>432.9</ele>
        <time>2022-04-15T13:18:31Z</time>
      </trkpt>
      <trkpt lat="45.59597" lon="5.76873">
        <ele>432.9</ele>
        <time>2022-04-15T13:18:32Z</time>
      </trkpt>
      <trkpt lat="45.59599" lon="5.76871">
        <ele>433.1</ele>
        <time>2022-04-15T13:18:33Z</time>
      </trkpt>
      <trkpt lat="45.596" lon="5.7687">
        <ele>433.2</ele>
        <time>2022-04-15T13:18:34Z</time>
      </trkpt>
      <trkpt lat="45.59603" lon="5.76868">
        <ele>433.4</ele>
        <time>2022-04-15T13:18:35Z</time>
      </trkpt>
      <trkpt lat="45.59604" lon="5.76867">
        <ele>433.4</ele>
        <time>2022-04-15T13:18:36Z</time>
      </trkpt>
      <trkpt lat="45.59607" lon="5.76866">
        <ele>433.6</ele>
        <time>2022-04-15T13:18:37Z</time>
      </trkpt>
      <trkpt lat="45.5961" lon="5.76864">
        <ele>433.8</ele>
        <time>2022-04-15T13:18:39Z</time>
      </trkpt>
      <trkpt lat="45.59612" lon="5.76861">
        <ele>434</ele>
        <time>2022-04-15T13:18:40Z</time>
      </trkpt>
      <trkpt lat="45.59613" lon="5.76861">
        <ele>434</ele>
        <time>2022-04-15T13:18:41Z</time>
      </trkpt>
      <trkpt lat="45.59615" lon="5.76859">
        <ele>434.1</ele>
        <time>2022-04-15T13:18:42Z</time>
      </trkpt>
      <trkpt lat="45.59618" lon="5.76857">
        <ele>434.3</ele>
        <time>2022-04-15T13:18:43Z</time>
      </trkpt>
      <trkpt lat="45.59619" lon="5.76856">
        <ele>434.4</ele>
        <time>2022-04-15T13:18:44Z</time>
      </trkpt>
      <trkpt lat="45.59623" lon="5.76854">
        <ele>434.6</ele>
        <time>2022-04-15T13:18:45Z</time>
      </trkpt>
      <trkpt lat="45.59624" lon="5.76853">
        <ele>434.7</ele>
        <time>2022-04-15T13:18:46Z</time>
      </trkpt>
      <trkpt lat="45.59628" lon="5.76851">
        <ele>434.9</ele>
        <time>2022-04-15T13:18:47Z</time>
      </trkpt>
      <trkpt lat="45.59629" lon="5.7685">
        <ele>434.9</ele>
        <time>2022-04-15T13:18:48Z</time>
      </trkpt>
      <trkpt lat="45.59633" lon="5.76848">
        <ele>435.2</ele>
        <time>2022-04-15T13:18:50Z</time>
      </trkpt>
      <trkpt lat="45.59635" lon="5.76847">
        <ele>435.3</ele>
        <time>2022-04-15T13:18:51Z</time>
      </trkpt>
      <trkpt lat="45.59636" lon="5.76846">
        <ele>435.4</ele>
        <time>2022-04-15T13:18:52Z</time>
      </trkpt>
      <trkpt lat="45.5964" lon="5.76843">
        <ele>435.6</ele>
        <time>2022-04-15T13:18:54Z</time>
      </trkpt>
      <trkpt lat="45.59641" lon="5.76843">
        <ele>435.7</ele>
        <time>2022-04-15T13:18:55Z</time>
      </trkpt>
      <trkpt lat="45.59643" lon="5.76841">
        <ele>435.8</ele>
        <time>2022-04-15T13:18:56Z</time>
      </trkpt>
      <trkpt lat="45.59644" lon="5.7684">
        <ele>435.9</ele>
        <time>2022-04-15T13:18:57Z</time>
      </trkpt>
      <trkpt lat="45.59647" lon="5.76838">
        <ele>436</ele>
        <time>2022-04-15T13:18:58Z</time>
      </trkpt>
      <trkpt lat="45.59647" lon="5.76838">
        <ele>436.1</ele>
        <time>2022-04-15T13:18:59Z</time>
      </trkpt>
      <trkpt lat="45.5965" lon="5.76835">
        <ele>436.3</ele>
        <time>2022-04-15T13:19:00Z</time>
      </trkpt>
      <trkpt lat="45.59651" lon="5.76835">
        <ele>436.3</ele>
        <time>2022-04-15T13:19:01Z</time>
      </trkpt>
      <trkpt lat="45.59654" lon="5.76832">
        <ele>436.4</ele>
        <time>2022-04-15T13:19:02Z</time>
      </trkpt>
      <trkpt lat="45.59655" lon="5.76832">
        <ele>436.5</ele>
        <time>2022-04-15T13:19:03Z</time>
      </trkpt>
      <trkpt lat="45.59657" lon="5.7683">
        <ele>436.6</ele>
        <time>2022-04-15T13:19:04Z</time>
      </trkpt>
      <trkpt lat="45.59658" lon="5.76829">
        <ele>436.7</ele>
        <time>2022-04-15T13:19:05Z</time>
      </trkpt>
      <trkpt lat="45.59661" lon="5.76826">
        <ele>436.8</ele>
        <time>2022-04-15T13:19:06Z</time>
      </trkpt>
      <trkpt lat="45.59662" lon="5.76826">
        <ele>436.9</ele>
        <time>2022-04-15T13:19:07Z</time>
      </trkpt>
      <trkpt lat="45.59664" lon="5.76824">
        <ele>437</ele>
        <time>2022-04-15T13:19:08Z</time>
      </trkpt>
      <trkpt lat="45.59665" lon="5.76823">
        <ele>437.1</ele>
        <time>2022-04-15T13:19:09Z</time>
      </trkpt>
      <trkpt lat="45.59668" lon="5.76821">
        <ele>437.2</ele>
        <time>2022-04-15T13:19:10Z</time>
      </trkpt>
      <trkpt lat="45.59669" lon="5.7682">
        <ele>437.3</ele>
        <time>2022-04-15T13:19:11Z</time>
      </trkpt>
      <trkpt lat="45.59672" lon="5.76818">
        <ele>437.4</ele>
        <time>2022-04-15T13:19:12Z</time>
      </trkpt>
      <trkpt lat="45.59673" lon="5.76818">
        <ele>437.5</ele>
        <time>2022-04-15T13:19:13Z</time>
      </trkpt>
      <trkpt lat="45.59676" lon="5.76816">
        <ele>437.6</ele>
        <time>2022-04-15T13:19:14Z</time>
      </trkpt>
      <trkpt lat="45.59677" lon="5.76815">
        <ele>437.7</ele>
        <time>2022-04-15T13:19:15Z</time>
      </trkpt>
      <trkpt lat="45.59678" lon="5.76814">
        <ele>437.8</ele>
        <time>2022-04-15T13:19:16Z</time>
      </trkpt>
      <trkpt lat="45.59679" lon="5.76813">
        <ele>437.8</ele>
        <time>2022-04-15T13:19:17Z</time>
      </trkpt>
      <trkpt lat="45.59682" lon="5.7681">
        <ele>438</ele>
        <time>2022-04-15T13:19:18Z</time>
      </trkpt>
      <trkpt lat="45.59683" lon="5.76809">
        <ele>438</ele>
        <time>2022-04-15T13:19:19Z</time>
      </trkpt>
      <trkpt lat="45.59686" lon="5.76807">
        <ele>438.2</ele>
        <time>2022-04-15T13:19:20Z</time>
      </trkpt>
      <trkpt lat="45.59687" lon="5.76806">
        <ele>438.2</ele>
        <time>2022-04-15T13:19:21Z</time>
      </trkpt>
      <trkpt lat="45.5969" lon="5.76804">
        <ele>438.4</ele>
        <time>2022-04-15T13:19:22Z</time>
      </trkpt>
      <trkpt lat="45.59691" lon="5.76803">
        <ele>438.4</ele>
        <time>2022-04-15T13:19:23Z</time>
      </trkpt>
      <trkpt lat="45.59693" lon="5.76801">
        <ele>438.6</ele>
        <time>2022-04-15T13:19:24Z</time>
      </trkpt>
      <trkpt lat="45.59694" lon="5.76801">
        <ele>438.6</ele>
        <time>2022-04-15T13:19:25Z</time>
      </trkpt>
      <trkpt lat="45.59697" lon="5.76799">
        <ele>438.8</ele>
        <time>2022-04-15T13:19:26Z</time>
      </trkpt>
      <trkpt lat="45.59698" lon="5.76798">
        <ele>438.8</ele>
        <time>2022-04-15T13:19:27Z</time>
      </trkpt>
      <trkpt lat="45.59701" lon="5.76797">
        <ele>439</ele>
        <time>2022-04-15T13:19:28Z</time>
      </trkpt>
      <trkpt lat="45.59702" lon="5.76796">
        <ele>439</ele>
        <time>2022-04-15T13:19:29Z</time>
      </trkpt>
      <trkpt lat="45.59704" lon="5.76794">
        <ele>439.2</ele>
        <time>2022-04-15T13:19:30Z</time>
      </trkpt>
      <trkpt lat="45.59705" lon="5.76794">
        <ele>439.2</ele>
        <time>2022-04-15T13:19:31Z</time>
      </trkpt>
      <trkpt lat="45.59708" lon="5.76791">
        <ele>439.4</ele>
        <time>2022-04-15T13:19:32Z</time>
      </trkpt>
      <trkpt lat="45.59709" lon="5.76791">
        <ele>439.4</ele>
        <time>2022-04-15T13:19:33Z</time>
      </trkpt>
      <trkpt lat="45.59712" lon="5.76789">
        <ele>439.5</ele>
        <time>2022-04-15T13:19:34Z</time>
      </trkpt>
      <trkpt lat="45.59715" lon="5.76787">
        <ele>439.7</ele>
        <time>2022-04-15T13:19:35Z</time>
      </trkpt>
      <trkpt lat="45.59716" lon="5.76786">
        <ele>439.8</ele>
        <time>2022-04-15T13:19:36Z</time>
      </trkpt>
      <trkpt lat="45.59719" lon="5.76784">
        <ele>439.9</ele>
        <time>2022-04-15T13:19:37Z</time>
      </trkpt>
      <trkpt lat="45.59719" lon="5.76784">
        <ele>440</ele>
        <time>2022-04-15T13:19:38Z</time>
      </trkpt>
      <trkpt lat="45.59722" lon="5.76781">
        <ele>440.1</ele>
        <time>2022-04-15T13:19:39Z</time>
      </trkpt>
      <trkpt lat="45.59723" lon="5.76781">
        <ele>440.2</ele>
        <time>2022-04-15T13:19:40Z</time>
      </trkpt>
      <trkpt lat="45.59726" lon="5.76778">
        <ele>440.4</ele>
        <time>2022-04-15T13:19:41Z</time>
      </trkpt>
      <trkpt lat="45.59727" lon="5.76778">
        <ele>440.4</ele>
        <time>2022-04-15T13:19:42Z</time>
      </trkpt>
      <trkpt lat="45.5973" lon="5.76775">
        <ele>440.6</ele>
        <time>2022-04-15T13:19:43Z</time>
      </trkpt>
      <trkpt lat="45.59731" lon="5.76774">
        <ele>440.7</ele>
        <time>2022-04-15T13:19:44Z</time>
      </trkpt>
      <trkpt lat="45.59734" lon="5.76772">
        <ele>440.8</ele>
        <time>2022-04-15T13:19:45Z</time>
      </trkpt>
      <trkpt lat="45.59735" lon="5.76771">
        <ele>440.9</ele>
        <time>2022-04-15T13:19:46Z</time>
      </trkpt>
      <trkpt lat="45.59738" lon="5.76769">
        <ele>441.1</ele>
        <time>2022-04-15T13:19:47Z</time>
      </trkpt>
      <trkpt lat="45.59739" lon="5.76768">
        <ele>441.1</ele>
        <time>2022-04-15T13:19:48Z</time>
      </trkpt>
      <trkpt lat="45.59742" lon="5.76766">
        <ele>441.3</ele>
        <time>2022-04-15T13:19:49Z</time>
      </trkpt>
      <trkpt lat="45.59743" lon="5.76765">
        <ele>441.3</ele>
        <time>2022-04-15T13:19:50Z</time>
      </trkpt>
      <trkpt lat="45.59745" lon="5.76763">
        <ele>441.5</ele>
        <time>2022-04-15T13:19:51Z</time>
      </trkpt>
      <trkpt lat="45.59746" lon="5.76763">
        <ele>441.6</ele>
        <time>2022-04-15T13:19:52Z</time>
      </trkpt>
      <trkpt lat="45.59749" lon="5.76761">
        <ele>441.7</ele>
        <time>2022-04-15T13:19:53Z</time>
      </trkpt>
      <trkpt lat="45.5975" lon="5.7676">
        <ele>441.8</ele>
        <time>2022-04-15T13:19:54Z</time>
      </trkpt>
      <trkpt lat="45.59754" lon="5.76758">
        <ele>442</ele>
        <time>2022-04-15T13:19:55Z</time>
      </trkpt>
      <trkpt lat="45.59755" lon="5.76757">
        <ele>442.1</ele>
        <time>2022-04-15T13:19:56Z</time>
      </trkpt>
      <trkpt lat="45.59758" lon="5.76755">
        <ele>442.2</ele>
        <time>2022-04-15T13:19:57Z</time>
      </trkpt>
      <trkpt lat="45.59759" lon="5.76754">
        <ele>442.3</ele>
        <time>2022-04-15T13:19:58Z</time>
      </trkpt>
      <trkpt lat="45.59762" lon="5.76752">
        <ele>442.5</ele>
        <time>2022-04-15T13:19:59Z</time>
      </trkpt>
      <trkpt lat="45.59763" lon="5.76751">
        <ele>442.5</ele>
        <time>2022-04-15T13:20:00Z</time>
      </trkpt>
      <trkpt lat="45.59766" lon="5.76749">
        <ele>442.7</ele>
        <time>2022-04-15T13:20:01Z</time>
      </trkpt>
      <trkpt lat="45.59767" lon="5.76749">
        <ele>442.8</ele>
        <time>2022-04-15T13:20:02Z</time>
      </trkpt>
      <trkpt lat="45.5977" lon="5.76747">
        <ele>443</ele>
        <time>2022-04-15T13:20:03Z</time>
      </trkpt>
      <trkpt lat="45.59771" lon="5.76746">
        <ele>443</ele>
        <time>2022-04-15T13:20:04Z</time>
      </trkpt>
      <trkpt lat="45.59773" lon="5.76744">
        <ele>443.1</ele>
        <time>2022-04-15T13:20:05Z</time>
      </trkpt>
      <trkpt lat="45.59774" lon="5.76744">
        <ele>443.2</ele>
        <time>2022-04-15T13:20:06Z</time>
      </trkpt>
      <trkpt lat="45.59777" lon="5.76741">
        <ele>443.4</ele>
        <time>2022-04-15T13:20:07Z</time>
      </trkpt>
      <trkpt lat="45.59778" lon="5.76741">
        <ele>443.4</ele>
        <time>2022-04-15T13:20:08Z</time>
      </trkpt>
      <trkpt lat="45.59781" lon="5.76738">
        <ele>443.6</ele>
        <time>2022-04-15T13:20:09Z</time>
      </trkpt>
      <trkpt lat="45.59782" lon="5.76738">
        <ele>443.7</ele>
        <time>2022-04-15T13:20:10Z</time>
      </trkpt>
      <trkpt lat="45.59784" lon="5.76736">
        <ele>443.8</ele>
        <time>2022-04-15T13:20:11Z</time>
      </trkpt>
      <trkpt lat="45.59785" lon="5.76735">
        <ele>443.9</ele>
        <time>2022-04-15T13:20:12Z</time>
      </trkpt>
      <trkpt lat="45.59788" lon="5.76733">
        <ele>444</ele>
        <time>2022-04-15T13:20:13Z</time>
      </trkpt>
      <trkpt lat="45.59789" lon="5.76732">
        <ele>444.1</ele>
        <time>2022-04-15T13:20:14Z</time>
      </trkpt>
      <trkpt lat="45.59792" lon="5.7673">
        <ele>444.2</ele>
        <time>2022-04-15T13:20:15Z</time>
      </trkpt>
      <trkpt lat="45.59793" lon="5.76729">
        <ele>444.3</ele>
        <time>2022-04-15T13:20:16Z</time>
      </trkpt>
      <trkpt lat="45.59796" lon="5.76727">
        <ele>444.5</ele>
        <time>2022-04-15T13:20:17Z</time>
      </trkpt>
      <trkpt lat="45.59797" lon="5.76726">
        <ele>444.5</ele>
        <time>2022-04-15T13:20:18Z</time>
      </trkpt>
      <trkpt lat="45.59799" lon="5.76724">
        <ele>444.7</ele>
        <time>2022-04-15T13:20:19Z</time>
      </trkpt>
      <trkpt lat="45.598" lon="5.76724">
        <ele>444.7</ele>
        <time>2022-04-15T13:20:20Z</time>
      </trkpt>
      <trkpt lat="45.59803" lon="5.76722">
        <ele>444.9</ele>
        <time>2022-04-15T13:20:21Z</time>
      </trkpt>
      <trkpt lat="45.59804" lon="5.76721">
        <ele>444.9</ele>
        <time>2022-04-15T13:20:22Z</time>
      </trkpt>
      <trkpt lat="45.59807" lon="5.76719">
        <ele>445.1</ele>
        <time>2022-04-15T13:20:23Z</time>
      </trkpt>
      <trkpt lat="45.59808" lon="5.76719">
        <ele>445.2</ele>
        <time>2022-04-15T13:20:24Z</time>
      </trkpt>
      <trkpt lat="45.59811" lon="5.76717">
        <ele>445.3</ele>
        <time>2022-04-15T13:20:25Z</time>
      </trkpt>
      <trkpt lat="45.59812" lon="5.76716">
        <ele>445.4</ele>
        <time>2022-04-15T13:20:26Z</time>
      </trkpt>
      <trkpt lat="45.59814" lon="5.76714">
        <ele>445.5</ele>
        <time>2022-04-15T13:20:27Z</time>
      </trkpt>
      <trkpt lat="45.59815" lon="5.76713">
        <ele>445.6</ele>
        <time>2022-04-15T13:20:28Z</time>
      </trkpt>
      <trkpt lat="45.59818" lon="5.76711">
        <ele>445.8</ele>
        <time>2022-04-15T13:20:29Z</time>
      </trkpt>
      <trkpt lat="45.59819" lon="5.7671">
        <ele>445.8</ele>
        <time>2022-04-15T13:20:30Z</time>
      </trkpt>
      <trkpt lat="45.59823" lon="5.76708">
        <ele>446</ele>
        <time>2022-04-15T13:20:31Z</time>
      </trkpt>
      <trkpt lat="45.59824" lon="5.76708">
        <ele>446</ele>
        <time>2022-04-15T13:20:32Z</time>
      </trkpt>
      <trkpt lat="45.59825" lon="5.76707">
        <ele>446.1</ele>
        <time>2022-04-15T13:20:33Z</time>
      </trkpt>
      <trkpt lat="45.59827" lon="5.76706">
        <ele>446.2</ele>
        <time>2022-04-15T13:20:34Z</time>
      </trkpt>
      <trkpt lat="45.59829" lon="5.76704">
        <ele>446.4</ele>
        <time>2022-04-15T13:20:35Z</time>
      </trkpt>
      <trkpt lat="45.59833" lon="5.76702">
        <ele>446.6</ele>
        <time>2022-04-15T13:20:36Z</time>
      </trkpt>
      <trkpt lat="45.59834" lon="5.76701">
        <ele>446.6</ele>
        <time>2022-04-15T13:20:37Z</time>
      </trkpt>
      <trkpt lat="45.59837" lon="5.76699">
        <ele>446.8</ele>
        <time>2022-04-15T13:20:38Z</time>
      </trkpt>
      <trkpt lat="45.59838" lon="5.76699">
        <ele>446.8</ele>
        <time>2022-04-15T13:20:39Z</time>
      </trkpt>
      <trkpt lat="45.59841" lon="5.76697">
        <ele>447</ele>
        <time>2022-04-15T13:20:40Z</time>
      </trkpt>
      <trkpt lat="45.59842" lon="5.76696">
        <ele>447.1</ele>
        <time>2022-04-15T13:20:41Z</time>
      </trkpt>
      <trkpt lat="45.59844" lon="5.76693">
        <ele>447.2</ele>
        <time>2022-04-15T13:20:42Z</time>
      </trkpt>
      <trkpt lat="45.59845" lon="5.76692">
        <ele>447.3</ele>
        <time>2022-04-15T13:20:43Z</time>
      </trkpt>
      <trkpt lat="45.59848" lon="5.7669">
        <ele>447.5</ele>
        <time>2022-04-15T13:20:44Z</time>
      </trkpt>
      <trkpt lat="45.59849" lon="5.7669">
        <ele>447.5</ele>
        <time>2022-04-15T13:20:45Z</time>
      </trkpt>
      <trkpt lat="45.59852" lon="5.76687">
        <ele>447.7</ele>
        <time>2022-04-15T13:20:46Z</time>
      </trkpt>
      <trkpt lat="45.59853" lon="5.76686">
        <ele>447.8</ele>
        <time>2022-04-15T13:20:47Z</time>
      </trkpt>
      <trkpt lat="45.59856" lon="5.76684">
        <ele>447.9</ele>
        <time>2022-04-15T13:20:48Z</time>
      </trkpt>
      <trkpt lat="45.59857" lon="5.76683">
        <ele>448</ele>
        <time>2022-04-15T13:20:49Z</time>
      </trkpt>
      <trkpt lat="45.5986" lon="5.76681">
        <ele>448.2</ele>
        <time>2022-04-15T13:20:50Z</time>
      </trkpt>
      <trkpt lat="45.59861" lon="5.76681">
        <ele>448.2</ele>
        <time>2022-04-15T13:20:51Z</time>
      </trkpt>
      <trkpt lat="45.59864" lon="5.76679">
        <ele>448.4</ele>
        <time>2022-04-15T13:20:52Z</time>
      </trkpt>
      <trkpt lat="45.59865" lon="5.76678">
        <ele>448.5</ele>
        <time>2022-04-15T13:20:53Z</time>
      </trkpt>
      <trkpt lat="45.59868" lon="5.76676">
        <ele>448.7</ele>
        <time>2022-04-15T13:20:54Z</time>
      </trkpt>
      <trkpt lat="45.59869" lon="5.76675">
        <ele>448.7</ele>
        <time>2022-04-15T13:20:55Z</time>
      </trkpt>
      <trkpt lat="45.59872" lon="5.76673">
        <ele>448.9</ele>
        <time>2022-04-15T13:20:56Z</time>
      </trkpt>
      <trkpt lat="45.59873" lon="5.76672">
        <ele>449</ele>
        <time>2022-04-15T13:20:57Z</time>
      </trkpt>
      <trkpt lat="45.59877" lon="5.76669">
        <ele>449.2</ele>
        <time>2022-04-15T13:20:58Z</time>
      </trkpt>
      <trkpt lat="45.59878" lon="5.76668">
        <ele>449.3</ele>
        <time>2022-04-15T13:20:59Z</time>
      </trkpt>
      <trkpt lat="45.5988" lon="5.76666">
        <ele>449.4</ele>
        <time>2022-04-15T13:21:00Z</time>
      </trkpt>
      <trkpt lat="45.59882" lon="5.76665">
        <ele>449.5</ele>
        <time>2022-04-15T13:21:01Z</time>
      </trkpt>
      <trkpt lat="45.59885" lon="5.76663">
        <ele>449.7</ele>
        <time>2022-04-15T13:21:02Z</time>
      </trkpt>
      <trkpt lat="45.59886" lon="5.76662">
        <ele>449.8</ele>
        <time>2022-04-15T13:21:03Z</time>
      </trkpt>
      <trkpt lat="45.59888" lon="5.76661">
        <ele>449.9</ele>
        <time>2022-04-15T13:21:04Z</time>
      </trkpt>
      <trkpt lat="45.59889" lon="5.7666">
        <ele>450</ele>
        <time>2022-04-15T13:21:05Z</time>
      </trkpt>
      <trkpt lat="45.59891" lon="5.76659">
        <ele>450.1</ele>
        <time>2022-04-15T13:21:06Z</time>
      </trkpt>
      <trkpt lat="45.59892" lon="5.76658">
        <ele>450.1</ele>
        <time>2022-04-15T13:21:07Z</time>
      </trkpt>
      <trkpt lat="45.59896" lon="5.76656">
        <ele>450.3</ele>
        <time>2022-04-15T13:21:08Z</time>
      </trkpt>
      <trkpt lat="45.59897" lon="5.76656">
        <ele>450.4</ele>
        <time>2022-04-15T13:21:09Z</time>
      </trkpt>
      <trkpt lat="45.599" lon="5.76654">
        <ele>450.5</ele>
        <time>2022-04-15T13:21:10Z</time>
      </trkpt>
      <trkpt lat="45.59901" lon="5.76653">
        <ele>450.6</ele>
        <time>2022-04-15T13:21:11Z</time>
      </trkpt>
      <trkpt lat="45.59903" lon="5.76651">
        <ele>450.7</ele>
        <time>2022-04-15T13:21:12Z</time>
      </trkpt>
      <trkpt lat="45.59909" lon="5.76648">
        <ele>451</ele>
        <time>2022-04-15T13:21:14Z</time>
      </trkpt>
      <trkpt lat="45.59911" lon="5.76646">
        <ele>451.2</ele>
        <time>2022-04-15T13:21:16Z</time>
      </trkpt>
      <trkpt lat="45.59914" lon="5.76644">
        <ele>451.3</ele>
        <time>2022-04-15T13:21:17Z</time>
      </trkpt>
      <trkpt lat="45.59917" lon="5.76641">
        <ele>451.5</ele>
        <time>2022-04-15T13:21:19Z</time>
      </trkpt>
      <trkpt lat="45.5992" lon="5.76638">
        <ele>451.7</ele>
        <time>2022-04-15T13:21:20Z</time>
      </trkpt>
      <trkpt lat="45.59921" lon="5.76637">
        <ele>451.8</ele>
        <time>2022-04-15T13:21:21Z</time>
      </trkpt>
      <trkpt lat="45.59924" lon="5.76635">
        <ele>451.9</ele>
        <time>2022-04-15T13:21:22Z</time>
      </trkpt>
      <trkpt lat="45.59926" lon="5.76633">
        <ele>452.1</ele>
        <time>2022-04-15T13:21:24Z</time>
      </trkpt>
      <trkpt lat="45.59929" lon="5.76631">
        <ele>452.2</ele>
        <time>2022-04-15T13:21:25Z</time>
      </trkpt>
      <trkpt lat="45.59933" lon="5.76628">
        <ele>452.4</ele>
        <time>2022-04-15T13:21:27Z</time>
      </trkpt>
      <trkpt lat="45.59934" lon="5.76627">
        <ele>452.5</ele>
        <time>2022-04-15T13:21:28Z</time>
      </trkpt>
      <trkpt lat="45.59935" lon="5.76626">
        <ele>452.6</ele>
        <time>2022-04-15T13:21:29Z</time>
      </trkpt>
      <trkpt lat="45.59938" lon="5.76624">
        <ele>452.7</ele>
        <time>2022-04-15T13:21:30Z</time>
      </trkpt>
      <trkpt lat="45.59939" lon="5.76623">
        <ele>452.8</ele>
        <time>2022-04-15T13:21:31Z</time>
      </trkpt>
      <trkpt lat="45.59942" lon="5.7662">
        <ele>453</ele>
        <time>2022-04-15T13:21:32Z</time>
      </trkpt>
      <trkpt lat="45.59943" lon="5.76619">
        <ele>453</ele>
        <time>2022-04-15T13:21:33Z</time>
      </trkpt>
      <trkpt lat="45.59945" lon="5.76615">
        <ele>453.2</ele>
        <time>2022-04-15T13:21:34Z</time>
      </trkpt>
      <trkpt lat="45.59946" lon="5.76613">
        <ele>453.3</ele>
        <time>2022-04-15T13:21:35Z</time>
      </trkpt>
      <trkpt lat="45.59949" lon="5.76609">
        <ele>453.5</ele>
        <time>2022-04-15T13:21:36Z</time>
      </trkpt>
      <trkpt lat="45.59951" lon="5.76607">
        <ele>453.7</ele>
        <time>2022-04-15T13:21:37Z</time>
      </trkpt>
      <trkpt lat="45.59952" lon="5.76603">
        <ele>453.8</ele>
        <time>2022-04-15T13:21:39Z</time>
      </trkpt>
      <trkpt lat="45.59954" lon="5.76599">
        <ele>454</ele>
        <time>2022-04-15T13:21:40Z</time>
      </trkpt>
      <trkpt lat="45.59955" lon="5.76598">
        <ele>454.1</ele>
        <time>2022-04-15T13:21:41Z</time>
      </trkpt>
      <trkpt lat="45.59956" lon="5.76595">
        <ele>454.2</ele>
        <time>2022-04-15T13:21:42Z</time>
      </trkpt>
      <trkpt lat="45.59959" lon="5.7659">
        <ele>454.4</ele>
        <time>2022-04-15T13:21:44Z</time>
      </trkpt>
      <trkpt lat="45.5996" lon="5.76585">
        <ele>454.6</ele>
        <time>2022-04-15T13:21:45Z</time>
      </trkpt>
      <trkpt lat="45.59961" lon="5.76582">
        <ele>454.8</ele>
        <time>2022-04-15T13:21:46Z</time>
      </trkpt>
      <trkpt lat="45.59962" lon="5.7658">
        <ele>454.8</ele>
        <time>2022-04-15T13:21:47Z</time>
      </trkpt>
      <trkpt lat="45.59963" lon="5.76575">
        <ele>455</ele>
        <time>2022-04-15T13:21:49Z</time>
      </trkpt>
      <trkpt lat="45.59963" lon="5.76573">
        <ele>455.1</ele>
        <time>2022-04-15T13:21:50Z</time>
      </trkpt>
      <trkpt lat="45.59964" lon="5.76568">
        <ele>455.3</ele>
        <time>2022-04-15T13:21:51Z</time>
      </trkpt>
      <trkpt lat="45.59965" lon="5.76563">
        <ele>455.5</ele>
        <time>2022-04-15T13:21:53Z</time>
      </trkpt>
      <trkpt lat="45.59965" lon="5.76558">
        <ele>455.7</ele>
        <time>2022-04-15T13:21:54Z</time>
      </trkpt>
      <trkpt lat="45.59965" lon="5.76557">
        <ele>455.7</ele>
        <time>2022-04-15T13:21:55Z</time>
      </trkpt>
      <trkpt lat="45.59967" lon="5.76551">
        <ele>456</ele>
        <time>2022-04-15T13:21:56Z</time>
      </trkpt>
      <trkpt lat="45.59967" lon="5.76548">
        <ele>456.1</ele>
        <time>2022-04-15T13:21:57Z</time>
      </trkpt>
      <trkpt lat="45.59968" lon="5.76542">
        <ele>456.3</ele>
        <time>2022-04-15T13:21:59Z</time>
      </trkpt>
      <trkpt lat="45.59969" lon="5.76541">
        <ele>456.3</ele>
        <time>2022-04-15T13:22:00Z</time>
      </trkpt>
      <trkpt lat="45.59969" lon="5.76536">
        <ele>456.5</ele>
        <time>2022-04-15T13:22:01Z</time>
      </trkpt>
      <trkpt lat="45.5997" lon="5.7653">
        <ele>456.7</ele>
        <time>2022-04-15T13:22:03Z</time>
      </trkpt>
      <trkpt lat="45.59971" lon="5.76525">
        <ele>456.9</ele>
        <time>2022-04-15T13:22:05Z</time>
      </trkpt>
      <trkpt lat="45.59971" lon="5.7652">
        <ele>457.1</ele>
        <time>2022-04-15T13:22:06Z</time>
      </trkpt>
      <trkpt lat="45.59971" lon="5.76518">
        <ele>457.2</ele>
        <time>2022-04-15T13:22:07Z</time>
      </trkpt>
      <trkpt lat="45.59971" lon="5.76514">
        <ele>457.3</ele>
        <time>2022-04-15T13:22:08Z</time>
      </trkpt>
      <trkpt lat="45.59971" lon="5.76512">
        <ele>457.4</ele>
        <time>2022-04-15T13:22:09Z</time>
      </trkpt>
      <trkpt lat="45.59973" lon="5.76505">
        <ele>457.6</ele>
        <time>2022-04-15T13:22:11Z</time>
      </trkpt>
      <trkpt lat="45.59973" lon="5.76499">
        <ele>457.8</ele>
        <time>2022-04-15T13:22:13Z</time>
      </trkpt>
      <trkpt lat="45.59974" lon="5.76493">
        <ele>458.1</ele>
        <time>2022-04-15T13:22:15Z</time>
      </trkpt>
      <trkpt lat="45.59974" lon="5.76489">
        <ele>458.2</ele>
        <time>2022-04-15T13:22:16Z</time>
      </trkpt>
      <trkpt lat="45.59975" lon="5.76482">
        <ele>458.4</ele>
        <time>2022-04-15T13:22:18Z</time>
      </trkpt>
      <trkpt lat="45.59976" lon="5.76476">
        <ele>458.7</ele>
        <time>2022-04-15T13:22:20Z</time>
      </trkpt>
      <trkpt lat="45.59977" lon="5.76472">
        <ele>458.8</ele>
        <time>2022-04-15T13:22:21Z</time>
      </trkpt>
      <trkpt lat="45.59977" lon="5.7647">
        <ele>458.9</ele>
        <time>2022-04-15T13:22:22Z</time>
      </trkpt>
      <trkpt lat="45.59978" lon="5.76467">
        <ele>459</ele>
        <time>2022-04-15T13:22:23Z</time>
      </trkpt>
      <trkpt lat="45.59978" lon="5.76462">
        <ele>459.2</ele>
        <time>2022-04-15T13:22:25Z</time>
      </trkpt>
      <trkpt lat="45.59979" lon="5.76457">
        <ele>459.4</ele>
        <time>2022-04-15T13:22:26Z</time>
      </trkpt>
      <trkpt lat="45.59979" lon="5.76456">
        <ele>459.4</ele>
        <time>2022-04-15T13:22:27Z</time>
      </trkpt>
      <trkpt lat="45.5998" lon="5.76452">
        <ele>459.6</ele>
        <time>2022-04-15T13:22:28Z</time>
      </trkpt>
      <trkpt lat="45.5998" lon="5.7645">
        <ele>459.6</ele>
        <time>2022-04-15T13:22:29Z</time>
      </trkpt>
      <trkpt lat="45.5998" lon="5.76446">
        <ele>459.8</ele>
        <time>2022-04-15T13:22:30Z</time>
      </trkpt>
      <trkpt lat="45.59981" lon="5.7644">
        <ele>460</ele>
        <time>2022-04-15T13:22:31Z</time>
      </trkpt>
      <trkpt lat="45.59981" lon="5.76438">
        <ele>460.1</ele>
        <time>2022-04-15T13:22:32Z</time>
      </trkpt>
      <trkpt lat="45.59981" lon="5.76431">
        <ele>460.3</ele>
        <time>2022-04-15T13:22:34Z</time>
      </trkpt>
      <trkpt lat="45.59982" lon="5.76428">
        <ele>460.4</ele>
        <time>2022-04-15T13:22:35Z</time>
      </trkpt>
      <trkpt lat="45.59982" lon="5.76426">
        <ele>460.5</ele>
        <time>2022-04-15T13:22:36Z</time>
      </trkpt>
      <trkpt lat="45.59983" lon="5.76421">
        <ele>460.7</ele>
        <time>2022-04-15T13:22:37Z</time>
      </trkpt>
      <trkpt lat="45.59983" lon="5.76418">
        <ele>460.8</ele>
        <time>2022-04-15T13:22:38Z</time>
      </trkpt>
      <trkpt lat="45.59983" lon="5.76414">
        <ele>460.9</ele>
        <time>2022-04-15T13:22:40Z</time>
      </trkpt>
      <trkpt lat="45.59984" lon="5.76408">
        <ele>461.2</ele>
        <time>2022-04-15T13:22:41Z</time>
      </trkpt>
      <trkpt lat="45.59984" lon="5.76406">
        <ele>461.3</ele>
        <time>2022-04-15T13:22:42Z</time>
      </trkpt>
      <trkpt lat="45.59984" lon="5.76403">
        <ele>461.4</ele>
        <time>2022-04-15T13:22:43Z</time>
      </trkpt>
      <trkpt lat="45.59985" lon="5.76399">
        <ele>461.6</ele>
        <time>2022-04-15T13:22:45Z</time>
      </trkpt>
      <trkpt lat="45.59986" lon="5.76396">
        <ele>461.7</ele>
        <time>2022-04-15T13:22:46Z</time>
      </trkpt>
      <trkpt lat="45.59987" lon="5.76391">
        <ele>461.9</ele>
        <time>2022-04-15T13:22:48Z</time>
      </trkpt>
      <trkpt lat="45.59987" lon="5.76387">
        <ele>462</ele>
        <time>2022-04-15T13:22:49Z</time>
      </trkpt>
      <trkpt lat="45.59988" lon="5.76385">
        <ele>462.1</ele>
        <time>2022-04-15T13:22:50Z</time>
      </trkpt>
      <trkpt lat="45.59988" lon="5.76381">
        <ele>462.2</ele>
        <time>2022-04-15T13:22:51Z</time>
      </trkpt>
      <trkpt lat="45.59988" lon="5.76379">
        <ele>462.3</ele>
        <time>2022-04-15T13:22:52Z</time>
      </trkpt>
      <trkpt lat="45.59989" lon="5.76373">
        <ele>462.5</ele>
        <time>2022-04-15T13:22:53Z</time>
      </trkpt>
      <trkpt lat="45.59989" lon="5.7637">
        <ele>462.6</ele>
        <time>2022-04-15T13:22:54Z</time>
      </trkpt>
      <trkpt lat="45.5999" lon="5.76365">
        <ele>462.9</ele>
        <time>2022-04-15T13:22:56Z</time>
      </trkpt>
      <trkpt lat="45.59991" lon="5.76363">
        <ele>462.9</ele>
        <time>2022-04-15T13:22:57Z</time>
      </trkpt>
      <trkpt lat="45.59991" lon="5.76361">
        <ele>463</ele>
        <time>2022-04-15T13:22:58Z</time>
      </trkpt>
      <trkpt lat="45.59992" lon="5.76354">
        <ele>463.2</ele>
        <time>2022-04-15T13:23:00Z</time>
      </trkpt>
      <trkpt lat="45.59993" lon="5.76349">
        <ele>463.4</ele>
        <time>2022-04-15T13:23:01Z</time>
      </trkpt>
      <trkpt lat="45.59993" lon="5.76347">
        <ele>463.5</ele>
        <time>2022-04-15T13:23:02Z</time>
      </trkpt>
      <trkpt lat="45.59994" lon="5.76342">
        <ele>463.7</ele>
        <time>2022-04-15T13:23:03Z</time>
      </trkpt>
      <trkpt lat="45.59993" lon="5.7634">
        <ele>463.8</ele>
        <time>2022-04-15T13:23:04Z</time>
      </trkpt>
      <trkpt lat="45.59994" lon="5.76335">
        <ele>464</ele>
        <time>2022-04-15T13:23:05Z</time>
      </trkpt>
      <trkpt lat="45.59994" lon="5.76334">
        <ele>464</ele>
        <time>2022-04-15T13:23:06Z</time>
      </trkpt>
      <trkpt lat="45.59995" lon="5.7633">
        <ele>464.2</ele>
        <time>2022-04-15T13:23:07Z</time>
      </trkpt>
      <trkpt lat="45.59995" lon="5.76324">
        <ele>464.4</ele>
        <time>2022-04-15T13:23:08Z</time>
      </trkpt>
      <trkpt lat="45.59995" lon="5.76322">
        <ele>464.4</ele>
        <time>2022-04-15T13:23:09Z</time>
      </trkpt>
      <trkpt lat="45.59996" lon="5.76318">
        <ele>464.6</ele>
        <time>2022-04-15T13:23:10Z</time>
      </trkpt>
      <trkpt lat="45.59997" lon="5.76314">
        <ele>464.8</ele>
        <time>2022-04-15T13:23:11Z</time>
      </trkpt>
      <trkpt lat="45.59997" lon="5.76308">
        <ele>464.9</ele>
        <time>2022-04-15T13:23:13Z</time>
      </trkpt>
      <trkpt lat="45.59997" lon="5.76307">
        <ele>465</ele>
        <time>2022-04-15T13:23:14Z</time>
      </trkpt>
      <trkpt lat="45.59998" lon="5.76302">
        <ele>465.2</ele>
        <time>2022-04-15T13:23:15Z</time>
      </trkpt>
      <trkpt lat="45.59998" lon="5.763">
        <ele>465.2</ele>
        <time>2022-04-15T13:23:16Z</time>
      </trkpt>
      <trkpt lat="45.59999" lon="5.76295">
        <ele>465.4</ele>
        <time>2022-04-15T13:23:17Z</time>
      </trkpt>
      <trkpt lat="45.6" lon="5.76288">
        <ele>465.7</ele>
        <time>2022-04-15T13:23:19Z</time>
      </trkpt>
      <trkpt lat="45.6" lon="5.76286">
        <ele>465.7</ele>
        <time>2022-04-15T13:23:20Z</time>
      </trkpt>
      <trkpt lat="45.6" lon="5.76284">
        <ele>465.8</ele>
        <time>2022-04-15T13:23:21Z</time>
      </trkpt>
      <trkpt lat="45.60001" lon="5.76279">
        <ele>466</ele>
        <time>2022-04-15T13:23:22Z</time>
      </trkpt>
      <trkpt lat="45.60001" lon="5.76277">
        <ele>466</ele>
        <time>2022-04-15T13:23:23Z</time>
      </trkpt>
      <trkpt lat="45.60001" lon="5.76271">
        <ele>466.3</ele>
        <time>2022-04-15T13:23:24Z</time>
      </trkpt>
      <trkpt lat="45.60001" lon="5.76266">
        <ele>466.4</ele>
        <time>2022-04-15T13:23:26Z</time>
      </trkpt>
      <trkpt lat="45.60002" lon="5.76262">
        <ele>466.6</ele>
        <time>2022-04-15T13:23:27Z</time>
      </trkpt>
      <trkpt lat="45.60003" lon="5.76255">
        <ele>466.8</ele>
        <time>2022-04-15T13:23:29Z</time>
      </trkpt>
      <trkpt lat="45.60004" lon="5.76248">
        <ele>467</ele>
        <time>2022-04-15T13:23:31Z</time>
      </trkpt>
      <trkpt lat="45.60005" lon="5.76244">
        <ele>467.2</ele>
        <time>2022-04-15T13:23:32Z</time>
      </trkpt>
      <trkpt lat="45.60005" lon="5.76237">
        <ele>467.5</ele>
        <time>2022-04-15T13:23:34Z</time>
      </trkpt>
      <trkpt lat="45.60006" lon="5.76231">
        <ele>467.7</ele>
        <time>2022-04-15T13:23:35Z</time>
      </trkpt>
      <trkpt lat="45.60006" lon="5.76228">
        <ele>467.8</ele>
        <time>2022-04-15T13:23:37Z</time>
      </trkpt>
      <trkpt lat="45.60006" lon="5.76222">
        <ele>468</ele>
        <time>2022-04-15T13:23:39Z</time>
      </trkpt>
      <trkpt lat="45.60007" lon="5.76216">
        <ele>468.3</ele>
        <time>2022-04-15T13:23:41Z</time>
      </trkpt>
      <trkpt lat="45.60007" lon="5.7621">
        <ele>468.5</ele>
        <time>2022-04-15T13:23:42Z</time>
      </trkpt>
      <trkpt lat="45.60008" lon="5.76204">
        <ele>468.7</ele>
        <time>2022-04-15T13:23:44Z</time>
      </trkpt>
      <trkpt lat="45.60008" lon="5.76201">
        <ele>468.8</ele>
        <time>2022-04-15T13:23:45Z</time>
      </trkpt>
      <trkpt lat="45.60008" lon="5.76199">
        <ele>468.9</ele>
        <time>2022-04-15T13:23:46Z</time>
      </trkpt>
      <trkpt lat="45.60009" lon="5.76194">
        <ele>469</ele>
        <time>2022-04-15T13:23:47Z</time>
      </trkpt>
      <trkpt lat="45.60009" lon="5.76193">
        <ele>469.1</ele>
        <time>2022-04-15T13:23:48Z</time>
      </trkpt>
      <trkpt lat="45.6001" lon="5.76188">
        <ele>469.3</ele>
        <time>2022-04-15T13:23:49Z</time>
      </trkpt>
      <trkpt lat="45.6001" lon="5.76187">
        <ele>469.3</ele>
        <time>2022-04-15T13:23:50Z</time>
      </trkpt>
      <trkpt lat="45.60011" lon="5.76182">
        <ele>469.5</ele>
        <time>2022-04-15T13:23:51Z</time>
      </trkpt>
      <trkpt lat="45.60011" lon="5.7618">
        <ele>469.5</ele>
        <time>2022-04-15T13:23:52Z</time>
      </trkpt>
      <trkpt lat="45.60011" lon="5.76176">
        <ele>469.7</ele>
        <time>2022-04-15T13:23:53Z</time>
      </trkpt>
      <trkpt lat="45.60012" lon="5.76174">
        <ele>469.7</ele>
        <time>2022-04-15T13:23:54Z</time>
      </trkpt>
      <trkpt lat="45.60012" lon="5.7617">
        <ele>469.9</ele>
        <time>2022-04-15T13:23:55Z</time>
      </trkpt>
      <trkpt lat="45.60013" lon="5.76168">
        <ele>469.9</ele>
        <time>2022-04-15T13:23:56Z</time>
      </trkpt>
      <trkpt lat="45.60013" lon="5.76163">
        <ele>470.1</ele>
        <time>2022-04-15T13:23:57Z</time>
      </trkpt>
      <trkpt lat="45.60013" lon="5.76162">
        <ele>470.2</ele>
        <time>2022-04-15T13:23:58Z</time>
      </trkpt>
      <trkpt lat="45.60013" lon="5.76156">
        <ele>470.4</ele>
        <time>2022-04-15T13:23:59Z</time>
      </trkpt>
      <trkpt lat="45.60014" lon="5.76152">
        <ele>470.5</ele>
        <time>2022-04-15T13:24:00Z</time>
      </trkpt>
      <trkpt lat="45.60014" lon="5.76149">
        <ele>470.6</ele>
        <time>2022-04-15T13:24:02Z</time>
      </trkpt>
      <trkpt lat="45.60015" lon="5.76143">
        <ele>470.8</ele>
        <time>2022-04-15T13:24:04Z</time>
      </trkpt>
      <trkpt lat="45.60016" lon="5.76136">
        <ele>471.1</ele>
        <time>2022-04-15T13:24:06Z</time>
      </trkpt>
      <trkpt lat="45.60017" lon="5.7613">
        <ele>471.2</ele>
        <time>2022-04-15T13:24:07Z</time>
      </trkpt>
      <trkpt lat="45.60018" lon="5.76129">
        <ele>471.3</ele>
        <time>2022-04-15T13:24:08Z</time>
      </trkpt>
      <trkpt lat="45.60021" lon="5.76123">
        <ele>471.5</ele>
        <time>2022-04-15T13:24:10Z</time>
      </trkpt>
      <trkpt lat="45.60022" lon="5.7612">
        <ele>471.6</ele>
        <time>2022-04-15T13:24:11Z</time>
      </trkpt>
      <trkpt lat="45.60025" lon="5.76115">
        <ele>471.9</ele>
        <time>2022-04-15T13:24:13Z</time>
      </trkpt>
      <trkpt lat="45.60028" lon="5.76113">
        <ele>472</ele>
        <time>2022-04-15T13:24:14Z</time>
      </trkpt>
      <trkpt lat="45.60031" lon="5.7611">
        <ele>472.2</ele>
        <time>2022-04-15T13:24:15Z</time>
      </trkpt>
      <trkpt lat="45.60033" lon="5.76107">
        <ele>472.3</ele>
        <time>2022-04-15T13:24:16Z</time>
      </trkpt>
      <trkpt lat="45.60037" lon="5.76107">
        <ele>472.5</ele>
        <time>2022-04-15T13:24:18Z</time>
      </trkpt>
      <trkpt lat="45.60038" lon="5.76106">
        <ele>472.5</ele>
        <time>2022-04-15T13:24:19Z</time>
      </trkpt>
      <trkpt lat="45.60042" lon="5.76106">
        <ele>472.7</ele>
        <time>2022-04-15T13:24:20Z</time>
      </trkpt>
      <trkpt lat="45.60044" lon="5.76106">
        <ele>472.8</ele>
        <time>2022-04-15T13:24:21Z</time>
      </trkpt>
      <trkpt lat="45.60047" lon="5.76106">
        <ele>472.9</ele>
        <time>2022-04-15T13:24:22Z</time>
      </trkpt>
      <trkpt lat="45.6005" lon="5.76107">
        <ele>473</ele>
        <time>2022-04-15T13:24:24Z</time>
      </trkpt>
      <trkpt lat="45.6005" lon="5.76108">
        <ele>473.1</ele>
        <time>2022-04-15T13:24:25Z</time>
      </trkpt>
      <trkpt lat="45.60054" lon="5.7611">
        <ele>473.2</ele>
        <time>2022-04-15T13:24:26Z</time>
      </trkpt>
      <trkpt lat="45.60055" lon="5.76111">
        <ele>473.3</ele>
        <time>2022-04-15T13:24:27Z</time>
      </trkpt>
      <trkpt lat="45.60058" lon="5.76113">
        <ele>473.4</ele>
        <time>2022-04-15T13:24:28Z</time>
      </trkpt>
      <trkpt lat="45.60059" lon="5.76114">
        <ele>473.5</ele>
        <time>2022-04-15T13:24:29Z</time>
      </trkpt>
      <trkpt lat="45.60062" lon="5.76117">
        <ele>473.6</ele>
        <time>2022-04-15T13:24:30Z</time>
      </trkpt>
      <trkpt lat="45.60063" lon="5.76118">
        <ele>473.7</ele>
        <time>2022-04-15T13:24:31Z</time>
      </trkpt>
      <trkpt lat="45.60068" lon="5.76121">
        <ele>473.9</ele>
        <time>2022-04-15T13:24:32Z</time>
      </trkpt>
      <trkpt lat="45.60071" lon="5.76123">
        <ele>474</ele>
        <time>2022-04-15T13:24:34Z</time>
      </trkpt>
      <trkpt lat="45.60075" lon="5.76127">
        <ele>474.3</ele>
        <time>2022-04-15T13:24:35Z</time>
      </trkpt>
      <trkpt lat="45.60077" lon="5.76129">
        <ele>474.4</ele>
        <time>2022-04-15T13:24:37Z</time>
      </trkpt>
      <trkpt lat="45.6008" lon="5.76132">
        <ele>474.5</ele>
        <time>2022-04-15T13:24:38Z</time>
      </trkpt>
      <trkpt lat="45.60085" lon="5.76135">
        <ele>474.8</ele>
        <time>2022-04-15T13:24:40Z</time>
      </trkpt>
      <trkpt lat="45.60088" lon="5.76137">
        <ele>474.9</ele>
        <time>2022-04-15T13:24:41Z</time>
      </trkpt>
      <trkpt lat="45.60092" lon="5.7614">
        <ele>475.1</ele>
        <time>2022-04-15T13:24:43Z</time>
      </trkpt>
      <trkpt lat="45.60095" lon="5.76143">
        <ele>475.3</ele>
        <time>2022-04-15T13:24:44Z</time>
      </trkpt>
      <trkpt lat="45.60096" lon="5.76144">
        <ele>475.3</ele>
        <time>2022-04-15T13:24:45Z</time>
      </trkpt>
      <trkpt lat="45.601" lon="5.76146">
        <ele>475.5</ele>
        <time>2022-04-15T13:24:46Z</time>
      </trkpt>
      <trkpt lat="45.60101" lon="5.76147">
        <ele>475.5</ele>
        <time>2022-04-15T13:24:47Z</time>
      </trkpt>
      <trkpt lat="45.60106" lon="5.76151">
        <ele>475.8</ele>
        <time>2022-04-15T13:24:49Z</time>
      </trkpt>
      <trkpt lat="45.60109" lon="5.76153">
        <ele>475.9</ele>
        <time>2022-04-15T13:24:50Z</time>
      </trkpt>
      <trkpt lat="45.60112" lon="5.76154">
        <ele>476</ele>
        <time>2022-04-15T13:24:51Z</time>
      </trkpt>
      <trkpt lat="45.60117" lon="5.76158">
        <ele>476.2</ele>
        <time>2022-04-15T13:24:53Z</time>
      </trkpt>
      <trkpt lat="45.6012" lon="5.76159">
        <ele>476.4</ele>
        <time>2022-04-15T13:24:54Z</time>
      </trkpt>
      <trkpt lat="45.60122" lon="5.7616">
        <ele>476.5</ele>
        <time>2022-04-15T13:24:55Z</time>
      </trkpt>
      <trkpt lat="45.60125" lon="5.76162">
        <ele>476.6</ele>
        <time>2022-04-15T13:24:56Z</time>
      </trkpt>
      <trkpt lat="45.60128" lon="5.76163">
        <ele>476.7</ele>
        <time>2022-04-15T13:24:57Z</time>
      </trkpt>
      <trkpt lat="45.60131" lon="5.76164">
        <ele>476.9</ele>
        <time>2022-04-15T13:24:58Z</time>
      </trkpt>
      <trkpt lat="45.60136" lon="5.76167">
        <ele>477.2</ele>
        <time>2022-04-15T13:25:00Z</time>
      </trkpt>
      <trkpt lat="45.60139" lon="5.76169">
        <ele>477.3</ele>
        <time>2022-04-15T13:25:01Z</time>
      </trkpt>
      <trkpt lat="45.60143" lon="5.76172">
        <ele>477.6</ele>
        <time>2022-04-15T13:25:02Z</time>
      </trkpt>
      <trkpt lat="45.60147" lon="5.76175">
        <ele>477.8</ele>
        <time>2022-04-15T13:25:03Z</time>
      </trkpt>
      <trkpt lat="45.60148" lon="5.76176">
        <ele>477.8</ele>
        <time>2022-04-15T13:25:04Z</time>
      </trkpt>
      <trkpt lat="45.60152" lon="5.76179">
        <ele>478.1</ele>
        <time>2022-04-15T13:25:06Z</time>
      </trkpt>
      <trkpt lat="45.60156" lon="5.7618">
        <ele>478.3</ele>
        <time>2022-04-15T13:25:07Z</time>
      </trkpt>
      <trkpt lat="45.60157" lon="5.76181">
        <ele>478.3</ele>
        <time>2022-04-15T13:25:08Z</time>
      </trkpt>
      <trkpt lat="45.6016" lon="5.76183">
        <ele>478.5</ele>
        <time>2022-04-15T13:25:09Z</time>
      </trkpt>
      <trkpt lat="45.60161" lon="5.76184">
        <ele>478.5</ele>
        <time>2022-04-15T13:25:10Z</time>
      </trkpt>
      <trkpt lat="45.60164" lon="5.76185">
        <ele>478.7</ele>
        <time>2022-04-15T13:25:11Z</time>
      </trkpt>
      <trkpt lat="45.60166" lon="5.76187">
        <ele>478.8</ele>
        <time>2022-04-15T13:25:13Z</time>
      </trkpt>
      <trkpt lat="45.60171" lon="5.76189">
        <ele>479</ele>
        <time>2022-04-15T13:25:15Z</time>
      </trkpt>
      <trkpt lat="45.60174" lon="5.76192">
        <ele>479.1</ele>
        <time>2022-04-15T13:25:17Z</time>
      </trkpt>
      <trkpt lat="45.60176" lon="5.76195">
        <ele>479.3</ele>
        <time>2022-04-15T13:25:18Z</time>
      </trkpt>
      <trkpt lat="45.60177" lon="5.76196">
        <ele>479.3</ele>
        <time>2022-04-15T13:25:19Z</time>
      </trkpt>
      <trkpt lat="45.6018" lon="5.76197">
        <ele>479.4</ele>
        <time>2022-04-15T13:25:21Z</time>
      </trkpt>
      <trkpt lat="45.60183" lon="5.76199">
        <ele>479.6</ele>
        <time>2022-04-15T13:25:22Z</time>
      </trkpt>
      <trkpt lat="45.60186" lon="5.76201">
        <ele>479.7</ele>
        <time>2022-04-15T13:25:23Z</time>
      </trkpt>
      <trkpt lat="45.60189" lon="5.76203">
        <ele>479.8</ele>
        <time>2022-04-15T13:25:25Z</time>
      </trkpt>
      <trkpt lat="45.60194" lon="5.76207">
        <ele>480.1</ele>
        <time>2022-04-15T13:25:27Z</time>
      </trkpt>
      <trkpt lat="45.60198" lon="5.76208">
        <ele>480.2</ele>
        <time>2022-04-15T13:25:28Z</time>
      </trkpt>
      <trkpt lat="45.60201" lon="5.76209">
        <ele>480.4</ele>
        <time>2022-04-15T13:25:29Z</time>
      </trkpt>
      <trkpt lat="45.60207" lon="5.7621">
        <ele>480.6</ele>
        <time>2022-04-15T13:25:31Z</time>
      </trkpt>
      <trkpt lat="45.60212" lon="5.76211">
        <ele>480.9</ele>
        <time>2022-04-15T13:25:33Z</time>
      </trkpt>
      <trkpt lat="45.60217" lon="5.76211">
        <ele>481.1</ele>
        <time>2022-04-15T13:25:34Z</time>
      </trkpt>
      <trkpt lat="45.60221" lon="5.7621">
        <ele>481.3</ele>
        <time>2022-04-15T13:25:36Z</time>
      </trkpt>
      <trkpt lat="45.60225" lon="5.76209">
        <ele>481.5</ele>
        <time>2022-04-15T13:25:37Z</time>
      </trkpt>
      <trkpt lat="45.6023" lon="5.76207">
        <ele>481.7</ele>
        <time>2022-04-15T13:25:39Z</time>
      </trkpt>
      <trkpt lat="45.60234" lon="5.76206">
        <ele>482</ele>
        <time>2022-04-15T13:25:41Z</time>
      </trkpt>
      <trkpt lat="45.60236" lon="5.76206">
        <ele>482</ele>
        <time>2022-04-15T13:25:42Z</time>
      </trkpt>
      <trkpt lat="45.60239" lon="5.76205">
        <ele>482.2</ele>
        <time>2022-04-15T13:25:43Z</time>
      </trkpt>
      <trkpt lat="45.60241" lon="5.76205">
        <ele>482.3</ele>
        <time>2022-04-15T13:25:44Z</time>
      </trkpt>
      <trkpt lat="45.60244" lon="5.76204">
        <ele>482.5</ele>
        <time>2022-04-15T13:25:46Z</time>
      </trkpt>
      <trkpt lat="45.60245" lon="5.76203">
        <ele>482.5</ele>
        <time>2022-04-15T13:25:47Z</time>
      </trkpt>
      <trkpt lat="45.60248" lon="5.76202">
        <ele>482.7</ele>
        <time>2022-04-15T13:25:48Z</time>
      </trkpt>
      <trkpt lat="45.6025" lon="5.76201">
        <ele>482.8</ele>
        <time>2022-04-15T13:25:49Z</time>
      </trkpt>
      <trkpt lat="45.60253" lon="5.76199">
        <ele>483</ele>
        <time>2022-04-15T13:25:50Z</time>
      </trkpt>
      <trkpt lat="45.60255" lon="5.76199">
        <ele>483.1</ele>
        <time>2022-04-15T13:25:51Z</time>
      </trkpt>
      <trkpt lat="45.60258" lon="5.76197">
        <ele>483.2</ele>
        <time>2022-04-15T13:25:52Z</time>
      </trkpt>
      <trkpt lat="45.60259" lon="5.76197">
        <ele>483.3</ele>
        <time>2022-04-15T13:25:53Z</time>
      </trkpt>
      <trkpt lat="45.60263" lon="5.76196">
        <ele>483.5</ele>
        <time>2022-04-15T13:25:54Z</time>
      </trkpt>
      <trkpt lat="45.60264" lon="5.76195">
        <ele>483.5</ele>
        <time>2022-04-15T13:25:55Z</time>
      </trkpt>
      <trkpt lat="45.60268" lon="5.76193">
        <ele>483.7</ele>
        <time>2022-04-15T13:25:56Z</time>
      </trkpt>
      <trkpt lat="45.60269" lon="5.76193">
        <ele>483.8</ele>
        <time>2022-04-15T13:25:57Z</time>
      </trkpt>
      <trkpt lat="45.60271" lon="5.76192">
        <ele>483.9</ele>
        <time>2022-04-15T13:25:58Z</time>
      </trkpt>
      <trkpt lat="45.60275" lon="5.7619">
        <ele>484.1</ele>
        <time>2022-04-15T13:25:59Z</time>
      </trkpt>
      <trkpt lat="45.60276" lon="5.76189">
        <ele>484.2</ele>
        <time>2022-04-15T13:26:00Z</time>
      </trkpt>
      <trkpt lat="45.60279" lon="5.76188">
        <ele>484.3</ele>
        <time>2022-04-15T13:26:01Z</time>
      </trkpt>
      <trkpt lat="45.60283" lon="5.76185">
        <ele>484.5</ele>
        <time>2022-04-15T13:26:02Z</time>
      </trkpt>
      <trkpt lat="45.60284" lon="5.76184">
        <ele>484.6</ele>
        <time>2022-04-15T13:26:03Z</time>
      </trkpt>
      <trkpt lat="45.60289" lon="5.76182">
        <ele>484.8</ele>
        <time>2022-04-15T13:26:05Z</time>
      </trkpt>
      <trkpt lat="45.60292" lon="5.7618">
        <ele>485</ele>
        <time>2022-04-15T13:26:06Z</time>
      </trkpt>
      <trkpt lat="45.60294" lon="5.76179">
        <ele>485.1</ele>
        <time>2022-04-15T13:26:07Z</time>
      </trkpt>
      <trkpt lat="45.60297" lon="5.76177">
        <ele>485.3</ele>
        <time>2022-04-15T13:26:08Z</time>
      </trkpt>
      <trkpt lat="45.60298" lon="5.76176">
        <ele>485.3</ele>
        <time>2022-04-15T13:26:09Z</time>
      </trkpt>
      <trkpt lat="45.60302" lon="5.76174">
        <ele>485.5</ele>
        <time>2022-04-15T13:26:10Z</time>
      </trkpt>
      <trkpt lat="45.60303" lon="5.76173">
        <ele>485.6</ele>
        <time>2022-04-15T13:26:11Z</time>
      </trkpt>
      <trkpt lat="45.60307" lon="5.76171">
        <ele>485.8</ele>
        <time>2022-04-15T13:26:12Z</time>
      </trkpt>
      <trkpt lat="45.60308" lon="5.7617">
        <ele>485.9</ele>
        <time>2022-04-15T13:26:13Z</time>
      </trkpt>
      <trkpt lat="45.60312" lon="5.76167">
        <ele>486.1</ele>
        <time>2022-04-15T13:26:14Z</time>
      </trkpt>
      <trkpt lat="45.60315" lon="5.76166">
        <ele>486.3</ele>
        <time>2022-04-15T13:26:15Z</time>
      </trkpt>
      <trkpt lat="45.60319" lon="5.76164">
        <ele>486.5</ele>
        <time>2022-04-15T13:26:17Z</time>
      </trkpt>
      <trkpt lat="45.60321" lon="5.76163">
        <ele>486.6</ele>
        <time>2022-04-15T13:26:18Z</time>
      </trkpt>
      <trkpt lat="45.60322" lon="5.76163">
        <ele>486.7</ele>
        <time>2022-04-15T13:26:19Z</time>
      </trkpt>
      <trkpt lat="45.60326" lon="5.7616">
        <ele>486.9</ele>
        <time>2022-04-15T13:26:20Z</time>
      </trkpt>
      <trkpt lat="45.60329" lon="5.76158">
        <ele>487.1</ele>
        <time>2022-04-15T13:26:22Z</time>
      </trkpt>
      <trkpt lat="45.6033" lon="5.76158">
        <ele>487.1</ele>
        <time>2022-04-15T13:26:23Z</time>
      </trkpt>
      <trkpt lat="45.60334" lon="5.76155">
        <ele>487.4</ele>
        <time>2022-04-15T13:26:24Z</time>
      </trkpt>
      <trkpt lat="45.60337" lon="5.76154">
        <ele>487.5</ele>
        <time>2022-04-15T13:26:26Z</time>
      </trkpt>
      <trkpt lat="45.6034" lon="5.76152">
        <ele>487.7</ele>
        <time>2022-04-15T13:26:27Z</time>
      </trkpt>
      <trkpt lat="45.60344" lon="5.7615">
        <ele>487.9</ele>
        <time>2022-04-15T13:26:29Z</time>
      </trkpt>
      <trkpt lat="45.60347" lon="5.76148">
        <ele>488.1</ele>
        <time>2022-04-15T13:26:30Z</time>
      </trkpt>
      <trkpt lat="45.60348" lon="5.76148">
        <ele>488.1</ele>
        <time>2022-04-15T13:26:31Z</time>
      </trkpt>
      <trkpt lat="45.60352" lon="5.76146">
        <ele>488.3</ele>
        <time>2022-04-15T13:26:32Z</time>
      </trkpt>
      <trkpt lat="45.60353" lon="5.76146">
        <ele>488.4</ele>
        <time>2022-04-15T13:26:33Z</time>
      </trkpt>
      <trkpt lat="45.60356" lon="5.76144">
        <ele>488.5</ele>
        <time>2022-04-15T13:26:34Z</time>
      </trkpt>
      <trkpt lat="45.60357" lon="5.76143">
        <ele>488.6</ele>
        <time>2022-04-15T13:26:35Z</time>
      </trkpt>
      <trkpt lat="45.60361" lon="5.76141">
        <ele>488.8</ele>
        <time>2022-04-15T13:26:36Z</time>
      </trkpt>
      <trkpt lat="45.60362" lon="5.7614">
        <ele>488.8</ele>
        <time>2022-04-15T13:26:37Z</time>
      </trkpt>
      <trkpt lat="45.60364" lon="5.76139">
        <ele>489</ele>
        <time>2022-04-15T13:26:38Z</time>
      </trkpt>
      <trkpt lat="45.60367" lon="5.76137">
        <ele>489.1</ele>
        <time>2022-04-15T13:26:39Z</time>
      </trkpt>
      <trkpt lat="45.60371" lon="5.76136">
        <ele>489.4</ele>
        <time>2022-04-15T13:26:40Z</time>
      </trkpt>
      <trkpt lat="45.60372" lon="5.76135">
        <ele>489.4</ele>
        <time>2022-04-15T13:26:41Z</time>
      </trkpt>
      <trkpt lat="45.60375" lon="5.76133">
        <ele>489.6</ele>
        <time>2022-04-15T13:26:42Z</time>
      </trkpt>
      <trkpt lat="45.60377" lon="5.76132">
        <ele>489.7</ele>
        <time>2022-04-15T13:26:43Z</time>
      </trkpt>
      <trkpt lat="45.6038" lon="5.76131">
        <ele>489.9</ele>
        <time>2022-04-15T13:26:44Z</time>
      </trkpt>
      <trkpt lat="45.60381" lon="5.7613">
        <ele>489.9</ele>
        <time>2022-04-15T13:26:45Z</time>
      </trkpt>
      <trkpt lat="45.60384" lon="5.76129">
        <ele>490.1</ele>
        <time>2022-04-15T13:26:46Z</time>
      </trkpt>
      <trkpt lat="45.60389" lon="5.76126">
        <ele>490.3</ele>
        <time>2022-04-15T13:26:48Z</time>
      </trkpt>
      <trkpt lat="45.60391" lon="5.76125">
        <ele>490.5</ele>
        <time>2022-04-15T13:26:49Z</time>
      </trkpt>
      <trkpt lat="45.60398" lon="5.7612">
        <ele>490.8</ele>
        <time>2022-04-15T13:26:51Z</time>
      </trkpt>
      <trkpt lat="45.604" lon="5.76119">
        <ele>491</ele>
        <time>2022-04-15T13:26:53Z</time>
      </trkpt>
      <trkpt lat="45.60404" lon="5.76117">
        <ele>491.2</ele>
        <time>2022-04-15T13:26:54Z</time>
      </trkpt>
      <trkpt lat="45.60406" lon="5.76116">
        <ele>491.3</ele>
        <time>2022-04-15T13:26:55Z</time>
      </trkpt>
      <trkpt lat="45.6041" lon="5.76114">
        <ele>491.5</ele>
        <time>2022-04-15T13:26:57Z</time>
      </trkpt>
      <trkpt lat="45.60413" lon="5.76112">
        <ele>491.6</ele>
        <time>2022-04-15T13:26:58Z</time>
      </trkpt>
      <trkpt lat="45.60416" lon="5.7611">
        <ele>491.9</ele>
        <time>2022-04-15T13:26:59Z</time>
      </trkpt>
      <trkpt lat="45.60418" lon="5.76109">
        <ele>491.9</ele>
        <time>2022-04-15T13:27:00Z</time>
      </trkpt>
      <trkpt lat="45.60421" lon="5.76106">
        <ele>492.1</ele>
        <time>2022-04-15T13:27:02Z</time>
      </trkpt>
      <trkpt lat="45.60425" lon="5.76104">
        <ele>492.3</ele>
        <time>2022-04-15T13:27:03Z</time>
      </trkpt>
      <trkpt lat="45.60426" lon="5.76104">
        <ele>492.4</ele>
        <time>2022-04-15T13:27:04Z</time>
      </trkpt>
      <trkpt lat="45.6043" lon="5.76102">
        <ele>492.6</ele>
        <time>2022-04-15T13:27:06Z</time>
      </trkpt>
      <trkpt lat="45.60432" lon="5.76101">
        <ele>492.7</ele>
        <time>2022-04-15T13:27:07Z</time>
      </trkpt>
      <trkpt lat="45.60436" lon="5.76099">
        <ele>493</ele>
        <time>2022-04-15T13:27:09Z</time>
      </trkpt>
      <trkpt lat="45.60439" lon="5.76097">
        <ele>493.1</ele>
        <time>2022-04-15T13:27:10Z</time>
      </trkpt>
      <trkpt lat="45.6044" lon="5.76096">
        <ele>493.1</ele>
        <time>2022-04-15T13:27:11Z</time>
      </trkpt>
      <trkpt lat="45.60443" lon="5.76095">
        <ele>493.3</ele>
        <time>2022-04-15T13:27:12Z</time>
      </trkpt>
      <trkpt lat="45.60444" lon="5.76094">
        <ele>493.4</ele>
        <time>2022-04-15T13:27:13Z</time>
      </trkpt>
      <trkpt lat="45.60448" lon="5.76093">
        <ele>493.5</ele>
        <time>2022-04-15T13:27:14Z</time>
      </trkpt>
      <trkpt lat="45.60449" lon="5.76093">
        <ele>493.6</ele>
        <time>2022-04-15T13:27:15Z</time>
      </trkpt>
      <trkpt lat="45.60453" lon="5.7609">
        <ele>493.8</ele>
        <time>2022-04-15T13:27:16Z</time>
      </trkpt>
      <trkpt lat="45.60456" lon="5.76089">
        <ele>494</ele>
        <time>2022-04-15T13:27:18Z</time>
      </trkpt>
      <trkpt lat="45.60457" lon="5.76088">
        <ele>494</ele>
        <time>2022-04-15T13:27:19Z</time>
      </trkpt>
      <trkpt lat="45.6046" lon="5.76086">
        <ele>494.2</ele>
        <time>2022-04-15T13:27:20Z</time>
      </trkpt>
      <trkpt lat="45.60461" lon="5.76086">
        <ele>494.2</ele>
        <time>2022-04-15T13:27:21Z</time>
      </trkpt>
      <trkpt lat="45.60465" lon="5.76084">
        <ele>494.4</ele>
        <time>2022-04-15T13:27:22Z</time>
      </trkpt>
      <trkpt lat="45.60466" lon="5.76083">
        <ele>494.4</ele>
        <time>2022-04-15T13:27:23Z</time>
      </trkpt>
      <trkpt lat="45.60469" lon="5.76081">
        <ele>494.6</ele>
        <time>2022-04-15T13:27:24Z</time>
      </trkpt>
      <trkpt lat="45.6047" lon="5.7608">
        <ele>494.7</ele>
        <time>2022-04-15T13:27:25Z</time>
      </trkpt>
      <trkpt lat="45.60473" lon="5.76079">
        <ele>494.8</ele>
        <time>2022-04-15T13:27:26Z</time>
      </trkpt>
      <trkpt lat="45.60474" lon="5.76078">
        <ele>494.9</ele>
        <time>2022-04-15T13:27:27Z</time>
      </trkpt>
      <trkpt lat="45.60477" lon="5.76076">
        <ele>495</ele>
        <time>2022-04-15T13:27:28Z</time>
      </trkpt>
      <trkpt lat="45.6048" lon="5.76074">
        <ele>495.2</ele>
        <time>2022-04-15T13:27:29Z</time>
      </trkpt>
      <trkpt lat="45.60481" lon="5.76074">
        <ele>495.2</ele>
        <time>2022-04-15T13:27:30Z</time>
      </trkpt>
      <trkpt lat="45.60483" lon="5.76073">
        <ele>495.3</ele>
        <time>2022-04-15T13:27:31Z</time>
      </trkpt>
      <trkpt lat="45.60487" lon="5.7607">
        <ele>495.5</ele>
        <time>2022-04-15T13:27:33Z</time>
      </trkpt>
      <trkpt lat="45.60491" lon="5.76068">
        <ele>495.7</ele>
        <time>2022-04-15T13:27:34Z</time>
      </trkpt>
      <trkpt lat="45.60493" lon="5.76067">
        <ele>495.8</ele>
        <time>2022-04-15T13:27:35Z</time>
      </trkpt>
      <trkpt lat="45.60497" lon="5.76066">
        <ele>496</ele>
        <time>2022-04-15T13:27:36Z</time>
      </trkpt>
      <trkpt lat="45.60501" lon="5.76063">
        <ele>496.2</ele>
        <time>2022-04-15T13:27:38Z</time>
      </trkpt>
      <trkpt lat="45.60504" lon="5.76061">
        <ele>496.4</ele>
        <time>2022-04-15T13:27:40Z</time>
      </trkpt>
      <trkpt lat="45.60508" lon="5.76059">
        <ele>496.6</ele>
        <time>2022-04-15T13:27:41Z</time>
      </trkpt>
      <trkpt lat="45.60512" lon="5.76057">
        <ele>496.7</ele>
        <time>2022-04-15T13:27:43Z</time>
      </trkpt>
      <trkpt lat="45.60513" lon="5.76057">
        <ele>496.8</ele>
        <time>2022-04-15T13:27:44Z</time>
      </trkpt>
      <trkpt lat="45.60517" lon="5.76055">
        <ele>497</ele>
        <time>2022-04-15T13:27:45Z</time>
      </trkpt>
      <trkpt lat="45.60518" lon="5.76054">
        <ele>497</ele>
        <time>2022-04-15T13:27:46Z</time>
      </trkpt>
      <trkpt lat="45.60522" lon="5.76052">
        <ele>497.2</ele>
        <time>2022-04-15T13:27:47Z</time>
      </trkpt>
      <trkpt lat="45.60523" lon="5.76051">
        <ele>497.3</ele>
        <time>2022-04-15T13:27:48Z</time>
      </trkpt>
      <trkpt lat="45.60527" lon="5.76049">
        <ele>497.5</ele>
        <time>2022-04-15T13:27:49Z</time>
      </trkpt>
      <trkpt lat="45.60529" lon="5.76048">
        <ele>497.6</ele>
        <time>2022-04-15T13:27:50Z</time>
      </trkpt>
      <trkpt lat="45.60532" lon="5.76046">
        <ele>497.7</ele>
        <time>2022-04-15T13:27:52Z</time>
      </trkpt>
      <trkpt lat="45.60535" lon="5.76044">
        <ele>497.9</ele>
        <time>2022-04-15T13:27:53Z</time>
      </trkpt>
      <trkpt lat="45.6054" lon="5.76041">
        <ele>498.1</ele>
        <time>2022-04-15T13:27:54Z</time>
      </trkpt>
      <trkpt lat="45.60543" lon="5.76039">
        <ele>498.3</ele>
        <time>2022-04-15T13:27:56Z</time>
      </trkpt>
      <trkpt lat="45.60545" lon="5.76038">
        <ele>498.4</ele>
        <time>2022-04-15T13:27:57Z</time>
      </trkpt>
      <trkpt lat="45.6055" lon="5.76036">
        <ele>498.6</ele>
        <time>2022-04-15T13:27:59Z</time>
      </trkpt>
      <trkpt lat="45.60553" lon="5.76035">
        <ele>498.8</ele>
        <time>2022-04-15T13:28:00Z</time>
      </trkpt>
      <trkpt lat="45.60558" lon="5.76032">
        <ele>499</ele>
        <time>2022-04-15T13:28:02Z</time>
      </trkpt>
      <trkpt lat="45.60561" lon="5.76029">
        <ele>499.1</ele>
        <time>2022-04-15T13:28:03Z</time>
      </trkpt>
      <trkpt lat="45.60562" lon="5.76028">
        <ele>499.2</ele>
        <time>2022-04-15T13:28:04Z</time>
      </trkpt>
      <trkpt lat="45.60566" lon="5.76027">
        <ele>499.4</ele>
        <time>2022-04-15T13:28:05Z</time>
      </trkpt>
      <trkpt lat="45.60569" lon="5.76025">
        <ele>499.5</ele>
        <time>2022-04-15T13:28:07Z</time>
      </trkpt>
      <trkpt lat="45.60572" lon="5.76024">
        <ele>499.6</ele>
        <time>2022-04-15T13:28:08Z</time>
      </trkpt>
      <trkpt lat="45.60575" lon="5.76022">
        <ele>499.8</ele>
        <time>2022-04-15T13:28:09Z</time>
      </trkpt>
      <trkpt lat="45.60578" lon="5.76021">
        <ele>499.9</ele>
        <time>2022-04-15T13:28:11Z</time>
      </trkpt>
      <trkpt lat="45.6058" lon="5.76019">
        <ele>500</ele>
        <time>2022-04-15T13:28:12Z</time>
      </trkpt>
      <trkpt lat="45.60584" lon="5.76018">
        <ele>500.2</ele>
        <time>2022-04-15T13:28:13Z</time>
      </trkpt>
      <trkpt lat="45.60587" lon="5.76016">
        <ele>500.3</ele>
        <time>2022-04-15T13:28:14Z</time>
      </trkpt>
      <trkpt lat="45.60592" lon="5.76014">
        <ele>500.5</ele>
        <time>2022-04-15T13:28:16Z</time>
      </trkpt>
      <trkpt lat="45.60594" lon="5.76013">
        <ele>500.6</ele>
        <time>2022-04-15T13:28:17Z</time>
      </trkpt>
      <trkpt lat="45.60595" lon="5.76012">
        <ele>500.7</ele>
        <time>2022-04-15T13:28:18Z</time>
      </trkpt>
      <trkpt lat="45.60599" lon="5.7601">
        <ele>500.8</ele>
        <time>2022-04-15T13:28:19Z</time>
      </trkpt>
      <trkpt lat="45.60604" lon="5.76008">
        <ele>501</ele>
        <time>2022-04-15T13:28:21Z</time>
      </trkpt>
      <trkpt lat="45.60607" lon="5.76006">
        <ele>501.1</ele>
        <time>2022-04-15T13:28:22Z</time>
      </trkpt>
      <trkpt lat="45.60611" lon="5.76004">
        <ele>501.3</ele>
        <time>2022-04-15T13:28:23Z</time>
      </trkpt>
      <trkpt lat="45.60614" lon="5.76003">
        <ele>501.4</ele>
        <time>2022-04-15T13:28:24Z</time>
      </trkpt>
      <trkpt lat="45.60618" lon="5.76001">
        <ele>501.5</ele>
        <time>2022-04-15T13:28:26Z</time>
      </trkpt>
      <trkpt lat="45.60621" lon="5.76">
        <ele>501.6</ele>
        <time>2022-04-15T13:28:27Z</time>
      </trkpt>
      <trkpt lat="45.60624" lon="5.75998">
        <ele>501.8</ele>
        <time>2022-04-15T13:28:28Z</time>
      </trkpt>
      <trkpt lat="45.6063" lon="5.75995">
        <ele>502</ele>
        <time>2022-04-15T13:28:30Z</time>
      </trkpt>
      <trkpt lat="45.60634" lon="5.75993">
        <ele>502.1</ele>
        <time>2022-04-15T13:28:31Z</time>
      </trkpt>
      <trkpt lat="45.60635" lon="5.75993">
        <ele>502.1</ele>
        <time>2022-04-15T13:28:32Z</time>
      </trkpt>
      <trkpt lat="45.60638" lon="5.75991">
        <ele>502.3</ele>
        <time>2022-04-15T13:28:33Z</time>
      </trkpt>
      <trkpt lat="45.60641" lon="5.75988">
        <ele>502.3</ele>
        <time>2022-04-15T13:28:34Z</time>
      </trkpt>
      <trkpt lat="45.60644" lon="5.75987">
        <ele>502.5</ele>
        <time>2022-04-15T13:28:35Z</time>
      </trkpt>
      <trkpt lat="45.60647" lon="5.75985">
        <ele>502.6</ele>
        <time>2022-04-15T13:28:36Z</time>
      </trkpt>
      <trkpt lat="45.60652" lon="5.75983">
        <ele>502.7</ele>
        <time>2022-04-15T13:28:37Z</time>
      </trkpt>
      <trkpt lat="45.60656" lon="5.75981">
        <ele>502.9</ele>
        <time>2022-04-15T13:28:39Z</time>
      </trkpt>
      <trkpt lat="45.60661" lon="5.75978">
        <ele>503</ele>
        <time>2022-04-15T13:28:41Z</time>
      </trkpt>
      <trkpt lat="45.60666" lon="5.75974">
        <ele>503.2</ele>
        <time>2022-04-15T13:28:43Z</time>
      </trkpt>
      <trkpt lat="45.60669" lon="5.75972">
        <ele>503.3</ele>
        <time>2022-04-15T13:28:44Z</time>
      </trkpt>
      <trkpt lat="45.60675" lon="5.75969">
        <ele>503.4</ele>
        <time>2022-04-15T13:28:46Z</time>
      </trkpt>
      <trkpt lat="45.60678" lon="5.75968">
        <ele>503.5</ele>
        <time>2022-04-15T13:28:47Z</time>
      </trkpt>
      <trkpt lat="45.60681" lon="5.75967">
        <ele>503.6</ele>
        <time>2022-04-15T13:28:48Z</time>
      </trkpt>
      <trkpt lat="45.60684" lon="5.75965">
        <ele>503.7</ele>
        <time>2022-04-15T13:28:49Z</time>
      </trkpt>
      <trkpt lat="45.6069" lon="5.75963">
        <ele>503.8</ele>
        <time>2022-04-15T13:28:50Z</time>
      </trkpt>
      <trkpt lat="45.60694" lon="5.75962">
        <ele>503.9</ele>
        <time>2022-04-15T13:28:52Z</time>
      </trkpt>
      <trkpt lat="45.60702" lon="5.75961">
        <ele>504</ele>
        <time>2022-04-15T13:28:54Z</time>
      </trkpt>
      <trkpt lat="45.60705" lon="5.75961">
        <ele>504.1</ele>
        <time>2022-04-15T13:28:55Z</time>
      </trkpt>
      <trkpt lat="45.60712" lon="5.7596">
        <ele>504.2</ele>
        <time>2022-04-15T13:28:57Z</time>
      </trkpt>
      <trkpt lat="45.60715" lon="5.75961">
        <ele>504.3</ele>
        <time>2022-04-15T13:28:58Z</time>
      </trkpt>
      <trkpt lat="45.60721" lon="5.75963">
        <ele>504.4</ele>
        <time>2022-04-15T13:28:59Z</time>
      </trkpt>
      <trkpt lat="45.60725" lon="5.75964">
        <ele>504.4</ele>
        <time>2022-04-15T13:29:01Z</time>
      </trkpt>
      <trkpt lat="45.6073" lon="5.75966">
        <ele>504.5</ele>
        <time>2022-04-15T13:29:02Z</time>
      </trkpt>
      <trkpt lat="45.60739" lon="5.75969">
        <ele>504.6</ele>
        <time>2022-04-15T13:29:04Z</time>
      </trkpt>
      <trkpt lat="45.60743" lon="5.7597">
        <ele>504.6</ele>
        <time>2022-04-15T13:29:06Z</time>
      </trkpt>
      <trkpt lat="45.60747" lon="5.75972">
        <ele>504.7</ele>
        <time>2022-04-15T13:29:07Z</time>
      </trkpt>
      <trkpt lat="45.60751" lon="5.75973">
        <ele>504.7</ele>
        <time>2022-04-15T13:29:08Z</time>
      </trkpt>
      <trkpt lat="45.60759" lon="5.75976">
        <ele>504.7</ele>
        <time>2022-04-15T13:29:10Z</time>
      </trkpt>
      <trkpt lat="45.60764" lon="5.7598">
        <ele>504.8</ele>
        <time>2022-04-15T13:29:11Z</time>
      </trkpt>
      <trkpt lat="45.6077" lon="5.75983">
        <ele>504.8</ele>
        <time>2022-04-15T13:29:13Z</time>
      </trkpt>
      <trkpt lat="45.60773" lon="5.75985">
        <ele>504.8</ele>
        <time>2022-04-15T13:29:14Z</time>
      </trkpt>
      <trkpt lat="45.60777" lon="5.75988">
        <ele>504.9</ele>
        <time>2022-04-15T13:29:15Z</time>
      </trkpt>
      <trkpt lat="45.60783" lon="5.75991">
        <ele>505</ele>
        <time>2022-04-15T13:29:16Z</time>
      </trkpt>
      <trkpt lat="45.60789" lon="5.75994">
        <ele>505</ele>
        <time>2022-04-15T13:29:18Z</time>
      </trkpt>
      <trkpt lat="45.60793" lon="5.75996">
        <ele>505.1</ele>
        <time>2022-04-15T13:29:19Z</time>
      </trkpt>
      <trkpt lat="45.60796" lon="5.75998">
        <ele>505.1</ele>
        <time>2022-04-15T13:29:20Z</time>
      </trkpt>
      <trkpt lat="45.608" lon="5.76">
        <ele>505.2</ele>
        <time>2022-04-15T13:29:21Z</time>
      </trkpt>
      <trkpt lat="45.60804" lon="5.76002">
        <ele>505.2</ele>
        <time>2022-04-15T13:29:22Z</time>
      </trkpt>
      <trkpt lat="45.60807" lon="5.76004">
        <ele>505.2</ele>
        <time>2022-04-15T13:29:23Z</time>
      </trkpt>
      <trkpt lat="45.60813" lon="5.76007">
        <ele>505.3</ele>
        <time>2022-04-15T13:29:25Z</time>
      </trkpt>
      <trkpt lat="45.60817" lon="5.76009">
        <ele>505.3</ele>
        <time>2022-04-15T13:29:26Z</time>
      </trkpt>
      <trkpt lat="45.60821" lon="5.76011">
        <ele>505.3</ele>
        <time>2022-04-15T13:29:27Z</time>
      </trkpt>
      <trkpt lat="45.60827" lon="5.76015">
        <ele>505.4</ele>
        <time>2022-04-15T13:29:29Z</time>
      </trkpt>
      <trkpt lat="45.60831" lon="5.76017">
        <ele>505.4</ele>
        <time>2022-04-15T13:29:30Z</time>
      </trkpt>
      <trkpt lat="45.60838" lon="5.7602">
        <ele>505.5</ele>
        <time>2022-04-15T13:29:32Z</time>
      </trkpt>
      <trkpt lat="45.60842" lon="5.76021">
        <ele>505.6</ele>
        <time>2022-04-15T13:29:33Z</time>
      </trkpt>
      <trkpt lat="45.60847" lon="5.76022">
        <ele>505.6</ele>
        <time>2022-04-15T13:29:34Z</time>
      </trkpt>
      <trkpt lat="45.60853" lon="5.76023">
        <ele>505.7</ele>
        <time>2022-04-15T13:29:36Z</time>
      </trkpt>
      <trkpt lat="45.60859" lon="5.76025">
        <ele>505.8</ele>
        <time>2022-04-15T13:29:37Z</time>
      </trkpt>
      <trkpt lat="45.60864" lon="5.76026">
        <ele>505.9</ele>
        <time>2022-04-15T13:29:39Z</time>
      </trkpt>
      <trkpt lat="45.60868" lon="5.76026">
        <ele>505.9</ele>
        <time>2022-04-15T13:29:40Z</time>
      </trkpt>
      <trkpt lat="45.60875" lon="5.76026">
        <ele>506</ele>
        <time>2022-04-15T13:29:42Z</time>
      </trkpt>
      <trkpt lat="45.60883" lon="5.76027">
        <ele>506.1</ele>
        <time>2022-04-15T13:29:44Z</time>
      </trkpt>
      <trkpt lat="45.60891" lon="5.76028">
        <ele>506.2</ele>
        <time>2022-04-15T13:29:46Z</time>
      </trkpt>
      <trkpt lat="45.60899" lon="5.76029">
        <ele>506.3</ele>
        <time>2022-04-15T13:29:48Z</time>
      </trkpt>
      <trkpt lat="45.60903" lon="5.76029">
        <ele>506.3</ele>
        <time>2022-04-15T13:29:49Z</time>
      </trkpt>
      <trkpt lat="45.60911" lon="5.76029">
        <ele>506.4</ele>
        <time>2022-04-15T13:29:50Z</time>
      </trkpt>
      <trkpt lat="45.60916" lon="5.76028">
        <ele>506.4</ele>
        <time>2022-04-15T13:29:52Z</time>
      </trkpt>
      <trkpt lat="45.60925" lon="5.76027">
        <ele>506.5</ele>
        <time>2022-04-15T13:29:54Z</time>
      </trkpt>
      <trkpt lat="45.60929" lon="5.76027">
        <ele>506.5</ele>
        <time>2022-04-15T13:29:55Z</time>
      </trkpt>
      <trkpt lat="45.60933" lon="5.76026">
        <ele>506.5</ele>
        <time>2022-04-15T13:29:56Z</time>
      </trkpt>
      <trkpt lat="45.60938" lon="5.76026">
        <ele>506.6</ele>
        <time>2022-04-15T13:29:57Z</time>
      </trkpt>
      <trkpt lat="45.60943" lon="5.76025">
        <ele>506.6</ele>
        <time>2022-04-15T13:29:58Z</time>
      </trkpt>
      <trkpt lat="45.60948" lon="5.76023">
        <ele>506.7</ele>
        <time>2022-04-15T13:29:59Z</time>
      </trkpt>
      <trkpt lat="45.60953" lon="5.76021">
        <ele>506.7</ele>
        <time>2022-04-15T13:30:00Z</time>
      </trkpt>
      <trkpt lat="45.60959" lon="5.76018">
        <ele>506.8</ele>
        <time>2022-04-15T13:30:01Z</time>
      </trkpt>
      <trkpt lat="45.60963" lon="5.76017">
        <ele>506.9</ele>
        <time>2022-04-15T13:30:03Z</time>
      </trkpt>
      <trkpt lat="45.60967" lon="5.76016">
        <ele>507</ele>
        <time>2022-04-15T13:30:04Z</time>
      </trkpt>
      <trkpt lat="45.60972" lon="5.76012">
        <ele>507.1</ele>
        <time>2022-04-15T13:30:05Z</time>
      </trkpt>
      <trkpt lat="45.60979" lon="5.7601">
        <ele>507.3</ele>
        <time>2022-04-15T13:30:07Z</time>
      </trkpt>
      <trkpt lat="45.60983" lon="5.76007">
        <ele>507.3</ele>
        <time>2022-04-15T13:30:08Z</time>
      </trkpt>
      <trkpt lat="45.6099" lon="5.76005">
        <ele>507.5</ele>
        <time>2022-04-15T13:30:10Z</time>
      </trkpt>
      <trkpt lat="45.60994" lon="5.76003">
        <ele>507.6</ele>
        <time>2022-04-15T13:30:11Z</time>
      </trkpt>
      <trkpt lat="45.61001" lon="5.75999">
        <ele>507.7</ele>
        <time>2022-04-15T13:30:13Z</time>
      </trkpt>
      <trkpt lat="45.61007" lon="5.75996">
        <ele>507.8</ele>
        <time>2022-04-15T13:30:15Z</time>
      </trkpt>
      <trkpt lat="45.61011" lon="5.75995">
        <ele>507.9</ele>
        <time>2022-04-15T13:30:16Z</time>
      </trkpt>
      <trkpt lat="45.61016" lon="5.75992">
        <ele>508</ele>
        <time>2022-04-15T13:30:17Z</time>
      </trkpt>
      <trkpt lat="45.61019" lon="5.7599">
        <ele>508</ele>
        <time>2022-04-15T13:30:19Z</time>
      </trkpt>
      <trkpt lat="45.61022" lon="5.7599">
        <ele>508</ele>
        <time>2022-04-15T13:30:20Z</time>
      </trkpt>
      <trkpt lat="45.61023" lon="5.7599">
        <ele>508.1</ele>
        <time>2022-04-15T13:30:21Z</time>
      </trkpt>
      <trkpt lat="45.61022" lon="5.7599">
        <ele>508.1</ele>
        <time>2022-04-15T13:30:22Z</time>
      </trkpt>
      <trkpt lat="45.6102" lon="5.75991">
        <ele>508.1</ele>
        <time>2022-04-15T13:30:23Z</time>
      </trkpt>
      <trkpt lat="45.6102" lon="5.7599">
        <ele>508.1</ele>
        <time>2022-04-15T13:30:24Z</time>
      </trkpt>
      <trkpt lat="45.61019" lon="5.7599">
        <ele>508.1</ele>
        <time>2022-04-15T13:30:25Z</time>
      </trkpt>
      <trkpt lat="45.61019" lon="5.7599">
        <ele>508.1</ele>
        <time>2022-04-15T13:30:26Z</time>
      </trkpt>
      <trkpt lat="45.61019" lon="5.7599">
        <ele>508.1</ele>
        <time>2022-04-15T13:30:27Z</time>
      </trkpt>
      <trkpt lat="45.61019" lon="5.7599">
        <ele>508.1</ele>
        <time>2022-04-15T13:30:28Z</time>
      </trkpt>
      <trkpt lat="45.61019" lon="5.7599">
        <ele>508.1</ele>
        <time>2022-04-15T13:30:30Z</time>
      </trkpt>
      <trkpt lat="45.61019" lon="5.7599">
        <ele>508.1</ele>
        <time>2022-04-15T13:30:31Z</time>
      </trkpt>
      <trkpt lat="45.61019" lon="5.7599">
        <ele>508.1</ele>
        <time>2022-04-15T13:30:32Z</time>
      </trkpt>
      <trkpt lat="45.61019" lon="5.75991">
        <ele>508.1</ele>
        <time>2022-04-15T13:30:33Z</time>
      </trkpt>
      <trkpt lat="45.61019" lon="5.75991">
        <ele>508.1</ele>
        <time>2022-04-15T13:30:34Z</time>
      </trkpt>
      <trkpt lat="45.61019" lon="5.75991">
        <ele>508.1</ele>
        <time>2022-04-15T13:30:35Z</time>
      </trkpt>
      <trkpt lat="45.61019" lon="5.75991">
        <ele>508.1</ele>
        <time>2022-04-15T13:30:36Z</time>
      </trkpt>
      <trkpt lat="45.61018" lon="5.75991">
        <ele>508.1</ele>
        <time>2022-04-15T13:30:37Z</time>
      </trkpt>
      <trkpt lat="45.61018" lon="5.75991">
        <ele>508.1</ele>
        <time>2022-04-15T13:30:38Z</time>
      </trkpt>
      <trkpt lat="45.61018" lon="5.75991">
        <ele>508.1</ele>
        <time>2022-04-15T13:30:39Z</time>
      </trkpt>
      <trkpt lat="45.61018" lon="5.75991">
        <ele>508.1</ele>
        <time>2022-04-15T13:30:40Z</time>
      </trkpt>
      <trkpt lat="45.61018" lon="5.75991">
        <ele>508.1</ele>
        <time>2022-04-15T13:30:41Z</time>
      </trkpt>
      <trkpt lat="45.61018" lon="5.75991">
        <ele>508.1</ele>
        <time>2022-04-15T13:30:42Z</time>
      </trkpt>
      <trkpt lat="45.61018" lon="5.75991">
        <ele>508.1</ele>
        <time>2022-04-15T13:30:43Z</time>
      </trkpt>
      <trkpt lat="45.61019" lon="5.75992">
        <ele>508.1</ele>
        <time>2022-04-15T13:30:44Z</time>
      </trkpt>
      <trkpt lat="45.61019" lon="5.75992">
        <ele>508.1</ele>
        <time>2022-04-15T13:30:45Z</time>
      </trkpt>
      <trkpt lat="45.61019" lon="5.75992">
        <ele>508.2</ele>
        <time>2022-04-15T13:30:46Z</time>
      </trkpt>
      <trkpt lat="45.61019" lon="5.75992">
        <ele>508.2</ele>
        <time>2022-04-15T13:30:47Z</time>
      </trkpt>
      <trkpt lat="45.61019" lon="5.75991">
        <ele>508.2</ele>
        <time>2022-04-15T13:30:48Z</time>
      </trkpt>
      <trkpt lat="45.61019" lon="5.75991">
        <ele>508.2</ele>
        <time>2022-04-15T13:30:49Z</time>
      </trkpt>
      <trkpt lat="45.61019" lon="5.75991">
        <ele>508.2</ele>
        <time>2022-04-15T13:30:50Z</time>
      </trkpt>
      <trkpt lat="45.61019" lon="5.75991">
        <ele>508.2</ele>
        <time>2022-04-15T13:30:51Z</time>
      </trkpt>
      <trkpt lat="45.61019" lon="5.75991">
        <ele>508.2</ele>
        <time>2022-04-15T13:30:52Z</time>
      </trkpt>
      <trkpt lat="45.61019" lon="5.75991">
        <ele>508.2</ele>
        <time>2022-04-15T13:30:53Z</time>
      </trkpt>
      <trkpt lat="45.61019" lon="5.75991">
        <ele>508.2</ele>
        <time>2022-04-15T13:30:54Z</time>
      </trkpt>
      <trkpt lat="45.61019" lon="5.75991">
        <ele>508.2</ele>
        <time>2022-04-15T13:30:55Z</time>
      </trkpt>
      <trkpt lat="45.61019" lon="5.75991">
        <ele>508.2</ele>
        <time>2022-04-15T13:30:56Z</time>
      </trkpt>
      <trkpt lat="45.61019" lon="5.75991">
        <ele>508.2</ele>
        <time>2022-04-15T13:30:57Z</time>
      </trkpt>
      <trkpt lat="45.61019" lon="5.75991">
        <ele>508.2</ele>
        <time>2022-04-15T13:30:58Z</time>
      </trkpt>
      <trkpt lat="45.61019" lon="5.75991">
        <ele>508.2</ele>
        <time>2022-04-15T13:30:59Z</time>
      </trkpt>
      <trkpt lat="45.61019" lon="5.75991">
        <ele>508.2</ele>
        <time>2022-04-15T13:31:00Z</time>
      </trkpt>
      <trkpt lat="45.61019" lon="5.75991">
        <ele>508.2</ele>
        <time>2022-04-15T13:31:01Z</time>
      </trkpt>
      <trkpt lat="45.61019" lon="5.75991">
        <ele>508.2</ele>
        <time>2022-04-15T13:31:02Z</time>
      </trkpt>
      <trkpt lat="45.61019" lon="5.75991">
        <ele>508.2</ele>
        <time>2022-04-15T13:31:03Z</time>
      </trkpt>
      <trkpt lat="45.61019" lon="5.75991">
        <ele>508.2</ele>
        <time>2022-04-15T13:31:04Z</time>
      </trkpt>
      <trkpt lat="45.61019" lon="5.75991">
        <ele>508.2</ele>
        <time>2022-04-15T13:31:05Z</time>
      </trkpt>
      <trkpt lat="45.61019" lon="5.75991">
        <ele>508.2</ele>
        <time>2022-04-15T13:31:06Z</time>
      </trkpt>
      <trkpt lat="45.61019" lon="5.75991">
        <ele>508.2</ele>
        <time>2022-04-15T13:31:07Z</time>
      </trkpt>
      <trkpt lat="45.61019" lon="5.75991">
        <ele>508.2</ele>
        <time>2022-04-15T13:31:08Z</time>
      </trkpt>
      <trkpt lat="45.61019" lon="5.75991">
        <ele>508.2</ele>
        <time>2022-04-15T13:31:09Z</time>
      </trkpt>
      <trkpt lat="45.61019" lon="5.75991">
        <ele>508.2</ele>
        <time>2022-04-15T13:31:10Z</time>
      </trkpt>
      <trkpt lat="45.61019" lon="5.75991">
        <ele>508.2</ele>
        <time>2022-04-15T13:31:11Z</time>
      </trkpt>
      <trkpt lat="45.61019" lon="5.75991">
        <ele>508.2</ele>
        <time>2022-04-15T13:31:12Z</time>
      </trkpt>
      <trkpt lat="45.61019" lon="5.75991">
        <ele>508.2</ele>
        <time>2022-04-15T13:31:13Z</time>
      </trkpt>
      <trkpt lat="45.61019" lon="5.75991">
        <ele>508.2</ele>
        <time>2022-04-15T13:31:14Z</time>
      </trkpt>
      <trkpt lat="45.61019" lon="5.75991">
        <ele>508.2</ele>
        <time>2022-04-15T13:31:15Z</time>
      </trkpt>
      <trkpt lat="45.61019" lon="5.75991">
        <ele>508.2</ele>
        <time>2022-04-15T13:31:16Z</time>
      </trkpt>
      <trkpt lat="45.61019" lon="5.75991">
        <ele>508.2</ele>
        <time>2022-04-15T13:31:17Z</time>
      </trkpt>
      <trkpt lat="45.61019" lon="5.75991">
        <ele>508.2</ele>
        <time>2022-04-15T13:31:18Z</time>
      </trkpt>
      <trkpt lat="45.61019" lon="5.75991">
        <ele>508.2</ele>
        <time>2022-04-15T13:31:19Z</time>
      </trkpt>
      <trkpt lat="45.61019" lon="5.75991">
        <ele>508.2</ele>
        <time>2022-04-15T13:31:20Z</time>
      </trkpt>
      <trkpt lat="45.61019" lon="5.75991">
        <ele>508.2</ele>
        <time>2022-04-15T13:31:21Z</time>
      </trkpt>
      <trkpt lat="45.61019" lon="5.75991">
        <ele>508.2</ele>
        <time>2022-04-15T13:31:22Z</time>
      </trkpt>
      <trkpt lat="45.61019" lon="5.75991">
        <ele>508.2</ele>
        <time>2022-04-15T13:31:23Z</time>
      </trkpt>
      <trkpt lat="45.61019" lon="5.75991">
        <ele>508.2</ele>
        <time>2022-04-15T13:31:24Z</time>
      </trkpt>
      <trkpt lat="45.61019" lon="5.75991">
        <ele>508.2</ele>
        <time>2022-04-15T13:31:25Z</time>
      </trkpt>
      <trkpt lat="45.61019" lon="5.75991">
        <ele>508.2</ele>
        <time>2022-04-15T13:31:26Z</time>
      </trkpt>
      <trkpt lat="45.61019" lon="5.75991">
        <ele>508.2</ele>
        <time>2022-04-15T13:31:27Z</time>
      </trkpt>
      <trkpt lat="45.61019" lon="5.75991">
        <ele>508.2</ele>
        <time>2022-04-15T13:31:28Z</time>
      </trkpt>
      <trkpt lat="45.61019" lon="5.75991">
        <ele>508.2</ele>
        <time>2022-04-15T13:31:29Z</time>
      </trkpt>
      <trkpt lat="45.61019" lon="5.75991">
        <ele>508.2</ele>
        <time>2022-04-15T13:31:30Z</time>
      </trkpt>
      <trkpt lat="45.61019" lon="5.75991">
        <ele>508.2</ele>
        <time>2022-04-15T13:31:31Z</time>
      </trkpt>
      <trkpt lat="45.61019" lon="5.75991">
        <ele>508.2</ele>
        <time>2022-04-15T13:31:32Z</time>
      </trkpt>
      <trkpt lat="45.61019" lon="5.75991">
        <ele>508.2</ele>
        <time>2022-04-15T13:31:33Z</time>
      </trkpt>
      <trkpt lat="45.61019" lon="5.75991">
        <ele>508.2</ele>
        <time>2022-04-15T13:31:34Z</time>
      </trkpt>
      <trkpt lat="45.61019" lon="5.75991">
        <ele>508.2</ele>
        <time>2022-04-15T13:31:35Z</time>
      </trkpt>
      <trkpt lat="45.61019" lon="5.75991">
        <ele>508.2</ele>
        <time>2022-04-15T13:31:36Z</time>
      </trkpt>
      <trkpt lat="45.61019" lon="5.75991">
        <ele>508.2</ele>
        <time>2022-04-15T13:31:37Z</time>
      </trkpt>
      <trkpt lat="45.61019" lon="5.7599">
        <ele>508.2</ele>
        <time>2022-04-15T13:31:38Z</time>
      </trkpt>
      <trkpt lat="45.6102" lon="5.75989">
        <ele>508.2</ele>
        <time>2022-04-15T13:31:39Z</time>
      </trkpt>
      <trkpt lat="45.61021" lon="5.75987">
        <ele>508.2</ele>
        <time>2022-04-15T13:31:40Z</time>
      </trkpt>
      <trkpt lat="45.61024" lon="5.75985">
        <ele>508.3</ele>
        <time>2022-04-15T13:31:41Z</time>
      </trkpt>
      <trkpt lat="45.61025" lon="5.75985">
        <ele>508.3</ele>
        <time>2022-04-15T13:31:42Z</time>
      </trkpt>
      <trkpt lat="45.61028" lon="5.75983">
        <ele>508.3</ele>
        <time>2022-04-15T13:31:43Z</time>
      </trkpt>
      <trkpt lat="45.61029" lon="5.75983">
        <ele>508.3</ele>
        <time>2022-04-15T13:31:44Z</time>
      </trkpt>
      <trkpt lat="45.61033" lon="5.7598">
        <ele>508.3</ele>
        <time>2022-04-15T13:31:45Z</time>
      </trkpt>
      <trkpt lat="45.61034" lon="5.75979">
        <ele>508.4</ele>
        <time>2022-04-15T13:31:46Z</time>
      </trkpt>
      <trkpt lat="45.61038" lon="5.75977">
        <ele>508.4</ele>
        <time>2022-04-15T13:31:47Z</time>
      </trkpt>
      <trkpt lat="45.61041" lon="5.75975">
        <ele>508.4</ele>
        <time>2022-04-15T13:31:48Z</time>
      </trkpt>
      <trkpt lat="45.61045" lon="5.75973">
        <ele>508.4</ele>
        <time>2022-04-15T13:31:49Z</time>
      </trkpt>
      <trkpt lat="45.61048" lon="5.75971">
        <ele>508.4</ele>
        <time>2022-04-15T13:31:50Z</time>
      </trkpt>
      <trkpt lat="45.61052" lon="5.75969">
        <ele>508.5</ele>
        <time>2022-04-15T13:31:51Z</time>
      </trkpt>
      <trkpt lat="45.61055" lon="5.75967">
        <ele>508.5</ele>
        <time>2022-04-15T13:31:52Z</time>
      </trkpt>
      <trkpt lat="45.61058" lon="5.75965">
        <ele>508.5</ele>
        <time>2022-04-15T13:31:53Z</time>
      </trkpt>
      <trkpt lat="45.61062" lon="5.75963">
        <ele>508.6</ele>
        <time>2022-04-15T13:31:54Z</time>
      </trkpt>
      <trkpt lat="45.61066" lon="5.75961">
        <ele>508.6</ele>
        <time>2022-04-15T13:31:55Z</time>
      </trkpt>
      <trkpt lat="45.61069" lon="5.7596">
        <ele>508.6</ele>
        <time>2022-04-15T13:31:56Z</time>
      </trkpt>
      <trkpt lat="45.61072" lon="5.75958">
        <ele>508.7</ele>
        <time>2022-04-15T13:31:57Z</time>
      </trkpt>
      <trkpt lat="45.61075" lon="5.75956">
        <ele>508.7</ele>
        <time>2022-04-15T13:31:58Z</time>
      </trkpt>
      <trkpt lat="45.61079" lon="5.75955">
        <ele>508.8</ele>
        <time>2022-04-15T13:31:59Z</time>
      </trkpt>
      <trkpt lat="45.61083" lon="5.75954">
        <ele>508.8</ele>
        <time>2022-04-15T13:32:00Z</time>
      </trkpt>
      <trkpt lat="45.61087" lon="5.75953">
        <ele>508.9</ele>
        <time>2022-04-15T13:32:01Z</time>
      </trkpt>
      <trkpt lat="45.61091" lon="5.75952">
        <ele>508.9</ele>
        <time>2022-04-15T13:32:02Z</time>
      </trkpt>
      <trkpt lat="45.61095" lon="5.75951">
        <ele>509</ele>
        <time>2022-04-15T13:32:03Z</time>
      </trkpt>
      <trkpt lat="45.61099" lon="5.75951">
        <ele>509</ele>
        <time>2022-04-15T13:32:04Z</time>
      </trkpt>
      <trkpt lat="45.61103" lon="5.7595">
        <ele>509</ele>
        <time>2022-04-15T13:32:05Z</time>
      </trkpt>
      <trkpt lat="45.61106" lon="5.7595">
        <ele>509.1</ele>
        <time>2022-04-15T13:32:06Z</time>
      </trkpt>
      <trkpt lat="45.6111" lon="5.75949">
        <ele>509.1</ele>
        <time>2022-04-15T13:32:07Z</time>
      </trkpt>
      <trkpt lat="45.61114" lon="5.75949">
        <ele>509.2</ele>
        <time>2022-04-15T13:32:08Z</time>
      </trkpt>
      <trkpt lat="45.61118" lon="5.75949">
        <ele>509.2</ele>
        <time>2022-04-15T13:32:09Z</time>
      </trkpt>
      <trkpt lat="45.61124" lon="5.75949">
        <ele>509.2</ele>
        <time>2022-04-15T13:32:10Z</time>
      </trkpt>
      <trkpt lat="45.61127" lon="5.7595">
        <ele>509.3</ele>
        <time>2022-04-15T13:32:11Z</time>
      </trkpt>
      <trkpt lat="45.61131" lon="5.7595">
        <ele>509.3</ele>
        <time>2022-04-15T13:32:12Z</time>
      </trkpt>
      <trkpt lat="45.61139" lon="5.75951">
        <ele>509.3</ele>
        <time>2022-04-15T13:32:13Z</time>
      </trkpt>
      <trkpt lat="45.61144" lon="5.75952">
        <ele>509.3</ele>
        <time>2022-04-15T13:32:15Z</time>
      </trkpt>
      <trkpt lat="45.61153" lon="5.75953">
        <ele>509.3</ele>
        <time>2022-04-15T13:32:17Z</time>
      </trkpt>
      <trkpt lat="45.61163" lon="5.75955">
        <ele>509.3</ele>
        <time>2022-04-15T13:32:19Z</time>
      </trkpt>
      <trkpt lat="45.61168" lon="5.75957">
        <ele>509.3</ele>
        <time>2022-04-15T13:32:20Z</time>
      </trkpt>
      <trkpt lat="45.61172" lon="5.75959">
        <ele>509.2</ele>
        <time>2022-04-15T13:32:21Z</time>
      </trkpt>
      <trkpt lat="45.61177" lon="5.7596">
        <ele>509.2</ele>
        <time>2022-04-15T13:32:22Z</time>
      </trkpt>
      <trkpt lat="45.61182" lon="5.75962">
        <ele>509.1</ele>
        <time>2022-04-15T13:32:23Z</time>
      </trkpt>
      <trkpt lat="45.61187" lon="5.75963">
        <ele>509.1</ele>
        <time>2022-04-15T13:32:24Z</time>
      </trkpt>
      <trkpt lat="45.61192" lon="5.75965">
        <ele>509</ele>
        <time>2022-04-15T13:32:25Z</time>
      </trkpt>
      <trkpt lat="45.61197" lon="5.75968">
        <ele>508.9</ele>
        <time>2022-04-15T13:32:26Z</time>
      </trkpt>
      <trkpt lat="45.61202" lon="5.75969">
        <ele>508.9</ele>
        <time>2022-04-15T13:32:27Z</time>
      </trkpt>
      <trkpt lat="45.61207" lon="5.75972">
        <ele>508.9</ele>
        <time>2022-04-15T13:32:28Z</time>
      </trkpt>
      <trkpt lat="45.61212" lon="5.75974">
        <ele>508.9</ele>
        <time>2022-04-15T13:32:29Z</time>
      </trkpt>
      <trkpt lat="45.61217" lon="5.75978">
        <ele>508.9</ele>
        <time>2022-04-15T13:32:30Z</time>
      </trkpt>
      <trkpt lat="45.61222" lon="5.75981">
        <ele>508.8</ele>
        <time>2022-04-15T13:32:31Z</time>
      </trkpt>
      <trkpt lat="45.61227" lon="5.75985">
        <ele>508.8</ele>
        <time>2022-04-15T13:32:32Z</time>
      </trkpt>
      <trkpt lat="45.61232" lon="5.75989">
        <ele>508.8</ele>
        <time>2022-04-15T13:32:33Z</time>
      </trkpt>
      <trkpt lat="45.61237" lon="5.75993">
        <ele>508.8</ele>
        <time>2022-04-15T13:32:34Z</time>
      </trkpt>
      <trkpt lat="45.61242" lon="5.75997">
        <ele>508.8</ele>
        <time>2022-04-15T13:32:35Z</time>
      </trkpt>
      <trkpt lat="45.61247" lon="5.76002">
        <ele>508.8</ele>
        <time>2022-04-15T13:32:36Z</time>
      </trkpt>
      <trkpt lat="45.61251" lon="5.76008">
        <ele>508.8</ele>
        <time>2022-04-15T13:32:37Z</time>
      </trkpt>
      <trkpt lat="45.61256" lon="5.76012">
        <ele>508.8</ele>
        <time>2022-04-15T13:32:38Z</time>
      </trkpt>
      <trkpt lat="45.6126" lon="5.76017">
        <ele>508.8</ele>
        <time>2022-04-15T13:32:39Z</time>
      </trkpt>
      <trkpt lat="45.61264" lon="5.76022">
        <ele>508.8</ele>
        <time>2022-04-15T13:32:40Z</time>
      </trkpt>
      <trkpt lat="45.61268" lon="5.76029">
        <ele>508.7</ele>
        <time>2022-04-15T13:32:41Z</time>
      </trkpt>
      <trkpt lat="45.61273" lon="5.76034">
        <ele>508.6</ele>
        <time>2022-04-15T13:32:42Z</time>
      </trkpt>
      <trkpt lat="45.61278" lon="5.7604">
        <ele>508.5</ele>
        <time>2022-04-15T13:32:43Z</time>
      </trkpt>
      <trkpt lat="45.61282" lon="5.76045">
        <ele>508.4</ele>
        <time>2022-04-15T13:32:44Z</time>
      </trkpt>
      <trkpt lat="45.61286" lon="5.76051">
        <ele>508.3</ele>
        <time>2022-04-15T13:32:45Z</time>
      </trkpt>
      <trkpt lat="45.61289" lon="5.76056">
        <ele>508.2</ele>
        <time>2022-04-15T13:32:46Z</time>
      </trkpt>
      <trkpt lat="45.61293" lon="5.76061">
        <ele>508.1</ele>
        <time>2022-04-15T13:32:47Z</time>
      </trkpt>
      <trkpt lat="45.61298" lon="5.76067">
        <ele>508</ele>
        <time>2022-04-15T13:32:48Z</time>
      </trkpt>
      <trkpt lat="45.61302" lon="5.76073">
        <ele>507.9</ele>
        <time>2022-04-15T13:32:49Z</time>
      </trkpt>
      <trkpt lat="45.61307" lon="5.76078">
        <ele>507.8</ele>
        <time>2022-04-15T13:32:50Z</time>
      </trkpt>
      <trkpt lat="45.61312" lon="5.76084">
        <ele>507.7</ele>
        <time>2022-04-15T13:32:51Z</time>
      </trkpt>
      <trkpt lat="45.61316" lon="5.7609">
        <ele>507.6</ele>
        <time>2022-04-15T13:32:52Z</time>
      </trkpt>
      <trkpt lat="45.61321" lon="5.76095">
        <ele>507.5</ele>
        <time>2022-04-15T13:32:53Z</time>
      </trkpt>
      <trkpt lat="45.61325" lon="5.76101">
        <ele>507.5</ele>
        <time>2022-04-15T13:32:54Z</time>
      </trkpt>
      <trkpt lat="45.6133" lon="5.76108">
        <ele>507.4</ele>
        <time>2022-04-15T13:32:55Z</time>
      </trkpt>
      <trkpt lat="45.61334" lon="5.76113">
        <ele>507.4</ele>
        <time>2022-04-15T13:32:56Z</time>
      </trkpt>
      <trkpt lat="45.61339" lon="5.7612">
        <ele>507.3</ele>
        <time>2022-04-15T13:32:57Z</time>
      </trkpt>
      <trkpt lat="45.61344" lon="5.76125">
        <ele>507.3</ele>
        <time>2022-04-15T13:32:58Z</time>
      </trkpt>
      <trkpt lat="45.61349" lon="5.76131">
        <ele>507.3</ele>
        <time>2022-04-15T13:32:59Z</time>
      </trkpt>
      <trkpt lat="45.61354" lon="5.76137">
        <ele>507.2</ele>
        <time>2022-04-15T13:33:00Z</time>
      </trkpt>
      <trkpt lat="45.61358" lon="5.76143">
        <ele>507.2</ele>
        <time>2022-04-15T13:33:01Z</time>
      </trkpt>
      <trkpt lat="45.61363" lon="5.76149">
        <ele>507.1</ele>
        <time>2022-04-15T13:33:02Z</time>
      </trkpt>
      <trkpt lat="45.61368" lon="5.76155">
        <ele>507.1</ele>
        <time>2022-04-15T13:33:03Z</time>
      </trkpt>
      <trkpt lat="45.61372" lon="5.76161">
        <ele>507</ele>
        <time>2022-04-15T13:33:04Z</time>
      </trkpt>
      <trkpt lat="45.61376" lon="5.76166">
        <ele>507</ele>
        <time>2022-04-15T13:33:05Z</time>
      </trkpt>
      <trkpt lat="45.61381" lon="5.76172">
        <ele>507</ele>
        <time>2022-04-15T13:33:06Z</time>
      </trkpt>
      <trkpt lat="45.61386" lon="5.76178">
        <ele>507</ele>
        <time>2022-04-15T13:33:07Z</time>
      </trkpt>
      <trkpt lat="45.6139" lon="5.76184">
        <ele>506.9</ele>
        <time>2022-04-15T13:33:08Z</time>
      </trkpt>
      <trkpt lat="45.61395" lon="5.7619">
        <ele>506.9</ele>
        <time>2022-04-15T13:33:09Z</time>
      </trkpt>
      <trkpt lat="45.614" lon="5.76196">
        <ele>506.9</ele>
        <time>2022-04-15T13:33:10Z</time>
      </trkpt>
      <trkpt lat="45.61404" lon="5.76201">
        <ele>506.9</ele>
        <time>2022-04-15T13:33:11Z</time>
      </trkpt>
      <trkpt lat="45.61409" lon="5.76206">
        <ele>506.9</ele>
        <time>2022-04-15T13:33:12Z</time>
      </trkpt>
      <trkpt lat="45.61413" lon="5.76212">
        <ele>506.9</ele>
        <time>2022-04-15T13:33:13Z</time>
      </trkpt>
      <trkpt lat="45.61418" lon="5.76218">
        <ele>506.9</ele>
        <time>2022-04-15T13:33:14Z</time>
      </trkpt>
      <trkpt lat="45.61422" lon="5.76224">
        <ele>506.9</ele>
        <time>2022-04-15T13:33:15Z</time>
      </trkpt>
      <trkpt lat="45.61427" lon="5.76229">
        <ele>506.9</ele>
        <time>2022-04-15T13:33:16Z</time>
      </trkpt>
      <trkpt lat="45.61431" lon="5.76235">
        <ele>506.9</ele>
        <time>2022-04-15T13:33:17Z</time>
      </trkpt>
      <trkpt lat="45.61435" lon="5.7624">
        <ele>506.9</ele>
        <time>2022-04-15T13:33:18Z</time>
      </trkpt>
      <trkpt lat="45.61439" lon="5.76246">
        <ele>506.9</ele>
        <time>2022-04-15T13:33:19Z</time>
      </trkpt>
      <trkpt lat="45.61444" lon="5.76252">
        <ele>507</ele>
        <time>2022-04-15T13:33:20Z</time>
      </trkpt>
      <trkpt lat="45.61448" lon="5.76258">
        <ele>507</ele>
        <time>2022-04-15T13:33:21Z</time>
      </trkpt>
      <trkpt lat="45.61452" lon="5.76263">
        <ele>507.1</ele>
        <time>2022-04-15T13:33:22Z</time>
      </trkpt>
      <trkpt lat="45.61457" lon="5.76268">
        <ele>507.1</ele>
        <time>2022-04-15T13:33:23Z</time>
      </trkpt>
      <trkpt lat="45.61461" lon="5.76272">
        <ele>507.2</ele>
        <time>2022-04-15T13:33:24Z</time>
      </trkpt>
      <trkpt lat="45.61464" lon="5.76276">
        <ele>507.2</ele>
        <time>2022-04-15T13:33:25Z</time>
      </trkpt>
      <trkpt lat="45.61468" lon="5.76281">
        <ele>507.2</ele>
        <time>2022-04-15T13:33:26Z</time>
      </trkpt>
      <trkpt lat="45.61472" lon="5.76286">
        <ele>507.3</ele>
        <time>2022-04-15T13:33:27Z</time>
      </trkpt>
      <trkpt lat="45.61476" lon="5.76292">
        <ele>507.3</ele>
        <time>2022-04-15T13:33:28Z</time>
      </trkpt>
      <trkpt lat="45.61481" lon="5.76297">
        <ele>507.3</ele>
        <time>2022-04-15T13:33:29Z</time>
      </trkpt>
      <trkpt lat="45.61485" lon="5.76303">
        <ele>507.4</ele>
        <time>2022-04-15T13:33:30Z</time>
      </trkpt>
      <trkpt lat="45.61489" lon="5.76309">
        <ele>507.4</ele>
        <time>2022-04-15T13:33:31Z</time>
      </trkpt>
      <trkpt lat="45.61494" lon="5.76315">
        <ele>507.4</ele>
        <time>2022-04-15T13:33:32Z</time>
      </trkpt>
      <trkpt lat="45.61499" lon="5.76321">
        <ele>507.5</ele>
        <time>2022-04-15T13:33:33Z</time>
      </trkpt>
      <trkpt lat="45.61503" lon="5.76327">
        <ele>507.5</ele>
        <time>2022-04-15T13:33:34Z</time>
      </trkpt>
      <trkpt lat="45.61508" lon="5.76332">
        <ele>507.5</ele>
        <time>2022-04-15T13:33:35Z</time>
      </trkpt>
      <trkpt lat="45.61512" lon="5.76338">
        <ele>507.5</ele>
        <time>2022-04-15T13:33:36Z</time>
      </trkpt>
      <trkpt lat="45.61515" lon="5.76345">
        <ele>507.6</ele>
        <time>2022-04-15T13:33:37Z</time>
      </trkpt>
      <trkpt lat="45.61519" lon="5.76351">
        <ele>507.6</ele>
        <time>2022-04-15T13:33:38Z</time>
      </trkpt>
      <trkpt lat="45.61524" lon="5.76357">
        <ele>507.6</ele>
        <time>2022-04-15T13:33:39Z</time>
      </trkpt>
      <trkpt lat="45.61527" lon="5.76364">
        <ele>507.7</ele>
        <time>2022-04-15T13:33:40Z</time>
      </trkpt>
      <trkpt lat="45.6153" lon="5.7637">
        <ele>507.7</ele>
        <time>2022-04-15T13:33:41Z</time>
      </trkpt>
      <trkpt lat="45.61533" lon="5.76377">
        <ele>507.7</ele>
        <time>2022-04-15T13:33:42Z</time>
      </trkpt>
      <trkpt lat="45.61536" lon="5.76385">
        <ele>507.8</ele>
        <time>2022-04-15T13:33:43Z</time>
      </trkpt>
      <trkpt lat="45.6154" lon="5.76392">
        <ele>507.9</ele>
        <time>2022-04-15T13:33:44Z</time>
      </trkpt>
      <trkpt lat="45.61542" lon="5.76399">
        <ele>507.9</ele>
        <time>2022-04-15T13:33:45Z</time>
      </trkpt>
      <trkpt lat="45.61545" lon="5.76406">
        <ele>508</ele>
        <time>2022-04-15T13:33:46Z</time>
      </trkpt>
      <trkpt lat="45.61548" lon="5.76414">
        <ele>508.1</ele>
        <time>2022-04-15T13:33:47Z</time>
      </trkpt>
      <trkpt lat="45.6155" lon="5.76421">
        <ele>508.2</ele>
        <time>2022-04-15T13:33:48Z</time>
      </trkpt>
      <trkpt lat="45.61552" lon="5.76429">
        <ele>508.2</ele>
        <time>2022-04-15T13:33:49Z</time>
      </trkpt>
      <trkpt lat="45.61554" lon="5.76437">
        <ele>508.3</ele>
        <time>2022-04-15T13:33:50Z</time>
      </trkpt>
      <trkpt lat="45.61555" lon="5.76445">
        <ele>508.4</ele>
        <time>2022-04-15T13:33:51Z</time>
      </trkpt>
      <trkpt lat="45.61556" lon="5.76452">
        <ele>508.5</ele>
        <time>2022-04-15T13:33:52Z</time>
      </trkpt>
      <trkpt lat="45.61558" lon="5.7646">
        <ele>508.6</ele>
        <time>2022-04-15T13:33:53Z</time>
      </trkpt>
      <trkpt lat="45.6156" lon="5.76467">
        <ele>508.6</ele>
        <time>2022-04-15T13:33:54Z</time>
      </trkpt>
      <trkpt lat="45.61562" lon="5.76475">
        <ele>508.6</ele>
        <time>2022-04-15T13:33:55Z</time>
      </trkpt>
      <trkpt lat="45.61565" lon="5.76482">
        <ele>508.7</ele>
        <time>2022-04-15T13:33:56Z</time>
      </trkpt>
      <trkpt lat="45.61567" lon="5.76489">
        <ele>508.7</ele>
        <time>2022-04-15T13:33:57Z</time>
      </trkpt>
      <trkpt lat="45.6157" lon="5.76495">
        <ele>508.7</ele>
        <time>2022-04-15T13:33:58Z</time>
      </trkpt>
      <trkpt lat="45.61573" lon="5.76502">
        <ele>508.7</ele>
        <time>2022-04-15T13:33:59Z</time>
      </trkpt>
      <trkpt lat="45.61576" lon="5.76508">
        <ele>508.7</ele>
        <time>2022-04-15T13:34:00Z</time>
      </trkpt>
      <trkpt lat="45.61578" lon="5.76515">
        <ele>508.7</ele>
        <time>2022-04-15T13:34:01Z</time>
      </trkpt>
      <trkpt lat="45.61582" lon="5.7652">
        <ele>508.8</ele>
        <time>2022-04-15T13:34:02Z</time>
      </trkpt>
      <trkpt lat="45.61585" lon="5.76525">
        <ele>508.8</ele>
        <time>2022-04-15T13:34:03Z</time>
      </trkpt>
      <trkpt lat="45.61589" lon="5.7653">
        <ele>508.9</ele>
        <time>2022-04-15T13:34:04Z</time>
      </trkpt>
      <trkpt lat="45.61593" lon="5.76535">
        <ele>508.9</ele>
        <time>2022-04-15T13:34:05Z</time>
      </trkpt>
      <trkpt lat="45.61596" lon="5.76539">
        <ele>508.9</ele>
        <time>2022-04-15T13:34:06Z</time>
      </trkpt>
      <trkpt lat="45.616" lon="5.76544">
        <ele>509</ele>
        <time>2022-04-15T13:34:07Z</time>
      </trkpt>
      <trkpt lat="45.61604" lon="5.76548">
        <ele>509</ele>
        <time>2022-04-15T13:34:08Z</time>
      </trkpt>
      <trkpt lat="45.61608" lon="5.76553">
        <ele>509</ele>
        <time>2022-04-15T13:34:09Z</time>
      </trkpt>
      <trkpt lat="45.61611" lon="5.76558">
        <ele>509.1</ele>
        <time>2022-04-15T13:34:10Z</time>
      </trkpt>
      <trkpt lat="45.61615" lon="5.76562">
        <ele>509.1</ele>
        <time>2022-04-15T13:34:11Z</time>
      </trkpt>
      <trkpt lat="45.61618" lon="5.76568">
        <ele>509.1</ele>
        <time>2022-04-15T13:34:12Z</time>
      </trkpt>
      <trkpt lat="45.61621" lon="5.76573">
        <ele>509.1</ele>
        <time>2022-04-15T13:34:13Z</time>
      </trkpt>
      <trkpt lat="45.61624" lon="5.76579">
        <ele>509.1</ele>
        <time>2022-04-15T13:34:14Z</time>
      </trkpt>
      <trkpt lat="45.61627" lon="5.76585">
        <ele>509.1</ele>
        <time>2022-04-15T13:34:15Z</time>
      </trkpt>
      <trkpt lat="45.6163" lon="5.76591">
        <ele>509</ele>
        <time>2022-04-15T13:34:16Z</time>
      </trkpt>
      <trkpt lat="45.61632" lon="5.76598">
        <ele>509</ele>
        <time>2022-04-15T13:34:17Z</time>
      </trkpt>
      <trkpt lat="45.61635" lon="5.76605">
        <ele>508.9</ele>
        <time>2022-04-15T13:34:18Z</time>
      </trkpt>
      <trkpt lat="45.61637" lon="5.76613">
        <ele>508.8</ele>
        <time>2022-04-15T13:34:19Z</time>
      </trkpt>
      <trkpt lat="45.61638" lon="5.76622">
        <ele>508.6</ele>
        <time>2022-04-15T13:34:20Z</time>
      </trkpt>
      <trkpt lat="45.61639" lon="5.76629">
        <ele>508.4</ele>
        <time>2022-04-15T13:34:21Z</time>
      </trkpt>
      <trkpt lat="45.61639" lon="5.76638">
        <ele>508.1</ele>
        <time>2022-04-15T13:34:22Z</time>
      </trkpt>
      <trkpt lat="45.6164" lon="5.76647">
        <ele>507.7</ele>
        <time>2022-04-15T13:34:23Z</time>
      </trkpt>
      <trkpt lat="45.61643" lon="5.76656">
        <ele>507.4</ele>
        <time>2022-04-15T13:34:24Z</time>
      </trkpt>
      <trkpt lat="45.61646" lon="5.76665">
        <ele>507</ele>
        <time>2022-04-15T13:34:25Z</time>
      </trkpt>
      <trkpt lat="45.61651" lon="5.76672">
        <ele>506.6</ele>
        <time>2022-04-15T13:34:26Z</time>
      </trkpt>
      <trkpt lat="45.61656" lon="5.76679">
        <ele>506.2</ele>
        <time>2022-04-15T13:34:27Z</time>
      </trkpt>
      <trkpt lat="45.61663" lon="5.76683">
        <ele>505.8</ele>
        <time>2022-04-15T13:34:28Z</time>
      </trkpt>
      <trkpt lat="45.6167" lon="5.76687">
        <ele>505.4</ele>
        <time>2022-04-15T13:34:29Z</time>
      </trkpt>
      <trkpt lat="45.61678" lon="5.76691">
        <ele>504.8</ele>
        <time>2022-04-15T13:34:30Z</time>
      </trkpt>
      <trkpt lat="45.61685" lon="5.76696">
        <ele>504.3</ele>
        <time>2022-04-15T13:34:31Z</time>
      </trkpt>
      <trkpt lat="45.61693" lon="5.76701">
        <ele>503.7</ele>
        <time>2022-04-15T13:34:32Z</time>
      </trkpt>
      <trkpt lat="45.61702" lon="5.76704">
        <ele>503.1</ele>
        <time>2022-04-15T13:34:33Z</time>
      </trkpt>
      <trkpt lat="45.61711" lon="5.76703">
        <ele>502.5</ele>
        <time>2022-04-15T13:34:34Z</time>
      </trkpt>
      <trkpt lat="45.6172" lon="5.76697">
        <ele>501.8</ele>
        <time>2022-04-15T13:34:35Z</time>
      </trkpt>
      <trkpt lat="45.61727" lon="5.76689">
        <ele>501.2</ele>
        <time>2022-04-15T13:34:36Z</time>
      </trkpt>
      <trkpt lat="45.61732" lon="5.76677">
        <ele>500.6</ele>
        <time>2022-04-15T13:34:37Z</time>
      </trkpt>
      <trkpt lat="45.61736" lon="5.76664">
        <ele>500</ele>
        <time>2022-04-15T13:34:38Z</time>
      </trkpt>
      <trkpt lat="45.61739" lon="5.76652">
        <ele>499.5</ele>
        <time>2022-04-15T13:34:39Z</time>
      </trkpt>
      <trkpt lat="45.61744" lon="5.7664">
        <ele>498.9</ele>
        <time>2022-04-15T13:34:40Z</time>
      </trkpt>
      <trkpt lat="45.61749" lon="5.76628">
        <ele>498.3</ele>
        <time>2022-04-15T13:34:41Z</time>
      </trkpt>
      <trkpt lat="45.61757" lon="5.76619">
        <ele>497.7</ele>
        <time>2022-04-15T13:34:42Z</time>
      </trkpt>
      <trkpt lat="45.61765" lon="5.76611">
        <ele>497.1</ele>
        <time>2022-04-15T13:34:43Z</time>
      </trkpt>
      <trkpt lat="45.61775" lon="5.76605">
        <ele>496.6</ele>
        <time>2022-04-15T13:34:44Z</time>
      </trkpt>
      <trkpt lat="45.61785" lon="5.76602">
        <ele>496</ele>
        <time>2022-04-15T13:34:45Z</time>
      </trkpt>
      <trkpt lat="45.61795" lon="5.76602">
        <ele>495.5</ele>
        <time>2022-04-15T13:34:46Z</time>
      </trkpt>
      <trkpt lat="45.61805" lon="5.76605">
        <ele>494.9</ele>
        <time>2022-04-15T13:34:47Z</time>
      </trkpt>
      <trkpt lat="45.61815" lon="5.7661">
        <ele>494.3</ele>
        <time>2022-04-15T13:34:48Z</time>
      </trkpt>
      <trkpt lat="45.61824" lon="5.76618">
        <ele>493.8</ele>
        <time>2022-04-15T13:34:49Z</time>
      </trkpt>
      <trkpt lat="45.61831" lon="5.76627">
        <ele>493.3</ele>
        <time>2022-04-15T13:34:50Z</time>
      </trkpt>
      <trkpt lat="45.61837" lon="5.76638">
        <ele>492.8</ele>
        <time>2022-04-15T13:34:51Z</time>
      </trkpt>
      <trkpt lat="45.61842" lon="5.76651">
        <ele>492.4</ele>
        <time>2022-04-15T13:34:52Z</time>
      </trkpt>
      <trkpt lat="45.61845" lon="5.76664">
        <ele>492</ele>
        <time>2022-04-15T13:34:53Z</time>
      </trkpt>
      <trkpt lat="45.61849" lon="5.76678">
        <ele>491.5</ele>
        <time>2022-04-15T13:34:54Z</time>
      </trkpt>
      <trkpt lat="45.61852" lon="5.76691">
        <ele>491.1</ele>
        <time>2022-04-15T13:34:55Z</time>
      </trkpt>
      <trkpt lat="45.61855" lon="5.76705">
        <ele>490.5</ele>
        <time>2022-04-15T13:34:56Z</time>
      </trkpt>
      <trkpt lat="45.61858" lon="5.76719">
        <ele>490</ele>
        <time>2022-04-15T13:34:57Z</time>
      </trkpt>
      <trkpt lat="45.61861" lon="5.76732">
        <ele>489.4</ele>
        <time>2022-04-15T13:34:58Z</time>
      </trkpt>
      <trkpt lat="45.61864" lon="5.76746">
        <ele>489</ele>
        <time>2022-04-15T13:34:59Z</time>
      </trkpt>
      <trkpt lat="45.61868" lon="5.76759">
        <ele>488.7</ele>
        <time>2022-04-15T13:35:00Z</time>
      </trkpt>
      <trkpt lat="45.61873" lon="5.76771">
        <ele>488.5</ele>
        <time>2022-04-15T13:35:01Z</time>
      </trkpt>
      <trkpt lat="45.6188" lon="5.76781">
        <ele>488.4</ele>
        <time>2022-04-15T13:35:02Z</time>
      </trkpt>
      <trkpt lat="45.61887" lon="5.76789">
        <ele>488.4</ele>
        <time>2022-04-15T13:35:03Z</time>
      </trkpt>
      <trkpt lat="45.61895" lon="5.76793">
        <ele>488.4</ele>
        <time>2022-04-15T13:35:04Z</time>
      </trkpt>
      <trkpt lat="45.61904" lon="5.76796">
        <ele>488.5</ele>
        <time>2022-04-15T13:35:05Z</time>
      </trkpt>
      <trkpt lat="45.61911" lon="5.76796">
        <ele>488.6</ele>
        <time>2022-04-15T13:35:06Z</time>
      </trkpt>
      <trkpt lat="45.61918" lon="5.76795">
        <ele>488.7</ele>
        <time>2022-04-15T13:35:07Z</time>
      </trkpt>
      <trkpt lat="45.61925" lon="5.76792">
        <ele>488.8</ele>
        <time>2022-04-15T13:35:08Z</time>
      </trkpt>
      <trkpt lat="45.61933" lon="5.76789">
        <ele>488.9</ele>
        <time>2022-04-15T13:35:09Z</time>
      </trkpt>
      <trkpt lat="45.6194" lon="5.76785">
        <ele>489</ele>
        <time>2022-04-15T13:35:10Z</time>
      </trkpt>
      <trkpt lat="45.61948" lon="5.76783">
        <ele>489.1</ele>
        <time>2022-04-15T13:35:11Z</time>
      </trkpt>
      <trkpt lat="45.61956" lon="5.76781">
        <ele>489.1</ele>
        <time>2022-04-15T13:35:12Z</time>
      </trkpt>
      <trkpt lat="45.61963" lon="5.7678">
        <ele>489.2</ele>
        <time>2022-04-15T13:35:13Z</time>
      </trkpt>
      <trkpt lat="45.6197" lon="5.7678">
        <ele>489.2</ele>
        <time>2022-04-15T13:35:14Z</time>
      </trkpt>
      <trkpt lat="45.61977" lon="5.76779">
        <ele>489.2</ele>
        <time>2022-04-15T13:35:15Z</time>
      </trkpt>
      <trkpt lat="45.61983" lon="5.7678">
        <ele>489.2</ele>
        <time>2022-04-15T13:35:16Z</time>
      </trkpt>
      <trkpt lat="45.61989" lon="5.76782">
        <ele>489.2</ele>
        <time>2022-04-15T13:35:17Z</time>
      </trkpt>
      <trkpt lat="45.61994" lon="5.76783">
        <ele>489.2</ele>
        <time>2022-04-15T13:35:18Z</time>
      </trkpt>
      <trkpt lat="45.62" lon="5.76785">
        <ele>489.2</ele>
        <time>2022-04-15T13:35:19Z</time>
      </trkpt>
      <trkpt lat="45.62006" lon="5.76786">
        <ele>489.2</ele>
        <time>2022-04-15T13:35:20Z</time>
      </trkpt>
      <trkpt lat="45.62013" lon="5.76787">
        <ele>489.1</ele>
        <time>2022-04-15T13:35:21Z</time>
      </trkpt>
      <trkpt lat="45.62019" lon="5.76788">
        <ele>489.1</ele>
        <time>2022-04-15T13:35:22Z</time>
      </trkpt>
      <trkpt lat="45.62025" lon="5.76789">
        <ele>489</ele>
        <time>2022-04-15T13:35:23Z</time>
      </trkpt>
      <trkpt lat="45.62032" lon="5.7679">
        <ele>489</ele>
        <time>2022-04-15T13:35:24Z</time>
      </trkpt>
      <trkpt lat="45.62038" lon="5.7679">
        <ele>488.9</ele>
        <time>2022-04-15T13:35:25Z</time>
      </trkpt>
      <trkpt lat="45.62044" lon="5.76791">
        <ele>488.9</ele>
        <time>2022-04-15T13:35:26Z</time>
      </trkpt>
      <trkpt lat="45.62051" lon="5.76792">
        <ele>488.8</ele>
        <time>2022-04-15T13:35:27Z</time>
      </trkpt>
      <trkpt lat="45.62057" lon="5.76794">
        <ele>488.7</ele>
        <time>2022-04-15T13:35:28Z</time>
      </trkpt>
      <trkpt lat="45.62063" lon="5.76795">
        <ele>488.7</ele>
        <time>2022-04-15T13:35:29Z</time>
      </trkpt>
      <trkpt lat="45.62069" lon="5.76795">
        <ele>488.7</ele>
        <time>2022-04-15T13:35:30Z</time>
      </trkpt>
      <trkpt lat="45.62074" lon="5.76795">
        <ele>488.6</ele>
        <time>2022-04-15T13:35:31Z</time>
      </trkpt>
      <trkpt lat="45.6208" lon="5.76795">
        <ele>488.6</ele>
        <time>2022-04-15T13:35:32Z</time>
      </trkpt>
      <trkpt lat="45.62085" lon="5.76795">
        <ele>488.6</ele>
        <time>2022-04-15T13:35:33Z</time>
      </trkpt>
      <trkpt lat="45.62091" lon="5.76795">
        <ele>488.5</ele>
        <time>2022-04-15T13:35:34Z</time>
      </trkpt>
      <trkpt lat="45.62097" lon="5.76795">
        <ele>488.5</ele>
        <time>2022-04-15T13:35:35Z</time>
      </trkpt>
      <trkpt lat="45.62103" lon="5.76794">
        <ele>488.6</ele>
        <time>2022-04-15T13:35:36Z</time>
      </trkpt>
      <trkpt lat="45.62109" lon="5.76792">
        <ele>488.6</ele>
        <time>2022-04-15T13:35:37Z</time>
      </trkpt>
      <trkpt lat="45.62114" lon="5.7679">
        <ele>488.6</ele>
        <time>2022-04-15T13:35:38Z</time>
      </trkpt>
      <trkpt lat="45.6212" lon="5.76787">
        <ele>488.7</ele>
        <time>2022-04-15T13:35:39Z</time>
      </trkpt>
      <trkpt lat="45.62126" lon="5.76784">
        <ele>488.7</ele>
        <time>2022-04-15T13:35:40Z</time>
      </trkpt>
      <trkpt lat="45.62131" lon="5.76781">
        <ele>488.8</ele>
        <time>2022-04-15T13:35:41Z</time>
      </trkpt>
      <trkpt lat="45.62136" lon="5.76778">
        <ele>488.8</ele>
        <time>2022-04-15T13:35:42Z</time>
      </trkpt>
      <trkpt lat="45.62141" lon="5.76775">
        <ele>488.8</ele>
        <time>2022-04-15T13:35:43Z</time>
      </trkpt>
      <trkpt lat="45.62146" lon="5.76771">
        <ele>488.8</ele>
        <time>2022-04-15T13:35:44Z</time>
      </trkpt>
      <trkpt lat="45.62151" lon="5.76767">
        <ele>488.8</ele>
        <time>2022-04-15T13:35:45Z</time>
      </trkpt>
      <trkpt lat="45.62156" lon="5.76763">
        <ele>488.8</ele>
        <time>2022-04-15T13:35:46Z</time>
      </trkpt>
      <trkpt lat="45.62161" lon="5.76759">
        <ele>488.8</ele>
        <time>2022-04-15T13:35:47Z</time>
      </trkpt>
      <trkpt lat="45.62167" lon="5.76755">
        <ele>488.8</ele>
        <time>2022-04-15T13:35:48Z</time>
      </trkpt>
      <trkpt lat="45.62172" lon="5.76751">
        <ele>488.7</ele>
        <time>2022-04-15T13:35:49Z</time>
      </trkpt>
      <trkpt lat="45.62177" lon="5.76746">
        <ele>488.7</ele>
        <time>2022-04-15T13:35:50Z</time>
      </trkpt>
      <trkpt lat="45.62182" lon="5.76743">
        <ele>488.7</ele>
        <time>2022-04-15T13:35:51Z</time>
      </trkpt>
      <trkpt lat="45.62188" lon="5.76738">
        <ele>488.7</ele>
        <time>2022-04-15T13:35:52Z</time>
      </trkpt>
      <trkpt lat="45.62193" lon="5.76734">
        <ele>488.7</ele>
        <time>2022-04-15T13:35:53Z</time>
      </trkpt>
      <trkpt lat="45.62199" lon="5.76729">
        <ele>488.6</ele>
        <time>2022-04-15T13:35:54Z</time>
      </trkpt>
      <trkpt lat="45.62204" lon="5.76725">
        <ele>488.6</ele>
        <time>2022-04-15T13:35:55Z</time>
      </trkpt>
      <trkpt lat="45.6221" lon="5.76721">
        <ele>488.6</ele>
        <time>2022-04-15T13:35:56Z</time>
      </trkpt>
      <trkpt lat="45.62216" lon="5.76718">
        <ele>488.5</ele>
        <time>2022-04-15T13:35:57Z</time>
      </trkpt>
      <trkpt lat="45.62221" lon="5.76715">
        <ele>488.5</ele>
        <time>2022-04-15T13:35:58Z</time>
      </trkpt>
      <trkpt lat="45.62227" lon="5.76713">
        <ele>488.4</ele>
        <time>2022-04-15T13:35:59Z</time>
      </trkpt>
      <trkpt lat="45.62234" lon="5.76711">
        <ele>488.4</ele>
        <time>2022-04-15T13:36:00Z</time>
      </trkpt>
      <trkpt lat="45.6224" lon="5.76709">
        <ele>488.4</ele>
        <time>2022-04-15T13:36:01Z</time>
      </trkpt>
      <trkpt lat="45.62247" lon="5.76707">
        <ele>488.3</ele>
        <time>2022-04-15T13:36:02Z</time>
      </trkpt>
      <trkpt lat="45.62253" lon="5.76706">
        <ele>488.3</ele>
        <time>2022-04-15T13:36:03Z</time>
      </trkpt>
      <trkpt lat="45.62259" lon="5.76705">
        <ele>488.3</ele>
        <time>2022-04-15T13:36:04Z</time>
      </trkpt>
      <trkpt lat="45.62265" lon="5.76705">
        <ele>488.3</ele>
        <time>2022-04-15T13:36:05Z</time>
      </trkpt>
      <trkpt lat="45.62271" lon="5.76705">
        <ele>488.3</ele>
        <time>2022-04-15T13:36:06Z</time>
      </trkpt>
      <trkpt lat="45.62277" lon="5.76705">
        <ele>488.2</ele>
        <time>2022-04-15T13:36:07Z</time>
      </trkpt>
      <trkpt lat="45.62283" lon="5.76705">
        <ele>488.2</ele>
        <time>2022-04-15T13:36:08Z</time>
      </trkpt>
      <trkpt lat="45.62289" lon="5.76705">
        <ele>488.2</ele>
        <time>2022-04-15T13:36:09Z</time>
      </trkpt>
      <trkpt lat="45.62295" lon="5.76705">
        <ele>488.2</ele>
        <time>2022-04-15T13:36:10Z</time>
      </trkpt>
      <trkpt lat="45.62301" lon="5.76705">
        <ele>488.2</ele>
        <time>2022-04-15T13:36:11Z</time>
      </trkpt>
      <trkpt lat="45.62307" lon="5.76705">
        <ele>488.1</ele>
        <time>2022-04-15T13:36:12Z</time>
      </trkpt>
      <trkpt lat="45.62313" lon="5.76705">
        <ele>488.1</ele>
        <time>2022-04-15T13:36:13Z</time>
      </trkpt>
      <trkpt lat="45.62319" lon="5.76706">
        <ele>488.1</ele>
        <time>2022-04-15T13:36:14Z</time>
      </trkpt>
      <trkpt lat="45.62325" lon="5.76707">
        <ele>488.1</ele>
        <time>2022-04-15T13:36:15Z</time>
      </trkpt>
      <trkpt lat="45.6233" lon="5.76708">
        <ele>488.1</ele>
        <time>2022-04-15T13:36:16Z</time>
      </trkpt>
      <trkpt lat="45.62335" lon="5.7671">
        <ele>488.1</ele>
        <time>2022-04-15T13:36:17Z</time>
      </trkpt>
      <trkpt lat="45.62341" lon="5.76712">
        <ele>488.1</ele>
        <time>2022-04-15T13:36:18Z</time>
      </trkpt>
      <trkpt lat="45.62346" lon="5.76713">
        <ele>488</ele>
        <time>2022-04-15T13:36:19Z</time>
      </trkpt>
      <trkpt lat="45.62352" lon="5.76715">
        <ele>488</ele>
        <time>2022-04-15T13:36:20Z</time>
      </trkpt>
      <trkpt lat="45.62357" lon="5.76718">
        <ele>488</ele>
        <time>2022-04-15T13:36:21Z</time>
      </trkpt>
      <trkpt lat="45.62363" lon="5.7672">
        <ele>488</ele>
        <time>2022-04-15T13:36:22Z</time>
      </trkpt>
      <trkpt lat="45.62369" lon="5.76722">
        <ele>488</ele>
        <time>2022-04-15T13:36:23Z</time>
      </trkpt>
      <trkpt lat="45.62374" lon="5.76724">
        <ele>488</ele>
        <time>2022-04-15T13:36:24Z</time>
      </trkpt>
      <trkpt lat="45.6238" lon="5.76727">
        <ele>488</ele>
        <time>2022-04-15T13:36:25Z</time>
      </trkpt>
      <trkpt lat="45.62385" lon="5.76729">
        <ele>488</ele>
        <time>2022-04-15T13:36:26Z</time>
      </trkpt>
      <trkpt lat="45.6239" lon="5.76731">
        <ele>488.1</ele>
        <time>2022-04-15T13:36:27Z</time>
      </trkpt>
      <trkpt lat="45.62395" lon="5.76734">
        <ele>488.1</ele>
        <time>2022-04-15T13:36:28Z</time>
      </trkpt>
      <trkpt lat="45.62401" lon="5.76737">
        <ele>488</ele>
        <time>2022-04-15T13:36:29Z</time>
      </trkpt>
      <trkpt lat="45.62406" lon="5.76741">
        <ele>488</ele>
        <time>2022-04-15T13:36:30Z</time>
      </trkpt>
      <trkpt lat="45.62411" lon="5.76747">
        <ele>488</ele>
        <time>2022-04-15T13:36:31Z</time>
      </trkpt>
      <trkpt lat="45.62415" lon="5.76752">
        <ele>487.9</ele>
        <time>2022-04-15T13:36:32Z</time>
      </trkpt>
      <trkpt lat="45.6242" lon="5.76758">
        <ele>487.8</ele>
        <time>2022-04-15T13:36:33Z</time>
      </trkpt>
      <trkpt lat="45.62425" lon="5.76763">
        <ele>487.8</ele>
        <time>2022-04-15T13:36:34Z</time>
      </trkpt>
      <trkpt lat="45.6243" lon="5.76769">
        <ele>487.7</ele>
        <time>2022-04-15T13:36:35Z</time>
      </trkpt>
      <trkpt lat="45.62434" lon="5.76774">
        <ele>487.7</ele>
        <time>2022-04-15T13:36:36Z</time>
      </trkpt>
      <trkpt lat="45.62438" lon="5.7678">
        <ele>487.7</ele>
        <time>2022-04-15T13:36:37Z</time>
      </trkpt>
      <trkpt lat="45.62442" lon="5.76785">
        <ele>487.6</ele>
        <time>2022-04-15T13:36:38Z</time>
      </trkpt>
      <trkpt lat="45.62447" lon="5.7679">
        <ele>487.6</ele>
        <time>2022-04-15T13:36:39Z</time>
      </trkpt>
      <trkpt lat="45.62452" lon="5.76794">
        <ele>487.6</ele>
        <time>2022-04-15T13:36:40Z</time>
      </trkpt>
      <trkpt lat="45.62457" lon="5.76799">
        <ele>487.5</ele>
        <time>2022-04-15T13:36:41Z</time>
      </trkpt>
      <trkpt lat="45.62463" lon="5.76803">
        <ele>487.5</ele>
        <time>2022-04-15T13:36:42Z</time>
      </trkpt>
      <trkpt lat="45.62468" lon="5.76806">
        <ele>487.4</ele>
        <time>2022-04-15T13:36:43Z</time>
      </trkpt>
      <trkpt lat="45.62475" lon="5.76808">
        <ele>487.4</ele>
        <time>2022-04-15T13:36:44Z</time>
      </trkpt>
      <trkpt lat="45.62481" lon="5.76809">
        <ele>487.3</ele>
        <time>2022-04-15T13:36:45Z</time>
      </trkpt>
      <trkpt lat="45.62487" lon="5.7681">
        <ele>487.3</ele>
        <time>2022-04-15T13:36:46Z</time>
      </trkpt>
      <trkpt lat="45.62493" lon="5.7681">
        <ele>487.2</ele>
        <time>2022-04-15T13:36:47Z</time>
      </trkpt>
      <trkpt lat="45.62499" lon="5.76809">
        <ele>487.2</ele>
        <time>2022-04-15T13:36:48Z</time>
      </trkpt>
      <trkpt lat="45.62505" lon="5.76806">
        <ele>487.2</ele>
        <time>2022-04-15T13:36:49Z</time>
      </trkpt>
      <trkpt lat="45.62511" lon="5.76803">
        <ele>487.2</ele>
        <time>2022-04-15T13:36:50Z</time>
      </trkpt>
      <trkpt lat="45.62516" lon="5.768">
        <ele>487.2</ele>
        <time>2022-04-15T13:36:51Z</time>
      </trkpt>
      <trkpt lat="45.62522" lon="5.76797">
        <ele>487.2</ele>
        <time>2022-04-15T13:36:52Z</time>
      </trkpt>
      <trkpt lat="45.62527" lon="5.76794">
        <ele>487.2</ele>
        <time>2022-04-15T13:36:53Z</time>
      </trkpt>
      <trkpt lat="45.62531" lon="5.76791">
        <ele>487.2</ele>
        <time>2022-04-15T13:36:54Z</time>
      </trkpt>
      <trkpt lat="45.62536" lon="5.76787">
        <ele>487.2</ele>
        <time>2022-04-15T13:36:55Z</time>
      </trkpt>
      <trkpt lat="45.62541" lon="5.76784">
        <ele>487.2</ele>
        <time>2022-04-15T13:36:56Z</time>
      </trkpt>
      <trkpt lat="45.62546" lon="5.7678">
        <ele>487.2</ele>
        <time>2022-04-15T13:36:57Z</time>
      </trkpt>
      <trkpt lat="45.62551" lon="5.76776">
        <ele>487.2</ele>
        <time>2022-04-15T13:36:58Z</time>
      </trkpt>
      <trkpt lat="45.62556" lon="5.76773">
        <ele>487.2</ele>
        <time>2022-04-15T13:36:59Z</time>
      </trkpt>
      <trkpt lat="45.62561" lon="5.76769">
        <ele>487.2</ele>
        <time>2022-04-15T13:37:00Z</time>
      </trkpt>
      <trkpt lat="45.62566" lon="5.76765">
        <ele>487.2</ele>
        <time>2022-04-15T13:37:01Z</time>
      </trkpt>
      <trkpt lat="45.62571" lon="5.76762">
        <ele>487.2</ele>
        <time>2022-04-15T13:37:02Z</time>
      </trkpt>
      <trkpt lat="45.62576" lon="5.76759">
        <ele>487.2</ele>
        <time>2022-04-15T13:37:03Z</time>
      </trkpt>
      <trkpt lat="45.62581" lon="5.76755">
        <ele>487.1</ele>
        <time>2022-04-15T13:37:04Z</time>
      </trkpt>
      <trkpt lat="45.62586" lon="5.76752">
        <ele>487.1</ele>
        <time>2022-04-15T13:37:05Z</time>
      </trkpt>
      <trkpt lat="45.62591" lon="5.76748">
        <ele>487.1</ele>
        <time>2022-04-15T13:37:06Z</time>
      </trkpt>
      <trkpt lat="45.62596" lon="5.76744">
        <ele>487</ele>
        <time>2022-04-15T13:37:07Z</time>
      </trkpt>
      <trkpt lat="45.62601" lon="5.76741">
        <ele>487</ele>
        <time>2022-04-15T13:37:08Z</time>
      </trkpt>
      <trkpt lat="45.62606" lon="5.76737">
        <ele>486.9</ele>
        <time>2022-04-15T13:37:09Z</time>
      </trkpt>
      <trkpt lat="45.62611" lon="5.76733">
        <ele>486.9</ele>
        <time>2022-04-15T13:37:10Z</time>
      </trkpt>
      <trkpt lat="45.62616" lon="5.76729">
        <ele>486.8</ele>
        <time>2022-04-15T13:37:11Z</time>
      </trkpt>
      <trkpt lat="45.62622" lon="5.76726">
        <ele>486.8</ele>
        <time>2022-04-15T13:37:12Z</time>
      </trkpt>
      <trkpt lat="45.62627" lon="5.76721">
        <ele>486.8</ele>
        <time>2022-04-15T13:37:13Z</time>
      </trkpt>
      <trkpt lat="45.62633" lon="5.76718">
        <ele>486.8</ele>
        <time>2022-04-15T13:37:14Z</time>
      </trkpt>
      <trkpt lat="45.62638" lon="5.76714">
        <ele>486.7</ele>
        <time>2022-04-15T13:37:15Z</time>
      </trkpt>
      <trkpt lat="45.62643" lon="5.76711">
        <ele>486.7</ele>
        <time>2022-04-15T13:37:16Z</time>
      </trkpt>
      <trkpt lat="45.62648" lon="5.76707">
        <ele>486.6</ele>
        <time>2022-04-15T13:37:17Z</time>
      </trkpt>
      <trkpt lat="45.62654" lon="5.76703">
        <ele>486.6</ele>
        <time>2022-04-15T13:37:18Z</time>
      </trkpt>
      <trkpt lat="45.62659" lon="5.767">
        <ele>486.5</ele>
        <time>2022-04-15T13:37:19Z</time>
      </trkpt>
      <trkpt lat="45.62664" lon="5.76695">
        <ele>486.4</ele>
        <time>2022-04-15T13:37:20Z</time>
      </trkpt>
      <trkpt lat="45.6267" lon="5.76691">
        <ele>486.3</ele>
        <time>2022-04-15T13:37:21Z</time>
      </trkpt>
      <trkpt lat="45.62675" lon="5.76687">
        <ele>486.1</ele>
        <time>2022-04-15T13:37:22Z</time>
      </trkpt>
      <trkpt lat="45.62681" lon="5.76683">
        <ele>486</ele>
        <time>2022-04-15T13:37:23Z</time>
      </trkpt>
      <trkpt lat="45.62687" lon="5.76679">
        <ele>485.8</ele>
        <time>2022-04-15T13:37:24Z</time>
      </trkpt>
      <trkpt lat="45.62693" lon="5.76676">
        <ele>485.6</ele>
        <time>2022-04-15T13:37:25Z</time>
      </trkpt>
      <trkpt lat="45.627" lon="5.76672">
        <ele>485.4</ele>
        <time>2022-04-15T13:37:26Z</time>
      </trkpt>
      <trkpt lat="45.62706" lon="5.76669">
        <ele>485.1</ele>
        <time>2022-04-15T13:37:27Z</time>
      </trkpt>
      <trkpt lat="45.62712" lon="5.76664">
        <ele>484.9</ele>
        <time>2022-04-15T13:37:28Z</time>
      </trkpt>
      <trkpt lat="45.62719" lon="5.7666">
        <ele>484.6</ele>
        <time>2022-04-15T13:37:29Z</time>
      </trkpt>
      <trkpt lat="45.62725" lon="5.76656">
        <ele>484.3</ele>
        <time>2022-04-15T13:37:30Z</time>
      </trkpt>
      <trkpt lat="45.62732" lon="5.76652">
        <ele>483.9</ele>
        <time>2022-04-15T13:37:31Z</time>
      </trkpt>
      <trkpt lat="45.62739" lon="5.76648">
        <ele>483.6</ele>
        <time>2022-04-15T13:37:32Z</time>
      </trkpt>
      <trkpt lat="45.62747" lon="5.76643">
        <ele>483.2</ele>
        <time>2022-04-15T13:37:33Z</time>
      </trkpt>
      <trkpt lat="45.62754" lon="5.76639">
        <ele>482.9</ele>
        <time>2022-04-15T13:37:34Z</time>
      </trkpt>
      <trkpt lat="45.62762" lon="5.76634">
        <ele>482.5</ele>
        <time>2022-04-15T13:37:35Z</time>
      </trkpt>
      <trkpt lat="45.62769" lon="5.76629">
        <ele>482.1</ele>
        <time>2022-04-15T13:37:36Z</time>
      </trkpt>
      <trkpt lat="45.62777" lon="5.76624">
        <ele>481.7</ele>
        <time>2022-04-15T13:37:37Z</time>
      </trkpt>
      <trkpt lat="45.62786" lon="5.76619">
        <ele>481.2</ele>
        <time>2022-04-15T13:37:38Z</time>
      </trkpt>
      <trkpt lat="45.62795" lon="5.76614">
        <ele>480.8</ele>
        <time>2022-04-15T13:37:39Z</time>
      </trkpt>
      <trkpt lat="45.62803" lon="5.7661">
        <ele>480.3</ele>
        <time>2022-04-15T13:37:40Z</time>
      </trkpt>
      <trkpt lat="45.62813" lon="5.76609">
        <ele>479.8</ele>
        <time>2022-04-15T13:37:41Z</time>
      </trkpt>
      <trkpt lat="45.62823" lon="5.7661">
        <ele>479.3</ele>
        <time>2022-04-15T13:37:42Z</time>
      </trkpt>
      <trkpt lat="45.62833" lon="5.76613">
        <ele>478.7</ele>
        <time>2022-04-15T13:37:43Z</time>
      </trkpt>
      <trkpt lat="45.62841" lon="5.76618">
        <ele>478.3</ele>
        <time>2022-04-15T13:37:44Z</time>
      </trkpt>
      <trkpt lat="45.6285" lon="5.76625">
        <ele>477.8</ele>
        <time>2022-04-15T13:37:45Z</time>
      </trkpt>
      <trkpt lat="45.62858" lon="5.76632">
        <ele>477.3</ele>
        <time>2022-04-15T13:37:46Z</time>
      </trkpt>
      <trkpt lat="45.62866" lon="5.7664">
        <ele>476.9</ele>
        <time>2022-04-15T13:37:47Z</time>
      </trkpt>
      <trkpt lat="45.62873" lon="5.7665">
        <ele>476.5</ele>
        <time>2022-04-15T13:37:48Z</time>
      </trkpt>
      <trkpt lat="45.62877" lon="5.76663">
        <ele>476</ele>
        <time>2022-04-15T13:37:49Z</time>
      </trkpt>
      <trkpt lat="45.62877" lon="5.76676">
        <ele>475.5</ele>
        <time>2022-04-15T13:37:50Z</time>
      </trkpt>
      <trkpt lat="45.62872" lon="5.76689">
        <ele>475</ele>
        <time>2022-04-15T13:37:51Z</time>
      </trkpt>
      <trkpt lat="45.62866" lon="5.76699">
        <ele>474.4</ele>
        <time>2022-04-15T13:37:52Z</time>
      </trkpt>
      <trkpt lat="45.62858" lon="5.76707">
        <ele>473.9</ele>
        <time>2022-04-15T13:37:53Z</time>
      </trkpt>
      <trkpt lat="45.6285" lon="5.76714">
        <ele>473.3</ele>
        <time>2022-04-15T13:37:54Z</time>
      </trkpt>
      <trkpt lat="45.62842" lon="5.76719">
        <ele>472.7</ele>
        <time>2022-04-15T13:37:55Z</time>
      </trkpt>
      <trkpt lat="45.62833" lon="5.76721">
        <ele>472.2</ele>
        <time>2022-04-15T13:37:56Z</time>
      </trkpt>
      <trkpt lat="45.62823" lon="5.7672">
        <ele>471.6</ele>
        <time>2022-04-15T13:37:57Z</time>
      </trkpt>
      <trkpt lat="45.62815" lon="5.76716">
        <ele>471.1</ele>
        <time>2022-04-15T13:37:58Z</time>
      </trkpt>
      <trkpt lat="45.62807" lon="5.7671">
        <ele>470.5</ele>
        <time>2022-04-15T13:37:59Z</time>
      </trkpt>
      <trkpt lat="45.62798" lon="5.76707">
        <ele>469.9</ele>
        <time>2022-04-15T13:38:00Z</time>
      </trkpt>
      <trkpt lat="45.62789" lon="5.76705">
        <ele>469.4</ele>
        <time>2022-04-15T13:38:01Z</time>
      </trkpt>
      <trkpt lat="45.62781" lon="5.76705">
        <ele>468.8</ele>
        <time>2022-04-15T13:38:02Z</time>
      </trkpt>
      <trkpt lat="45.62771" lon="5.76707">
        <ele>468.2</ele>
        <time>2022-04-15T13:38:03Z</time>
      </trkpt>
      <trkpt lat="45.62763" lon="5.76712">
        <ele>467.6</ele>
        <time>2022-04-15T13:38:04Z</time>
      </trkpt>
      <trkpt lat="45.62755" lon="5.76719">
        <ele>467.1</ele>
        <time>2022-04-15T13:38:05Z</time>
      </trkpt>
      <trkpt lat="45.62747" lon="5.76727">
        <ele>466.5</ele>
        <time>2022-04-15T13:38:06Z</time>
      </trkpt>
      <trkpt lat="45.6274" lon="5.76735">
        <ele>466</ele>
        <time>2022-04-15T13:38:07Z</time>
      </trkpt>
      <trkpt lat="45.62733" lon="5.76744">
        <ele>465.5</ele>
        <time>2022-04-15T13:38:08Z</time>
      </trkpt>
      <trkpt lat="45.62726" lon="5.76753">
        <ele>465</ele>
        <time>2022-04-15T13:38:09Z</time>
      </trkpt>
      <trkpt lat="45.62719" lon="5.76762">
        <ele>464.4</ele>
        <time>2022-04-15T13:38:10Z</time>
      </trkpt>
      <trkpt lat="45.62712" lon="5.76771">
        <ele>463.9</ele>
        <time>2022-04-15T13:38:11Z</time>
      </trkpt>
      <trkpt lat="45.62704" lon="5.7678">
        <ele>463.4</ele>
        <time>2022-04-15T13:38:12Z</time>
      </trkpt>
      <trkpt lat="45.62696" lon="5.76788">
        <ele>462.8</ele>
        <time>2022-04-15T13:38:13Z</time>
      </trkpt>
      <trkpt lat="45.62688" lon="5.76794">
        <ele>462.3</ele>
        <time>2022-04-15T13:38:14Z</time>
      </trkpt>
      <trkpt lat="45.62681" lon="5.768">
        <ele>461.7</ele>
        <time>2022-04-15T13:38:15Z</time>
      </trkpt>
      <trkpt lat="45.62674" lon="5.7681">
        <ele>461.1</ele>
        <time>2022-04-15T13:38:16Z</time>
      </trkpt>
      <trkpt lat="45.62668" lon="5.7682">
        <ele>460.5</ele>
        <time>2022-04-15T13:38:17Z</time>
      </trkpt>
      <trkpt lat="45.62664" lon="5.76832">
        <ele>460</ele>
        <time>2022-04-15T13:38:18Z</time>
      </trkpt>
      <trkpt lat="45.6266" lon="5.76845">
        <ele>459.5</ele>
        <time>2022-04-15T13:38:19Z</time>
      </trkpt>
      <trkpt lat="45.62657" lon="5.76857">
        <ele>459.1</ele>
        <time>2022-04-15T13:38:20Z</time>
      </trkpt>
      <trkpt lat="45.62654" lon="5.7687">
        <ele>458.8</ele>
        <time>2022-04-15T13:38:21Z</time>
      </trkpt>
      <trkpt lat="45.62651" lon="5.76883">
        <ele>458.5</ele>
        <time>2022-04-15T13:38:22Z</time>
      </trkpt>
      <trkpt lat="45.6265" lon="5.76896">
        <ele>458.1</ele>
        <time>2022-04-15T13:38:23Z</time>
      </trkpt>
      <trkpt lat="45.6265" lon="5.7691">
        <ele>457.8</ele>
        <time>2022-04-15T13:38:24Z</time>
      </trkpt>
      <trkpt lat="45.62652" lon="5.76922">
        <ele>457.7</ele>
        <time>2022-04-15T13:38:25Z</time>
      </trkpt>
      <trkpt lat="45.62656" lon="5.76932">
        <ele>457.6</ele>
        <time>2022-04-15T13:38:26Z</time>
      </trkpt>
      <trkpt lat="45.62664" lon="5.76939">
        <ele>457.6</ele>
        <time>2022-04-15T13:38:27Z</time>
      </trkpt>
      <trkpt lat="45.62673" lon="5.7694">
        <ele>457.5</ele>
        <time>2022-04-15T13:38:28Z</time>
      </trkpt>
      <trkpt lat="45.62682" lon="5.76938">
        <ele>457.3</ele>
        <time>2022-04-15T13:38:29Z</time>
      </trkpt>
      <trkpt lat="45.62691" lon="5.76932">
        <ele>456.7</ele>
        <time>2022-04-15T13:38:30Z</time>
      </trkpt>
      <trkpt lat="45.62698" lon="5.76924">
        <ele>456.2</ele>
        <time>2022-04-15T13:38:31Z</time>
      </trkpt>
      <trkpt lat="45.62704" lon="5.76915">
        <ele>455.7</ele>
        <time>2022-04-15T13:38:32Z</time>
      </trkpt>
      <trkpt lat="45.62709" lon="5.76905">
        <ele>455.2</ele>
        <time>2022-04-15T13:38:33Z</time>
      </trkpt>
      <trkpt lat="45.62715" lon="5.76897">
        <ele>454.7</ele>
        <time>2022-04-15T13:38:34Z</time>
      </trkpt>
      <trkpt lat="45.62722" lon="5.76889">
        <ele>454.2</ele>
        <time>2022-04-15T13:38:35Z</time>
      </trkpt>
      <trkpt lat="45.62731" lon="5.76883">
        <ele>453.6</ele>
        <time>2022-04-15T13:38:36Z</time>
      </trkpt>
      <trkpt lat="45.6274" lon="5.76881">
        <ele>453</ele>
        <time>2022-04-15T13:38:37Z</time>
      </trkpt>
      <trkpt lat="45.62749" lon="5.76879">
        <ele>452.4</ele>
        <time>2022-04-15T13:38:38Z</time>
      </trkpt>
      <trkpt lat="45.62759" lon="5.76882">
        <ele>451.8</ele>
        <time>2022-04-15T13:38:39Z</time>
      </trkpt>
      <trkpt lat="45.62768" lon="5.76887">
        <ele>451.1</ele>
        <time>2022-04-15T13:38:40Z</time>
      </trkpt>
      <trkpt lat="45.62777" lon="5.76892">
        <ele>450.5</ele>
        <time>2022-04-15T13:38:41Z</time>
      </trkpt>
      <trkpt lat="45.62787" lon="5.76898">
        <ele>449.8</ele>
        <time>2022-04-15T13:38:42Z</time>
      </trkpt>
      <trkpt lat="45.62796" lon="5.76903">
        <ele>449.2</ele>
        <time>2022-04-15T13:38:43Z</time>
      </trkpt>
      <trkpt lat="45.62806" lon="5.76908">
        <ele>448.6</ele>
        <time>2022-04-15T13:38:44Z</time>
      </trkpt>
      <trkpt lat="45.62815" lon="5.76913">
        <ele>448.1</ele>
        <time>2022-04-15T13:38:45Z</time>
      </trkpt>
      <trkpt lat="45.62825" lon="5.76916">
        <ele>447.6</ele>
        <time>2022-04-15T13:38:46Z</time>
      </trkpt>
      <trkpt lat="45.62835" lon="5.76918">
        <ele>447</ele>
        <time>2022-04-15T13:38:47Z</time>
      </trkpt>
      <trkpt lat="45.62846" lon="5.76918">
        <ele>446.5</ele>
        <time>2022-04-15T13:38:48Z</time>
      </trkpt>
      <trkpt lat="45.62856" lon="5.76917">
        <ele>445.9</ele>
        <time>2022-04-15T13:38:49Z</time>
      </trkpt>
      <trkpt lat="45.62866" lon="5.76915">
        <ele>445.4</ele>
        <time>2022-04-15T13:38:50Z</time>
      </trkpt>
      <trkpt lat="45.62876" lon="5.76913">
        <ele>444.9</ele>
        <time>2022-04-15T13:38:51Z</time>
      </trkpt>
      <trkpt lat="45.62886" lon="5.76912">
        <ele>444.3</ele>
        <time>2022-04-15T13:38:52Z</time>
      </trkpt>
      <trkpt lat="45.62897" lon="5.76911">
        <ele>443.7</ele>
        <time>2022-04-15T13:38:53Z</time>
      </trkpt>
      <trkpt lat="45.62907" lon="5.7691">
        <ele>443.2</ele>
        <time>2022-04-15T13:38:54Z</time>
      </trkpt>
      <trkpt lat="45.62918" lon="5.76909">
        <ele>442.6</ele>
        <time>2022-04-15T13:38:55Z</time>
      </trkpt>
      <trkpt lat="45.62929" lon="5.76908">
        <ele>441.9</ele>
        <time>2022-04-15T13:38:56Z</time>
      </trkpt>
      <trkpt lat="45.6294" lon="5.76907">
        <ele>441.3</ele>
        <time>2022-04-15T13:38:57Z</time>
      </trkpt>
      <trkpt lat="45.62951" lon="5.76905">
        <ele>440.7</ele>
        <time>2022-04-15T13:38:58Z</time>
      </trkpt>
      <trkpt lat="45.62962" lon="5.76903">
        <ele>440</ele>
        <time>2022-04-15T13:38:59Z</time>
      </trkpt>
      <trkpt lat="45.62973" lon="5.769">
        <ele>439.4</ele>
        <time>2022-04-15T13:39:00Z</time>
      </trkpt>
      <trkpt lat="45.62984" lon="5.76897">
        <ele>438.8</ele>
        <time>2022-04-15T13:39:01Z</time>
      </trkpt>
      <trkpt lat="45.62996" lon="5.76892">
        <ele>438.1</ele>
        <time>2022-04-15T13:39:02Z</time>
      </trkpt>
      <trkpt lat="45.63006" lon="5.76888">
        <ele>437.5</ele>
        <time>2022-04-15T13:39:03Z</time>
      </trkpt>
      <trkpt lat="45.63016" lon="5.76882">
        <ele>436.9</ele>
        <time>2022-04-15T13:39:04Z</time>
      </trkpt>
      <trkpt lat="45.63026" lon="5.76873">
        <ele>436.3</ele>
        <time>2022-04-15T13:39:05Z</time>
      </trkpt>
      <trkpt lat="45.63034" lon="5.76862">
        <ele>435.7</ele>
        <time>2022-04-15T13:39:06Z</time>
      </trkpt>
      <trkpt lat="45.63041" lon="5.7685">
        <ele>435.1</ele>
        <time>2022-04-15T13:39:07Z</time>
      </trkpt>
      <trkpt lat="45.63046" lon="5.76836">
        <ele>434.5</ele>
        <time>2022-04-15T13:39:08Z</time>
      </trkpt>
      <trkpt lat="45.63052" lon="5.76822">
        <ele>433.9</ele>
        <time>2022-04-15T13:39:09Z</time>
      </trkpt>
      <trkpt lat="45.63057" lon="5.76808">
        <ele>433.3</ele>
        <time>2022-04-15T13:39:10Z</time>
      </trkpt>
      <trkpt lat="45.63063" lon="5.76794">
        <ele>432.6</ele>
        <time>2022-04-15T13:39:11Z</time>
      </trkpt>
      <trkpt lat="45.63069" lon="5.7678">
        <ele>432</ele>
        <time>2022-04-15T13:39:12Z</time>
      </trkpt>
      <trkpt lat="45.63076" lon="5.76767">
        <ele>431.4</ele>
        <time>2022-04-15T13:39:13Z</time>
      </trkpt>
      <trkpt lat="45.63086" lon="5.76756">
        <ele>430.7</ele>
        <time>2022-04-15T13:39:14Z</time>
      </trkpt>
      <trkpt lat="45.63097" lon="5.76747">
        <ele>429.9</ele>
        <time>2022-04-15T13:39:15Z</time>
      </trkpt>
      <trkpt lat="45.63109" lon="5.76741">
        <ele>429.2</ele>
        <time>2022-04-15T13:39:16Z</time>
      </trkpt>
      <trkpt lat="45.6312" lon="5.76735">
        <ele>428.6</ele>
        <time>2022-04-15T13:39:17Z</time>
      </trkpt>
      <trkpt lat="45.63131" lon="5.76729">
        <ele>427.9</ele>
        <time>2022-04-15T13:39:18Z</time>
      </trkpt>
      <trkpt lat="45.63142" lon="5.76723">
        <ele>427.3</ele>
        <time>2022-04-15T13:39:19Z</time>
      </trkpt>
      <trkpt lat="45.63152" lon="5.76717">
        <ele>426.7</ele>
        <time>2022-04-15T13:39:20Z</time>
      </trkpt>
      <trkpt lat="45.63162" lon="5.7671">
        <ele>426.2</ele>
        <time>2022-04-15T13:39:21Z</time>
      </trkpt>
      <trkpt lat="45.63173" lon="5.76704">
        <ele>425.6</ele>
        <time>2022-04-15T13:39:22Z</time>
      </trkpt>
      <trkpt lat="45.63183" lon="5.76697">
        <ele>425</ele>
        <time>2022-04-15T13:39:23Z</time>
      </trkpt>
      <trkpt lat="45.63194" lon="5.76691">
        <ele>424.4</ele>
        <time>2022-04-15T13:39:24Z</time>
      </trkpt>
      <trkpt lat="45.63204" lon="5.76684">
        <ele>423.8</ele>
        <time>2022-04-15T13:39:25Z</time>
      </trkpt>
      <trkpt lat="45.63215" lon="5.76678">
        <ele>423.2</ele>
        <time>2022-04-15T13:39:26Z</time>
      </trkpt>
      <trkpt lat="45.63226" lon="5.76671">
        <ele>422.5</ele>
        <time>2022-04-15T13:39:27Z</time>
      </trkpt>
      <trkpt lat="45.63236" lon="5.76666">
        <ele>421.9</ele>
        <time>2022-04-15T13:39:28Z</time>
      </trkpt>
      <trkpt lat="45.63247" lon="5.7666">
        <ele>421.3</ele>
        <time>2022-04-15T13:39:29Z</time>
      </trkpt>
      <trkpt lat="45.63258" lon="5.76655">
        <ele>420.7</ele>
        <time>2022-04-15T13:39:30Z</time>
      </trkpt>
      <trkpt lat="45.6327" lon="5.76652">
        <ele>420</ele>
        <time>2022-04-15T13:39:31Z</time>
      </trkpt>
      <trkpt lat="45.63282" lon="5.7665">
        <ele>419.4</ele>
        <time>2022-04-15T13:39:32Z</time>
      </trkpt>
      <trkpt lat="45.63295" lon="5.76649">
        <ele>418.7</ele>
        <time>2022-04-15T13:39:33Z</time>
      </trkpt>
      <trkpt lat="45.63307" lon="5.76648">
        <ele>418</ele>
        <time>2022-04-15T13:39:34Z</time>
      </trkpt>
      <trkpt lat="45.63318" lon="5.76647">
        <ele>417.4</ele>
        <time>2022-04-15T13:39:35Z</time>
      </trkpt>
      <trkpt lat="45.63329" lon="5.76643">
        <ele>416.8</ele>
        <time>2022-04-15T13:39:36Z</time>
      </trkpt>
      <trkpt lat="45.63341" lon="5.76639">
        <ele>416.2</ele>
        <time>2022-04-15T13:39:37Z</time>
      </trkpt>
      <trkpt lat="45.63351" lon="5.76634">
        <ele>415.6</ele>
        <time>2022-04-15T13:39:38Z</time>
      </trkpt>
      <trkpt lat="45.63362" lon="5.76628">
        <ele>415.1</ele>
        <time>2022-04-15T13:39:39Z</time>
      </trkpt>
      <trkpt lat="45.63373" lon="5.76622">
        <ele>414.5</ele>
        <time>2022-04-15T13:39:40Z</time>
      </trkpt>
      <trkpt lat="45.63384" lon="5.76617">
        <ele>413.9</ele>
        <time>2022-04-15T13:39:41Z</time>
      </trkpt>
      <trkpt lat="45.63395" lon="5.76612">
        <ele>413.3</ele>
        <time>2022-04-15T13:39:42Z</time>
      </trkpt>
      <trkpt lat="45.63406" lon="5.76606">
        <ele>412.8</ele>
        <time>2022-04-15T13:39:43Z</time>
      </trkpt>
      <trkpt lat="45.63415" lon="5.76598">
        <ele>412.3</ele>
        <time>2022-04-15T13:39:44Z</time>
      </trkpt>
      <trkpt lat="45.63424" lon="5.76587">
        <ele>411.8</ele>
        <time>2022-04-15T13:39:45Z</time>
      </trkpt>
      <trkpt lat="45.63431" lon="5.76576">
        <ele>411.3</ele>
        <time>2022-04-15T13:39:46Z</time>
      </trkpt>
      <trkpt lat="45.6344" lon="5.76566">
        <ele>410.8</ele>
        <time>2022-04-15T13:39:47Z</time>
      </trkpt>
      <trkpt lat="45.6345" lon="5.7656">
        <ele>410.3</ele>
        <time>2022-04-15T13:39:48Z</time>
      </trkpt>
      <trkpt lat="45.63461" lon="5.76558">
        <ele>409.8</ele>
        <time>2022-04-15T13:39:49Z</time>
      </trkpt>
      <trkpt lat="45.63472" lon="5.76561">
        <ele>409.3</ele>
        <time>2022-04-15T13:39:50Z</time>
      </trkpt>
      <trkpt lat="45.63482" lon="5.76566">
        <ele>408.7</ele>
        <time>2022-04-15T13:39:51Z</time>
      </trkpt>
      <trkpt lat="45.63491" lon="5.76574">
        <ele>408.2</ele>
        <time>2022-04-15T13:39:52Z</time>
      </trkpt>
      <trkpt lat="45.635" lon="5.76583">
        <ele>407.6</ele>
        <time>2022-04-15T13:39:53Z</time>
      </trkpt>
      <trkpt lat="45.63509" lon="5.76591">
        <ele>407.1</ele>
        <time>2022-04-15T13:39:54Z</time>
      </trkpt>
      <trkpt lat="45.63519" lon="5.76598">
        <ele>406.5</ele>
        <time>2022-04-15T13:39:55Z</time>
      </trkpt>
      <trkpt lat="45.63528" lon="5.76605">
        <ele>405.9</ele>
        <time>2022-04-15T13:39:56Z</time>
      </trkpt>
      <trkpt lat="45.63537" lon="5.76611">
        <ele>405.3</ele>
        <time>2022-04-15T13:39:57Z</time>
      </trkpt>
      <trkpt lat="45.63547" lon="5.76615">
        <ele>404.8</ele>
        <time>2022-04-15T13:39:58Z</time>
      </trkpt>
      <trkpt lat="45.63558" lon="5.76618">
        <ele>404.3</ele>
        <time>2022-04-15T13:39:59Z</time>
      </trkpt>
      <trkpt lat="45.63568" lon="5.7662">
        <ele>403.7</ele>
        <time>2022-04-15T13:40:00Z</time>
      </trkpt>
      <trkpt lat="45.63577" lon="5.76623">
        <ele>403.2</ele>
        <time>2022-04-15T13:40:01Z</time>
      </trkpt>
      <trkpt lat="45.63586" lon="5.76627">
        <ele>402.7</ele>
        <time>2022-04-15T13:40:02Z</time>
      </trkpt>
      <trkpt lat="45.63594" lon="5.76633">
        <ele>402.2</ele>
        <time>2022-04-15T13:40:03Z</time>
      </trkpt>
      <trkpt lat="45.63604" lon="5.7664">
        <ele>401.6</ele>
        <time>2022-04-15T13:40:04Z</time>
      </trkpt>
      <trkpt lat="45.63613" lon="5.76647">
        <ele>401</ele>
        <time>2022-04-15T13:40:05Z</time>
      </trkpt>
      <trkpt lat="45.63622" lon="5.76656">
        <ele>400.5</ele>
        <time>2022-04-15T13:40:06Z</time>
      </trkpt>
      <trkpt lat="45.6363" lon="5.76666">
        <ele>400</ele>
        <time>2022-04-15T13:40:07Z</time>
      </trkpt>
      <trkpt lat="45.63638" lon="5.76675">
        <ele>399.6</ele>
        <time>2022-04-15T13:40:08Z</time>
      </trkpt>
      <trkpt lat="45.63646" lon="5.76684">
        <ele>399.3</ele>
        <time>2022-04-15T13:40:09Z</time>
      </trkpt>
      <trkpt lat="45.63655" lon="5.76692">
        <ele>399</ele>
        <time>2022-04-15T13:40:10Z</time>
      </trkpt>
      <trkpt lat="45.63664" lon="5.767">
        <ele>398.8</ele>
        <time>2022-04-15T13:40:11Z</time>
      </trkpt>
      <trkpt lat="45.63672" lon="5.76708">
        <ele>398.6</ele>
        <time>2022-04-15T13:40:12Z</time>
      </trkpt>
      <trkpt lat="45.6368" lon="5.76715">
        <ele>398.5</ele>
        <time>2022-04-15T13:40:13Z</time>
      </trkpt>
      <trkpt lat="45.63687" lon="5.76723">
        <ele>398.5</ele>
        <time>2022-04-15T13:40:14Z</time>
      </trkpt>
      <trkpt lat="45.63694" lon="5.7673">
        <ele>398.5</ele>
        <time>2022-04-15T13:40:15Z</time>
      </trkpt>
      <trkpt lat="45.63701" lon="5.76737">
        <ele>398.5</ele>
        <time>2022-04-15T13:40:16Z</time>
      </trkpt>
      <trkpt lat="45.63708" lon="5.76743">
        <ele>398.1</ele>
        <time>2022-04-15T13:40:17Z</time>
      </trkpt>
      <trkpt lat="45.63715" lon="5.76748">
        <ele>397.7</ele>
        <time>2022-04-15T13:40:18Z</time>
      </trkpt>
      <trkpt lat="45.63721" lon="5.7675">
        <ele>397.5</ele>
        <time>2022-04-15T13:40:19Z</time>
      </trkpt>
      <trkpt lat="45.63725" lon="5.7675">
        <ele>397.3</ele>
        <time>2022-04-15T13:40:20Z</time>
      </trkpt>
      <trkpt lat="45.63726" lon="5.76746">
        <ele>397.1</ele>
        <time>2022-04-15T13:40:21Z</time>
      </trkpt>
      <trkpt lat="45.63726" lon="5.76744">
        <ele>397.1</ele>
        <time>2022-04-15T13:40:22Z</time>
      </trkpt>
      <trkpt lat="45.63723" lon="5.76742">
        <ele>396.9</ele>
        <time>2022-04-15T13:40:23Z</time>
      </trkpt>
      <trkpt lat="45.6372" lon="5.76742">
        <ele>396.8</ele>
        <time>2022-04-15T13:40:24Z</time>
      </trkpt>
      <trkpt lat="45.63718" lon="5.76742">
        <ele>396.7</ele>
        <time>2022-04-15T13:40:25Z</time>
      </trkpt>
      <trkpt lat="45.63715" lon="5.76742">
        <ele>396.6</ele>
        <time>2022-04-15T13:40:26Z</time>
      </trkpt>
      <trkpt lat="45.63712" lon="5.7674">
        <ele>396.4</ele>
        <time>2022-04-15T13:40:27Z</time>
      </trkpt>
      <trkpt lat="45.63711" lon="5.76739">
        <ele>396.3</ele>
        <time>2022-04-15T13:40:28Z</time>
      </trkpt>
      <trkpt lat="45.63709" lon="5.76734">
        <ele>396.2</ele>
        <time>2022-04-15T13:40:29Z</time>
      </trkpt>
      <trkpt lat="45.63709" lon="5.76733">
        <ele>396.1</ele>
        <time>2022-04-15T13:40:30Z</time>
      </trkpt>
      <trkpt lat="45.6371" lon="5.76728">
        <ele>396</ele>
        <time>2022-04-15T13:40:31Z</time>
      </trkpt>
      <trkpt lat="45.63717" lon="5.76726">
        <ele>395.6</ele>
        <time>2022-04-15T13:40:32Z</time>
      </trkpt>
      <trkpt lat="45.63727" lon="5.76724">
        <ele>395.2</ele>
        <time>2022-04-15T13:40:34Z</time>
      </trkpt>
      <trkpt lat="45.63732" lon="5.76721">
        <ele>394.9</ele>
        <time>2022-04-15T13:40:35Z</time>
      </trkpt>
      <trkpt lat="45.63739" lon="5.76718">
        <ele>394.6</ele>
        <time>2022-04-15T13:40:36Z</time>
      </trkpt>
      <trkpt lat="45.63745" lon="5.76716">
        <ele>394.3</ele>
        <time>2022-04-15T13:40:37Z</time>
      </trkpt>
      <trkpt lat="45.63753" lon="5.76714">
        <ele>394</ele>
        <time>2022-04-15T13:40:38Z</time>
      </trkpt>
      <trkpt lat="45.6376" lon="5.76714">
        <ele>393.7</ele>
        <time>2022-04-15T13:40:39Z</time>
      </trkpt>
      <trkpt lat="45.63768" lon="5.76715">
        <ele>393.4</ele>
        <time>2022-04-15T13:40:40Z</time>
      </trkpt>
      <trkpt lat="45.63777" lon="5.76715">
        <ele>393.1</ele>
        <time>2022-04-15T13:40:41Z</time>
      </trkpt>
      <trkpt lat="45.63786" lon="5.76715">
        <ele>392.7</ele>
        <time>2022-04-15T13:40:42Z</time>
      </trkpt>
      <trkpt lat="45.63794" lon="5.76711">
        <ele>392.5</ele>
        <time>2022-04-15T13:40:43Z</time>
      </trkpt>
      <trkpt lat="45.63798" lon="5.76703">
        <ele>392.3</ele>
        <time>2022-04-15T13:40:44Z</time>
      </trkpt>
      <trkpt lat="45.63802" lon="5.76694">
        <ele>392.4</ele>
        <time>2022-04-15T13:40:45Z</time>
      </trkpt>
      <trkpt lat="45.63806" lon="5.76688">
        <ele>392.4</ele>
        <time>2022-04-15T13:40:46Z</time>
      </trkpt>
      <trkpt lat="45.63813" lon="5.76688">
        <ele>392.1</ele>
        <time>2022-04-15T13:40:47Z</time>
      </trkpt>
      <trkpt lat="45.63819" lon="5.76691">
        <ele>391.8</ele>
        <time>2022-04-15T13:40:48Z</time>
      </trkpt>
      <trkpt lat="45.63825" lon="5.76695">
        <ele>391.6</ele>
        <time>2022-04-15T13:40:49Z</time>
      </trkpt>
      <trkpt lat="45.6383" lon="5.76698">
        <ele>391.5</ele>
        <time>2022-04-15T13:40:50Z</time>
      </trkpt>
      <trkpt lat="45.63836" lon="5.76702">
        <ele>391.3</ele>
        <time>2022-04-15T13:40:51Z</time>
      </trkpt>
      <trkpt lat="45.63842" lon="5.76705">
        <ele>391.1</ele>
        <time>2022-04-15T13:40:52Z</time>
      </trkpt>
      <trkpt lat="45.63847" lon="5.76711">
        <ele>390.9</ele>
        <time>2022-04-15T13:40:53Z</time>
      </trkpt>
      <trkpt lat="45.63853" lon="5.76715">
        <ele>390.8</ele>
        <time>2022-04-15T13:40:54Z</time>
      </trkpt>
      <trkpt lat="45.63859" lon="5.76719">
        <ele>390.6</ele>
        <time>2022-04-15T13:40:55Z</time>
      </trkpt>
      <trkpt lat="45.63866" lon="5.76721">
        <ele>390.5</ele>
        <time>2022-04-15T13:40:56Z</time>
      </trkpt>
      <trkpt lat="45.63872" lon="5.76722">
        <ele>390.3</ele>
        <time>2022-04-15T13:40:57Z</time>
      </trkpt>
      <trkpt lat="45.63878" lon="5.76723">
        <ele>390.2</ele>
        <time>2022-04-15T13:40:58Z</time>
      </trkpt>
      <trkpt lat="45.63883" lon="5.76723">
        <ele>390</ele>
        <time>2022-04-15T13:40:59Z</time>
      </trkpt>
      <trkpt lat="45.63889" lon="5.76724">
        <ele>389.9</ele>
        <time>2022-04-15T13:41:00Z</time>
      </trkpt>
      <trkpt lat="45.63896" lon="5.76724">
        <ele>389.8</ele>
        <time>2022-04-15T13:41:01Z</time>
      </trkpt>
      <trkpt lat="45.63903" lon="5.76723">
        <ele>389.6</ele>
        <time>2022-04-15T13:41:02Z</time>
      </trkpt>
      <trkpt lat="45.6391" lon="5.76723">
        <ele>389.5</ele>
        <time>2022-04-15T13:41:03Z</time>
      </trkpt>
      <trkpt lat="45.63917" lon="5.76722">
        <ele>389.4</ele>
        <time>2022-04-15T13:41:04Z</time>
      </trkpt>
      <trkpt lat="45.63924" lon="5.76722">
        <ele>389.3</ele>
        <time>2022-04-15T13:41:05Z</time>
      </trkpt>
      <trkpt lat="45.63931" lon="5.76722">
        <ele>389.2</ele>
        <time>2022-04-15T13:41:06Z</time>
      </trkpt>
      <trkpt lat="45.63938" lon="5.76722">
        <ele>389.1</ele>
        <time>2022-04-15T13:41:07Z</time>
      </trkpt>
      <trkpt lat="45.63944" lon="5.76723">
        <ele>389.1</ele>
        <time>2022-04-15T13:41:08Z</time>
      </trkpt>
      <trkpt lat="45.6395" lon="5.76725">
        <ele>389</ele>
        <time>2022-04-15T13:41:09Z</time>
      </trkpt>
      <trkpt lat="45.63957" lon="5.76728">
        <ele>388.8</ele>
        <time>2022-04-15T13:41:10Z</time>
      </trkpt>
      <trkpt lat="45.63964" lon="5.7673">
        <ele>388.7</ele>
        <time>2022-04-15T13:41:11Z</time>
      </trkpt>
      <trkpt lat="45.63972" lon="5.76733">
        <ele>388.5</ele>
        <time>2022-04-15T13:41:12Z</time>
      </trkpt>
      <trkpt lat="45.63977" lon="5.76736">
        <ele>388.3</ele>
        <time>2022-04-15T13:41:13Z</time>
      </trkpt>
      <trkpt lat="45.63984" lon="5.76737">
        <ele>388.2</ele>
        <time>2022-04-15T13:41:14Z</time>
      </trkpt>
      <trkpt lat="45.63991" lon="5.76737">
        <ele>387.9</ele>
        <time>2022-04-15T13:41:15Z</time>
      </trkpt>
      <trkpt lat="45.63998" lon="5.76737">
        <ele>387.7</ele>
        <time>2022-04-15T13:41:16Z</time>
      </trkpt>
      <trkpt lat="45.64005" lon="5.76736">
        <ele>387.5</ele>
        <time>2022-04-15T13:41:17Z</time>
      </trkpt>
      <trkpt lat="45.64011" lon="5.76735">
        <ele>387.3</ele>
        <time>2022-04-15T13:41:18Z</time>
      </trkpt>
      <trkpt lat="45.6402" lon="5.76732">
        <ele>387</ele>
        <time>2022-04-15T13:41:19Z</time>
      </trkpt>
      <trkpt lat="45.6403" lon="5.76728">
        <ele>386.7</ele>
        <time>2022-04-15T13:41:20Z</time>
      </trkpt>
      <trkpt lat="45.64038" lon="5.76723">
        <ele>386.4</ele>
        <time>2022-04-15T13:41:21Z</time>
      </trkpt>
      <trkpt lat="45.64046" lon="5.76718">
        <ele>386.1</ele>
        <time>2022-04-15T13:41:22Z</time>
      </trkpt>
      <trkpt lat="45.64054" lon="5.76714">
        <ele>385.8</ele>
        <time>2022-04-15T13:41:23Z</time>
      </trkpt>
      <trkpt lat="45.64061" lon="5.76709">
        <ele>385.6</ele>
        <time>2022-04-15T13:41:24Z</time>
      </trkpt>
      <trkpt lat="45.64068" lon="5.76704">
        <ele>385.3</ele>
        <time>2022-04-15T13:41:25Z</time>
      </trkpt>
      <trkpt lat="45.64076" lon="5.76699">
        <ele>385.1</ele>
        <time>2022-04-15T13:41:26Z</time>
      </trkpt>
      <trkpt lat="45.64083" lon="5.76694">
        <ele>384.8</ele>
        <time>2022-04-15T13:41:27Z</time>
      </trkpt>
      <trkpt lat="45.6409" lon="5.76689">
        <ele>384.6</ele>
        <time>2022-04-15T13:41:28Z</time>
      </trkpt>
      <trkpt lat="45.64098" lon="5.76685">
        <ele>384.3</ele>
        <time>2022-04-15T13:41:29Z</time>
      </trkpt>
      <trkpt lat="45.64105" lon="5.76681">
        <ele>384</ele>
        <time>2022-04-15T13:41:30Z</time>
      </trkpt>
      <trkpt lat="45.64112" lon="5.76678">
        <ele>383.8</ele>
        <time>2022-04-15T13:41:31Z</time>
      </trkpt>
      <trkpt lat="45.6412" lon="5.76675">
        <ele>383.5</ele>
        <time>2022-04-15T13:41:32Z</time>
      </trkpt>
      <trkpt lat="45.64128" lon="5.76673">
        <ele>383.3</ele>
        <time>2022-04-15T13:41:33Z</time>
      </trkpt>
      <trkpt lat="45.64136" lon="5.76671">
        <ele>383</ele>
        <time>2022-04-15T13:41:34Z</time>
      </trkpt>
      <trkpt lat="45.64143" lon="5.7667">
        <ele>382.8</ele>
        <time>2022-04-15T13:41:35Z</time>
      </trkpt>
      <trkpt lat="45.64151" lon="5.76669">
        <ele>382.5</ele>
        <time>2022-04-15T13:41:36Z</time>
      </trkpt>
      <trkpt lat="45.64159" lon="5.76668">
        <ele>382.3</ele>
        <time>2022-04-15T13:41:37Z</time>
      </trkpt>
      <trkpt lat="45.64167" lon="5.76668">
        <ele>382.1</ele>
        <time>2022-04-15T13:41:38Z</time>
      </trkpt>
      <trkpt lat="45.64174" lon="5.76667">
        <ele>381.9</ele>
        <time>2022-04-15T13:41:39Z</time>
      </trkpt>
      <trkpt lat="45.64182" lon="5.76666">
        <ele>381.6</ele>
        <time>2022-04-15T13:41:40Z</time>
      </trkpt>
      <trkpt lat="45.6419" lon="5.76664">
        <ele>381.4</ele>
        <time>2022-04-15T13:41:41Z</time>
      </trkpt>
      <trkpt lat="45.64197" lon="5.76662">
        <ele>381.2</ele>
        <time>2022-04-15T13:41:42Z</time>
      </trkpt>
      <trkpt lat="45.64205" lon="5.76659">
        <ele>381</ele>
        <time>2022-04-15T13:41:43Z</time>
      </trkpt>
      <trkpt lat="45.64213" lon="5.76657">
        <ele>380.7</ele>
        <time>2022-04-15T13:41:44Z</time>
      </trkpt>
      <trkpt lat="45.64221" lon="5.76653">
        <ele>380.5</ele>
        <time>2022-04-15T13:41:45Z</time>
      </trkpt>
      <trkpt lat="45.64229" lon="5.7665">
        <ele>380.3</ele>
        <time>2022-04-15T13:41:46Z</time>
      </trkpt>
      <trkpt lat="45.64237" lon="5.76647">
        <ele>380.1</ele>
        <time>2022-04-15T13:41:47Z</time>
      </trkpt>
      <trkpt lat="45.64244" lon="5.76644">
        <ele>379.9</ele>
        <time>2022-04-15T13:41:48Z</time>
      </trkpt>
      <trkpt lat="45.64252" lon="5.76641">
        <ele>379.7</ele>
        <time>2022-04-15T13:41:49Z</time>
      </trkpt>
      <trkpt lat="45.6426" lon="5.76638">
        <ele>379.5</ele>
        <time>2022-04-15T13:41:50Z</time>
      </trkpt>
      <trkpt lat="45.64267" lon="5.76634">
        <ele>379.3</ele>
        <time>2022-04-15T13:41:51Z</time>
      </trkpt>
      <trkpt lat="45.64275" lon="5.7663">
        <ele>379.2</ele>
        <time>2022-04-15T13:41:52Z</time>
      </trkpt>
      <trkpt lat="45.64282" lon="5.76625">
        <ele>379</ele>
        <time>2022-04-15T13:41:53Z</time>
      </trkpt>
      <trkpt lat="45.6429" lon="5.76621">
        <ele>378.8</ele>
        <time>2022-04-15T13:41:54Z</time>
      </trkpt>
      <trkpt lat="45.64297" lon="5.76617">
        <ele>378.6</ele>
        <time>2022-04-15T13:41:55Z</time>
      </trkpt>
      <trkpt lat="45.64305" lon="5.76613">
        <ele>378.4</ele>
        <time>2022-04-15T13:41:56Z</time>
      </trkpt>
      <trkpt lat="45.64313" lon="5.76609">
        <ele>378.2</ele>
        <time>2022-04-15T13:41:57Z</time>
      </trkpt>
      <trkpt lat="45.6432" lon="5.76606">
        <ele>378</ele>
        <time>2022-04-15T13:41:58Z</time>
      </trkpt>
      <trkpt lat="45.64328" lon="5.76602">
        <ele>377.9</ele>
        <time>2022-04-15T13:41:59Z</time>
      </trkpt>
      <trkpt lat="45.64336" lon="5.76599">
        <ele>377.8</ele>
        <time>2022-04-15T13:42:00Z</time>
      </trkpt>
      <trkpt lat="45.64343" lon="5.76595">
        <ele>377.8</ele>
        <time>2022-04-15T13:42:01Z</time>
      </trkpt>
      <trkpt lat="45.64351" lon="5.76592">
        <ele>377.9</ele>
        <time>2022-04-15T13:42:02Z</time>
      </trkpt>
      <trkpt lat="45.64358" lon="5.76587">
        <ele>377.9</ele>
        <time>2022-04-15T13:42:03Z</time>
      </trkpt>
      <trkpt lat="45.64366" lon="5.76582">
        <ele>378.1</ele>
        <time>2022-04-15T13:42:04Z</time>
      </trkpt>
      <trkpt lat="45.64372" lon="5.76577">
        <ele>378.2</ele>
        <time>2022-04-15T13:42:05Z</time>
      </trkpt>
      <trkpt lat="45.64379" lon="5.76572">
        <ele>378.4</ele>
        <time>2022-04-15T13:42:06Z</time>
      </trkpt>
      <trkpt lat="45.64386" lon="5.76566">
        <ele>378.7</ele>
        <time>2022-04-15T13:42:07Z</time>
      </trkpt>
      <trkpt lat="45.64392" lon="5.76561">
        <ele>379</ele>
        <time>2022-04-15T13:42:08Z</time>
      </trkpt>
      <trkpt lat="45.64397" lon="5.76555">
        <ele>379.2</ele>
        <time>2022-04-15T13:42:09Z</time>
      </trkpt>
      <trkpt lat="45.64403" lon="5.76549">
        <ele>379.4</ele>
        <time>2022-04-15T13:42:10Z</time>
      </trkpt>
      <trkpt lat="45.64408" lon="5.76544">
        <ele>379.6</ele>
        <time>2022-04-15T13:42:11Z</time>
      </trkpt>
      <trkpt lat="45.64413" lon="5.76539">
        <ele>379.8</ele>
        <time>2022-04-15T13:42:12Z</time>
      </trkpt>
      <trkpt lat="45.64418" lon="5.76534">
        <ele>380</ele>
        <time>2022-04-15T13:42:13Z</time>
      </trkpt>
      <trkpt lat="45.64422" lon="5.7653">
        <ele>380.3</ele>
        <time>2022-04-15T13:42:14Z</time>
      </trkpt>
      <trkpt lat="45.64426" lon="5.76526">
        <ele>380.5</ele>
        <time>2022-04-15T13:42:15Z</time>
      </trkpt>
      <trkpt lat="45.64431" lon="5.76522">
        <ele>380.7</ele>
        <time>2022-04-15T13:42:16Z</time>
      </trkpt>
      <trkpt lat="45.64434" lon="5.76518">
        <ele>380.8</ele>
        <time>2022-04-15T13:42:17Z</time>
      </trkpt>
      <trkpt lat="45.64438" lon="5.76515">
        <ele>381</ele>
        <time>2022-04-15T13:42:18Z</time>
      </trkpt>
      <trkpt lat="45.64441" lon="5.76513">
        <ele>381.1</ele>
        <time>2022-04-15T13:42:19Z</time>
      </trkpt>
      <trkpt lat="45.64445" lon="5.7651">
        <ele>381.2</ele>
        <time>2022-04-15T13:42:20Z</time>
      </trkpt>
      <trkpt lat="45.64448" lon="5.76509">
        <ele>381.3</ele>
        <time>2022-04-15T13:42:21Z</time>
      </trkpt>
      <trkpt lat="45.64452" lon="5.76507">
        <ele>381.4</ele>
        <time>2022-04-15T13:42:22Z</time>
      </trkpt>
      <trkpt lat="45.64455" lon="5.76506">
        <ele>381.5</ele>
        <time>2022-04-15T13:42:23Z</time>
      </trkpt>
      <trkpt lat="45.6446" lon="5.76505">
        <ele>381.6</ele>
        <time>2022-04-15T13:42:24Z</time>
      </trkpt>
      <trkpt lat="45.64463" lon="5.76504">
        <ele>381.6</ele>
        <time>2022-04-15T13:42:25Z</time>
      </trkpt>
      <trkpt lat="45.64469" lon="5.76502">
        <ele>381.6</ele>
        <time>2022-04-15T13:42:26Z</time>
      </trkpt>
      <trkpt lat="45.64474" lon="5.76501">
        <ele>381.6</ele>
        <time>2022-04-15T13:42:27Z</time>
      </trkpt>
      <trkpt lat="45.64479" lon="5.765">
        <ele>381.6</ele>
        <time>2022-04-15T13:42:29Z</time>
      </trkpt>
      <trkpt lat="45.64482" lon="5.765">
        <ele>381.6</ele>
        <time>2022-04-15T13:42:30Z</time>
      </trkpt>
      <trkpt lat="45.64487" lon="5.76499">
        <ele>381.5</ele>
        <time>2022-04-15T13:42:31Z</time>
      </trkpt>
      <trkpt lat="45.64494" lon="5.76498">
        <ele>381.3</ele>
        <time>2022-04-15T13:42:32Z</time>
      </trkpt>
      <trkpt lat="45.64501" lon="5.76501">
        <ele>381.1</ele>
        <time>2022-04-15T13:42:34Z</time>
      </trkpt>
      <trkpt lat="45.64506" lon="5.76501">
        <ele>380.9</ele>
        <time>2022-04-15T13:42:35Z</time>
      </trkpt>
      <trkpt lat="45.64512" lon="5.765">
        <ele>380.6</ele>
        <time>2022-04-15T13:42:36Z</time>
      </trkpt>
      <trkpt lat="45.64517" lon="5.76499">
        <ele>380.4</ele>
        <time>2022-04-15T13:42:37Z</time>
      </trkpt>
      <trkpt lat="45.64523" lon="5.76498">
        <ele>380</ele>
        <time>2022-04-15T13:42:38Z</time>
      </trkpt>
      <trkpt lat="45.6453" lon="5.76495">
        <ele>379.7</ele>
        <time>2022-04-15T13:42:39Z</time>
      </trkpt>
      <trkpt lat="45.64536" lon="5.76492">
        <ele>379.3</ele>
        <time>2022-04-15T13:42:40Z</time>
      </trkpt>
      <trkpt lat="45.64542" lon="5.76489">
        <ele>378.9</ele>
        <time>2022-04-15T13:42:41Z</time>
      </trkpt>
      <trkpt lat="45.64549" lon="5.76485">
        <ele>378.4</ele>
        <time>2022-04-15T13:42:42Z</time>
      </trkpt>
      <trkpt lat="45.64556" lon="5.76482">
        <ele>377.9</ele>
        <time>2022-04-15T13:42:43Z</time>
      </trkpt>
      <trkpt lat="45.64563" lon="5.76479">
        <ele>377.5</ele>
        <time>2022-04-15T13:42:44Z</time>
      </trkpt>
      <trkpt lat="45.6457" lon="5.76475">
        <ele>377</ele>
        <time>2022-04-15T13:42:45Z</time>
      </trkpt>
      <trkpt lat="45.64577" lon="5.76471">
        <ele>376.6</ele>
        <time>2022-04-15T13:42:46Z</time>
      </trkpt>
      <trkpt lat="45.64585" lon="5.76467">
        <ele>376.1</ele>
        <time>2022-04-15T13:42:47Z</time>
      </trkpt>
      <trkpt lat="45.64592" lon="5.76463">
        <ele>375.7</ele>
        <time>2022-04-15T13:42:48Z</time>
      </trkpt>
      <trkpt lat="45.64599" lon="5.76459">
        <ele>375.2</ele>
        <time>2022-04-15T13:42:49Z</time>
      </trkpt>
      <trkpt lat="45.64607" lon="5.76454">
        <ele>374.7</ele>
        <time>2022-04-15T13:42:50Z</time>
      </trkpt>
      <trkpt lat="45.64615" lon="5.7645">
        <ele>374.3</ele>
        <time>2022-04-15T13:42:51Z</time>
      </trkpt>
      <trkpt lat="45.64622" lon="5.76446">
        <ele>373.8</ele>
        <time>2022-04-15T13:42:52Z</time>
      </trkpt>
      <trkpt lat="45.64629" lon="5.76442">
        <ele>373.4</ele>
        <time>2022-04-15T13:42:53Z</time>
      </trkpt>
      <trkpt lat="45.64633" lon="5.76439">
        <ele>373.1</ele>
        <time>2022-04-15T13:42:54Z</time>
      </trkpt>
      <trkpt lat="45.64637" lon="5.76438">
        <ele>372.8</ele>
        <time>2022-04-15T13:42:55Z</time>
      </trkpt>
      <trkpt lat="45.6464" lon="5.76441">
        <ele>372.2</ele>
        <time>2022-04-15T13:42:56Z</time>
      </trkpt>
      <trkpt lat="45.6464" lon="5.76443">
        <ele>372.2</ele>
        <time>2022-04-15T13:42:57Z</time>
      </trkpt>
      <trkpt lat="45.6464" lon="5.76449">
        <ele>372.1</ele>
        <time>2022-04-15T13:42:58Z</time>
      </trkpt>
      <trkpt lat="45.64636" lon="5.76453">
        <ele>372.1</ele>
        <time>2022-04-15T13:42:59Z</time>
      </trkpt>
      <trkpt lat="45.64632" lon="5.76455">
        <ele>372</ele>
        <time>2022-04-15T13:43:00Z</time>
      </trkpt>
      <trkpt lat="45.64627" lon="5.76456">
        <ele>371.8</ele>
        <time>2022-04-15T13:43:01Z</time>
      </trkpt>
      <trkpt lat="45.64621" lon="5.76459">
        <ele>371.6</ele>
        <time>2022-04-15T13:43:02Z</time>
      </trkpt>
      <trkpt lat="45.64616" lon="5.76463">
        <ele>371.4</ele>
        <time>2022-04-15T13:43:03Z</time>
      </trkpt>
      <trkpt lat="45.64612" lon="5.7647">
        <ele>371.2</ele>
        <time>2022-04-15T13:43:04Z</time>
      </trkpt>
      <trkpt lat="45.6461" lon="5.76479">
        <ele>371.1</ele>
        <time>2022-04-15T13:43:05Z</time>
      </trkpt>
      <trkpt lat="45.64611" lon="5.76488">
        <ele>370.9</ele>
        <time>2022-04-15T13:43:06Z</time>
      </trkpt>
      <trkpt lat="45.64613" lon="5.76496">
        <ele>370.8</ele>
        <time>2022-04-15T13:43:07Z</time>
      </trkpt>
      <trkpt lat="45.64616" lon="5.76505">
        <ele>370.7</ele>
        <time>2022-04-15T13:43:08Z</time>
      </trkpt>
      <trkpt lat="45.6462" lon="5.76513">
        <ele>370.7</ele>
        <time>2022-04-15T13:43:09Z</time>
      </trkpt>
      <trkpt lat="45.64624" lon="5.7652">
        <ele>370.6</ele>
        <time>2022-04-15T13:43:10Z</time>
      </trkpt>
      <trkpt lat="45.64628" lon="5.76527">
        <ele>370.6</ele>
        <time>2022-04-15T13:43:11Z</time>
      </trkpt>
      <trkpt lat="45.64633" lon="5.76534">
        <ele>370.5</ele>
        <time>2022-04-15T13:43:12Z</time>
      </trkpt>
      <trkpt lat="45.64637" lon="5.7654">
        <ele>370.6</ele>
        <time>2022-04-15T13:43:13Z</time>
      </trkpt>
      <trkpt lat="45.64642" lon="5.76544">
        <ele>370.6</ele>
        <time>2022-04-15T13:43:14Z</time>
      </trkpt>
      <trkpt lat="45.64647" lon="5.76545">
        <ele>370.7</ele>
        <time>2022-04-15T13:43:15Z</time>
      </trkpt>
      <trkpt lat="45.64653" lon="5.76545">
        <ele>370.8</ele>
        <time>2022-04-15T13:43:16Z</time>
      </trkpt>
      <trkpt lat="45.64657" lon="5.76544">
        <ele>370.9</ele>
        <time>2022-04-15T13:43:17Z</time>
      </trkpt>
      <trkpt lat="45.64661" lon="5.76544">
        <ele>371.1</ele>
        <time>2022-04-15T13:43:18Z</time>
      </trkpt>
      <trkpt lat="45.64665" lon="5.76543">
        <ele>371.2</ele>
        <time>2022-04-15T13:43:19Z</time>
      </trkpt>
      <trkpt lat="45.64669" lon="5.76543">
        <ele>371.4</ele>
        <time>2022-04-15T13:43:20Z</time>
      </trkpt>
      <trkpt lat="45.64672" lon="5.76543">
        <ele>371.5</ele>
        <time>2022-04-15T13:43:21Z</time>
      </trkpt>
      <trkpt lat="45.64675" lon="5.76543">
        <ele>371.7</ele>
        <time>2022-04-15T13:43:22Z</time>
      </trkpt>
      <trkpt lat="45.64678" lon="5.76543">
        <ele>371.9</ele>
        <time>2022-04-15T13:43:23Z</time>
      </trkpt>
      <trkpt lat="45.64682" lon="5.76544">
        <ele>372.1</ele>
        <time>2022-04-15T13:43:24Z</time>
      </trkpt>
      <trkpt lat="45.64684" lon="5.76544">
        <ele>372.2</ele>
        <time>2022-04-15T13:43:25Z</time>
      </trkpt>
      <trkpt lat="45.64688" lon="5.76544">
        <ele>372.6</ele>
        <time>2022-04-15T13:43:26Z</time>
      </trkpt>
      <trkpt lat="45.64693" lon="5.76547">
        <ele>373</ele>
        <time>2022-04-15T13:43:28Z</time>
      </trkpt>
      <trkpt lat="45.64694" lon="5.76547">
        <ele>373.1</ele>
        <time>2022-04-15T13:43:29Z</time>
      </trkpt>
      <trkpt lat="45.64696" lon="5.76548">
        <ele>373.2</ele>
        <time>2022-04-15T13:43:30Z</time>
      </trkpt>
      <trkpt lat="45.64699" lon="5.76549">
        <ele>373.5</ele>
        <time>2022-04-15T13:43:31Z</time>
      </trkpt>
      <trkpt lat="45.64701" lon="5.76549">
        <ele>373.6</ele>
        <time>2022-04-15T13:43:32Z</time>
      </trkpt>
      <trkpt lat="45.64703" lon="5.7655">
        <ele>373.9</ele>
        <time>2022-04-15T13:43:33Z</time>
      </trkpt>
      <trkpt lat="45.64706" lon="5.76551">
        <ele>374.1</ele>
        <time>2022-04-15T13:43:34Z</time>
      </trkpt>
      <trkpt lat="45.6471" lon="5.76551">
        <ele>374.4</ele>
        <time>2022-04-15T13:43:35Z</time>
      </trkpt>
      <trkpt lat="45.64711" lon="5.76552">
        <ele>374.5</ele>
        <time>2022-04-15T13:43:36Z</time>
      </trkpt>
      <trkpt lat="45.64712" lon="5.76553">
        <ele>374.7</ele>
        <time>2022-04-15T13:43:37Z</time>
      </trkpt>
      <trkpt lat="45.64714" lon="5.76554">
        <ele>374.8</ele>
        <time>2022-04-15T13:43:38Z</time>
      </trkpt>
      <trkpt lat="45.64716" lon="5.76554">
        <ele>375</ele>
        <time>2022-04-15T13:43:39Z</time>
      </trkpt>
      <trkpt lat="45.64717" lon="5.76554">
        <ele>375.1</ele>
        <time>2022-04-15T13:43:40Z</time>
      </trkpt>
      <trkpt lat="45.64718" lon="5.76555">
        <ele>375.2</ele>
        <time>2022-04-15T13:43:41Z</time>
      </trkpt>
      <trkpt lat="45.6472" lon="5.76556">
        <ele>375.4</ele>
        <time>2022-04-15T13:43:42Z</time>
      </trkpt>
      <trkpt lat="45.64723" lon="5.76556">
        <ele>375.7</ele>
        <time>2022-04-15T13:43:43Z</time>
      </trkpt>
      <trkpt lat="45.64724" lon="5.76556">
        <ele>375.8</ele>
        <time>2022-04-15T13:43:44Z</time>
      </trkpt>
      <trkpt lat="45.64727" lon="5.76557">
        <ele>376</ele>
        <time>2022-04-15T13:43:45Z</time>
      </trkpt>
      <trkpt lat="45.64728" lon="5.76558">
        <ele>376.1</ele>
        <time>2022-04-15T13:43:46Z</time>
      </trkpt>
      <trkpt lat="45.6473" lon="5.76558">
        <ele>376.3</ele>
        <time>2022-04-15T13:43:47Z</time>
      </trkpt>
      <trkpt lat="45.64731" lon="5.76559">
        <ele>376.4</ele>
        <time>2022-04-15T13:43:48Z</time>
      </trkpt>
      <trkpt lat="45.64734" lon="5.76559">
        <ele>376.6</ele>
        <time>2022-04-15T13:43:49Z</time>
      </trkpt>
      <trkpt lat="45.64735" lon="5.7656">
        <ele>376.7</ele>
        <time>2022-04-15T13:43:50Z</time>
      </trkpt>
      <trkpt lat="45.6474" lon="5.7656">
        <ele>377.1</ele>
        <time>2022-04-15T13:43:52Z</time>
      </trkpt>
      <trkpt lat="45.64741" lon="5.76561">
        <ele>377.2</ele>
        <time>2022-04-15T13:43:53Z</time>
      </trkpt>
      <trkpt lat="45.64742" lon="5.76561">
        <ele>377.3</ele>
        <time>2022-04-15T13:43:54Z</time>
      </trkpt>
      <trkpt lat="45.64745" lon="5.76561">
        <ele>377.6</ele>
        <time>2022-04-15T13:43:55Z</time>
      </trkpt>
      <trkpt lat="45.64746" lon="5.76561">
        <ele>377.7</ele>
        <time>2022-04-15T13:43:56Z</time>
      </trkpt>
      <trkpt lat="45.64749" lon="5.76561">
        <ele>378</ele>
        <time>2022-04-15T13:43:57Z</time>
      </trkpt>
      <trkpt lat="45.6475" lon="5.76561">
        <ele>378.1</ele>
        <time>2022-04-15T13:43:58Z</time>
      </trkpt>
      <trkpt lat="45.64752" lon="5.76561">
        <ele>378.2</ele>
        <time>2022-04-15T13:43:59Z</time>
      </trkpt>
      <trkpt lat="45.64753" lon="5.76562">
        <ele>378.3</ele>
        <time>2022-04-15T13:44:00Z</time>
      </trkpt>
      <trkpt lat="45.64755" lon="5.76562">
        <ele>378.5</ele>
        <time>2022-04-15T13:44:01Z</time>
      </trkpt>
      <trkpt lat="45.64757" lon="5.76562">
        <ele>378.7</ele>
        <time>2022-04-15T13:44:02Z</time>
      </trkpt>
      <trkpt lat="45.64759" lon="5.76563">
        <ele>378.9</ele>
        <time>2022-04-15T13:44:04Z</time>
      </trkpt>
      <trkpt lat="45.6476" lon="5.76563">
        <ele>379</ele>
        <time>2022-04-15T13:44:05Z</time>
      </trkpt>
      <trkpt lat="45.64762" lon="5.76562">
        <ele>379.1</ele>
        <time>2022-04-15T13:44:06Z</time>
      </trkpt>
      <trkpt lat="45.64763" lon="5.76562">
        <ele>379.2</ele>
        <time>2022-04-15T13:44:07Z</time>
      </trkpt>
      <trkpt lat="45.64766" lon="5.76562">
        <ele>379.5</ele>
        <time>2022-04-15T13:44:08Z</time>
      </trkpt>
      <trkpt lat="45.64767" lon="5.76562">
        <ele>379.6</ele>
        <time>2022-04-15T13:44:09Z</time>
      </trkpt>
      <trkpt lat="45.64769" lon="5.76563">
        <ele>379.8</ele>
        <time>2022-04-15T13:44:10Z</time>
      </trkpt>
      <trkpt lat="45.6477" lon="5.76563">
        <ele>380</ele>
        <time>2022-04-15T13:44:11Z</time>
      </trkpt>
      <trkpt lat="45.64772" lon="5.76563">
        <ele>380.1</ele>
        <time>2022-04-15T13:44:12Z</time>
      </trkpt>
      <trkpt lat="45.64774" lon="5.76563">
        <ele>380.3</ele>
        <time>2022-04-15T13:44:13Z</time>
      </trkpt>
      <trkpt lat="45.64775" lon="5.76564">
        <ele>380.4</ele>
        <time>2022-04-15T13:44:14Z</time>
      </trkpt>
      <trkpt lat="45.64776" lon="5.76564">
        <ele>380.5</ele>
        <time>2022-04-15T13:44:15Z</time>
      </trkpt>
      <trkpt lat="45.64778" lon="5.76564">
        <ele>380.7</ele>
        <time>2022-04-15T13:44:16Z</time>
      </trkpt>
      <trkpt lat="45.64779" lon="5.76564">
        <ele>380.8</ele>
        <time>2022-04-15T13:44:17Z</time>
      </trkpt>
      <trkpt lat="45.64781" lon="5.76564">
        <ele>381</ele>
        <time>2022-04-15T13:44:18Z</time>
      </trkpt>
      <trkpt lat="45.64782" lon="5.76565">
        <ele>381.1</ele>
        <time>2022-04-15T13:44:19Z</time>
      </trkpt>
      <trkpt lat="45.64784" lon="5.76565">
        <ele>381.2</ele>
        <time>2022-04-15T13:44:20Z</time>
      </trkpt>
      <trkpt lat="45.64786" lon="5.76565">
        <ele>381.4</ele>
        <time>2022-04-15T13:44:21Z</time>
      </trkpt>
      <trkpt lat="45.64788" lon="5.76565">
        <ele>381.6</ele>
        <time>2022-04-15T13:44:22Z</time>
      </trkpt>
      <trkpt lat="45.64789" lon="5.76565">
        <ele>381.7</ele>
        <time>2022-04-15T13:44:23Z</time>
      </trkpt>
      <trkpt lat="45.6479" lon="5.76565">
        <ele>381.8</ele>
        <time>2022-04-15T13:44:24Z</time>
      </trkpt>
      <trkpt lat="45.64791" lon="5.76565">
        <ele>381.9</ele>
        <time>2022-04-15T13:44:25Z</time>
      </trkpt>
      <trkpt lat="45.64792" lon="5.76565">
        <ele>382</ele>
        <time>2022-04-15T13:44:26Z</time>
      </trkpt>
      <trkpt lat="45.64793" lon="5.76565">
        <ele>382.1</ele>
        <time>2022-04-15T13:44:27Z</time>
      </trkpt>
      <trkpt lat="45.64794" lon="5.76564">
        <ele>382.2</ele>
        <time>2022-04-15T13:44:28Z</time>
      </trkpt>
      <trkpt lat="45.64796" lon="5.76564">
        <ele>382.4</ele>
        <time>2022-04-15T13:44:29Z</time>
      </trkpt>
      <trkpt lat="45.64797" lon="5.76563">
        <ele>382.5</ele>
        <time>2022-04-15T13:44:30Z</time>
      </trkpt>
      <trkpt lat="45.64798" lon="5.76563">
        <ele>382.6</ele>
        <time>2022-04-15T13:44:31Z</time>
      </trkpt>
      <trkpt lat="45.648" lon="5.76563">
        <ele>382.8</ele>
        <time>2022-04-15T13:44:32Z</time>
      </trkpt>
      <trkpt lat="45.64801" lon="5.76563">
        <ele>382.9</ele>
        <time>2022-04-15T13:44:33Z</time>
      </trkpt>
      <trkpt lat="45.64802" lon="5.76563">
        <ele>382.9</ele>
        <time>2022-04-15T13:44:34Z</time>
      </trkpt>
      <trkpt lat="45.64803" lon="5.76563">
        <ele>383.1</ele>
        <time>2022-04-15T13:44:35Z</time>
      </trkpt>
      <trkpt lat="45.64804" lon="5.76563">
        <ele>383.2</ele>
        <time>2022-04-15T13:44:36Z</time>
      </trkpt>
      <trkpt lat="45.64807" lon="5.76563">
        <ele>383.4</ele>
        <time>2022-04-15T13:44:37Z</time>
      </trkpt>
      <trkpt lat="45.64807" lon="5.76563">
        <ele>383.5</ele>
        <time>2022-04-15T13:44:38Z</time>
      </trkpt>
      <trkpt lat="45.64808" lon="5.76563">
        <ele>383.6</ele>
        <time>2022-04-15T13:44:39Z</time>
      </trkpt>
      <trkpt lat="45.6481" lon="5.76563">
        <ele>383.7</ele>
        <time>2022-04-15T13:44:40Z</time>
      </trkpt>
      <trkpt lat="45.64811" lon="5.76563">
        <ele>383.9</ele>
        <time>2022-04-15T13:44:41Z</time>
      </trkpt>
      <trkpt lat="45.64813" lon="5.76563">
        <ele>384.1</ele>
        <time>2022-04-15T13:44:42Z</time>
      </trkpt>
      <trkpt lat="45.64814" lon="5.76563">
        <ele>384.2</ele>
        <time>2022-04-15T13:44:43Z</time>
      </trkpt>
      <trkpt lat="45.64815" lon="5.76563">
        <ele>384.3</ele>
        <time>2022-04-15T13:44:44Z</time>
      </trkpt>
      <trkpt lat="45.64817" lon="5.76563">
        <ele>384.4</ele>
        <time>2022-04-15T13:44:45Z</time>
      </trkpt>
      <trkpt lat="45.64818" lon="5.76563">
        <ele>384.6</ele>
        <time>2022-04-15T13:44:46Z</time>
      </trkpt>
      <trkpt lat="45.6482" lon="5.76563">
        <ele>384.8</ele>
        <time>2022-04-15T13:44:47Z</time>
      </trkpt>
      <trkpt lat="45.64821" lon="5.76563">
        <ele>384.9</ele>
        <time>2022-04-15T13:44:48Z</time>
      </trkpt>
      <trkpt lat="45.64822" lon="5.76563">
        <ele>385</ele>
        <time>2022-04-15T13:44:49Z</time>
      </trkpt>
      <trkpt lat="45.64824" lon="5.76563">
        <ele>385.1</ele>
        <time>2022-04-15T13:44:50Z</time>
      </trkpt>
      <trkpt lat="45.64826" lon="5.76563">
        <ele>385.3</ele>
        <time>2022-04-15T13:44:51Z</time>
      </trkpt>
      <trkpt lat="45.64827" lon="5.76563">
        <ele>385.4</ele>
        <time>2022-04-15T13:44:52Z</time>
      </trkpt>
      <trkpt lat="45.64828" lon="5.76563">
        <ele>385.5</ele>
        <time>2022-04-15T13:44:53Z</time>
      </trkpt>
      <trkpt lat="45.6483" lon="5.76563">
        <ele>385.7</ele>
        <time>2022-04-15T13:44:54Z</time>
      </trkpt>
      <trkpt lat="45.64832" lon="5.76563">
        <ele>385.9</ele>
        <time>2022-04-15T13:44:55Z</time>
      </trkpt>
      <trkpt lat="45.64833" lon="5.76562">
        <ele>386</ele>
        <time>2022-04-15T13:44:56Z</time>
      </trkpt>
      <trkpt lat="45.64835" lon="5.76562">
        <ele>386.2</ele>
        <time>2022-04-15T13:44:57Z</time>
      </trkpt>
      <trkpt lat="45.64836" lon="5.76561">
        <ele>386.3</ele>
        <time>2022-04-15T13:44:58Z</time>
      </trkpt>
      <trkpt lat="45.64837" lon="5.76561">
        <ele>386.4</ele>
        <time>2022-04-15T13:44:59Z</time>
      </trkpt>
      <trkpt lat="45.64838" lon="5.76561">
        <ele>386.5</ele>
        <time>2022-04-15T13:45:00Z</time>
      </trkpt>
      <trkpt lat="45.6484" lon="5.7656">
        <ele>386.7</ele>
        <time>2022-04-15T13:45:01Z</time>
      </trkpt>
      <trkpt lat="45.64841" lon="5.7656">
        <ele>386.8</ele>
        <time>2022-04-15T13:45:02Z</time>
      </trkpt>
      <trkpt lat="45.64842" lon="5.76559">
        <ele>386.9</ele>
        <time>2022-04-15T13:45:03Z</time>
      </trkpt>
      <trkpt lat="45.64843" lon="5.76558">
        <ele>387</ele>
        <time>2022-04-15T13:45:04Z</time>
      </trkpt>
      <trkpt lat="45.64844" lon="5.76558">
        <ele>387.1</ele>
        <time>2022-04-15T13:45:05Z</time>
      </trkpt>
      <trkpt lat="45.64845" lon="5.76557">
        <ele>387.2</ele>
        <time>2022-04-15T13:45:06Z</time>
      </trkpt>
      <trkpt lat="45.64846" lon="5.76557">
        <ele>387.3</ele>
        <time>2022-04-15T13:45:07Z</time>
      </trkpt>
      <trkpt lat="45.64848" lon="5.76557">
        <ele>387.5</ele>
        <time>2022-04-15T13:45:08Z</time>
      </trkpt>
      <trkpt lat="45.64849" lon="5.76556">
        <ele>387.6</ele>
        <time>2022-04-15T13:45:09Z</time>
      </trkpt>
      <trkpt lat="45.64851" lon="5.76555">
        <ele>387.8</ele>
        <time>2022-04-15T13:45:10Z</time>
      </trkpt>
      <trkpt lat="45.64852" lon="5.76554">
        <ele>387.9</ele>
        <time>2022-04-15T13:45:11Z</time>
      </trkpt>
      <trkpt lat="45.64854" lon="5.76554">
        <ele>388</ele>
        <time>2022-04-15T13:45:12Z</time>
      </trkpt>
      <trkpt lat="45.64855" lon="5.76553">
        <ele>388.2</ele>
        <time>2022-04-15T13:45:13Z</time>
      </trkpt>
      <trkpt lat="45.64857" lon="5.76552">
        <ele>388.4</ele>
        <time>2022-04-15T13:45:14Z</time>
      </trkpt>
      <trkpt lat="45.64858" lon="5.76551">
        <ele>388.5</ele>
        <time>2022-04-15T13:45:15Z</time>
      </trkpt>
      <trkpt lat="45.6486" lon="5.7655">
        <ele>388.7</ele>
        <time>2022-04-15T13:45:16Z</time>
      </trkpt>
      <trkpt lat="45.64862" lon="5.7655">
        <ele>388.9</ele>
        <time>2022-04-15T13:45:17Z</time>
      </trkpt>
      <trkpt lat="45.64863" lon="5.76549">
        <ele>389</ele>
        <time>2022-04-15T13:45:18Z</time>
      </trkpt>
      <trkpt lat="45.64865" lon="5.76548">
        <ele>389.2</ele>
        <time>2022-04-15T13:45:19Z</time>
      </trkpt>
      <trkpt lat="45.64866" lon="5.76548">
        <ele>389.3</ele>
        <time>2022-04-15T13:45:20Z</time>
      </trkpt>
      <trkpt lat="45.64868" lon="5.76547">
        <ele>389.5</ele>
        <time>2022-04-15T13:45:21Z</time>
      </trkpt>
      <trkpt lat="45.64869" lon="5.76546">
        <ele>389.6</ele>
        <time>2022-04-15T13:45:22Z</time>
      </trkpt>
      <trkpt lat="45.64872" lon="5.76546">
        <ele>389.8</ele>
        <time>2022-04-15T13:45:23Z</time>
      </trkpt>
      <trkpt lat="45.64873" lon="5.76545">
        <ele>389.9</ele>
        <time>2022-04-15T13:45:24Z</time>
      </trkpt>
      <trkpt lat="45.64873" lon="5.76545">
        <ele>390</ele>
        <time>2022-04-15T13:45:25Z</time>
      </trkpt>
      <trkpt lat="45.64875" lon="5.76545">
        <ele>390.2</ele>
        <time>2022-04-15T13:45:26Z</time>
      </trkpt>
      <trkpt lat="45.64877" lon="5.76544">
        <ele>390.3</ele>
        <time>2022-04-15T13:45:27Z</time>
      </trkpt>
      <trkpt lat="45.64878" lon="5.76544">
        <ele>390.5</ele>
        <time>2022-04-15T13:45:28Z</time>
      </trkpt>
      <trkpt lat="45.6488" lon="5.76543">
        <ele>390.7</ele>
        <time>2022-04-15T13:45:29Z</time>
      </trkpt>
      <trkpt lat="45.64882" lon="5.76543">
        <ele>390.9</ele>
        <time>2022-04-15T13:45:30Z</time>
      </trkpt>
      <trkpt lat="45.64883" lon="5.76542">
        <ele>390.9</ele>
        <time>2022-04-15T13:45:31Z</time>
      </trkpt>
      <trkpt lat="45.64884" lon="5.76542">
        <ele>391</ele>
        <time>2022-04-15T13:45:32Z</time>
      </trkpt>
      <trkpt lat="45.64886" lon="5.76542">
        <ele>391.2</ele>
        <time>2022-04-15T13:45:33Z</time>
      </trkpt>
      <trkpt lat="45.64887" lon="5.76542">
        <ele>391.3</ele>
        <time>2022-04-15T13:45:34Z</time>
      </trkpt>
      <trkpt lat="45.64888" lon="5.76541">
        <ele>391.4</ele>
        <time>2022-04-15T13:45:35Z</time>
      </trkpt>
      <trkpt lat="45.6489" lon="5.76541">
        <ele>391.6</ele>
        <time>2022-04-15T13:45:36Z</time>
      </trkpt>
      <trkpt lat="45.6489" lon="5.76541">
        <ele>391.7</ele>
        <time>2022-04-15T13:45:37Z</time>
      </trkpt>
      <trkpt lat="45.64891" lon="5.76541">
        <ele>391.8</ele>
        <time>2022-04-15T13:45:38Z</time>
      </trkpt>
      <trkpt lat="45.64893" lon="5.76541">
        <ele>391.9</ele>
        <time>2022-04-15T13:45:39Z</time>
      </trkpt>
      <trkpt lat="45.64894" lon="5.76541">
        <ele>392</ele>
        <time>2022-04-15T13:45:40Z</time>
      </trkpt>
      <trkpt lat="45.64894" lon="5.76541">
        <ele>392.1</ele>
        <time>2022-04-15T13:45:41Z</time>
      </trkpt>
      <trkpt lat="45.64896" lon="5.76541">
        <ele>392.2</ele>
        <time>2022-04-15T13:45:42Z</time>
      </trkpt>
      <trkpt lat="45.64896" lon="5.76541">
        <ele>392.3</ele>
        <time>2022-04-15T13:45:43Z</time>
      </trkpt>
      <trkpt lat="45.64898" lon="5.76541">
        <ele>392.4</ele>
        <time>2022-04-15T13:45:44Z</time>
      </trkpt>
      <trkpt lat="45.64898" lon="5.76541">
        <ele>392.5</ele>
        <time>2022-04-15T13:45:45Z</time>
      </trkpt>
      <trkpt lat="45.64899" lon="5.76541">
        <ele>392.6</ele>
        <time>2022-04-15T13:45:46Z</time>
      </trkpt>
      <trkpt lat="45.64901" lon="5.76542">
        <ele>392.7</ele>
        <time>2022-04-15T13:45:47Z</time>
      </trkpt>
      <trkpt lat="45.64902" lon="5.76542">
        <ele>392.8</ele>
        <time>2022-04-15T13:45:48Z</time>
      </trkpt>
      <trkpt lat="45.64903" lon="5.76542">
        <ele>393</ele>
        <time>2022-04-15T13:45:49Z</time>
      </trkpt>
      <trkpt lat="45.64904" lon="5.76542">
        <ele>393.1</ele>
        <time>2022-04-15T13:45:50Z</time>
      </trkpt>
      <trkpt lat="45.64905" lon="5.76542">
        <ele>393.2</ele>
        <time>2022-04-15T13:45:51Z</time>
      </trkpt>
      <trkpt lat="45.64906" lon="5.76542">
        <ele>393.2</ele>
        <time>2022-04-15T13:45:52Z</time>
      </trkpt>
      <trkpt lat="45.64908" lon="5.76542">
        <ele>393.4</ele>
        <time>2022-04-15T13:45:53Z</time>
      </trkpt>
      <trkpt lat="45.64909" lon="5.76542">
        <ele>393.5</ele>
        <time>2022-04-15T13:45:54Z</time>
      </trkpt>
      <trkpt lat="45.6491" lon="5.76543">
        <ele>393.7</ele>
        <time>2022-04-15T13:45:55Z</time>
      </trkpt>
      <trkpt lat="45.64912" lon="5.76543">
        <ele>393.8</ele>
        <time>2022-04-15T13:45:56Z</time>
      </trkpt>
      <trkpt lat="45.64913" lon="5.76544">
        <ele>394</ele>
        <time>2022-04-15T13:45:57Z</time>
      </trkpt>
      <trkpt lat="45.64915" lon="5.76545">
        <ele>394.1</ele>
        <time>2022-04-15T13:45:58Z</time>
      </trkpt>
      <trkpt lat="45.64916" lon="5.76546">
        <ele>394.3</ele>
        <time>2022-04-15T13:45:59Z</time>
      </trkpt>
      <trkpt lat="45.64917" lon="5.76547">
        <ele>394.4</ele>
        <time>2022-04-15T13:46:00Z</time>
      </trkpt>
      <trkpt lat="45.64919" lon="5.76547">
        <ele>394.6</ele>
        <time>2022-04-15T13:46:01Z</time>
      </trkpt>
      <trkpt lat="45.6492" lon="5.76548">
        <ele>394.7</ele>
        <time>2022-04-15T13:46:02Z</time>
      </trkpt>
      <trkpt lat="45.64922" lon="5.76549">
        <ele>394.9</ele>
        <time>2022-04-15T13:46:03Z</time>
      </trkpt>
      <trkpt lat="45.64923" lon="5.7655">
        <ele>395.1</ele>
        <time>2022-04-15T13:46:04Z</time>
      </trkpt>
      <trkpt lat="45.64925" lon="5.7655">
        <ele>395.2</ele>
        <time>2022-04-15T13:46:05Z</time>
      </trkpt>
      <trkpt lat="45.64927" lon="5.76551">
        <ele>395.4</ele>
        <time>2022-04-15T13:46:06Z</time>
      </trkpt>
      <trkpt lat="45.64928" lon="5.76552">
        <ele>395.5</ele>
        <time>2022-04-15T13:46:07Z</time>
      </trkpt>
      <trkpt lat="45.6493" lon="5.76553">
        <ele>395.7</ele>
        <time>2022-04-15T13:46:08Z</time>
      </trkpt>
      <trkpt lat="45.64931" lon="5.76554">
        <ele>395.9</ele>
        <time>2022-04-15T13:46:09Z</time>
      </trkpt>
      <trkpt lat="45.64932" lon="5.76556">
        <ele>396</ele>
        <time>2022-04-15T13:46:10Z</time>
      </trkpt>
      <trkpt lat="45.64934" lon="5.76556">
        <ele>396.2</ele>
        <time>2022-04-15T13:46:11Z</time>
      </trkpt>
      <trkpt lat="45.64936" lon="5.76557">
        <ele>396.4</ele>
        <time>2022-04-15T13:46:12Z</time>
      </trkpt>
      <trkpt lat="45.64937" lon="5.76558">
        <ele>396.5</ele>
        <time>2022-04-15T13:46:13Z</time>
      </trkpt>
      <trkpt lat="45.64937" lon="5.76559">
        <ele>396.6</ele>
        <time>2022-04-15T13:46:14Z</time>
      </trkpt>
      <trkpt lat="45.64938" lon="5.7656">
        <ele>396.7</ele>
        <time>2022-04-15T13:46:15Z</time>
      </trkpt>
      <trkpt lat="45.6494" lon="5.76561">
        <ele>396.8</ele>
        <time>2022-04-15T13:46:16Z</time>
      </trkpt>
      <trkpt lat="45.64941" lon="5.76563">
        <ele>397</ele>
        <time>2022-04-15T13:46:17Z</time>
      </trkpt>
      <trkpt lat="45.64943" lon="5.76564">
        <ele>397.2</ele>
        <time>2022-04-15T13:46:18Z</time>
      </trkpt>
      <trkpt lat="45.64944" lon="5.76565">
        <ele>397.3</ele>
        <time>2022-04-15T13:46:19Z</time>
      </trkpt>
      <trkpt lat="45.64945" lon="5.76566">
        <ele>397.5</ele>
        <time>2022-04-15T13:46:20Z</time>
      </trkpt>
      <trkpt lat="45.64946" lon="5.76568">
        <ele>397.6</ele>
        <time>2022-04-15T13:46:21Z</time>
      </trkpt>
      <trkpt lat="45.64947" lon="5.76569">
        <ele>397.7</ele>
        <time>2022-04-15T13:46:22Z</time>
      </trkpt>
      <trkpt lat="45.64949" lon="5.76571">
        <ele>397.9</ele>
        <time>2022-04-15T13:46:23Z</time>
      </trkpt>
      <trkpt lat="45.6495" lon="5.76572">
        <ele>398</ele>
        <time>2022-04-15T13:46:24Z</time>
      </trkpt>
      <trkpt lat="45.64951" lon="5.76573">
        <ele>398.1</ele>
        <time>2022-04-15T13:46:25Z</time>
      </trkpt>
      <trkpt lat="45.64952" lon="5.76573">
        <ele>398.2</ele>
        <time>2022-04-15T13:46:26Z</time>
      </trkpt>
      <trkpt lat="45.64954" lon="5.76574">
        <ele>398.4</ele>
        <time>2022-04-15T13:46:27Z</time>
      </trkpt>
      <trkpt lat="45.64955" lon="5.76574">
        <ele>398.5</ele>
        <time>2022-04-15T13:46:28Z</time>
      </trkpt>
      <trkpt lat="45.64957" lon="5.76575">
        <ele>398.6</ele>
        <time>2022-04-15T13:46:29Z</time>
      </trkpt>
      <trkpt lat="45.64959" lon="5.76577">
        <ele>398.9</ele>
        <time>2022-04-15T13:46:30Z</time>
      </trkpt>
      <trkpt lat="45.6496" lon="5.76577">
        <ele>399</ele>
        <time>2022-04-15T13:46:31Z</time>
      </trkpt>
      <trkpt lat="45.64963" lon="5.76579">
        <ele>399.2</ele>
        <time>2022-04-15T13:46:32Z</time>
      </trkpt>
      <trkpt lat="45.64964" lon="5.76579">
        <ele>399.3</ele>
        <time>2022-04-15T13:46:33Z</time>
      </trkpt>
      <trkpt lat="45.64967" lon="5.76581">
        <ele>399.6</ele>
        <time>2022-04-15T13:46:34Z</time>
      </trkpt>
      <trkpt lat="45.64967" lon="5.76582">
        <ele>399.6</ele>
        <time>2022-04-15T13:46:35Z</time>
      </trkpt>
      <trkpt lat="45.64968" lon="5.76583">
        <ele>399.7</ele>
        <time>2022-04-15T13:46:36Z</time>
      </trkpt>
      <trkpt lat="45.6497" lon="5.76584">
        <ele>399.9</ele>
        <time>2022-04-15T13:46:37Z</time>
      </trkpt>
      <trkpt lat="45.64973" lon="5.76586">
        <ele>400.1</ele>
        <time>2022-04-15T13:46:38Z</time>
      </trkpt>
      <trkpt lat="45.64974" lon="5.76587">
        <ele>400.2</ele>
        <time>2022-04-15T13:46:39Z</time>
      </trkpt>
      <trkpt lat="45.64976" lon="5.76588">
        <ele>400.4</ele>
        <time>2022-04-15T13:46:40Z</time>
      </trkpt>
      <trkpt lat="45.64977" lon="5.76589">
        <ele>400.5</ele>
        <time>2022-04-15T13:46:41Z</time>
      </trkpt>
      <trkpt lat="45.64978" lon="5.7659">
        <ele>400.6</ele>
        <time>2022-04-15T13:46:42Z</time>
      </trkpt>
      <trkpt lat="45.6498" lon="5.76592">
        <ele>400.7</ele>
        <time>2022-04-15T13:46:43Z</time>
      </trkpt>
      <trkpt lat="45.64981" lon="5.76594">
        <ele>400.9</ele>
        <time>2022-04-15T13:46:44Z</time>
      </trkpt>
      <trkpt lat="45.64983" lon="5.76595">
        <ele>401</ele>
        <time>2022-04-15T13:46:45Z</time>
      </trkpt>
      <trkpt lat="45.64984" lon="5.76596">
        <ele>401.1</ele>
        <time>2022-04-15T13:46:46Z</time>
      </trkpt>
      <trkpt lat="45.64985" lon="5.76598">
        <ele>401.2</ele>
        <time>2022-04-15T13:46:47Z</time>
      </trkpt>
      <trkpt lat="45.64986" lon="5.76599">
        <ele>401.3</ele>
        <time>2022-04-15T13:46:48Z</time>
      </trkpt>
      <trkpt lat="45.64988" lon="5.76603">
        <ele>401.6</ele>
        <time>2022-04-15T13:46:50Z</time>
      </trkpt>
      <trkpt lat="45.64989" lon="5.76604">
        <ele>401.7</ele>
        <time>2022-04-15T13:46:51Z</time>
      </trkpt>
      <trkpt lat="45.6499" lon="5.76605">
        <ele>401.8</ele>
        <time>2022-04-15T13:46:52Z</time>
      </trkpt>
      <trkpt lat="45.64993" lon="5.76608">
        <ele>402</ele>
        <time>2022-04-15T13:46:54Z</time>
      </trkpt>
      <trkpt lat="45.64994" lon="5.7661">
        <ele>402.1</ele>
        <time>2022-04-15T13:46:55Z</time>
      </trkpt>
      <trkpt lat="45.64995" lon="5.76611">
        <ele>402.2</ele>
        <time>2022-04-15T13:46:56Z</time>
      </trkpt>
      <trkpt lat="45.64996" lon="5.76613">
        <ele>402.3</ele>
        <time>2022-04-15T13:46:57Z</time>
      </trkpt>
      <trkpt lat="45.64998" lon="5.76615">
        <ele>402.5</ele>
        <time>2022-04-15T13:46:58Z</time>
      </trkpt>
      <trkpt lat="45.65" lon="5.76618">
        <ele>402.7</ele>
        <time>2022-04-15T13:47:00Z</time>
      </trkpt>
      <trkpt lat="45.65002" lon="5.7662">
        <ele>402.8</ele>
        <time>2022-04-15T13:47:01Z</time>
      </trkpt>
      <trkpt lat="45.65003" lon="5.76622">
        <ele>402.9</ele>
        <time>2022-04-15T13:47:02Z</time>
      </trkpt>
      <trkpt lat="45.65005" lon="5.76624">
        <ele>403.1</ele>
        <time>2022-04-15T13:47:03Z</time>
      </trkpt>
      <trkpt lat="45.65006" lon="5.76625">
        <ele>403.2</ele>
        <time>2022-04-15T13:47:04Z</time>
      </trkpt>
      <trkpt lat="45.65007" lon="5.76626">
        <ele>403.2</ele>
        <time>2022-04-15T13:47:05Z</time>
      </trkpt>
      <trkpt lat="45.65007" lon="5.76628">
        <ele>403.3</ele>
        <time>2022-04-15T13:47:06Z</time>
      </trkpt>
      <trkpt lat="45.65009" lon="5.7663">
        <ele>403.4</ele>
        <time>2022-04-15T13:47:07Z</time>
      </trkpt>
      <trkpt lat="45.6501" lon="5.76631">
        <ele>403.5</ele>
        <time>2022-04-15T13:47:08Z</time>
      </trkpt>
      <trkpt lat="45.65011" lon="5.76633">
        <ele>403.6</ele>
        <time>2022-04-15T13:47:09Z</time>
      </trkpt>
      <trkpt lat="45.65012" lon="5.76634">
        <ele>403.7</ele>
        <time>2022-04-15T13:47:10Z</time>
      </trkpt>
      <trkpt lat="45.65014" lon="5.76637">
        <ele>403.9</ele>
        <time>2022-04-15T13:47:11Z</time>
      </trkpt>
      <trkpt lat="45.65014" lon="5.76638">
        <ele>403.9</ele>
        <time>2022-04-15T13:47:12Z</time>
      </trkpt>
      <trkpt lat="45.65015" lon="5.76639">
        <ele>404</ele>
        <time>2022-04-15T13:47:13Z</time>
      </trkpt>
      <trkpt lat="45.65016" lon="5.76641">
        <ele>404.1</ele>
        <time>2022-04-15T13:47:14Z</time>
      </trkpt>
      <trkpt lat="45.65017" lon="5.76642">
        <ele>404.2</ele>
        <time>2022-04-15T13:47:15Z</time>
      </trkpt>
      <trkpt lat="45.65019" lon="5.76644">
        <ele>404.3</ele>
        <time>2022-04-15T13:47:16Z</time>
      </trkpt>
      <trkpt lat="45.6502" lon="5.76645">
        <ele>404.4</ele>
        <time>2022-04-15T13:47:17Z</time>
      </trkpt>
      <trkpt lat="45.65021" lon="5.76647">
        <ele>404.5</ele>
        <time>2022-04-15T13:47:18Z</time>
      </trkpt>
      <trkpt lat="45.65022" lon="5.76649">
        <ele>404.6</ele>
        <time>2022-04-15T13:47:19Z</time>
      </trkpt>
      <trkpt lat="45.65025" lon="5.76652">
        <ele>404.8</ele>
        <time>2022-04-15T13:47:20Z</time>
      </trkpt>
      <trkpt lat="45.65026" lon="5.76653">
        <ele>404.8</ele>
        <time>2022-04-15T13:47:21Z</time>
      </trkpt>
      <trkpt lat="45.65027" lon="5.76654">
        <ele>405</ele>
        <time>2022-04-15T13:47:22Z</time>
      </trkpt>
      <trkpt lat="45.65028" lon="5.76655">
        <ele>405</ele>
        <time>2022-04-15T13:47:23Z</time>
      </trkpt>
      <trkpt lat="45.65031" lon="5.76658">
        <ele>405.2</ele>
        <time>2022-04-15T13:47:24Z</time>
      </trkpt>
      <trkpt lat="45.65032" lon="5.76658">
        <ele>405.3</ele>
        <time>2022-04-15T13:47:25Z</time>
      </trkpt>
      <trkpt lat="45.65033" lon="5.76659">
        <ele>405.4</ele>
        <time>2022-04-15T13:47:26Z</time>
      </trkpt>
      <trkpt lat="45.65035" lon="5.76661">
        <ele>405.5</ele>
        <time>2022-04-15T13:47:27Z</time>
      </trkpt>
      <trkpt lat="45.65036" lon="5.76662">
        <ele>405.6</ele>
        <time>2022-04-15T13:47:28Z</time>
      </trkpt>
      <trkpt lat="45.65038" lon="5.76663">
        <ele>405.7</ele>
        <time>2022-04-15T13:47:29Z</time>
      </trkpt>
      <trkpt lat="45.65039" lon="5.76664">
        <ele>405.8</ele>
        <time>2022-04-15T13:47:30Z</time>
      </trkpt>
      <trkpt lat="45.65041" lon="5.76665">
        <ele>405.9</ele>
        <time>2022-04-15T13:47:31Z</time>
      </trkpt>
      <trkpt lat="45.65042" lon="5.76667">
        <ele>406</ele>
        <time>2022-04-15T13:47:32Z</time>
      </trkpt>
      <trkpt lat="45.65044" lon="5.76668">
        <ele>406.1</ele>
        <time>2022-04-15T13:47:33Z</time>
      </trkpt>
      <trkpt lat="45.65045" lon="5.76668">
        <ele>406.2</ele>
        <time>2022-04-15T13:47:34Z</time>
      </trkpt>
      <trkpt lat="45.65047" lon="5.76669">
        <ele>406.4</ele>
        <time>2022-04-15T13:47:35Z</time>
      </trkpt>
      <trkpt lat="45.65048" lon="5.76669">
        <ele>406.5</ele>
        <time>2022-04-15T13:47:36Z</time>
      </trkpt>
      <trkpt lat="45.6505" lon="5.7667">
        <ele>406.6</ele>
        <time>2022-04-15T13:47:37Z</time>
      </trkpt>
      <trkpt lat="45.65052" lon="5.76671">
        <ele>406.7</ele>
        <time>2022-04-15T13:47:38Z</time>
      </trkpt>
      <trkpt lat="45.65053" lon="5.76671">
        <ele>406.8</ele>
        <time>2022-04-15T13:47:39Z</time>
      </trkpt>
      <trkpt lat="45.65056" lon="5.76672">
        <ele>407</ele>
        <time>2022-04-15T13:47:40Z</time>
      </trkpt>
      <trkpt lat="45.65057" lon="5.76672">
        <ele>407</ele>
        <time>2022-04-15T13:47:41Z</time>
      </trkpt>
      <trkpt lat="45.6506" lon="5.76673">
        <ele>407.3</ele>
        <time>2022-04-15T13:47:42Z</time>
      </trkpt>
      <trkpt lat="45.65061" lon="5.76673">
        <ele>407.3</ele>
        <time>2022-04-15T13:47:43Z</time>
      </trkpt>
      <trkpt lat="45.65064" lon="5.76673">
        <ele>407.5</ele>
        <time>2022-04-15T13:47:44Z</time>
      </trkpt>
      <trkpt lat="45.65065" lon="5.76673">
        <ele>407.6</ele>
        <time>2022-04-15T13:47:45Z</time>
      </trkpt>
      <trkpt lat="45.65069" lon="5.76673">
        <ele>407.8</ele>
        <time>2022-04-15T13:47:46Z</time>
      </trkpt>
      <trkpt lat="45.65069" lon="5.76673">
        <ele>407.9</ele>
        <time>2022-04-15T13:47:47Z</time>
      </trkpt>
      <trkpt lat="45.65072" lon="5.76673">
        <ele>408</ele>
        <time>2022-04-15T13:47:48Z</time>
      </trkpt>
      <trkpt lat="45.65073" lon="5.76673">
        <ele>408.1</ele>
        <time>2022-04-15T13:47:49Z</time>
      </trkpt>
      <trkpt lat="45.65076" lon="5.76672">
        <ele>408.3</ele>
        <time>2022-04-15T13:47:50Z</time>
      </trkpt>
      <trkpt lat="45.65077" lon="5.76672">
        <ele>408.3</ele>
        <time>2022-04-15T13:47:51Z</time>
      </trkpt>
      <trkpt lat="45.65078" lon="5.76672">
        <ele>408.4</ele>
        <time>2022-04-15T13:47:52Z</time>
      </trkpt>
      <trkpt lat="45.65081" lon="5.76671">
        <ele>408.6</ele>
        <time>2022-04-15T13:47:53Z</time>
      </trkpt>
      <trkpt lat="45.65084" lon="5.76671">
        <ele>408.7</ele>
        <time>2022-04-15T13:47:54Z</time>
      </trkpt>
      <trkpt lat="45.65085" lon="5.76671">
        <ele>408.8</ele>
        <time>2022-04-15T13:47:55Z</time>
      </trkpt>
      <trkpt lat="45.65088" lon="5.76671">
        <ele>409</ele>
        <time>2022-04-15T13:47:56Z</time>
      </trkpt>
      <trkpt lat="45.65089" lon="5.76671">
        <ele>409</ele>
        <time>2022-04-15T13:47:57Z</time>
      </trkpt>
      <trkpt lat="45.6509" lon="5.7667">
        <ele>409.1</ele>
        <time>2022-04-15T13:47:58Z</time>
      </trkpt>
      <trkpt lat="45.65092" lon="5.7667">
        <ele>409.2</ele>
        <time>2022-04-15T13:47:59Z</time>
      </trkpt>
      <trkpt lat="45.65095" lon="5.7667">
        <ele>409.4</ele>
        <time>2022-04-15T13:48:00Z</time>
      </trkpt>
      <trkpt lat="45.65096" lon="5.7667">
        <ele>409.5</ele>
        <time>2022-04-15T13:48:01Z</time>
      </trkpt>
      <trkpt lat="45.65099" lon="5.7667">
        <ele>409.6</ele>
        <time>2022-04-15T13:48:02Z</time>
      </trkpt>
      <trkpt lat="45.651" lon="5.7667">
        <ele>409.7</ele>
        <time>2022-04-15T13:48:03Z</time>
      </trkpt>
      <trkpt lat="45.65102" lon="5.7667">
        <ele>409.8</ele>
        <time>2022-04-15T13:48:04Z</time>
      </trkpt>
      <trkpt lat="45.65105" lon="5.7667">
        <ele>410</ele>
        <time>2022-04-15T13:48:06Z</time>
      </trkpt>
      <trkpt lat="45.65107" lon="5.7667">
        <ele>410.1</ele>
        <time>2022-04-15T13:48:07Z</time>
      </trkpt>
      <trkpt lat="45.65108" lon="5.7667">
        <ele>410.2</ele>
        <time>2022-04-15T13:48:08Z</time>
      </trkpt>
      <trkpt lat="45.6511" lon="5.7667">
        <ele>410.3</ele>
        <time>2022-04-15T13:48:09Z</time>
      </trkpt>
      <trkpt lat="45.65112" lon="5.7667">
        <ele>410.4</ele>
        <time>2022-04-15T13:48:10Z</time>
      </trkpt>
      <trkpt lat="45.65115" lon="5.7667">
        <ele>410.5</ele>
        <time>2022-04-15T13:48:11Z</time>
      </trkpt>
      <trkpt lat="45.65116" lon="5.7667">
        <ele>410.6</ele>
        <time>2022-04-15T13:48:12Z</time>
      </trkpt>
      <trkpt lat="45.65119" lon="5.76669">
        <ele>410.8</ele>
        <time>2022-04-15T13:48:13Z</time>
      </trkpt>
      <trkpt lat="45.6512" lon="5.76669">
        <ele>410.9</ele>
        <time>2022-04-15T13:48:14Z</time>
      </trkpt>
      <trkpt lat="45.65124" lon="5.7667">
        <ele>411.1</ele>
        <time>2022-04-15T13:48:16Z</time>
      </trkpt>
      <trkpt lat="45.65126" lon="5.7667">
        <ele>411.2</ele>
        <time>2022-04-15T13:48:17Z</time>
      </trkpt>
      <trkpt lat="45.65127" lon="5.7667">
        <ele>411.3</ele>
        <time>2022-04-15T13:48:18Z</time>
      </trkpt>
      <trkpt lat="45.65129" lon="5.7667">
        <ele>411.4</ele>
        <time>2022-04-15T13:48:19Z</time>
      </trkpt>
      <trkpt lat="45.65133" lon="5.7667">
        <ele>411.6</ele>
        <time>2022-04-15T13:48:21Z</time>
      </trkpt>
      <trkpt lat="45.65135" lon="5.7667">
        <ele>411.8</ele>
        <time>2022-04-15T13:48:22Z</time>
      </trkpt>
      <trkpt lat="45.65136" lon="5.7667">
        <ele>411.9</ele>
        <time>2022-04-15T13:48:23Z</time>
      </trkpt>
      <trkpt lat="45.65139" lon="5.76669">
        <ele>412</ele>
        <time>2022-04-15T13:48:24Z</time>
      </trkpt>
      <trkpt lat="45.6514" lon="5.76669">
        <ele>412.1</ele>
        <time>2022-04-15T13:48:25Z</time>
      </trkpt>
      <trkpt lat="45.65142" lon="5.76669">
        <ele>412.2</ele>
        <time>2022-04-15T13:48:26Z</time>
      </trkpt>
      <trkpt lat="45.65145" lon="5.76668">
        <ele>412.4</ele>
        <time>2022-04-15T13:48:27Z</time>
      </trkpt>
      <trkpt lat="45.65148" lon="5.76669">
        <ele>412.5</ele>
        <time>2022-04-15T13:48:29Z</time>
      </trkpt>
      <trkpt lat="45.65149" lon="5.76669">
        <ele>412.6</ele>
        <time>2022-04-15T13:48:30Z</time>
      </trkpt>
      <trkpt lat="45.6515" lon="5.76669">
        <ele>412.7</ele>
        <time>2022-04-15T13:48:31Z</time>
      </trkpt>
      <trkpt lat="45.65154" lon="5.76669">
        <ele>412.9</ele>
        <time>2022-04-15T13:48:33Z</time>
      </trkpt>
      <trkpt lat="45.65157" lon="5.76671">
        <ele>413.1</ele>
        <time>2022-04-15T13:48:35Z</time>
      </trkpt>
      <trkpt lat="45.65159" lon="5.76673">
        <ele>413.2</ele>
        <time>2022-04-15T13:48:36Z</time>
      </trkpt>
      <trkpt lat="45.65162" lon="5.76676">
        <ele>413.4</ele>
        <time>2022-04-15T13:48:38Z</time>
      </trkpt>
      <trkpt lat="45.65165" lon="5.76678">
        <ele>413.5</ele>
        <time>2022-04-15T13:48:39Z</time>
      </trkpt>
      <trkpt lat="45.65166" lon="5.76678">
        <ele>413.6</ele>
        <time>2022-04-15T13:48:40Z</time>
      </trkpt>
      <trkpt lat="45.65168" lon="5.7668">
        <ele>413.7</ele>
        <time>2022-04-15T13:48:41Z</time>
      </trkpt>
      <trkpt lat="45.65172" lon="5.7668">
        <ele>413.8</ele>
        <time>2022-04-15T13:48:43Z</time>
      </trkpt>
      <trkpt lat="45.65175" lon="5.7668">
        <ele>413.8</ele>
        <time>2022-04-15T13:48:44Z</time>
      </trkpt>
      <trkpt lat="45.65181" lon="5.7668">
        <ele>413.8</ele>
        <time>2022-04-15T13:48:46Z</time>
      </trkpt>
      <trkpt lat="45.65186" lon="5.76681">
        <ele>413.8</ele>
        <time>2022-04-15T13:48:47Z</time>
      </trkpt>
      <trkpt lat="45.65189" lon="5.76681">
        <ele>413.9</ele>
        <time>2022-04-15T13:48:49Z</time>
      </trkpt>
      <trkpt lat="45.65192" lon="5.76681">
        <ele>413.9</ele>
        <time>2022-04-15T13:48:50Z</time>
      </trkpt>
      <trkpt lat="45.65198" lon="5.76681">
        <ele>413.9</ele>
        <time>2022-04-15T13:48:51Z</time>
      </trkpt>
      <trkpt lat="45.65202" lon="5.76682">
        <ele>413.9</ele>
        <time>2022-04-15T13:48:53Z</time>
      </trkpt>
      <trkpt lat="45.65207" lon="5.76682">
        <ele>414</ele>
        <time>2022-04-15T13:48:54Z</time>
      </trkpt>
      <trkpt lat="45.65212" lon="5.76683">
        <ele>414</ele>
        <time>2022-04-15T13:48:55Z</time>
      </trkpt>
      <trkpt lat="45.65216" lon="5.76683">
        <ele>414</ele>
        <time>2022-04-15T13:48:57Z</time>
      </trkpt>
      <trkpt lat="45.65219" lon="5.76684">
        <ele>414</ele>
        <time>2022-04-15T13:48:58Z</time>
      </trkpt>
      <trkpt lat="45.65224" lon="5.76685">
        <ele>414.1</ele>
        <time>2022-04-15T13:48:59Z</time>
      </trkpt>
      <trkpt lat="45.65228" lon="5.76686">
        <ele>414.1</ele>
        <time>2022-04-15T13:49:00Z</time>
      </trkpt>
      <trkpt lat="45.65232" lon="5.76686">
        <ele>414.1</ele>
        <time>2022-04-15T13:49:01Z</time>
      </trkpt>
      <trkpt lat="45.65239" lon="5.76686">
        <ele>414.1</ele>
        <time>2022-04-15T13:49:03Z</time>
      </trkpt>
      <trkpt lat="45.65244" lon="5.76687">
        <ele>414.1</ele>
        <time>2022-04-15T13:49:05Z</time>
      </trkpt>
      <trkpt lat="45.6525" lon="5.76688">
        <ele>414.1</ele>
        <time>2022-04-15T13:49:06Z</time>
      </trkpt>
      <trkpt lat="45.65254" lon="5.76688">
        <ele>414.1</ele>
        <time>2022-04-15T13:49:07Z</time>
      </trkpt>
      <trkpt lat="45.65259" lon="5.76688">
        <ele>414.1</ele>
        <time>2022-04-15T13:49:09Z</time>
      </trkpt>
      <trkpt lat="45.65264" lon="5.76689">
        <ele>414</ele>
        <time>2022-04-15T13:49:10Z</time>
      </trkpt>
      <trkpt lat="45.65271" lon="5.7669">
        <ele>414</ele>
        <time>2022-04-15T13:49:12Z</time>
      </trkpt>
      <trkpt lat="45.65275" lon="5.76691">
        <ele>414</ele>
        <time>2022-04-15T13:49:13Z</time>
      </trkpt>
      <trkpt lat="45.65281" lon="5.76692">
        <ele>413.9</ele>
        <time>2022-04-15T13:49:14Z</time>
      </trkpt>
      <trkpt lat="45.65285" lon="5.76693">
        <ele>413.9</ele>
        <time>2022-04-15T13:49:16Z</time>
      </trkpt>
      <trkpt lat="45.6529" lon="5.76694">
        <ele>413.8</ele>
        <time>2022-04-15T13:49:17Z</time>
      </trkpt>
      <trkpt lat="45.65298" lon="5.767">
        <ele>413.7</ele>
        <time>2022-04-15T13:49:19Z</time>
      </trkpt>
      <trkpt lat="45.65303" lon="5.76707">
        <ele>413.5</ele>
        <time>2022-04-15T13:49:20Z</time>
      </trkpt>
      <trkpt lat="45.65306" lon="5.76713">
        <ele>413.4</ele>
        <time>2022-04-15T13:49:21Z</time>
      </trkpt>
      <trkpt lat="45.65309" lon="5.76719">
        <ele>413.3</ele>
        <time>2022-04-15T13:49:22Z</time>
      </trkpt>
      <trkpt lat="45.65311" lon="5.76725">
        <ele>413.2</ele>
        <time>2022-04-15T13:49:23Z</time>
      </trkpt>
      <trkpt lat="45.65313" lon="5.76732">
        <ele>413</ele>
        <time>2022-04-15T13:49:24Z</time>
      </trkpt>
      <trkpt lat="45.65314" lon="5.7674">
        <ele>412.9</ele>
        <time>2022-04-15T13:49:25Z</time>
      </trkpt>
      <trkpt lat="45.65315" lon="5.76747">
        <ele>412.8</ele>
        <time>2022-04-15T13:49:26Z</time>
      </trkpt>
      <trkpt lat="45.65317" lon="5.76754">
        <ele>412.8</ele>
        <time>2022-04-15T13:49:27Z</time>
      </trkpt>
      <trkpt lat="45.65319" lon="5.76761">
        <ele>412.7</ele>
        <time>2022-04-15T13:49:28Z</time>
      </trkpt>
      <trkpt lat="45.6532" lon="5.76768">
        <ele>412.6</ele>
        <time>2022-04-15T13:49:29Z</time>
      </trkpt>
      <trkpt lat="45.65322" lon="5.76776">
        <ele>412.6</ele>
        <time>2022-04-15T13:49:30Z</time>
      </trkpt>
      <trkpt lat="45.65324" lon="5.76783">
        <ele>412.5</ele>
        <time>2022-04-15T13:49:31Z</time>
      </trkpt>
      <trkpt lat="45.65326" lon="5.7679">
        <ele>412.4</ele>
        <time>2022-04-15T13:49:32Z</time>
      </trkpt>
      <trkpt lat="45.65329" lon="5.76797">
        <ele>412.4</ele>
        <time>2022-04-15T13:49:33Z</time>
      </trkpt>
      <trkpt lat="45.65331" lon="5.76804">
        <ele>412.4</ele>
        <time>2022-04-15T13:49:34Z</time>
      </trkpt>
      <trkpt lat="45.65334" lon="5.7681">
        <ele>412.3</ele>
        <time>2022-04-15T13:49:35Z</time>
      </trkpt>
      <trkpt lat="45.65337" lon="5.76816">
        <ele>412.3</ele>
        <time>2022-04-15T13:49:36Z</time>
      </trkpt>
      <trkpt lat="45.65341" lon="5.76822">
        <ele>412.3</ele>
        <time>2022-04-15T13:49:37Z</time>
      </trkpt>
      <trkpt lat="45.65346" lon="5.76827">
        <ele>412.3</ele>
        <time>2022-04-15T13:49:38Z</time>
      </trkpt>
      <trkpt lat="45.6535" lon="5.76831">
        <ele>412.3</ele>
        <time>2022-04-15T13:49:39Z</time>
      </trkpt>
      <trkpt lat="45.65355" lon="5.76835">
        <ele>412.3</ele>
        <time>2022-04-15T13:49:40Z</time>
      </trkpt>
      <trkpt lat="45.6536" lon="5.76838">
        <ele>412.3</ele>
        <time>2022-04-15T13:49:41Z</time>
      </trkpt>
      <trkpt lat="45.65365" lon="5.76841">
        <ele>412.3</ele>
        <time>2022-04-15T13:49:42Z</time>
      </trkpt>
      <trkpt lat="45.6537" lon="5.76843">
        <ele>412.3</ele>
        <time>2022-04-15T13:49:43Z</time>
      </trkpt>
      <trkpt lat="45.65375" lon="5.76844">
        <ele>412.4</ele>
        <time>2022-04-15T13:49:44Z</time>
      </trkpt>
      <trkpt lat="45.6538" lon="5.76846">
        <ele>412.4</ele>
        <time>2022-04-15T13:49:45Z</time>
      </trkpt>
      <trkpt lat="45.65385" lon="5.76847">
        <ele>412.5</ele>
        <time>2022-04-15T13:49:46Z</time>
      </trkpt>
      <trkpt lat="45.6539" lon="5.76848">
        <ele>412.5</ele>
        <time>2022-04-15T13:49:47Z</time>
      </trkpt>
      <trkpt lat="45.65396" lon="5.76848">
        <ele>412.6</ele>
        <time>2022-04-15T13:49:48Z</time>
      </trkpt>
      <trkpt lat="45.65401" lon="5.76847">
        <ele>412.6</ele>
        <time>2022-04-15T13:49:49Z</time>
      </trkpt>
      <trkpt lat="45.65406" lon="5.76845">
        <ele>412.5</ele>
        <time>2022-04-15T13:49:50Z</time>
      </trkpt>
      <trkpt lat="45.65411" lon="5.76843">
        <ele>412.5</ele>
        <time>2022-04-15T13:49:51Z</time>
      </trkpt>
      <trkpt lat="45.65415" lon="5.76839">
        <ele>412.5</ele>
        <time>2022-04-15T13:49:52Z</time>
      </trkpt>
      <trkpt lat="45.65419" lon="5.76836">
        <ele>412.4</ele>
        <time>2022-04-15T13:49:53Z</time>
      </trkpt>
      <trkpt lat="45.65424" lon="5.76832">
        <ele>412.5</ele>
        <time>2022-04-15T13:49:54Z</time>
      </trkpt>
      <trkpt lat="45.65428" lon="5.76828">
        <ele>412.5</ele>
        <time>2022-04-15T13:49:55Z</time>
      </trkpt>
      <trkpt lat="45.65432" lon="5.76825">
        <ele>412.5</ele>
        <time>2022-04-15T13:49:56Z</time>
      </trkpt>
      <trkpt lat="45.65437" lon="5.76821">
        <ele>412.5</ele>
        <time>2022-04-15T13:49:57Z</time>
      </trkpt>
      <trkpt lat="45.6544" lon="5.76816">
        <ele>412.5</ele>
        <time>2022-04-15T13:49:58Z</time>
      </trkpt>
      <trkpt lat="45.65444" lon="5.76812">
        <ele>412.6</ele>
        <time>2022-04-15T13:49:59Z</time>
      </trkpt>
      <trkpt lat="45.65448" lon="5.76808">
        <ele>412.6</ele>
        <time>2022-04-15T13:50:00Z</time>
      </trkpt>
      <trkpt lat="45.65452" lon="5.76804">
        <ele>412.7</ele>
        <time>2022-04-15T13:50:01Z</time>
      </trkpt>
      <trkpt lat="45.65455" lon="5.768">
        <ele>412.7</ele>
        <time>2022-04-15T13:50:02Z</time>
      </trkpt>
      <trkpt lat="45.65459" lon="5.76795">
        <ele>412.9</ele>
        <time>2022-04-15T13:50:03Z</time>
      </trkpt>
      <trkpt lat="45.65463" lon="5.76791">
        <ele>413</ele>
        <time>2022-04-15T13:50:04Z</time>
      </trkpt>
      <trkpt lat="45.65467" lon="5.76787">
        <ele>413.1</ele>
        <time>2022-04-15T13:50:05Z</time>
      </trkpt>
      <trkpt lat="45.6547" lon="5.76783">
        <ele>413.2</ele>
        <time>2022-04-15T13:50:06Z</time>
      </trkpt>
      <trkpt lat="45.65473" lon="5.7678">
        <ele>413.3</ele>
        <time>2022-04-15T13:50:07Z</time>
      </trkpt>
      <trkpt lat="45.65475" lon="5.76777">
        <ele>413.4</ele>
        <time>2022-04-15T13:50:08Z</time>
      </trkpt>
      <trkpt lat="45.65479" lon="5.76774">
        <ele>413.6</ele>
        <time>2022-04-15T13:50:09Z</time>
      </trkpt>
      <trkpt lat="45.65482" lon="5.76771">
        <ele>413.7</ele>
        <time>2022-04-15T13:50:10Z</time>
      </trkpt>
      <trkpt lat="45.65486" lon="5.76769">
        <ele>413.9</ele>
        <time>2022-04-15T13:50:11Z</time>
      </trkpt>
      <trkpt lat="45.65489" lon="5.76766">
        <ele>414</ele>
        <time>2022-04-15T13:50:12Z</time>
      </trkpt>
      <trkpt lat="45.65494" lon="5.76763">
        <ele>414.3</ele>
        <time>2022-04-15T13:50:13Z</time>
      </trkpt>
      <trkpt lat="45.65498" lon="5.76761">
        <ele>414.5</ele>
        <time>2022-04-15T13:50:15Z</time>
      </trkpt>
      <trkpt lat="45.65502" lon="5.76759">
        <ele>414.7</ele>
        <time>2022-04-15T13:50:16Z</time>
      </trkpt>
      <trkpt lat="45.65506" lon="5.76759">
        <ele>414.9</ele>
        <time>2022-04-15T13:50:17Z</time>
      </trkpt>
      <trkpt lat="45.6551" lon="5.76757">
        <ele>415.2</ele>
        <time>2022-04-15T13:50:19Z</time>
      </trkpt>
      <trkpt lat="45.65514" lon="5.76756">
        <ele>415.4</ele>
        <time>2022-04-15T13:50:20Z</time>
      </trkpt>
      <trkpt lat="45.65515" lon="5.76756">
        <ele>415.5</ele>
        <time>2022-04-15T13:50:21Z</time>
      </trkpt>
      <trkpt lat="45.65518" lon="5.76756">
        <ele>415.6</ele>
        <time>2022-04-15T13:50:22Z</time>
      </trkpt>
      <trkpt lat="45.65523" lon="5.76755">
        <ele>415.9</ele>
        <time>2022-04-15T13:50:23Z</time>
      </trkpt>
      <trkpt lat="45.65526" lon="5.76755">
        <ele>416.1</ele>
        <time>2022-04-15T13:50:25Z</time>
      </trkpt>
      <trkpt lat="45.65529" lon="5.76755">
        <ele>416.2</ele>
        <time>2022-04-15T13:50:26Z</time>
      </trkpt>
      <trkpt lat="45.65533" lon="5.76756">
        <ele>416.5</ele>
        <time>2022-04-15T13:50:28Z</time>
      </trkpt>
      <trkpt lat="45.65535" lon="5.76756">
        <ele>416.6</ele>
        <time>2022-04-15T13:50:29Z</time>
      </trkpt>
      <trkpt lat="45.65536" lon="5.76755">
        <ele>416.7</ele>
        <time>2022-04-15T13:50:30Z</time>
      </trkpt>
      <trkpt lat="45.65539" lon="5.76755">
        <ele>416.9</ele>
        <time>2022-04-15T13:50:31Z</time>
      </trkpt>
      <trkpt lat="45.65541" lon="5.76755">
        <ele>416.9</ele>
        <time>2022-04-15T13:50:32Z</time>
      </trkpt>
      <trkpt lat="45.65545" lon="5.76755">
        <ele>417.2</ele>
        <time>2022-04-15T13:50:33Z</time>
      </trkpt>
      <trkpt lat="45.65547" lon="5.76755">
        <ele>417.3</ele>
        <time>2022-04-15T13:50:34Z</time>
      </trkpt>
      <trkpt lat="45.65551" lon="5.76756">
        <ele>417.5</ele>
        <time>2022-04-15T13:50:36Z</time>
      </trkpt>
      <trkpt lat="45.65554" lon="5.76757">
        <ele>417.7</ele>
        <time>2022-04-15T13:50:38Z</time>
      </trkpt>
      <trkpt lat="45.65557" lon="5.76757">
        <ele>417.9</ele>
        <time>2022-04-15T13:50:39Z</time>
      </trkpt>
      <trkpt lat="45.65562" lon="5.76757">
        <ele>418.2</ele>
        <time>2022-04-15T13:50:41Z</time>
      </trkpt>
      <trkpt lat="45.65565" lon="5.76756">
        <ele>418.4</ele>
        <time>2022-04-15T13:50:43Z</time>
      </trkpt>
      <trkpt lat="45.65569" lon="5.76756">
        <ele>418.7</ele>
        <time>2022-04-15T13:50:45Z</time>
      </trkpt>
      <trkpt lat="45.65573" lon="5.76756">
        <ele>418.9</ele>
        <time>2022-04-15T13:50:47Z</time>
      </trkpt>
      <trkpt lat="45.65577" lon="5.76756">
        <ele>419.1</ele>
        <time>2022-04-15T13:50:48Z</time>
      </trkpt>
      <trkpt lat="45.65579" lon="5.76757">
        <ele>419.3</ele>
        <time>2022-04-15T13:50:49Z</time>
      </trkpt>
      <trkpt lat="45.65581" lon="5.76756">
        <ele>419.4</ele>
        <time>2022-04-15T13:50:51Z</time>
      </trkpt>
      <trkpt lat="45.65587" lon="5.76756">
        <ele>419.8</ele>
        <time>2022-04-15T13:50:53Z</time>
      </trkpt>
      <trkpt lat="45.6559" lon="5.76755">
        <ele>419.9</ele>
        <time>2022-04-15T13:50:55Z</time>
      </trkpt>
      <trkpt lat="45.65592" lon="5.76755">
        <ele>420.1</ele>
        <time>2022-04-15T13:50:56Z</time>
      </trkpt>
      <trkpt lat="45.65596" lon="5.76755">
        <ele>420.3</ele>
        <time>2022-04-15T13:50:58Z</time>
      </trkpt>
      <trkpt lat="45.656" lon="5.76755">
        <ele>420.6</ele>
        <time>2022-04-15T13:51:00Z</time>
      </trkpt>
      <trkpt lat="45.65602" lon="5.76755">
        <ele>420.7</ele>
        <time>2022-04-15T13:51:01Z</time>
      </trkpt>
      <trkpt lat="45.65604" lon="5.76755">
        <ele>420.8</ele>
        <time>2022-04-15T13:51:02Z</time>
      </trkpt>
      <trkpt lat="45.65607" lon="5.76756">
        <ele>420.9</ele>
        <time>2022-04-15T13:51:04Z</time>
      </trkpt>
      <trkpt lat="45.6561" lon="5.76755">
        <ele>421.1</ele>
        <time>2022-04-15T13:51:05Z</time>
      </trkpt>
      <trkpt lat="45.65613" lon="5.76755">
        <ele>421.3</ele>
        <time>2022-04-15T13:51:07Z</time>
      </trkpt>
      <trkpt lat="45.65614" lon="5.76755">
        <ele>421.4</ele>
        <time>2022-04-15T13:51:08Z</time>
      </trkpt>
      <trkpt lat="45.65618" lon="5.76755">
        <ele>421.6</ele>
        <time>2022-04-15T13:51:09Z</time>
      </trkpt>
      <trkpt lat="45.65619" lon="5.76755">
        <ele>421.6</ele>
        <time>2022-04-15T13:51:10Z</time>
      </trkpt>
      <trkpt lat="45.65621" lon="5.76754">
        <ele>421.7</ele>
        <time>2022-04-15T13:51:11Z</time>
      </trkpt>
      <trkpt lat="45.65622" lon="5.76754">
        <ele>421.8</ele>
        <time>2022-04-15T13:51:12Z</time>
      </trkpt>
      <trkpt lat="45.65627" lon="5.76754">
        <ele>422.1</ele>
        <time>2022-04-15T13:51:14Z</time>
      </trkpt>
      <trkpt lat="45.65628" lon="5.76754">
        <ele>422.1</ele>
        <time>2022-04-15T13:51:15Z</time>
      </trkpt>
      <trkpt lat="45.6563" lon="5.76754">
        <ele>422.2</ele>
        <time>2022-04-15T13:51:16Z</time>
      </trkpt>
      <trkpt lat="45.65633" lon="5.76753">
        <ele>422.4</ele>
        <time>2022-04-15T13:51:17Z</time>
      </trkpt>
      <trkpt lat="45.65635" lon="5.76753">
        <ele>422.5</ele>
        <time>2022-04-15T13:51:18Z</time>
      </trkpt>
      <trkpt lat="45.65638" lon="5.76753">
        <ele>422.7</ele>
        <time>2022-04-15T13:51:20Z</time>
      </trkpt>
      <trkpt lat="45.65641" lon="5.76753">
        <ele>422.9</ele>
        <time>2022-04-15T13:51:21Z</time>
      </trkpt>
      <trkpt lat="45.65642" lon="5.76752">
        <ele>422.9</ele>
        <time>2022-04-15T13:51:22Z</time>
      </trkpt>
      <trkpt lat="45.65646" lon="5.76753">
        <ele>423.1</ele>
        <time>2022-04-15T13:51:23Z</time>
      </trkpt>
      <trkpt lat="45.65647" lon="5.76753">
        <ele>423.2</ele>
        <time>2022-04-15T13:51:24Z</time>
      </trkpt>
      <trkpt lat="45.65649" lon="5.76752">
        <ele>423.3</ele>
        <time>2022-04-15T13:51:25Z</time>
      </trkpt>
      <trkpt lat="45.65653" lon="5.76752">
        <ele>423.5</ele>
        <time>2022-04-15T13:51:27Z</time>
      </trkpt>
      <trkpt lat="45.65655" lon="5.76752">
        <ele>423.6</ele>
        <time>2022-04-15T13:51:28Z</time>
      </trkpt>
      <trkpt lat="45.65658" lon="5.76751">
        <ele>423.8</ele>
        <time>2022-04-15T13:51:30Z</time>
      </trkpt>
      <trkpt lat="45.65659" lon="5.76751">
        <ele>423.9</ele>
        <time>2022-04-15T13:51:31Z</time>
      </trkpt>
      <trkpt lat="45.65661" lon="5.76751">
        <ele>424</ele>
        <time>2022-04-15T13:51:32Z</time>
      </trkpt>
      <trkpt lat="45.65665" lon="5.7675">
        <ele>424.3</ele>
        <time>2022-04-15T13:51:34Z</time>
      </trkpt>
      <trkpt lat="45.65668" lon="5.7675">
        <ele>424.5</ele>
        <time>2022-04-15T13:51:35Z</time>
      </trkpt>
      <trkpt lat="45.65669" lon="5.7675">
        <ele>424.5</ele>
        <time>2022-04-15T13:51:36Z</time>
      </trkpt>
      <trkpt lat="45.65673" lon="5.76749">
        <ele>424.8</ele>
        <time>2022-04-15T13:51:38Z</time>
      </trkpt>
      <trkpt lat="45.65675" lon="5.7675">
        <ele>424.9</ele>
        <time>2022-04-15T13:51:39Z</time>
      </trkpt>
      <trkpt lat="45.65679" lon="5.7675">
        <ele>425.1</ele>
        <time>2022-04-15T13:51:41Z</time>
      </trkpt>
      <trkpt lat="45.65683" lon="5.7675">
        <ele>425.3</ele>
        <time>2022-04-15T13:51:43Z</time>
      </trkpt>
      <trkpt lat="45.65685" lon="5.7675">
        <ele>425.4</ele>
        <time>2022-04-15T13:51:44Z</time>
      </trkpt>
      <trkpt lat="45.65689" lon="5.7675">
        <ele>425.6</ele>
        <time>2022-04-15T13:51:46Z</time>
      </trkpt>
      <trkpt lat="45.65691" lon="5.7675">
        <ele>425.8</ele>
        <time>2022-04-15T13:51:47Z</time>
      </trkpt>
      <trkpt lat="45.65695" lon="5.76751">
        <ele>426</ele>
        <time>2022-04-15T13:51:49Z</time>
      </trkpt>
      <trkpt lat="45.65699" lon="5.76751">
        <ele>426.1</ele>
        <time>2022-04-15T13:51:50Z</time>
      </trkpt>
      <trkpt lat="45.657" lon="5.76751">
        <ele>426.2</ele>
        <time>2022-04-15T13:51:51Z</time>
      </trkpt>
      <trkpt lat="45.65704" lon="5.76752">
        <ele>426.4</ele>
        <time>2022-04-15T13:51:53Z</time>
      </trkpt>
      <trkpt lat="45.65707" lon="5.76752">
        <ele>426.5</ele>
        <time>2022-04-15T13:51:54Z</time>
      </trkpt>
      <trkpt lat="45.65711" lon="5.76752">
        <ele>426.7</ele>
        <time>2022-04-15T13:51:56Z</time>
      </trkpt>
      <trkpt lat="45.65713" lon="5.76753">
        <ele>426.8</ele>
        <time>2022-04-15T13:51:57Z</time>
      </trkpt>
      <trkpt lat="45.65718" lon="5.76754">
        <ele>427</ele>
        <time>2022-04-15T13:51:59Z</time>
      </trkpt>
      <trkpt lat="45.65722" lon="5.76754">
        <ele>427.1</ele>
        <time>2022-04-15T13:52:00Z</time>
      </trkpt>
      <trkpt lat="45.65725" lon="5.76755">
        <ele>427.3</ele>
        <time>2022-04-15T13:52:01Z</time>
      </trkpt>
      <trkpt lat="45.65726" lon="5.76755">
        <ele>427.3</ele>
        <time>2022-04-15T13:52:02Z</time>
      </trkpt>
      <trkpt lat="45.6573" lon="5.76756">
        <ele>427.4</ele>
        <time>2022-04-15T13:52:04Z</time>
      </trkpt>
      <trkpt lat="45.65731" lon="5.76757">
        <ele>427.5</ele>
        <time>2022-04-15T13:52:05Z</time>
      </trkpt>
      <trkpt lat="45.65734" lon="5.76758">
        <ele>427.5</ele>
        <time>2022-04-15T13:52:06Z</time>
      </trkpt>
      <trkpt lat="45.65735" lon="5.76758">
        <ele>427.6</ele>
        <time>2022-04-15T13:52:07Z</time>
      </trkpt>
      <trkpt lat="45.65738" lon="5.7676">
        <ele>427.7</ele>
        <time>2022-04-15T13:52:08Z</time>
      </trkpt>
      <trkpt lat="45.65743" lon="5.76761">
        <ele>427.8</ele>
        <time>2022-04-15T13:52:10Z</time>
      </trkpt>
      <trkpt lat="45.65747" lon="5.76763">
        <ele>427.9</ele>
        <time>2022-04-15T13:52:11Z</time>
      </trkpt>
      <trkpt lat="45.65748" lon="5.76764">
        <ele>427.9</ele>
        <time>2022-04-15T13:52:12Z</time>
      </trkpt>
      <trkpt lat="45.65751" lon="5.76765">
        <ele>428</ele>
        <time>2022-04-15T13:52:13Z</time>
      </trkpt>
      <trkpt lat="45.65754" lon="5.76767">
        <ele>428.1</ele>
        <time>2022-04-15T13:52:14Z</time>
      </trkpt>
      <trkpt lat="45.65758" lon="5.76768">
        <ele>428.2</ele>
        <time>2022-04-15T13:52:15Z</time>
      </trkpt>
      <trkpt lat="45.65759" lon="5.76769">
        <ele>428.3</ele>
        <time>2022-04-15T13:52:16Z</time>
      </trkpt>
      <trkpt lat="45.65762" lon="5.7677">
        <ele>428.3</ele>
        <time>2022-04-15T13:52:17Z</time>
      </trkpt>
      <trkpt lat="45.65764" lon="5.76772">
        <ele>428.4</ele>
        <time>2022-04-15T13:52:19Z</time>
      </trkpt>
      <trkpt lat="45.65768" lon="5.76774">
        <ele>428.5</ele>
        <time>2022-04-15T13:52:20Z</time>
      </trkpt>
      <trkpt lat="45.65772" lon="5.76776">
        <ele>428.6</ele>
        <time>2022-04-15T13:52:21Z</time>
      </trkpt>
      <trkpt lat="45.65776" lon="5.76779">
        <ele>428.7</ele>
        <time>2022-04-15T13:52:23Z</time>
      </trkpt>
      <trkpt lat="45.65781" lon="5.76781">
        <ele>428.8</ele>
        <time>2022-04-15T13:52:25Z</time>
      </trkpt>
      <trkpt lat="45.65786" lon="5.76785">
        <ele>429</ele>
        <time>2022-04-15T13:52:27Z</time>
      </trkpt>
      <trkpt lat="45.65791" lon="5.76787">
        <ele>429.1</ele>
        <time>2022-04-15T13:52:28Z</time>
      </trkpt>
      <trkpt lat="45.65794" lon="5.76788">
        <ele>429.2</ele>
        <time>2022-04-15T13:52:30Z</time>
      </trkpt>
      <trkpt lat="45.65798" lon="5.7679">
        <ele>429.2</ele>
        <time>2022-04-15T13:52:31Z</time>
      </trkpt>
      <trkpt lat="45.65801" lon="5.76792">
        <ele>429.3</ele>
        <time>2022-04-15T13:52:32Z</time>
      </trkpt>
      <trkpt lat="45.65806" lon="5.76795">
        <ele>429.4</ele>
        <time>2022-04-15T13:52:34Z</time>
      </trkpt>
      <trkpt lat="45.65809" lon="5.76796">
        <ele>429.5</ele>
        <time>2022-04-15T13:52:35Z</time>
      </trkpt>
      <trkpt lat="45.65812" lon="5.76798">
        <ele>429.6</ele>
        <time>2022-04-15T13:52:36Z</time>
      </trkpt>
      <trkpt lat="45.65819" lon="5.76802">
        <ele>429.8</ele>
        <time>2022-04-15T13:52:38Z</time>
      </trkpt>
      <trkpt lat="45.65826" lon="5.76805">
        <ele>429.9</ele>
        <time>2022-04-15T13:52:40Z</time>
      </trkpt>
      <trkpt lat="45.65829" lon="5.76807">
        <ele>430</ele>
        <time>2022-04-15T13:52:42Z</time>
      </trkpt>
      <trkpt lat="45.65834" lon="5.7681">
        <ele>430.1</ele>
        <time>2022-04-15T13:52:44Z</time>
      </trkpt>
      <trkpt lat="45.65838" lon="5.76812">
        <ele>430.2</ele>
        <time>2022-04-15T13:52:45Z</time>
      </trkpt>
      <trkpt lat="45.65839" lon="5.76813">
        <ele>430.2</ele>
        <time>2022-04-15T13:52:46Z</time>
      </trkpt>
      <trkpt lat="45.65842" lon="5.76815">
        <ele>430.3</ele>
        <time>2022-04-15T13:52:47Z</time>
      </trkpt>
      <trkpt lat="45.65848" lon="5.76817">
        <ele>430.4</ele>
        <time>2022-04-15T13:52:49Z</time>
      </trkpt>
      <trkpt lat="45.65852" lon="5.7682">
        <ele>430.5</ele>
        <time>2022-04-15T13:52:50Z</time>
      </trkpt>
      <trkpt lat="45.65855" lon="5.76822">
        <ele>430.6</ele>
        <time>2022-04-15T13:52:51Z</time>
      </trkpt>
      <trkpt lat="45.6586" lon="5.76825">
        <ele>430.8</ele>
        <time>2022-04-15T13:52:53Z</time>
      </trkpt>
      <trkpt lat="45.65864" lon="5.76827">
        <ele>430.9</ele>
        <time>2022-04-15T13:52:54Z</time>
      </trkpt>
      <trkpt lat="45.65869" lon="5.7683">
        <ele>431</ele>
        <time>2022-04-15T13:52:56Z</time>
      </trkpt>
      <trkpt lat="45.65872" lon="5.76831">
        <ele>431.1</ele>
        <time>2022-04-15T13:52:57Z</time>
      </trkpt>
      <trkpt lat="45.65875" lon="5.76833">
        <ele>431.2</ele>
        <time>2022-04-15T13:52:58Z</time>
      </trkpt>
      <trkpt lat="45.65878" lon="5.76835">
        <ele>431.3</ele>
        <time>2022-04-15T13:52:59Z</time>
      </trkpt>
      <trkpt lat="45.65883" lon="5.76838">
        <ele>431.4</ele>
        <time>2022-04-15T13:53:01Z</time>
      </trkpt>
      <trkpt lat="45.65886" lon="5.7684">
        <ele>431.5</ele>
        <time>2022-04-15T13:53:02Z</time>
      </trkpt>
      <trkpt lat="45.65889" lon="5.76841">
        <ele>431.5</ele>
        <time>2022-04-15T13:53:03Z</time>
      </trkpt>
      <trkpt lat="45.65893" lon="5.76843">
        <ele>431.6</ele>
        <time>2022-04-15T13:53:04Z</time>
      </trkpt>
      <trkpt lat="45.65898" lon="5.76846">
        <ele>431.7</ele>
        <time>2022-04-15T13:53:06Z</time>
      </trkpt>
      <trkpt lat="45.65901" lon="5.76848">
        <ele>431.8</ele>
        <time>2022-04-15T13:53:07Z</time>
      </trkpt>
      <trkpt lat="45.65905" lon="5.7685">
        <ele>431.9</ele>
        <time>2022-04-15T13:53:08Z</time>
      </trkpt>
      <trkpt lat="45.6591" lon="5.76852">
        <ele>432</ele>
        <time>2022-04-15T13:53:09Z</time>
      </trkpt>
      <trkpt lat="45.65914" lon="5.76854">
        <ele>432.1</ele>
        <time>2022-04-15T13:53:10Z</time>
      </trkpt>
      <trkpt lat="45.65917" lon="5.76857">
        <ele>432.2</ele>
        <time>2022-04-15T13:53:11Z</time>
      </trkpt>
      <trkpt lat="45.6592" lon="5.76859">
        <ele>432.2</ele>
        <time>2022-04-15T13:53:13Z</time>
      </trkpt>
      <trkpt lat="45.65923" lon="5.7686">
        <ele>432.3</ele>
        <time>2022-04-15T13:53:14Z</time>
      </trkpt>
      <trkpt lat="45.65927" lon="5.76862">
        <ele>432.4</ele>
        <time>2022-04-15T13:53:15Z</time>
      </trkpt>
      <trkpt lat="45.65932" lon="5.76865">
        <ele>432.6</ele>
        <time>2022-04-15T13:53:16Z</time>
      </trkpt>
      <trkpt lat="45.65936" lon="5.76867">
        <ele>432.7</ele>
        <time>2022-04-15T13:53:18Z</time>
      </trkpt>
      <trkpt lat="45.6594" lon="5.76869">
        <ele>432.9</ele>
        <time>2022-04-15T13:53:19Z</time>
      </trkpt>
      <trkpt lat="45.65944" lon="5.7687">
        <ele>433</ele>
        <time>2022-04-15T13:53:20Z</time>
      </trkpt>
      <trkpt lat="45.65948" lon="5.76872">
        <ele>433.1</ele>
        <time>2022-04-15T13:53:22Z</time>
      </trkpt>
      <trkpt lat="45.65953" lon="5.76874">
        <ele>433.2</ele>
        <time>2022-04-15T13:53:23Z</time>
      </trkpt>
      <trkpt lat="45.65956" lon="5.76876">
        <ele>433.3</ele>
        <time>2022-04-15T13:53:24Z</time>
      </trkpt>
      <trkpt lat="45.6596" lon="5.76878">
        <ele>433.4</ele>
        <time>2022-04-15T13:53:26Z</time>
      </trkpt>
      <trkpt lat="45.65964" lon="5.7688">
        <ele>433.6</ele>
        <time>2022-04-15T13:53:27Z</time>
      </trkpt>
      <trkpt lat="45.65967" lon="5.76881">
        <ele>433.6</ele>
        <time>2022-04-15T13:53:28Z</time>
      </trkpt>
      <trkpt lat="45.65969" lon="5.76883">
        <ele>433.7</ele>
        <time>2022-04-15T13:53:29Z</time>
      </trkpt>
      <trkpt lat="45.65975" lon="5.76885">
        <ele>433.9</ele>
        <time>2022-04-15T13:53:30Z</time>
      </trkpt>
      <trkpt lat="45.65978" lon="5.76886">
        <ele>434</ele>
        <time>2022-04-15T13:53:32Z</time>
      </trkpt>
      <trkpt lat="45.65981" lon="5.76888">
        <ele>434.1</ele>
        <time>2022-04-15T13:53:33Z</time>
      </trkpt>
      <trkpt lat="45.65984" lon="5.7689">
        <ele>434.2</ele>
        <time>2022-04-15T13:53:34Z</time>
      </trkpt>
      <trkpt lat="45.65987" lon="5.76892">
        <ele>434.2</ele>
        <time>2022-04-15T13:53:35Z</time>
      </trkpt>
      <trkpt lat="45.6599" lon="5.76893">
        <ele>434.3</ele>
        <time>2022-04-15T13:53:36Z</time>
      </trkpt>
      <trkpt lat="45.65995" lon="5.76895">
        <ele>434.4</ele>
        <time>2022-04-15T13:53:37Z</time>
      </trkpt>
      <trkpt lat="45.65999" lon="5.76897">
        <ele>434.5</ele>
        <time>2022-04-15T13:53:39Z</time>
      </trkpt>
      <trkpt lat="45.66002" lon="5.76899">
        <ele>434.6</ele>
        <time>2022-04-15T13:53:40Z</time>
      </trkpt>
      <trkpt lat="45.66007" lon="5.76902">
        <ele>434.7</ele>
        <time>2022-04-15T13:53:41Z</time>
      </trkpt>
      <trkpt lat="45.66012" lon="5.76905">
        <ele>434.8</ele>
        <time>2022-04-15T13:53:43Z</time>
      </trkpt>
      <trkpt lat="45.66015" lon="5.76906">
        <ele>434.8</ele>
        <time>2022-04-15T13:53:44Z</time>
      </trkpt>
      <trkpt lat="45.66017" lon="5.76908">
        <ele>434.9</ele>
        <time>2022-04-15T13:53:45Z</time>
      </trkpt>
      <trkpt lat="45.66021" lon="5.76909">
        <ele>434.9</ele>
        <time>2022-04-15T13:53:46Z</time>
      </trkpt>
      <trkpt lat="45.66025" lon="5.76912">
        <ele>435</ele>
        <time>2022-04-15T13:53:48Z</time>
      </trkpt>
      <trkpt lat="45.6603" lon="5.76915">
        <ele>435.1</ele>
        <time>2022-04-15T13:53:49Z</time>
      </trkpt>
      <trkpt lat="45.66032" lon="5.76916">
        <ele>435.2</ele>
        <time>2022-04-15T13:53:50Z</time>
      </trkpt>
      <trkpt lat="45.66038" lon="5.76919">
        <ele>435.3</ele>
        <time>2022-04-15T13:53:52Z</time>
      </trkpt>
      <trkpt lat="45.66042" lon="5.7692">
        <ele>435.4</ele>
        <time>2022-04-15T13:53:54Z</time>
      </trkpt>
      <trkpt lat="45.66048" lon="5.76923">
        <ele>435.5</ele>
        <time>2022-04-15T13:53:56Z</time>
      </trkpt>
      <trkpt lat="45.66053" lon="5.76926">
        <ele>435.6</ele>
        <time>2022-04-15T13:53:58Z</time>
      </trkpt>
      <trkpt lat="45.66056" lon="5.76928">
        <ele>435.7</ele>
        <time>2022-04-15T13:53:59Z</time>
      </trkpt>
      <trkpt lat="45.66059" lon="5.7693">
        <ele>435.8</ele>
        <time>2022-04-15T13:54:00Z</time>
      </trkpt>
      <trkpt lat="45.66062" lon="5.76931">
        <ele>435.8</ele>
        <time>2022-04-15T13:54:01Z</time>
      </trkpt>
      <trkpt lat="45.66065" lon="5.76934">
        <ele>435.9</ele>
        <time>2022-04-15T13:54:02Z</time>
      </trkpt>
      <trkpt lat="45.66069" lon="5.76935">
        <ele>435.9</ele>
        <time>2022-04-15T13:54:03Z</time>
      </trkpt>
      <trkpt lat="45.66072" lon="5.76936">
        <ele>436</ele>
        <time>2022-04-15T13:54:04Z</time>
      </trkpt>
      <trkpt lat="45.66077" lon="5.76938">
        <ele>436</ele>
        <time>2022-04-15T13:54:05Z</time>
      </trkpt>
      <trkpt lat="45.66078" lon="5.76939">
        <ele>436</ele>
        <time>2022-04-15T13:54:06Z</time>
      </trkpt>
      <trkpt lat="45.66083" lon="5.76942">
        <ele>436</ele>
        <time>2022-04-15T13:54:08Z</time>
      </trkpt>
      <trkpt lat="45.66087" lon="5.76946">
        <ele>436.1</ele>
        <time>2022-04-15T13:54:10Z</time>
      </trkpt>
      <trkpt lat="45.66091" lon="5.76949">
        <ele>436.1</ele>
        <time>2022-04-15T13:54:11Z</time>
      </trkpt>
      <trkpt lat="45.66095" lon="5.76952">
        <ele>436.1</ele>
        <time>2022-04-15T13:54:12Z</time>
      </trkpt>
      <trkpt lat="45.66097" lon="5.76956">
        <ele>436</ele>
        <time>2022-04-15T13:54:13Z</time>
      </trkpt>
      <trkpt lat="45.661" lon="5.76961">
        <ele>436</ele>
        <time>2022-04-15T13:54:14Z</time>
      </trkpt>
      <trkpt lat="45.66103" lon="5.76966">
        <ele>436</ele>
        <time>2022-04-15T13:54:15Z</time>
      </trkpt>
      <trkpt lat="45.66105" lon="5.7697">
        <ele>436</ele>
        <time>2022-04-15T13:54:16Z</time>
      </trkpt>
      <trkpt lat="45.66108" lon="5.76976">
        <ele>435.9</ele>
        <time>2022-04-15T13:54:18Z</time>
      </trkpt>
      <trkpt lat="45.6611" lon="5.7698">
        <ele>435.9</ele>
        <time>2022-04-15T13:54:19Z</time>
      </trkpt>
      <trkpt lat="45.66113" lon="5.76986">
        <ele>435.8</ele>
        <time>2022-04-15T13:54:20Z</time>
      </trkpt>
      <trkpt lat="45.66115" lon="5.76992">
        <ele>435.8</ele>
        <time>2022-04-15T13:54:21Z</time>
      </trkpt>
      <trkpt lat="45.66122" lon="5.77004">
        <ele>435.6</ele>
        <time>2022-04-15T13:54:23Z</time>
      </trkpt>
      <trkpt lat="45.66125" lon="5.77011">
        <ele>435.5</ele>
        <time>2022-04-15T13:54:24Z</time>
      </trkpt>
      <trkpt lat="45.66128" lon="5.77017">
        <ele>435.3</ele>
        <time>2022-04-15T13:54:25Z</time>
      </trkpt>
      <trkpt lat="45.66131" lon="5.77024">
        <ele>435.1</ele>
        <time>2022-04-15T13:54:26Z</time>
      </trkpt>
      <trkpt lat="45.66135" lon="5.7703">
        <ele>434.9</ele>
        <time>2022-04-15T13:54:27Z</time>
      </trkpt>
      <trkpt lat="45.66138" lon="5.77038">
        <ele>434.7</ele>
        <time>2022-04-15T13:54:28Z</time>
      </trkpt>
      <trkpt lat="45.66142" lon="5.77045">
        <ele>434.4</ele>
        <time>2022-04-15T13:54:29Z</time>
      </trkpt>
      <trkpt lat="45.66146" lon="5.77052">
        <ele>434.2</ele>
        <time>2022-04-15T13:54:30Z</time>
      </trkpt>
      <trkpt lat="45.66149" lon="5.7706">
        <ele>433.9</ele>
        <time>2022-04-15T13:54:31Z</time>
      </trkpt>
      <trkpt lat="45.66153" lon="5.77066">
        <ele>433.7</ele>
        <time>2022-04-15T13:54:32Z</time>
      </trkpt>
      <trkpt lat="45.66157" lon="5.77071">
        <ele>433.4</ele>
        <time>2022-04-15T13:54:33Z</time>
      </trkpt>
      <trkpt lat="45.66162" lon="5.77076">
        <ele>433.2</ele>
        <time>2022-04-15T13:54:34Z</time>
      </trkpt>
      <trkpt lat="45.66167" lon="5.77081">
        <ele>433.1</ele>
        <time>2022-04-15T13:54:35Z</time>
      </trkpt>
      <trkpt lat="45.66173" lon="5.77084">
        <ele>433</ele>
        <time>2022-04-15T13:54:36Z</time>
      </trkpt>
      <trkpt lat="45.66179" lon="5.77085">
        <ele>433</ele>
        <time>2022-04-15T13:54:37Z</time>
      </trkpt>
      <trkpt lat="45.66185" lon="5.77085">
        <ele>433.1</ele>
        <time>2022-04-15T13:54:38Z</time>
      </trkpt>
      <trkpt lat="45.6619" lon="5.77083">
        <ele>433.2</ele>
        <time>2022-04-15T13:54:39Z</time>
      </trkpt>
      <trkpt lat="45.66195" lon="5.7708">
        <ele>433.3</ele>
        <time>2022-04-15T13:54:40Z</time>
      </trkpt>
      <trkpt lat="45.662" lon="5.77078">
        <ele>433.4</ele>
        <time>2022-04-15T13:54:41Z</time>
      </trkpt>
      <trkpt lat="45.66205" lon="5.77075">
        <ele>433.6</ele>
        <time>2022-04-15T13:54:42Z</time>
      </trkpt>
      <trkpt lat="45.66209" lon="5.77072">
        <ele>433.8</ele>
        <time>2022-04-15T13:54:43Z</time>
      </trkpt>
      <trkpt lat="45.66213" lon="5.77069">
        <ele>433.9</ele>
        <time>2022-04-15T13:54:44Z</time>
      </trkpt>
      <trkpt lat="45.66217" lon="5.77067">
        <ele>434.1</ele>
        <time>2022-04-15T13:54:45Z</time>
      </trkpt>
      <trkpt lat="45.66221" lon="5.77065">
        <ele>434.2</ele>
        <time>2022-04-15T13:54:46Z</time>
      </trkpt>
      <trkpt lat="45.66223" lon="5.77064">
        <ele>434.3</ele>
        <time>2022-04-15T13:54:47Z</time>
      </trkpt>
      <trkpt lat="45.66227" lon="5.77064">
        <ele>434.4</ele>
        <time>2022-04-15T13:54:48Z</time>
      </trkpt>
      <trkpt lat="45.6623" lon="5.77063">
        <ele>434.5</ele>
        <time>2022-04-15T13:54:49Z</time>
      </trkpt>
      <trkpt lat="45.66234" lon="5.77061">
        <ele>434.6</ele>
        <time>2022-04-15T13:54:50Z</time>
      </trkpt>
      <trkpt lat="45.66237" lon="5.7706">
        <ele>434.7</ele>
        <time>2022-04-15T13:54:51Z</time>
      </trkpt>
      <trkpt lat="45.66241" lon="5.77061">
        <ele>434.8</ele>
        <time>2022-04-15T13:54:52Z</time>
      </trkpt>
      <trkpt lat="45.66242" lon="5.77063">
        <ele>434.8</ele>
        <time>2022-04-15T13:54:53Z</time>
      </trkpt>
      <trkpt lat="45.66247" lon="5.7706">
        <ele>434.9</ele>
        <time>2022-04-15T13:54:54Z</time>
      </trkpt>
      <trkpt lat="45.66251" lon="5.77057">
        <ele>435</ele>
        <time>2022-04-15T13:54:55Z</time>
      </trkpt>
      <trkpt lat="45.66255" lon="5.77056">
        <ele>435</ele>
        <time>2022-04-15T13:54:56Z</time>
      </trkpt>
      <trkpt lat="45.66263" lon="5.77055">
        <ele>435.1</ele>
        <time>2022-04-15T13:54:58Z</time>
      </trkpt>
      <trkpt lat="45.6627" lon="5.77055">
        <ele>435.1</ele>
        <time>2022-04-15T13:55:00Z</time>
      </trkpt>
      <trkpt lat="45.66274" lon="5.77057">
        <ele>435.1</ele>
        <time>2022-04-15T13:55:01Z</time>
      </trkpt>
      <trkpt lat="45.66279" lon="5.77059">
        <ele>435.1</ele>
        <time>2022-04-15T13:55:02Z</time>
      </trkpt>
      <trkpt lat="45.66285" lon="5.77059">
        <ele>435.1</ele>
        <time>2022-04-15T13:55:04Z</time>
      </trkpt>
      <trkpt lat="45.66288" lon="5.77061">
        <ele>435</ele>
        <time>2022-04-15T13:55:05Z</time>
      </trkpt>
      <trkpt lat="45.66292" lon="5.77063">
        <ele>435</ele>
        <time>2022-04-15T13:55:06Z</time>
      </trkpt>
      <trkpt lat="45.66296" lon="5.77065">
        <ele>435</ele>
        <time>2022-04-15T13:55:07Z</time>
      </trkpt>
      <trkpt lat="45.66302" lon="5.77072">
        <ele>434.9</ele>
        <time>2022-04-15T13:55:08Z</time>
      </trkpt>
      <trkpt lat="45.66306" lon="5.77075">
        <ele>434.9</ele>
        <time>2022-04-15T13:55:09Z</time>
      </trkpt>
      <trkpt lat="45.66311" lon="5.77079">
        <ele>434.9</ele>
        <time>2022-04-15T13:55:10Z</time>
      </trkpt>
      <trkpt lat="45.66315" lon="5.77082">
        <ele>434.8</ele>
        <time>2022-04-15T13:55:11Z</time>
      </trkpt>
      <trkpt lat="45.66319" lon="5.77084">
        <ele>434.8</ele>
        <time>2022-04-15T13:55:12Z</time>
      </trkpt>
      <trkpt lat="45.66324" lon="5.77088">
        <ele>434.8</ele>
        <time>2022-04-15T13:55:13Z</time>
      </trkpt>
      <trkpt lat="45.66328" lon="5.77091">
        <ele>434.7</ele>
        <time>2022-04-15T13:55:14Z</time>
      </trkpt>
      <trkpt lat="45.66333" lon="5.77094">
        <ele>434.7</ele>
        <time>2022-04-15T13:55:15Z</time>
      </trkpt>
      <trkpt lat="45.66337" lon="5.77097">
        <ele>434.7</ele>
        <time>2022-04-15T13:55:16Z</time>
      </trkpt>
      <trkpt lat="45.66342" lon="5.771">
        <ele>434.7</ele>
        <time>2022-04-15T13:55:17Z</time>
      </trkpt>
      <trkpt lat="45.66347" lon="5.77103">
        <ele>434.6</ele>
        <time>2022-04-15T13:55:18Z</time>
      </trkpt>
      <trkpt lat="45.66352" lon="5.77106">
        <ele>434.6</ele>
        <time>2022-04-15T13:55:19Z</time>
      </trkpt>
      <trkpt lat="45.66357" lon="5.77109">
        <ele>434.6</ele>
        <time>2022-04-15T13:55:20Z</time>
      </trkpt>
      <trkpt lat="45.66362" lon="5.77112">
        <ele>434.6</ele>
        <time>2022-04-15T13:55:21Z</time>
      </trkpt>
      <trkpt lat="45.66367" lon="5.77115">
        <ele>434.6</ele>
        <time>2022-04-15T13:55:22Z</time>
      </trkpt>
      <trkpt lat="45.66372" lon="5.77118">
        <ele>434.7</ele>
        <time>2022-04-15T13:55:23Z</time>
      </trkpt>
      <trkpt lat="45.66377" lon="5.77121">
        <ele>434.7</ele>
        <time>2022-04-15T13:55:24Z</time>
      </trkpt>
      <trkpt lat="45.66382" lon="5.77124">
        <ele>434.7</ele>
        <time>2022-04-15T13:55:25Z</time>
      </trkpt>
      <trkpt lat="45.66386" lon="5.77128">
        <ele>434.7</ele>
        <time>2022-04-15T13:55:26Z</time>
      </trkpt>
      <trkpt lat="45.66391" lon="5.77131">
        <ele>434.7</ele>
        <time>2022-04-15T13:55:27Z</time>
      </trkpt>
      <trkpt lat="45.66397" lon="5.77133">
        <ele>434.7</ele>
        <time>2022-04-15T13:55:28Z</time>
      </trkpt>
      <trkpt lat="45.66402" lon="5.77136">
        <ele>434.8</ele>
        <time>2022-04-15T13:55:29Z</time>
      </trkpt>
      <trkpt lat="45.66406" lon="5.77139">
        <ele>434.8</ele>
        <time>2022-04-15T13:55:30Z</time>
      </trkpt>
      <trkpt lat="45.66411" lon="5.77143">
        <ele>434.8</ele>
        <time>2022-04-15T13:55:31Z</time>
      </trkpt>
      <trkpt lat="45.66416" lon="5.77146">
        <ele>434.8</ele>
        <time>2022-04-15T13:55:32Z</time>
      </trkpt>
      <trkpt lat="45.6642" lon="5.77149">
        <ele>434.8</ele>
        <time>2022-04-15T13:55:33Z</time>
      </trkpt>
      <trkpt lat="45.66425" lon="5.77152">
        <ele>434.8</ele>
        <time>2022-04-15T13:55:34Z</time>
      </trkpt>
      <trkpt lat="45.66429" lon="5.77155">
        <ele>434.7</ele>
        <time>2022-04-15T13:55:35Z</time>
      </trkpt>
      <trkpt lat="45.66433" lon="5.77158">
        <ele>434.7</ele>
        <time>2022-04-15T13:55:36Z</time>
      </trkpt>
      <trkpt lat="45.66438" lon="5.77161">
        <ele>434.6</ele>
        <time>2022-04-15T13:55:37Z</time>
      </trkpt>
      <trkpt lat="45.66441" lon="5.77163">
        <ele>434.6</ele>
        <time>2022-04-15T13:55:38Z</time>
      </trkpt>
      <trkpt lat="45.66446" lon="5.77165">
        <ele>434.6</ele>
        <time>2022-04-15T13:55:39Z</time>
      </trkpt>
      <trkpt lat="45.66451" lon="5.77167">
        <ele>434.6</ele>
        <time>2022-04-15T13:55:40Z</time>
      </trkpt>
      <trkpt lat="45.66456" lon="5.77169">
        <ele>434.6</ele>
        <time>2022-04-15T13:55:41Z</time>
      </trkpt>
      <trkpt lat="45.66462" lon="5.7717">
        <ele>434.6</ele>
        <time>2022-04-15T13:55:42Z</time>
      </trkpt>
      <trkpt lat="45.66467" lon="5.77172">
        <ele>434.7</ele>
        <time>2022-04-15T13:55:43Z</time>
      </trkpt>
      <trkpt lat="45.66472" lon="5.77173">
        <ele>434.7</ele>
        <time>2022-04-15T13:55:44Z</time>
      </trkpt>
      <trkpt lat="45.66477" lon="5.77174">
        <ele>434.7</ele>
        <time>2022-04-15T13:55:45Z</time>
      </trkpt>
      <trkpt lat="45.66483" lon="5.77174">
        <ele>434.8</ele>
        <time>2022-04-15T13:55:46Z</time>
      </trkpt>
      <trkpt lat="45.66487" lon="5.77174">
        <ele>434.9</ele>
        <time>2022-04-15T13:55:47Z</time>
      </trkpt>
      <trkpt lat="45.66493" lon="5.77174">
        <ele>435</ele>
        <time>2022-04-15T13:55:48Z</time>
      </trkpt>
      <trkpt lat="45.66498" lon="5.77173">
        <ele>435.1</ele>
        <time>2022-04-15T13:55:49Z</time>
      </trkpt>
      <trkpt lat="45.66503" lon="5.77172">
        <ele>435.1</ele>
        <time>2022-04-15T13:55:50Z</time>
      </trkpt>
      <trkpt lat="45.66508" lon="5.77172">
        <ele>435.2</ele>
        <time>2022-04-15T13:55:51Z</time>
      </trkpt>
      <trkpt lat="45.66511" lon="5.77171">
        <ele>435.3</ele>
        <time>2022-04-15T13:55:52Z</time>
      </trkpt>
      <trkpt lat="45.66515" lon="5.77169">
        <ele>435.4</ele>
        <time>2022-04-15T13:55:53Z</time>
      </trkpt>
      <trkpt lat="45.66519" lon="5.77168">
        <ele>435.4</ele>
        <time>2022-04-15T13:55:54Z</time>
      </trkpt>
      <trkpt lat="45.66523" lon="5.77167">
        <ele>435.5</ele>
        <time>2022-04-15T13:55:55Z</time>
      </trkpt>
      <trkpt lat="45.66527" lon="5.77165">
        <ele>435.5</ele>
        <time>2022-04-15T13:55:56Z</time>
      </trkpt>
      <trkpt lat="45.66531" lon="5.77164">
        <ele>435.6</ele>
        <time>2022-04-15T13:55:57Z</time>
      </trkpt>
      <trkpt lat="45.66535" lon="5.77161">
        <ele>435.7</ele>
        <time>2022-04-15T13:55:58Z</time>
      </trkpt>
      <trkpt lat="45.66539" lon="5.77161">
        <ele>435.7</ele>
        <time>2022-04-15T13:55:59Z</time>
      </trkpt>
      <trkpt lat="45.66544" lon="5.7716">
        <ele>435.8</ele>
        <time>2022-04-15T13:56:00Z</time>
      </trkpt>
      <trkpt lat="45.66548" lon="5.77159">
        <ele>435.9</ele>
        <time>2022-04-15T13:56:01Z</time>
      </trkpt>
      <trkpt lat="45.66557" lon="5.77159">
        <ele>436</ele>
        <time>2022-04-15T13:56:03Z</time>
      </trkpt>
      <trkpt lat="45.66564" lon="5.77158">
        <ele>436.1</ele>
        <time>2022-04-15T13:56:04Z</time>
      </trkpt>
      <trkpt lat="45.66569" lon="5.77158">
        <ele>436.1</ele>
        <time>2022-04-15T13:56:05Z</time>
      </trkpt>
      <trkpt lat="45.66573" lon="5.77158">
        <ele>436.1</ele>
        <time>2022-04-15T13:56:06Z</time>
      </trkpt>
      <trkpt lat="45.66577" lon="5.77159">
        <ele>436.1</ele>
        <time>2022-04-15T13:56:07Z</time>
      </trkpt>
      <trkpt lat="45.66581" lon="5.7716">
        <ele>436.2</ele>
        <time>2022-04-15T13:56:08Z</time>
      </trkpt>
      <trkpt lat="45.66586" lon="5.77161">
        <ele>436.2</ele>
        <time>2022-04-15T13:56:10Z</time>
      </trkpt>
      <trkpt lat="45.6659" lon="5.77162">
        <ele>436.2</ele>
        <time>2022-04-15T13:56:11Z</time>
      </trkpt>
      <trkpt lat="45.66594" lon="5.77164">
        <ele>436.3</ele>
        <time>2022-04-15T13:56:12Z</time>
      </trkpt>
      <trkpt lat="45.666" lon="5.77168">
        <ele>436.3</ele>
        <time>2022-04-15T13:56:13Z</time>
      </trkpt>
      <trkpt lat="45.66603" lon="5.77171">
        <ele>436.3</ele>
        <time>2022-04-15T13:56:15Z</time>
      </trkpt>
      <trkpt lat="45.66607" lon="5.77175">
        <ele>436.3</ele>
        <time>2022-04-15T13:56:16Z</time>
      </trkpt>
      <trkpt lat="45.66611" lon="5.77178">
        <ele>436.4</ele>
        <time>2022-04-15T13:56:17Z</time>
      </trkpt>
      <trkpt lat="45.66615" lon="5.77181">
        <ele>436.4</ele>
        <time>2022-04-15T13:56:18Z</time>
      </trkpt>
      <trkpt lat="45.6662" lon="5.77186">
        <ele>436.4</ele>
        <time>2022-04-15T13:56:19Z</time>
      </trkpt>
      <trkpt lat="45.66624" lon="5.7719">
        <ele>436.4</ele>
        <time>2022-04-15T13:56:20Z</time>
      </trkpt>
      <trkpt lat="45.66631" lon="5.77199">
        <ele>436.3</ele>
        <time>2022-04-15T13:56:22Z</time>
      </trkpt>
      <trkpt lat="45.66634" lon="5.77202">
        <ele>436.3</ele>
        <time>2022-04-15T13:56:23Z</time>
      </trkpt>
      <trkpt lat="45.66638" lon="5.77207">
        <ele>436.3</ele>
        <time>2022-04-15T13:56:24Z</time>
      </trkpt>
      <trkpt lat="45.66642" lon="5.7721">
        <ele>436.3</ele>
        <time>2022-04-15T13:56:25Z</time>
      </trkpt>
      <trkpt lat="45.66646" lon="5.77214">
        <ele>436.3</ele>
        <time>2022-04-15T13:56:26Z</time>
      </trkpt>
      <trkpt lat="45.6665" lon="5.77218">
        <ele>436.3</ele>
        <time>2022-04-15T13:56:27Z</time>
      </trkpt>
      <trkpt lat="45.66654" lon="5.77222">
        <ele>436.3</ele>
        <time>2022-04-15T13:56:28Z</time>
      </trkpt>
      <trkpt lat="45.66658" lon="5.77226">
        <ele>436.3</ele>
        <time>2022-04-15T13:56:29Z</time>
      </trkpt>
      <trkpt lat="45.66663" lon="5.77229">
        <ele>436.2</ele>
        <time>2022-04-15T13:56:30Z</time>
      </trkpt>
      <trkpt lat="45.66667" lon="5.77233">
        <ele>436.2</ele>
        <time>2022-04-15T13:56:31Z</time>
      </trkpt>
      <trkpt lat="45.66671" lon="5.77237">
        <ele>436.1</ele>
        <time>2022-04-15T13:56:32Z</time>
      </trkpt>
      <trkpt lat="45.66675" lon="5.77241">
        <ele>436.1</ele>
        <time>2022-04-15T13:56:33Z</time>
      </trkpt>
      <trkpt lat="45.66679" lon="5.77245">
        <ele>436.1</ele>
        <time>2022-04-15T13:56:34Z</time>
      </trkpt>
      <trkpt lat="45.66683" lon="5.77249">
        <ele>436</ele>
        <time>2022-04-15T13:56:35Z</time>
      </trkpt>
      <trkpt lat="45.66688" lon="5.77254">
        <ele>436</ele>
        <time>2022-04-15T13:56:36Z</time>
      </trkpt>
      <trkpt lat="45.66692" lon="5.77258">
        <ele>436</ele>
        <time>2022-04-15T13:56:37Z</time>
      </trkpt>
      <trkpt lat="45.66696" lon="5.77262">
        <ele>435.9</ele>
        <time>2022-04-15T13:56:38Z</time>
      </trkpt>
      <trkpt lat="45.667" lon="5.77267">
        <ele>435.9</ele>
        <time>2022-04-15T13:56:39Z</time>
      </trkpt>
      <trkpt lat="45.66705" lon="5.77271">
        <ele>435.8</ele>
        <time>2022-04-15T13:56:40Z</time>
      </trkpt>
      <trkpt lat="45.66709" lon="5.77274">
        <ele>435.8</ele>
        <time>2022-04-15T13:56:41Z</time>
      </trkpt>
      <trkpt lat="45.66713" lon="5.77278">
        <ele>435.8</ele>
        <time>2022-04-15T13:56:42Z</time>
      </trkpt>
      <trkpt lat="45.66717" lon="5.77281">
        <ele>435.7</ele>
        <time>2022-04-15T13:56:43Z</time>
      </trkpt>
      <trkpt lat="45.66721" lon="5.77284">
        <ele>435.7</ele>
        <time>2022-04-15T13:56:44Z</time>
      </trkpt>
      <trkpt lat="45.66726" lon="5.77289">
        <ele>435.7</ele>
        <time>2022-04-15T13:56:45Z</time>
      </trkpt>
      <trkpt lat="45.66729" lon="5.77292">
        <ele>435.7</ele>
        <time>2022-04-15T13:56:46Z</time>
      </trkpt>
      <trkpt lat="45.66735" lon="5.77297">
        <ele>435.6</ele>
        <time>2022-04-15T13:56:47Z</time>
      </trkpt>
      <trkpt lat="45.66739" lon="5.77301">
        <ele>435.6</ele>
        <time>2022-04-15T13:56:48Z</time>
      </trkpt>
      <trkpt lat="45.66744" lon="5.77305">
        <ele>435.5</ele>
        <time>2022-04-15T13:56:49Z</time>
      </trkpt>
      <trkpt lat="45.6675" lon="5.7731">
        <ele>435.5</ele>
        <time>2022-04-15T13:56:50Z</time>
      </trkpt>
      <trkpt lat="45.66754" lon="5.77314">
        <ele>435.4</ele>
        <time>2022-04-15T13:56:51Z</time>
      </trkpt>
      <trkpt lat="45.66758" lon="5.7732">
        <ele>435.4</ele>
        <time>2022-04-15T13:56:52Z</time>
      </trkpt>
      <trkpt lat="45.66763" lon="5.77324">
        <ele>435.4</ele>
        <time>2022-04-15T13:56:53Z</time>
      </trkpt>
      <trkpt lat="45.66767" lon="5.77329">
        <ele>435.3</ele>
        <time>2022-04-15T13:56:54Z</time>
      </trkpt>
      <trkpt lat="45.66772" lon="5.77333">
        <ele>435.2</ele>
        <time>2022-04-15T13:56:55Z</time>
      </trkpt>
      <trkpt lat="45.66776" lon="5.77338">
        <ele>435.2</ele>
        <time>2022-04-15T13:56:56Z</time>
      </trkpt>
      <trkpt lat="45.66781" lon="5.77342">
        <ele>435.1</ele>
        <time>2022-04-15T13:56:57Z</time>
      </trkpt>
      <trkpt lat="45.66785" lon="5.77347">
        <ele>435.1</ele>
        <time>2022-04-15T13:56:58Z</time>
      </trkpt>
      <trkpt lat="45.6679" lon="5.77352">
        <ele>435</ele>
        <time>2022-04-15T13:56:59Z</time>
      </trkpt>
      <trkpt lat="45.66794" lon="5.77357">
        <ele>435</ele>
        <time>2022-04-15T13:57:00Z</time>
      </trkpt>
      <trkpt lat="45.66799" lon="5.77361">
        <ele>434.9</ele>
        <time>2022-04-15T13:57:01Z</time>
      </trkpt>
      <trkpt lat="45.66804" lon="5.77366">
        <ele>434.9</ele>
        <time>2022-04-15T13:57:02Z</time>
      </trkpt>
      <trkpt lat="45.66808" lon="5.77371">
        <ele>434.8</ele>
        <time>2022-04-15T13:57:03Z</time>
      </trkpt>
      <trkpt lat="45.66812" lon="5.77377">
        <ele>434.8</ele>
        <time>2022-04-15T13:57:04Z</time>
      </trkpt>
      <trkpt lat="45.66817" lon="5.77383">
        <ele>434.7</ele>
        <time>2022-04-15T13:57:05Z</time>
      </trkpt>
      <trkpt lat="45.66821" lon="5.77388">
        <ele>434.7</ele>
        <time>2022-04-15T13:57:06Z</time>
      </trkpt>
      <trkpt lat="45.66824" lon="5.77394">
        <ele>434.6</ele>
        <time>2022-04-15T13:57:07Z</time>
      </trkpt>
      <trkpt lat="45.66828" lon="5.77401">
        <ele>434.6</ele>
        <time>2022-04-15T13:57:08Z</time>
      </trkpt>
      <trkpt lat="45.66831" lon="5.77407">
        <ele>434.5</ele>
        <time>2022-04-15T13:57:09Z</time>
      </trkpt>
      <trkpt lat="45.66835" lon="5.77413">
        <ele>434.5</ele>
        <time>2022-04-15T13:57:10Z</time>
      </trkpt>
      <trkpt lat="45.66839" lon="5.77419">
        <ele>434.5</ele>
        <time>2022-04-15T13:57:11Z</time>
      </trkpt>
      <trkpt lat="45.66843" lon="5.77425">
        <ele>434.5</ele>
        <time>2022-04-15T13:57:12Z</time>
      </trkpt>
      <trkpt lat="45.66846" lon="5.77431">
        <ele>434.4</ele>
        <time>2022-04-15T13:57:13Z</time>
      </trkpt>
      <trkpt lat="45.66849" lon="5.77439">
        <ele>434.4</ele>
        <time>2022-04-15T13:57:14Z</time>
      </trkpt>
      <trkpt lat="45.66851" lon="5.77447">
        <ele>434.4</ele>
        <time>2022-04-15T13:57:15Z</time>
      </trkpt>
      <trkpt lat="45.66853" lon="5.77454">
        <ele>434.4</ele>
        <time>2022-04-15T13:57:16Z</time>
      </trkpt>
      <trkpt lat="45.66856" lon="5.77461">
        <ele>434.4</ele>
        <time>2022-04-15T13:57:17Z</time>
      </trkpt>
      <trkpt lat="45.66858" lon="5.77469">
        <ele>434.4</ele>
        <time>2022-04-15T13:57:18Z</time>
      </trkpt>
      <trkpt lat="45.6686" lon="5.77476">
        <ele>434.4</ele>
        <time>2022-04-15T13:57:19Z</time>
      </trkpt>
      <trkpt lat="45.66862" lon="5.77484">
        <ele>434.4</ele>
        <time>2022-04-15T13:57:20Z</time>
      </trkpt>
      <trkpt lat="45.66864" lon="5.77491">
        <ele>434.4</ele>
        <time>2022-04-15T13:57:21Z</time>
      </trkpt>
      <trkpt lat="45.66866" lon="5.77499">
        <ele>434.3</ele>
        <time>2022-04-15T13:57:22Z</time>
      </trkpt>
      <trkpt lat="45.66868" lon="5.77506">
        <ele>434.3</ele>
        <time>2022-04-15T13:57:23Z</time>
      </trkpt>
      <trkpt lat="45.66871" lon="5.77512">
        <ele>434.3</ele>
        <time>2022-04-15T13:57:24Z</time>
      </trkpt>
      <trkpt lat="45.66873" lon="5.77518">
        <ele>434.2</ele>
        <time>2022-04-15T13:57:25Z</time>
      </trkpt>
      <trkpt lat="45.66877" lon="5.77524">
        <ele>434.1</ele>
        <time>2022-04-15T13:57:26Z</time>
      </trkpt>
      <trkpt lat="45.66879" lon="5.77531">
        <ele>434</ele>
        <time>2022-04-15T13:57:27Z</time>
      </trkpt>
      <trkpt lat="45.66881" lon="5.77538">
        <ele>434</ele>
        <time>2022-04-15T13:57:28Z</time>
      </trkpt>
      <trkpt lat="45.66883" lon="5.77544">
        <ele>433.9</ele>
        <time>2022-04-15T13:57:29Z</time>
      </trkpt>
      <trkpt lat="45.66886" lon="5.77551">
        <ele>433.8</ele>
        <time>2022-04-15T13:57:30Z</time>
      </trkpt>
      <trkpt lat="45.6689" lon="5.77557">
        <ele>433.8</ele>
        <time>2022-04-15T13:57:31Z</time>
      </trkpt>
      <trkpt lat="45.66893" lon="5.77563">
        <ele>433.8</ele>
        <time>2022-04-15T13:57:32Z</time>
      </trkpt>
      <trkpt lat="45.66897" lon="5.77568">
        <ele>433.9</ele>
        <time>2022-04-15T13:57:33Z</time>
      </trkpt>
      <trkpt lat="45.66901" lon="5.77573">
        <ele>434</ele>
        <time>2022-04-15T13:57:34Z</time>
      </trkpt>
      <trkpt lat="45.66906" lon="5.77577">
        <ele>434.2</ele>
        <time>2022-04-15T13:57:35Z</time>
      </trkpt>
      <trkpt lat="45.6691" lon="5.7758">
        <ele>434.3</ele>
        <time>2022-04-15T13:57:36Z</time>
      </trkpt>
      <trkpt lat="45.66914" lon="5.77582">
        <ele>434.5</ele>
        <time>2022-04-15T13:57:37Z</time>
      </trkpt>
      <trkpt lat="45.66918" lon="5.77584">
        <ele>434.7</ele>
        <time>2022-04-15T13:57:38Z</time>
      </trkpt>
      <trkpt lat="45.66923" lon="5.77585">
        <ele>434.8</ele>
        <time>2022-04-15T13:57:39Z</time>
      </trkpt>
      <trkpt lat="45.66926" lon="5.77586">
        <ele>435</ele>
        <time>2022-04-15T13:57:40Z</time>
      </trkpt>
      <trkpt lat="45.66928" lon="5.77586">
        <ele>435.1</ele>
        <time>2022-04-15T13:57:41Z</time>
      </trkpt>
      <trkpt lat="45.66932" lon="5.77586">
        <ele>435.3</ele>
        <time>2022-04-15T13:57:42Z</time>
      </trkpt>
      <trkpt lat="45.66936" lon="5.77585">
        <ele>435.4</ele>
        <time>2022-04-15T13:57:43Z</time>
      </trkpt>
      <trkpt lat="45.66937" lon="5.77585">
        <ele>435.5</ele>
        <time>2022-04-15T13:57:44Z</time>
      </trkpt>
      <trkpt lat="45.6694" lon="5.77584">
        <ele>435.7</ele>
        <time>2022-04-15T13:57:45Z</time>
      </trkpt>
      <trkpt lat="45.66944" lon="5.77583">
        <ele>435.8</ele>
        <time>2022-04-15T13:57:46Z</time>
      </trkpt>
      <trkpt lat="45.66948" lon="5.77582">
        <ele>436</ele>
        <time>2022-04-15T13:57:47Z</time>
      </trkpt>
      <trkpt lat="45.66949" lon="5.77582">
        <ele>436</ele>
        <time>2022-04-15T13:57:48Z</time>
      </trkpt>
      <trkpt lat="45.66954" lon="5.77582">
        <ele>436.2</ele>
        <time>2022-04-15T13:57:49Z</time>
      </trkpt>
      <trkpt lat="45.66958" lon="5.77581">
        <ele>436.3</ele>
        <time>2022-04-15T13:57:50Z</time>
      </trkpt>
      <trkpt lat="45.66961" lon="5.7758">
        <ele>436.5</ele>
        <time>2022-04-15T13:57:52Z</time>
      </trkpt>
      <trkpt lat="45.66965" lon="5.77579">
        <ele>436.6</ele>
        <time>2022-04-15T13:57:53Z</time>
      </trkpt>
      <trkpt lat="45.6697" lon="5.77578">
        <ele>436.8</ele>
        <time>2022-04-15T13:57:54Z</time>
      </trkpt>
      <trkpt lat="45.66974" lon="5.77578">
        <ele>436.9</ele>
        <time>2022-04-15T13:57:56Z</time>
      </trkpt>
      <trkpt lat="45.66978" lon="5.77577">
        <ele>437</ele>
        <time>2022-04-15T13:57:57Z</time>
      </trkpt>
      <trkpt lat="45.66982" lon="5.77577">
        <ele>437.2</ele>
        <time>2022-04-15T13:57:59Z</time>
      </trkpt>
      <trkpt lat="45.66988" lon="5.77577">
        <ele>437.3</ele>
        <time>2022-04-15T13:58:00Z</time>
      </trkpt>
      <trkpt lat="45.66991" lon="5.77576">
        <ele>437.4</ele>
        <time>2022-04-15T13:58:02Z</time>
      </trkpt>
      <trkpt lat="45.66994" lon="5.77576">
        <ele>437.5</ele>
        <time>2022-04-15T13:58:03Z</time>
      </trkpt>
      <trkpt lat="45.66997" lon="5.77575">
        <ele>437.6</ele>
        <time>2022-04-15T13:58:04Z</time>
      </trkpt>
      <trkpt lat="45.67002" lon="5.77575">
        <ele>437.8</ele>
        <time>2022-04-15T13:58:06Z</time>
      </trkpt>
      <trkpt lat="45.67006" lon="5.77573">
        <ele>437.9</ele>
        <time>2022-04-15T13:58:07Z</time>
      </trkpt>
      <trkpt lat="45.67009" lon="5.77572">
        <ele>438</ele>
        <time>2022-04-15T13:58:08Z</time>
      </trkpt>
      <trkpt lat="45.67012" lon="5.77572">
        <ele>438.1</ele>
        <time>2022-04-15T13:58:09Z</time>
      </trkpt>
      <trkpt lat="45.67016" lon="5.77571">
        <ele>438.2</ele>
        <time>2022-04-15T13:58:10Z</time>
      </trkpt>
      <trkpt lat="45.67019" lon="5.77571">
        <ele>438.3</ele>
        <time>2022-04-15T13:58:12Z</time>
      </trkpt>
      <trkpt lat="45.67022" lon="5.7757">
        <ele>438.4</ele>
        <time>2022-04-15T13:58:13Z</time>
      </trkpt>
      <trkpt lat="45.67024" lon="5.77569">
        <ele>438.5</ele>
        <time>2022-04-15T13:58:14Z</time>
      </trkpt>
      <trkpt lat="45.67026" lon="5.77568">
        <ele>438.6</ele>
        <time>2022-04-15T13:58:16Z</time>
      </trkpt>
      <trkpt lat="45.67028" lon="5.77568">
        <ele>438.6</ele>
        <time>2022-04-15T13:58:17Z</time>
      </trkpt>
      <trkpt lat="45.67028" lon="5.77568">
        <ele>438.6</ele>
        <time>2022-04-15T13:58:18Z</time>
      </trkpt>
      <trkpt lat="45.67028" lon="5.77568">
        <ele>438.6</ele>
        <time>2022-04-15T13:58:19Z</time>
      </trkpt>
      <trkpt lat="45.67028" lon="5.77568">
        <ele>438.6</ele>
        <time>2022-04-15T13:58:20Z</time>
      </trkpt>
      <trkpt lat="45.67028" lon="5.77568">
        <ele>438.6</ele>
        <time>2022-04-15T13:58:21Z</time>
      </trkpt>
      <trkpt lat="45.67028" lon="5.77568">
        <ele>438.6</ele>
        <time>2022-04-15T13:58:22Z</time>
      </trkpt>
      <trkpt lat="45.67028" lon="5.77568">
        <ele>438.6</ele>
        <time>2022-04-15T13:58:23Z</time>
      </trkpt>
      <trkpt lat="45.67028" lon="5.77568">
        <ele>438.6</ele>
        <time>2022-04-15T13:58:24Z</time>
      </trkpt>
      <trkpt lat="45.67028" lon="5.77568">
        <ele>438.6</ele>
        <time>2022-04-15T13:58:25Z</time>
      </trkpt>
      <trkpt lat="45.67028" lon="5.77568">
        <ele>438.6</ele>
        <time>2022-04-15T13:58:26Z</time>
      </trkpt>
      <trkpt lat="45.67028" lon="5.77568">
        <ele>438.6</ele>
        <time>2022-04-15T13:58:27Z</time>
      </trkpt>
      <trkpt lat="45.67028" lon="5.77568">
        <ele>438.6</ele>
        <time>2022-04-15T13:58:28Z</time>
      </trkpt>
      <trkpt lat="45.67028" lon="5.77568">
        <ele>438.6</ele>
        <time>2022-04-15T13:58:29Z</time>
      </trkpt>
      <trkpt lat="45.67028" lon="5.77568">
        <ele>438.6</ele>
        <time>2022-04-15T13:58:30Z</time>
      </trkpt>
      <trkpt lat="45.67028" lon="5.77568">
        <ele>438.6</ele>
        <time>2022-04-15T13:58:31Z</time>
      </trkpt>
      <trkpt lat="45.67028" lon="5.77568">
        <ele>438.6</ele>
        <time>2022-04-15T13:58:32Z</time>
      </trkpt>
      <trkpt lat="45.67028" lon="5.77568">
        <ele>438.6</ele>
        <time>2022-04-15T13:58:33Z</time>
      </trkpt>
      <trkpt lat="45.67028" lon="5.77568">
        <ele>438.6</ele>
        <time>2022-04-15T13:58:34Z</time>
      </trkpt>
      <trkpt lat="45.67028" lon="5.77568">
        <ele>438.6</ele>
        <time>2022-04-15T13:58:35Z</time>
      </trkpt>
      <trkpt lat="45.67028" lon="5.77568">
        <ele>438.6</ele>
        <time>2022-04-15T13:58:36Z</time>
      </trkpt>
      <trkpt lat="45.67028" lon="5.77568">
        <ele>438.6</ele>
        <time>2022-04-15T13:58:37Z</time>
      </trkpt>
      <trkpt lat="45.67028" lon="5.77568">
        <ele>438.6</ele>
        <time>2022-04-15T13:58:38Z</time>
      </trkpt>
      <trkpt lat="45.67028" lon="5.77568">
        <ele>438.6</ele>
        <time>2022-04-15T13:58:40Z</time>
      </trkpt>
      <trkpt lat="45.67028" lon="5.77568">
        <ele>438.6</ele>
        <time>2022-04-15T13:58:41Z</time>
      </trkpt>
      <trkpt lat="45.67028" lon="5.77568">
        <ele>438.6</ele>
        <time>2022-04-15T13:58:42Z</time>
      </trkpt>
      <trkpt lat="45.67028" lon="5.77568">
        <ele>438.6</ele>
        <time>2022-04-15T13:58:43Z</time>
      </trkpt>
      <trkpt lat="45.67028" lon="5.77568">
        <ele>438.6</ele>
        <time>2022-04-15T13:58:44Z</time>
      </trkpt>
      <trkpt lat="45.67028" lon="5.77568">
        <ele>438.6</ele>
        <time>2022-04-15T13:58:45Z</time>
      </trkpt>
      <trkpt lat="45.67028" lon="5.77568">
        <ele>438.6</ele>
        <time>2022-04-15T13:58:46Z</time>
      </trkpt>
      <trkpt lat="45.67028" lon="5.77567">
        <ele>438.6</ele>
        <time>2022-04-15T13:58:47Z</time>
      </trkpt>
      <trkpt lat="45.67028" lon="5.77567">
        <ele>438.6</ele>
        <time>2022-04-15T13:58:48Z</time>
      </trkpt>
      <trkpt lat="45.67028" lon="5.77567">
        <ele>438.6</ele>
        <time>2022-04-15T13:58:49Z</time>
      </trkpt>
      <trkpt lat="45.67028" lon="5.77567">
        <ele>438.6</ele>
        <time>2022-04-15T13:58:50Z</time>
      </trkpt>
      <trkpt lat="45.67028" lon="5.77567">
        <ele>438.6</ele>
        <time>2022-04-15T13:58:51Z</time>
      </trkpt>
      <trkpt lat="45.67028" lon="5.77567">
        <ele>438.6</ele>
        <time>2022-04-15T13:58:52Z</time>
      </trkpt>
      <trkpt lat="45.67028" lon="5.77567">
        <ele>438.6</ele>
        <time>2022-04-15T13:58:53Z</time>
      </trkpt>
      <trkpt lat="45.67028" lon="5.77567">
        <ele>438.6</ele>
        <time>2022-04-15T13:58:54Z</time>
      </trkpt>
      <trkpt lat="45.67028" lon="5.77567">
        <ele>438.6</ele>
        <time>2022-04-15T13:58:55Z</time>
      </trkpt>
      <trkpt lat="45.67028" lon="5.77567">
        <ele>438.6</ele>
        <time>2022-04-15T13:58:56Z</time>
      </trkpt>
      <trkpt lat="45.67028" lon="5.77567">
        <ele>438.6</ele>
        <time>2022-04-15T13:58:57Z</time>
      </trkpt>
      <trkpt lat="45.67028" lon="5.77567">
        <ele>438.6</ele>
        <time>2022-04-15T13:58:58Z</time>
      </trkpt>
      <trkpt lat="45.67028" lon="5.77567">
        <ele>438.6</ele>
        <time>2022-04-15T13:58:59Z</time>
      </trkpt>
      <trkpt lat="45.67028" lon="5.77567">
        <ele>438.7</ele>
        <time>2022-04-15T13:59:00Z</time>
      </trkpt>
      <trkpt lat="45.67028" lon="5.77567">
        <ele>438.7</ele>
        <time>2022-04-15T13:59:01Z</time>
      </trkpt>
      <trkpt lat="45.67028" lon="5.77567">
        <ele>438.7</ele>
        <time>2022-04-15T13:59:02Z</time>
      </trkpt>
      <trkpt lat="45.67028" lon="5.77567">
        <ele>438.7</ele>
        <time>2022-04-15T13:59:03Z</time>
      </trkpt>
      <trkpt lat="45.67028" lon="5.77567">
        <ele>438.7</ele>
        <time>2022-04-15T13:59:04Z</time>
      </trkpt>
      <trkpt lat="45.67028" lon="5.77567">
        <ele>438.7</ele>
        <time>2022-04-15T13:59:05Z</time>
      </trkpt>
      <trkpt lat="45.67028" lon="5.77567">
        <ele>438.7</ele>
        <time>2022-04-15T13:59:06Z</time>
      </trkpt>
      <trkpt lat="45.67028" lon="5.77567">
        <ele>438.7</ele>
        <time>2022-04-15T13:59:07Z</time>
      </trkpt>
      <trkpt lat="45.67028" lon="5.77567">
        <ele>438.7</ele>
        <time>2022-04-15T13:59:08Z</time>
      </trkpt>
      <trkpt lat="45.67028" lon="5.77567">
        <ele>438.7</ele>
        <time>2022-04-15T13:59:09Z</time>
      </trkpt>
      <trkpt lat="45.67028" lon="5.77567">
        <ele>438.7</ele>
        <time>2022-04-15T13:59:10Z</time>
      </trkpt>
      <trkpt lat="45.67028" lon="5.77567">
        <ele>438.7</ele>
        <time>2022-04-15T13:59:11Z</time>
      </trkpt>
      <trkpt lat="45.67028" lon="5.77567">
        <ele>438.7</ele>
        <time>2022-04-15T13:59:12Z</time>
      </trkpt>
      <trkpt lat="45.67028" lon="5.77567">
        <ele>438.7</ele>
        <time>2022-04-15T13:59:13Z</time>
      </trkpt>
      <trkpt lat="45.67028" lon="5.77567">
        <ele>438.7</ele>
        <time>2022-04-15T13:59:14Z</time>
      </trkpt>
      <trkpt lat="45.67028" lon="5.77567">
        <ele>438.7</ele>
        <time>2022-04-15T13:59:15Z</time>
      </trkpt>
      <trkpt lat="45.67028" lon="5.77567">
        <ele>438.7</ele>
        <time>2022-04-15T13:59:16Z</time>
      </trkpt>
      <trkpt lat="45.67028" lon="5.77567">
        <ele>438.7</ele>
        <time>2022-04-15T13:59:17Z</time>
      </trkpt>
      <trkpt lat="45.67028" lon="5.77567">
        <ele>438.7</ele>
        <time>2022-04-15T13:59:18Z</time>
      </trkpt>
      <trkpt lat="45.67029" lon="5.77567">
        <ele>438.7</ele>
        <time>2022-04-15T13:59:19Z</time>
      </trkpt>
      <trkpt lat="45.67029" lon="5.77567">
        <ele>438.7</ele>
        <time>2022-04-15T13:59:20Z</time>
      </trkpt>
      <trkpt lat="45.67029" lon="5.77567">
        <ele>438.7</ele>
        <time>2022-04-15T13:59:21Z</time>
      </trkpt>
      <trkpt lat="45.67029" lon="5.77567">
        <ele>438.7</ele>
        <time>2022-04-15T13:59:22Z</time>
      </trkpt>
      <trkpt lat="45.67029" lon="5.77567">
        <ele>438.7</ele>
        <time>2022-04-15T13:59:23Z</time>
      </trkpt>
      <trkpt lat="45.67029" lon="5.77567">
        <ele>438.7</ele>
        <time>2022-04-15T13:59:24Z</time>
      </trkpt>
      <trkpt lat="45.67029" lon="5.77567">
        <ele>438.7</ele>
        <time>2022-04-15T13:59:25Z</time>
      </trkpt>
      <trkpt lat="45.67029" lon="5.77567">
        <ele>438.7</ele>
        <time>2022-04-15T13:59:26Z</time>
      </trkpt>
      <trkpt lat="45.67029" lon="5.77567">
        <ele>438.7</ele>
        <time>2022-04-15T13:59:27Z</time>
      </trkpt>
      <trkpt lat="45.67029" lon="5.77567">
        <ele>438.7</ele>
        <time>2022-04-15T13:59:28Z</time>
      </trkpt>
      <trkpt lat="45.67029" lon="5.77567">
        <ele>438.7</ele>
        <time>2022-04-15T13:59:29Z</time>
      </trkpt>
      <trkpt lat="45.67029" lon="5.77567">
        <ele>438.7</ele>
        <time>2022-04-15T13:59:30Z</time>
      </trkpt>
      <trkpt lat="45.67029" lon="5.77567">
        <ele>438.7</ele>
        <time>2022-04-15T13:59:31Z</time>
      </trkpt>
      <trkpt lat="45.67029" lon="5.77567">
        <ele>438.7</ele>
        <time>2022-04-15T13:59:32Z</time>
      </trkpt>
      <trkpt lat="45.67029" lon="5.77567">
        <ele>438.7</ele>
        <time>2022-04-15T13:59:33Z</time>
      </trkpt>
      <trkpt lat="45.67029" lon="5.77567">
        <ele>438.7</ele>
        <time>2022-04-15T13:59:34Z</time>
      </trkpt>
      <trkpt lat="45.67029" lon="5.77567">
        <ele>438.7</ele>
        <time>2022-04-15T13:59:35Z</time>
      </trkpt>
      <trkpt lat="45.67029" lon="5.77567">
        <ele>438.7</ele>
        <time>2022-04-15T13:59:36Z</time>
      </trkpt>
      <trkpt lat="45.67029" lon="5.77567">
        <ele>438.7</ele>
        <time>2022-04-15T13:59:37Z</time>
      </trkpt>
      <trkpt lat="45.67029" lon="5.77567">
        <ele>438.7</ele>
        <time>2022-04-15T13:59:38Z</time>
      </trkpt>
      <trkpt lat="45.67029" lon="5.77567">
        <ele>438.7</ele>
        <time>2022-04-15T13:59:39Z</time>
      </trkpt>
      <trkpt lat="45.67029" lon="5.77567">
        <ele>438.7</ele>
        <time>2022-04-15T13:59:40Z</time>
      </trkpt>
      <trkpt lat="45.67029" lon="5.77567">
        <ele>438.7</ele>
        <time>2022-04-15T13:59:41Z</time>
      </trkpt>
      <trkpt lat="45.67029" lon="5.77567">
        <ele>438.7</ele>
        <time>2022-04-15T13:59:42Z</time>
      </trkpt>
      <trkpt lat="45.67029" lon="5.77567">
        <ele>438.7</ele>
        <time>2022-04-15T13:59:43Z</time>
      </trkpt>
      <trkpt lat="45.67029" lon="5.77567">
        <ele>438.7</ele>
        <time>2022-04-15T13:59:44Z</time>
      </trkpt>
      <trkpt lat="45.67029" lon="5.77567">
        <ele>438.7</ele>
        <time>2022-04-15T13:59:45Z</time>
      </trkpt>
      <trkpt lat="45.67029" lon="5.77567">
        <ele>438.7</ele>
        <time>2022-04-15T13:59:46Z</time>
      </trkpt>
      <trkpt lat="45.67029" lon="5.77567">
        <ele>438.7</ele>
        <time>2022-04-15T13:59:47Z</time>
      </trkpt>
      <trkpt lat="45.67029" lon="5.77567">
        <ele>438.7</ele>
        <time>2022-04-15T13:59:48Z</time>
      </trkpt>
      <trkpt lat="45.67029" lon="5.77567">
        <ele>438.7</ele>
        <time>2022-04-15T13:59:49Z</time>
      </trkpt>
      <trkpt lat="45.67029" lon="5.77567">
        <ele>438.7</ele>
        <time>2022-04-15T13:59:50Z</time>
      </trkpt>
      <trkpt lat="45.67029" lon="5.77567">
        <ele>438.7</ele>
        <time>2022-04-15T13:59:51Z</time>
      </trkpt>
      <trkpt lat="45.67029" lon="5.77567">
        <ele>438.7</ele>
        <time>2022-04-15T13:59:52Z</time>
      </trkpt>
      <trkpt lat="45.67029" lon="5.77566">
        <ele>438.7</ele>
        <time>2022-04-15T13:59:53Z</time>
      </trkpt>
      <trkpt lat="45.67029" lon="5.77566">
        <ele>438.7</ele>
        <time>2022-04-15T13:59:54Z</time>
      </trkpt>
      <trkpt lat="45.67029" lon="5.77566">
        <ele>438.7</ele>
        <time>2022-04-15T13:59:55Z</time>
      </trkpt>
      <trkpt lat="45.67029" lon="5.77566">
        <ele>438.7</ele>
        <time>2022-04-15T13:59:56Z</time>
      </trkpt>
      <trkpt lat="45.67029" lon="5.77566">
        <ele>438.7</ele>
        <time>2022-04-15T13:59:57Z</time>
      </trkpt>
      <trkpt lat="45.67029" lon="5.77566">
        <ele>438.7</ele>
        <time>2022-04-15T13:59:58Z</time>
      </trkpt>
      <trkpt lat="45.67029" lon="5.77566">
        <ele>438.7</ele>
        <time>2022-04-15T13:59:59Z</time>
      </trkpt>
      <trkpt lat="45.67029" lon="5.77566">
        <ele>438.7</ele>
        <time>2022-04-15T14:00:00Z</time>
      </trkpt>
      <trkpt lat="45.67029" lon="5.77566">
        <ele>438.7</ele>
        <time>2022-04-15T14:00:01Z</time>
      </trkpt>
      <trkpt lat="45.67029" lon="5.77566">
        <ele>438.7</ele>
        <time>2022-04-15T14:00:02Z</time>
      </trkpt>
      <trkpt lat="45.67029" lon="5.77566">
        <ele>438.7</ele>
        <time>2022-04-15T14:00:03Z</time>
      </trkpt>
      <trkpt lat="45.67029" lon="5.77566">
        <ele>438.7</ele>
        <time>2022-04-15T14:00:04Z</time>
      </trkpt>
      <trkpt lat="45.67029" lon="5.77566">
        <ele>438.7</ele>
        <time>2022-04-15T14:00:05Z</time>
      </trkpt>
      <trkpt lat="45.67029" lon="5.77566">
        <ele>438.7</ele>
        <time>2022-04-15T14:00:06Z</time>
      </trkpt>
      <trkpt lat="45.67029" lon="5.77566">
        <ele>438.7</ele>
        <time>2022-04-15T14:00:07Z</time>
      </trkpt>
      <trkpt lat="45.67029" lon="5.77566">
        <ele>438.7</ele>
        <time>2022-04-15T14:00:08Z</time>
      </trkpt>
      <trkpt lat="45.67029" lon="5.77566">
        <ele>438.7</ele>
        <time>2022-04-15T14:00:09Z</time>
      </trkpt>
      <trkpt lat="45.67029" lon="5.77566">
        <ele>438.7</ele>
        <time>2022-04-15T14:00:10Z</time>
      </trkpt>
      <trkpt lat="45.67029" lon="5.77566">
        <ele>438.7</ele>
        <time>2022-04-15T14:00:11Z</time>
      </trkpt>
      <trkpt lat="45.67029" lon="5.77566">
        <ele>438.7</ele>
        <time>2022-04-15T14:00:12Z</time>
      </trkpt>
      <trkpt lat="45.67029" lon="5.77566">
        <ele>438.7</ele>
        <time>2022-04-15T14:00:13Z</time>
      </trkpt>
      <trkpt lat="45.67029" lon="5.77566">
        <ele>438.7</ele>
        <time>2022-04-15T14:00:14Z</time>
      </trkpt>
      <trkpt lat="45.67029" lon="5.77566">
        <ele>438.7</ele>
        <time>2022-04-15T14:00:15Z</time>
      </trkpt>
      <trkpt lat="45.67029" lon="5.77566">
        <ele>438.7</ele>
        <time>2022-04-15T14:00:16Z</time>
      </trkpt>
      <trkpt lat="45.67029" lon="5.77566">
        <ele>438.7</ele>
        <time>2022-04-15T14:00:17Z</time>
      </trkpt>
      <trkpt lat="45.67029" lon="5.77566">
        <ele>438.7</ele>
        <time>2022-04-15T14:00:18Z</time>
      </trkpt>
      <trkpt lat="45.67029" lon="5.77566">
        <ele>438.7</ele>
        <time>2022-04-15T14:00:19Z</time>
      </trkpt>
      <trkpt lat="45.67029" lon="5.77566">
        <ele>438.7</ele>
        <time>2022-04-15T14:00:20Z</time>
      </trkpt>
      <trkpt lat="45.67029" lon="5.77566">
        <ele>438.7</ele>
        <time>2022-04-15T14:00:21Z</time>
      </trkpt>
      <trkpt lat="45.67029" lon="5.77566">
        <ele>438.7</ele>
        <time>2022-04-15T14:00:22Z</time>
      </trkpt>
      <trkpt lat="45.67029" lon="5.77566">
        <ele>438.7</ele>
        <time>2022-04-15T14:00:23Z</time>
      </trkpt>
      <trkpt lat="45.67029" lon="5.77566">
        <ele>438.7</ele>
        <time>2022-04-15T14:00:24Z</time>
      </trkpt>
      <trkpt lat="45.67029" lon="5.77566">
        <ele>438.7</ele>
        <time>2022-04-15T14:00:25Z</time>
      </trkpt>
      <trkpt lat="45.67029" lon="5.77566">
        <ele>438.7</ele>
        <time>2022-04-15T14:00:26Z</time>
      </trkpt>
      <trkpt lat="45.67029" lon="5.77566">
        <ele>438.7</ele>
        <time>2022-04-15T14:00:27Z</time>
      </trkpt>
      <trkpt lat="45.67029" lon="5.77566">
        <ele>438.7</ele>
        <time>2022-04-15T14:00:28Z</time>
      </trkpt>
      <trkpt lat="45.67029" lon="5.77566">
        <ele>438.7</ele>
        <time>2022-04-15T14:00:29Z</time>
      </trkpt>
      <trkpt lat="45.67029" lon="5.77566">
        <ele>438.7</ele>
        <time>2022-04-15T14:00:30Z</time>
      </trkpt>
      <trkpt lat="45.67029" lon="5.77566">
        <ele>438.7</ele>
        <time>2022-04-15T14:00:31Z</time>
      </trkpt>
      <trkpt lat="45.67029" lon="5.77566">
        <ele>438.7</ele>
        <time>2022-04-15T14:00:32Z</time>
      </trkpt>
      <trkpt lat="45.67029" lon="5.77566">
        <ele>438.7</ele>
        <time>2022-04-15T14:00:33Z</time>
      </trkpt>
      <trkpt lat="45.67029" lon="5.77566">
        <ele>438.7</ele>
        <time>2022-04-15T14:00:34Z</time>
      </trkpt>
      <trkpt lat="45.67029" lon="5.77566">
        <ele>438.7</ele>
        <time>2022-04-15T14:00:35Z</time>
      </trkpt>
      <trkpt lat="45.67029" lon="5.77566">
        <ele>438.7</ele>
        <time>2022-04-15T14:00:36Z</time>
      </trkpt>
      <trkpt lat="45.67029" lon="5.77566">
        <ele>438.7</ele>
        <time>2022-04-15T14:00:37Z</time>
      </trkpt>
      <trkpt lat="45.67029" lon="5.77566">
        <ele>438.7</ele>
        <time>2022-04-15T14:00:38Z</time>
      </trkpt>
      <trkpt lat="45.67029" lon="5.77566">
        <ele>438.7</ele>
        <time>2022-04-15T14:00:39Z</time>
      </trkpt>
      <trkpt lat="45.67029" lon="5.77566">
        <ele>438.7</ele>
        <time>2022-04-15T14:00:40Z</time>
      </trkpt>
      <trkpt lat="45.67029" lon="5.77566">
        <ele>438.7</ele>
        <time>2022-04-15T14:00:41Z</time>
      </trkpt>
      <trkpt lat="45.67029" lon="5.77566">
        <ele>438.7</ele>
        <time>2022-04-15T14:00:42Z</time>
      </trkpt>
      <trkpt lat="45.67029" lon="5.77566">
        <ele>438.7</ele>
        <time>2022-04-15T14:00:43Z</time>
      </trkpt>
      <trkpt lat="45.67029" lon="5.77566">
        <ele>438.7</ele>
        <time>2022-04-15T14:00:44Z</time>
      </trkpt>
      <trkpt lat="45.67029" lon="5.77566">
        <ele>438.7</ele>
        <time>2022-04-15T14:00:45Z</time>
      </trkpt>
      <trkpt lat="45.67029" lon="5.77566">
        <ele>438.7</ele>
        <time>2022-04-15T14:00:46Z</time>
      </trkpt>
      <trkpt lat="45.67029" lon="5.77566">
        <ele>438.7</ele>
        <time>2022-04-15T14:00:47Z</time>
      </trkpt>
      <trkpt lat="45.67029" lon="5.77566">
        <ele>438.7</ele>
        <time>2022-04-15T14:00:48Z</time>
      </trkpt>
      <trkpt lat="45.67029" lon="5.77566">
        <ele>438.7</ele>
        <time>2022-04-15T14:00:49Z</time>
      </trkpt>
      <trkpt lat="45.6703" lon="5.77566">
        <ele>438.7</ele>
        <time>2022-04-15T14:00:50Z</time>
      </trkpt>
      <trkpt lat="45.6703" lon="5.77566">
        <ele>438.7</ele>
        <time>2022-04-15T14:00:51Z</time>
      </trkpt>
      <trkpt lat="45.6703" lon="5.77566">
        <ele>438.7</ele>
        <time>2022-04-15T14:00:52Z</time>
      </trkpt>
      <trkpt lat="45.6703" lon="5.77566">
        <ele>438.7</ele>
        <time>2022-04-15T14:00:53Z</time>
      </trkpt>
      <trkpt lat="45.6703" lon="5.77566">
        <ele>438.7</ele>
        <time>2022-04-15T14:00:54Z</time>
      </trkpt>
      <trkpt lat="45.6703" lon="5.77566">
        <ele>438.7</ele>
        <time>2022-04-15T14:00:55Z</time>
      </trkpt>
      <trkpt lat="45.6703" lon="5.77566">
        <ele>438.7</ele>
        <time>2022-04-15T14:00:56Z</time>
      </trkpt>
      <trkpt lat="45.6703" lon="5.77566">
        <ele>438.7</ele>
        <time>2022-04-15T14:00:57Z</time>
      </trkpt>
      <trkpt lat="45.6703" lon="5.77566">
        <ele>438.7</ele>
        <time>2022-04-15T14:00:58Z</time>
      </trkpt>
      <trkpt lat="45.6703" lon="5.77566">
        <ele>438.7</ele>
        <time>2022-04-15T14:00:59Z</time>
      </trkpt>
      <trkpt lat="45.6703" lon="5.77565">
        <ele>438.7</ele>
        <time>2022-04-15T14:01:00Z</time>
      </trkpt>
      <trkpt lat="45.6703" lon="5.77565">
        <ele>438.7</ele>
        <time>2022-04-15T14:01:01Z</time>
      </trkpt>
      <trkpt lat="45.6703" lon="5.77565">
        <ele>438.7</ele>
        <time>2022-04-15T14:01:02Z</time>
      </trkpt>
      <trkpt lat="45.6703" lon="5.77565">
        <ele>438.7</ele>
        <time>2022-04-15T14:01:03Z</time>
      </trkpt>
      <trkpt lat="45.6703" lon="5.77565">
        <ele>438.7</ele>
        <time>2022-04-15T14:01:04Z</time>
      </trkpt>
      <trkpt lat="45.6703" lon="5.77565">
        <ele>438.7</ele>
        <time>2022-04-15T14:01:05Z</time>
      </trkpt>
      <trkpt lat="45.6703" lon="5.77565">
        <ele>438.7</ele>
        <time>2022-04-15T14:01:06Z</time>
      </trkpt>
      <trkpt lat="45.6703" lon="5.77565">
        <ele>438.7</ele>
        <time>2022-04-15T14:01:07Z</time>
      </trkpt>
      <trkpt lat="45.6703" lon="5.77565">
        <ele>438.7</ele>
        <time>2022-04-15T14:01:08Z</time>
      </trkpt>
      <trkpt lat="45.6703" lon="5.77565">
        <ele>438.7</ele>
        <time>2022-04-15T14:01:09Z</time>
      </trkpt>
      <trkpt lat="45.6703" lon="5.77565">
        <ele>438.7</ele>
        <time>2022-04-15T14:01:10Z</time>
      </trkpt>
      <trkpt lat="45.6703" lon="5.77565">
        <ele>438.7</ele>
        <time>2022-04-15T14:01:11Z</time>
      </trkpt>
      <trkpt lat="45.6703" lon="5.77565">
        <ele>438.7</ele>
        <time>2022-04-15T14:01:12Z</time>
      </trkpt>
      <trkpt lat="45.6703" lon="5.77565">
        <ele>438.7</ele>
        <time>2022-04-15T14:01:13Z</time>
      </trkpt>
      <trkpt lat="45.6703" lon="5.77565">
        <ele>438.7</ele>
        <time>2022-04-15T14:01:14Z</time>
      </trkpt>
      <trkpt lat="45.6703" lon="5.77565">
        <ele>438.7</ele>
        <time>2022-04-15T14:01:15Z</time>
      </trkpt>
      <trkpt lat="45.6703" lon="5.77565">
        <ele>438.7</ele>
        <time>2022-04-15T14:01:16Z</time>
      </trkpt>
      <trkpt lat="45.6703" lon="5.77565">
        <ele>438.7</ele>
        <time>2022-04-15T14:01:17Z</time>
      </trkpt>
      <trkpt lat="45.6703" lon="5.77565">
        <ele>438.7</ele>
        <time>2022-04-15T14:01:18Z</time>
      </trkpt>
      <trkpt lat="45.6703" lon="5.77565">
        <ele>438.7</ele>
        <time>2022-04-15T14:01:19Z</time>
      </trkpt>
      <trkpt lat="45.6703" lon="5.77565">
        <ele>438.8</ele>
        <time>2022-04-15T14:01:20Z</time>
      </trkpt>
      <trkpt lat="45.6703" lon="5.77565">
        <ele>438.8</ele>
        <time>2022-04-15T14:01:21Z</time>
      </trkpt>
      <trkpt lat="45.6703" lon="5.77565">
        <ele>438.8</ele>
        <time>2022-04-15T14:01:22Z</time>
      </trkpt>
      <trkpt lat="45.6703" lon="5.77565">
        <ele>438.8</ele>
        <time>2022-04-15T14:01:23Z</time>
      </trkpt>
      <trkpt lat="45.6703" lon="5.77565">
        <ele>438.8</ele>
        <time>2022-04-15T14:01:24Z</time>
      </trkpt>
      <trkpt lat="45.6703" lon="5.77565">
        <ele>438.8</ele>
        <time>2022-04-15T14:01:25Z</time>
      </trkpt>
      <trkpt lat="45.67031" lon="5.77564">
        <ele>438.8</ele>
        <time>2022-04-15T14:01:26Z</time>
      </trkpt>
      <trkpt lat="45.67032" lon="5.77562">
        <ele>438.9</ele>
        <time>2022-04-15T14:01:27Z</time>
      </trkpt>
      <trkpt lat="45.67034" lon="5.77561">
        <ele>438.9</ele>
        <time>2022-04-15T14:01:28Z</time>
      </trkpt>
      <trkpt lat="45.67035" lon="5.7756">
        <ele>439</ele>
        <time>2022-04-15T14:01:29Z</time>
      </trkpt>
      <trkpt lat="45.67037" lon="5.77558">
        <ele>439</ele>
        <time>2022-04-15T14:01:30Z</time>
      </trkpt>
      <trkpt lat="45.67038" lon="5.77561">
        <ele>439.1</ele>
        <time>2022-04-15T14:01:31Z</time>
      </trkpt>
      <trkpt lat="45.67042" lon="5.77556">
        <ele>439.3</ele>
        <time>2022-04-15T14:01:33Z</time>
      </trkpt>
      <trkpt lat="45.67046" lon="5.77554">
        <ele>439.4</ele>
        <time>2022-04-15T14:01:34Z</time>
      </trkpt>
      <trkpt lat="45.67049" lon="5.77553">
        <ele>439.5</ele>
        <time>2022-04-15T14:01:35Z</time>
      </trkpt>
      <trkpt lat="45.67056" lon="5.77552">
        <ele>439.7</ele>
        <time>2022-04-15T14:01:37Z</time>
      </trkpt>
      <trkpt lat="45.67061" lon="5.77551">
        <ele>439.9</ele>
        <time>2022-04-15T14:01:39Z</time>
      </trkpt>
      <trkpt lat="45.67067" lon="5.77551">
        <ele>440.1</ele>
        <time>2022-04-15T14:01:41Z</time>
      </trkpt>
      <trkpt lat="45.67073" lon="5.7755">
        <ele>440.3</ele>
        <time>2022-04-15T14:01:43Z</time>
      </trkpt>
      <trkpt lat="45.67078" lon="5.7755">
        <ele>440.4</ele>
        <time>2022-04-15T14:01:45Z</time>
      </trkpt>
      <trkpt lat="45.67082" lon="5.7755">
        <ele>440.5</ele>
        <time>2022-04-15T14:01:46Z</time>
      </trkpt>
      <trkpt lat="45.67086" lon="5.77549">
        <ele>440.7</ele>
        <time>2022-04-15T14:01:47Z</time>
      </trkpt>
      <trkpt lat="45.6709" lon="5.77549">
        <ele>440.8</ele>
        <time>2022-04-15T14:01:49Z</time>
      </trkpt>
      <trkpt lat="45.67093" lon="5.77549">
        <ele>440.9</ele>
        <time>2022-04-15T14:01:50Z</time>
      </trkpt>
      <trkpt lat="45.67096" lon="5.77549">
        <ele>441</ele>
        <time>2022-04-15T14:01:51Z</time>
      </trkpt>
      <trkpt lat="45.67099" lon="5.77549">
        <ele>441.1</ele>
        <time>2022-04-15T14:01:52Z</time>
      </trkpt>
      <trkpt lat="45.67104" lon="5.77548">
        <ele>441.3</ele>
        <time>2022-04-15T14:01:53Z</time>
      </trkpt>
      <trkpt lat="45.67108" lon="5.77548">
        <ele>441.4</ele>
        <time>2022-04-15T14:01:54Z</time>
      </trkpt>
      <trkpt lat="45.67112" lon="5.77547">
        <ele>441.6</ele>
        <time>2022-04-15T14:01:56Z</time>
      </trkpt>
      <trkpt lat="45.67114" lon="5.77547">
        <ele>441.7</ele>
        <time>2022-04-15T14:01:57Z</time>
      </trkpt>
      <trkpt lat="45.67117" lon="5.77547">
        <ele>441.8</ele>
        <time>2022-04-15T14:01:58Z</time>
      </trkpt>
      <trkpt lat="45.67122" lon="5.77547">
        <ele>441.9</ele>
        <time>2022-04-15T14:02:00Z</time>
      </trkpt>
      <trkpt lat="45.67128" lon="5.77547">
        <ele>442</ele>
        <time>2022-04-15T14:02:02Z</time>
      </trkpt>
      <trkpt lat="45.67132" lon="5.77547">
        <ele>442.1</ele>
        <time>2022-04-15T14:02:03Z</time>
      </trkpt>
      <trkpt lat="45.67137" lon="5.77548">
        <ele>442.3</ele>
        <time>2022-04-15T14:02:05Z</time>
      </trkpt>
      <trkpt lat="45.67143" lon="5.7755">
        <ele>442.3</ele>
        <time>2022-04-15T14:02:06Z</time>
      </trkpt>
      <trkpt lat="45.67147" lon="5.77551">
        <ele>442.4</ele>
        <time>2022-04-15T14:02:08Z</time>
      </trkpt>
      <trkpt lat="45.6715" lon="5.77553">
        <ele>442.4</ele>
        <time>2022-04-15T14:02:09Z</time>
      </trkpt>
      <trkpt lat="45.67157" lon="5.77556">
        <ele>442.5</ele>
        <time>2022-04-15T14:02:11Z</time>
      </trkpt>
      <trkpt lat="45.67164" lon="5.77559">
        <ele>442.6</ele>
        <time>2022-04-15T14:02:13Z</time>
      </trkpt>
      <trkpt lat="45.67167" lon="5.77561">
        <ele>442.6</ele>
        <time>2022-04-15T14:02:14Z</time>
      </trkpt>
      <trkpt lat="45.6717" lon="5.77564">
        <ele>442.6</ele>
        <time>2022-04-15T14:02:15Z</time>
      </trkpt>
      <trkpt lat="45.67173" lon="5.77566">
        <ele>442.7</ele>
        <time>2022-04-15T14:02:16Z</time>
      </trkpt>
      <trkpt lat="45.67176" lon="5.7757">
        <ele>442.7</ele>
        <time>2022-04-15T14:02:17Z</time>
      </trkpt>
      <trkpt lat="45.6718" lon="5.77574">
        <ele>442.7</ele>
        <time>2022-04-15T14:02:18Z</time>
      </trkpt>
      <trkpt lat="45.67183" lon="5.77578">
        <ele>442.8</ele>
        <time>2022-04-15T14:02:19Z</time>
      </trkpt>
      <trkpt lat="45.67186" lon="5.77582">
        <ele>442.8</ele>
        <time>2022-04-15T14:02:21Z</time>
      </trkpt>
      <trkpt lat="45.67189" lon="5.77585">
        <ele>442.8</ele>
        <time>2022-04-15T14:02:22Z</time>
      </trkpt>
      <trkpt lat="45.67192" lon="5.77589">
        <ele>442.9</ele>
        <time>2022-04-15T14:02:23Z</time>
      </trkpt>
      <trkpt lat="45.67196" lon="5.77594">
        <ele>442.9</ele>
        <time>2022-04-15T14:02:24Z</time>
      </trkpt>
      <trkpt lat="45.67199" lon="5.77599">
        <ele>442.9</ele>
        <time>2022-04-15T14:02:25Z</time>
      </trkpt>
      <trkpt lat="45.67203" lon="5.77605">
        <ele>443</ele>
        <time>2022-04-15T14:02:27Z</time>
      </trkpt>
      <trkpt lat="45.67206" lon="5.7761">
        <ele>443</ele>
        <time>2022-04-15T14:02:28Z</time>
      </trkpt>
      <trkpt lat="45.6721" lon="5.77615">
        <ele>443</ele>
        <time>2022-04-15T14:02:29Z</time>
      </trkpt>
      <trkpt lat="45.67213" lon="5.7762">
        <ele>443</ele>
        <time>2022-04-15T14:02:30Z</time>
      </trkpt>
      <trkpt lat="45.67216" lon="5.77627">
        <ele>442.9</ele>
        <time>2022-04-15T14:02:31Z</time>
      </trkpt>
      <trkpt lat="45.67219" lon="5.77633">
        <ele>442.9</ele>
        <time>2022-04-15T14:02:33Z</time>
      </trkpt>
      <trkpt lat="45.67221" lon="5.77637">
        <ele>442.9</ele>
        <time>2022-04-15T14:02:34Z</time>
      </trkpt>
      <trkpt lat="45.67224" lon="5.77641">
        <ele>442.9</ele>
        <time>2022-04-15T14:02:35Z</time>
      </trkpt>
      <trkpt lat="45.67227" lon="5.77646">
        <ele>442.9</ele>
        <time>2022-04-15T14:02:36Z</time>
      </trkpt>
      <trkpt lat="45.67232" lon="5.77655">
        <ele>442.8</ele>
        <time>2022-04-15T14:02:38Z</time>
      </trkpt>
      <trkpt lat="45.67234" lon="5.7766">
        <ele>442.8</ele>
        <time>2022-04-15T14:02:39Z</time>
      </trkpt>
      <trkpt lat="45.67236" lon="5.77665">
        <ele>442.8</ele>
        <time>2022-04-15T14:02:40Z</time>
      </trkpt>
      <trkpt lat="45.67239" lon="5.7767">
        <ele>442.7</ele>
        <time>2022-04-15T14:02:41Z</time>
      </trkpt>
      <trkpt lat="45.67242" lon="5.77675">
        <ele>442.7</ele>
        <time>2022-04-15T14:02:42Z</time>
      </trkpt>
      <trkpt lat="45.67248" lon="5.77686">
        <ele>442.7</ele>
        <time>2022-04-15T14:02:44Z</time>
      </trkpt>
      <trkpt lat="45.67252" lon="5.77693">
        <ele>442.6</ele>
        <time>2022-04-15T14:02:45Z</time>
      </trkpt>
      <trkpt lat="45.67254" lon="5.77698">
        <ele>442.6</ele>
        <time>2022-04-15T14:02:46Z</time>
      </trkpt>
      <trkpt lat="45.67258" lon="5.77704">
        <ele>442.6</ele>
        <time>2022-04-15T14:02:47Z</time>
      </trkpt>
      <trkpt lat="45.67262" lon="5.77711">
        <ele>442.6</ele>
        <time>2022-04-15T14:02:49Z</time>
      </trkpt>
      <trkpt lat="45.67265" lon="5.77716">
        <ele>442.6</ele>
        <time>2022-04-15T14:02:50Z</time>
      </trkpt>
      <trkpt lat="45.67268" lon="5.77721">
        <ele>442.5</ele>
        <time>2022-04-15T14:02:51Z</time>
      </trkpt>
      <trkpt lat="45.67271" lon="5.77727">
        <ele>442.5</ele>
        <time>2022-04-15T14:02:52Z</time>
      </trkpt>
      <trkpt lat="45.67273" lon="5.77733">
        <ele>442.5</ele>
        <time>2022-04-15T14:02:53Z</time>
      </trkpt>
      <trkpt lat="45.67276" lon="5.77738">
        <ele>442.4</ele>
        <time>2022-04-15T14:02:54Z</time>
      </trkpt>
      <trkpt lat="45.67279" lon="5.77744">
        <ele>442.4</ele>
        <time>2022-04-15T14:02:55Z</time>
      </trkpt>
      <trkpt lat="45.67282" lon="5.77749">
        <ele>442.4</ele>
        <time>2022-04-15T14:02:56Z</time>
      </trkpt>
      <trkpt lat="45.67286" lon="5.77754">
        <ele>442.4</ele>
        <time>2022-04-15T14:02:57Z</time>
      </trkpt>
      <trkpt lat="45.67289" lon="5.7776">
        <ele>442.3</ele>
        <time>2022-04-15T14:02:58Z</time>
      </trkpt>
      <trkpt lat="45.67292" lon="5.77766">
        <ele>442.3</ele>
        <time>2022-04-15T14:02:59Z</time>
      </trkpt>
      <trkpt lat="45.67294" lon="5.77771">
        <ele>442.3</ele>
        <time>2022-04-15T14:03:00Z</time>
      </trkpt>
      <trkpt lat="45.67298" lon="5.77777">
        <ele>442.3</ele>
        <time>2022-04-15T14:03:01Z</time>
      </trkpt>
      <trkpt lat="45.67301" lon="5.77782">
        <ele>442.3</ele>
        <time>2022-04-15T14:03:02Z</time>
      </trkpt>
      <trkpt lat="45.67304" lon="5.77788">
        <ele>442.3</ele>
        <time>2022-04-15T14:03:03Z</time>
      </trkpt>
      <trkpt lat="45.67307" lon="5.77794">
        <ele>442.3</ele>
        <time>2022-04-15T14:03:04Z</time>
      </trkpt>
      <trkpt lat="45.6731" lon="5.778">
        <ele>442.3</ele>
        <time>2022-04-15T14:03:05Z</time>
      </trkpt>
      <trkpt lat="45.67313" lon="5.77806">
        <ele>442.3</ele>
        <time>2022-04-15T14:03:06Z</time>
      </trkpt>
      <trkpt lat="45.67316" lon="5.77812">
        <ele>442.3</ele>
        <time>2022-04-15T14:03:07Z</time>
      </trkpt>
      <trkpt lat="45.6732" lon="5.77817">
        <ele>442.2</ele>
        <time>2022-04-15T14:03:08Z</time>
      </trkpt>
      <trkpt lat="45.67323" lon="5.77822">
        <ele>442.2</ele>
        <time>2022-04-15T14:03:09Z</time>
      </trkpt>
      <trkpt lat="45.67326" lon="5.77828">
        <ele>442.2</ele>
        <time>2022-04-15T14:03:10Z</time>
      </trkpt>
      <trkpt lat="45.6733" lon="5.77833">
        <ele>442.1</ele>
        <time>2022-04-15T14:03:11Z</time>
      </trkpt>
      <trkpt lat="45.67333" lon="5.77839">
        <ele>442.1</ele>
        <time>2022-04-15T14:03:12Z</time>
      </trkpt>
      <trkpt lat="45.67337" lon="5.77844">
        <ele>442.1</ele>
        <time>2022-04-15T14:03:13Z</time>
      </trkpt>
      <trkpt lat="45.6734" lon="5.7785">
        <ele>442</ele>
        <time>2022-04-15T14:03:14Z</time>
      </trkpt>
      <trkpt lat="45.67343" lon="5.77856">
        <ele>442</ele>
        <time>2022-04-15T14:03:15Z</time>
      </trkpt>
      <trkpt lat="45.67346" lon="5.77862">
        <ele>442</ele>
        <time>2022-04-15T14:03:16Z</time>
      </trkpt>
      <trkpt lat="45.67349" lon="5.77867">
        <ele>441.9</ele>
        <time>2022-04-15T14:03:17Z</time>
      </trkpt>
      <trkpt lat="45.67352" lon="5.77874">
        <ele>441.9</ele>
        <time>2022-04-15T14:03:18Z</time>
      </trkpt>
      <trkpt lat="45.67355" lon="5.7788">
        <ele>441.9</ele>
        <time>2022-04-15T14:03:19Z</time>
      </trkpt>
      <trkpt lat="45.67358" lon="5.77886">
        <ele>441.8</ele>
        <time>2022-04-15T14:03:20Z</time>
      </trkpt>
      <trkpt lat="45.67362" lon="5.77892">
        <ele>441.8</ele>
        <time>2022-04-15T14:03:21Z</time>
      </trkpt>
      <trkpt lat="45.67366" lon="5.77898">
        <ele>441.8</ele>
        <time>2022-04-15T14:03:22Z</time>
      </trkpt>
      <trkpt lat="45.67369" lon="5.77905">
        <ele>441.7</ele>
        <time>2022-04-15T14:03:23Z</time>
      </trkpt>
      <trkpt lat="45.67372" lon="5.77911">
        <ele>441.7</ele>
        <time>2022-04-15T14:03:24Z</time>
      </trkpt>
      <trkpt lat="45.67375" lon="5.77917">
        <ele>441.7</ele>
        <time>2022-04-15T14:03:25Z</time>
      </trkpt>
      <trkpt lat="45.67379" lon="5.77923">
        <ele>441.7</ele>
        <time>2022-04-15T14:03:26Z</time>
      </trkpt>
      <trkpt lat="45.67382" lon="5.7793">
        <ele>441.6</ele>
        <time>2022-04-15T14:03:27Z</time>
      </trkpt>
      <trkpt lat="45.67386" lon="5.77936">
        <ele>441.6</ele>
        <time>2022-04-15T14:03:28Z</time>
      </trkpt>
      <trkpt lat="45.67389" lon="5.77942">
        <ele>441.6</ele>
        <time>2022-04-15T14:03:29Z</time>
      </trkpt>
      <trkpt lat="45.67392" lon="5.77949">
        <ele>441.6</ele>
        <time>2022-04-15T14:03:30Z</time>
      </trkpt>
      <trkpt lat="45.67395" lon="5.77955">
        <ele>441.6</ele>
        <time>2022-04-15T14:03:31Z</time>
      </trkpt>
      <trkpt lat="45.67399" lon="5.77961">
        <ele>441.6</ele>
        <time>2022-04-15T14:03:32Z</time>
      </trkpt>
      <trkpt lat="45.67402" lon="5.77967">
        <ele>441.6</ele>
        <time>2022-04-15T14:03:33Z</time>
      </trkpt>
      <trkpt lat="45.67405" lon="5.77973">
        <ele>441.6</ele>
        <time>2022-04-15T14:03:34Z</time>
      </trkpt>
      <trkpt lat="45.67409" lon="5.7798">
        <ele>441.6</ele>
        <time>2022-04-15T14:03:35Z</time>
      </trkpt>
      <trkpt lat="45.67413" lon="5.77986">
        <ele>441.5</ele>
        <time>2022-04-15T14:03:36Z</time>
      </trkpt>
      <trkpt lat="45.67416" lon="5.77992">
        <ele>441.5</ele>
        <time>2022-04-15T14:03:37Z</time>
      </trkpt>
      <trkpt lat="45.6742" lon="5.77998">
        <ele>441.4</ele>
        <time>2022-04-15T14:03:38Z</time>
      </trkpt>
      <trkpt lat="45.67423" lon="5.78005">
        <ele>441.4</ele>
        <time>2022-04-15T14:03:39Z</time>
      </trkpt>
      <trkpt lat="45.67426" lon="5.78011">
        <ele>441.3</ele>
        <time>2022-04-15T14:03:40Z</time>
      </trkpt>
      <trkpt lat="45.6743" lon="5.78017">
        <ele>441.3</ele>
        <time>2022-04-15T14:03:41Z</time>
      </trkpt>
      <trkpt lat="45.67433" lon="5.78024">
        <ele>441.2</ele>
        <time>2022-04-15T14:03:42Z</time>
      </trkpt>
      <trkpt lat="45.67436" lon="5.7803">
        <ele>441.2</ele>
        <time>2022-04-15T14:03:43Z</time>
      </trkpt>
      <trkpt lat="45.6744" lon="5.78036">
        <ele>441.1</ele>
        <time>2022-04-15T14:03:44Z</time>
      </trkpt>
      <trkpt lat="45.67443" lon="5.78042">
        <ele>441.1</ele>
        <time>2022-04-15T14:03:45Z</time>
      </trkpt>
      <trkpt lat="45.67447" lon="5.78049">
        <ele>441</ele>
        <time>2022-04-15T14:03:46Z</time>
      </trkpt>
      <trkpt lat="45.67451" lon="5.78055">
        <ele>440.9</ele>
        <time>2022-04-15T14:03:47Z</time>
      </trkpt>
      <trkpt lat="45.67454" lon="5.7806">
        <ele>440.9</ele>
        <time>2022-04-15T14:03:48Z</time>
      </trkpt>
      <trkpt lat="45.67457" lon="5.78067">
        <ele>440.8</ele>
        <time>2022-04-15T14:03:49Z</time>
      </trkpt>
      <trkpt lat="45.67461" lon="5.78073">
        <ele>440.7</ele>
        <time>2022-04-15T14:03:50Z</time>
      </trkpt>
      <trkpt lat="45.67464" lon="5.78079">
        <ele>440.6</ele>
        <time>2022-04-15T14:03:51Z</time>
      </trkpt>
      <trkpt lat="45.67468" lon="5.78085">
        <ele>440.6</ele>
        <time>2022-04-15T14:03:52Z</time>
      </trkpt>
      <trkpt lat="45.67471" lon="5.78091">
        <ele>440.5</ele>
        <time>2022-04-15T14:03:53Z</time>
      </trkpt>
      <trkpt lat="45.67475" lon="5.78098">
        <ele>440.4</ele>
        <time>2022-04-15T14:03:54Z</time>
      </trkpt>
      <trkpt lat="45.67478" lon="5.78104">
        <ele>440.3</ele>
        <time>2022-04-15T14:03:55Z</time>
      </trkpt>
      <trkpt lat="45.67481" lon="5.78111">
        <ele>440.2</ele>
        <time>2022-04-15T14:03:56Z</time>
      </trkpt>
      <trkpt lat="45.67485" lon="5.78117">
        <ele>440.1</ele>
        <time>2022-04-15T14:03:57Z</time>
      </trkpt>
      <trkpt lat="45.67488" lon="5.78123">
        <ele>440</ele>
        <time>2022-04-15T14:03:58Z</time>
      </trkpt>
      <trkpt lat="45.67491" lon="5.7813">
        <ele>439.9</ele>
        <time>2022-04-15T14:03:59Z</time>
      </trkpt>
      <trkpt lat="45.67495" lon="5.78136">
        <ele>439.8</ele>
        <time>2022-04-15T14:04:00Z</time>
      </trkpt>
      <trkpt lat="45.67498" lon="5.78142">
        <ele>439.7</ele>
        <time>2022-04-15T14:04:01Z</time>
      </trkpt>
      <trkpt lat="45.67502" lon="5.78148">
        <ele>439.6</ele>
        <time>2022-04-15T14:04:02Z</time>
      </trkpt>
      <trkpt lat="45.67505" lon="5.78154">
        <ele>439.5</ele>
        <time>2022-04-15T14:04:03Z</time>
      </trkpt>
      <trkpt lat="45.67509" lon="5.78161">
        <ele>439.3</ele>
        <time>2022-04-15T14:04:04Z</time>
      </trkpt>
      <trkpt lat="45.67513" lon="5.78168">
        <ele>439.2</ele>
        <time>2022-04-15T14:04:05Z</time>
      </trkpt>
      <trkpt lat="45.67516" lon="5.78174">
        <ele>439</ele>
        <time>2022-04-15T14:04:06Z</time>
      </trkpt>
      <trkpt lat="45.6752" lon="5.7818">
        <ele>438.9</ele>
        <time>2022-04-15T14:04:07Z</time>
      </trkpt>
      <trkpt lat="45.67524" lon="5.78187">
        <ele>438.7</ele>
        <time>2022-04-15T14:04:08Z</time>
      </trkpt>
      <trkpt lat="45.67527" lon="5.78194">
        <ele>438.5</ele>
        <time>2022-04-15T14:04:09Z</time>
      </trkpt>
      <trkpt lat="45.67531" lon="5.78201">
        <ele>438.3</ele>
        <time>2022-04-15T14:04:10Z</time>
      </trkpt>
      <trkpt lat="45.67535" lon="5.78208">
        <ele>438.1</ele>
        <time>2022-04-15T14:04:11Z</time>
      </trkpt>
      <trkpt lat="45.67539" lon="5.78215">
        <ele>437.9</ele>
        <time>2022-04-15T14:04:12Z</time>
      </trkpt>
      <trkpt lat="45.67543" lon="5.78222">
        <ele>437.8</ele>
        <time>2022-04-15T14:04:13Z</time>
      </trkpt>
      <trkpt lat="45.67547" lon="5.78229">
        <ele>437.6</ele>
        <time>2022-04-15T14:04:14Z</time>
      </trkpt>
      <trkpt lat="45.67551" lon="5.78236">
        <ele>437.4</ele>
        <time>2022-04-15T14:04:15Z</time>
      </trkpt>
      <trkpt lat="45.67554" lon="5.78242">
        <ele>437.1</ele>
        <time>2022-04-15T14:04:16Z</time>
      </trkpt>
      <trkpt lat="45.67558" lon="5.78249">
        <ele>436.9</ele>
        <time>2022-04-15T14:04:17Z</time>
      </trkpt>
      <trkpt lat="45.67562" lon="5.78255">
        <ele>436.8</ele>
        <time>2022-04-15T14:04:18Z</time>
      </trkpt>
      <trkpt lat="45.67566" lon="5.78262">
        <ele>436.6</ele>
        <time>2022-04-15T14:04:19Z</time>
      </trkpt>
      <trkpt lat="45.67569" lon="5.78269">
        <ele>436.4</ele>
        <time>2022-04-15T14:04:20Z</time>
      </trkpt>
      <trkpt lat="45.67573" lon="5.78276">
        <ele>436.2</ele>
        <time>2022-04-15T14:04:21Z</time>
      </trkpt>
      <trkpt lat="45.67576" lon="5.78283">
        <ele>436</ele>
        <time>2022-04-15T14:04:22Z</time>
      </trkpt>
      <trkpt lat="45.6758" lon="5.7829">
        <ele>435.7</ele>
        <time>2022-04-15T14:04:23Z</time>
      </trkpt>
      <trkpt lat="45.67584" lon="5.78297">
        <ele>435.5</ele>
        <time>2022-04-15T14:04:24Z</time>
      </trkpt>
      <trkpt lat="45.67588" lon="5.78304">
        <ele>435.3</ele>
        <time>2022-04-15T14:04:25Z</time>
      </trkpt>
      <trkpt lat="45.67591" lon="5.7831">
        <ele>435.1</ele>
        <time>2022-04-15T14:04:26Z</time>
      </trkpt>
      <trkpt lat="45.67594" lon="5.78315">
        <ele>435</ele>
        <time>2022-04-15T14:04:27Z</time>
      </trkpt>
      <trkpt lat="45.67597" lon="5.7832">
        <ele>434.8</ele>
        <time>2022-04-15T14:04:28Z</time>
      </trkpt>
      <trkpt lat="45.676" lon="5.78326">
        <ele>434.7</ele>
        <time>2022-04-15T14:04:29Z</time>
      </trkpt>
      <trkpt lat="45.67603" lon="5.78331">
        <ele>434.7</ele>
        <time>2022-04-15T14:04:30Z</time>
      </trkpt>
      <trkpt lat="45.67606" lon="5.78338">
        <ele>434.6</ele>
        <time>2022-04-15T14:04:31Z</time>
      </trkpt>
      <trkpt lat="45.6761" lon="5.78344">
        <ele>434.3</ele>
        <time>2022-04-15T14:04:32Z</time>
      </trkpt>
      <trkpt lat="45.67613" lon="5.7835">
        <ele>434</ele>
        <time>2022-04-15T14:04:33Z</time>
      </trkpt>
      <trkpt lat="45.67617" lon="5.78358">
        <ele>433.6</ele>
        <time>2022-04-15T14:04:34Z</time>
      </trkpt>
      <trkpt lat="45.67621" lon="5.78365">
        <ele>433.3</ele>
        <time>2022-04-15T14:04:35Z</time>
      </trkpt>
      <trkpt lat="45.67625" lon="5.78373">
        <ele>432.9</ele>
        <time>2022-04-15T14:04:36Z</time>
      </trkpt>
      <trkpt lat="45.67629" lon="5.7838">
        <ele>432.6</ele>
        <time>2022-04-15T14:04:37Z</time>
      </trkpt>
      <trkpt lat="45.67634" lon="5.78387">
        <ele>432.2</ele>
        <time>2022-04-15T14:04:38Z</time>
      </trkpt>
      <trkpt lat="45.67638" lon="5.78394">
        <ele>431.8</ele>
        <time>2022-04-15T14:04:39Z</time>
      </trkpt>
      <trkpt lat="45.67643" lon="5.78402">
        <ele>431.5</ele>
        <time>2022-04-15T14:04:40Z</time>
      </trkpt>
      <trkpt lat="45.67647" lon="5.7841">
        <ele>431.1</ele>
        <time>2022-04-15T14:04:41Z</time>
      </trkpt>
      <trkpt lat="45.67652" lon="5.78418">
        <ele>430.7</ele>
        <time>2022-04-15T14:04:42Z</time>
      </trkpt>
      <trkpt lat="45.67656" lon="5.78426">
        <ele>430.4</ele>
        <time>2022-04-15T14:04:43Z</time>
      </trkpt>
      <trkpt lat="45.67661" lon="5.78433">
        <ele>430.1</ele>
        <time>2022-04-15T14:04:44Z</time>
      </trkpt>
      <trkpt lat="45.67665" lon="5.7844">
        <ele>429.8</ele>
        <time>2022-04-15T14:04:45Z</time>
      </trkpt>
      <trkpt lat="45.67668" lon="5.78446">
        <ele>429.6</ele>
        <time>2022-04-15T14:04:46Z</time>
      </trkpt>
      <trkpt lat="45.67671" lon="5.78452">
        <ele>429.5</ele>
        <time>2022-04-15T14:04:47Z</time>
      </trkpt>
      <trkpt lat="45.67673" lon="5.78457">
        <ele>429.4</ele>
        <time>2022-04-15T14:04:48Z</time>
      </trkpt>
      <trkpt lat="45.67677" lon="5.78463">
        <ele>429.2</ele>
        <time>2022-04-15T14:04:49Z</time>
      </trkpt>
      <trkpt lat="45.6768" lon="5.78468">
        <ele>429.1</ele>
        <time>2022-04-15T14:04:50Z</time>
      </trkpt>
      <trkpt lat="45.67684" lon="5.78474">
        <ele>428.9</ele>
        <time>2022-04-15T14:04:51Z</time>
      </trkpt>
      <trkpt lat="45.67687" lon="5.7848">
        <ele>428.7</ele>
        <time>2022-04-15T14:04:52Z</time>
      </trkpt>
      <trkpt lat="45.6769" lon="5.78485">
        <ele>428.6</ele>
        <time>2022-04-15T14:04:53Z</time>
      </trkpt>
      <trkpt lat="45.67691" lon="5.78489">
        <ele>428.5</ele>
        <time>2022-04-15T14:04:54Z</time>
      </trkpt>
      <trkpt lat="45.67692" lon="5.78491">
        <ele>428.4</ele>
        <time>2022-04-15T14:04:55Z</time>
      </trkpt>
      <trkpt lat="45.67692" lon="5.78494">
        <ele>428.4</ele>
        <time>2022-04-15T14:04:56Z</time>
      </trkpt>
      <trkpt lat="45.67692" lon="5.78495">
        <ele>428.5</ele>
        <time>2022-04-15T14:04:57Z</time>
      </trkpt>
      <trkpt lat="45.67691" lon="5.78496">
        <ele>428.5</ele>
        <time>2022-04-15T14:04:58Z</time>
      </trkpt>
      <trkpt lat="45.67691" lon="5.78496">
        <ele>428.5</ele>
        <time>2022-04-15T14:04:59Z</time>
      </trkpt>
      <trkpt lat="45.67691" lon="5.78497">
        <ele>428.5</ele>
        <time>2022-04-15T14:05:00Z</time>
      </trkpt>
      <trkpt lat="45.67691" lon="5.78497">
        <ele>428.5</ele>
        <time>2022-04-15T14:05:01Z</time>
      </trkpt>
      <trkpt lat="45.6769" lon="5.78497">
        <ele>428.5</ele>
        <time>2022-04-15T14:05:02Z</time>
      </trkpt>
      <trkpt lat="45.6769" lon="5.78496">
        <ele>428.5</ele>
        <time>2022-04-15T14:05:03Z</time>
      </trkpt>
      <trkpt lat="45.67689" lon="5.78496">
        <ele>428.5</ele>
        <time>2022-04-15T14:05:04Z</time>
      </trkpt>
      <trkpt lat="45.67689" lon="5.78496">
        <ele>428.5</ele>
        <time>2022-04-15T14:05:05Z</time>
      </trkpt>
      <trkpt lat="45.67689" lon="5.78496">
        <ele>428.5</ele>
        <time>2022-04-15T14:05:06Z</time>
      </trkpt>
      <trkpt lat="45.67689" lon="5.78496">
        <ele>428.5</ele>
        <time>2022-04-15T14:05:08Z</time>
      </trkpt>
      <trkpt lat="45.67689" lon="5.78496">
        <ele>428.5</ele>
        <time>2022-04-15T14:05:09Z</time>
      </trkpt>
      <trkpt lat="45.67689" lon="5.78496">
        <ele>428.5</ele>
        <time>2022-04-15T14:05:10Z</time>
      </trkpt>
      <trkpt lat="45.67689" lon="5.78496">
        <ele>428.5</ele>
        <time>2022-04-15T14:05:11Z</time>
      </trkpt>
      <trkpt lat="45.67689" lon="5.78496">
        <ele>428.5</ele>
        <time>2022-04-15T14:05:12Z</time>
      </trkpt>
      <trkpt lat="45.67689" lon="5.78496">
        <ele>428.5</ele>
        <time>2022-04-15T14:05:13Z</time>
      </trkpt>
      <trkpt lat="45.67689" lon="5.78496">
        <ele>428.5</ele>
        <time>2022-04-15T14:05:14Z</time>
      </trkpt>
      <trkpt lat="45.67689" lon="5.78496">
        <ele>428.5</ele>
        <time>2022-04-15T14:05:15Z</time>
      </trkpt>
      <trkpt lat="45.67689" lon="5.78496">
        <ele>428.5</ele>
        <time>2022-04-15T14:05:16Z</time>
      </trkpt>
      <trkpt lat="45.67689" lon="5.78496">
        <ele>428.5</ele>
        <time>2022-04-15T14:05:17Z</time>
      </trkpt>
      <trkpt lat="45.67689" lon="5.78496">
        <ele>428.5</ele>
        <time>2022-04-15T14:05:18Z</time>
      </trkpt>
      <trkpt lat="45.67689" lon="5.78496">
        <ele>428.5</ele>
        <time>2022-04-15T14:05:19Z</time>
      </trkpt>
      <trkpt lat="45.67689" lon="5.78496">
        <ele>428.5</ele>
        <time>2022-04-15T14:05:20Z</time>
      </trkpt>
      <trkpt lat="45.67689" lon="5.78496">
        <ele>428.5</ele>
        <time>2022-04-15T14:05:21Z</time>
      </trkpt>
      <trkpt lat="45.67689" lon="5.78496">
        <ele>428.5</ele>
        <time>2022-04-15T14:05:22Z</time>
      </trkpt>
      <trkpt lat="45.67689" lon="5.78496">
        <ele>428.5</ele>
        <time>2022-04-15T14:05:23Z</time>
      </trkpt>
      <trkpt lat="45.67689" lon="5.78496">
        <ele>428.5</ele>
        <time>2022-04-15T14:05:24Z</time>
      </trkpt>
      <trkpt lat="45.67689" lon="5.78496">
        <ele>428.5</ele>
        <time>2022-04-15T14:05:25Z</time>
      </trkpt>
      <trkpt lat="45.67689" lon="5.78496">
        <ele>428.5</ele>
        <time>2022-04-15T14:05:26Z</time>
      </trkpt>
      <trkpt lat="45.67689" lon="5.78496">
        <ele>428.5</ele>
        <time>2022-04-15T14:05:27Z</time>
      </trkpt>
      <trkpt lat="45.67689" lon="5.78496">
        <ele>428.5</ele>
        <time>2022-04-15T14:05:28Z</time>
      </trkpt>
      <trkpt lat="45.67689" lon="5.78496">
        <ele>428.5</ele>
        <time>2022-04-15T14:05:29Z</time>
      </trkpt>
      <trkpt lat="45.67689" lon="5.78496">
        <ele>428.5</ele>
        <time>2022-04-15T14:05:30Z</time>
      </trkpt>
      <trkpt lat="45.67689" lon="5.78496">
        <ele>428.5</ele>
        <time>2022-04-15T14:05:31Z</time>
      </trkpt>
      <trkpt lat="45.67689" lon="5.78496">
        <ele>428.5</ele>
        <time>2022-04-15T14:05:32Z</time>
      </trkpt>
      <trkpt lat="45.67689" lon="5.78496">
        <ele>428.5</ele>
        <time>2022-04-15T14:05:33Z</time>
      </trkpt>
      <trkpt lat="45.67689" lon="5.78496">
        <ele>428.5</ele>
        <time>2022-04-15T14:05:34Z</time>
      </trkpt>
      <trkpt lat="45.67689" lon="5.78496">
        <ele>428.5</ele>
        <time>2022-04-15T14:05:35Z</time>
      </trkpt>
      <trkpt lat="45.67689" lon="5.78496">
        <ele>428.5</ele>
        <time>2022-04-15T14:05:36Z</time>
      </trkpt>
      <trkpt lat="45.67689" lon="5.78496">
        <ele>428.5</ele>
        <time>2022-04-15T14:05:37Z</time>
      </trkpt>
      <trkpt lat="45.67689" lon="5.78496">
        <ele>428.5</ele>
        <time>2022-04-15T14:05:38Z</time>
      </trkpt>
      <trkpt lat="45.67689" lon="5.78496">
        <ele>428.5</ele>
        <time>2022-04-15T14:05:39Z</time>
      </trkpt>
      <trkpt lat="45.67688" lon="5.78496">
        <ele>428.5</ele>
        <time>2022-04-15T14:05:40Z</time>
      </trkpt>
      <trkpt lat="45.67688" lon="5.78496">
        <ele>428.5</ele>
        <time>2022-04-15T14:05:41Z</time>
      </trkpt>
      <trkpt lat="45.67688" lon="5.78496">
        <ele>428.5</ele>
        <time>2022-04-15T14:05:42Z</time>
      </trkpt>
      <trkpt lat="45.67688" lon="5.78497">
        <ele>428.5</ele>
        <time>2022-04-15T14:05:43Z</time>
      </trkpt>
      <trkpt lat="45.67688" lon="5.78498">
        <ele>428.5</ele>
        <time>2022-04-15T14:05:44Z</time>
      </trkpt>
      <trkpt lat="45.67688" lon="5.78499">
        <ele>428.5</ele>
        <time>2022-04-15T14:05:45Z</time>
      </trkpt>
      <trkpt lat="45.67688" lon="5.78501">
        <ele>428.5</ele>
        <time>2022-04-15T14:05:46Z</time>
      </trkpt>
      <trkpt lat="45.67688" lon="5.78505">
        <ele>428.6</ele>
        <time>2022-04-15T14:05:47Z</time>
      </trkpt>
      <trkpt lat="45.67688" lon="5.78509">
        <ele>428.7</ele>
        <time>2022-04-15T14:05:48Z</time>
      </trkpt>
      <trkpt lat="45.67687" lon="5.78513">
        <ele>428.8</ele>
        <time>2022-04-15T14:05:49Z</time>
      </trkpt>
      <trkpt lat="45.67685" lon="5.78516">
        <ele>428.8</ele>
        <time>2022-04-15T14:05:50Z</time>
      </trkpt>
      <trkpt lat="45.67683" lon="5.7852">
        <ele>428.9</ele>
        <time>2022-04-15T14:05:51Z</time>
      </trkpt>
      <trkpt lat="45.67681" lon="5.78522">
        <ele>429</ele>
        <time>2022-04-15T14:05:52Z</time>
      </trkpt>
      <trkpt lat="45.67679" lon="5.78524">
        <ele>429.1</ele>
        <time>2022-04-15T14:05:53Z</time>
      </trkpt>
      <trkpt lat="45.67675" lon="5.78528">
        <ele>429.2</ele>
        <time>2022-04-15T14:05:55Z</time>
      </trkpt>
      <trkpt lat="45.67674" lon="5.78532">
        <ele>429.3</ele>
        <time>2022-04-15T14:05:56Z</time>
      </trkpt>
      <trkpt lat="45.67672" lon="5.78534">
        <ele>429.5</ele>
        <time>2022-04-15T14:05:58Z</time>
      </trkpt>
      <trkpt lat="45.67671" lon="5.78535">
        <ele>429.5</ele>
        <time>2022-04-15T14:05:59Z</time>
      </trkpt>
      <trkpt lat="45.67668" lon="5.78539">
        <ele>429.7</ele>
        <time>2022-04-15T14:06:00Z</time>
      </trkpt>
      <trkpt lat="45.67667" lon="5.7854">
        <ele>429.8</ele>
        <time>2022-04-15T14:06:01Z</time>
      </trkpt>
      <trkpt lat="45.67666" lon="5.78544">
        <ele>429.9</ele>
        <time>2022-04-15T14:06:02Z</time>
      </trkpt>
      <trkpt lat="45.67664" lon="5.7855">
        <ele>430.2</ele>
        <time>2022-04-15T14:06:04Z</time>
      </trkpt>
      <trkpt lat="45.67661" lon="5.78555">
        <ele>430.5</ele>
        <time>2022-04-15T14:06:05Z</time>
      </trkpt>
      <trkpt lat="45.67659" lon="5.78558">
        <ele>430.6</ele>
        <time>2022-04-15T14:06:06Z</time>
      </trkpt>
      <trkpt lat="45.67658" lon="5.78562">
        <ele>430.8</ele>
        <time>2022-04-15T14:06:08Z</time>
      </trkpt>
      <trkpt lat="45.67658" lon="5.78569">
        <ele>431.1</ele>
        <time>2022-04-15T14:06:09Z</time>
      </trkpt>
      <trkpt lat="45.67658" lon="5.78573">
        <ele>431.3</ele>
        <time>2022-04-15T14:06:11Z</time>
      </trkpt>
      <trkpt lat="45.67658" lon="5.78578">
        <ele>431.5</ele>
        <time>2022-04-15T14:06:12Z</time>
      </trkpt>
      <trkpt lat="45.67656" lon="5.78583">
        <ele>431.7</ele>
        <time>2022-04-15T14:06:13Z</time>
      </trkpt>
      <trkpt lat="45.67656" lon="5.78586">
        <ele>431.8</ele>
        <time>2022-04-15T14:06:14Z</time>
      </trkpt>
      <trkpt lat="45.67654" lon="5.7859">
        <ele>432</ele>
        <time>2022-04-15T14:06:15Z</time>
      </trkpt>
      <trkpt lat="45.67652" lon="5.78593">
        <ele>432.1</ele>
        <time>2022-04-15T14:06:16Z</time>
      </trkpt>
      <trkpt lat="45.67649" lon="5.78595">
        <ele>432.3</ele>
        <time>2022-04-15T14:06:17Z</time>
      </trkpt>
      <trkpt lat="45.67645" lon="5.78602">
        <ele>432.6</ele>
        <time>2022-04-15T14:06:19Z</time>
      </trkpt>
      <trkpt lat="45.67644" lon="5.78606">
        <ele>432.7</ele>
        <time>2022-04-15T14:06:21Z</time>
      </trkpt>
      <trkpt lat="45.67642" lon="5.78611">
        <ele>432.9</ele>
        <time>2022-04-15T14:06:22Z</time>
      </trkpt>
      <trkpt lat="45.67641" lon="5.78613">
        <ele>432.9</ele>
        <time>2022-04-15T14:06:23Z</time>
      </trkpt>
      <trkpt lat="45.67639" lon="5.78617">
        <ele>432.9</ele>
        <time>2022-04-15T14:06:24Z</time>
      </trkpt>
      <trkpt lat="45.67636" lon="5.78623">
        <ele>433</ele>
        <time>2022-04-15T14:06:26Z</time>
      </trkpt>
      <trkpt lat="45.67633" lon="5.78629">
        <ele>433</ele>
        <time>2022-04-15T14:06:28Z</time>
      </trkpt>
      <trkpt lat="45.67631" lon="5.78632">
        <ele>433.1</ele>
        <time>2022-04-15T14:06:29Z</time>
      </trkpt>
      <trkpt lat="45.67629" lon="5.78636">
        <ele>433.1</ele>
        <time>2022-04-15T14:06:30Z</time>
      </trkpt>
      <trkpt lat="45.67625" lon="5.78643">
        <ele>433.2</ele>
        <time>2022-04-15T14:06:32Z</time>
      </trkpt>
      <trkpt lat="45.67622" lon="5.7865">
        <ele>433.2</ele>
        <time>2022-04-15T14:06:34Z</time>
      </trkpt>
      <trkpt lat="45.6762" lon="5.78654">
        <ele>433.3</ele>
        <time>2022-04-15T14:06:35Z</time>
      </trkpt>
      <trkpt lat="45.67618" lon="5.78659">
        <ele>433.3</ele>
        <time>2022-04-15T14:06:36Z</time>
      </trkpt>
      <trkpt lat="45.67617" lon="5.78663">
        <ele>433.4</ele>
        <time>2022-04-15T14:06:37Z</time>
      </trkpt>
      <trkpt lat="45.67615" lon="5.78668">
        <ele>433.4</ele>
        <time>2022-04-15T14:06:38Z</time>
      </trkpt>
      <trkpt lat="45.67614" lon="5.78674">
        <ele>433.5</ele>
        <time>2022-04-15T14:06:40Z</time>
      </trkpt>
      <trkpt lat="45.67614" lon="5.78678">
        <ele>433.5</ele>
        <time>2022-04-15T14:06:41Z</time>
      </trkpt>
      <trkpt lat="45.67615" lon="5.78682">
        <ele>433.6</ele>
        <time>2022-04-15T14:06:42Z</time>
      </trkpt>
      <trkpt lat="45.67617" lon="5.78688">
        <ele>433.6</ele>
        <time>2022-04-15T14:06:43Z</time>
      </trkpt>
      <trkpt lat="45.67617" lon="5.78692">
        <ele>433.7</ele>
        <time>2022-04-15T14:06:44Z</time>
      </trkpt>
      <trkpt lat="45.67619" lon="5.78698">
        <ele>433.7</ele>
        <time>2022-04-15T14:06:45Z</time>
      </trkpt>
      <trkpt lat="45.67621" lon="5.78704">
        <ele>433.8</ele>
        <time>2022-04-15T14:06:47Z</time>
      </trkpt>
      <trkpt lat="45.67621" lon="5.7871">
        <ele>433.9</ele>
        <time>2022-04-15T14:06:48Z</time>
      </trkpt>
      <trkpt lat="45.67622" lon="5.78717">
        <ele>434</ele>
        <time>2022-04-15T14:06:50Z</time>
      </trkpt>
      <trkpt lat="45.67622" lon="5.78723">
        <ele>434</ele>
        <time>2022-04-15T14:06:51Z</time>
      </trkpt>
      <trkpt lat="45.67621" lon="5.78728">
        <ele>434</ele>
        <time>2022-04-15T14:06:52Z</time>
      </trkpt>
      <trkpt lat="45.67621" lon="5.78732">
        <ele>434</ele>
        <time>2022-04-15T14:06:54Z</time>
      </trkpt>
      <trkpt lat="45.6762" lon="5.78736">
        <ele>434.1</ele>
        <time>2022-04-15T14:06:55Z</time>
      </trkpt>
      <trkpt lat="45.6762" lon="5.78742">
        <ele>434.1</ele>
        <time>2022-04-15T14:06:56Z</time>
      </trkpt>
      <trkpt lat="45.6762" lon="5.78744">
        <ele>434.1</ele>
        <time>2022-04-15T14:06:57Z</time>
      </trkpt>
      <trkpt lat="45.67622" lon="5.78749">
        <ele>434.1</ele>
        <time>2022-04-15T14:06:58Z</time>
      </trkpt>
      <trkpt lat="45.67623" lon="5.78753">
        <ele>434.1</ele>
        <time>2022-04-15T14:06:59Z</time>
      </trkpt>
      <trkpt lat="45.67624" lon="5.78758">
        <ele>434.2</ele>
        <time>2022-04-15T14:07:00Z</time>
      </trkpt>
      <trkpt lat="45.67625" lon="5.78764">
        <ele>434.2</ele>
        <time>2022-04-15T14:07:01Z</time>
      </trkpt>
      <trkpt lat="45.67626" lon="5.78767">
        <ele>434.2</ele>
        <time>2022-04-15T14:07:02Z</time>
      </trkpt>
      <trkpt lat="45.67626" lon="5.78774">
        <ele>434.3</ele>
        <time>2022-04-15T14:07:03Z</time>
      </trkpt>
      <trkpt lat="45.67626" lon="5.78779">
        <ele>434.3</ele>
        <time>2022-04-15T14:07:05Z</time>
      </trkpt>
      <trkpt lat="45.67627" lon="5.78784">
        <ele>434.3</ele>
        <time>2022-04-15T14:07:06Z</time>
      </trkpt>
      <trkpt lat="45.67629" lon="5.78791">
        <ele>434.4</ele>
        <time>2022-04-15T14:07:07Z</time>
      </trkpt>
      <trkpt lat="45.6763" lon="5.78796">
        <ele>434.5</ele>
        <time>2022-04-15T14:07:09Z</time>
      </trkpt>
      <trkpt lat="45.67631" lon="5.78802">
        <ele>434.5</ele>
        <time>2022-04-15T14:07:10Z</time>
      </trkpt>
      <trkpt lat="45.67633" lon="5.78807">
        <ele>434.6</ele>
        <time>2022-04-15T14:07:12Z</time>
      </trkpt>
      <trkpt lat="45.67634" lon="5.78808">
        <ele>434.6</ele>
        <time>2022-04-15T14:07:13Z</time>
      </trkpt>
      <trkpt lat="45.67634" lon="5.78811">
        <ele>434.6</ele>
        <time>2022-04-15T14:07:14Z</time>
      </trkpt>
      <trkpt lat="45.67635" lon="5.78813">
        <ele>434.7</ele>
        <time>2022-04-15T14:07:16Z</time>
      </trkpt>
      <trkpt lat="45.67634" lon="5.7881">
        <ele>434.7</ele>
        <time>2022-04-15T14:07:17Z</time>
      </trkpt>
      <trkpt lat="45.67633" lon="5.78809">
        <ele>434.7</ele>
        <time>2022-04-15T14:07:18Z</time>
      </trkpt>
      <trkpt lat="45.67633" lon="5.78809">
        <ele>434.7</ele>
        <time>2022-04-15T14:07:20Z</time>
      </trkpt>
      <trkpt lat="45.67633" lon="5.78809">
        <ele>434.7</ele>
        <time>2022-04-15T14:07:21Z</time>
      </trkpt>
      <trkpt lat="45.67633" lon="5.78809">
        <ele>434.7</ele>
        <time>2022-04-15T14:07:22Z</time>
      </trkpt>
      <trkpt lat="45.67633" lon="5.78809">
        <ele>434.7</ele>
        <time>2022-04-15T14:07:23Z</time>
      </trkpt>
      <trkpt lat="45.67633" lon="5.78809">
        <ele>434.7</ele>
        <time>2022-04-15T14:07:24Z</time>
      </trkpt>
      <trkpt lat="45.67633" lon="5.7881">
        <ele>434.7</ele>
        <time>2022-04-15T14:07:25Z</time>
      </trkpt>
      <trkpt lat="45.67633" lon="5.7881">
        <ele>434.7</ele>
        <time>2022-04-15T14:07:26Z</time>
      </trkpt>
      <trkpt lat="45.67633" lon="5.7881">
        <ele>434.7</ele>
        <time>2022-04-15T14:07:27Z</time>
      </trkpt>
      <trkpt lat="45.67633" lon="5.7881">
        <ele>434.7</ele>
        <time>2022-04-15T14:07:28Z</time>
      </trkpt>
      <trkpt lat="45.67633" lon="5.7881">
        <ele>434.7</ele>
        <time>2022-04-15T14:07:29Z</time>
      </trkpt>
      <trkpt lat="45.67633" lon="5.7881">
        <ele>434.7</ele>
        <time>2022-04-15T14:07:30Z</time>
      </trkpt>
      <trkpt lat="45.67633" lon="5.7881">
        <ele>434.7</ele>
        <time>2022-04-15T14:07:31Z</time>
      </trkpt>
      <trkpt lat="45.67633" lon="5.78811">
        <ele>434.7</ele>
        <time>2022-04-15T14:07:32Z</time>
      </trkpt>
      <trkpt lat="45.67633" lon="5.78811">
        <ele>434.7</ele>
        <time>2022-04-15T14:07:33Z</time>
      </trkpt>
      <trkpt lat="45.67633" lon="5.78811">
        <ele>434.7</ele>
        <time>2022-04-15T14:07:34Z</time>
      </trkpt>
      <trkpt lat="45.67634" lon="5.78811">
        <ele>434.7</ele>
        <time>2022-04-15T14:07:35Z</time>
      </trkpt>
      <trkpt lat="45.67634" lon="5.78811">
        <ele>434.7</ele>
        <time>2022-04-15T14:07:36Z</time>
      </trkpt>
      <trkpt lat="45.67634" lon="5.78811">
        <ele>434.7</ele>
        <time>2022-04-15T14:07:37Z</time>
      </trkpt>
      <trkpt lat="45.67634" lon="5.78811">
        <ele>434.7</ele>
        <time>2022-04-15T14:07:38Z</time>
      </trkpt>
      <trkpt lat="45.67634" lon="5.78812">
        <ele>434.7</ele>
        <time>2022-04-15T14:07:39Z</time>
      </trkpt>
      <trkpt lat="45.67634" lon="5.78812">
        <ele>434.7</ele>
        <time>2022-04-15T14:07:40Z</time>
      </trkpt>
      <trkpt lat="45.67634" lon="5.78812">
        <ele>434.7</ele>
        <time>2022-04-15T14:07:41Z</time>
      </trkpt>
      <trkpt lat="45.67634" lon="5.78812">
        <ele>434.7</ele>
        <time>2022-04-15T14:07:42Z</time>
      </trkpt>
      <trkpt lat="45.67634" lon="5.78812">
        <ele>434.8</ele>
        <time>2022-04-15T14:07:43Z</time>
      </trkpt>
      <trkpt lat="45.67634" lon="5.78812">
        <ele>434.8</ele>
        <time>2022-04-15T14:07:44Z</time>
      </trkpt>
      <trkpt lat="45.67634" lon="5.78812">
        <ele>434.8</ele>
        <time>2022-04-15T14:07:45Z</time>
      </trkpt>
      <trkpt lat="45.67634" lon="5.78813">
        <ele>434.8</ele>
        <time>2022-04-15T14:07:46Z</time>
      </trkpt>
      <trkpt lat="45.67634" lon="5.78813">
        <ele>434.8</ele>
        <time>2022-04-15T14:07:47Z</time>
      </trkpt>
      <trkpt lat="45.67634" lon="5.78813">
        <ele>434.8</ele>
        <time>2022-04-15T14:07:48Z</time>
      </trkpt>
      <trkpt lat="45.67634" lon="5.78813">
        <ele>434.8</ele>
        <time>2022-04-15T14:07:49Z</time>
      </trkpt>
      <trkpt lat="45.67634" lon="5.78813">
        <ele>434.8</ele>
        <time>2022-04-15T14:07:50Z</time>
      </trkpt>
      <trkpt lat="45.67634" lon="5.78813">
        <ele>434.8</ele>
        <time>2022-04-15T14:07:51Z</time>
      </trkpt>
      <trkpt lat="45.67634" lon="5.78813">
        <ele>434.8</ele>
        <time>2022-04-15T14:07:52Z</time>
      </trkpt>
      <trkpt lat="45.67634" lon="5.78813">
        <ele>434.8</ele>
        <time>2022-04-15T14:07:53Z</time>
      </trkpt>
      <trkpt lat="45.67634" lon="5.78814">
        <ele>434.8</ele>
        <time>2022-04-15T14:07:54Z</time>
      </trkpt>
      <trkpt lat="45.67634" lon="5.78814">
        <ele>434.8</ele>
        <time>2022-04-15T14:07:55Z</time>
      </trkpt>
      <trkpt lat="45.67634" lon="5.78814">
        <ele>434.8</ele>
        <time>2022-04-15T14:07:56Z</time>
      </trkpt>
      <trkpt lat="45.67634" lon="5.78814">
        <ele>434.8</ele>
        <time>2022-04-15T14:07:57Z</time>
      </trkpt>
      <trkpt lat="45.67634" lon="5.78814">
        <ele>434.8</ele>
        <time>2022-04-15T14:07:58Z</time>
      </trkpt>
      <trkpt lat="45.67634" lon="5.78814">
        <ele>434.8</ele>
        <time>2022-04-15T14:07:59Z</time>
      </trkpt>
      <trkpt lat="45.67634" lon="5.78814">
        <ele>434.8</ele>
        <time>2022-04-15T14:08:00Z</time>
      </trkpt>
      <trkpt lat="45.67634" lon="5.78815">
        <ele>434.8</ele>
        <time>2022-04-15T14:08:01Z</time>
      </trkpt>
      <trkpt lat="45.67634" lon="5.78815">
        <ele>434.8</ele>
        <time>2022-04-15T14:08:02Z</time>
      </trkpt>
      <trkpt lat="45.67634" lon="5.78815">
        <ele>434.8</ele>
        <time>2022-04-15T14:08:03Z</time>
      </trkpt>
      <trkpt lat="45.67634" lon="5.78815">
        <ele>434.8</ele>
        <time>2022-04-15T14:08:04Z</time>
      </trkpt>
      <trkpt lat="45.67634" lon="5.78815">
        <ele>434.8</ele>
        <time>2022-04-15T14:08:05Z</time>
      </trkpt>
      <trkpt lat="45.67634" lon="5.78815">
        <ele>434.8</ele>
        <time>2022-04-15T14:08:06Z</time>
      </trkpt>
      <trkpt lat="45.67634" lon="5.78815">
        <ele>434.8</ele>
        <time>2022-04-15T14:08:07Z</time>
      </trkpt>
      <trkpt lat="45.67634" lon="5.78816">
        <ele>434.8</ele>
        <time>2022-04-15T14:08:08Z</time>
      </trkpt>
      <trkpt lat="45.67634" lon="5.78816">
        <ele>434.8</ele>
        <time>2022-04-15T14:08:09Z</time>
      </trkpt>
      <trkpt lat="45.67635" lon="5.78816">
        <ele>434.8</ele>
        <time>2022-04-15T14:08:10Z</time>
      </trkpt>
      <trkpt lat="45.67635" lon="5.78816">
        <ele>434.8</ele>
        <time>2022-04-15T14:08:11Z</time>
      </trkpt>
      <trkpt lat="45.67635" lon="5.78816">
        <ele>434.8</ele>
        <time>2022-04-15T14:08:12Z</time>
      </trkpt>
      <trkpt lat="45.67635" lon="5.78816">
        <ele>434.8</ele>
        <time>2022-04-15T14:08:13Z</time>
      </trkpt>
      <trkpt lat="45.67636" lon="5.78822">
        <ele>434.9</ele>
        <time>2022-04-15T14:08:15Z</time>
      </trkpt>
      <trkpt lat="45.67637" lon="5.78826">
        <ele>435</ele>
        <time>2022-04-15T14:08:16Z</time>
      </trkpt>
      <trkpt lat="45.6764" lon="5.7883">
        <ele>435</ele>
        <time>2022-04-15T14:08:17Z</time>
      </trkpt>
      <trkpt lat="45.6764" lon="5.78834">
        <ele>435.1</ele>
        <time>2022-04-15T14:08:18Z</time>
      </trkpt>
      <trkpt lat="45.67642" lon="5.7884">
        <ele>435.2</ele>
        <time>2022-04-15T14:08:20Z</time>
      </trkpt>
      <trkpt lat="45.67642" lon="5.78846">
        <ele>435.2</ele>
        <time>2022-04-15T14:08:21Z</time>
      </trkpt>
      <trkpt lat="45.67643" lon="5.78851">
        <ele>435.2</ele>
        <time>2022-04-15T14:08:22Z</time>
      </trkpt>
      <trkpt lat="45.67644" lon="5.78857">
        <ele>435.3</ele>
        <time>2022-04-15T14:08:24Z</time>
      </trkpt>
      <trkpt lat="45.67644" lon="5.78859">
        <ele>435.3</ele>
        <time>2022-04-15T14:08:25Z</time>
      </trkpt>
      <trkpt lat="45.67645" lon="5.78865">
        <ele>435.2</ele>
        <time>2022-04-15T14:08:26Z</time>
      </trkpt>
      <trkpt lat="45.67646" lon="5.7887">
        <ele>435.2</ele>
        <time>2022-04-15T14:08:27Z</time>
      </trkpt>
      <trkpt lat="45.67648" lon="5.78876">
        <ele>435.2</ele>
        <time>2022-04-15T14:08:29Z</time>
      </trkpt>
      <trkpt lat="45.67649" lon="5.78882">
        <ele>435.1</ele>
        <time>2022-04-15T14:08:30Z</time>
      </trkpt>
      <trkpt lat="45.67653" lon="5.78888">
        <ele>435</ele>
        <time>2022-04-15T14:08:32Z</time>
      </trkpt>
      <trkpt lat="45.67654" lon="5.78892">
        <ele>434.9</ele>
        <time>2022-04-15T14:08:33Z</time>
      </trkpt>
      <trkpt lat="45.67656" lon="5.78897">
        <ele>434.8</ele>
        <time>2022-04-15T14:08:34Z</time>
      </trkpt>
      <trkpt lat="45.67658" lon="5.78901">
        <ele>434.7</ele>
        <time>2022-04-15T14:08:35Z</time>
      </trkpt>
      <trkpt lat="45.67661" lon="5.78906">
        <ele>434.5</ele>
        <time>2022-04-15T14:08:36Z</time>
      </trkpt>
      <trkpt lat="45.67663" lon="5.78911">
        <ele>434.4</ele>
        <time>2022-04-15T14:08:37Z</time>
      </trkpt>
      <trkpt lat="45.67666" lon="5.78916">
        <ele>434.2</ele>
        <time>2022-04-15T14:08:38Z</time>
      </trkpt>
      <trkpt lat="45.67669" lon="5.7892">
        <ele>434</ele>
        <time>2022-04-15T14:08:39Z</time>
      </trkpt>
      <trkpt lat="45.67672" lon="5.78924">
        <ele>433.8</ele>
        <time>2022-04-15T14:08:40Z</time>
      </trkpt>
      <trkpt lat="45.67676" lon="5.78928">
        <ele>433.6</ele>
        <time>2022-04-15T14:08:41Z</time>
      </trkpt>
      <trkpt lat="45.67679" lon="5.78931">
        <ele>433.4</ele>
        <time>2022-04-15T14:08:42Z</time>
      </trkpt>
      <trkpt lat="45.67683" lon="5.78937">
        <ele>433</ele>
        <time>2022-04-15T14:08:43Z</time>
      </trkpt>
      <trkpt lat="45.67687" lon="5.78944">
        <ele>432.6</ele>
        <time>2022-04-15T14:08:44Z</time>
      </trkpt>
      <trkpt lat="45.67691" lon="5.7895">
        <ele>432.3</ele>
        <time>2022-04-15T14:08:45Z</time>
      </trkpt>
      <trkpt lat="45.67694" lon="5.78956">
        <ele>431.9</ele>
        <time>2022-04-15T14:08:46Z</time>
      </trkpt>
      <trkpt lat="45.67697" lon="5.78961">
        <ele>431.7</ele>
        <time>2022-04-15T14:08:47Z</time>
      </trkpt>
      <trkpt lat="45.67699" lon="5.78965">
        <ele>431.4</ele>
        <time>2022-04-15T14:08:48Z</time>
      </trkpt>
      <trkpt lat="45.677" lon="5.78966">
        <ele>431.3</ele>
        <time>2022-04-15T14:08:49Z</time>
      </trkpt>
      <trkpt lat="45.67702" lon="5.78971">
        <ele>431.1</ele>
        <time>2022-04-15T14:08:50Z</time>
      </trkpt>
      <trkpt lat="45.67703" lon="5.78972">
        <ele>431</ele>
        <time>2022-04-15T14:08:51Z</time>
      </trkpt>
      <trkpt lat="45.67705" lon="5.78976">
        <ele>430.8</ele>
        <time>2022-04-15T14:08:52Z</time>
      </trkpt>
      <trkpt lat="45.67707" lon="5.78981">
        <ele>430.5</ele>
        <time>2022-04-15T14:08:53Z</time>
      </trkpt>
      <trkpt lat="45.67709" lon="5.78984">
        <ele>430.3</ele>
        <time>2022-04-15T14:08:54Z</time>
      </trkpt>
      <trkpt lat="45.67712" lon="5.78988">
        <ele>430.1</ele>
        <time>2022-04-15T14:08:55Z</time>
      </trkpt>
      <trkpt lat="45.67714" lon="5.78992">
        <ele>429.8</ele>
        <time>2022-04-15T14:08:56Z</time>
      </trkpt>
      <trkpt lat="45.67717" lon="5.78995">
        <ele>429.6</ele>
        <time>2022-04-15T14:08:57Z</time>
      </trkpt>
      <trkpt lat="45.6772" lon="5.78997">
        <ele>429.3</ele>
        <time>2022-04-15T14:08:58Z</time>
      </trkpt>
      <trkpt lat="45.67723" lon="5.79">
        <ele>429.1</ele>
        <time>2022-04-15T14:08:59Z</time>
      </trkpt>
      <trkpt lat="45.67724" lon="5.79">
        <ele>429</ele>
        <time>2022-04-15T14:09:00Z</time>
      </trkpt>
      <trkpt lat="45.67728" lon="5.79003">
        <ele>428.7</ele>
        <time>2022-04-15T14:09:01Z</time>
      </trkpt>
      <trkpt lat="45.67729" lon="5.79003">
        <ele>428.6</ele>
        <time>2022-04-15T14:09:02Z</time>
      </trkpt>
      <trkpt lat="45.67732" lon="5.79007">
        <ele>428.3</ele>
        <time>2022-04-15T14:09:03Z</time>
      </trkpt>
      <trkpt lat="45.67734" lon="5.79011">
        <ele>428.1</ele>
        <time>2022-04-15T14:09:04Z</time>
      </trkpt>
      <trkpt lat="45.67737" lon="5.79016">
        <ele>427.8</ele>
        <time>2022-04-15T14:09:05Z</time>
      </trkpt>
      <trkpt lat="45.67741" lon="5.79024">
        <ele>427.4</ele>
        <time>2022-04-15T14:09:06Z</time>
      </trkpt>
      <trkpt lat="45.67744" lon="5.7903">
        <ele>427.1</ele>
        <time>2022-04-15T14:09:07Z</time>
      </trkpt>
      <trkpt lat="45.67747" lon="5.79035">
        <ele>426.8</ele>
        <time>2022-04-15T14:09:08Z</time>
      </trkpt>
      <trkpt lat="45.6775" lon="5.79039">
        <ele>426.6</ele>
        <time>2022-04-15T14:09:09Z</time>
      </trkpt>
      <trkpt lat="45.67752" lon="5.79041">
        <ele>426.5</ele>
        <time>2022-04-15T14:09:10Z</time>
      </trkpt>
      <trkpt lat="45.67754" lon="5.79045">
        <ele>426.3</ele>
        <time>2022-04-15T14:09:11Z</time>
      </trkpt>
      <trkpt lat="45.67756" lon="5.79048">
        <ele>426.1</ele>
        <time>2022-04-15T14:09:12Z</time>
      </trkpt>
      <trkpt lat="45.67759" lon="5.79053">
        <ele>425.8</ele>
        <time>2022-04-15T14:09:13Z</time>
      </trkpt>
      <trkpt lat="45.67761" lon="5.79058">
        <ele>425.5</ele>
        <time>2022-04-15T14:09:14Z</time>
      </trkpt>
      <trkpt lat="45.67764" lon="5.79063">
        <ele>425.3</ele>
        <time>2022-04-15T14:09:15Z</time>
      </trkpt>
      <trkpt lat="45.67768" lon="5.79069">
        <ele>424.9</ele>
        <time>2022-04-15T14:09:16Z</time>
      </trkpt>
      <trkpt lat="45.67772" lon="5.79075">
        <ele>424.5</ele>
        <time>2022-04-15T14:09:17Z</time>
      </trkpt>
      <trkpt lat="45.67777" lon="5.79081">
        <ele>424.1</ele>
        <time>2022-04-15T14:09:18Z</time>
      </trkpt>
      <trkpt lat="45.67781" lon="5.79086">
        <ele>423.7</ele>
        <time>2022-04-15T14:09:19Z</time>
      </trkpt>
      <trkpt lat="45.67784" lon="5.79091">
        <ele>423.4</ele>
        <time>2022-04-15T14:09:20Z</time>
      </trkpt>
      <trkpt lat="45.67788" lon="5.79096">
        <ele>422.9</ele>
        <time>2022-04-15T14:09:21Z</time>
      </trkpt>
      <trkpt lat="45.67792" lon="5.79101">
        <ele>422.5</ele>
        <time>2022-04-15T14:09:22Z</time>
      </trkpt>
      <trkpt lat="45.67795" lon="5.79107">
        <ele>422</ele>
        <time>2022-04-15T14:09:23Z</time>
      </trkpt>
      <trkpt lat="45.67798" lon="5.79113">
        <ele>421.6</ele>
        <time>2022-04-15T14:09:24Z</time>
      </trkpt>
      <trkpt lat="45.678" lon="5.79119">
        <ele>421</ele>
        <time>2022-04-15T14:09:25Z</time>
      </trkpt>
      <trkpt lat="45.67803" lon="5.79125">
        <ele>420.5</ele>
        <time>2022-04-15T14:09:26Z</time>
      </trkpt>
      <trkpt lat="45.67805" lon="5.7913">
        <ele>420</ele>
        <time>2022-04-15T14:09:27Z</time>
      </trkpt>
      <trkpt lat="45.67806" lon="5.79135">
        <ele>419.5</ele>
        <time>2022-04-15T14:09:28Z</time>
      </trkpt>
      <trkpt lat="45.67807" lon="5.79136">
        <ele>419.4</ele>
        <time>2022-04-15T14:09:29Z</time>
      </trkpt>
      <trkpt lat="45.67808" lon="5.79141">
        <ele>419</ele>
        <time>2022-04-15T14:09:30Z</time>
      </trkpt>
      <trkpt lat="45.67809" lon="5.79144">
        <ele>418.7</ele>
        <time>2022-04-15T14:09:31Z</time>
      </trkpt>
      <trkpt lat="45.6781" lon="5.79149">
        <ele>418.2</ele>
        <time>2022-04-15T14:09:32Z</time>
      </trkpt>
      <trkpt lat="45.6781" lon="5.7915">
        <ele>418.1</ele>
        <time>2022-04-15T14:09:33Z</time>
      </trkpt>
      <trkpt lat="45.6781" lon="5.79155">
        <ele>417.8</ele>
        <time>2022-04-15T14:09:34Z</time>
      </trkpt>
      <trkpt lat="45.67811" lon="5.79157">
        <ele>417.6</ele>
        <time>2022-04-15T14:09:35Z</time>
      </trkpt>
      <trkpt lat="45.67812" lon="5.79165">
        <ele>417</ele>
        <time>2022-04-15T14:09:37Z</time>
      </trkpt>
      <trkpt lat="45.67813" lon="5.79175">
        <ele>416.5</ele>
        <time>2022-04-15T14:09:38Z</time>
      </trkpt>
      <trkpt lat="45.67813" lon="5.79183">
        <ele>416.2</ele>
        <time>2022-04-15T14:09:39Z</time>
      </trkpt>
      <trkpt lat="45.67814" lon="5.79191">
        <ele>416</ele>
        <time>2022-04-15T14:09:40Z</time>
      </trkpt>
      <trkpt lat="45.67814" lon="5.79199">
        <ele>415.9</ele>
        <time>2022-04-15T14:09:41Z</time>
      </trkpt>
      <trkpt lat="45.67814" lon="5.79207">
        <ele>415.9</ele>
        <time>2022-04-15T14:09:42Z</time>
      </trkpt>
      <trkpt lat="45.67815" lon="5.79214">
        <ele>416</ele>
        <time>2022-04-15T14:09:43Z</time>
      </trkpt>
      <trkpt lat="45.67815" lon="5.79221">
        <ele>416.1</ele>
        <time>2022-04-15T14:09:44Z</time>
      </trkpt>
      <trkpt lat="45.67817" lon="5.79228">
        <ele>416.2</ele>
        <time>2022-04-15T14:09:45Z</time>
      </trkpt>
      <trkpt lat="45.6782" lon="5.79236">
        <ele>416.4</ele>
        <time>2022-04-15T14:09:46Z</time>
      </trkpt>
      <trkpt lat="45.67821" lon="5.79243">
        <ele>416.5</ele>
        <time>2022-04-15T14:09:48Z</time>
      </trkpt>
      <trkpt lat="45.67822" lon="5.79249">
        <ele>416.6</ele>
        <time>2022-04-15T14:09:49Z</time>
      </trkpt>
      <trkpt lat="45.67823" lon="5.79252">
        <ele>416.7</ele>
        <time>2022-04-15T14:09:50Z</time>
      </trkpt>
      <trkpt lat="45.67823" lon="5.7926">
        <ele>416.8</ele>
        <time>2022-04-15T14:09:51Z</time>
      </trkpt>
      <trkpt lat="45.67825" lon="5.79268">
        <ele>417</ele>
        <time>2022-04-15T14:09:53Z</time>
      </trkpt>
      <trkpt lat="45.67826" lon="5.79275">
        <ele>417.2</ele>
        <time>2022-04-15T14:09:55Z</time>
      </trkpt>
      <trkpt lat="45.67826" lon="5.7928">
        <ele>417.2</ele>
        <time>2022-04-15T14:09:57Z</time>
      </trkpt>
      <trkpt lat="45.67827" lon="5.79285">
        <ele>417.3</ele>
        <time>2022-04-15T14:09:58Z</time>
      </trkpt>
      <trkpt lat="45.67827" lon="5.79287">
        <ele>417.4</ele>
        <time>2022-04-15T14:09:59Z</time>
      </trkpt>
      <trkpt lat="45.67828" lon="5.79291">
        <ele>417.4</ele>
        <time>2022-04-15T14:10:00Z</time>
      </trkpt>
      <trkpt lat="45.67828" lon="5.79295">
        <ele>417.4</ele>
        <time>2022-04-15T14:10:01Z</time>
      </trkpt>
      <trkpt lat="45.67827" lon="5.79301">
        <ele>417.5</ele>
        <time>2022-04-15T14:10:02Z</time>
      </trkpt>
      <trkpt lat="45.67827" lon="5.79303">
        <ele>417.5</ele>
        <time>2022-04-15T14:10:03Z</time>
      </trkpt>
      <trkpt lat="45.67827" lon="5.79306">
        <ele>417.5</ele>
        <time>2022-04-15T14:10:04Z</time>
      </trkpt>
      <trkpt lat="45.67825" lon="5.79313">
        <ele>417.9</ele>
        <time>2022-04-15T14:10:06Z</time>
      </trkpt>
      <trkpt lat="45.67824" lon="5.7932">
        <ele>418.3</ele>
        <time>2022-04-15T14:10:08Z</time>
      </trkpt>
      <trkpt lat="45.67823" lon="5.79325">
        <ele>418.7</ele>
        <time>2022-04-15T14:10:10Z</time>
      </trkpt>
      <trkpt lat="45.67821" lon="5.79329">
        <ele>418.9</ele>
        <time>2022-04-15T14:10:11Z</time>
      </trkpt>
      <trkpt lat="45.67821" lon="5.79331">
        <ele>419</ele>
        <time>2022-04-15T14:10:12Z</time>
      </trkpt>
      <trkpt lat="45.67819" lon="5.79335">
        <ele>419.3</ele>
        <time>2022-04-15T14:10:13Z</time>
      </trkpt>
      <trkpt lat="45.67818" lon="5.79336">
        <ele>419.4</ele>
        <time>2022-04-15T14:10:14Z</time>
      </trkpt>
      <trkpt lat="45.67816" lon="5.7934">
        <ele>419.7</ele>
        <time>2022-04-15T14:10:15Z</time>
      </trkpt>
      <trkpt lat="45.67816" lon="5.79342">
        <ele>419.8</ele>
        <time>2022-04-15T14:10:16Z</time>
      </trkpt>
      <trkpt lat="45.67814" lon="5.79346">
        <ele>420.1</ele>
        <time>2022-04-15T14:10:18Z</time>
      </trkpt>
      <trkpt lat="45.67812" lon="5.7935">
        <ele>420.3</ele>
        <time>2022-04-15T14:10:19Z</time>
      </trkpt>
      <trkpt lat="45.6781" lon="5.79354">
        <ele>420.6</ele>
        <time>2022-04-15T14:10:20Z</time>
      </trkpt>
      <trkpt lat="45.6781" lon="5.79355">
        <ele>420.7</ele>
        <time>2022-04-15T14:10:21Z</time>
      </trkpt>
      <trkpt lat="45.67808" lon="5.79358">
        <ele>420.9</ele>
        <time>2022-04-15T14:10:22Z</time>
      </trkpt>
      <trkpt lat="45.67808" lon="5.79359">
        <ele>421</ele>
        <time>2022-04-15T14:10:23Z</time>
      </trkpt>
      <trkpt lat="45.67807" lon="5.79362">
        <ele>421.1</ele>
        <time>2022-04-15T14:10:24Z</time>
      </trkpt>
      <trkpt lat="45.67806" lon="5.79364">
        <ele>421.3</ele>
        <time>2022-04-15T14:10:26Z</time>
      </trkpt>
      <trkpt lat="45.67805" lon="5.79367">
        <ele>421.4</ele>
        <time>2022-04-15T14:10:27Z</time>
      </trkpt>
      <trkpt lat="45.67803" lon="5.79371">
        <ele>421.7</ele>
        <time>2022-04-15T14:10:29Z</time>
      </trkpt>
      <trkpt lat="45.67801" lon="5.79375">
        <ele>422</ele>
        <time>2022-04-15T14:10:30Z</time>
      </trkpt>
      <trkpt lat="45.678" lon="5.79376">
        <ele>422.1</ele>
        <time>2022-04-15T14:10:31Z</time>
      </trkpt>
      <trkpt lat="45.67799" lon="5.79379">
        <ele>422.3</ele>
        <time>2022-04-15T14:10:32Z</time>
      </trkpt>
      <trkpt lat="45.67798" lon="5.7938">
        <ele>422.4</ele>
        <time>2022-04-15T14:10:33Z</time>
      </trkpt>
      <trkpt lat="45.67796" lon="5.79383">
        <ele>422.6</ele>
        <time>2022-04-15T14:10:34Z</time>
      </trkpt>
      <trkpt lat="45.67795" lon="5.79384">
        <ele>422.7</ele>
        <time>2022-04-15T14:10:35Z</time>
      </trkpt>
      <trkpt lat="45.67793" lon="5.79388">
        <ele>423</ele>
        <time>2022-04-15T14:10:36Z</time>
      </trkpt>
      <trkpt lat="45.67793" lon="5.79389">
        <ele>423.1</ele>
        <time>2022-04-15T14:10:37Z</time>
      </trkpt>
      <trkpt lat="45.67791" lon="5.79392">
        <ele>423.2</ele>
        <time>2022-04-15T14:10:38Z</time>
      </trkpt>
      <trkpt lat="45.67789" lon="5.79396">
        <ele>423.5</ele>
        <time>2022-04-15T14:10:40Z</time>
      </trkpt>
      <trkpt lat="45.67788" lon="5.79403">
        <ele>423.9</ele>
        <time>2022-04-15T14:10:42Z</time>
      </trkpt>
      <trkpt lat="45.67787" lon="5.79405">
        <ele>424</ele>
        <time>2022-04-15T14:10:43Z</time>
      </trkpt>
      <trkpt lat="45.67785" lon="5.79407">
        <ele>424.2</ele>
        <time>2022-04-15T14:10:44Z</time>
      </trkpt>
      <trkpt lat="45.67784" lon="5.79412">
        <ele>424.5</ele>
        <time>2022-04-15T14:10:46Z</time>
      </trkpt>
      <trkpt lat="45.67783" lon="5.79415">
        <ele>424.6</ele>
        <time>2022-04-15T14:10:48Z</time>
      </trkpt>
      <trkpt lat="45.67782" lon="5.79418">
        <ele>424.8</ele>
        <time>2022-04-15T14:10:49Z</time>
      </trkpt>
      <trkpt lat="45.67781" lon="5.79419">
        <ele>424.9</ele>
        <time>2022-04-15T14:10:50Z</time>
      </trkpt>
      <trkpt lat="45.67779" lon="5.79423">
        <ele>425.1</ele>
        <time>2022-04-15T14:10:51Z</time>
      </trkpt>
      <trkpt lat="45.67779" lon="5.79424">
        <ele>425.2</ele>
        <time>2022-04-15T14:10:52Z</time>
      </trkpt>
      <trkpt lat="45.67777" lon="5.79428">
        <ele>425.5</ele>
        <time>2022-04-15T14:10:54Z</time>
      </trkpt>
      <trkpt lat="45.67776" lon="5.7943">
        <ele>425.6</ele>
        <time>2022-04-15T14:10:55Z</time>
      </trkpt>
      <trkpt lat="45.67775" lon="5.79432">
        <ele>425.8</ele>
        <time>2022-04-15T14:10:56Z</time>
      </trkpt>
      <trkpt lat="45.67774" lon="5.79434">
        <ele>425.9</ele>
        <time>2022-04-15T14:10:57Z</time>
      </trkpt>
      <trkpt lat="45.67773" lon="5.79436">
        <ele>426</ele>
        <time>2022-04-15T14:10:58Z</time>
      </trkpt>
      <trkpt lat="45.67771" lon="5.7944">
        <ele>426.3</ele>
        <time>2022-04-15T14:11:00Z</time>
      </trkpt>
      <trkpt lat="45.6777" lon="5.79442">
        <ele>426.4</ele>
        <time>2022-04-15T14:11:01Z</time>
      </trkpt>
      <trkpt lat="45.67769" lon="5.79444">
        <ele>426.6</ele>
        <time>2022-04-15T14:11:02Z</time>
      </trkpt>
      <trkpt lat="45.67767" lon="5.79449">
        <ele>426.9</ele>
        <time>2022-04-15T14:11:03Z</time>
      </trkpt>
      <trkpt lat="45.67767" lon="5.79451">
        <ele>427</ele>
        <time>2022-04-15T14:11:04Z</time>
      </trkpt>
      <trkpt lat="45.67766" lon="5.79456">
        <ele>427.3</ele>
        <time>2022-04-15T14:11:06Z</time>
      </trkpt>
      <trkpt lat="45.67765" lon="5.79458">
        <ele>427.4</ele>
        <time>2022-04-15T14:11:07Z</time>
      </trkpt>
      <trkpt lat="45.67764" lon="5.7946">
        <ele>427.6</ele>
        <time>2022-04-15T14:11:08Z</time>
      </trkpt>
      <trkpt lat="45.67764" lon="5.79462">
        <ele>427.7</ele>
        <time>2022-04-15T14:11:09Z</time>
      </trkpt>
      <trkpt lat="45.67763" lon="5.79465">
        <ele>427.9</ele>
        <time>2022-04-15T14:11:10Z</time>
      </trkpt>
      <trkpt lat="45.67762" lon="5.79467">
        <ele>428</ele>
        <time>2022-04-15T14:11:11Z</time>
      </trkpt>
      <trkpt lat="45.67761" lon="5.79469">
        <ele>428.2</ele>
        <time>2022-04-15T14:11:13Z</time>
      </trkpt>
      <trkpt lat="45.67758" lon="5.79473">
        <ele>428.5</ele>
        <time>2022-04-15T14:11:15Z</time>
      </trkpt>
      <trkpt lat="45.67756" lon="5.79476">
        <ele>428.8</ele>
        <time>2022-04-15T14:11:16Z</time>
      </trkpt>
      <trkpt lat="45.67755" lon="5.79477">
        <ele>428.8</ele>
        <time>2022-04-15T14:11:17Z</time>
      </trkpt>
      <trkpt lat="45.67753" lon="5.79481">
        <ele>429.1</ele>
        <time>2022-04-15T14:11:19Z</time>
      </trkpt>
      <trkpt lat="45.67752" lon="5.79486">
        <ele>429.4</ele>
        <time>2022-04-15T14:11:21Z</time>
      </trkpt>
      <trkpt lat="45.67751" lon="5.79487">
        <ele>429.5</ele>
        <time>2022-04-15T14:11:22Z</time>
      </trkpt>
      <trkpt lat="45.6775" lon="5.79489">
        <ele>429.7</ele>
        <time>2022-04-15T14:11:23Z</time>
      </trkpt>
      <trkpt lat="45.67749" lon="5.79491">
        <ele>429.8</ele>
        <time>2022-04-15T14:11:24Z</time>
      </trkpt>
      <trkpt lat="45.67748" lon="5.79493">
        <ele>429.9</ele>
        <time>2022-04-15T14:11:25Z</time>
      </trkpt>
      <trkpt lat="45.67747" lon="5.79495">
        <ele>430.1</ele>
        <time>2022-04-15T14:11:26Z</time>
      </trkpt>
      <trkpt lat="45.67746" lon="5.79497">
        <ele>430.2</ele>
        <time>2022-04-15T14:11:27Z</time>
      </trkpt>
      <trkpt lat="45.67745" lon="5.79499">
        <ele>430.4</ele>
        <time>2022-04-15T14:11:28Z</time>
      </trkpt>
      <trkpt lat="45.67744" lon="5.79501">
        <ele>430.5</ele>
        <time>2022-04-15T14:11:29Z</time>
      </trkpt>
      <trkpt lat="45.67742" lon="5.79504">
        <ele>430.7</ele>
        <time>2022-04-15T14:11:30Z</time>
      </trkpt>
      <trkpt lat="45.67742" lon="5.79505">
        <ele>430.8</ele>
        <time>2022-04-15T14:11:31Z</time>
      </trkpt>
      <trkpt lat="45.6774" lon="5.79508">
        <ele>431</ele>
        <time>2022-04-15T14:11:32Z</time>
      </trkpt>
      <trkpt lat="45.6774" lon="5.7951">
        <ele>431.1</ele>
        <time>2022-04-15T14:11:33Z</time>
      </trkpt>
      <trkpt lat="45.67738" lon="5.79513">
        <ele>431.4</ele>
        <time>2022-04-15T14:11:34Z</time>
      </trkpt>
      <trkpt lat="45.67738" lon="5.79514">
        <ele>431.5</ele>
        <time>2022-04-15T14:11:35Z</time>
      </trkpt>
      <trkpt lat="45.67737" lon="5.79517">
        <ele>431.6</ele>
        <time>2022-04-15T14:11:36Z</time>
      </trkpt>
      <trkpt lat="45.67736" lon="5.79519">
        <ele>431.8</ele>
        <time>2022-04-15T14:11:37Z</time>
      </trkpt>
      <trkpt lat="45.67735" lon="5.7952">
        <ele>431.9</ele>
        <time>2022-04-15T14:11:38Z</time>
      </trkpt>
      <trkpt lat="45.67734" lon="5.79522">
        <ele>432</ele>
        <time>2022-04-15T14:11:39Z</time>
      </trkpt>
      <trkpt lat="45.67732" lon="5.79526">
        <ele>432.3</ele>
        <time>2022-04-15T14:11:40Z</time>
      </trkpt>
      <trkpt lat="45.67732" lon="5.79527">
        <ele>432.4</ele>
        <time>2022-04-15T14:11:41Z</time>
      </trkpt>
      <trkpt lat="45.6773" lon="5.7953">
        <ele>432.6</ele>
        <time>2022-04-15T14:11:42Z</time>
      </trkpt>
      <trkpt lat="45.6773" lon="5.79531">
        <ele>432.7</ele>
        <time>2022-04-15T14:11:43Z</time>
      </trkpt>
      <trkpt lat="45.67728" lon="5.79535">
        <ele>432.9</ele>
        <time>2022-04-15T14:11:44Z</time>
      </trkpt>
      <trkpt lat="45.67728" lon="5.79536">
        <ele>433</ele>
        <time>2022-04-15T14:11:45Z</time>
      </trkpt>
      <trkpt lat="45.67727" lon="5.79538">
        <ele>433.1</ele>
        <time>2022-04-15T14:11:46Z</time>
      </trkpt>
      <trkpt lat="45.67726" lon="5.7954">
        <ele>433.2</ele>
        <time>2022-04-15T14:11:47Z</time>
      </trkpt>
      <trkpt lat="45.67725" lon="5.79544">
        <ele>433.4</ele>
        <time>2022-04-15T14:11:48Z</time>
      </trkpt>
      <trkpt lat="45.67725" lon="5.79545">
        <ele>433.5</ele>
        <time>2022-04-15T14:11:49Z</time>
      </trkpt>
      <trkpt lat="45.67724" lon="5.79547">
        <ele>433.7</ele>
        <time>2022-04-15T14:11:50Z</time>
      </trkpt>
      <trkpt lat="45.67723" lon="5.7955">
        <ele>433.8</ele>
        <time>2022-04-15T14:11:51Z</time>
      </trkpt>
      <trkpt lat="45.67722" lon="5.79552">
        <ele>433.9</ele>
        <time>2022-04-15T14:11:52Z</time>
      </trkpt>
      <trkpt lat="45.67722" lon="5.79554">
        <ele>434.1</ele>
        <time>2022-04-15T14:11:53Z</time>
      </trkpt>
      <trkpt lat="45.67721" lon="5.79558">
        <ele>434.3</ele>
        <time>2022-04-15T14:11:54Z</time>
      </trkpt>
      <trkpt lat="45.67721" lon="5.7956">
        <ele>434.4</ele>
        <time>2022-04-15T14:11:55Z</time>
      </trkpt>
      <trkpt lat="45.67721" lon="5.79564">
        <ele>434.6</ele>
        <time>2022-04-15T14:11:56Z</time>
      </trkpt>
      <trkpt lat="45.6772" lon="5.79565">
        <ele>434.7</ele>
        <time>2022-04-15T14:11:57Z</time>
      </trkpt>
      <trkpt lat="45.6772" lon="5.79569">
        <ele>434.9</ele>
        <time>2022-04-15T14:11:58Z</time>
      </trkpt>
      <trkpt lat="45.6772" lon="5.7957">
        <ele>435</ele>
        <time>2022-04-15T14:11:59Z</time>
      </trkpt>
      <trkpt lat="45.67719" lon="5.79574">
        <ele>435.2</ele>
        <time>2022-04-15T14:12:00Z</time>
      </trkpt>
      <trkpt lat="45.67719" lon="5.79575">
        <ele>435.2</ele>
        <time>2022-04-15T14:12:01Z</time>
      </trkpt>
      <trkpt lat="45.67718" lon="5.79579">
        <ele>435.4</ele>
        <time>2022-04-15T14:12:02Z</time>
      </trkpt>
      <trkpt lat="45.67718" lon="5.79581">
        <ele>435.5</ele>
        <time>2022-04-15T14:12:03Z</time>
      </trkpt>
      <trkpt lat="45.67717" lon="5.79585">
        <ele>435.7</ele>
        <time>2022-04-15T14:12:04Z</time>
      </trkpt>
      <trkpt lat="45.67717" lon="5.79586">
        <ele>435.8</ele>
        <time>2022-04-15T14:12:05Z</time>
      </trkpt>
      <trkpt lat="45.67717" lon="5.7959">
        <ele>436</ele>
        <time>2022-04-15T14:12:06Z</time>
      </trkpt>
      <trkpt lat="45.67716" lon="5.79592">
        <ele>436.1</ele>
        <time>2022-04-15T14:12:07Z</time>
      </trkpt>
      <trkpt lat="45.67715" lon="5.79595">
        <ele>436.3</ele>
        <time>2022-04-15T14:12:08Z</time>
      </trkpt>
      <trkpt lat="45.67715" lon="5.79597">
        <ele>436.4</ele>
        <time>2022-04-15T14:12:09Z</time>
      </trkpt>
      <trkpt lat="45.67715" lon="5.79601">
        <ele>436.6</ele>
        <time>2022-04-15T14:12:10Z</time>
      </trkpt>
      <trkpt lat="45.67715" lon="5.79602">
        <ele>436.7</ele>
        <time>2022-04-15T14:12:11Z</time>
      </trkpt>
      <trkpt lat="45.67714" lon="5.79606">
        <ele>436.9</ele>
        <time>2022-04-15T14:12:12Z</time>
      </trkpt>
      <trkpt lat="45.67714" lon="5.79608">
        <ele>436.9</ele>
        <time>2022-04-15T14:12:13Z</time>
      </trkpt>
      <trkpt lat="45.67714" lon="5.79612">
        <ele>437.2</ele>
        <time>2022-04-15T14:12:14Z</time>
      </trkpt>
      <trkpt lat="45.67713" lon="5.79613">
        <ele>437.3</ele>
        <time>2022-04-15T14:12:15Z</time>
      </trkpt>
      <trkpt lat="45.67713" lon="5.79617">
        <ele>437.5</ele>
        <time>2022-04-15T14:12:16Z</time>
      </trkpt>
      <trkpt lat="45.67712" lon="5.79619">
        <ele>437.6</ele>
        <time>2022-04-15T14:12:17Z</time>
      </trkpt>
      <trkpt lat="45.67712" lon="5.79623">
        <ele>437.8</ele>
        <time>2022-04-15T14:12:18Z</time>
      </trkpt>
      <trkpt lat="45.67712" lon="5.79624">
        <ele>437.9</ele>
        <time>2022-04-15T14:12:19Z</time>
      </trkpt>
      <trkpt lat="45.67712" lon="5.79628">
        <ele>438.1</ele>
        <time>2022-04-15T14:12:20Z</time>
      </trkpt>
      <trkpt lat="45.67711" lon="5.7963">
        <ele>438.1</ele>
        <time>2022-04-15T14:12:21Z</time>
      </trkpt>
      <trkpt lat="45.67711" lon="5.79634">
        <ele>438.4</ele>
        <time>2022-04-15T14:12:22Z</time>
      </trkpt>
      <trkpt lat="45.67711" lon="5.79635">
        <ele>438.4</ele>
        <time>2022-04-15T14:12:23Z</time>
      </trkpt>
      <trkpt lat="45.6771" lon="5.79639">
        <ele>438.7</ele>
        <time>2022-04-15T14:12:24Z</time>
      </trkpt>
      <trkpt lat="45.6771" lon="5.7964">
        <ele>438.7</ele>
        <time>2022-04-15T14:12:25Z</time>
      </trkpt>
      <trkpt lat="45.6771" lon="5.79643">
        <ele>438.9</ele>
        <time>2022-04-15T14:12:26Z</time>
      </trkpt>
      <trkpt lat="45.67709" lon="5.79645">
        <ele>439</ele>
        <time>2022-04-15T14:12:27Z</time>
      </trkpt>
      <trkpt lat="45.67709" lon="5.79649">
        <ele>439.3</ele>
        <time>2022-04-15T14:12:28Z</time>
      </trkpt>
      <trkpt lat="45.67709" lon="5.79651">
        <ele>439.3</ele>
        <time>2022-04-15T14:12:29Z</time>
      </trkpt>
      <trkpt lat="45.67708" lon="5.79655">
        <ele>439.6</ele>
        <time>2022-04-15T14:12:30Z</time>
      </trkpt>
      <trkpt lat="45.67707" lon="5.79656">
        <ele>439.7</ele>
        <time>2022-04-15T14:12:31Z</time>
      </trkpt>
      <trkpt lat="45.67706" lon="5.7966">
        <ele>439.9</ele>
        <time>2022-04-15T14:12:32Z</time>
      </trkpt>
      <trkpt lat="45.67706" lon="5.79661">
        <ele>440</ele>
        <time>2022-04-15T14:12:33Z</time>
      </trkpt>
      <trkpt lat="45.67706" lon="5.79663">
        <ele>440.1</ele>
        <time>2022-04-15T14:12:34Z</time>
      </trkpt>
      <trkpt lat="45.67705" lon="5.79665">
        <ele>440.2</ele>
        <time>2022-04-15T14:12:35Z</time>
      </trkpt>
      <trkpt lat="45.67705" lon="5.79668">
        <ele>440.4</ele>
        <time>2022-04-15T14:12:36Z</time>
      </trkpt>
      <trkpt lat="45.67704" lon="5.7967">
        <ele>440.5</ele>
        <time>2022-04-15T14:12:37Z</time>
      </trkpt>
      <trkpt lat="45.67703" lon="5.79672">
        <ele>440.7</ele>
        <time>2022-04-15T14:12:38Z</time>
      </trkpt>
      <trkpt lat="45.67702" lon="5.79674">
        <ele>440.8</ele>
        <time>2022-04-15T14:12:39Z</time>
      </trkpt>
      <trkpt lat="45.67702" lon="5.79675">
        <ele>440.9</ele>
        <time>2022-04-15T14:12:40Z</time>
      </trkpt>
      <trkpt lat="45.67701" lon="5.79677">
        <ele>441</ele>
        <time>2022-04-15T14:12:41Z</time>
      </trkpt>
      <trkpt lat="45.677" lon="5.7968">
        <ele>441.2</ele>
        <time>2022-04-15T14:12:42Z</time>
      </trkpt>
      <trkpt lat="45.67698" lon="5.79683">
        <ele>441.5</ele>
        <time>2022-04-15T14:12:44Z</time>
      </trkpt>
      <trkpt lat="45.67696" lon="5.79686">
        <ele>441.7</ele>
        <time>2022-04-15T14:12:45Z</time>
      </trkpt>
      <trkpt lat="45.67695" lon="5.79688">
        <ele>441.8</ele>
        <time>2022-04-15T14:12:47Z</time>
      </trkpt>
      <trkpt lat="45.67694" lon="5.79689">
        <ele>442</ele>
        <time>2022-04-15T14:12:48Z</time>
      </trkpt>
      <trkpt lat="45.67692" lon="5.79691">
        <ele>442.1</ele>
        <time>2022-04-15T14:12:49Z</time>
      </trkpt>
      <trkpt lat="45.67691" lon="5.79692">
        <ele>442.2</ele>
        <time>2022-04-15T14:12:50Z</time>
      </trkpt>
      <trkpt lat="45.6769" lon="5.79692">
        <ele>442.3</ele>
        <time>2022-04-15T14:12:51Z</time>
      </trkpt>
      <trkpt lat="45.67688" lon="5.79694">
        <ele>442.5</ele>
        <time>2022-04-15T14:12:52Z</time>
      </trkpt>
      <trkpt lat="45.67687" lon="5.79694">
        <ele>442.6</ele>
        <time>2022-04-15T14:12:53Z</time>
      </trkpt>
      <trkpt lat="45.67686" lon="5.79695">
        <ele>442.7</ele>
        <time>2022-04-15T14:12:54Z</time>
      </trkpt>
      <trkpt lat="45.67684" lon="5.79698">
        <ele>442.9</ele>
        <time>2022-04-15T14:12:55Z</time>
      </trkpt>
      <trkpt lat="45.67683" lon="5.79699">
        <ele>443</ele>
        <time>2022-04-15T14:12:56Z</time>
      </trkpt>
      <trkpt lat="45.67682" lon="5.79701">
        <ele>443.2</ele>
        <time>2022-04-15T14:12:57Z</time>
      </trkpt>
      <trkpt lat="45.67681" lon="5.79702">
        <ele>443.3</ele>
        <time>2022-04-15T14:12:58Z</time>
      </trkpt>
      <trkpt lat="45.6768" lon="5.79703">
        <ele>443.4</ele>
        <time>2022-04-15T14:12:59Z</time>
      </trkpt>
      <trkpt lat="45.67679" lon="5.79704">
        <ele>443.5</ele>
        <time>2022-04-15T14:13:00Z</time>
      </trkpt>
      <trkpt lat="45.67677" lon="5.79706">
        <ele>443.6</ele>
        <time>2022-04-15T14:13:01Z</time>
      </trkpt>
      <trkpt lat="45.67676" lon="5.79707">
        <ele>443.8</ele>
        <time>2022-04-15T14:13:02Z</time>
      </trkpt>
      <trkpt lat="45.67674" lon="5.79708">
        <ele>443.9</ele>
        <time>2022-04-15T14:13:03Z</time>
      </trkpt>
      <trkpt lat="45.67673" lon="5.79709">
        <ele>444</ele>
        <time>2022-04-15T14:13:04Z</time>
      </trkpt>
      <trkpt lat="45.67672" lon="5.7971">
        <ele>444.1</ele>
        <time>2022-04-15T14:13:05Z</time>
      </trkpt>
      <trkpt lat="45.67671" lon="5.79711">
        <ele>444.2</ele>
        <time>2022-04-15T14:13:06Z</time>
      </trkpt>
      <trkpt lat="45.67669" lon="5.79712">
        <ele>444.4</ele>
        <time>2022-04-15T14:13:07Z</time>
      </trkpt>
      <trkpt lat="45.67668" lon="5.79713">
        <ele>444.5</ele>
        <time>2022-04-15T14:13:08Z</time>
      </trkpt>
      <trkpt lat="45.67667" lon="5.79715">
        <ele>444.7</ele>
        <time>2022-04-15T14:13:09Z</time>
      </trkpt>
      <trkpt lat="45.67666" lon="5.79716">
        <ele>444.8</ele>
        <time>2022-04-15T14:13:10Z</time>
      </trkpt>
      <trkpt lat="45.67665" lon="5.79717">
        <ele>444.9</ele>
        <time>2022-04-15T14:13:11Z</time>
      </trkpt>
      <trkpt lat="45.67663" lon="5.79718">
        <ele>445</ele>
        <time>2022-04-15T14:13:12Z</time>
      </trkpt>
      <trkpt lat="45.67662" lon="5.7972">
        <ele>445.2</ele>
        <time>2022-04-15T14:13:13Z</time>
      </trkpt>
      <trkpt lat="45.67661" lon="5.79721">
        <ele>445.3</ele>
        <time>2022-04-15T14:13:14Z</time>
      </trkpt>
      <trkpt lat="45.67659" lon="5.79722">
        <ele>445.5</ele>
        <time>2022-04-15T14:13:15Z</time>
      </trkpt>
      <trkpt lat="45.67658" lon="5.79723">
        <ele>445.6</ele>
        <time>2022-04-15T14:13:16Z</time>
      </trkpt>
      <trkpt lat="45.67657" lon="5.79724">
        <ele>445.7</ele>
        <time>2022-04-15T14:13:17Z</time>
      </trkpt>
      <trkpt lat="45.67656" lon="5.79725">
        <ele>445.8</ele>
        <time>2022-04-15T14:13:18Z</time>
      </trkpt>
      <trkpt lat="45.67655" lon="5.79727">
        <ele>446</ele>
        <time>2022-04-15T14:13:19Z</time>
      </trkpt>
      <trkpt lat="45.67654" lon="5.79728">
        <ele>446.1</ele>
        <time>2022-04-15T14:13:20Z</time>
      </trkpt>
      <trkpt lat="45.67653" lon="5.7973">
        <ele>446.2</ele>
        <time>2022-04-15T14:13:21Z</time>
      </trkpt>
      <trkpt lat="45.67652" lon="5.79731">
        <ele>446.4</ele>
        <time>2022-04-15T14:13:22Z</time>
      </trkpt>
      <trkpt lat="45.6765" lon="5.79733">
        <ele>446.7</ele>
        <time>2022-04-15T14:13:24Z</time>
      </trkpt>
      <trkpt lat="45.67649" lon="5.79734">
        <ele>446.8</ele>
        <time>2022-04-15T14:13:25Z</time>
      </trkpt>
      <trkpt lat="45.67647" lon="5.79736">
        <ele>447</ele>
        <time>2022-04-15T14:13:26Z</time>
      </trkpt>
      <trkpt lat="45.67645" lon="5.79737">
        <ele>447.2</ele>
        <time>2022-04-15T14:13:27Z</time>
      </trkpt>
      <trkpt lat="45.67645" lon="5.79738">
        <ele>447.3</ele>
        <time>2022-04-15T14:13:28Z</time>
      </trkpt>
      <trkpt lat="45.67644" lon="5.79739">
        <ele>447.3</ele>
        <time>2022-04-15T14:13:29Z</time>
      </trkpt>
      <trkpt lat="45.67642" lon="5.7974">
        <ele>447.5</ele>
        <time>2022-04-15T14:13:30Z</time>
      </trkpt>
      <trkpt lat="45.67641" lon="5.7974">
        <ele>447.6</ele>
        <time>2022-04-15T14:13:31Z</time>
      </trkpt>
      <trkpt lat="45.6764" lon="5.7974">
        <ele>447.7</ele>
        <time>2022-04-15T14:13:32Z</time>
      </trkpt>
      <trkpt lat="45.67638" lon="5.7974">
        <ele>447.9</ele>
        <time>2022-04-15T14:13:33Z</time>
      </trkpt>
      <trkpt lat="45.67637" lon="5.7974">
        <ele>448</ele>
        <time>2022-04-15T14:13:34Z</time>
      </trkpt>
      <trkpt lat="45.67637" lon="5.7974">
        <ele>448</ele>
        <time>2022-04-15T14:13:35Z</time>
      </trkpt>
      <trkpt lat="45.67634" lon="5.79743">
        <ele>448.3</ele>
        <time>2022-04-15T14:13:36Z</time>
      </trkpt>
      <trkpt lat="45.67633" lon="5.79745">
        <ele>448.5</ele>
        <time>2022-04-15T14:13:37Z</time>
      </trkpt>
      <trkpt lat="45.67632" lon="5.79748">
        <ele>448.7</ele>
        <time>2022-04-15T14:13:38Z</time>
      </trkpt>
      <trkpt lat="45.6763" lon="5.79751">
        <ele>448.9</ele>
        <time>2022-04-15T14:13:40Z</time>
      </trkpt>
      <trkpt lat="45.6763" lon="5.79752">
        <ele>449</ele>
        <time>2022-04-15T14:13:41Z</time>
      </trkpt>
      <trkpt lat="45.67629" lon="5.79753">
        <ele>449.1</ele>
        <time>2022-04-15T14:13:42Z</time>
      </trkpt>
      <trkpt lat="45.67628" lon="5.79754">
        <ele>449.2</ele>
        <time>2022-04-15T14:13:43Z</time>
      </trkpt>
      <trkpt lat="45.67627" lon="5.79755">
        <ele>449.3</ele>
        <time>2022-04-15T14:13:44Z</time>
      </trkpt>
      <trkpt lat="45.67626" lon="5.79757">
        <ele>449.5</ele>
        <time>2022-04-15T14:13:45Z</time>
      </trkpt>
      <trkpt lat="45.67625" lon="5.79759">
        <ele>449.6</ele>
        <time>2022-04-15T14:13:46Z</time>
      </trkpt>
      <trkpt lat="45.67623" lon="5.7976">
        <ele>449.8</ele>
        <time>2022-04-15T14:13:47Z</time>
      </trkpt>
      <trkpt lat="45.67622" lon="5.79762">
        <ele>449.9</ele>
        <time>2022-04-15T14:13:48Z</time>
      </trkpt>
      <trkpt lat="45.67621" lon="5.79763">
        <ele>450</ele>
        <time>2022-04-15T14:13:49Z</time>
      </trkpt>
      <trkpt lat="45.6762" lon="5.79764">
        <ele>450.1</ele>
        <time>2022-04-15T14:13:50Z</time>
      </trkpt>
      <trkpt lat="45.67619" lon="5.79766">
        <ele>450.3</ele>
        <time>2022-04-15T14:13:51Z</time>
      </trkpt>
      <trkpt lat="45.67618" lon="5.79768">
        <ele>450.4</ele>
        <time>2022-04-15T14:13:52Z</time>
      </trkpt>
      <trkpt lat="45.67617" lon="5.7977">
        <ele>450.5</ele>
        <time>2022-04-15T14:13:53Z</time>
      </trkpt>
      <trkpt lat="45.67616" lon="5.79772">
        <ele>450.7</ele>
        <time>2022-04-15T14:13:54Z</time>
      </trkpt>
      <trkpt lat="45.67615" lon="5.79774">
        <ele>450.8</ele>
        <time>2022-04-15T14:13:55Z</time>
      </trkpt>
      <trkpt lat="45.67614" lon="5.79776">
        <ele>450.9</ele>
        <time>2022-04-15T14:13:56Z</time>
      </trkpt>
      <trkpt lat="45.67614" lon="5.79777">
        <ele>451</ele>
        <time>2022-04-15T14:13:57Z</time>
      </trkpt>
      <trkpt lat="45.67613" lon="5.79779">
        <ele>451.1</ele>
        <time>2022-04-15T14:13:58Z</time>
      </trkpt>
      <trkpt lat="45.67612" lon="5.79781">
        <ele>451.2</ele>
        <time>2022-04-15T14:13:59Z</time>
      </trkpt>
      <trkpt lat="45.67611" lon="5.79783">
        <ele>451.4</ele>
        <time>2022-04-15T14:14:00Z</time>
      </trkpt>
      <trkpt lat="45.67611" lon="5.79786">
        <ele>451.5</ele>
        <time>2022-04-15T14:14:01Z</time>
      </trkpt>
      <trkpt lat="45.67611" lon="5.79789">
        <ele>451.6</ele>
        <time>2022-04-15T14:14:02Z</time>
      </trkpt>
      <trkpt lat="45.6761" lon="5.7979">
        <ele>451.7</ele>
        <time>2022-04-15T14:14:03Z</time>
      </trkpt>
      <trkpt lat="45.6761" lon="5.79792">
        <ele>451.8</ele>
        <time>2022-04-15T14:14:04Z</time>
      </trkpt>
      <trkpt lat="45.6761" lon="5.79794">
        <ele>451.9</ele>
        <time>2022-04-15T14:14:05Z</time>
      </trkpt>
      <trkpt lat="45.67611" lon="5.79796">
        <ele>452</ele>
        <time>2022-04-15T14:14:06Z</time>
      </trkpt>
      <trkpt lat="45.67611" lon="5.79801">
        <ele>452</ele>
        <time>2022-04-15T14:14:07Z</time>
      </trkpt>
      <trkpt lat="45.67611" lon="5.79802">
        <ele>452</ele>
        <time>2022-04-15T14:14:08Z</time>
      </trkpt>
      <trkpt lat="45.67612" lon="5.79806">
        <ele>452</ele>
        <time>2022-04-15T14:14:10Z</time>
      </trkpt>
      <trkpt lat="45.67613" lon="5.7981">
        <ele>452</ele>
        <time>2022-04-15T14:14:11Z</time>
      </trkpt>
      <trkpt lat="45.67615" lon="5.7982">
        <ele>451.9</ele>
        <time>2022-04-15T14:14:13Z</time>
      </trkpt>
      <trkpt lat="45.67616" lon="5.79825">
        <ele>451.8</ele>
        <time>2022-04-15T14:14:15Z</time>
      </trkpt>
      <trkpt lat="45.67618" lon="5.7983">
        <ele>451.7</ele>
        <time>2022-04-15T14:14:16Z</time>
      </trkpt>
      <trkpt lat="45.67621" lon="5.79838">
        <ele>451.6</ele>
        <time>2022-04-15T14:14:18Z</time>
      </trkpt>
      <trkpt lat="45.67624" lon="5.79844">
        <ele>451.5</ele>
        <time>2022-04-15T14:14:19Z</time>
      </trkpt>
      <trkpt lat="45.67625" lon="5.79847">
        <ele>451.4</ele>
        <time>2022-04-15T14:14:20Z</time>
      </trkpt>
      <trkpt lat="45.67629" lon="5.79852">
        <ele>451.3</ele>
        <time>2022-04-15T14:14:21Z</time>
      </trkpt>
      <trkpt lat="45.67633" lon="5.79859">
        <ele>451.3</ele>
        <time>2022-04-15T14:14:23Z</time>
      </trkpt>
      <trkpt lat="45.67635" lon="5.79863">
        <ele>451.2</ele>
        <time>2022-04-15T14:14:24Z</time>
      </trkpt>
      <trkpt lat="45.67638" lon="5.79867">
        <ele>451.2</ele>
        <time>2022-04-15T14:14:25Z</time>
      </trkpt>
      <trkpt lat="45.67641" lon="5.79872">
        <ele>451.2</ele>
        <time>2022-04-15T14:14:26Z</time>
      </trkpt>
      <trkpt lat="45.67644" lon="5.79876">
        <ele>451.2</ele>
        <time>2022-04-15T14:14:27Z</time>
      </trkpt>
      <trkpt lat="45.67648" lon="5.79882">
        <ele>451.2</ele>
        <time>2022-04-15T14:14:29Z</time>
      </trkpt>
      <trkpt lat="45.67653" lon="5.79889">
        <ele>451.2</ele>
        <time>2022-04-15T14:14:31Z</time>
      </trkpt>
      <trkpt lat="45.67655" lon="5.79893">
        <ele>451.2</ele>
        <time>2022-04-15T14:14:32Z</time>
      </trkpt>
      <trkpt lat="45.67658" lon="5.79898">
        <ele>451.3</ele>
        <time>2022-04-15T14:14:33Z</time>
      </trkpt>
      <trkpt lat="45.67662" lon="5.79903">
        <ele>451.3</ele>
        <time>2022-04-15T14:14:34Z</time>
      </trkpt>
      <trkpt lat="45.67665" lon="5.79909">
        <ele>451.3</ele>
        <time>2022-04-15T14:14:36Z</time>
      </trkpt>
      <trkpt lat="45.67667" lon="5.79914">
        <ele>451.4</ele>
        <time>2022-04-15T14:14:37Z</time>
      </trkpt>
      <trkpt lat="45.67668" lon="5.79918">
        <ele>451.4</ele>
        <time>2022-04-15T14:14:38Z</time>
      </trkpt>
      <trkpt lat="45.67671" lon="5.79921">
        <ele>451.5</ele>
        <time>2022-04-15T14:14:39Z</time>
      </trkpt>
      <trkpt lat="45.67673" lon="5.79925">
        <ele>451.5</ele>
        <time>2022-04-15T14:14:40Z</time>
      </trkpt>
      <trkpt lat="45.67676" lon="5.7993">
        <ele>451.5</ele>
        <time>2022-04-15T14:14:41Z</time>
      </trkpt>
      <trkpt lat="45.6768" lon="5.79939">
        <ele>451.6</ele>
        <time>2022-04-15T14:14:43Z</time>
      </trkpt>
      <trkpt lat="45.67684" lon="5.79947">
        <ele>451.8</ele>
        <time>2022-04-15T14:14:45Z</time>
      </trkpt>
      <trkpt lat="45.67686" lon="5.79953">
        <ele>451.8</ele>
        <time>2022-04-15T14:14:46Z</time>
      </trkpt>
      <trkpt lat="45.67688" lon="5.79963">
        <ele>452</ele>
        <time>2022-04-15T14:14:48Z</time>
      </trkpt>
      <trkpt lat="45.67689" lon="5.79974">
        <ele>452.1</ele>
        <time>2022-04-15T14:14:50Z</time>
      </trkpt>
      <trkpt lat="45.67689" lon="5.7998">
        <ele>452.2</ele>
        <time>2022-04-15T14:14:51Z</time>
      </trkpt>
      <trkpt lat="45.67689" lon="5.7999">
        <ele>452.3</ele>
        <time>2022-04-15T14:14:53Z</time>
      </trkpt>
      <trkpt lat="45.6769" lon="5.79998">
        <ele>452.5</ele>
        <time>2022-04-15T14:14:55Z</time>
      </trkpt>
      <trkpt lat="45.67689" lon="5.80003">
        <ele>452.5</ele>
        <time>2022-04-15T14:14:56Z</time>
      </trkpt>
      <trkpt lat="45.6769" lon="5.80008">
        <ele>452.6</ele>
        <time>2022-04-15T14:14:57Z</time>
      </trkpt>
      <trkpt lat="45.67689" lon="5.80015">
        <ele>452.7</ele>
        <time>2022-04-15T14:14:58Z</time>
      </trkpt>
      <trkpt lat="45.6769" lon="5.8002">
        <ele>452.8</ele>
        <time>2022-04-15T14:14:59Z</time>
      </trkpt>
      <trkpt lat="45.6769" lon="5.80027">
        <ele>452.9</ele>
        <time>2022-04-15T14:15:01Z</time>
      </trkpt>
      <trkpt lat="45.67689" lon="5.80032">
        <ele>453</ele>
        <time>2022-04-15T14:15:02Z</time>
      </trkpt>
      <trkpt lat="45.67688" lon="5.80038">
        <ele>453.1</ele>
        <time>2022-04-15T14:15:03Z</time>
      </trkpt>
      <trkpt lat="45.67688" lon="5.80043">
        <ele>453.2</ele>
        <time>2022-04-15T14:15:04Z</time>
      </trkpt>
      <trkpt lat="45.67689" lon="5.80049">
        <ele>453.3</ele>
        <time>2022-04-15T14:15:06Z</time>
      </trkpt>
      <trkpt lat="45.67689" lon="5.80055">
        <ele>453.5</ele>
        <time>2022-04-15T14:15:07Z</time>
      </trkpt>
      <trkpt lat="45.6769" lon="5.80062">
        <ele>453.6</ele>
        <time>2022-04-15T14:15:08Z</time>
      </trkpt>
      <trkpt lat="45.6769" lon="5.80069">
        <ele>453.7</ele>
        <time>2022-04-15T14:15:10Z</time>
      </trkpt>
      <trkpt lat="45.67692" lon="5.80075">
        <ele>453.9</ele>
        <time>2022-04-15T14:15:11Z</time>
      </trkpt>
      <trkpt lat="45.67695" lon="5.80083">
        <ele>454.1</ele>
        <time>2022-04-15T14:15:13Z</time>
      </trkpt>
      <trkpt lat="45.67696" lon="5.80088">
        <ele>454.2</ele>
        <time>2022-04-15T14:15:15Z</time>
      </trkpt>
      <trkpt lat="45.67697" lon="5.80093">
        <ele>454.4</ele>
        <time>2022-04-15T14:15:16Z</time>
      </trkpt>
      <trkpt lat="45.67698" lon="5.80095">
        <ele>454.4</ele>
        <time>2022-04-15T14:15:18Z</time>
      </trkpt>
      <trkpt lat="45.67698" lon="5.80094">
        <ele>454.4</ele>
        <time>2022-04-15T14:15:19Z</time>
      </trkpt>
      <trkpt lat="45.67697" lon="5.80093">
        <ele>454.5</ele>
        <time>2022-04-15T14:15:20Z</time>
      </trkpt>
      <trkpt lat="45.67696" lon="5.80093">
        <ele>454.5</ele>
        <time>2022-04-15T14:15:21Z</time>
      </trkpt>
      <trkpt lat="45.67696" lon="5.80092">
        <ele>454.5</ele>
        <time>2022-04-15T14:15:22Z</time>
      </trkpt>
      <trkpt lat="45.67696" lon="5.80092">
        <ele>454.5</ele>
        <time>2022-04-15T14:15:23Z</time>
      </trkpt>
      <trkpt lat="45.67696" lon="5.80092">
        <ele>454.5</ele>
        <time>2022-04-15T14:15:25Z</time>
      </trkpt>
      <trkpt lat="45.67696" lon="5.80092">
        <ele>454.5</ele>
        <time>2022-04-15T14:15:26Z</time>
      </trkpt>
      <trkpt lat="45.67696" lon="5.80092">
        <ele>454.5</ele>
        <time>2022-04-15T14:15:27Z</time>
      </trkpt>
      <trkpt lat="45.67696" lon="5.80091">
        <ele>454.5</ele>
        <time>2022-04-15T14:15:28Z</time>
      </trkpt>
      <trkpt lat="45.67696" lon="5.80091">
        <ele>454.6</ele>
        <time>2022-04-15T14:15:29Z</time>
      </trkpt>
      <trkpt lat="45.67695" lon="5.80091">
        <ele>454.6</ele>
        <time>2022-04-15T14:15:30Z</time>
      </trkpt>
      <trkpt lat="45.67695" lon="5.80091">
        <ele>454.6</ele>
        <time>2022-04-15T14:15:31Z</time>
      </trkpt>
      <trkpt lat="45.67695" lon="5.80091">
        <ele>454.6</ele>
        <time>2022-04-15T14:15:32Z</time>
      </trkpt>
      <trkpt lat="45.67695" lon="5.80091">
        <ele>454.6</ele>
        <time>2022-04-15T14:15:33Z</time>
      </trkpt>
      <trkpt lat="45.67695" lon="5.80091">
        <ele>454.6</ele>
        <time>2022-04-15T14:15:34Z</time>
      </trkpt>
      <trkpt lat="45.67695" lon="5.80091">
        <ele>454.6</ele>
        <time>2022-04-15T14:15:35Z</time>
      </trkpt>
      <trkpt lat="45.67695" lon="5.80091">
        <ele>454.6</ele>
        <time>2022-04-15T14:15:36Z</time>
      </trkpt>
      <trkpt lat="45.67695" lon="5.80091">
        <ele>454.6</ele>
        <time>2022-04-15T14:15:37Z</time>
      </trkpt>
      <trkpt lat="45.67695" lon="5.80091">
        <ele>454.6</ele>
        <time>2022-04-15T14:15:38Z</time>
      </trkpt>
      <trkpt lat="45.67695" lon="5.80091">
        <ele>454.6</ele>
        <time>2022-04-15T14:15:39Z</time>
      </trkpt>
      <trkpt lat="45.67695" lon="5.80091">
        <ele>454.6</ele>
        <time>2022-04-15T14:15:40Z</time>
      </trkpt>
      <trkpt lat="45.67695" lon="5.80091">
        <ele>454.6</ele>
        <time>2022-04-15T14:15:41Z</time>
      </trkpt>
      <trkpt lat="45.67695" lon="5.80091">
        <ele>454.6</ele>
        <time>2022-04-15T14:15:42Z</time>
      </trkpt>
      <trkpt lat="45.67695" lon="5.80091">
        <ele>454.6</ele>
        <time>2022-04-15T14:15:43Z</time>
      </trkpt>
      <trkpt lat="45.67695" lon="5.80091">
        <ele>454.6</ele>
        <time>2022-04-15T14:15:44Z</time>
      </trkpt>
      <trkpt lat="45.67695" lon="5.80091">
        <ele>454.6</ele>
        <time>2022-04-15T14:15:45Z</time>
      </trkpt>
      <trkpt lat="45.67695" lon="5.80091">
        <ele>454.6</ele>
        <time>2022-04-15T14:15:46Z</time>
      </trkpt>
      <trkpt lat="45.67695" lon="5.80091">
        <ele>454.6</ele>
        <time>2022-04-15T14:15:47Z</time>
      </trkpt>
      <trkpt lat="45.67695" lon="5.80091">
        <ele>454.6</ele>
        <time>2022-04-15T14:15:48Z</time>
      </trkpt>
      <trkpt lat="45.67695" lon="5.80091">
        <ele>454.6</ele>
        <time>2022-04-15T14:15:49Z</time>
      </trkpt>
      <trkpt lat="45.67695" lon="5.80091">
        <ele>454.6</ele>
        <time>2022-04-15T14:15:50Z</time>
      </trkpt>
      <trkpt lat="45.67695" lon="5.80093">
        <ele>454.7</ele>
        <time>2022-04-15T14:15:51Z</time>
      </trkpt>
      <trkpt lat="45.67695" lon="5.80093">
        <ele>454.7</ele>
        <time>2022-04-15T14:15:52Z</time>
      </trkpt>
      <trkpt lat="45.67695" lon="5.80095">
        <ele>454.8</ele>
        <time>2022-04-15T14:15:54Z</time>
      </trkpt>
      <trkpt lat="45.67697" lon="5.801">
        <ele>454.9</ele>
        <time>2022-04-15T14:15:56Z</time>
      </trkpt>
      <trkpt lat="45.67698" lon="5.80105">
        <ele>455</ele>
        <time>2022-04-15T14:15:57Z</time>
      </trkpt>
      <trkpt lat="45.67699" lon="5.80109">
        <ele>455.1</ele>
        <time>2022-04-15T14:15:59Z</time>
      </trkpt>
      <trkpt lat="45.677" lon="5.80113">
        <ele>455.2</ele>
        <time>2022-04-15T14:16:00Z</time>
      </trkpt>
      <trkpt lat="45.67701" lon="5.80118">
        <ele>455.4</ele>
        <time>2022-04-15T14:16:01Z</time>
      </trkpt>
      <trkpt lat="45.67701" lon="5.8012">
        <ele>455.4</ele>
        <time>2022-04-15T14:16:02Z</time>
      </trkpt>
      <trkpt lat="45.67702" lon="5.80128">
        <ele>455.6</ele>
        <time>2022-04-15T14:16:03Z</time>
      </trkpt>
      <trkpt lat="45.67703" lon="5.80133">
        <ele>455.7</ele>
        <time>2022-04-15T14:16:05Z</time>
      </trkpt>
      <trkpt lat="45.67705" lon="5.8014">
        <ele>455.8</ele>
        <time>2022-04-15T14:16:06Z</time>
      </trkpt>
      <trkpt lat="45.67707" lon="5.80146">
        <ele>456</ele>
        <time>2022-04-15T14:16:08Z</time>
      </trkpt>
      <trkpt lat="45.67708" lon="5.80148">
        <ele>456</ele>
        <time>2022-04-15T14:16:09Z</time>
      </trkpt>
      <trkpt lat="45.6771" lon="5.80152">
        <ele>456.2</ele>
        <time>2022-04-15T14:16:10Z</time>
      </trkpt>
      <trkpt lat="45.67713" lon="5.80155">
        <ele>456.3</ele>
        <time>2022-04-15T14:16:11Z</time>
      </trkpt>
      <trkpt lat="45.67715" lon="5.8016">
        <ele>456.4</ele>
        <time>2022-04-15T14:16:12Z</time>
      </trkpt>
      <trkpt lat="45.67718" lon="5.80164">
        <ele>456.6</ele>
        <time>2022-04-15T14:16:14Z</time>
      </trkpt>
      <trkpt lat="45.67719" lon="5.80168">
        <ele>456.7</ele>
        <time>2022-04-15T14:16:15Z</time>
      </trkpt>
      <trkpt lat="45.6772" lon="5.80171">
        <ele>456.8</ele>
        <time>2022-04-15T14:16:16Z</time>
      </trkpt>
      <trkpt lat="45.67721" lon="5.80176">
        <ele>456.9</ele>
        <time>2022-04-15T14:16:17Z</time>
      </trkpt>
      <trkpt lat="45.67723" lon="5.80184">
        <ele>457.1</ele>
        <time>2022-04-15T14:16:18Z</time>
      </trkpt>
      <trkpt lat="45.67725" lon="5.80188">
        <ele>457.3</ele>
        <time>2022-04-15T14:16:20Z</time>
      </trkpt>
      <trkpt lat="45.67726" lon="5.80195">
        <ele>457.5</ele>
        <time>2022-04-15T14:16:21Z</time>
      </trkpt>
      <trkpt lat="45.67727" lon="5.80199">
        <ele>457.6</ele>
        <time>2022-04-15T14:16:22Z</time>
      </trkpt>
      <trkpt lat="45.67729" lon="5.80204">
        <ele>457.7</ele>
        <time>2022-04-15T14:16:24Z</time>
      </trkpt>
      <trkpt lat="45.6773" lon="5.80208">
        <ele>457.9</ele>
        <time>2022-04-15T14:16:25Z</time>
      </trkpt>
      <trkpt lat="45.67731" lon="5.80213">
        <ele>458</ele>
        <time>2022-04-15T14:16:26Z</time>
      </trkpt>
      <trkpt lat="45.67734" lon="5.80218">
        <ele>458.2</ele>
        <time>2022-04-15T14:16:27Z</time>
      </trkpt>
      <trkpt lat="45.67737" lon="5.80223">
        <ele>458.2</ele>
        <time>2022-04-15T14:16:29Z</time>
      </trkpt>
      <trkpt lat="45.67738" lon="5.80228">
        <ele>458.2</ele>
        <time>2022-04-15T14:16:30Z</time>
      </trkpt>
      <trkpt lat="45.67739" lon="5.80237">
        <ele>458.1</ele>
        <time>2022-04-15T14:16:31Z</time>
      </trkpt>
      <trkpt lat="45.67742" lon="5.80247">
        <ele>457.9</ele>
        <time>2022-04-15T14:16:33Z</time>
      </trkpt>
      <trkpt lat="45.67747" lon="5.80262">
        <ele>457.5</ele>
        <time>2022-04-15T14:16:35Z</time>
      </trkpt>
      <trkpt lat="45.67751" lon="5.80268">
        <ele>457.3</ele>
        <time>2022-04-15T14:16:36Z</time>
      </trkpt>
      <trkpt lat="45.67754" lon="5.80273">
        <ele>457.1</ele>
        <time>2022-04-15T14:16:37Z</time>
      </trkpt>
      <trkpt lat="45.67756" lon="5.8028">
        <ele>456.9</ele>
        <time>2022-04-15T14:16:38Z</time>
      </trkpt>
      <trkpt lat="45.67759" lon="5.80289">
        <ele>456.6</ele>
        <time>2022-04-15T14:16:39Z</time>
      </trkpt>
      <trkpt lat="45.67762" lon="5.80298">
        <ele>456.3</ele>
        <time>2022-04-15T14:16:40Z</time>
      </trkpt>
      <trkpt lat="45.67764" lon="5.80307">
        <ele>456</ele>
        <time>2022-04-15T14:16:41Z</time>
      </trkpt>
      <trkpt lat="45.67767" lon="5.80316">
        <ele>455.7</ele>
        <time>2022-04-15T14:16:42Z</time>
      </trkpt>
      <trkpt lat="45.67771" lon="5.80325">
        <ele>455.4</ele>
        <time>2022-04-15T14:16:43Z</time>
      </trkpt>
      <trkpt lat="45.67774" lon="5.80332">
        <ele>455.2</ele>
        <time>2022-04-15T14:16:44Z</time>
      </trkpt>
      <trkpt lat="45.67777" lon="5.8034">
        <ele>454.9</ele>
        <time>2022-04-15T14:16:45Z</time>
      </trkpt>
      <trkpt lat="45.6778" lon="5.80346">
        <ele>454.7</ele>
        <time>2022-04-15T14:16:46Z</time>
      </trkpt>
      <trkpt lat="45.67783" lon="5.80353">
        <ele>454.5</ele>
        <time>2022-04-15T14:16:47Z</time>
      </trkpt>
      <trkpt lat="45.67786" lon="5.80359">
        <ele>454.2</ele>
        <time>2022-04-15T14:16:48Z</time>
      </trkpt>
      <trkpt lat="45.6779" lon="5.80364">
        <ele>454</ele>
        <time>2022-04-15T14:16:49Z</time>
      </trkpt>
      <trkpt lat="45.67793" lon="5.8037">
        <ele>453.9</ele>
        <time>2022-04-15T14:16:50Z</time>
      </trkpt>
      <trkpt lat="45.67796" lon="5.80376">
        <ele>453.8</ele>
        <time>2022-04-15T14:16:51Z</time>
      </trkpt>
      <trkpt lat="45.67799" lon="5.80381">
        <ele>453.7</ele>
        <time>2022-04-15T14:16:52Z</time>
      </trkpt>
      <trkpt lat="45.67801" lon="5.80385">
        <ele>453.7</ele>
        <time>2022-04-15T14:16:53Z</time>
      </trkpt>
      <trkpt lat="45.67803" lon="5.80387">
        <ele>453.6</ele>
        <time>2022-04-15T14:16:54Z</time>
      </trkpt>
      <trkpt lat="45.67805" lon="5.80389">
        <ele>453.6</ele>
        <time>2022-04-15T14:16:55Z</time>
      </trkpt>
      <trkpt lat="45.67808" lon="5.80392">
        <ele>453.6</ele>
        <time>2022-04-15T14:16:56Z</time>
      </trkpt>
      <trkpt lat="45.67811" lon="5.80395">
        <ele>453.6</ele>
        <time>2022-04-15T14:16:57Z</time>
      </trkpt>
      <trkpt lat="45.67814" lon="5.80399">
        <ele>453.6</ele>
        <time>2022-04-15T14:16:58Z</time>
      </trkpt>
      <trkpt lat="45.67818" lon="5.80404">
        <ele>453.6</ele>
        <time>2022-04-15T14:17:00Z</time>
      </trkpt>
      <trkpt lat="45.6782" lon="5.8041">
        <ele>453.7</ele>
        <time>2022-04-15T14:17:01Z</time>
      </trkpt>
      <trkpt lat="45.67823" lon="5.80417">
        <ele>453.6</ele>
        <time>2022-04-15T14:17:03Z</time>
      </trkpt>
      <trkpt lat="45.67824" lon="5.8042">
        <ele>453.6</ele>
        <time>2022-04-15T14:17:04Z</time>
      </trkpt>
      <trkpt lat="45.67827" lon="5.80425">
        <ele>453.5</ele>
        <time>2022-04-15T14:17:05Z</time>
      </trkpt>
      <trkpt lat="45.67828" lon="5.80426">
        <ele>453.4</ele>
        <time>2022-04-15T14:17:06Z</time>
      </trkpt>
      <trkpt lat="45.6783" lon="5.80429">
        <ele>453.3</ele>
        <time>2022-04-15T14:17:07Z</time>
      </trkpt>
      <trkpt lat="45.67831" lon="5.8043">
        <ele>452.8</ele>
        <time>2022-04-15T14:17:08Z</time>
      </trkpt>
      <trkpt lat="45.67833" lon="5.80432">
        <ele>452.5</ele>
        <time>2022-04-15T14:17:09Z</time>
      </trkpt>
      <trkpt lat="45.67837" lon="5.80434">
        <ele>452</ele>
        <time>2022-04-15T14:17:10Z</time>
      </trkpt>
      <trkpt lat="45.67842" lon="5.8043">
        <ele>451.4</ele>
        <time>2022-04-15T14:17:12Z</time>
      </trkpt>
      <trkpt lat="45.67846" lon="5.80427">
        <ele>450.8</ele>
        <time>2022-04-15T14:17:13Z</time>
      </trkpt>
      <trkpt lat="45.67857" lon="5.80418">
        <ele>449.7</ele>
        <time>2022-04-15T14:17:15Z</time>
      </trkpt>
      <trkpt lat="45.67859" lon="5.80415">
        <ele>449.4</ele>
        <time>2022-04-15T14:17:16Z</time>
      </trkpt>
      <trkpt lat="45.67864" lon="5.80413">
        <ele>449</ele>
        <time>2022-04-15T14:17:17Z</time>
      </trkpt>
      <trkpt lat="45.67869" lon="5.8041">
        <ele>448.5</ele>
        <time>2022-04-15T14:17:18Z</time>
      </trkpt>
      <trkpt lat="45.67874" lon="5.80407">
        <ele>448.2</ele>
        <time>2022-04-15T14:17:19Z</time>
      </trkpt>
      <trkpt lat="45.67879" lon="5.80404">
        <ele>447.8</ele>
        <time>2022-04-15T14:17:20Z</time>
      </trkpt>
      <trkpt lat="45.67884" lon="5.804">
        <ele>447.6</ele>
        <time>2022-04-15T14:17:21Z</time>
      </trkpt>
      <trkpt lat="45.67889" lon="5.80398">
        <ele>447.4</ele>
        <time>2022-04-15T14:17:22Z</time>
      </trkpt>
      <trkpt lat="45.67895" lon="5.80394">
        <ele>447.2</ele>
        <time>2022-04-15T14:17:23Z</time>
      </trkpt>
      <trkpt lat="45.679" lon="5.80391">
        <ele>447</ele>
        <time>2022-04-15T14:17:24Z</time>
      </trkpt>
      <trkpt lat="45.67905" lon="5.80387">
        <ele>446.9</ele>
        <time>2022-04-15T14:17:25Z</time>
      </trkpt>
      <trkpt lat="45.67909" lon="5.80384">
        <ele>446.8</ele>
        <time>2022-04-15T14:17:26Z</time>
      </trkpt>
      <trkpt lat="45.67914" lon="5.80381">
        <ele>446.7</ele>
        <time>2022-04-15T14:17:27Z</time>
      </trkpt>
      <trkpt lat="45.67919" lon="5.80378">
        <ele>446.6</ele>
        <time>2022-04-15T14:17:28Z</time>
      </trkpt>
      <trkpt lat="45.67923" lon="5.80375">
        <ele>446.5</ele>
        <time>2022-04-15T14:17:29Z</time>
      </trkpt>
      <trkpt lat="45.67928" lon="5.80372">
        <ele>446.5</ele>
        <time>2022-04-15T14:17:30Z</time>
      </trkpt>
      <trkpt lat="45.67932" lon="5.8037">
        <ele>446.4</ele>
        <time>2022-04-15T14:17:31Z</time>
      </trkpt>
      <trkpt lat="45.67937" lon="5.80367">
        <ele>446.3</ele>
        <time>2022-04-15T14:17:32Z</time>
      </trkpt>
      <trkpt lat="45.67941" lon="5.80365">
        <ele>446.2</ele>
        <time>2022-04-15T14:17:33Z</time>
      </trkpt>
      <trkpt lat="45.67944" lon="5.80363">
        <ele>446.1</ele>
        <time>2022-04-15T14:17:34Z</time>
      </trkpt>
      <trkpt lat="45.67947" lon="5.80361">
        <ele>446</ele>
        <time>2022-04-15T14:17:35Z</time>
      </trkpt>
      <trkpt lat="45.67949" lon="5.80361">
        <ele>446</ele>
        <time>2022-04-15T14:17:36Z</time>
      </trkpt>
      <trkpt lat="45.6795" lon="5.8036">
        <ele>445.9</ele>
        <time>2022-04-15T14:17:37Z</time>
      </trkpt>
      <trkpt lat="45.67952" lon="5.8036">
        <ele>445.9</ele>
        <time>2022-04-15T14:17:38Z</time>
      </trkpt>
      <trkpt lat="45.67954" lon="5.80359">
        <ele>445.8</ele>
        <time>2022-04-15T14:17:39Z</time>
      </trkpt>
      <trkpt lat="45.67953" lon="5.8036">
        <ele>445.8</ele>
        <time>2022-04-15T14:17:40Z</time>
      </trkpt>
      <trkpt lat="45.6796" lon="5.80358">
        <ele>445.5</ele>
        <time>2022-04-15T14:17:42Z</time>
      </trkpt>
      <trkpt lat="45.67964" lon="5.80355">
        <ele>445.3</ele>
        <time>2022-04-15T14:17:43Z</time>
      </trkpt>
      <trkpt lat="45.6797" lon="5.80349">
        <ele>444.9</ele>
        <time>2022-04-15T14:17:45Z</time>
      </trkpt>
      <trkpt lat="45.67972" lon="5.80345">
        <ele>444.4</ele>
        <time>2022-04-15T14:17:46Z</time>
      </trkpt>
      <trkpt lat="45.67974" lon="5.80339">
        <ele>443.9</ele>
        <time>2022-04-15T14:17:47Z</time>
      </trkpt>
      <trkpt lat="45.67974" lon="5.80335">
        <ele>443.5</ele>
        <time>2022-04-15T14:17:48Z</time>
      </trkpt>
      <trkpt lat="45.67976" lon="5.80326">
        <ele>442.6</ele>
        <time>2022-04-15T14:17:50Z</time>
      </trkpt>
      <trkpt lat="45.67977" lon="5.80321">
        <ele>442.2</ele>
        <time>2022-04-15T14:17:52Z</time>
      </trkpt>
      <trkpt lat="45.67978" lon="5.80315">
        <ele>441.6</ele>
        <time>2022-04-15T14:17:53Z</time>
      </trkpt>
      <trkpt lat="45.67978" lon="5.8031">
        <ele>441.2</ele>
        <time>2022-04-15T14:17:54Z</time>
      </trkpt>
      <trkpt lat="45.67979" lon="5.80302">
        <ele>440.6</ele>
        <time>2022-04-15T14:17:56Z</time>
      </trkpt>
      <trkpt lat="45.67979" lon="5.80296">
        <ele>440.1</ele>
        <time>2022-04-15T14:17:57Z</time>
      </trkpt>
      <trkpt lat="45.67979" lon="5.80285">
        <ele>439.5</ele>
        <time>2022-04-15T14:17:59Z</time>
      </trkpt>
      <trkpt lat="45.67977" lon="5.80276">
        <ele>439.4</ele>
        <time>2022-04-15T14:18:01Z</time>
      </trkpt>
      <trkpt lat="45.67976" lon="5.80272">
        <ele>439.4</ele>
        <time>2022-04-15T14:18:02Z</time>
      </trkpt>
      <trkpt lat="45.67976" lon="5.80267">
        <ele>439.4</ele>
        <time>2022-04-15T14:18:03Z</time>
      </trkpt>
      <trkpt lat="45.67974" lon="5.80264">
        <ele>439.4</ele>
        <time>2022-04-15T14:18:04Z</time>
      </trkpt>
      <trkpt lat="45.67973" lon="5.80258">
        <ele>439.4</ele>
        <time>2022-04-15T14:18:05Z</time>
      </trkpt>
      <trkpt lat="45.67972" lon="5.80252">
        <ele>439.4</ele>
        <time>2022-04-15T14:18:07Z</time>
      </trkpt>
      <trkpt lat="45.67972" lon="5.80246">
        <ele>439.4</ele>
        <time>2022-04-15T14:18:08Z</time>
      </trkpt>
      <trkpt lat="45.67971" lon="5.80241">
        <ele>439.4</ele>
        <time>2022-04-15T14:18:10Z</time>
      </trkpt>
      <trkpt lat="45.6797" lon="5.8024">
        <ele>439.4</ele>
        <time>2022-04-15T14:18:11Z</time>
      </trkpt>
      <trkpt lat="45.67968" lon="5.80235">
        <ele>439.5</ele>
        <time>2022-04-15T14:18:13Z</time>
      </trkpt>
      <trkpt lat="45.67966" lon="5.80233">
        <ele>439.5</ele>
        <time>2022-04-15T14:18:15Z</time>
      </trkpt>
      <trkpt lat="45.67966" lon="5.80233">
        <ele>439.5</ele>
        <time>2022-04-15T14:18:16Z</time>
      </trkpt>
      <trkpt lat="45.67966" lon="5.80233">
        <ele>439.5</ele>
        <time>2022-04-15T14:18:17Z</time>
      </trkpt>
      <trkpt lat="45.67966" lon="5.80234">
        <ele>439.5</ele>
        <time>2022-04-15T14:18:18Z</time>
      </trkpt>
      <trkpt lat="45.67966" lon="5.80234">
        <ele>439.5</ele>
        <time>2022-04-15T14:18:19Z</time>
      </trkpt>
      <trkpt lat="45.67966" lon="5.80234">
        <ele>439.5</ele>
        <time>2022-04-15T14:18:20Z</time>
      </trkpt>
      <trkpt lat="45.67967" lon="5.80232">
        <ele>439.5</ele>
        <time>2022-04-15T14:18:21Z</time>
      </trkpt>
      <trkpt lat="45.67967" lon="5.80231">
        <ele>439.5</ele>
        <time>2022-04-15T14:18:22Z</time>
      </trkpt>
      <trkpt lat="45.67967" lon="5.80229">
        <ele>439.5</ele>
        <time>2022-04-15T14:18:23Z</time>
      </trkpt>
      <trkpt lat="45.67967" lon="5.80228">
        <ele>439.5</ele>
        <time>2022-04-15T14:18:24Z</time>
      </trkpt>
      <trkpt lat="45.67968" lon="5.80228">
        <ele>439.5</ele>
        <time>2022-04-15T14:18:25Z</time>
      </trkpt>
      <trkpt lat="45.67967" lon="5.80228">
        <ele>439.5</ele>
        <time>2022-04-15T14:18:26Z</time>
      </trkpt>
      <trkpt lat="45.67967" lon="5.80228">
        <ele>439.5</ele>
        <time>2022-04-15T14:18:27Z</time>
      </trkpt>
      <trkpt lat="45.67967" lon="5.80228">
        <ele>439.5</ele>
        <time>2022-04-15T14:18:28Z</time>
      </trkpt>
      <trkpt lat="45.67967" lon="5.80227">
        <ele>439.5</ele>
        <time>2022-04-15T14:18:29Z</time>
      </trkpt>
      <trkpt lat="45.67967" lon="5.80227">
        <ele>439.5</ele>
        <time>2022-04-15T14:18:30Z</time>
      </trkpt>
      <trkpt lat="45.67967" lon="5.80227">
        <ele>439.5</ele>
        <time>2022-04-15T14:18:31Z</time>
      </trkpt>
      <trkpt lat="45.67967" lon="5.80227">
        <ele>439.5</ele>
        <time>2022-04-15T14:18:32Z</time>
      </trkpt>
      <trkpt lat="45.67967" lon="5.80226">
        <ele>439.5</ele>
        <time>2022-04-15T14:18:33Z</time>
      </trkpt>
      <trkpt lat="45.67966" lon="5.80225">
        <ele>439.5</ele>
        <time>2022-04-15T14:18:34Z</time>
      </trkpt>
      <trkpt lat="45.67966" lon="5.80225">
        <ele>439.5</ele>
        <time>2022-04-15T14:18:35Z</time>
      </trkpt>
      <trkpt lat="45.67966" lon="5.80225">
        <ele>439.5</ele>
        <time>2022-04-15T14:18:36Z</time>
      </trkpt>
      <trkpt lat="45.67966" lon="5.80225">
        <ele>439.5</ele>
        <time>2022-04-15T14:18:37Z</time>
      </trkpt>
      <trkpt lat="45.67966" lon="5.80225">
        <ele>439.5</ele>
        <time>2022-04-15T14:18:38Z</time>
      </trkpt>
      <trkpt lat="45.67966" lon="5.80225">
        <ele>439.5</ele>
        <time>2022-04-15T14:18:39Z</time>
      </trkpt>
      <trkpt lat="45.67966" lon="5.80225">
        <ele>439.5</ele>
        <time>2022-04-15T14:18:40Z</time>
      </trkpt>
      <trkpt lat="45.67966" lon="5.80225">
        <ele>439.5</ele>
        <time>2022-04-15T14:18:41Z</time>
      </trkpt>
      <trkpt lat="45.67966" lon="5.80225">
        <ele>439.5</ele>
        <time>2022-04-15T14:18:42Z</time>
      </trkpt>
      <trkpt lat="45.67966" lon="5.80225">
        <ele>439.5</ele>
        <time>2022-04-15T14:18:43Z</time>
      </trkpt>
      <trkpt lat="45.67966" lon="5.80225">
        <ele>439.5</ele>
        <time>2022-04-15T14:18:44Z</time>
      </trkpt>
      <trkpt lat="45.67966" lon="5.80225">
        <ele>439.5</ele>
        <time>2022-04-15T14:18:45Z</time>
      </trkpt>
      <trkpt lat="45.67966" lon="5.80225">
        <ele>439.5</ele>
        <time>2022-04-15T14:18:46Z</time>
      </trkpt>
      <trkpt lat="45.67966" lon="5.80225">
        <ele>439.5</ele>
        <time>2022-04-15T14:18:47Z</time>
      </trkpt>
      <trkpt lat="45.67966" lon="5.80225">
        <ele>439.5</ele>
        <time>2022-04-15T14:18:48Z</time>
      </trkpt>
      <trkpt lat="45.67966" lon="5.80225">
        <ele>439.5</ele>
        <time>2022-04-15T14:18:49Z</time>
      </trkpt>
      <trkpt lat="45.67966" lon="5.80225">
        <ele>439.5</ele>
        <time>2022-04-15T14:18:50Z</time>
      </trkpt>
      <trkpt lat="45.67966" lon="5.80225">
        <ele>439.5</ele>
        <time>2022-04-15T14:18:51Z</time>
      </trkpt>
      <trkpt lat="45.67966" lon="5.80225">
        <ele>439.5</ele>
        <time>2022-04-15T14:18:52Z</time>
      </trkpt>
      <trkpt lat="45.67966" lon="5.80225">
        <ele>439.5</ele>
        <time>2022-04-15T14:18:53Z</time>
      </trkpt>
      <trkpt lat="45.67966" lon="5.80225">
        <ele>439.5</ele>
        <time>2022-04-15T14:18:54Z</time>
      </trkpt>
      <trkpt lat="45.67966" lon="5.80224">
        <ele>439.5</ele>
        <time>2022-04-15T14:18:55Z</time>
      </trkpt>
      <trkpt lat="45.67966" lon="5.80224">
        <ele>439.5</ele>
        <time>2022-04-15T14:18:56Z</time>
      </trkpt>
      <trkpt lat="45.67966" lon="5.80224">
        <ele>439.5</ele>
        <time>2022-04-15T14:18:57Z</time>
      </trkpt>
      <trkpt lat="45.67966" lon="5.80224">
        <ele>439.5</ele>
        <time>2022-04-15T14:18:58Z</time>
      </trkpt>
      <trkpt lat="45.67966" lon="5.80224">
        <ele>439.5</ele>
        <time>2022-04-15T14:18:59Z</time>
      </trkpt>
      <trkpt lat="45.67966" lon="5.80224">
        <ele>439.5</ele>
        <time>2022-04-15T14:19:00Z</time>
      </trkpt>
      <trkpt lat="45.67966" lon="5.80224">
        <ele>439.5</ele>
        <time>2022-04-15T14:19:01Z</time>
      </trkpt>
      <trkpt lat="45.67966" lon="5.80224">
        <ele>439.5</ele>
        <time>2022-04-15T14:19:02Z</time>
      </trkpt>
      <trkpt lat="45.67966" lon="5.80224">
        <ele>439.5</ele>
        <time>2022-04-15T14:19:03Z</time>
      </trkpt>
      <trkpt lat="45.67966" lon="5.80224">
        <ele>439.5</ele>
        <time>2022-04-15T14:19:04Z</time>
      </trkpt>
      <trkpt lat="45.67966" lon="5.80224">
        <ele>439.5</ele>
        <time>2022-04-15T14:19:05Z</time>
      </trkpt>
      <trkpt lat="45.67966" lon="5.80224">
        <ele>439.5</ele>
        <time>2022-04-15T14:19:06Z</time>
      </trkpt>
      <trkpt lat="45.67966" lon="5.80224">
        <ele>439.5</ele>
        <time>2022-04-15T14:19:07Z</time>
      </trkpt>
      <trkpt lat="45.67966" lon="5.80224">
        <ele>439.5</ele>
        <time>2022-04-15T14:19:08Z</time>
      </trkpt>
      <trkpt lat="45.67966" lon="5.80224">
        <ele>439.5</ele>
        <time>2022-04-15T14:19:09Z</time>
      </trkpt>
      <trkpt lat="45.67966" lon="5.80224">
        <ele>439.5</ele>
        <time>2022-04-15T14:19:10Z</time>
      </trkpt>
      <trkpt lat="45.67966" lon="5.80224">
        <ele>439.5</ele>
        <time>2022-04-15T14:19:11Z</time>
      </trkpt>
      <trkpt lat="45.67966" lon="5.80224">
        <ele>439.5</ele>
        <time>2022-04-15T14:19:12Z</time>
      </trkpt>
      <trkpt lat="45.67966" lon="5.80224">
        <ele>439.5</ele>
        <time>2022-04-15T14:19:13Z</time>
      </trkpt>
      <trkpt lat="45.67966" lon="5.80224">
        <ele>439.5</ele>
        <time>2022-04-15T14:19:14Z</time>
      </trkpt>
      <trkpt lat="45.67966" lon="5.80224">
        <ele>439.5</ele>
        <time>2022-04-15T14:19:15Z</time>
      </trkpt>
      <trkpt lat="45.67966" lon="5.80224">
        <ele>439.5</ele>
        <time>2022-04-15T14:19:16Z</time>
      </trkpt>
      <trkpt lat="45.67966" lon="5.80224">
        <ele>439.5</ele>
        <time>2022-04-15T14:19:17Z</time>
      </trkpt>
      <trkpt lat="45.67966" lon="5.80224">
        <ele>439.5</ele>
        <time>2022-04-15T14:19:18Z</time>
      </trkpt>
      <trkpt lat="45.67966" lon="5.80224">
        <ele>439.5</ele>
        <time>2022-04-15T14:19:19Z</time>
      </trkpt>
      <trkpt lat="45.67966" lon="5.80224">
        <ele>439.5</ele>
        <time>2022-04-15T14:19:20Z</time>
      </trkpt>
      <trkpt lat="45.67966" lon="5.80224">
        <ele>439.5</ele>
        <time>2022-04-15T14:19:21Z</time>
      </trkpt>
      <trkpt lat="45.67966" lon="5.80224">
        <ele>439.5</ele>
        <time>2022-04-15T14:19:22Z</time>
      </trkpt>
      <trkpt lat="45.67966" lon="5.80224">
        <ele>439.5</ele>
        <time>2022-04-15T14:19:23Z</time>
      </trkpt>
      <trkpt lat="45.67966" lon="5.80224">
        <ele>439.5</ele>
        <time>2022-04-15T14:19:24Z</time>
      </trkpt>
      <trkpt lat="45.67966" lon="5.80224">
        <ele>439.5</ele>
        <time>2022-04-15T14:19:25Z</time>
      </trkpt>
      <trkpt lat="45.67966" lon="5.80224">
        <ele>439.5</ele>
        <time>2022-04-15T14:19:26Z</time>
      </trkpt>
      <trkpt lat="45.67966" lon="5.80224">
        <ele>439.5</ele>
        <time>2022-04-15T14:19:27Z</time>
      </trkpt>
      <trkpt lat="45.67966" lon="5.80224">
        <ele>439.5</ele>
        <time>2022-04-15T14:19:28Z</time>
      </trkpt>
      <trkpt lat="45.67966" lon="5.80224">
        <ele>439.5</ele>
        <time>2022-04-15T14:19:29Z</time>
      </trkpt>
      <trkpt lat="45.67966" lon="5.80224">
        <ele>439.5</ele>
        <time>2022-04-15T14:19:30Z</time>
      </trkpt>
      <trkpt lat="45.67966" lon="5.80224">
        <ele>439.5</ele>
        <time>2022-04-15T14:19:31Z</time>
      </trkpt>
      <trkpt lat="45.67966" lon="5.80223">
        <ele>439.5</ele>
        <time>2022-04-15T14:19:32Z</time>
      </trkpt>
      <trkpt lat="45.67966" lon="5.80223">
        <ele>439.5</ele>
        <time>2022-04-15T14:19:33Z</time>
      </trkpt>
      <trkpt lat="45.67966" lon="5.80223">
        <ele>439.5</ele>
        <time>2022-04-15T14:19:34Z</time>
      </trkpt>
      <trkpt lat="45.67966" lon="5.80223">
        <ele>439.5</ele>
        <time>2022-04-15T14:19:35Z</time>
      </trkpt>
      <trkpt lat="45.67966" lon="5.80223">
        <ele>439.5</ele>
        <time>2022-04-15T14:19:36Z</time>
      </trkpt>
      <trkpt lat="45.67966" lon="5.80223">
        <ele>439.5</ele>
        <time>2022-04-15T14:19:37Z</time>
      </trkpt>
      <trkpt lat="45.67966" lon="5.80223">
        <ele>439.5</ele>
        <time>2022-04-15T14:19:38Z</time>
      </trkpt>
      <trkpt lat="45.67966" lon="5.80223">
        <ele>439.5</ele>
        <time>2022-04-15T14:19:39Z</time>
      </trkpt>
      <trkpt lat="45.67966" lon="5.80223">
        <ele>439.5</ele>
        <time>2022-04-15T14:19:40Z</time>
      </trkpt>
      <trkpt lat="45.67966" lon="5.80223">
        <ele>439.5</ele>
        <time>2022-04-15T14:19:41Z</time>
      </trkpt>
      <trkpt lat="45.67966" lon="5.80223">
        <ele>439.5</ele>
        <time>2022-04-15T14:19:42Z</time>
      </trkpt>
      <trkpt lat="45.67966" lon="5.80223">
        <ele>439.5</ele>
        <time>2022-04-15T14:19:43Z</time>
      </trkpt>
      <trkpt lat="45.67966" lon="5.80223">
        <ele>439.5</ele>
        <time>2022-04-15T14:19:44Z</time>
      </trkpt>
      <trkpt lat="45.67966" lon="5.80223">
        <ele>439.5</ele>
        <time>2022-04-15T14:19:45Z</time>
      </trkpt>
      <trkpt lat="45.67966" lon="5.80223">
        <ele>439.5</ele>
        <time>2022-04-15T14:19:46Z</time>
      </trkpt>
      <trkpt lat="45.67966" lon="5.80223">
        <ele>439.5</ele>
        <time>2022-04-15T14:19:47Z</time>
      </trkpt>
      <trkpt lat="45.67966" lon="5.80223">
        <ele>439.5</ele>
        <time>2022-04-15T14:19:48Z</time>
      </trkpt>
      <trkpt lat="45.67966" lon="5.80223">
        <ele>439.5</ele>
        <time>2022-04-15T14:19:49Z</time>
      </trkpt>
      <trkpt lat="45.67966" lon="5.80223">
        <ele>439.5</ele>
        <time>2022-04-15T14:19:50Z</time>
      </trkpt>
      <trkpt lat="45.67966" lon="5.80223">
        <ele>439.5</ele>
        <time>2022-04-15T14:19:51Z</time>
      </trkpt>
      <trkpt lat="45.67966" lon="5.80223">
        <ele>439.5</ele>
        <time>2022-04-15T14:19:52Z</time>
      </trkpt>
      <trkpt lat="45.67966" lon="5.80223">
        <ele>439.5</ele>
        <time>2022-04-15T14:19:53Z</time>
      </trkpt>
      <trkpt lat="45.67966" lon="5.80223">
        <ele>439.5</ele>
        <time>2022-04-15T14:19:54Z</time>
      </trkpt>
      <trkpt lat="45.67966" lon="5.80223">
        <ele>439.5</ele>
        <time>2022-04-15T14:19:55Z</time>
      </trkpt>
      <trkpt lat="45.67966" lon="5.80223">
        <ele>439.5</ele>
        <time>2022-04-15T14:19:56Z</time>
      </trkpt>
      <trkpt lat="45.67966" lon="5.80223">
        <ele>439.5</ele>
        <time>2022-04-15T14:19:57Z</time>
      </trkpt>
      <trkpt lat="45.67966" lon="5.80223">
        <ele>439.5</ele>
        <time>2022-04-15T14:19:58Z</time>
      </trkpt>
      <trkpt lat="45.67966" lon="5.80223">
        <ele>439.5</ele>
        <time>2022-04-15T14:19:59Z</time>
      </trkpt>
      <trkpt lat="45.67966" lon="5.80223">
        <ele>439.5</ele>
        <time>2022-04-15T14:20:00Z</time>
      </trkpt>
      <trkpt lat="45.67966" lon="5.80223">
        <ele>439.5</ele>
        <time>2022-04-15T14:20:01Z</time>
      </trkpt>
      <trkpt lat="45.67966" lon="5.80223">
        <ele>439.5</ele>
        <time>2022-04-15T14:20:02Z</time>
      </trkpt>
      <trkpt lat="45.67966" lon="5.80223">
        <ele>439.5</ele>
        <time>2022-04-15T14:20:03Z</time>
      </trkpt>
      <trkpt lat="45.67966" lon="5.80223">
        <ele>439.5</ele>
        <time>2022-04-15T14:20:04Z</time>
      </trkpt>
      <trkpt lat="45.67966" lon="5.80223">
        <ele>439.5</ele>
        <time>2022-04-15T14:20:05Z</time>
      </trkpt>
      <trkpt lat="45.67965" lon="5.80223">
        <ele>439.5</ele>
        <time>2022-04-15T14:20:06Z</time>
      </trkpt>
      <trkpt lat="45.67965" lon="5.80223">
        <ele>439.5</ele>
        <time>2022-04-15T14:20:07Z</time>
      </trkpt>
      <trkpt lat="45.67965" lon="5.80223">
        <ele>439.5</ele>
        <time>2022-04-15T14:20:08Z</time>
      </trkpt>
      <trkpt lat="45.67965" lon="5.80223">
        <ele>439.5</ele>
        <time>2022-04-15T14:20:09Z</time>
      </trkpt>
      <trkpt lat="45.67965" lon="5.80222">
        <ele>439.5</ele>
        <time>2022-04-15T14:20:10Z</time>
      </trkpt>
      <trkpt lat="45.67965" lon="5.80222">
        <ele>439.5</ele>
        <time>2022-04-15T14:20:11Z</time>
      </trkpt>
      <trkpt lat="45.67965" lon="5.80222">
        <ele>439.5</ele>
        <time>2022-04-15T14:20:12Z</time>
      </trkpt>
      <trkpt lat="45.67965" lon="5.80222">
        <ele>439.5</ele>
        <time>2022-04-15T14:20:13Z</time>
      </trkpt>
      <trkpt lat="45.67965" lon="5.80222">
        <ele>439.5</ele>
        <time>2022-04-15T14:20:14Z</time>
      </trkpt>
      <trkpt lat="45.67965" lon="5.80222">
        <ele>439.5</ele>
        <time>2022-04-15T14:20:15Z</time>
      </trkpt>
      <trkpt lat="45.67965" lon="5.80222">
        <ele>439.5</ele>
        <time>2022-04-15T14:20:16Z</time>
      </trkpt>
      <trkpt lat="45.67965" lon="5.80222">
        <ele>439.5</ele>
        <time>2022-04-15T14:20:17Z</time>
      </trkpt>
      <trkpt lat="45.67965" lon="5.80222">
        <ele>439.5</ele>
        <time>2022-04-15T14:20:18Z</time>
      </trkpt>
      <trkpt lat="45.67965" lon="5.80222">
        <ele>439.5</ele>
        <time>2022-04-15T14:20:19Z</time>
      </trkpt>
      <trkpt lat="45.67965" lon="5.80222">
        <ele>439.5</ele>
        <time>2022-04-15T14:20:20Z</time>
      </trkpt>
      <trkpt lat="45.67965" lon="5.80222">
        <ele>439.5</ele>
        <time>2022-04-15T14:20:21Z</time>
      </trkpt>
      <trkpt lat="45.67965" lon="5.80222">
        <ele>439.5</ele>
        <time>2022-04-15T14:20:22Z</time>
      </trkpt>
      <trkpt lat="45.67965" lon="5.80222">
        <ele>439.5</ele>
        <time>2022-04-15T14:20:23Z</time>
      </trkpt>
      <trkpt lat="45.67965" lon="5.80222">
        <ele>439.5</ele>
        <time>2022-04-15T14:20:24Z</time>
      </trkpt>
      <trkpt lat="45.67965" lon="5.80222">
        <ele>439.5</ele>
        <time>2022-04-15T14:20:25Z</time>
      </trkpt>
      <trkpt lat="45.67965" lon="5.80222">
        <ele>439.5</ele>
        <time>2022-04-15T14:20:26Z</time>
      </trkpt>
      <trkpt lat="45.67965" lon="5.80222">
        <ele>439.5</ele>
        <time>2022-04-15T14:20:27Z</time>
      </trkpt>
      <trkpt lat="45.67965" lon="5.80222">
        <ele>439.5</ele>
        <time>2022-04-15T14:20:28Z</time>
      </trkpt>
      <trkpt lat="45.67965" lon="5.80222">
        <ele>439.5</ele>
        <time>2022-04-15T14:20:29Z</time>
      </trkpt>
      <trkpt lat="45.67965" lon="5.80222">
        <ele>439.5</ele>
        <time>2022-04-15T14:20:30Z</time>
      </trkpt>
      <trkpt lat="45.67965" lon="5.80222">
        <ele>439.5</ele>
        <time>2022-04-15T14:20:31Z</time>
      </trkpt>
      <trkpt lat="45.67965" lon="5.80222">
        <ele>439.5</ele>
        <time>2022-04-15T14:20:32Z</time>
      </trkpt>
      <trkpt lat="45.67965" lon="5.80222">
        <ele>439.5</ele>
        <time>2022-04-15T14:20:33Z</time>
      </trkpt>
      <trkpt lat="45.67965" lon="5.80222">
        <ele>439.5</ele>
        <time>2022-04-15T14:20:34Z</time>
      </trkpt>
      <trkpt lat="45.67965" lon="5.80222">
        <ele>439.5</ele>
        <time>2022-04-15T14:20:35Z</time>
      </trkpt>
      <trkpt lat="45.67965" lon="5.80222">
        <ele>439.5</ele>
        <time>2022-04-15T14:20:36Z</time>
      </trkpt>
      <trkpt lat="45.67965" lon="5.80222">
        <ele>439.5</ele>
        <time>2022-04-15T14:20:37Z</time>
      </trkpt>
      <trkpt lat="45.67965" lon="5.80222">
        <ele>439.5</ele>
        <time>2022-04-15T14:20:38Z</time>
      </trkpt>
      <trkpt lat="45.67965" lon="5.80222">
        <ele>439.5</ele>
        <time>2022-04-15T14:20:39Z</time>
      </trkpt>
      <trkpt lat="45.67965" lon="5.80222">
        <ele>439.5</ele>
        <time>2022-04-15T14:20:40Z</time>
      </trkpt>
      <trkpt lat="45.67965" lon="5.80222">
        <ele>439.5</ele>
        <time>2022-04-15T14:20:41Z</time>
      </trkpt>
      <trkpt lat="45.67965" lon="5.80222">
        <ele>439.5</ele>
        <time>2022-04-15T14:20:42Z</time>
      </trkpt>
      <trkpt lat="45.67965" lon="5.80222">
        <ele>439.5</ele>
        <time>2022-04-15T14:20:43Z</time>
      </trkpt>
      <trkpt lat="45.67965" lon="5.80222">
        <ele>439.5</ele>
        <time>2022-04-15T14:20:44Z</time>
      </trkpt>
      <trkpt lat="45.67965" lon="5.80222">
        <ele>439.5</ele>
        <time>2022-04-15T14:20:45Z</time>
      </trkpt>
      <trkpt lat="45.67965" lon="5.80222">
        <ele>439.5</ele>
        <time>2022-04-15T14:20:46Z</time>
      </trkpt>
      <trkpt lat="45.67965" lon="5.80221">
        <ele>439.5</ele>
        <time>2022-04-15T14:20:47Z</time>
      </trkpt>
      <trkpt lat="45.67965" lon="5.80221">
        <ele>439.5</ele>
        <time>2022-04-15T14:20:48Z</time>
      </trkpt>
      <trkpt lat="45.67964" lon="5.80219">
        <ele>439.5</ele>
        <time>2022-04-15T14:20:49Z</time>
      </trkpt>
      <trkpt lat="45.67963" lon="5.80219">
        <ele>439.5</ele>
        <time>2022-04-15T14:20:50Z</time>
      </trkpt>
      <trkpt lat="45.67963" lon="5.80218">
        <ele>439.5</ele>
        <time>2022-04-15T14:20:51Z</time>
      </trkpt>
      <trkpt lat="45.67962" lon="5.80217">
        <ele>439.5</ele>
        <time>2022-04-15T14:20:52Z</time>
      </trkpt>
      <trkpt lat="45.67961" lon="5.80215">
        <ele>439.5</ele>
        <time>2022-04-15T14:20:53Z</time>
      </trkpt>
      <trkpt lat="45.67961" lon="5.80214">
        <ele>439.5</ele>
        <time>2022-04-15T14:20:54Z</time>
      </trkpt>
      <trkpt lat="45.67961" lon="5.80214">
        <ele>439.5</ele>
        <time>2022-04-15T14:20:55Z</time>
      </trkpt>
      <trkpt lat="45.6796" lon="5.80214">
        <ele>439.5</ele>
        <time>2022-04-15T14:20:57Z</time>
      </trkpt>
      <trkpt lat="45.6796" lon="5.80213">
        <ele>439.5</ele>
        <time>2022-04-15T14:20:58Z</time>
      </trkpt>
      <trkpt lat="45.6796" lon="5.80212">
        <ele>439.5</ele>
        <time>2022-04-15T14:21:00Z</time>
      </trkpt>
      <trkpt lat="45.67961" lon="5.80212">
        <ele>439.5</ele>
        <time>2022-04-15T14:21:01Z</time>
      </trkpt>
      <trkpt lat="45.67961" lon="5.80212">
        <ele>439.5</ele>
        <time>2022-04-15T14:21:02Z</time>
      </trkpt>
      <trkpt lat="45.67962" lon="5.80214">
        <ele>439.6</ele>
        <time>2022-04-15T14:21:03Z</time>
      </trkpt>
      <trkpt lat="45.67963" lon="5.80215">
        <ele>439.6</ele>
        <time>2022-04-15T14:21:05Z</time>
      </trkpt>
      <trkpt lat="45.67963" lon="5.80217">
        <ele>439.6</ele>
        <time>2022-04-15T14:21:06Z</time>
      </trkpt>
      <trkpt lat="45.67965" lon="5.80223">
        <ele>439.6</ele>
        <time>2022-04-15T14:21:08Z</time>
      </trkpt>
      <trkpt lat="45.67965" lon="5.80226">
        <ele>439.6</ele>
        <time>2022-04-15T14:21:10Z</time>
      </trkpt>
      <trkpt lat="45.67966" lon="5.80229">
        <ele>439.6</ele>
        <time>2022-04-15T14:21:12Z</time>
      </trkpt>
      <trkpt lat="45.67967" lon="5.80232">
        <ele>439.6</ele>
        <time>2022-04-15T14:21:14Z</time>
      </trkpt>
      <trkpt lat="45.67967" lon="5.80234">
        <ele>439.7</ele>
        <time>2022-04-15T14:21:15Z</time>
      </trkpt>
      <trkpt lat="45.67966" lon="5.80235">
        <ele>439.7</ele>
        <time>2022-04-15T14:21:16Z</time>
      </trkpt>
      <trkpt lat="45.67966" lon="5.80236">
        <ele>439.7</ele>
        <time>2022-04-15T14:21:17Z</time>
      </trkpt>
      <trkpt lat="45.67965" lon="5.80236">
        <ele>440.1</ele>
        <time>2022-04-15T14:21:18Z</time>
      </trkpt>
      <trkpt lat="45.67962" lon="5.80237">
        <ele>440.2</ele>
        <time>2022-04-15T14:21:20Z</time>
      </trkpt>
      <trkpt lat="45.67962" lon="5.80238">
        <ele>440.5</ele>
        <time>2022-04-15T14:21:21Z</time>
      </trkpt>
      <trkpt lat="45.67961" lon="5.80238">
        <ele>440.5</ele>
        <time>2022-04-15T14:21:22Z</time>
      </trkpt>
      <trkpt lat="45.6796" lon="5.80241">
        <ele>440.5</ele>
        <time>2022-04-15T14:21:23Z</time>
      </trkpt>
      <trkpt lat="45.67959" lon="5.80242">
        <ele>440.6</ele>
        <time>2022-04-15T14:21:25Z</time>
      </trkpt>
      <trkpt lat="45.67959" lon="5.80243">
        <ele>440.9</ele>
        <time>2022-04-15T14:21:26Z</time>
      </trkpt>
      <trkpt lat="45.67958" lon="5.80244">
        <ele>440.9</ele>
        <time>2022-04-15T14:21:27Z</time>
      </trkpt>
      <trkpt lat="45.67958" lon="5.80245">
        <ele>440.9</ele>
        <time>2022-04-15T14:21:28Z</time>
      </trkpt>
      <trkpt lat="45.67957" lon="5.80247">
        <ele>441</ele>
        <time>2022-04-15T14:21:29Z</time>
      </trkpt>
      <trkpt lat="45.67956" lon="5.80249">
        <ele>441.3</ele>
        <time>2022-04-15T14:21:31Z</time>
      </trkpt>
      <trkpt lat="45.67955" lon="5.80251">
        <ele>441.4</ele>
        <time>2022-04-15T14:21:32Z</time>
      </trkpt>
      <trkpt lat="45.67954" lon="5.80253">
        <ele>441.4</ele>
        <time>2022-04-15T14:21:33Z</time>
      </trkpt>
      <trkpt lat="45.67954" lon="5.80254">
        <ele>441.5</ele>
        <time>2022-04-15T14:21:35Z</time>
      </trkpt>
      <trkpt lat="45.67953" lon="5.80255">
        <ele>441.5</ele>
        <time>2022-04-15T14:21:36Z</time>
      </trkpt>
      <trkpt lat="45.67952" lon="5.80258">
        <ele>441.7</ele>
        <time>2022-04-15T14:21:38Z</time>
      </trkpt>
      <trkpt lat="45.67952" lon="5.80259">
        <ele>441.8</ele>
        <time>2022-04-15T14:21:39Z</time>
      </trkpt>
      <trkpt lat="45.67951" lon="5.8026">
        <ele>441.8</ele>
        <time>2022-04-15T14:21:40Z</time>
      </trkpt>
      <trkpt lat="45.6795" lon="5.80262">
        <ele>441.8</ele>
        <time>2022-04-15T14:21:42Z</time>
      </trkpt>
      <trkpt lat="45.6795" lon="5.80263">
        <ele>442</ele>
        <time>2022-04-15T14:21:43Z</time>
      </trkpt>
      <trkpt lat="45.67948" lon="5.80266">
        <ele>442</ele>
        <time>2022-04-15T14:21:44Z</time>
      </trkpt>
      <trkpt lat="45.67948" lon="5.80266">
        <ele>442</ele>
        <time>2022-04-15T14:21:45Z</time>
      </trkpt>
      <trkpt lat="45.67948" lon="5.80267">
        <ele>442</ele>
        <time>2022-04-15T14:21:46Z</time>
      </trkpt>
      <trkpt lat="45.67947" lon="5.80269">
        <ele>442.2</ele>
        <time>2022-04-15T14:21:48Z</time>
      </trkpt>
      <trkpt lat="45.67945" lon="5.80271">
        <ele>442.2</ele>
        <time>2022-04-15T14:21:49Z</time>
      </trkpt>
      <trkpt lat="45.67944" lon="5.80273">
        <ele>442.2</ele>
        <time>2022-04-15T14:21:51Z</time>
      </trkpt>
      <trkpt lat="45.67944" lon="5.80274">
        <ele>442.4</ele>
        <time>2022-04-15T14:21:52Z</time>
      </trkpt>
      <trkpt lat="45.67943" lon="5.80275">
        <ele>442.4</ele>
        <time>2022-04-15T14:21:53Z</time>
      </trkpt>
      <trkpt lat="45.67942" lon="5.80276">
        <ele>442.4</ele>
        <time>2022-04-15T14:21:54Z</time>
      </trkpt>
      <trkpt lat="45.67941" lon="5.80277">
        <ele>442.4</ele>
        <time>2022-04-15T14:21:55Z</time>
      </trkpt>
      <trkpt lat="45.6794" lon="5.80278">
        <ele>442.5</ele>
        <time>2022-04-15T14:21:57Z</time>
      </trkpt>
      <trkpt lat="45.67939" lon="5.80279">
        <ele>442.5</ele>
        <time>2022-04-15T14:21:58Z</time>
      </trkpt>
      <trkpt lat="45.67939" lon="5.8028">
        <ele>442.5</ele>
        <time>2022-04-15T14:21:59Z</time>
      </trkpt>
      <trkpt lat="45.67938" lon="5.80282">
        <ele>442.5</ele>
        <time>2022-04-15T14:22:00Z</time>
      </trkpt>
      <trkpt lat="45.67938" lon="5.80284">
        <ele>442.6</ele>
        <time>2022-04-15T14:22:02Z</time>
      </trkpt>
      <trkpt lat="45.67937" lon="5.80284">
        <ele>442.6</ele>
        <time>2022-04-15T14:22:03Z</time>
      </trkpt>
      <trkpt lat="45.67937" lon="5.80285">
        <ele>442.6</ele>
        <time>2022-04-15T14:22:04Z</time>
      </trkpt>
      <trkpt lat="45.67936" lon="5.80286">
        <ele>442.6</ele>
        <time>2022-04-15T14:22:05Z</time>
      </trkpt>
      <trkpt lat="45.67935" lon="5.80287">
        <ele>442.6</ele>
        <time>2022-04-15T14:22:06Z</time>
      </trkpt>
      <trkpt lat="45.67934" lon="5.80287">
        <ele>442.6</ele>
        <time>2022-04-15T14:22:07Z</time>
      </trkpt>
      <trkpt lat="45.67933" lon="5.80288">
        <ele>442.6</ele>
        <time>2022-04-15T14:22:08Z</time>
      </trkpt>
      <trkpt lat="45.67933" lon="5.80287">
        <ele>442.6</ele>
        <time>2022-04-15T14:22:09Z</time>
      </trkpt>
      <trkpt lat="45.67931" lon="5.80287">
        <ele>442.7</ele>
        <time>2022-04-15T14:22:10Z</time>
      </trkpt>
      <trkpt lat="45.67929" lon="5.80288">
        <ele>442.7</ele>
        <time>2022-04-15T14:22:11Z</time>
      </trkpt>
      <trkpt lat="45.67928" lon="5.80288">
        <ele>442.7</ele>
        <time>2022-04-15T14:22:12Z</time>
      </trkpt>
      <trkpt lat="45.67926" lon="5.80287">
        <ele>442.7</ele>
        <time>2022-04-15T14:22:14Z</time>
      </trkpt>
      <trkpt lat="45.67925" lon="5.80287">
        <ele>442.8</ele>
        <time>2022-04-15T14:22:15Z</time>
      </trkpt>
      <trkpt lat="45.67923" lon="5.80286">
        <ele>442.8</ele>
        <time>2022-04-15T14:22:17Z</time>
      </trkpt>
      <trkpt lat="45.67922" lon="5.80285">
        <ele>442.9</ele>
        <time>2022-04-15T14:22:18Z</time>
      </trkpt>
      <trkpt lat="45.67921" lon="5.80285">
        <ele>442.9</ele>
        <time>2022-04-15T14:22:19Z</time>
      </trkpt>
      <trkpt lat="45.67921" lon="5.80284">
        <ele>442.9</ele>
        <time>2022-04-15T14:22:20Z</time>
      </trkpt>
      <trkpt lat="45.6792" lon="5.80283">
        <ele>443</ele>
        <time>2022-04-15T14:22:21Z</time>
      </trkpt>
      <trkpt lat="45.67919" lon="5.80282">
        <ele>443</ele>
        <time>2022-04-15T14:22:22Z</time>
      </trkpt>
      <trkpt lat="45.67919" lon="5.80282">
        <ele>443</ele>
        <time>2022-04-15T14:22:24Z</time>
      </trkpt>
      <trkpt lat="45.67919" lon="5.80282">
        <ele>443</ele>
        <time>2022-04-15T14:22:25Z</time>
      </trkpt>
      <trkpt lat="45.67919" lon="5.80282">
        <ele>443</ele>
        <time>2022-04-15T14:22:26Z</time>
      </trkpt>
      <trkpt lat="45.67919" lon="5.80283">
        <ele>443</ele>
        <time>2022-04-15T14:22:27Z</time>
      </trkpt>
      <trkpt lat="45.67918" lon="5.80283">
        <ele>443</ele>
        <time>2022-04-15T14:22:28Z</time>
      </trkpt>
      <trkpt lat="45.67918" lon="5.80283">
        <ele>443</ele>
        <time>2022-04-15T14:22:29Z</time>
      </trkpt>
      <trkpt lat="45.67918" lon="5.80283">
        <ele>443</ele>
        <time>2022-04-15T14:22:30Z</time>
      </trkpt>
      <trkpt lat="45.67918" lon="5.80283">
        <ele>443</ele>
        <time>2022-04-15T14:22:31Z</time>
      </trkpt>
      <trkpt lat="45.67917" lon="5.80283">
        <ele>443</ele>
        <time>2022-04-15T14:22:32Z</time>
      </trkpt>
      <trkpt lat="45.67917" lon="5.80283">
        <ele>443</ele>
        <time>2022-04-15T14:22:33Z</time>
      </trkpt>
      <trkpt lat="45.67917" lon="5.80283">
        <ele>443.1</ele>
        <time>2022-04-15T14:22:34Z</time>
      </trkpt>
      <trkpt lat="45.67917" lon="5.80283">
        <ele>443.1</ele>
        <time>2022-04-15T14:22:35Z</time>
      </trkpt>
      <trkpt lat="45.67917" lon="5.80283">
        <ele>443.1</ele>
        <time>2022-04-15T14:22:36Z</time>
      </trkpt>
      <trkpt lat="45.67917" lon="5.80283">
        <ele>443.1</ele>
        <time>2022-04-15T14:22:37Z</time>
      </trkpt>
      <trkpt lat="45.67917" lon="5.80283">
        <ele>443.1</ele>
        <time>2022-04-15T14:22:38Z</time>
      </trkpt>
      <trkpt lat="45.67916" lon="5.80283">
        <ele>443.1</ele>
        <time>2022-04-15T14:22:39Z</time>
      </trkpt>
      <trkpt lat="45.67916" lon="5.80283">
        <ele>443.1</ele>
        <time>2022-04-15T14:22:40Z</time>
      </trkpt>
      <trkpt lat="45.67917" lon="5.80283">
        <ele>443.1</ele>
        <time>2022-04-15T14:22:41Z</time>
      </trkpt>
      <trkpt lat="45.67917" lon="5.80283">
        <ele>443.1</ele>
        <time>2022-04-15T14:22:42Z</time>
      </trkpt>
      <trkpt lat="45.67917" lon="5.80283">
        <ele>443.1</ele>
        <time>2022-04-15T14:22:43Z</time>
      </trkpt>
      <trkpt lat="45.67917" lon="5.80283">
        <ele>443.1</ele>
        <time>2022-04-15T14:22:44Z</time>
      </trkpt>
      <trkpt lat="45.67917" lon="5.80283">
        <ele>443.1</ele>
        <time>2022-04-15T14:22:45Z</time>
      </trkpt>
      <trkpt lat="45.67917" lon="5.80283">
        <ele>443.1</ele>
        <time>2022-04-15T14:22:46Z</time>
      </trkpt>
      <trkpt lat="45.67916" lon="5.80283">
        <ele>443.1</ele>
        <time>2022-04-15T14:22:47Z</time>
      </trkpt>
      <trkpt lat="45.67916" lon="5.80283">
        <ele>443.1</ele>
        <time>2022-04-15T14:22:48Z</time>
      </trkpt>
      <trkpt lat="45.67916" lon="5.80283">
        <ele>443.1</ele>
        <time>2022-04-15T14:22:49Z</time>
      </trkpt>
      <trkpt lat="45.67917" lon="5.80283">
        <ele>443.1</ele>
        <time>2022-04-15T14:22:50Z</time>
      </trkpt>
      <trkpt lat="45.67917" lon="5.80283">
        <ele>443.1</ele>
        <time>2022-04-15T14:22:51Z</time>
      </trkpt>
      <trkpt lat="45.67917" lon="5.80283">
        <ele>443.1</ele>
        <time>2022-04-15T14:22:52Z</time>
      </trkpt>
      <trkpt lat="45.67917" lon="5.80283">
        <ele>443.1</ele>
        <time>2022-04-15T14:22:53Z</time>
      </trkpt>
      <trkpt lat="45.67917" lon="5.80283">
        <ele>443.1</ele>
        <time>2022-04-15T14:22:54Z</time>
      </trkpt>
      <trkpt lat="45.67917" lon="5.80283">
        <ele>443.1</ele>
        <time>2022-04-15T14:22:55Z</time>
      </trkpt>
      <trkpt lat="45.67917" lon="5.80283">
        <ele>443.1</ele>
        <time>2022-04-15T14:22:56Z</time>
      </trkpt>
      <trkpt lat="45.67917" lon="5.80283">
        <ele>443.1</ele>
        <time>2022-04-15T14:22:57Z</time>
      </trkpt>
      <trkpt lat="45.67917" lon="5.80283">
        <ele>443.1</ele>
        <time>2022-04-15T14:22:58Z</time>
      </trkpt>
      <trkpt lat="45.67917" lon="5.80283">
        <ele>443.1</ele>
        <time>2022-04-15T14:22:59Z</time>
      </trkpt>
      <trkpt lat="45.67917" lon="5.80283">
        <ele>443.1</ele>
        <time>2022-04-15T14:23:00Z</time>
      </trkpt>
      <trkpt lat="45.67917" lon="5.80283">
        <ele>443.1</ele>
        <time>2022-04-15T14:23:01Z</time>
      </trkpt>
      <trkpt lat="45.67917" lon="5.80283">
        <ele>443.1</ele>
        <time>2022-04-15T14:23:02Z</time>
      </trkpt>
      <trkpt lat="45.67917" lon="5.80283">
        <ele>443.1</ele>
        <time>2022-04-15T14:23:03Z</time>
      </trkpt>
      <trkpt lat="45.67917" lon="5.80283">
        <ele>443.1</ele>
        <time>2022-04-15T14:23:04Z</time>
      </trkpt>
      <trkpt lat="45.67917" lon="5.80283">
        <ele>443.1</ele>
        <time>2022-04-15T14:23:05Z</time>
      </trkpt>
      <trkpt lat="45.67917" lon="5.80283">
        <ele>443.1</ele>
        <time>2022-04-15T14:23:06Z</time>
      </trkpt>
      <trkpt lat="45.67917" lon="5.80283">
        <ele>443.1</ele>
        <time>2022-04-15T14:23:07Z</time>
      </trkpt>
      <trkpt lat="45.67917" lon="5.80283">
        <ele>443.1</ele>
        <time>2022-04-15T14:23:08Z</time>
      </trkpt>
      <trkpt lat="45.67917" lon="5.80283">
        <ele>443.1</ele>
        <time>2022-04-15T14:23:09Z</time>
      </trkpt>
      <trkpt lat="45.67917" lon="5.80283">
        <ele>443.1</ele>
        <time>2022-04-15T14:23:10Z</time>
      </trkpt>
      <trkpt lat="45.67917" lon="5.80283">
        <ele>443.1</ele>
        <time>2022-04-15T14:23:11Z</time>
      </trkpt>
      <trkpt lat="45.67917" lon="5.80283">
        <ele>443.1</ele>
        <time>2022-04-15T14:23:12Z</time>
      </trkpt>
      <trkpt lat="45.67917" lon="5.80283">
        <ele>443.1</ele>
        <time>2022-04-15T14:23:13Z</time>
      </trkpt>
      <trkpt lat="45.67917" lon="5.80283">
        <ele>443.1</ele>
        <time>2022-04-15T14:23:14Z</time>
      </trkpt>
      <trkpt lat="45.67917" lon="5.80283">
        <ele>443.1</ele>
        <time>2022-04-15T14:23:15Z</time>
      </trkpt>
      <trkpt lat="45.67917" lon="5.80283">
        <ele>443.1</ele>
        <time>2022-04-15T14:23:16Z</time>
      </trkpt>
      <trkpt lat="45.67917" lon="5.80283">
        <ele>443.1</ele>
        <time>2022-04-15T14:23:17Z</time>
      </trkpt>
      <trkpt lat="45.67917" lon="5.80283">
        <ele>443.1</ele>
        <time>2022-04-15T14:23:18Z</time>
      </trkpt>
      <trkpt lat="45.67916" lon="5.80283">
        <ele>443.1</ele>
        <time>2022-04-15T14:23:19Z</time>
      </trkpt>
      <trkpt lat="45.67916" lon="5.80283">
        <ele>443.1</ele>
        <time>2022-04-15T14:23:20Z</time>
      </trkpt>
      <trkpt lat="45.67916" lon="5.80283">
        <ele>443.1</ele>
        <time>2022-04-15T14:23:21Z</time>
      </trkpt>
      <trkpt lat="45.67916" lon="5.80283">
        <ele>443.1</ele>
        <time>2022-04-15T14:23:22Z</time>
      </trkpt>
      <trkpt lat="45.67916" lon="5.80283">
        <ele>443.1</ele>
        <time>2022-04-15T14:23:23Z</time>
      </trkpt>
      <trkpt lat="45.67916" lon="5.80283">
        <ele>443.1</ele>
        <time>2022-04-15T14:23:24Z</time>
      </trkpt>
      <trkpt lat="45.67916" lon="5.80283">
        <ele>443.1</ele>
        <time>2022-04-15T14:23:25Z</time>
      </trkpt>
      <trkpt lat="45.67916" lon="5.80283">
        <ele>443.1</ele>
        <time>2022-04-15T14:23:26Z</time>
      </trkpt>
      <trkpt lat="45.67916" lon="5.80283">
        <ele>443.1</ele>
        <time>2022-04-15T14:23:27Z</time>
      </trkpt>
      <trkpt lat="45.67916" lon="5.80283">
        <ele>443.1</ele>
        <time>2022-04-15T14:23:28Z</time>
      </trkpt>
      <trkpt lat="45.67916" lon="5.80283">
        <ele>443.1</ele>
        <time>2022-04-15T14:23:29Z</time>
      </trkpt>
      <trkpt lat="45.67916" lon="5.80283">
        <ele>443.1</ele>
        <time>2022-04-15T14:23:30Z</time>
      </trkpt>
      <trkpt lat="45.67917" lon="5.80283">
        <ele>443.1</ele>
        <time>2022-04-15T14:23:31Z</time>
      </trkpt>
      <trkpt lat="45.67917" lon="5.80283">
        <ele>443.1</ele>
        <time>2022-04-15T14:23:32Z</time>
      </trkpt>
      <trkpt lat="45.67917" lon="5.80283">
        <ele>443.1</ele>
        <time>2022-04-15T14:23:33Z</time>
      </trkpt>
      <trkpt lat="45.67917" lon="5.80283">
        <ele>443.1</ele>
        <time>2022-04-15T14:23:34Z</time>
      </trkpt>
      <trkpt lat="45.67917" lon="5.80283">
        <ele>443.1</ele>
        <time>2022-04-15T14:23:35Z</time>
      </trkpt>
      <trkpt lat="45.67916" lon="5.80283">
        <ele>443.1</ele>
        <time>2022-04-15T14:23:36Z</time>
      </trkpt>
      <trkpt lat="45.67916" lon="5.80283">
        <ele>443.1</ele>
        <time>2022-04-15T14:23:37Z</time>
      </trkpt>
      <trkpt lat="45.67916" lon="5.80283">
        <ele>443.1</ele>
        <time>2022-04-15T14:23:38Z</time>
      </trkpt>
      <trkpt lat="45.67916" lon="5.80283">
        <ele>443.1</ele>
        <time>2022-04-15T14:23:39Z</time>
      </trkpt>
      <trkpt lat="45.67917" lon="5.80283">
        <ele>443.1</ele>
        <time>2022-04-15T14:23:40Z</time>
      </trkpt>
      <trkpt lat="45.67917" lon="5.80283">
        <ele>443.1</ele>
        <time>2022-04-15T14:23:41Z</time>
      </trkpt>
      <trkpt lat="45.67916" lon="5.80283">
        <ele>443.1</ele>
        <time>2022-04-15T14:23:42Z</time>
      </trkpt>
      <trkpt lat="45.67916" lon="5.80283">
        <ele>443.1</ele>
        <time>2022-04-15T14:23:43Z</time>
      </trkpt>
      <trkpt lat="45.67916" lon="5.80283">
        <ele>443.1</ele>
        <time>2022-04-15T14:23:44Z</time>
      </trkpt>
      <trkpt lat="45.67916" lon="5.80283">
        <ele>443.1</ele>
        <time>2022-04-15T14:23:45Z</time>
      </trkpt>
      <trkpt lat="45.67916" lon="5.80283">
        <ele>443.1</ele>
        <time>2022-04-15T14:23:46Z</time>
      </trkpt>
      <trkpt lat="45.67916" lon="5.80283">
        <ele>443.1</ele>
        <time>2022-04-15T14:23:47Z</time>
      </trkpt>
      <trkpt lat="45.67916" lon="5.80283">
        <ele>443.1</ele>
        <time>2022-04-15T14:23:48Z</time>
      </trkpt>
      <trkpt lat="45.67916" lon="5.80283">
        <ele>443.1</ele>
        <time>2022-04-15T14:23:49Z</time>
      </trkpt>
      <trkpt lat="45.67916" lon="5.80283">
        <ele>443.1</ele>
        <time>2022-04-15T14:23:50Z</time>
      </trkpt>
      <trkpt lat="45.67916" lon="5.80283">
        <ele>443.1</ele>
        <time>2022-04-15T14:23:51Z</time>
      </trkpt>
      <trkpt lat="45.67916" lon="5.80283">
        <ele>443.1</ele>
        <time>2022-04-15T14:23:52Z</time>
      </trkpt>
      <trkpt lat="45.67916" lon="5.80283">
        <ele>443.1</ele>
        <time>2022-04-15T14:23:53Z</time>
      </trkpt>
      <trkpt lat="45.67916" lon="5.80283">
        <ele>443.1</ele>
        <time>2022-04-15T14:23:54Z</time>
      </trkpt>
      <trkpt lat="45.67916" lon="5.80283">
        <ele>443.1</ele>
        <time>2022-04-15T14:23:55Z</time>
      </trkpt>
      <trkpt lat="45.67916" lon="5.80283">
        <ele>443.1</ele>
        <time>2022-04-15T14:23:56Z</time>
      </trkpt>
      <trkpt lat="45.67917" lon="5.80283">
        <ele>443.1</ele>
        <time>2022-04-15T14:23:57Z</time>
      </trkpt>
      <trkpt lat="45.67917" lon="5.80283">
        <ele>443.1</ele>
        <time>2022-04-15T14:23:58Z</time>
      </trkpt>
      <trkpt lat="45.67917" lon="5.80283">
        <ele>443.1</ele>
        <time>2022-04-15T14:23:59Z</time>
      </trkpt>
      <trkpt lat="45.67917" lon="5.80283">
        <ele>443.1</ele>
        <time>2022-04-15T14:24:00Z</time>
      </trkpt>
      <trkpt lat="45.67917" lon="5.80283">
        <ele>443.1</ele>
        <time>2022-04-15T14:24:01Z</time>
      </trkpt>
      <trkpt lat="45.67917" lon="5.80283">
        <ele>443.1</ele>
        <time>2022-04-15T14:24:02Z</time>
      </trkpt>
      <trkpt lat="45.67917" lon="5.80283">
        <ele>443.1</ele>
        <time>2022-04-15T14:24:03Z</time>
      </trkpt>
      <trkpt lat="45.67917" lon="5.80283">
        <ele>443.1</ele>
        <time>2022-04-15T14:24:04Z</time>
      </trkpt>
      <trkpt lat="45.67917" lon="5.80283">
        <ele>443.1</ele>
        <time>2022-04-15T14:24:05Z</time>
      </trkpt>
      <trkpt lat="45.67917" lon="5.80283">
        <ele>443.1</ele>
        <time>2022-04-15T14:24:06Z</time>
      </trkpt>
      <trkpt lat="45.67917" lon="5.80283">
        <ele>443.1</ele>
        <time>2022-04-15T14:24:07Z</time>
      </trkpt>
      <trkpt lat="45.67917" lon="5.80283">
        <ele>443.1</ele>
        <time>2022-04-15T14:24:08Z</time>
      </trkpt>
      <trkpt lat="45.67917" lon="5.80283">
        <ele>443.1</ele>
        <time>2022-04-15T14:24:09Z</time>
      </trkpt>
      <trkpt lat="45.67917" lon="5.80283">
        <ele>443.1</ele>
        <time>2022-04-15T14:24:10Z</time>
      </trkpt>
      <trkpt lat="45.67917" lon="5.80283">
        <ele>443.1</ele>
        <time>2022-04-15T14:24:11Z</time>
      </trkpt>
      <trkpt lat="45.67917" lon="5.80283">
        <ele>443.1</ele>
        <time>2022-04-15T14:24:12Z</time>
      </trkpt>
      <trkpt lat="45.67917" lon="5.80283">
        <ele>443.1</ele>
        <time>2022-04-15T14:24:13Z</time>
      </trkpt>
      <trkpt lat="45.67917" lon="5.80283">
        <ele>443.1</ele>
        <time>2022-04-15T14:24:14Z</time>
      </trkpt>
      <trkpt lat="45.67917" lon="5.80283">
        <ele>443.1</ele>
        <time>2022-04-15T14:24:15Z</time>
      </trkpt>
      <trkpt lat="45.67917" lon="5.80283">
        <ele>443.1</ele>
        <time>2022-04-15T14:24:16Z</time>
      </trkpt>
      <trkpt lat="45.67917" lon="5.80283">
        <ele>443.1</ele>
        <time>2022-04-15T14:24:17Z</time>
      </trkpt>
      <trkpt lat="45.67917" lon="5.80283">
        <ele>443.1</ele>
        <time>2022-04-15T14:24:18Z</time>
      </trkpt>
      <trkpt lat="45.67917" lon="5.80283">
        <ele>443.1</ele>
        <time>2022-04-15T14:24:19Z</time>
      </trkpt>
      <trkpt lat="45.67917" lon="5.80283">
        <ele>443.1</ele>
        <time>2022-04-15T14:24:20Z</time>
      </trkpt>
      <trkpt lat="45.67917" lon="5.80283">
        <ele>443.1</ele>
        <time>2022-04-15T14:24:21Z</time>
      </trkpt>
      <trkpt lat="45.67917" lon="5.80283">
        <ele>443.1</ele>
        <time>2022-04-15T14:24:22Z</time>
      </trkpt>
      <trkpt lat="45.67917" lon="5.80283">
        <ele>443.1</ele>
        <time>2022-04-15T14:24:23Z</time>
      </trkpt>
      <trkpt lat="45.67917" lon="5.80283">
        <ele>443.1</ele>
        <time>2022-04-15T14:24:24Z</time>
      </trkpt>
      <trkpt lat="45.67917" lon="5.80283">
        <ele>443.1</ele>
        <time>2022-04-15T14:24:25Z</time>
      </trkpt>
      <trkpt lat="45.67917" lon="5.80283">
        <ele>443.1</ele>
        <time>2022-04-15T14:24:26Z</time>
      </trkpt>
      <trkpt lat="45.67917" lon="5.80283">
        <ele>443.1</ele>
        <time>2022-04-15T14:24:27Z</time>
      </trkpt>
      <trkpt lat="45.67917" lon="5.80283">
        <ele>443.1</ele>
        <time>2022-04-15T14:24:28Z</time>
      </trkpt>
      <trkpt lat="45.67917" lon="5.80283">
        <ele>443.1</ele>
        <time>2022-04-15T14:24:29Z</time>
      </trkpt>
      <trkpt lat="45.67917" lon="5.80283">
        <ele>443.1</ele>
        <time>2022-04-15T14:24:30Z</time>
      </trkpt>
      <trkpt lat="45.67917" lon="5.80283">
        <ele>443.1</ele>
        <time>2022-04-15T14:24:31Z</time>
      </trkpt>
      <trkpt lat="45.67917" lon="5.80283">
        <ele>443.1</ele>
        <time>2022-04-15T14:24:32Z</time>
      </trkpt>
      <trkpt lat="45.67917" lon="5.80283">
        <ele>443.1</ele>
        <time>2022-04-15T14:24:33Z</time>
      </trkpt>
      <trkpt lat="45.67917" lon="5.80283">
        <ele>443.1</ele>
        <time>2022-04-15T14:24:34Z</time>
      </trkpt>
      <trkpt lat="45.67917" lon="5.80283">
        <ele>443.1</ele>
        <time>2022-04-15T14:24:35Z</time>
      </trkpt>
      <trkpt lat="45.67917" lon="5.80283">
        <ele>443.1</ele>
        <time>2022-04-15T14:24:36Z</time>
      </trkpt>
      <trkpt lat="45.67917" lon="5.80283">
        <ele>443.1</ele>
        <time>2022-04-15T14:24:37Z</time>
      </trkpt>
      <trkpt lat="45.67917" lon="5.80283">
        <ele>443.1</ele>
        <time>2022-04-15T14:24:38Z</time>
      </trkpt>
      <trkpt lat="45.67917" lon="5.80283">
        <ele>443.1</ele>
        <time>2022-04-15T14:24:39Z</time>
      </trkpt>
      <trkpt lat="45.67917" lon="5.80283">
        <ele>443.1</ele>
        <time>2022-04-15T14:24:40Z</time>
      </trkpt>
      <trkpt lat="45.67917" lon="5.80283">
        <ele>443.1</ele>
        <time>2022-04-15T14:24:41Z</time>
      </trkpt>
      <trkpt lat="45.67917" lon="5.80283">
        <ele>443.1</ele>
        <time>2022-04-15T14:24:42Z</time>
      </trkpt>
      <trkpt lat="45.67917" lon="5.80283">
        <ele>443.1</ele>
        <time>2022-04-15T14:24:43Z</time>
      </trkpt>
      <trkpt lat="45.67917" lon="5.80283">
        <ele>443.1</ele>
        <time>2022-04-15T14:24:44Z</time>
      </trkpt>
      <trkpt lat="45.67917" lon="5.80283">
        <ele>443.1</ele>
        <time>2022-04-15T14:24:45Z</time>
      </trkpt>
      <trkpt lat="45.67917" lon="5.80283">
        <ele>443.1</ele>
        <time>2022-04-15T14:24:46Z</time>
      </trkpt>
      <trkpt lat="45.67917" lon="5.80283">
        <ele>443.1</ele>
        <time>2022-04-15T14:24:47Z</time>
      </trkpt>
      <trkpt lat="45.67917" lon="5.80283">
        <ele>443.1</ele>
        <time>2022-04-15T14:24:48Z</time>
      </trkpt>
      <trkpt lat="45.67917" lon="5.80283">
        <ele>443.1</ele>
        <time>2022-04-15T14:24:49Z</time>
      </trkpt>
      <trkpt lat="45.67917" lon="5.80283">
        <ele>443.1</ele>
        <time>2022-04-15T14:24:50Z</time>
      </trkpt>
      <trkpt lat="45.67917" lon="5.80283">
        <ele>443.1</ele>
        <time>2022-04-15T14:24:51Z</time>
      </trkpt>
      <trkpt lat="45.67917" lon="5.80283">
        <ele>443.1</ele>
        <time>2022-04-15T14:24:52Z</time>
      </trkpt>
      <trkpt lat="45.67917" lon="5.80283">
        <ele>443.1</ele>
        <time>2022-04-15T14:24:53Z</time>
      </trkpt>
      <trkpt lat="45.67917" lon="5.80283">
        <ele>443.1</ele>
        <time>2022-04-15T14:24:54Z</time>
      </trkpt>
      <trkpt lat="45.67917" lon="5.80283">
        <ele>443.1</ele>
        <time>2022-04-15T14:24:55Z</time>
      </trkpt>
      <trkpt lat="45.67917" lon="5.80283">
        <ele>443.1</ele>
        <time>2022-04-15T14:24:56Z</time>
      </trkpt>
      <trkpt lat="45.67917" lon="5.80283">
        <ele>443.1</ele>
        <time>2022-04-15T14:24:57Z</time>
      </trkpt>
      <trkpt lat="45.67917" lon="5.80283">
        <ele>443.1</ele>
        <time>2022-04-15T14:24:58Z</time>
      </trkpt>
      <trkpt lat="45.67917" lon="5.80283">
        <ele>443.1</ele>
        <time>2022-04-15T14:24:59Z</time>
      </trkpt>
      <trkpt lat="45.67917" lon="5.80283">
        <ele>443.1</ele>
        <time>2022-04-15T14:25:00Z</time>
      </trkpt>
      <trkpt lat="45.67917" lon="5.80283">
        <ele>443.1</ele>
        <time>2022-04-15T14:25:01Z</time>
      </trkpt>
      <trkpt lat="45.67917" lon="5.80283">
        <ele>443.1</ele>
        <time>2022-04-15T14:25:02Z</time>
      </trkpt>
      <trkpt lat="45.67917" lon="5.80283">
        <ele>443.1</ele>
        <time>2022-04-15T14:25:03Z</time>
      </trkpt>
      <trkpt lat="45.67917" lon="5.80283">
        <ele>443.1</ele>
        <time>2022-04-15T14:25:04Z</time>
      </trkpt>
      <trkpt lat="45.67917" lon="5.80283">
        <ele>443.1</ele>
        <time>2022-04-15T14:25:05Z</time>
      </trkpt>
      <trkpt lat="45.67917" lon="5.80283">
        <ele>443.1</ele>
        <time>2022-04-15T14:25:06Z</time>
      </trkpt>
      <trkpt lat="45.67917" lon="5.80283">
        <ele>443.1</ele>
        <time>2022-04-15T14:25:07Z</time>
      </trkpt>
      <trkpt lat="45.67917" lon="5.80283">
        <ele>443.1</ele>
        <time>2022-04-15T14:25:08Z</time>
      </trkpt>
      <trkpt lat="45.67917" lon="5.80283">
        <ele>443.1</ele>
        <time>2022-04-15T14:25:09Z</time>
      </trkpt>
      <trkpt lat="45.67917" lon="5.80283">
        <ele>443.1</ele>
        <time>2022-04-15T14:25:10Z</time>
      </trkpt>
      <trkpt lat="45.67917" lon="5.80283">
        <ele>443.1</ele>
        <time>2022-04-15T14:25:11Z</time>
      </trkpt>
      <trkpt lat="45.67917" lon="5.80283">
        <ele>443.1</ele>
        <time>2022-04-15T14:25:12Z</time>
      </trkpt>
      <trkpt lat="45.67917" lon="5.80283">
        <ele>443.1</ele>
        <time>2022-04-15T14:25:13Z</time>
      </trkpt>
      <trkpt lat="45.67917" lon="5.80283">
        <ele>443.1</ele>
        <time>2022-04-15T14:25:14Z</time>
      </trkpt>
      <trkpt lat="45.67917" lon="5.80283">
        <ele>443.1</ele>
        <time>2022-04-15T14:25:15Z</time>
      </trkpt>
      <trkpt lat="45.67917" lon="5.80283">
        <ele>443.1</ele>
        <time>2022-04-15T14:25:16Z</time>
      </trkpt>
      <trkpt lat="45.67917" lon="5.80283">
        <ele>443.1</ele>
        <time>2022-04-15T14:25:17Z</time>
      </trkpt>
      <trkpt lat="45.67917" lon="5.80283">
        <ele>443.1</ele>
        <time>2022-04-15T14:25:18Z</time>
      </trkpt>
      <trkpt lat="45.67917" lon="5.80283">
        <ele>443.1</ele>
        <time>2022-04-15T14:25:19Z</time>
      </trkpt>
      <trkpt lat="45.67916" lon="5.80283">
        <ele>443.1</ele>
        <time>2022-04-15T14:25:20Z</time>
      </trkpt>
      <trkpt lat="45.67916" lon="5.80283">
        <ele>443.1</ele>
        <time>2022-04-15T14:25:21Z</time>
      </trkpt>
      <trkpt lat="45.67915" lon="5.80283">
        <ele>443.1</ele>
        <time>2022-04-15T14:25:22Z</time>
      </trkpt>
      <trkpt lat="45.67914" lon="5.80283">
        <ele>443.3</ele>
        <time>2022-04-15T14:25:23Z</time>
      </trkpt>
      <trkpt lat="45.67913" lon="5.80283">
        <ele>443.3</ele>
        <time>2022-04-15T14:25:24Z</time>
      </trkpt>
      <trkpt lat="45.67912" lon="5.80283">
        <ele>443.3</ele>
        <time>2022-04-15T14:25:25Z</time>
      </trkpt>
      <trkpt lat="45.67911" lon="5.80283">
        <ele>443.4</ele>
        <time>2022-04-15T14:25:26Z</time>
      </trkpt>
      <trkpt lat="45.67909" lon="5.80284">
        <ele>443.4</ele>
        <time>2022-04-15T14:25:27Z</time>
      </trkpt>
      <trkpt lat="45.67908" lon="5.80284">
        <ele>443.4</ele>
        <time>2022-04-15T14:25:28Z</time>
      </trkpt>
      <trkpt lat="45.67907" lon="5.80284">
        <ele>443.5</ele>
        <time>2022-04-15T14:25:30Z</time>
      </trkpt>
      <trkpt lat="45.67907" lon="5.80284">
        <ele>443.5</ele>
        <time>2022-04-15T14:25:31Z</time>
      </trkpt>
      <trkpt lat="45.67905" lon="5.80284">
        <ele>443.6</ele>
        <time>2022-04-15T14:25:33Z</time>
      </trkpt>
      <trkpt lat="45.67903" lon="5.80285">
        <ele>443.6</ele>
        <time>2022-04-15T14:25:34Z</time>
      </trkpt>
      <trkpt lat="45.67901" lon="5.80286">
        <ele>443.7</ele>
        <time>2022-04-15T14:25:35Z</time>
      </trkpt>
      <trkpt lat="45.679" lon="5.80287">
        <ele>443.7</ele>
        <time>2022-04-15T14:25:36Z</time>
      </trkpt>
      <trkpt lat="45.679" lon="5.80288">
        <ele>443.7</ele>
        <time>2022-04-15T14:25:37Z</time>
      </trkpt>
      <trkpt lat="45.67898" lon="5.80288">
        <ele>443.9</ele>
        <time>2022-04-15T14:25:39Z</time>
      </trkpt>
      <trkpt lat="45.67897" lon="5.80289">
        <ele>443.9</ele>
        <time>2022-04-15T14:25:40Z</time>
      </trkpt>
      <trkpt lat="45.67894" lon="5.8029">
        <ele>444.1</ele>
        <time>2022-04-15T14:25:41Z</time>
      </trkpt>
      <trkpt lat="45.67893" lon="5.8029">
        <ele>444.1</ele>
        <time>2022-04-15T14:25:42Z</time>
      </trkpt>
      <trkpt lat="45.67891" lon="5.8029">
        <ele>444.2</ele>
        <time>2022-04-15T14:25:44Z</time>
      </trkpt>
      <trkpt lat="45.6789" lon="5.8029">
        <ele>444.4</ele>
        <time>2022-04-15T14:25:45Z</time>
      </trkpt>
      <trkpt lat="45.67888" lon="5.8029">
        <ele>444.4</ele>
        <time>2022-04-15T14:25:46Z</time>
      </trkpt>
      <trkpt lat="45.67887" lon="5.8029">
        <ele>444.5</ele>
        <time>2022-04-15T14:25:48Z</time>
      </trkpt>
      <trkpt lat="45.67885" lon="5.8029">
        <ele>444.5</ele>
        <time>2022-04-15T14:25:49Z</time>
      </trkpt>
      <trkpt lat="45.67884" lon="5.8029">
        <ele>444.5</ele>
        <time>2022-04-15T14:25:50Z</time>
      </trkpt>
      <trkpt lat="45.67883" lon="5.8029">
        <ele>444.7</ele>
        <time>2022-04-15T14:25:51Z</time>
      </trkpt>
      <trkpt lat="45.67882" lon="5.80289">
        <ele>444.7</ele>
        <time>2022-04-15T14:25:52Z</time>
      </trkpt>
      <trkpt lat="45.6788" lon="5.80288">
        <ele>444.8</ele>
        <time>2022-04-15T14:25:53Z</time>
      </trkpt>
      <trkpt lat="45.67879" lon="5.80288">
        <ele>444.8</ele>
        <time>2022-04-15T14:25:55Z</time>
      </trkpt>
      <trkpt lat="45.67877" lon="5.80288">
        <ele>445</ele>
        <time>2022-04-15T14:25:56Z</time>
      </trkpt>
      <trkpt lat="45.67876" lon="5.80288">
        <ele>445</ele>
        <time>2022-04-15T14:25:57Z</time>
      </trkpt>
      <trkpt lat="45.67874" lon="5.80288">
        <ele>445.1</ele>
        <time>2022-04-15T14:25:59Z</time>
      </trkpt>
      <trkpt lat="45.67874" lon="5.80288">
        <ele>445.1</ele>
        <time>2022-04-15T14:26:00Z</time>
      </trkpt>
      <trkpt lat="45.67872" lon="5.80289">
        <ele>445.3</ele>
        <time>2022-04-15T14:26:02Z</time>
      </trkpt>
      <trkpt lat="45.67871" lon="5.8029">
        <ele>445.3</ele>
        <time>2022-04-15T14:26:03Z</time>
      </trkpt>
      <trkpt lat="45.6787" lon="5.8029">
        <ele>445.3</ele>
        <time>2022-04-15T14:26:04Z</time>
      </trkpt>
      <trkpt lat="45.6787" lon="5.8029">
        <ele>445.3</ele>
        <time>2022-04-15T14:26:05Z</time>
      </trkpt>
      <trkpt lat="45.6787" lon="5.8029">
        <ele>445.3</ele>
        <time>2022-04-15T14:26:06Z</time>
      </trkpt>
      <trkpt lat="45.6787" lon="5.80291">
        <ele>445.3</ele>
        <time>2022-04-15T14:26:07Z</time>
      </trkpt>
      <trkpt lat="45.67869" lon="5.80291">
        <ele>445.3</ele>
        <time>2022-04-15T14:26:08Z</time>
      </trkpt>
      <trkpt lat="45.67869" lon="5.80291">
        <ele>445.3</ele>
        <time>2022-04-15T14:26:09Z</time>
      </trkpt>
      <trkpt lat="45.67869" lon="5.80291">
        <ele>445.3</ele>
        <time>2022-04-15T14:26:10Z</time>
      </trkpt>
      <trkpt lat="45.67869" lon="5.80291">
        <ele>445.4</ele>
        <time>2022-04-15T14:26:11Z</time>
      </trkpt>
      <trkpt lat="45.67869" lon="5.80291">
        <ele>445.4</ele>
        <time>2022-04-15T14:26:12Z</time>
      </trkpt>
      <trkpt lat="45.67869" lon="5.80291">
        <ele>445.4</ele>
        <time>2022-04-15T14:26:13Z</time>
      </trkpt>
      <trkpt lat="45.67868" lon="5.80291">
        <ele>445.4</ele>
        <time>2022-04-15T14:26:14Z</time>
      </trkpt>
      <trkpt lat="45.67868" lon="5.80291">
        <ele>445.4</ele>
        <time>2022-04-15T14:26:15Z</time>
      </trkpt>
      <trkpt lat="45.67868" lon="5.80291">
        <ele>445.4</ele>
        <time>2022-04-15T14:26:16Z</time>
      </trkpt>
      <trkpt lat="45.67868" lon="5.80292">
        <ele>445.4</ele>
        <time>2022-04-15T14:26:17Z</time>
      </trkpt>
      <trkpt lat="45.67868" lon="5.80292">
        <ele>445.4</ele>
        <time>2022-04-15T14:26:18Z</time>
      </trkpt>
      <trkpt lat="45.67868" lon="5.80292">
        <ele>445.4</ele>
        <time>2022-04-15T14:26:19Z</time>
      </trkpt>
      <trkpt lat="45.67867" lon="5.80292">
        <ele>445.4</ele>
        <time>2022-04-15T14:26:20Z</time>
      </trkpt>
      <trkpt lat="45.67867" lon="5.80292">
        <ele>445.4</ele>
        <time>2022-04-15T14:26:21Z</time>
      </trkpt>
      <trkpt lat="45.67866" lon="5.80291">
        <ele>445.4</ele>
        <time>2022-04-15T14:26:23Z</time>
      </trkpt>
      <trkpt lat="45.67866" lon="5.80291">
        <ele>445.4</ele>
        <time>2022-04-15T14:26:24Z</time>
      </trkpt>
      <trkpt lat="45.67866" lon="5.80292">
        <ele>445.6</ele>
        <time>2022-04-15T14:26:25Z</time>
      </trkpt>
      <trkpt lat="45.67866" lon="5.80292">
        <ele>445.6</ele>
        <time>2022-04-15T14:26:26Z</time>
      </trkpt>
      <trkpt lat="45.67866" lon="5.80292">
        <ele>445.6</ele>
        <time>2022-04-15T14:26:27Z</time>
      </trkpt>
      <trkpt lat="45.67866" lon="5.80293">
        <ele>445.6</ele>
        <time>2022-04-15T14:26:28Z</time>
      </trkpt>
      <trkpt lat="45.67866" lon="5.80293">
        <ele>445.6</ele>
        <time>2022-04-15T14:26:29Z</time>
      </trkpt>
      <trkpt lat="45.67866" lon="5.80293">
        <ele>445.6</ele>
        <time>2022-04-15T14:26:30Z</time>
      </trkpt>
      <trkpt lat="45.67865" lon="5.80293">
        <ele>445.6</ele>
        <time>2022-04-15T14:26:31Z</time>
      </trkpt>
      <trkpt lat="45.67865" lon="5.80293">
        <ele>445.6</ele>
        <time>2022-04-15T14:26:33Z</time>
      </trkpt>
      <trkpt lat="45.67865" lon="5.80293">
        <ele>445.6</ele>
        <time>2022-04-15T14:26:34Z</time>
      </trkpt>
      <trkpt lat="45.67865" lon="5.80293">
        <ele>445.6</ele>
        <time>2022-04-15T14:26:35Z</time>
      </trkpt>
      <trkpt lat="45.67865" lon="5.80293">
        <ele>445.6</ele>
        <time>2022-04-15T14:26:36Z</time>
      </trkpt>
      <trkpt lat="45.67865" lon="5.80293">
        <ele>445.6</ele>
        <time>2022-04-15T14:26:37Z</time>
      </trkpt>
      <trkpt lat="45.67865" lon="5.80293">
        <ele>445.6</ele>
        <time>2022-04-15T14:26:38Z</time>
      </trkpt>
      <trkpt lat="45.67865" lon="5.80293">
        <ele>445.6</ele>
        <time>2022-04-15T14:26:39Z</time>
      </trkpt>
      <trkpt lat="45.67866" lon="5.80293">
        <ele>445.6</ele>
        <time>2022-04-15T14:26:40Z</time>
      </trkpt>
      <trkpt lat="45.67866" lon="5.80292">
        <ele>445.6</ele>
        <time>2022-04-15T14:26:41Z</time>
      </trkpt>
      <trkpt lat="45.67866" lon="5.80292">
        <ele>445.6</ele>
        <time>2022-04-15T14:26:42Z</time>
      </trkpt>
      <trkpt lat="45.67866" lon="5.80292">
        <ele>445.6</ele>
        <time>2022-04-15T14:26:43Z</time>
      </trkpt>
      <trkpt lat="45.67866" lon="5.80293">
        <ele>445.6</ele>
        <time>2022-04-15T14:26:44Z</time>
      </trkpt>
      <trkpt lat="45.67866" lon="5.80293">
        <ele>445.6</ele>
        <time>2022-04-15T14:26:45Z</time>
      </trkpt>
      <trkpt lat="45.67866" lon="5.80293">
        <ele>445.6</ele>
        <time>2022-04-15T14:26:46Z</time>
      </trkpt>
      <trkpt lat="45.67866" lon="5.80293">
        <ele>445.6</ele>
        <time>2022-04-15T14:26:47Z</time>
      </trkpt>
      <trkpt lat="45.67866" lon="5.80293">
        <ele>445.6</ele>
        <time>2022-04-15T14:26:48Z</time>
      </trkpt>
      <trkpt lat="45.67866" lon="5.80293">
        <ele>445.6</ele>
        <time>2022-04-15T14:26:49Z</time>
      </trkpt>
      <trkpt lat="45.67866" lon="5.80293">
        <ele>445.6</ele>
        <time>2022-04-15T14:26:50Z</time>
      </trkpt>
      <trkpt lat="45.67866" lon="5.80293">
        <ele>445.6</ele>
        <time>2022-04-15T14:26:51Z</time>
      </trkpt>
      <trkpt lat="45.67866" lon="5.80293">
        <ele>445.6</ele>
        <time>2022-04-15T14:26:52Z</time>
      </trkpt>
      <trkpt lat="45.67866" lon="5.80293">
        <ele>445.6</ele>
        <time>2022-04-15T14:26:53Z</time>
      </trkpt>
      <trkpt lat="45.67866" lon="5.80293">
        <ele>445.6</ele>
        <time>2022-04-15T14:26:54Z</time>
      </trkpt>
      <trkpt lat="45.67866" lon="5.80293">
        <ele>445.6</ele>
        <time>2022-04-15T14:26:55Z</time>
      </trkpt>
      <trkpt lat="45.67866" lon="5.80293">
        <ele>445.6</ele>
        <time>2022-04-15T14:26:56Z</time>
      </trkpt>
      <trkpt lat="45.67866" lon="5.80293">
        <ele>445.6</ele>
        <time>2022-04-15T14:26:57Z</time>
      </trkpt>
      <trkpt lat="45.67866" lon="5.80293">
        <ele>445.6</ele>
        <time>2022-04-15T14:26:58Z</time>
      </trkpt>
      <trkpt lat="45.67866" lon="5.80293">
        <ele>445.6</ele>
        <time>2022-04-15T14:26:59Z</time>
      </trkpt>
      <trkpt lat="45.67866" lon="5.80293">
        <ele>445.6</ele>
        <time>2022-04-15T14:27:00Z</time>
      </trkpt>
      <trkpt lat="45.67866" lon="5.80293">
        <ele>445.6</ele>
        <time>2022-04-15T14:27:01Z</time>
      </trkpt>
      <trkpt lat="45.67866" lon="5.80293">
        <ele>445.6</ele>
        <time>2022-04-15T14:27:02Z</time>
      </trkpt>
      <trkpt lat="45.67866" lon="5.80293">
        <ele>445.6</ele>
        <time>2022-04-15T14:27:03Z</time>
      </trkpt>
      <trkpt lat="45.67866" lon="5.80293">
        <ele>445.6</ele>
        <time>2022-04-15T14:27:04Z</time>
      </trkpt>
      <trkpt lat="45.67866" lon="5.80293">
        <ele>445.6</ele>
        <time>2022-04-15T14:27:05Z</time>
      </trkpt>
    </trkseg>
  </trk>
</gpx>